<?xml version="1.0" encoding="UTF-8" standalone="no" ?>
<gpx xmlns="http://www.topografix.com/GPX/1/1" xmlns:xsi="http://www.w3.org/2001/XMLSchema-instance" xsi:schemaLocation="http://www.topografix.com/GPX/1/1 http://www.topografix.com/GPX/1/1/gpx.xsd" version="1.1" creator="VisuGPX - https://www.visugpx.com">
  <metadata>
    <name>Les montées paunatoises 2022</name>
  </metadata>
  <trk>
    <name><![CDATA[Les montées paunatoises 2022_1]]></name>
    <trkseg>
      <trkpt lat="44.90046" lon="0.85668">
        <ele>132.2</ele>
        <time>2022-05-15T06:32:31Z</time>
      </trkpt>
      <trkpt lat="44.90048" lon="0.85668">
        <ele>132.3</ele>
        <time>2022-05-15T06:32:32Z</time>
      </trkpt>
      <trkpt lat="44.90053" lon="0.8567">
        <ele>132.4</ele>
        <time>2022-05-15T06:32:34Z</time>
      </trkpt>
      <trkpt lat="44.90059" lon="0.85671">
        <ele>132.5</ele>
        <time>2022-05-15T06:32:36Z</time>
      </trkpt>
      <trkpt lat="44.90064" lon="0.85671">
        <ele>132.7</ele>
        <time>2022-05-15T06:32:38Z</time>
      </trkpt>
      <trkpt lat="44.90069" lon="0.85672">
        <ele>132.8</ele>
        <time>2022-05-15T06:32:40Z</time>
      </trkpt>
      <trkpt lat="44.90071" lon="0.85674">
        <ele>132.8</ele>
        <time>2022-05-15T06:32:42Z</time>
      </trkpt>
      <trkpt lat="44.90071" lon="0.85674">
        <ele>132.8</ele>
        <time>2022-05-15T06:32:44Z</time>
      </trkpt>
      <trkpt lat="44.90079" lon="0.85677">
        <ele>132.9</ele>
        <time>2022-05-15T06:34:07Z</time>
      </trkpt>
      <trkpt lat="44.9008" lon="0.85679">
        <ele>133</ele>
        <time>2022-05-15T06:34:08Z</time>
      </trkpt>
      <trkpt lat="44.90082" lon="0.85683">
        <ele>133</ele>
        <time>2022-05-15T06:34:10Z</time>
      </trkpt>
      <trkpt lat="44.90083" lon="0.85688">
        <ele>133.1</ele>
        <time>2022-05-15T06:34:12Z</time>
      </trkpt>
      <trkpt lat="44.90083" lon="0.85692">
        <ele>133.1</ele>
        <time>2022-05-15T06:34:14Z</time>
      </trkpt>
      <trkpt lat="44.90084" lon="0.85695">
        <ele>133.2</ele>
        <time>2022-05-15T06:34:15Z</time>
      </trkpt>
      <trkpt lat="44.90084" lon="0.85697">
        <ele>133.2</ele>
        <time>2022-05-15T06:34:16Z</time>
      </trkpt>
      <trkpt lat="44.90085" lon="0.85701">
        <ele>133.3</ele>
        <time>2022-05-15T06:34:18Z</time>
      </trkpt>
      <trkpt lat="44.90086" lon="0.85707">
        <ele>133.4</ele>
        <time>2022-05-15T06:34:20Z</time>
      </trkpt>
      <trkpt lat="44.90087" lon="0.85711">
        <ele>133.4</ele>
        <time>2022-05-15T06:34:21Z</time>
      </trkpt>
      <trkpt lat="44.90086" lon="0.85717">
        <ele>133.5</ele>
        <time>2022-05-15T06:34:22Z</time>
      </trkpt>
      <trkpt lat="44.90089" lon="0.85717">
        <ele>133.5</ele>
        <time>2022-05-15T06:34:24Z</time>
      </trkpt>
      <trkpt lat="44.90091" lon="0.85717">
        <ele>133.6</ele>
        <time>2022-05-15T06:34:25Z</time>
      </trkpt>
      <trkpt lat="44.90094" lon="0.85717">
        <ele>133.6</ele>
        <time>2022-05-15T06:34:26Z</time>
      </trkpt>
      <trkpt lat="44.90099" lon="0.85717">
        <ele>133.7</ele>
        <time>2022-05-15T06:34:28Z</time>
      </trkpt>
      <trkpt lat="44.90104" lon="0.85717">
        <ele>133.8</ele>
        <time>2022-05-15T06:34:30Z</time>
      </trkpt>
      <trkpt lat="44.90109" lon="0.85717">
        <ele>133.9</ele>
        <time>2022-05-15T06:34:32Z</time>
      </trkpt>
      <trkpt lat="44.90112" lon="0.85717">
        <ele>133.9</ele>
        <time>2022-05-15T06:34:33Z</time>
      </trkpt>
      <trkpt lat="44.90114" lon="0.85717">
        <ele>133.9</ele>
        <time>2022-05-15T06:34:34Z</time>
      </trkpt>
      <trkpt lat="44.90119" lon="0.85717">
        <ele>134</ele>
        <time>2022-05-15T06:34:36Z</time>
      </trkpt>
      <trkpt lat="44.90123" lon="0.85717">
        <ele>134</ele>
        <time>2022-05-15T06:34:38Z</time>
      </trkpt>
      <trkpt lat="44.90125" lon="0.85716">
        <ele>134</ele>
        <time>2022-05-15T06:34:39Z</time>
      </trkpt>
      <trkpt lat="44.90127" lon="0.85716">
        <ele>134</ele>
        <time>2022-05-15T06:34:40Z</time>
      </trkpt>
      <trkpt lat="44.90133" lon="0.85714">
        <ele>134.1</ele>
        <time>2022-05-15T06:34:42Z</time>
      </trkpt>
      <trkpt lat="44.90138" lon="0.85713">
        <ele>134.1</ele>
        <time>2022-05-15T06:34:44Z</time>
      </trkpt>
      <trkpt lat="44.9014" lon="0.85713">
        <ele>134.1</ele>
        <time>2022-05-15T06:34:45Z</time>
      </trkpt>
      <trkpt lat="44.90143" lon="0.85712">
        <ele>134.2</ele>
        <time>2022-05-15T06:34:46Z</time>
      </trkpt>
      <trkpt lat="44.90147" lon="0.8571">
        <ele>134.2</ele>
        <time>2022-05-15T06:34:48Z</time>
      </trkpt>
      <trkpt lat="44.90152" lon="0.85708">
        <ele>134.2</ele>
        <time>2022-05-15T06:34:50Z</time>
      </trkpt>
      <trkpt lat="44.90158" lon="0.85706">
        <ele>134.1</ele>
        <time>2022-05-15T06:34:52Z</time>
      </trkpt>
      <trkpt lat="44.90164" lon="0.85703">
        <ele>134.1</ele>
        <time>2022-05-15T06:34:54Z</time>
      </trkpt>
      <trkpt lat="44.90169" lon="0.85701">
        <ele>134</ele>
        <time>2022-05-15T06:34:56Z</time>
      </trkpt>
      <trkpt lat="44.90172" lon="0.857">
        <ele>133.9</ele>
        <time>2022-05-15T06:34:57Z</time>
      </trkpt>
      <trkpt lat="44.90176" lon="0.857">
        <ele>133.9</ele>
        <time>2022-05-15T06:34:58Z</time>
      </trkpt>
      <trkpt lat="44.90183" lon="0.85699">
        <ele>133.8</ele>
        <time>2022-05-15T06:35:00Z</time>
      </trkpt>
      <trkpt lat="44.90191" lon="0.85698">
        <ele>133.7</ele>
        <time>2022-05-15T06:35:02Z</time>
      </trkpt>
      <trkpt lat="44.90195" lon="0.85698">
        <ele>133.7</ele>
        <time>2022-05-15T06:35:03Z</time>
      </trkpt>
      <trkpt lat="44.90198" lon="0.85697">
        <ele>133.6</ele>
        <time>2022-05-15T06:35:04Z</time>
      </trkpt>
      <trkpt lat="44.90206" lon="0.85697">
        <ele>133.6</ele>
        <time>2022-05-15T06:35:06Z</time>
      </trkpt>
      <trkpt lat="44.90213" lon="0.85696">
        <ele>133.5</ele>
        <time>2022-05-15T06:35:08Z</time>
      </trkpt>
      <trkpt lat="44.90216" lon="0.85695">
        <ele>133.5</ele>
        <time>2022-05-15T06:35:09Z</time>
      </trkpt>
      <trkpt lat="44.9022" lon="0.85694">
        <ele>133.5</ele>
        <time>2022-05-15T06:35:10Z</time>
      </trkpt>
      <trkpt lat="44.90226" lon="0.85692">
        <ele>133.5</ele>
        <time>2022-05-15T06:35:12Z</time>
      </trkpt>
      <trkpt lat="44.90226" lon="0.85681">
        <ele>133.5</ele>
        <time>2022-05-15T06:35:14Z</time>
      </trkpt>
      <trkpt lat="44.90224" lon="0.85677">
        <ele>133.4</ele>
        <time>2022-05-15T06:35:15Z</time>
      </trkpt>
      <trkpt lat="44.90222" lon="0.85673">
        <ele>133.4</ele>
        <time>2022-05-15T06:35:16Z</time>
      </trkpt>
      <trkpt lat="44.9022" lon="0.85664">
        <ele>133.2</ele>
        <time>2022-05-15T06:35:18Z</time>
      </trkpt>
      <trkpt lat="44.9022" lon="0.85656">
        <ele>133</ele>
        <time>2022-05-15T06:35:20Z</time>
      </trkpt>
      <trkpt lat="44.9022" lon="0.85646">
        <ele>132.8</ele>
        <time>2022-05-15T06:35:22Z</time>
      </trkpt>
      <trkpt lat="44.90221" lon="0.85636">
        <ele>132.4</ele>
        <time>2022-05-15T06:35:24Z</time>
      </trkpt>
      <trkpt lat="44.90222" lon="0.85627">
        <ele>132.1</ele>
        <time>2022-05-15T06:35:26Z</time>
      </trkpt>
      <trkpt lat="44.9023" lon="0.85616">
        <ele>131.6</ele>
        <time>2022-05-15T06:35:28Z</time>
      </trkpt>
      <trkpt lat="44.90234" lon="0.85614">
        <ele>131.5</ele>
        <time>2022-05-15T06:35:29Z</time>
      </trkpt>
      <trkpt lat="44.90239" lon="0.85615">
        <ele>131.3</ele>
        <time>2022-05-15T06:35:30Z</time>
      </trkpt>
      <trkpt lat="44.90248" lon="0.85617">
        <ele>131.1</ele>
        <time>2022-05-15T06:35:32Z</time>
      </trkpt>
      <trkpt lat="44.90258" lon="0.85619">
        <ele>131.3</ele>
        <time>2022-05-15T06:35:34Z</time>
      </trkpt>
      <trkpt lat="44.90267" lon="0.85622">
        <ele>131.6</ele>
        <time>2022-05-15T06:35:36Z</time>
      </trkpt>
      <trkpt lat="44.90274" lon="0.85623">
        <ele>131.9</ele>
        <time>2022-05-15T06:35:38Z</time>
      </trkpt>
      <trkpt lat="44.90282" lon="0.85625">
        <ele>132.2</ele>
        <time>2022-05-15T06:35:40Z</time>
      </trkpt>
      <trkpt lat="44.90289" lon="0.85627">
        <ele>132.5</ele>
        <time>2022-05-15T06:35:42Z</time>
      </trkpt>
      <trkpt lat="44.90292" lon="0.85628">
        <ele>132.7</ele>
        <time>2022-05-15T06:35:43Z</time>
      </trkpt>
      <trkpt lat="44.90296" lon="0.85629">
        <ele>132.9</ele>
        <time>2022-05-15T06:35:44Z</time>
      </trkpt>
      <trkpt lat="44.90303" lon="0.8563">
        <ele>133.3</ele>
        <time>2022-05-15T06:35:46Z</time>
      </trkpt>
      <trkpt lat="44.90309" lon="0.85632">
        <ele>133.6</ele>
        <time>2022-05-15T06:35:48Z</time>
      </trkpt>
      <trkpt lat="44.90315" lon="0.85633">
        <ele>133.9</ele>
        <time>2022-05-15T06:35:50Z</time>
      </trkpt>
      <trkpt lat="44.90318" lon="0.85634">
        <ele>134.1</ele>
        <time>2022-05-15T06:35:51Z</time>
      </trkpt>
      <trkpt lat="44.90321" lon="0.85636">
        <ele>134.3</ele>
        <time>2022-05-15T06:35:52Z</time>
      </trkpt>
      <trkpt lat="44.90327" lon="0.85638">
        <ele>134.6</ele>
        <time>2022-05-15T06:35:54Z</time>
      </trkpt>
      <trkpt lat="44.90333" lon="0.85641">
        <ele>134.8</ele>
        <time>2022-05-15T06:35:56Z</time>
      </trkpt>
      <trkpt lat="44.90339" lon="0.85644">
        <ele>135.1</ele>
        <time>2022-05-15T06:35:58Z</time>
      </trkpt>
      <trkpt lat="44.90345" lon="0.85647">
        <ele>135.3</ele>
        <time>2022-05-15T06:36:00Z</time>
      </trkpt>
      <trkpt lat="44.90351" lon="0.8565">
        <ele>135.5</ele>
        <time>2022-05-15T06:36:02Z</time>
      </trkpt>
      <trkpt lat="44.90357" lon="0.85653">
        <ele>135.6</ele>
        <time>2022-05-15T06:36:04Z</time>
      </trkpt>
      <trkpt lat="44.90364" lon="0.85655">
        <ele>135.8</ele>
        <time>2022-05-15T06:36:06Z</time>
      </trkpt>
      <trkpt lat="44.9037" lon="0.85657">
        <ele>135.8</ele>
        <time>2022-05-15T06:36:08Z</time>
      </trkpt>
      <trkpt lat="44.90376" lon="0.85659">
        <ele>135.7</ele>
        <time>2022-05-15T06:36:10Z</time>
      </trkpt>
      <trkpt lat="44.90384" lon="0.85662">
        <ele>135.8</ele>
        <time>2022-05-15T06:36:12Z</time>
      </trkpt>
      <trkpt lat="44.90391" lon="0.85658">
        <ele>136.3</ele>
        <time>2022-05-15T06:36:14Z</time>
      </trkpt>
      <trkpt lat="44.90398" lon="0.85655">
        <ele>136.8</ele>
        <time>2022-05-15T06:36:16Z</time>
      </trkpt>
      <trkpt lat="44.904" lon="0.85651">
        <ele>137</ele>
        <time>2022-05-15T06:36:17Z</time>
      </trkpt>
      <trkpt lat="44.90401" lon="0.85648">
        <ele>137.2</ele>
        <time>2022-05-15T06:36:18Z</time>
      </trkpt>
      <trkpt lat="44.90405" lon="0.85641">
        <ele>137.5</ele>
        <time>2022-05-15T06:36:20Z</time>
      </trkpt>
      <trkpt lat="44.90408" lon="0.85634">
        <ele>137.8</ele>
        <time>2022-05-15T06:36:22Z</time>
      </trkpt>
      <trkpt lat="44.90411" lon="0.85628">
        <ele>138.1</ele>
        <time>2022-05-15T06:36:24Z</time>
      </trkpt>
      <trkpt lat="44.90414" lon="0.85621">
        <ele>138.4</ele>
        <time>2022-05-15T06:36:26Z</time>
      </trkpt>
      <trkpt lat="44.90417" lon="0.85614">
        <ele>138.7</ele>
        <time>2022-05-15T06:36:28Z</time>
      </trkpt>
      <trkpt lat="44.90419" lon="0.85607">
        <ele>139.1</ele>
        <time>2022-05-15T06:36:30Z</time>
      </trkpt>
      <trkpt lat="44.90421" lon="0.856">
        <ele>139.4</ele>
        <time>2022-05-15T06:36:32Z</time>
      </trkpt>
      <trkpt lat="44.90424" lon="0.85593">
        <ele>139.7</ele>
        <time>2022-05-15T06:36:34Z</time>
      </trkpt>
      <trkpt lat="44.90426" lon="0.85586">
        <ele>140.1</ele>
        <time>2022-05-15T06:36:36Z</time>
      </trkpt>
      <trkpt lat="44.90429" lon="0.85579">
        <ele>140.5</ele>
        <time>2022-05-15T06:36:38Z</time>
      </trkpt>
      <trkpt lat="44.90431" lon="0.85576">
        <ele>140.7</ele>
        <time>2022-05-15T06:36:39Z</time>
      </trkpt>
      <trkpt lat="44.90432" lon="0.85573">
        <ele>140.9</ele>
        <time>2022-05-15T06:36:40Z</time>
      </trkpt>
      <trkpt lat="44.90436" lon="0.85566">
        <ele>141.4</ele>
        <time>2022-05-15T06:36:42Z</time>
      </trkpt>
      <trkpt lat="44.90439" lon="0.8556">
        <ele>141.9</ele>
        <time>2022-05-15T06:36:44Z</time>
      </trkpt>
      <trkpt lat="44.90441" lon="0.85558">
        <ele>142.1</ele>
        <time>2022-05-15T06:36:45Z</time>
      </trkpt>
      <trkpt lat="44.90444" lon="0.85555">
        <ele>142.4</ele>
        <time>2022-05-15T06:36:46Z</time>
      </trkpt>
      <trkpt lat="44.90449" lon="0.8555">
        <ele>143</ele>
        <time>2022-05-15T06:36:48Z</time>
      </trkpt>
      <trkpt lat="44.90454" lon="0.85547">
        <ele>143.6</ele>
        <time>2022-05-15T06:36:50Z</time>
      </trkpt>
      <trkpt lat="44.90459" lon="0.85544">
        <ele>144.2</ele>
        <time>2022-05-15T06:36:52Z</time>
      </trkpt>
      <trkpt lat="44.90463" lon="0.85542">
        <ele>144.6</ele>
        <time>2022-05-15T06:36:54Z</time>
      </trkpt>
      <trkpt lat="44.90467" lon="0.85539">
        <ele>145.2</ele>
        <time>2022-05-15T06:36:56Z</time>
      </trkpt>
      <trkpt lat="44.90469" lon="0.85538">
        <ele>145.4</ele>
        <time>2022-05-15T06:36:57Z</time>
      </trkpt>
      <trkpt lat="44.90472" lon="0.85537">
        <ele>145.7</ele>
        <time>2022-05-15T06:36:58Z</time>
      </trkpt>
      <trkpt lat="44.90476" lon="0.85534">
        <ele>146.3</ele>
        <time>2022-05-15T06:37:00Z</time>
      </trkpt>
      <trkpt lat="44.90479" lon="0.85533">
        <ele>146.5</ele>
        <time>2022-05-15T06:37:01Z</time>
      </trkpt>
      <trkpt lat="44.90481" lon="0.85531">
        <ele>146.8</ele>
        <time>2022-05-15T06:37:02Z</time>
      </trkpt>
      <trkpt lat="44.90487" lon="0.85528">
        <ele>147.4</ele>
        <time>2022-05-15T06:37:04Z</time>
      </trkpt>
      <trkpt lat="44.90489" lon="0.85527">
        <ele>147.6</ele>
        <time>2022-05-15T06:37:05Z</time>
      </trkpt>
      <trkpt lat="44.90492" lon="0.85526">
        <ele>147.8</ele>
        <time>2022-05-15T06:37:06Z</time>
      </trkpt>
      <trkpt lat="44.90497" lon="0.85523">
        <ele>148.4</ele>
        <time>2022-05-15T06:37:08Z</time>
      </trkpt>
      <trkpt lat="44.90503" lon="0.8552">
        <ele>148.9</ele>
        <time>2022-05-15T06:37:10Z</time>
      </trkpt>
      <trkpt lat="44.90508" lon="0.85516">
        <ele>149.4</ele>
        <time>2022-05-15T06:37:12Z</time>
      </trkpt>
      <trkpt lat="44.90512" lon="0.85514">
        <ele>149.9</ele>
        <time>2022-05-15T06:37:14Z</time>
      </trkpt>
      <trkpt lat="44.90517" lon="0.85511">
        <ele>150.4</ele>
        <time>2022-05-15T06:37:16Z</time>
      </trkpt>
      <trkpt lat="44.9052" lon="0.8551">
        <ele>150.6</ele>
        <time>2022-05-15T06:37:17Z</time>
      </trkpt>
      <trkpt lat="44.90522" lon="0.85509">
        <ele>150.8</ele>
        <time>2022-05-15T06:37:18Z</time>
      </trkpt>
      <trkpt lat="44.90526" lon="0.85507">
        <ele>151.2</ele>
        <time>2022-05-15T06:37:20Z</time>
      </trkpt>
      <trkpt lat="44.90531" lon="0.85505">
        <ele>151.8</ele>
        <time>2022-05-15T06:37:22Z</time>
      </trkpt>
      <trkpt lat="44.90536" lon="0.85502">
        <ele>152.3</ele>
        <time>2022-05-15T06:37:24Z</time>
      </trkpt>
      <trkpt lat="44.90541" lon="0.855">
        <ele>152.7</ele>
        <time>2022-05-15T06:37:26Z</time>
      </trkpt>
      <trkpt lat="44.90542" lon="0.85499">
        <ele>152.9</ele>
        <time>2022-05-15T06:37:27Z</time>
      </trkpt>
      <trkpt lat="44.90545" lon="0.85497">
        <ele>153.1</ele>
        <time>2022-05-15T06:37:28Z</time>
      </trkpt>
      <trkpt lat="44.90549" lon="0.85493">
        <ele>153.3</ele>
        <time>2022-05-15T06:37:30Z</time>
      </trkpt>
      <trkpt lat="44.90554" lon="0.85484">
        <ele>153.5</ele>
        <time>2022-05-15T06:37:32Z</time>
      </trkpt>
      <trkpt lat="44.90553" lon="0.85473">
        <ele>153.4</ele>
        <time>2022-05-15T06:37:34Z</time>
      </trkpt>
      <trkpt lat="44.90552" lon="0.85466">
        <ele>153.2</ele>
        <time>2022-05-15T06:37:36Z</time>
      </trkpt>
      <trkpt lat="44.90551" lon="0.85458">
        <ele>153</ele>
        <time>2022-05-15T06:37:38Z</time>
      </trkpt>
      <trkpt lat="44.90549" lon="0.8545">
        <ele>152.8</ele>
        <time>2022-05-15T06:37:40Z</time>
      </trkpt>
      <trkpt lat="44.90548" lon="0.8544">
        <ele>152.6</ele>
        <time>2022-05-15T06:37:42Z</time>
      </trkpt>
      <trkpt lat="44.90547" lon="0.85436">
        <ele>152.5</ele>
        <time>2022-05-15T06:37:43Z</time>
      </trkpt>
      <trkpt lat="44.90546" lon="0.85431">
        <ele>152.5</ele>
        <time>2022-05-15T06:37:44Z</time>
      </trkpt>
      <trkpt lat="44.90544" lon="0.85423">
        <ele>152.4</ele>
        <time>2022-05-15T06:37:46Z</time>
      </trkpt>
      <trkpt lat="44.90543" lon="0.85419">
        <ele>152.4</ele>
        <time>2022-05-15T06:37:47Z</time>
      </trkpt>
      <trkpt lat="44.90542" lon="0.85415">
        <ele>152.4</ele>
        <time>2022-05-15T06:37:48Z</time>
      </trkpt>
      <trkpt lat="44.90539" lon="0.85405">
        <ele>152.5</ele>
        <time>2022-05-15T06:37:50Z</time>
      </trkpt>
      <trkpt lat="44.90538" lon="0.854">
        <ele>152.6</ele>
        <time>2022-05-15T06:37:51Z</time>
      </trkpt>
      <trkpt lat="44.90537" lon="0.85396">
        <ele>152.7</ele>
        <time>2022-05-15T06:37:52Z</time>
      </trkpt>
      <trkpt lat="44.90535" lon="0.85388">
        <ele>153</ele>
        <time>2022-05-15T06:37:54Z</time>
      </trkpt>
      <trkpt lat="44.90533" lon="0.85379">
        <ele>153.4</ele>
        <time>2022-05-15T06:37:56Z</time>
      </trkpt>
      <trkpt lat="44.90529" lon="0.85369">
        <ele>154</ele>
        <time>2022-05-15T06:37:58Z</time>
      </trkpt>
      <trkpt lat="44.90524" lon="0.85361">
        <ele>154.5</ele>
        <time>2022-05-15T06:38:00Z</time>
      </trkpt>
      <trkpt lat="44.90522" lon="0.85357">
        <ele>154.8</ele>
        <time>2022-05-15T06:38:01Z</time>
      </trkpt>
      <trkpt lat="44.90519" lon="0.85352">
        <ele>155</ele>
        <time>2022-05-15T06:38:02Z</time>
      </trkpt>
      <trkpt lat="44.90514" lon="0.85344">
        <ele>155.4</ele>
        <time>2022-05-15T06:38:04Z</time>
      </trkpt>
      <trkpt lat="44.90509" lon="0.85336">
        <ele>155.6</ele>
        <time>2022-05-15T06:38:06Z</time>
      </trkpt>
      <trkpt lat="44.90505" lon="0.85326">
        <ele>155.6</ele>
        <time>2022-05-15T06:38:08Z</time>
      </trkpt>
      <trkpt lat="44.90502" lon="0.85315">
        <ele>155.3</ele>
        <time>2022-05-15T06:38:10Z</time>
      </trkpt>
      <trkpt lat="44.90499" lon="0.85302">
        <ele>154.8</ele>
        <time>2022-05-15T06:38:12Z</time>
      </trkpt>
      <trkpt lat="44.90498" lon="0.85295">
        <ele>154.4</ele>
        <time>2022-05-15T06:38:13Z</time>
      </trkpt>
      <trkpt lat="44.90497" lon="0.85288">
        <ele>154.1</ele>
        <time>2022-05-15T06:38:14Z</time>
      </trkpt>
      <trkpt lat="44.90496" lon="0.85281">
        <ele>153.7</ele>
        <time>2022-05-15T06:38:15Z</time>
      </trkpt>
      <trkpt lat="44.90495" lon="0.85273">
        <ele>153.4</ele>
        <time>2022-05-15T06:38:16Z</time>
      </trkpt>
      <trkpt lat="44.90494" lon="0.85258">
        <ele>152.6</ele>
        <time>2022-05-15T06:38:18Z</time>
      </trkpt>
      <trkpt lat="44.90495" lon="0.8525">
        <ele>152.2</ele>
        <time>2022-05-15T06:38:19Z</time>
      </trkpt>
      <trkpt lat="44.90495" lon="0.85241">
        <ele>151.7</ele>
        <time>2022-05-15T06:38:20Z</time>
      </trkpt>
      <trkpt lat="44.90496" lon="0.85232">
        <ele>151.2</ele>
        <time>2022-05-15T06:38:21Z</time>
      </trkpt>
      <trkpt lat="44.90496" lon="0.85222">
        <ele>150.7</ele>
        <time>2022-05-15T06:38:22Z</time>
      </trkpt>
      <trkpt lat="44.90496" lon="0.85213">
        <ele>150.1</ele>
        <time>2022-05-15T06:38:23Z</time>
      </trkpt>
      <trkpt lat="44.90499" lon="0.85204">
        <ele>149.5</ele>
        <time>2022-05-15T06:38:24Z</time>
      </trkpt>
      <trkpt lat="44.90505" lon="0.85184">
        <ele>148.1</ele>
        <time>2022-05-15T06:38:26Z</time>
      </trkpt>
      <trkpt lat="44.90508" lon="0.85173">
        <ele>147.3</ele>
        <time>2022-05-15T06:38:27Z</time>
      </trkpt>
      <trkpt lat="44.9051" lon="0.85162">
        <ele>146.5</ele>
        <time>2022-05-15T06:38:28Z</time>
      </trkpt>
      <trkpt lat="44.90512" lon="0.85153">
        <ele>145.7</ele>
        <time>2022-05-15T06:38:29Z</time>
      </trkpt>
      <trkpt lat="44.90513" lon="0.85143">
        <ele>144.8</ele>
        <time>2022-05-15T06:38:30Z</time>
      </trkpt>
      <trkpt lat="44.90514" lon="0.85133">
        <ele>143.9</ele>
        <time>2022-05-15T06:38:31Z</time>
      </trkpt>
      <trkpt lat="44.90515" lon="0.85122">
        <ele>142.9</ele>
        <time>2022-05-15T06:38:32Z</time>
      </trkpt>
      <trkpt lat="44.90516" lon="0.85099">
        <ele>141</ele>
        <time>2022-05-15T06:38:34Z</time>
      </trkpt>
      <trkpt lat="44.90519" lon="0.85079">
        <ele>139.4</ele>
        <time>2022-05-15T06:38:36Z</time>
      </trkpt>
      <trkpt lat="44.9052" lon="0.85071">
        <ele>138.8</ele>
        <time>2022-05-15T06:38:37Z</time>
      </trkpt>
      <trkpt lat="44.90521" lon="0.85063">
        <ele>138.3</ele>
        <time>2022-05-15T06:38:38Z</time>
      </trkpt>
      <trkpt lat="44.90522" lon="0.85055">
        <ele>137.6</ele>
        <time>2022-05-15T06:38:39Z</time>
      </trkpt>
      <trkpt lat="44.90523" lon="0.85047">
        <ele>137</ele>
        <time>2022-05-15T06:38:40Z</time>
      </trkpt>
      <trkpt lat="44.90524" lon="0.85039">
        <ele>136.4</ele>
        <time>2022-05-15T06:38:41Z</time>
      </trkpt>
      <trkpt lat="44.90526" lon="0.8503">
        <ele>135.6</ele>
        <time>2022-05-15T06:38:42Z</time>
      </trkpt>
      <trkpt lat="44.90531" lon="0.85009">
        <ele>134</ele>
        <time>2022-05-15T06:38:44Z</time>
      </trkpt>
      <trkpt lat="44.90536" lon="0.84988">
        <ele>132.6</ele>
        <time>2022-05-15T06:38:46Z</time>
      </trkpt>
      <trkpt lat="44.9054" lon="0.84967">
        <ele>131.4</ele>
        <time>2022-05-15T06:38:48Z</time>
      </trkpt>
      <trkpt lat="44.90545" lon="0.84945">
        <ele>130.1</ele>
        <time>2022-05-15T06:38:50Z</time>
      </trkpt>
      <trkpt lat="44.9055" lon="0.84921">
        <ele>129</ele>
        <time>2022-05-15T06:38:52Z</time>
      </trkpt>
      <trkpt lat="44.90553" lon="0.84901">
        <ele>128</ele>
        <time>2022-05-15T06:38:54Z</time>
      </trkpt>
      <trkpt lat="44.90557" lon="0.84884">
        <ele>127</ele>
        <time>2022-05-15T06:38:56Z</time>
      </trkpt>
      <trkpt lat="44.90558" lon="0.84874">
        <ele>126.3</ele>
        <time>2022-05-15T06:38:57Z</time>
      </trkpt>
      <trkpt lat="44.90559" lon="0.84862">
        <ele>125.5</ele>
        <time>2022-05-15T06:38:58Z</time>
      </trkpt>
      <trkpt lat="44.90565" lon="0.84838">
        <ele>124</ele>
        <time>2022-05-15T06:39:00Z</time>
      </trkpt>
      <trkpt lat="44.90571" lon="0.84813">
        <ele>122.4</ele>
        <time>2022-05-15T06:39:02Z</time>
      </trkpt>
      <trkpt lat="44.90577" lon="0.84789">
        <ele>121</ele>
        <time>2022-05-15T06:39:04Z</time>
      </trkpt>
      <trkpt lat="44.90584" lon="0.84766">
        <ele>119.7</ele>
        <time>2022-05-15T06:39:06Z</time>
      </trkpt>
      <trkpt lat="44.90592" lon="0.84745">
        <ele>118.4</ele>
        <time>2022-05-15T06:39:08Z</time>
      </trkpt>
      <trkpt lat="44.90595" lon="0.84735">
        <ele>117.7</ele>
        <time>2022-05-15T06:39:09Z</time>
      </trkpt>
      <trkpt lat="44.90599" lon="0.84725">
        <ele>116.8</ele>
        <time>2022-05-15T06:39:10Z</time>
      </trkpt>
      <trkpt lat="44.90604" lon="0.84716">
        <ele>116</ele>
        <time>2022-05-15T06:39:11Z</time>
      </trkpt>
      <trkpt lat="44.90609" lon="0.84708">
        <ele>115.2</ele>
        <time>2022-05-15T06:39:12Z</time>
      </trkpt>
      <trkpt lat="44.90623" lon="0.8469">
        <ele>113.1</ele>
        <time>2022-05-15T06:39:14Z</time>
      </trkpt>
      <trkpt lat="44.90631" lon="0.84682">
        <ele>111.9</ele>
        <time>2022-05-15T06:39:15Z</time>
      </trkpt>
      <trkpt lat="44.90639" lon="0.84673">
        <ele>110.4</ele>
        <time>2022-05-15T06:39:16Z</time>
      </trkpt>
      <trkpt lat="44.90654" lon="0.84656">
        <ele>107.2</ele>
        <time>2022-05-15T06:39:18Z</time>
      </trkpt>
      <trkpt lat="44.90661" lon="0.84647">
        <ele>105.8</ele>
        <time>2022-05-15T06:39:19Z</time>
      </trkpt>
      <trkpt lat="44.90667" lon="0.84639">
        <ele>104.5</ele>
        <time>2022-05-15T06:39:20Z</time>
      </trkpt>
      <trkpt lat="44.90675" lon="0.84637">
        <ele>103.5</ele>
        <time>2022-05-15T06:39:21Z</time>
      </trkpt>
      <trkpt lat="44.90682" lon="0.84634">
        <ele>102.4</ele>
        <time>2022-05-15T06:39:22Z</time>
      </trkpt>
      <trkpt lat="44.90688" lon="0.84632">
        <ele>101.4</ele>
        <time>2022-05-15T06:39:23Z</time>
      </trkpt>
      <trkpt lat="44.90694" lon="0.8463">
        <ele>100.6</ele>
        <time>2022-05-15T06:39:24Z</time>
      </trkpt>
      <trkpt lat="44.90706" lon="0.84626">
        <ele>99.3</ele>
        <time>2022-05-15T06:39:26Z</time>
      </trkpt>
      <trkpt lat="44.90712" lon="0.84624">
        <ele>98.8</ele>
        <time>2022-05-15T06:39:27Z</time>
      </trkpt>
      <trkpt lat="44.90718" lon="0.84621">
        <ele>98.4</ele>
        <time>2022-05-15T06:39:28Z</time>
      </trkpt>
      <trkpt lat="44.90724" lon="0.84618">
        <ele>98.2</ele>
        <time>2022-05-15T06:39:29Z</time>
      </trkpt>
      <trkpt lat="44.90732" lon="0.84614">
        <ele>97.7</ele>
        <time>2022-05-15T06:39:30Z</time>
      </trkpt>
      <trkpt lat="44.90739" lon="0.84607">
        <ele>96.8</ele>
        <time>2022-05-15T06:39:31Z</time>
      </trkpt>
      <trkpt lat="44.90743" lon="0.84599">
        <ele>95.9</ele>
        <time>2022-05-15T06:39:32Z</time>
      </trkpt>
      <trkpt lat="44.90748" lon="0.84592">
        <ele>95.1</ele>
        <time>2022-05-15T06:39:33Z</time>
      </trkpt>
      <trkpt lat="44.90751" lon="0.84579">
        <ele>94.2</ele>
        <time>2022-05-15T06:39:34Z</time>
      </trkpt>
      <trkpt lat="44.90754" lon="0.8456">
        <ele>93.9</ele>
        <time>2022-05-15T06:39:36Z</time>
      </trkpt>
      <trkpt lat="44.90754" lon="0.84544">
        <ele>94.1</ele>
        <time>2022-05-15T06:39:38Z</time>
      </trkpt>
      <trkpt lat="44.90754" lon="0.84529">
        <ele>94.5</ele>
        <time>2022-05-15T06:39:40Z</time>
      </trkpt>
      <trkpt lat="44.90754" lon="0.84522">
        <ele>94.6</ele>
        <time>2022-05-15T06:39:41Z</time>
      </trkpt>
      <trkpt lat="44.90754" lon="0.84515">
        <ele>94.8</ele>
        <time>2022-05-15T06:39:42Z</time>
      </trkpt>
      <trkpt lat="44.90755" lon="0.84502">
        <ele>95.4</ele>
        <time>2022-05-15T06:39:44Z</time>
      </trkpt>
      <trkpt lat="44.90756" lon="0.84497">
        <ele>95.7</ele>
        <time>2022-05-15T06:39:45Z</time>
      </trkpt>
      <trkpt lat="44.90757" lon="0.84492">
        <ele>96</ele>
        <time>2022-05-15T06:39:46Z</time>
      </trkpt>
      <trkpt lat="44.90758" lon="0.84485">
        <ele>96.4</ele>
        <time>2022-05-15T06:39:48Z</time>
      </trkpt>
      <trkpt lat="44.90757" lon="0.8448">
        <ele>97.1</ele>
        <time>2022-05-15T06:39:50Z</time>
      </trkpt>
      <trkpt lat="44.90755" lon="0.84476">
        <ele>97.7</ele>
        <time>2022-05-15T06:39:52Z</time>
      </trkpt>
      <trkpt lat="44.90754" lon="0.84474">
        <ele>98</ele>
        <time>2022-05-15T06:39:54Z</time>
      </trkpt>
      <trkpt lat="44.9075" lon="0.84469">
        <ele>98.9</ele>
        <time>2022-05-15T06:39:56Z</time>
      </trkpt>
      <trkpt lat="44.90749" lon="0.84468">
        <ele>99.2</ele>
        <time>2022-05-15T06:39:57Z</time>
      </trkpt>
      <trkpt lat="44.90748" lon="0.84467">
        <ele>99.4</ele>
        <time>2022-05-15T06:39:58Z</time>
      </trkpt>
      <trkpt lat="44.90748" lon="0.84467">
        <ele>99.4</ele>
        <time>2022-05-15T06:39:59Z</time>
      </trkpt>
      <trkpt lat="44.90747" lon="0.84465">
        <ele>99.7</ele>
        <time>2022-05-15T06:40:00Z</time>
      </trkpt>
      <trkpt lat="44.90744" lon="0.84463">
        <ele>100.2</ele>
        <time>2022-05-15T06:40:02Z</time>
      </trkpt>
      <trkpt lat="44.90741" lon="0.84459">
        <ele>101</ele>
        <time>2022-05-15T06:40:04Z</time>
      </trkpt>
      <trkpt lat="44.9074" lon="0.84457">
        <ele>101.3</ele>
        <time>2022-05-15T06:40:06Z</time>
      </trkpt>
      <trkpt lat="44.90737" lon="0.84453">
        <ele>102</ele>
        <time>2022-05-15T06:40:08Z</time>
      </trkpt>
      <trkpt lat="44.90734" lon="0.8445">
        <ele>102.8</ele>
        <time>2022-05-15T06:40:10Z</time>
      </trkpt>
      <trkpt lat="44.90732" lon="0.84448">
        <ele>103</ele>
        <time>2022-05-15T06:40:12Z</time>
      </trkpt>
      <trkpt lat="44.90716" lon="0.84429">
        <ele>106.5</ele>
        <time>2022-05-15T06:40:28Z</time>
      </trkpt>
      <trkpt lat="44.90714" lon="0.84426">
        <ele>107</ele>
        <time>2022-05-15T06:40:30Z</time>
      </trkpt>
      <trkpt lat="44.90714" lon="0.84426">
        <ele>107</ele>
        <time>2022-05-15T06:40:31Z</time>
      </trkpt>
      <trkpt lat="44.90713" lon="0.84425">
        <ele>107.2</ele>
        <time>2022-05-15T06:40:32Z</time>
      </trkpt>
      <trkpt lat="44.90711" lon="0.84423">
        <ele>107.5</ele>
        <time>2022-05-15T06:40:34Z</time>
      </trkpt>
      <trkpt lat="44.90709" lon="0.84421">
        <ele>107.9</ele>
        <time>2022-05-15T06:40:36Z</time>
      </trkpt>
      <trkpt lat="44.90708" lon="0.84419">
        <ele>108.1</ele>
        <time>2022-05-15T06:40:37Z</time>
      </trkpt>
      <trkpt lat="44.90707" lon="0.84418">
        <ele>108.3</ele>
        <time>2022-05-15T06:40:38Z</time>
      </trkpt>
      <trkpt lat="44.90705" lon="0.84416">
        <ele>108.6</ele>
        <time>2022-05-15T06:40:40Z</time>
      </trkpt>
      <trkpt lat="44.90702" lon="0.84412">
        <ele>109.2</ele>
        <time>2022-05-15T06:40:42Z</time>
      </trkpt>
      <trkpt lat="44.90701" lon="0.8441">
        <ele>109.6</ele>
        <time>2022-05-15T06:40:43Z</time>
      </trkpt>
      <trkpt lat="44.90699" lon="0.84408">
        <ele>109.9</ele>
        <time>2022-05-15T06:40:44Z</time>
      </trkpt>
      <trkpt lat="44.90699" lon="0.84408">
        <ele>109.9</ele>
        <time>2022-05-15T06:40:45Z</time>
      </trkpt>
      <trkpt lat="44.90648" lon="0.84404">
        <ele>117.9</ele>
        <time>2022-05-15T06:41:20Z</time>
      </trkpt>
      <trkpt lat="44.9065" lon="0.84403">
        <ele>118.4</ele>
        <time>2022-05-15T06:41:22Z</time>
      </trkpt>
      <trkpt lat="44.90653" lon="0.84402">
        <ele>118.8</ele>
        <time>2022-05-15T06:41:24Z</time>
      </trkpt>
      <trkpt lat="44.90657" lon="0.84401">
        <ele>119.2</ele>
        <time>2022-05-15T06:41:26Z</time>
      </trkpt>
      <trkpt lat="44.9066" lon="0.84399">
        <ele>119.7</ele>
        <time>2022-05-15T06:41:28Z</time>
      </trkpt>
      <trkpt lat="44.90664" lon="0.84396">
        <ele>120.1</ele>
        <time>2022-05-15T06:41:30Z</time>
      </trkpt>
      <trkpt lat="44.90666" lon="0.84393">
        <ele>120.4</ele>
        <time>2022-05-15T06:41:32Z</time>
      </trkpt>
      <trkpt lat="44.90668" lon="0.84389">
        <ele>120.8</ele>
        <time>2022-05-15T06:41:34Z</time>
      </trkpt>
      <trkpt lat="44.90667" lon="0.84386">
        <ele>120.9</ele>
        <time>2022-05-15T06:41:35Z</time>
      </trkpt>
      <trkpt lat="44.90668" lon="0.84383">
        <ele>121.1</ele>
        <time>2022-05-15T06:41:36Z</time>
      </trkpt>
      <trkpt lat="44.90672" lon="0.84376">
        <ele>121.9</ele>
        <time>2022-05-15T06:41:38Z</time>
      </trkpt>
      <trkpt lat="44.90672" lon="0.84376">
        <ele>121.9</ele>
        <time>2022-05-15T06:41:39Z</time>
      </trkpt>
      <trkpt lat="44.90672" lon="0.84375">
        <ele>122</ele>
        <time>2022-05-15T06:41:40Z</time>
      </trkpt>
      <trkpt lat="44.90672" lon="0.84371">
        <ele>122.3</ele>
        <time>2022-05-15T06:41:42Z</time>
      </trkpt>
      <trkpt lat="44.90671" lon="0.84366">
        <ele>122.7</ele>
        <time>2022-05-15T06:41:44Z</time>
      </trkpt>
      <trkpt lat="44.90671" lon="0.84362">
        <ele>123.1</ele>
        <time>2022-05-15T06:41:46Z</time>
      </trkpt>
      <trkpt lat="44.90671" lon="0.84357">
        <ele>123.5</ele>
        <time>2022-05-15T06:41:48Z</time>
      </trkpt>
      <trkpt lat="44.9067" lon="0.84352">
        <ele>123.9</ele>
        <time>2022-05-15T06:41:50Z</time>
      </trkpt>
      <trkpt lat="44.9067" lon="0.8435">
        <ele>124.1</ele>
        <time>2022-05-15T06:41:51Z</time>
      </trkpt>
      <trkpt lat="44.9067" lon="0.84347">
        <ele>124.3</ele>
        <time>2022-05-15T06:41:52Z</time>
      </trkpt>
      <trkpt lat="44.90669" lon="0.84345">
        <ele>124.5</ele>
        <time>2022-05-15T06:41:53Z</time>
      </trkpt>
      <trkpt lat="44.90669" lon="0.84343">
        <ele>124.7</ele>
        <time>2022-05-15T06:41:54Z</time>
      </trkpt>
      <trkpt lat="44.90669" lon="0.8434">
        <ele>124.9</ele>
        <time>2022-05-15T06:41:55Z</time>
      </trkpt>
      <trkpt lat="44.90669" lon="0.84338">
        <ele>125.1</ele>
        <time>2022-05-15T06:41:56Z</time>
      </trkpt>
      <trkpt lat="44.90668" lon="0.84334">
        <ele>125.4</ele>
        <time>2022-05-15T06:41:58Z</time>
      </trkpt>
      <trkpt lat="44.90668" lon="0.84331">
        <ele>125.7</ele>
        <time>2022-05-15T06:41:59Z</time>
      </trkpt>
      <trkpt lat="44.90668" lon="0.84329">
        <ele>125.9</ele>
        <time>2022-05-15T06:42:00Z</time>
      </trkpt>
      <trkpt lat="44.90667" lon="0.84325">
        <ele>126.2</ele>
        <time>2022-05-15T06:42:02Z</time>
      </trkpt>
      <trkpt lat="44.90667" lon="0.84323">
        <ele>126.3</ele>
        <time>2022-05-15T06:42:03Z</time>
      </trkpt>
      <trkpt lat="44.90667" lon="0.84322">
        <ele>126.5</ele>
        <time>2022-05-15T06:42:04Z</time>
      </trkpt>
      <trkpt lat="44.90667" lon="0.8432">
        <ele>126.6</ele>
        <time>2022-05-15T06:42:05Z</time>
      </trkpt>
      <trkpt lat="44.90667" lon="0.84318">
        <ele>126.8</ele>
        <time>2022-05-15T06:42:06Z</time>
      </trkpt>
      <trkpt lat="44.90666" lon="0.84315">
        <ele>127.1</ele>
        <time>2022-05-15T06:42:08Z</time>
      </trkpt>
      <trkpt lat="44.90666" lon="0.8431">
        <ele>127.6</ele>
        <time>2022-05-15T06:42:10Z</time>
      </trkpt>
      <trkpt lat="44.90666" lon="0.8431">
        <ele>127.6</ele>
        <time>2022-05-15T06:42:11Z</time>
      </trkpt>
      <trkpt lat="44.90666" lon="0.84308">
        <ele>127.8</ele>
        <time>2022-05-15T06:42:12Z</time>
      </trkpt>
      <trkpt lat="44.90665" lon="0.84305">
        <ele>128.1</ele>
        <time>2022-05-15T06:42:14Z</time>
      </trkpt>
      <trkpt lat="44.90665" lon="0.84305">
        <ele>128.1</ele>
        <time>2022-05-15T06:42:15Z</time>
      </trkpt>
      <trkpt lat="44.90665" lon="0.84302">
        <ele>128.3</ele>
        <time>2022-05-15T06:42:16Z</time>
      </trkpt>
      <trkpt lat="44.90664" lon="0.84299">
        <ele>128.7</ele>
        <time>2022-05-15T06:42:18Z</time>
      </trkpt>
      <trkpt lat="44.90662" lon="0.84294">
        <ele>129.2</ele>
        <time>2022-05-15T06:42:20Z</time>
      </trkpt>
      <trkpt lat="44.90663" lon="0.84294">
        <ele>129.3</ele>
        <time>2022-05-15T06:42:21Z</time>
      </trkpt>
      <trkpt lat="44.90663" lon="0.84292">
        <ele>129.5</ele>
        <time>2022-05-15T06:42:22Z</time>
      </trkpt>
      <trkpt lat="44.90662" lon="0.84288">
        <ele>129.9</ele>
        <time>2022-05-15T06:42:24Z</time>
      </trkpt>
      <trkpt lat="44.90661" lon="0.84284">
        <ele>130.4</ele>
        <time>2022-05-15T06:42:26Z</time>
      </trkpt>
      <trkpt lat="44.90661" lon="0.84281">
        <ele>130.8</ele>
        <time>2022-05-15T06:42:28Z</time>
      </trkpt>
      <trkpt lat="44.9066" lon="0.84277">
        <ele>131.2</ele>
        <time>2022-05-15T06:42:30Z</time>
      </trkpt>
      <trkpt lat="44.90659" lon="0.84273">
        <ele>131.7</ele>
        <time>2022-05-15T06:42:32Z</time>
      </trkpt>
      <trkpt lat="44.90659" lon="0.84271">
        <ele>131.9</ele>
        <time>2022-05-15T06:42:33Z</time>
      </trkpt>
      <trkpt lat="44.90658" lon="0.84267">
        <ele>132.5</ele>
        <time>2022-05-15T06:42:34Z</time>
      </trkpt>
      <trkpt lat="44.90658" lon="0.84264">
        <ele>132.9</ele>
        <time>2022-05-15T06:42:36Z</time>
      </trkpt>
      <trkpt lat="44.90657" lon="0.84261">
        <ele>133.3</ele>
        <time>2022-05-15T06:42:38Z</time>
      </trkpt>
      <trkpt lat="44.90657" lon="0.84257">
        <ele>133.8</ele>
        <time>2022-05-15T06:42:40Z</time>
      </trkpt>
      <trkpt lat="44.90656" lon="0.84254">
        <ele>134.2</ele>
        <time>2022-05-15T06:42:42Z</time>
      </trkpt>
      <trkpt lat="44.90656" lon="0.84251">
        <ele>134.6</ele>
        <time>2022-05-15T06:42:44Z</time>
      </trkpt>
      <trkpt lat="44.90655" lon="0.84248">
        <ele>135</ele>
        <time>2022-05-15T06:42:46Z</time>
      </trkpt>
      <trkpt lat="44.90654" lon="0.84245">
        <ele>135.5</ele>
        <time>2022-05-15T06:42:48Z</time>
      </trkpt>
      <trkpt lat="44.90654" lon="0.84243">
        <ele>135.7</ele>
        <time>2022-05-15T06:42:49Z</time>
      </trkpt>
      <trkpt lat="44.90654" lon="0.84242">
        <ele>135.9</ele>
        <time>2022-05-15T06:42:50Z</time>
      </trkpt>
      <trkpt lat="44.90653" lon="0.84235">
        <ele>136.8</ele>
        <time>2022-05-15T06:42:52Z</time>
      </trkpt>
      <trkpt lat="44.90652" lon="0.84233">
        <ele>137.1</ele>
        <time>2022-05-15T06:42:53Z</time>
      </trkpt>
      <trkpt lat="44.90652" lon="0.84231">
        <ele>137.4</ele>
        <time>2022-05-15T06:42:54Z</time>
      </trkpt>
      <trkpt lat="44.90651" lon="0.84227">
        <ele>137.9</ele>
        <time>2022-05-15T06:42:56Z</time>
      </trkpt>
      <trkpt lat="44.90651" lon="0.84223">
        <ele>138.4</ele>
        <time>2022-05-15T06:42:58Z</time>
      </trkpt>
      <trkpt lat="44.9065" lon="0.84221">
        <ele>138.7</ele>
        <time>2022-05-15T06:42:59Z</time>
      </trkpt>
      <trkpt lat="44.9065" lon="0.8422">
        <ele>138.9</ele>
        <time>2022-05-15T06:43:00Z</time>
      </trkpt>
      <trkpt lat="44.90649" lon="0.84216">
        <ele>139.3</ele>
        <time>2022-05-15T06:43:02Z</time>
      </trkpt>
      <trkpt lat="44.90649" lon="0.84214">
        <ele>139.7</ele>
        <time>2022-05-15T06:43:04Z</time>
      </trkpt>
      <trkpt lat="44.90649" lon="0.84214">
        <ele>139.7</ele>
        <time>2022-05-15T06:43:05Z</time>
      </trkpt>
      <trkpt lat="44.9064" lon="0.84166">
        <ele>145.3</ele>
        <time>2022-05-15T06:43:34Z</time>
      </trkpt>
      <trkpt lat="44.90639" lon="0.84162">
        <ele>145.6</ele>
        <time>2022-05-15T06:43:36Z</time>
      </trkpt>
      <trkpt lat="44.90637" lon="0.84156">
        <ele>146.1</ele>
        <time>2022-05-15T06:43:38Z</time>
      </trkpt>
      <trkpt lat="44.90636" lon="0.84154">
        <ele>146.2</ele>
        <time>2022-05-15T06:43:40Z</time>
      </trkpt>
      <trkpt lat="44.90634" lon="0.84147">
        <ele>146.7</ele>
        <time>2022-05-15T06:43:42Z</time>
      </trkpt>
      <trkpt lat="44.90633" lon="0.84145">
        <ele>146.8</ele>
        <time>2022-05-15T06:43:44Z</time>
      </trkpt>
      <trkpt lat="44.90632" lon="0.84141">
        <ele>147.1</ele>
        <time>2022-05-15T06:43:46Z</time>
      </trkpt>
      <trkpt lat="44.90631" lon="0.84137">
        <ele>147.3</ele>
        <time>2022-05-15T06:43:48Z</time>
      </trkpt>
      <trkpt lat="44.90629" lon="0.84133">
        <ele>147.6</ele>
        <time>2022-05-15T06:43:50Z</time>
      </trkpt>
      <trkpt lat="44.90628" lon="0.84128">
        <ele>147.9</ele>
        <time>2022-05-15T06:43:52Z</time>
      </trkpt>
      <trkpt lat="44.90626" lon="0.84122">
        <ele>148.3</ele>
        <time>2022-05-15T06:43:54Z</time>
      </trkpt>
      <trkpt lat="44.90625" lon="0.8412">
        <ele>148.4</ele>
        <time>2022-05-15T06:43:56Z</time>
      </trkpt>
      <trkpt lat="44.90624" lon="0.84118">
        <ele>148.5</ele>
        <time>2022-05-15T06:43:57Z</time>
      </trkpt>
      <trkpt lat="44.90624" lon="0.84117">
        <ele>148.6</ele>
        <time>2022-05-15T06:43:58Z</time>
      </trkpt>
      <trkpt lat="44.90623" lon="0.84114">
        <ele>148.8</ele>
        <time>2022-05-15T06:44:00Z</time>
      </trkpt>
      <trkpt lat="44.90622" lon="0.84112">
        <ele>148.9</ele>
        <time>2022-05-15T06:44:01Z</time>
      </trkpt>
      <trkpt lat="44.90621" lon="0.84109">
        <ele>149.1</ele>
        <time>2022-05-15T06:44:02Z</time>
      </trkpt>
      <trkpt lat="44.9062" lon="0.84105">
        <ele>149.3</ele>
        <time>2022-05-15T06:44:04Z</time>
      </trkpt>
      <trkpt lat="44.90619" lon="0.84101">
        <ele>149.6</ele>
        <time>2022-05-15T06:44:06Z</time>
      </trkpt>
      <trkpt lat="44.90617" lon="0.84096">
        <ele>149.8</ele>
        <time>2022-05-15T06:44:08Z</time>
      </trkpt>
      <trkpt lat="44.90615" lon="0.84091">
        <ele>150.1</ele>
        <time>2022-05-15T06:44:10Z</time>
      </trkpt>
      <trkpt lat="44.90614" lon="0.84086">
        <ele>150.4</ele>
        <time>2022-05-15T06:44:12Z</time>
      </trkpt>
      <trkpt lat="44.90612" lon="0.84082">
        <ele>150.7</ele>
        <time>2022-05-15T06:44:14Z</time>
      </trkpt>
      <trkpt lat="44.90611" lon="0.84077">
        <ele>151</ele>
        <time>2022-05-15T06:44:16Z</time>
      </trkpt>
      <trkpt lat="44.90609" lon="0.84073">
        <ele>151.3</ele>
        <time>2022-05-15T06:44:18Z</time>
      </trkpt>
      <trkpt lat="44.90608" lon="0.8407">
        <ele>151.4</ele>
        <time>2022-05-15T06:44:19Z</time>
      </trkpt>
      <trkpt lat="44.90608" lon="0.84068">
        <ele>151.6</ele>
        <time>2022-05-15T06:44:20Z</time>
      </trkpt>
      <trkpt lat="44.90606" lon="0.84063">
        <ele>151.8</ele>
        <time>2022-05-15T06:44:22Z</time>
      </trkpt>
      <trkpt lat="44.90604" lon="0.84058">
        <ele>152.1</ele>
        <time>2022-05-15T06:44:24Z</time>
      </trkpt>
      <trkpt lat="44.90603" lon="0.84053">
        <ele>152.4</ele>
        <time>2022-05-15T06:44:26Z</time>
      </trkpt>
      <trkpt lat="44.90601" lon="0.84048">
        <ele>152.7</ele>
        <time>2022-05-15T06:44:28Z</time>
      </trkpt>
      <trkpt lat="44.90599" lon="0.84043">
        <ele>153</ele>
        <time>2022-05-15T06:44:30Z</time>
      </trkpt>
      <trkpt lat="44.90599" lon="0.84041">
        <ele>153.2</ele>
        <time>2022-05-15T06:44:31Z</time>
      </trkpt>
      <trkpt lat="44.90598" lon="0.84038">
        <ele>153.3</ele>
        <time>2022-05-15T06:44:32Z</time>
      </trkpt>
      <trkpt lat="44.90596" lon="0.84033">
        <ele>153.6</ele>
        <time>2022-05-15T06:44:34Z</time>
      </trkpt>
      <trkpt lat="44.90595" lon="0.84029">
        <ele>153.9</ele>
        <time>2022-05-15T06:44:36Z</time>
      </trkpt>
      <trkpt lat="44.90594" lon="0.84026">
        <ele>154</ele>
        <time>2022-05-15T06:44:37Z</time>
      </trkpt>
      <trkpt lat="44.90593" lon="0.84024">
        <ele>154.1</ele>
        <time>2022-05-15T06:44:38Z</time>
      </trkpt>
      <trkpt lat="44.90591" lon="0.84019">
        <ele>154.4</ele>
        <time>2022-05-15T06:44:40Z</time>
      </trkpt>
      <trkpt lat="44.9059" lon="0.84014">
        <ele>154.7</ele>
        <time>2022-05-15T06:44:42Z</time>
      </trkpt>
      <trkpt lat="44.90589" lon="0.84011">
        <ele>154.9</ele>
        <time>2022-05-15T06:44:43Z</time>
      </trkpt>
      <trkpt lat="44.90588" lon="0.84008">
        <ele>155</ele>
        <time>2022-05-15T06:44:44Z</time>
      </trkpt>
      <trkpt lat="44.90586" lon="0.84003">
        <ele>155.3</ele>
        <time>2022-05-15T06:44:46Z</time>
      </trkpt>
      <trkpt lat="44.90584" lon="0.83998">
        <ele>155.6</ele>
        <time>2022-05-15T06:44:48Z</time>
      </trkpt>
      <trkpt lat="44.90583" lon="0.83995">
        <ele>155.7</ele>
        <time>2022-05-15T06:44:49Z</time>
      </trkpt>
      <trkpt lat="44.90582" lon="0.83992">
        <ele>155.9</ele>
        <time>2022-05-15T06:44:50Z</time>
      </trkpt>
      <trkpt lat="44.90585" lon="0.83984">
        <ele>155.8</ele>
        <time>2022-05-15T06:44:52Z</time>
      </trkpt>
      <trkpt lat="44.90588" lon="0.83976">
        <ele>155.7</ele>
        <time>2022-05-15T06:44:54Z</time>
      </trkpt>
      <trkpt lat="44.90591" lon="0.83967">
        <ele>155.7</ele>
        <time>2022-05-15T06:44:56Z</time>
      </trkpt>
      <trkpt lat="44.90593" lon="0.83957">
        <ele>155.7</ele>
        <time>2022-05-15T06:44:58Z</time>
      </trkpt>
      <trkpt lat="44.90593" lon="0.83947">
        <ele>155.9</ele>
        <time>2022-05-15T06:45:00Z</time>
      </trkpt>
      <trkpt lat="44.9059" lon="0.83938">
        <ele>156.1</ele>
        <time>2022-05-15T06:45:02Z</time>
      </trkpt>
      <trkpt lat="44.90588" lon="0.83934">
        <ele>156.3</ele>
        <time>2022-05-15T06:45:03Z</time>
      </trkpt>
      <trkpt lat="44.90587" lon="0.8393">
        <ele>156.5</ele>
        <time>2022-05-15T06:45:04Z</time>
      </trkpt>
      <trkpt lat="44.90584" lon="0.83921">
        <ele>156.9</ele>
        <time>2022-05-15T06:45:06Z</time>
      </trkpt>
      <trkpt lat="44.90581" lon="0.83912">
        <ele>157.4</ele>
        <time>2022-05-15T06:45:08Z</time>
      </trkpt>
      <trkpt lat="44.90577" lon="0.83903">
        <ele>158</ele>
        <time>2022-05-15T06:45:10Z</time>
      </trkpt>
      <trkpt lat="44.90576" lon="0.83898">
        <ele>158.3</ele>
        <time>2022-05-15T06:45:11Z</time>
      </trkpt>
      <trkpt lat="44.90574" lon="0.83893">
        <ele>158.7</ele>
        <time>2022-05-15T06:45:12Z</time>
      </trkpt>
      <trkpt lat="44.90569" lon="0.8389">
        <ele>159.2</ele>
        <time>2022-05-15T06:45:14Z</time>
      </trkpt>
      <trkpt lat="44.90566" lon="0.83887">
        <ele>159.5</ele>
        <time>2022-05-15T06:45:15Z</time>
      </trkpt>
      <trkpt lat="44.90563" lon="0.83886">
        <ele>159.8</ele>
        <time>2022-05-15T06:45:16Z</time>
      </trkpt>
      <trkpt lat="44.90556" lon="0.83885">
        <ele>160.4</ele>
        <time>2022-05-15T06:45:18Z</time>
      </trkpt>
      <trkpt lat="44.9055" lon="0.83884">
        <ele>161</ele>
        <time>2022-05-15T06:45:20Z</time>
      </trkpt>
      <trkpt lat="44.90543" lon="0.83882">
        <ele>161.6</ele>
        <time>2022-05-15T06:45:22Z</time>
      </trkpt>
      <trkpt lat="44.90536" lon="0.83881">
        <ele>162.1</ele>
        <time>2022-05-15T06:45:24Z</time>
      </trkpt>
      <trkpt lat="44.90531" lon="0.83878">
        <ele>162.6</ele>
        <time>2022-05-15T06:45:26Z</time>
      </trkpt>
      <trkpt lat="44.90528" lon="0.83876">
        <ele>162.8</ele>
        <time>2022-05-15T06:45:27Z</time>
      </trkpt>
      <trkpt lat="44.90526" lon="0.83873">
        <ele>163</ele>
        <time>2022-05-15T06:45:28Z</time>
      </trkpt>
      <trkpt lat="44.90522" lon="0.83867">
        <ele>163.4</ele>
        <time>2022-05-15T06:45:30Z</time>
      </trkpt>
      <trkpt lat="44.90521" lon="0.83863">
        <ele>163.6</ele>
        <time>2022-05-15T06:45:31Z</time>
      </trkpt>
      <trkpt lat="44.9052" lon="0.83859">
        <ele>163.7</ele>
        <time>2022-05-15T06:45:32Z</time>
      </trkpt>
      <trkpt lat="44.90519" lon="0.83852">
        <ele>164</ele>
        <time>2022-05-15T06:45:34Z</time>
      </trkpt>
      <trkpt lat="44.90518" lon="0.83849">
        <ele>164.1</ele>
        <time>2022-05-15T06:45:35Z</time>
      </trkpt>
      <trkpt lat="44.90517" lon="0.83845">
        <ele>164.3</ele>
        <time>2022-05-15T06:45:36Z</time>
      </trkpt>
      <trkpt lat="44.90516" lon="0.83838">
        <ele>164.5</ele>
        <time>2022-05-15T06:45:38Z</time>
      </trkpt>
      <trkpt lat="44.90515" lon="0.83831">
        <ele>164.9</ele>
        <time>2022-05-15T06:45:40Z</time>
      </trkpt>
      <trkpt lat="44.90515" lon="0.83824">
        <ele>165.2</ele>
        <time>2022-05-15T06:45:42Z</time>
      </trkpt>
      <trkpt lat="44.90514" lon="0.83817">
        <ele>165.5</ele>
        <time>2022-05-15T06:45:44Z</time>
      </trkpt>
      <trkpt lat="44.90513" lon="0.8381">
        <ele>165.8</ele>
        <time>2022-05-15T06:45:46Z</time>
      </trkpt>
      <trkpt lat="44.90513" lon="0.83803">
        <ele>166.2</ele>
        <time>2022-05-15T06:45:48Z</time>
      </trkpt>
      <trkpt lat="44.90512" lon="0.83796">
        <ele>166.5</ele>
        <time>2022-05-15T06:45:50Z</time>
      </trkpt>
      <trkpt lat="44.90512" lon="0.83789">
        <ele>166.9</ele>
        <time>2022-05-15T06:45:52Z</time>
      </trkpt>
      <trkpt lat="44.90511" lon="0.83781">
        <ele>167.3</ele>
        <time>2022-05-15T06:45:54Z</time>
      </trkpt>
      <trkpt lat="44.9051" lon="0.83774">
        <ele>167.7</ele>
        <time>2022-05-15T06:45:56Z</time>
      </trkpt>
      <trkpt lat="44.9051" lon="0.8377">
        <ele>167.9</ele>
        <time>2022-05-15T06:45:57Z</time>
      </trkpt>
      <trkpt lat="44.9051" lon="0.83767">
        <ele>168.1</ele>
        <time>2022-05-15T06:45:58Z</time>
      </trkpt>
      <trkpt lat="44.90509" lon="0.83759">
        <ele>168.6</ele>
        <time>2022-05-15T06:46:00Z</time>
      </trkpt>
      <trkpt lat="44.90509" lon="0.83751">
        <ele>169</ele>
        <time>2022-05-15T06:46:02Z</time>
      </trkpt>
      <trkpt lat="44.90508" lon="0.83744">
        <ele>169.4</ele>
        <time>2022-05-15T06:46:04Z</time>
      </trkpt>
      <trkpt lat="44.90508" lon="0.8374">
        <ele>169.6</ele>
        <time>2022-05-15T06:46:05Z</time>
      </trkpt>
      <trkpt lat="44.90507" lon="0.83737">
        <ele>169.8</ele>
        <time>2022-05-15T06:46:06Z</time>
      </trkpt>
      <trkpt lat="44.90507" lon="0.83729">
        <ele>170.3</ele>
        <time>2022-05-15T06:46:08Z</time>
      </trkpt>
      <trkpt lat="44.90506" lon="0.83722">
        <ele>170.6</ele>
        <time>2022-05-15T06:46:10Z</time>
      </trkpt>
      <trkpt lat="44.90505" lon="0.83715">
        <ele>170.9</ele>
        <time>2022-05-15T06:46:12Z</time>
      </trkpt>
      <trkpt lat="44.90505" lon="0.83708">
        <ele>171.2</ele>
        <time>2022-05-15T06:46:13Z</time>
      </trkpt>
      <trkpt lat="44.90505" lon="0.83708">
        <ele>171.2</ele>
        <time>2022-05-15T06:46:14Z</time>
      </trkpt>
      <trkpt lat="44.90504" lon="0.837">
        <ele>171.5</ele>
        <time>2022-05-15T06:46:16Z</time>
      </trkpt>
      <trkpt lat="44.90504" lon="0.83692">
        <ele>171.7</ele>
        <time>2022-05-15T06:46:18Z</time>
      </trkpt>
      <trkpt lat="44.90503" lon="0.83685">
        <ele>171.8</ele>
        <time>2022-05-15T06:46:20Z</time>
      </trkpt>
      <trkpt lat="44.90502" lon="0.83681">
        <ele>171.8</ele>
        <time>2022-05-15T06:46:21Z</time>
      </trkpt>
      <trkpt lat="44.90502" lon="0.83677">
        <ele>171.8</ele>
        <time>2022-05-15T06:46:22Z</time>
      </trkpt>
      <trkpt lat="44.90501" lon="0.83668">
        <ele>171.8</ele>
        <time>2022-05-15T06:46:24Z</time>
      </trkpt>
      <trkpt lat="44.90499" lon="0.83659">
        <ele>171.7</ele>
        <time>2022-05-15T06:46:26Z</time>
      </trkpt>
      <trkpt lat="44.90495" lon="0.83649">
        <ele>171.3</ele>
        <time>2022-05-15T06:46:28Z</time>
      </trkpt>
      <trkpt lat="44.90494" lon="0.83635">
        <ele>170.7</ele>
        <time>2022-05-15T06:46:30Z</time>
      </trkpt>
      <trkpt lat="44.90496" lon="0.83621">
        <ele>170.1</ele>
        <time>2022-05-15T06:46:32Z</time>
      </trkpt>
      <trkpt lat="44.90503" lon="0.83608">
        <ele>169.6</ele>
        <time>2022-05-15T06:46:34Z</time>
      </trkpt>
      <trkpt lat="44.90514" lon="0.83598">
        <ele>169</ele>
        <time>2022-05-15T06:46:36Z</time>
      </trkpt>
      <trkpt lat="44.90525" lon="0.83589">
        <ele>168.6</ele>
        <time>2022-05-15T06:46:38Z</time>
      </trkpt>
      <trkpt lat="44.9053" lon="0.83585">
        <ele>168.4</ele>
        <time>2022-05-15T06:46:39Z</time>
      </trkpt>
      <trkpt lat="44.90536" lon="0.8358">
        <ele>168.2</ele>
        <time>2022-05-15T06:46:40Z</time>
      </trkpt>
      <trkpt lat="44.90542" lon="0.83575">
        <ele>168.1</ele>
        <time>2022-05-15T06:46:41Z</time>
      </trkpt>
      <trkpt lat="44.90547" lon="0.83571">
        <ele>168</ele>
        <time>2022-05-15T06:46:42Z</time>
      </trkpt>
      <trkpt lat="44.90559" lon="0.83562">
        <ele>168</ele>
        <time>2022-05-15T06:46:44Z</time>
      </trkpt>
      <trkpt lat="44.90565" lon="0.83557">
        <ele>168</ele>
        <time>2022-05-15T06:46:45Z</time>
      </trkpt>
      <trkpt lat="44.90571" lon="0.83553">
        <ele>168.1</ele>
        <time>2022-05-15T06:46:46Z</time>
      </trkpt>
      <trkpt lat="44.90582" lon="0.83545">
        <ele>168.1</ele>
        <time>2022-05-15T06:46:48Z</time>
      </trkpt>
      <trkpt lat="44.90593" lon="0.83537">
        <ele>168.1</ele>
        <time>2022-05-15T06:46:50Z</time>
      </trkpt>
      <trkpt lat="44.90598" lon="0.83533">
        <ele>168.1</ele>
        <time>2022-05-15T06:46:51Z</time>
      </trkpt>
      <trkpt lat="44.90604" lon="0.83529">
        <ele>168</ele>
        <time>2022-05-15T06:46:52Z</time>
      </trkpt>
      <trkpt lat="44.90609" lon="0.83525">
        <ele>167.8</ele>
        <time>2022-05-15T06:46:53Z</time>
      </trkpt>
      <trkpt lat="44.90615" lon="0.83521">
        <ele>167.6</ele>
        <time>2022-05-15T06:46:54Z</time>
      </trkpt>
      <trkpt lat="44.90627" lon="0.83513">
        <ele>167.2</ele>
        <time>2022-05-15T06:46:56Z</time>
      </trkpt>
      <trkpt lat="44.90639" lon="0.83503">
        <ele>166.9</ele>
        <time>2022-05-15T06:46:58Z</time>
      </trkpt>
      <trkpt lat="44.90651" lon="0.83495">
        <ele>167.1</ele>
        <time>2022-05-15T06:47:00Z</time>
      </trkpt>
      <trkpt lat="44.90656" lon="0.83491">
        <ele>167.3</ele>
        <time>2022-05-15T06:47:01Z</time>
      </trkpt>
      <trkpt lat="44.90662" lon="0.83483">
        <ele>167.5</ele>
        <time>2022-05-15T06:47:02Z</time>
      </trkpt>
      <trkpt lat="44.90663" lon="0.83478">
        <ele>167.1</ele>
        <time>2022-05-15T06:47:03Z</time>
      </trkpt>
      <trkpt lat="44.90661" lon="0.83474">
        <ele>166.6</ele>
        <time>2022-05-15T06:47:04Z</time>
      </trkpt>
      <trkpt lat="44.90656" lon="0.83464">
        <ele>165.6</ele>
        <time>2022-05-15T06:47:06Z</time>
      </trkpt>
      <trkpt lat="44.90646" lon="0.83449">
        <ele>163.8</ele>
        <time>2022-05-15T06:47:08Z</time>
      </trkpt>
      <trkpt lat="44.90633" lon="0.8343">
        <ele>161.8</ele>
        <time>2022-05-15T06:47:10Z</time>
      </trkpt>
      <trkpt lat="44.90622" lon="0.83409">
        <ele>159.9</ele>
        <time>2022-05-15T06:47:12Z</time>
      </trkpt>
      <trkpt lat="44.90618" lon="0.83398">
        <ele>159</ele>
        <time>2022-05-15T06:47:13Z</time>
      </trkpt>
      <trkpt lat="44.90614" lon="0.83385">
        <ele>158</ele>
        <time>2022-05-15T06:47:14Z</time>
      </trkpt>
      <trkpt lat="44.9061" lon="0.83355">
        <ele>155.9</ele>
        <time>2022-05-15T06:47:16Z</time>
      </trkpt>
      <trkpt lat="44.90608" lon="0.83325">
        <ele>154.1</ele>
        <time>2022-05-15T06:47:18Z</time>
      </trkpt>
      <trkpt lat="44.9061" lon="0.83312">
        <ele>153.3</ele>
        <time>2022-05-15T06:47:19Z</time>
      </trkpt>
      <trkpt lat="44.90612" lon="0.83299">
        <ele>152.7</ele>
        <time>2022-05-15T06:47:20Z</time>
      </trkpt>
      <trkpt lat="44.9062" lon="0.83276">
        <ele>151.5</ele>
        <time>2022-05-15T06:47:22Z</time>
      </trkpt>
      <trkpt lat="44.90624" lon="0.83264">
        <ele>151.1</ele>
        <time>2022-05-15T06:47:23Z</time>
      </trkpt>
      <trkpt lat="44.90625" lon="0.83252">
        <ele>150.7</ele>
        <time>2022-05-15T06:47:24Z</time>
      </trkpt>
      <trkpt lat="44.90627" lon="0.83228">
        <ele>150.2</ele>
        <time>2022-05-15T06:47:26Z</time>
      </trkpt>
      <trkpt lat="44.90623" lon="0.83204">
        <ele>150</ele>
        <time>2022-05-15T06:47:28Z</time>
      </trkpt>
      <trkpt lat="44.90621" lon="0.83192">
        <ele>150.1</ele>
        <time>2022-05-15T06:47:29Z</time>
      </trkpt>
      <trkpt lat="44.90618" lon="0.83182">
        <ele>150.2</ele>
        <time>2022-05-15T06:47:30Z</time>
      </trkpt>
      <trkpt lat="44.90614" lon="0.83164">
        <ele>150.4</ele>
        <time>2022-05-15T06:47:32Z</time>
      </trkpt>
      <trkpt lat="44.90612" lon="0.83155">
        <ele>150.5</ele>
        <time>2022-05-15T06:47:33Z</time>
      </trkpt>
      <trkpt lat="44.9061" lon="0.83146">
        <ele>150.6</ele>
        <time>2022-05-15T06:47:34Z</time>
      </trkpt>
      <trkpt lat="44.90608" lon="0.83137">
        <ele>150.7</ele>
        <time>2022-05-15T06:47:35Z</time>
      </trkpt>
      <trkpt lat="44.90603" lon="0.83125">
        <ele>150.4</ele>
        <time>2022-05-15T06:47:36Z</time>
      </trkpt>
      <trkpt lat="44.90577" lon="0.83119">
        <ele>148.2</ele>
        <time>2022-05-15T06:47:38Z</time>
      </trkpt>
      <trkpt lat="44.90569" lon="0.83121">
        <ele>147.4</ele>
        <time>2022-05-15T06:47:39Z</time>
      </trkpt>
      <trkpt lat="44.90564" lon="0.83118">
        <ele>146.7</ele>
        <time>2022-05-15T06:47:40Z</time>
      </trkpt>
      <trkpt lat="44.90551" lon="0.8311">
        <ele>145.4</ele>
        <time>2022-05-15T06:47:42Z</time>
      </trkpt>
      <trkpt lat="44.90545" lon="0.83103">
        <ele>144.9</ele>
        <time>2022-05-15T06:47:43Z</time>
      </trkpt>
      <trkpt lat="44.90539" lon="0.83095">
        <ele>144.4</ele>
        <time>2022-05-15T06:47:44Z</time>
      </trkpt>
      <trkpt lat="44.90531" lon="0.83076">
        <ele>143.2</ele>
        <time>2022-05-15T06:47:46Z</time>
      </trkpt>
      <trkpt lat="44.90527" lon="0.83069">
        <ele>142.6</ele>
        <time>2022-05-15T06:47:47Z</time>
      </trkpt>
      <trkpt lat="44.90525" lon="0.83065">
        <ele>142.2</ele>
        <time>2022-05-15T06:47:48Z</time>
      </trkpt>
      <trkpt lat="44.90516" lon="0.83058">
        <ele>141</ele>
        <time>2022-05-15T06:47:50Z</time>
      </trkpt>
      <trkpt lat="44.90511" lon="0.83056">
        <ele>140.5</ele>
        <time>2022-05-15T06:47:51Z</time>
      </trkpt>
      <trkpt lat="44.90503" lon="0.8305">
        <ele>139.4</ele>
        <time>2022-05-15T06:47:52Z</time>
      </trkpt>
      <trkpt lat="44.90488" lon="0.83052">
        <ele>137.8</ele>
        <time>2022-05-15T06:47:54Z</time>
      </trkpt>
      <trkpt lat="44.90474" lon="0.83054">
        <ele>136</ele>
        <time>2022-05-15T06:47:56Z</time>
      </trkpt>
      <trkpt lat="44.90459" lon="0.83056">
        <ele>133.9</ele>
        <time>2022-05-15T06:47:58Z</time>
      </trkpt>
      <trkpt lat="44.90443" lon="0.83058">
        <ele>131.8</ele>
        <time>2022-05-15T06:48:00Z</time>
      </trkpt>
      <trkpt lat="44.90426" lon="0.8306">
        <ele>129.7</ele>
        <time>2022-05-15T06:48:02Z</time>
      </trkpt>
      <trkpt lat="44.90407" lon="0.83063">
        <ele>127.5</ele>
        <time>2022-05-15T06:48:04Z</time>
      </trkpt>
      <trkpt lat="44.9039" lon="0.83066">
        <ele>125.5</ele>
        <time>2022-05-15T06:48:06Z</time>
      </trkpt>
      <trkpt lat="44.90374" lon="0.83069">
        <ele>123.5</ele>
        <time>2022-05-15T06:48:08Z</time>
      </trkpt>
      <trkpt lat="44.90356" lon="0.83072">
        <ele>121.7</ele>
        <time>2022-05-15T06:48:10Z</time>
      </trkpt>
      <trkpt lat="44.90347" lon="0.83074">
        <ele>120.9</ele>
        <time>2022-05-15T06:48:11Z</time>
      </trkpt>
      <trkpt lat="44.90338" lon="0.83074">
        <ele>120.2</ele>
        <time>2022-05-15T06:48:12Z</time>
      </trkpt>
      <trkpt lat="44.90329" lon="0.83075">
        <ele>119.5</ele>
        <time>2022-05-15T06:48:13Z</time>
      </trkpt>
      <trkpt lat="44.90321" lon="0.83075">
        <ele>118.9</ele>
        <time>2022-05-15T06:48:14Z</time>
      </trkpt>
      <trkpt lat="44.90304" lon="0.83075">
        <ele>117.9</ele>
        <time>2022-05-15T06:48:16Z</time>
      </trkpt>
      <trkpt lat="44.90287" lon="0.83074">
        <ele>116.8</ele>
        <time>2022-05-15T06:48:18Z</time>
      </trkpt>
      <trkpt lat="44.90274" lon="0.83074">
        <ele>115.8</ele>
        <time>2022-05-15T06:48:20Z</time>
      </trkpt>
      <trkpt lat="44.90262" lon="0.8308">
        <ele>114.7</ele>
        <time>2022-05-15T06:48:22Z</time>
      </trkpt>
      <trkpt lat="44.90257" lon="0.83084">
        <ele>113.9</ele>
        <time>2022-05-15T06:48:24Z</time>
      </trkpt>
      <trkpt lat="44.9025" lon="0.83091">
        <ele>112.8</ele>
        <time>2022-05-15T06:48:26Z</time>
      </trkpt>
      <trkpt lat="44.90239" lon="0.83098">
        <ele>111.2</ele>
        <time>2022-05-15T06:48:28Z</time>
      </trkpt>
      <trkpt lat="44.90234" lon="0.83097">
        <ele>110.4</ele>
        <time>2022-05-15T06:48:29Z</time>
      </trkpt>
      <trkpt lat="44.90228" lon="0.83095">
        <ele>109.8</ele>
        <time>2022-05-15T06:48:30Z</time>
      </trkpt>
      <trkpt lat="44.90217" lon="0.83094">
        <ele>109.1</ele>
        <time>2022-05-15T06:48:32Z</time>
      </trkpt>
      <trkpt lat="44.90204" lon="0.83097">
        <ele>108.9</ele>
        <time>2022-05-15T06:48:34Z</time>
      </trkpt>
      <trkpt lat="44.90189" lon="0.831">
        <ele>109.2</ele>
        <time>2022-05-15T06:48:36Z</time>
      </trkpt>
      <trkpt lat="44.90182" lon="0.83101">
        <ele>109.4</ele>
        <time>2022-05-15T06:48:37Z</time>
      </trkpt>
      <trkpt lat="44.90176" lon="0.83102">
        <ele>109.7</ele>
        <time>2022-05-15T06:48:38Z</time>
      </trkpt>
      <trkpt lat="44.90165" lon="0.83105">
        <ele>110.2</ele>
        <time>2022-05-15T06:48:40Z</time>
      </trkpt>
      <trkpt lat="44.90152" lon="0.83107">
        <ele>110.8</ele>
        <time>2022-05-15T06:48:42Z</time>
      </trkpt>
      <trkpt lat="44.90143" lon="0.83111">
        <ele>110.9</ele>
        <time>2022-05-15T06:48:43Z</time>
      </trkpt>
      <trkpt lat="44.90136" lon="0.83116">
        <ele>111</ele>
        <time>2022-05-15T06:48:44Z</time>
      </trkpt>
      <trkpt lat="44.90122" lon="0.83125">
        <ele>111.1</ele>
        <time>2022-05-15T06:48:46Z</time>
      </trkpt>
      <trkpt lat="44.90107" lon="0.83132">
        <ele>110.5</ele>
        <time>2022-05-15T06:48:48Z</time>
      </trkpt>
      <trkpt lat="44.90099" lon="0.83136">
        <ele>109.7</ele>
        <time>2022-05-15T06:48:49Z</time>
      </trkpt>
      <trkpt lat="44.9009" lon="0.8314">
        <ele>108.8</ele>
        <time>2022-05-15T06:48:50Z</time>
      </trkpt>
      <trkpt lat="44.90071" lon="0.83149">
        <ele>107</ele>
        <time>2022-05-15T06:48:52Z</time>
      </trkpt>
      <trkpt lat="44.90062" lon="0.83154">
        <ele>106.4</ele>
        <time>2022-05-15T06:48:53Z</time>
      </trkpt>
      <trkpt lat="44.90052" lon="0.83158">
        <ele>105.8</ele>
        <time>2022-05-15T06:48:54Z</time>
      </trkpt>
      <trkpt lat="44.90043" lon="0.83163">
        <ele>105.3</ele>
        <time>2022-05-15T06:48:55Z</time>
      </trkpt>
      <trkpt lat="44.90034" lon="0.83168">
        <ele>104.9</ele>
        <time>2022-05-15T06:48:56Z</time>
      </trkpt>
      <trkpt lat="44.90026" lon="0.83173">
        <ele>104.6</ele>
        <time>2022-05-15T06:48:57Z</time>
      </trkpt>
      <trkpt lat="44.90017" lon="0.83177">
        <ele>104.3</ele>
        <time>2022-05-15T06:48:58Z</time>
      </trkpt>
      <trkpt lat="44.90009" lon="0.83182">
        <ele>104</ele>
        <time>2022-05-15T06:48:59Z</time>
      </trkpt>
      <trkpt lat="44.90001" lon="0.83186">
        <ele>103.8</ele>
        <time>2022-05-15T06:49:00Z</time>
      </trkpt>
      <trkpt lat="44.89995" lon="0.83189">
        <ele>103.7</ele>
        <time>2022-05-15T06:49:01Z</time>
      </trkpt>
      <trkpt lat="44.89989" lon="0.83192">
        <ele>103.6</ele>
        <time>2022-05-15T06:49:02Z</time>
      </trkpt>
      <trkpt lat="44.89974" lon="0.83212">
        <ele>103.2</ele>
        <time>2022-05-15T06:49:04Z</time>
      </trkpt>
      <trkpt lat="44.89968" lon="0.83221">
        <ele>103.2</ele>
        <time>2022-05-15T06:49:05Z</time>
      </trkpt>
      <trkpt lat="44.89962" lon="0.8323">
        <ele>103.1</ele>
        <time>2022-05-15T06:49:06Z</time>
      </trkpt>
      <trkpt lat="44.89951" lon="0.83247">
        <ele>103.2</ele>
        <time>2022-05-15T06:49:08Z</time>
      </trkpt>
      <trkpt lat="44.89945" lon="0.83255">
        <ele>103.4</ele>
        <time>2022-05-15T06:49:09Z</time>
      </trkpt>
      <trkpt lat="44.89939" lon="0.83262">
        <ele>103.5</ele>
        <time>2022-05-15T06:49:10Z</time>
      </trkpt>
      <trkpt lat="44.89928" lon="0.83276">
        <ele>103.9</ele>
        <time>2022-05-15T06:49:12Z</time>
      </trkpt>
      <trkpt lat="44.89922" lon="0.83283">
        <ele>104.1</ele>
        <time>2022-05-15T06:49:13Z</time>
      </trkpt>
      <trkpt lat="44.89915" lon="0.83289">
        <ele>103.9</ele>
        <time>2022-05-15T06:49:14Z</time>
      </trkpt>
      <trkpt lat="44.89908" lon="0.83294">
        <ele>103.7</ele>
        <time>2022-05-15T06:49:15Z</time>
      </trkpt>
      <trkpt lat="44.89901" lon="0.833">
        <ele>103.5</ele>
        <time>2022-05-15T06:49:16Z</time>
      </trkpt>
      <trkpt lat="44.89894" lon="0.83305">
        <ele>103.3</ele>
        <time>2022-05-15T06:49:17Z</time>
      </trkpt>
      <trkpt lat="44.89887" lon="0.8331">
        <ele>103.1</ele>
        <time>2022-05-15T06:49:18Z</time>
      </trkpt>
      <trkpt lat="44.89875" lon="0.8332">
        <ele>102.8</ele>
        <time>2022-05-15T06:49:20Z</time>
      </trkpt>
      <trkpt lat="44.89869" lon="0.83325">
        <ele>102.7</ele>
        <time>2022-05-15T06:49:21Z</time>
      </trkpt>
      <trkpt lat="44.89862" lon="0.8333">
        <ele>102.6</ele>
        <time>2022-05-15T06:49:22Z</time>
      </trkpt>
      <trkpt lat="44.8985" lon="0.8334">
        <ele>102.5</ele>
        <time>2022-05-15T06:49:24Z</time>
      </trkpt>
      <trkpt lat="44.89845" lon="0.83344">
        <ele>102.5</ele>
        <time>2022-05-15T06:49:25Z</time>
      </trkpt>
      <trkpt lat="44.89839" lon="0.83348">
        <ele>102.6</ele>
        <time>2022-05-15T06:49:26Z</time>
      </trkpt>
      <trkpt lat="44.89826" lon="0.83358">
        <ele>102.7</ele>
        <time>2022-05-15T06:49:28Z</time>
      </trkpt>
      <trkpt lat="44.8982" lon="0.83363">
        <ele>102.7</ele>
        <time>2022-05-15T06:49:29Z</time>
      </trkpt>
      <trkpt lat="44.89814" lon="0.83368">
        <ele>102.6</ele>
        <time>2022-05-15T06:49:30Z</time>
      </trkpt>
      <trkpt lat="44.89807" lon="0.83373">
        <ele>102.4</ele>
        <time>2022-05-15T06:49:31Z</time>
      </trkpt>
      <trkpt lat="44.89801" lon="0.83378">
        <ele>102.3</ele>
        <time>2022-05-15T06:49:32Z</time>
      </trkpt>
      <trkpt lat="44.89795" lon="0.83383">
        <ele>102.2</ele>
        <time>2022-05-15T06:49:33Z</time>
      </trkpt>
      <trkpt lat="44.89785" lon="0.83386">
        <ele>101.9</ele>
        <time>2022-05-15T06:49:34Z</time>
      </trkpt>
      <trkpt lat="44.89769" lon="0.83388">
        <ele>101.3</ele>
        <time>2022-05-15T06:49:36Z</time>
      </trkpt>
      <trkpt lat="44.8976" lon="0.83389">
        <ele>101</ele>
        <time>2022-05-15T06:49:37Z</time>
      </trkpt>
      <trkpt lat="44.89753" lon="0.8339">
        <ele>100.7</ele>
        <time>2022-05-15T06:49:38Z</time>
      </trkpt>
      <trkpt lat="44.89737" lon="0.83392">
        <ele>100.2</ele>
        <time>2022-05-15T06:49:40Z</time>
      </trkpt>
      <trkpt lat="44.8972" lon="0.83394">
        <ele>99.5</ele>
        <time>2022-05-15T06:49:42Z</time>
      </trkpt>
      <trkpt lat="44.89709" lon="0.83395">
        <ele>99</ele>
        <time>2022-05-15T06:49:43Z</time>
      </trkpt>
      <trkpt lat="44.89699" lon="0.83393">
        <ele>98.5</ele>
        <time>2022-05-15T06:49:44Z</time>
      </trkpt>
      <trkpt lat="44.8968" lon="0.83391">
        <ele>96.8</ele>
        <time>2022-05-15T06:49:46Z</time>
      </trkpt>
      <trkpt lat="44.89671" lon="0.83389">
        <ele>96</ele>
        <time>2022-05-15T06:49:47Z</time>
      </trkpt>
      <trkpt lat="44.89662" lon="0.83386">
        <ele>95.1</ele>
        <time>2022-05-15T06:49:48Z</time>
      </trkpt>
      <trkpt lat="44.89652" lon="0.8338">
        <ele>94.1</ele>
        <time>2022-05-15T06:49:50Z</time>
      </trkpt>
      <trkpt lat="44.89634" lon="0.834">
        <ele>92.6</ele>
        <time>2022-05-15T06:49:52Z</time>
      </trkpt>
      <trkpt lat="44.89629" lon="0.83407">
        <ele>92.3</ele>
        <time>2022-05-15T06:49:53Z</time>
      </trkpt>
      <trkpt lat="44.89625" lon="0.83414">
        <ele>92</ele>
        <time>2022-05-15T06:49:54Z</time>
      </trkpt>
      <trkpt lat="44.89617" lon="0.8343">
        <ele>91.4</ele>
        <time>2022-05-15T06:49:56Z</time>
      </trkpt>
      <trkpt lat="44.89613" lon="0.83436">
        <ele>91.2</ele>
        <time>2022-05-15T06:49:57Z</time>
      </trkpt>
      <trkpt lat="44.89597" lon="0.83423">
        <ele>90.9</ele>
        <time>2022-05-15T06:49:58Z</time>
      </trkpt>
      <trkpt lat="44.89595" lon="0.83428">
        <ele>90.9</ele>
        <time>2022-05-15T06:49:59Z</time>
      </trkpt>
      <trkpt lat="44.89593" lon="0.83434">
        <ele>90.9</ele>
        <time>2022-05-15T06:50:00Z</time>
      </trkpt>
      <trkpt lat="44.89588" lon="0.83446">
        <ele>90.9</ele>
        <time>2022-05-15T06:50:02Z</time>
      </trkpt>
      <trkpt lat="44.89586" lon="0.83451">
        <ele>90.9</ele>
        <time>2022-05-15T06:50:03Z</time>
      </trkpt>
      <trkpt lat="44.89583" lon="0.83458">
        <ele>90.9</ele>
        <time>2022-05-15T06:50:04Z</time>
      </trkpt>
      <trkpt lat="44.89575" lon="0.83479">
        <ele>90.8</ele>
        <time>2022-05-15T06:50:06Z</time>
      </trkpt>
      <trkpt lat="44.89571" lon="0.83489">
        <ele>90.7</ele>
        <time>2022-05-15T06:50:07Z</time>
      </trkpt>
      <trkpt lat="44.89568" lon="0.83499">
        <ele>90.6</ele>
        <time>2022-05-15T06:50:08Z</time>
      </trkpt>
      <trkpt lat="44.89562" lon="0.83519">
        <ele>90.5</ele>
        <time>2022-05-15T06:50:10Z</time>
      </trkpt>
      <trkpt lat="44.89559" lon="0.83529">
        <ele>90.5</ele>
        <time>2022-05-15T06:50:11Z</time>
      </trkpt>
      <trkpt lat="44.89556" lon="0.83539">
        <ele>90.4</ele>
        <time>2022-05-15T06:50:12Z</time>
      </trkpt>
      <trkpt lat="44.89553" lon="0.83547">
        <ele>90.3</ele>
        <time>2022-05-15T06:50:13Z</time>
      </trkpt>
      <trkpt lat="44.89551" lon="0.83556">
        <ele>90.2</ele>
        <time>2022-05-15T06:50:14Z</time>
      </trkpt>
      <trkpt lat="44.89548" lon="0.83565">
        <ele>89.9</ele>
        <time>2022-05-15T06:50:15Z</time>
      </trkpt>
      <trkpt lat="44.89547" lon="0.83577">
        <ele>89.6</ele>
        <time>2022-05-15T06:50:16Z</time>
      </trkpt>
      <trkpt lat="44.89544" lon="0.83588">
        <ele>89.2</ele>
        <time>2022-05-15T06:50:17Z</time>
      </trkpt>
      <trkpt lat="44.89542" lon="0.83591">
        <ele>89</ele>
        <time>2022-05-15T06:50:18Z</time>
      </trkpt>
      <trkpt lat="44.89539" lon="0.83597">
        <ele>88.7</ele>
        <time>2022-05-15T06:50:19Z</time>
      </trkpt>
      <trkpt lat="44.89531" lon="0.83607">
        <ele>88.3</ele>
        <time>2022-05-15T06:50:20Z</time>
      </trkpt>
      <trkpt lat="44.89527" lon="0.83614">
        <ele>88.1</ele>
        <time>2022-05-15T06:50:21Z</time>
      </trkpt>
      <trkpt lat="44.89522" lon="0.83623">
        <ele>88</ele>
        <time>2022-05-15T06:50:22Z</time>
      </trkpt>
      <trkpt lat="44.89512" lon="0.83641">
        <ele>87.7</ele>
        <time>2022-05-15T06:50:24Z</time>
      </trkpt>
      <trkpt lat="44.89502" lon="0.83658">
        <ele>87.2</ele>
        <time>2022-05-15T06:50:26Z</time>
      </trkpt>
      <trkpt lat="44.89493" lon="0.83674">
        <ele>86.8</ele>
        <time>2022-05-15T06:50:28Z</time>
      </trkpt>
      <trkpt lat="44.89482" lon="0.83687">
        <ele>86.2</ele>
        <time>2022-05-15T06:50:30Z</time>
      </trkpt>
      <trkpt lat="44.89471" lon="0.83701">
        <ele>85.7</ele>
        <time>2022-05-15T06:50:32Z</time>
      </trkpt>
      <trkpt lat="44.89464" lon="0.83707">
        <ele>85.4</ele>
        <time>2022-05-15T06:50:33Z</time>
      </trkpt>
      <trkpt lat="44.89459" lon="0.83714">
        <ele>85.2</ele>
        <time>2022-05-15T06:50:34Z</time>
      </trkpt>
      <trkpt lat="44.89447" lon="0.83728">
        <ele>84.6</ele>
        <time>2022-05-15T06:50:36Z</time>
      </trkpt>
      <trkpt lat="44.89437" lon="0.83742">
        <ele>84</ele>
        <time>2022-05-15T06:50:38Z</time>
      </trkpt>
      <trkpt lat="44.89427" lon="0.83756">
        <ele>83.4</ele>
        <time>2022-05-15T06:50:40Z</time>
      </trkpt>
      <trkpt lat="44.89417" lon="0.8377">
        <ele>82.9</ele>
        <time>2022-05-15T06:50:42Z</time>
      </trkpt>
      <trkpt lat="44.89412" lon="0.83776">
        <ele>82.7</ele>
        <time>2022-05-15T06:50:43Z</time>
      </trkpt>
      <trkpt lat="44.89407" lon="0.83783">
        <ele>82.5</ele>
        <time>2022-05-15T06:50:44Z</time>
      </trkpt>
      <trkpt lat="44.89398" lon="0.83796">
        <ele>82.2</ele>
        <time>2022-05-15T06:50:46Z</time>
      </trkpt>
      <trkpt lat="44.89389" lon="0.83808">
        <ele>81.9</ele>
        <time>2022-05-15T06:50:48Z</time>
      </trkpt>
      <trkpt lat="44.89384" lon="0.83815">
        <ele>81.7</ele>
        <time>2022-05-15T06:50:49Z</time>
      </trkpt>
      <trkpt lat="44.89379" lon="0.83821">
        <ele>81.5</ele>
        <time>2022-05-15T06:50:50Z</time>
      </trkpt>
      <trkpt lat="44.89368" lon="0.83832">
        <ele>81.1</ele>
        <time>2022-05-15T06:50:52Z</time>
      </trkpt>
      <trkpt lat="44.89358" lon="0.83844">
        <ele>80.7</ele>
        <time>2022-05-15T06:50:54Z</time>
      </trkpt>
      <trkpt lat="44.89349" lon="0.83856">
        <ele>80.1</ele>
        <time>2022-05-15T06:50:56Z</time>
      </trkpt>
      <trkpt lat="44.89339" lon="0.83869">
        <ele>79.2</ele>
        <time>2022-05-15T06:50:58Z</time>
      </trkpt>
      <trkpt lat="44.89326" lon="0.83873">
        <ele>77.9</ele>
        <time>2022-05-15T06:51:00Z</time>
      </trkpt>
      <trkpt lat="44.8932" lon="0.83872">
        <ele>77.4</ele>
        <time>2022-05-15T06:51:01Z</time>
      </trkpt>
      <trkpt lat="44.89312" lon="0.83868">
        <ele>76.8</ele>
        <time>2022-05-15T06:51:02Z</time>
      </trkpt>
      <trkpt lat="44.89307" lon="0.83865">
        <ele>76.5</ele>
        <time>2022-05-15T06:51:03Z</time>
      </trkpt>
      <trkpt lat="44.89301" lon="0.83861">
        <ele>76.1</ele>
        <time>2022-05-15T06:51:04Z</time>
      </trkpt>
      <trkpt lat="44.89299" lon="0.83867">
        <ele>76.1</ele>
        <time>2022-05-15T06:51:06Z</time>
      </trkpt>
      <trkpt lat="44.89296" lon="0.83874">
        <ele>76.2</ele>
        <time>2022-05-15T06:51:08Z</time>
      </trkpt>
      <trkpt lat="44.89293" lon="0.83882">
        <ele>76.2</ele>
        <time>2022-05-15T06:51:10Z</time>
      </trkpt>
      <trkpt lat="44.89291" lon="0.83886">
        <ele>76.3</ele>
        <time>2022-05-15T06:51:11Z</time>
      </trkpt>
      <trkpt lat="44.89289" lon="0.8389">
        <ele>76.4</ele>
        <time>2022-05-15T06:51:12Z</time>
      </trkpt>
      <trkpt lat="44.89286" lon="0.83897">
        <ele>76.6</ele>
        <time>2022-05-15T06:51:14Z</time>
      </trkpt>
      <trkpt lat="44.89286" lon="0.83897">
        <ele>76.6</ele>
        <time>2022-05-15T06:51:16Z</time>
      </trkpt>
      <trkpt lat="44.89278" lon="0.83914">
        <ele>77.5</ele>
        <time>2022-05-15T06:51:18Z</time>
      </trkpt>
      <trkpt lat="44.89274" lon="0.83914">
        <ele>77.5</ele>
        <time>2022-05-15T06:51:20Z</time>
      </trkpt>
      <trkpt lat="44.89267" lon="0.83914">
        <ele>77.4</ele>
        <time>2022-05-15T06:51:22Z</time>
      </trkpt>
      <trkpt lat="44.8926" lon="0.83914">
        <ele>77.3</ele>
        <time>2022-05-15T06:51:24Z</time>
      </trkpt>
      <trkpt lat="44.89255" lon="0.83914">
        <ele>77.2</ele>
        <time>2022-05-15T06:51:25Z</time>
      </trkpt>
      <trkpt lat="44.89251" lon="0.83914">
        <ele>77</ele>
        <time>2022-05-15T06:51:26Z</time>
      </trkpt>
      <trkpt lat="44.89243" lon="0.83914">
        <ele>76.7</ele>
        <time>2022-05-15T06:51:28Z</time>
      </trkpt>
      <trkpt lat="44.89231" lon="0.83914">
        <ele>76.2</ele>
        <time>2022-05-15T06:51:30Z</time>
      </trkpt>
      <trkpt lat="44.89225" lon="0.83913">
        <ele>76</ele>
        <time>2022-05-15T06:51:31Z</time>
      </trkpt>
      <trkpt lat="44.89219" lon="0.83913">
        <ele>75.8</ele>
        <time>2022-05-15T06:51:32Z</time>
      </trkpt>
      <trkpt lat="44.89208" lon="0.83913">
        <ele>75.5</ele>
        <time>2022-05-15T06:51:34Z</time>
      </trkpt>
      <trkpt lat="44.89201" lon="0.83913">
        <ele>75.5</ele>
        <time>2022-05-15T06:51:35Z</time>
      </trkpt>
      <trkpt lat="44.89195" lon="0.83913">
        <ele>75.5</ele>
        <time>2022-05-15T06:51:36Z</time>
      </trkpt>
      <trkpt lat="44.89183" lon="0.83913">
        <ele>75.6</ele>
        <time>2022-05-15T06:51:38Z</time>
      </trkpt>
      <trkpt lat="44.89171" lon="0.83913">
        <ele>75.8</ele>
        <time>2022-05-15T06:51:40Z</time>
      </trkpt>
      <trkpt lat="44.89162" lon="0.83914">
        <ele>75.9</ele>
        <time>2022-05-15T06:51:41Z</time>
      </trkpt>
      <trkpt lat="44.89155" lon="0.83915">
        <ele>75.9</ele>
        <time>2022-05-15T06:51:42Z</time>
      </trkpt>
      <trkpt lat="44.89142" lon="0.83919">
        <ele>76</ele>
        <time>2022-05-15T06:51:44Z</time>
      </trkpt>
      <trkpt lat="44.89129" lon="0.83923">
        <ele>76</ele>
        <time>2022-05-15T06:51:46Z</time>
      </trkpt>
      <trkpt lat="44.89116" lon="0.83926">
        <ele>76</ele>
        <time>2022-05-15T06:51:48Z</time>
      </trkpt>
      <trkpt lat="44.89103" lon="0.8393">
        <ele>75.8</ele>
        <time>2022-05-15T06:51:50Z</time>
      </trkpt>
      <trkpt lat="44.89089" lon="0.83934">
        <ele>75.5</ele>
        <time>2022-05-15T06:51:52Z</time>
      </trkpt>
      <trkpt lat="44.89074" lon="0.83938">
        <ele>75.1</ele>
        <time>2022-05-15T06:51:54Z</time>
      </trkpt>
      <trkpt lat="44.89067" lon="0.8394">
        <ele>75.1</ele>
        <time>2022-05-15T06:51:55Z</time>
      </trkpt>
      <trkpt lat="44.8906" lon="0.83942">
        <ele>75.1</ele>
        <time>2022-05-15T06:51:56Z</time>
      </trkpt>
      <trkpt lat="44.89054" lon="0.83943">
        <ele>75.3</ele>
        <time>2022-05-15T06:51:57Z</time>
      </trkpt>
      <trkpt lat="44.89048" lon="0.83945">
        <ele>75.4</ele>
        <time>2022-05-15T06:51:58Z</time>
      </trkpt>
      <trkpt lat="44.89035" lon="0.83949">
        <ele>75.7</ele>
        <time>2022-05-15T06:52:00Z</time>
      </trkpt>
      <trkpt lat="44.89022" lon="0.83952">
        <ele>75.7</ele>
        <time>2022-05-15T06:52:02Z</time>
      </trkpt>
      <trkpt lat="44.8901" lon="0.83955">
        <ele>75.8</ele>
        <time>2022-05-15T06:52:04Z</time>
      </trkpt>
      <trkpt lat="44.89004" lon="0.83957">
        <ele>75.8</ele>
        <time>2022-05-15T06:52:05Z</time>
      </trkpt>
      <trkpt lat="44.88996" lon="0.83957">
        <ele>75.8</ele>
        <time>2022-05-15T06:52:06Z</time>
      </trkpt>
      <trkpt lat="44.88984" lon="0.83956">
        <ele>75.7</ele>
        <time>2022-05-15T06:52:08Z</time>
      </trkpt>
      <trkpt lat="44.88971" lon="0.83955">
        <ele>75.6</ele>
        <time>2022-05-15T06:52:10Z</time>
      </trkpt>
      <trkpt lat="44.88957" lon="0.83953">
        <ele>75.3</ele>
        <time>2022-05-15T06:52:12Z</time>
      </trkpt>
      <trkpt lat="44.88943" lon="0.83952">
        <ele>75</ele>
        <time>2022-05-15T06:52:14Z</time>
      </trkpt>
      <trkpt lat="44.88936" lon="0.83952">
        <ele>74.7</ele>
        <time>2022-05-15T06:52:15Z</time>
      </trkpt>
      <trkpt lat="44.88929" lon="0.83951">
        <ele>74.4</ele>
        <time>2022-05-15T06:52:16Z</time>
      </trkpt>
      <trkpt lat="44.88916" lon="0.8395">
        <ele>74.1</ele>
        <time>2022-05-15T06:52:18Z</time>
      </trkpt>
      <trkpt lat="44.88902" lon="0.83948">
        <ele>73.9</ele>
        <time>2022-05-15T06:52:20Z</time>
      </trkpt>
      <trkpt lat="44.88889" lon="0.83947">
        <ele>74</ele>
        <time>2022-05-15T06:52:22Z</time>
      </trkpt>
      <trkpt lat="44.88875" lon="0.8395">
        <ele>74.1</ele>
        <time>2022-05-15T06:52:24Z</time>
      </trkpt>
      <trkpt lat="44.88863" lon="0.83954">
        <ele>74.3</ele>
        <time>2022-05-15T06:52:26Z</time>
      </trkpt>
      <trkpt lat="44.88851" lon="0.83959">
        <ele>74.5</ele>
        <time>2022-05-15T06:52:28Z</time>
      </trkpt>
      <trkpt lat="44.88838" lon="0.83964">
        <ele>74.7</ele>
        <time>2022-05-15T06:52:30Z</time>
      </trkpt>
      <trkpt lat="44.88832" lon="0.83967">
        <ele>74.7</ele>
        <time>2022-05-15T06:52:31Z</time>
      </trkpt>
      <trkpt lat="44.88827" lon="0.83969">
        <ele>74.8</ele>
        <time>2022-05-15T06:52:32Z</time>
      </trkpt>
      <trkpt lat="44.88822" lon="0.83971">
        <ele>74.8</ele>
        <time>2022-05-15T06:52:33Z</time>
      </trkpt>
      <trkpt lat="44.88817" lon="0.83973">
        <ele>74.9</ele>
        <time>2022-05-15T06:52:34Z</time>
      </trkpt>
      <trkpt lat="44.88805" lon="0.83977">
        <ele>75</ele>
        <time>2022-05-15T06:52:36Z</time>
      </trkpt>
      <trkpt lat="44.88792" lon="0.83982">
        <ele>75.1</ele>
        <time>2022-05-15T06:52:38Z</time>
      </trkpt>
      <trkpt lat="44.88778" lon="0.83988">
        <ele>75.3</ele>
        <time>2022-05-15T06:52:40Z</time>
      </trkpt>
      <trkpt lat="44.88766" lon="0.83993">
        <ele>75.4</ele>
        <time>2022-05-15T06:52:42Z</time>
      </trkpt>
      <trkpt lat="44.8876" lon="0.83995">
        <ele>75.5</ele>
        <time>2022-05-15T06:52:43Z</time>
      </trkpt>
      <trkpt lat="44.88755" lon="0.83997">
        <ele>75.5</ele>
        <time>2022-05-15T06:52:44Z</time>
      </trkpt>
      <trkpt lat="44.88745" lon="0.84001">
        <ele>75.6</ele>
        <time>2022-05-15T06:52:46Z</time>
      </trkpt>
      <trkpt lat="44.88739" lon="0.84003">
        <ele>75.7</ele>
        <time>2022-05-15T06:52:47Z</time>
      </trkpt>
      <trkpt lat="44.88735" lon="0.84005">
        <ele>75.8</ele>
        <time>2022-05-15T06:52:48Z</time>
      </trkpt>
      <trkpt lat="44.8872" lon="0.84005">
        <ele>74.8</ele>
        <time>2022-05-15T06:52:50Z</time>
      </trkpt>
      <trkpt lat="44.88716" lon="0.84003">
        <ele>74.6</ele>
        <time>2022-05-15T06:52:51Z</time>
      </trkpt>
      <trkpt lat="44.8871" lon="0.84001">
        <ele>74.1</ele>
        <time>2022-05-15T06:52:52Z</time>
      </trkpt>
      <trkpt lat="44.88699" lon="0.84005">
        <ele>73.5</ele>
        <time>2022-05-15T06:52:54Z</time>
      </trkpt>
      <trkpt lat="44.88686" lon="0.84011">
        <ele>72.9</ele>
        <time>2022-05-15T06:52:56Z</time>
      </trkpt>
      <trkpt lat="44.88673" lon="0.84017">
        <ele>72.4</ele>
        <time>2022-05-15T06:52:58Z</time>
      </trkpt>
      <trkpt lat="44.88667" lon="0.8402">
        <ele>72.2</ele>
        <time>2022-05-15T06:52:59Z</time>
      </trkpt>
      <trkpt lat="44.8866" lon="0.84023">
        <ele>72</ele>
        <time>2022-05-15T06:53:00Z</time>
      </trkpt>
      <trkpt lat="44.88648" lon="0.84028">
        <ele>71.7</ele>
        <time>2022-05-15T06:53:02Z</time>
      </trkpt>
      <trkpt lat="44.88635" lon="0.84032">
        <ele>71.4</ele>
        <time>2022-05-15T06:53:04Z</time>
      </trkpt>
      <trkpt lat="44.88623" lon="0.84037">
        <ele>71.1</ele>
        <time>2022-05-15T06:53:06Z</time>
      </trkpt>
      <trkpt lat="44.88611" lon="0.84041">
        <ele>70.8</ele>
        <time>2022-05-15T06:53:08Z</time>
      </trkpt>
      <trkpt lat="44.88604" lon="0.84043">
        <ele>70.7</ele>
        <time>2022-05-15T06:53:09Z</time>
      </trkpt>
      <trkpt lat="44.88598" lon="0.84046">
        <ele>70.5</ele>
        <time>2022-05-15T06:53:10Z</time>
      </trkpt>
      <trkpt lat="44.88585" lon="0.8405">
        <ele>70.4</ele>
        <time>2022-05-15T06:53:12Z</time>
      </trkpt>
      <trkpt lat="44.88573" lon="0.84054">
        <ele>70.2</ele>
        <time>2022-05-15T06:53:14Z</time>
      </trkpt>
      <trkpt lat="44.88567" lon="0.84056">
        <ele>70.1</ele>
        <time>2022-05-15T06:53:15Z</time>
      </trkpt>
      <trkpt lat="44.8856" lon="0.84059">
        <ele>70</ele>
        <time>2022-05-15T06:53:16Z</time>
      </trkpt>
      <trkpt lat="44.88547" lon="0.84063">
        <ele>69.9</ele>
        <time>2022-05-15T06:53:18Z</time>
      </trkpt>
      <trkpt lat="44.88535" lon="0.84067">
        <ele>69.8</ele>
        <time>2022-05-15T06:53:20Z</time>
      </trkpt>
      <trkpt lat="44.88521" lon="0.84071">
        <ele>69.6</ele>
        <time>2022-05-15T06:53:22Z</time>
      </trkpt>
      <trkpt lat="44.88508" lon="0.84075">
        <ele>69.4</ele>
        <time>2022-05-15T06:53:24Z</time>
      </trkpt>
      <trkpt lat="44.88495" lon="0.8408">
        <ele>69</ele>
        <time>2022-05-15T06:53:26Z</time>
      </trkpt>
      <trkpt lat="44.88471" lon="0.84084">
        <ele>68.1</ele>
        <time>2022-05-15T06:53:28Z</time>
      </trkpt>
      <trkpt lat="44.88463" lon="0.84084">
        <ele>67.9</ele>
        <time>2022-05-15T06:53:30Z</time>
      </trkpt>
      <trkpt lat="44.88447" lon="0.84086">
        <ele>67.4</ele>
        <time>2022-05-15T06:53:32Z</time>
      </trkpt>
      <trkpt lat="44.88431" lon="0.84087">
        <ele>67.1</ele>
        <time>2022-05-15T06:53:34Z</time>
      </trkpt>
      <trkpt lat="44.88416" lon="0.84088">
        <ele>67</ele>
        <time>2022-05-15T06:53:36Z</time>
      </trkpt>
      <trkpt lat="44.88402" lon="0.84089">
        <ele>67</ele>
        <time>2022-05-15T06:53:38Z</time>
      </trkpt>
      <trkpt lat="44.88395" lon="0.84089">
        <ele>67</ele>
        <time>2022-05-15T06:53:39Z</time>
      </trkpt>
      <trkpt lat="44.88389" lon="0.8409">
        <ele>67.1</ele>
        <time>2022-05-15T06:53:40Z</time>
      </trkpt>
      <trkpt lat="44.88376" lon="0.84092">
        <ele>67.5</ele>
        <time>2022-05-15T06:53:41Z</time>
      </trkpt>
      <trkpt lat="44.88374" lon="0.84093">
        <ele>67.6</ele>
        <time>2022-05-15T06:53:42Z</time>
      </trkpt>
      <trkpt lat="44.88372" lon="0.84094">
        <ele>67.6</ele>
        <time>2022-05-15T06:53:43Z</time>
      </trkpt>
      <trkpt lat="44.88368" lon="0.84096">
        <ele>67.8</ele>
        <time>2022-05-15T06:53:44Z</time>
      </trkpt>
      <trkpt lat="44.88364" lon="0.84099">
        <ele>67.9</ele>
        <time>2022-05-15T06:53:45Z</time>
      </trkpt>
      <trkpt lat="44.88355" lon="0.84103">
        <ele>68.1</ele>
        <time>2022-05-15T06:53:46Z</time>
      </trkpt>
      <trkpt lat="44.88353" lon="0.84103">
        <ele>68.1</ele>
        <time>2022-05-15T06:53:47Z</time>
      </trkpt>
      <trkpt lat="44.88347" lon="0.84102">
        <ele>67.9</ele>
        <time>2022-05-15T06:53:48Z</time>
      </trkpt>
      <trkpt lat="44.88334" lon="0.841">
        <ele>67.6</ele>
        <time>2022-05-15T06:53:50Z</time>
      </trkpt>
      <trkpt lat="44.88328" lon="0.84099">
        <ele>67.4</ele>
        <time>2022-05-15T06:53:51Z</time>
      </trkpt>
      <trkpt lat="44.88321" lon="0.84098">
        <ele>67.2</ele>
        <time>2022-05-15T06:53:52Z</time>
      </trkpt>
      <trkpt lat="44.88315" lon="0.84096">
        <ele>67</ele>
        <time>2022-05-15T06:53:53Z</time>
      </trkpt>
      <trkpt lat="44.88309" lon="0.84095">
        <ele>66.7</ele>
        <time>2022-05-15T06:53:54Z</time>
      </trkpt>
      <trkpt lat="44.88303" lon="0.84094">
        <ele>66.4</ele>
        <time>2022-05-15T06:53:55Z</time>
      </trkpt>
      <trkpt lat="44.88298" lon="0.84094">
        <ele>66.2</ele>
        <time>2022-05-15T06:53:56Z</time>
      </trkpt>
      <trkpt lat="44.88292" lon="0.84089">
        <ele>65.6</ele>
        <time>2022-05-15T06:53:57Z</time>
      </trkpt>
      <trkpt lat="44.88291" lon="0.84082">
        <ele>65.2</ele>
        <time>2022-05-15T06:53:58Z</time>
      </trkpt>
      <trkpt lat="44.88289" lon="0.84075">
        <ele>64.7</ele>
        <time>2022-05-15T06:53:59Z</time>
      </trkpt>
      <trkpt lat="44.88288" lon="0.84066">
        <ele>64.3</ele>
        <time>2022-05-15T06:54:00Z</time>
      </trkpt>
      <trkpt lat="44.88287" lon="0.84057">
        <ele>64</ele>
        <time>2022-05-15T06:54:01Z</time>
      </trkpt>
      <trkpt lat="44.88287" lon="0.84048">
        <ele>63.8</ele>
        <time>2022-05-15T06:54:02Z</time>
      </trkpt>
      <trkpt lat="44.88286" lon="0.84041">
        <ele>63.7</ele>
        <time>2022-05-15T06:54:03Z</time>
      </trkpt>
      <trkpt lat="44.88281" lon="0.84038">
        <ele>63.5</ele>
        <time>2022-05-15T06:54:04Z</time>
      </trkpt>
      <trkpt lat="44.88275" lon="0.84037">
        <ele>63.4</ele>
        <time>2022-05-15T06:54:05Z</time>
      </trkpt>
      <trkpt lat="44.88268" lon="0.84037">
        <ele>63.3</ele>
        <time>2022-05-15T06:54:06Z</time>
      </trkpt>
      <trkpt lat="44.88262" lon="0.84037">
        <ele>63.2</ele>
        <time>2022-05-15T06:54:07Z</time>
      </trkpt>
      <trkpt lat="44.88256" lon="0.84037">
        <ele>63.1</ele>
        <time>2022-05-15T06:54:08Z</time>
      </trkpt>
      <trkpt lat="44.8825" lon="0.84035">
        <ele>63.1</ele>
        <time>2022-05-15T06:54:09Z</time>
      </trkpt>
      <trkpt lat="44.88245" lon="0.84031">
        <ele>63.1</ele>
        <time>2022-05-15T06:54:10Z</time>
      </trkpt>
      <trkpt lat="44.88237" lon="0.84019">
        <ele>63</ele>
        <time>2022-05-15T06:54:12Z</time>
      </trkpt>
      <trkpt lat="44.88228" lon="0.84005">
        <ele>62.9</ele>
        <time>2022-05-15T06:54:14Z</time>
      </trkpt>
      <trkpt lat="44.88224" lon="0.83999">
        <ele>62.9</ele>
        <time>2022-05-15T06:54:15Z</time>
      </trkpt>
      <trkpt lat="44.8822" lon="0.83992">
        <ele>62.9</ele>
        <time>2022-05-15T06:54:16Z</time>
      </trkpt>
      <trkpt lat="44.88216" lon="0.83985">
        <ele>62.9</ele>
        <time>2022-05-15T06:54:17Z</time>
      </trkpt>
      <trkpt lat="44.88211" lon="0.83979">
        <ele>63</ele>
        <time>2022-05-15T06:54:18Z</time>
      </trkpt>
      <trkpt lat="44.88207" lon="0.83972">
        <ele>63.1</ele>
        <time>2022-05-15T06:54:19Z</time>
      </trkpt>
      <trkpt lat="44.88203" lon="0.83965">
        <ele>63.2</ele>
        <time>2022-05-15T06:54:20Z</time>
      </trkpt>
      <trkpt lat="44.88195" lon="0.83953">
        <ele>63.4</ele>
        <time>2022-05-15T06:54:22Z</time>
      </trkpt>
      <trkpt lat="44.88187" lon="0.8394">
        <ele>63.7</ele>
        <time>2022-05-15T06:54:24Z</time>
      </trkpt>
      <trkpt lat="44.88183" lon="0.83934">
        <ele>63.8</ele>
        <time>2022-05-15T06:54:25Z</time>
      </trkpt>
      <trkpt lat="44.8818" lon="0.83928">
        <ele>64</ele>
        <time>2022-05-15T06:54:26Z</time>
      </trkpt>
      <trkpt lat="44.88169" lon="0.83923">
        <ele>64</ele>
        <time>2022-05-15T06:54:28Z</time>
      </trkpt>
      <trkpt lat="44.88164" lon="0.83923">
        <ele>63.9</ele>
        <time>2022-05-15T06:54:29Z</time>
      </trkpt>
      <trkpt lat="44.88159" lon="0.83923">
        <ele>63.9</ele>
        <time>2022-05-15T06:54:30Z</time>
      </trkpt>
      <trkpt lat="44.88149" lon="0.83923">
        <ele>63.8</ele>
        <time>2022-05-15T06:54:32Z</time>
      </trkpt>
      <trkpt lat="44.88139" lon="0.83922">
        <ele>63.8</ele>
        <time>2022-05-15T06:54:34Z</time>
      </trkpt>
      <trkpt lat="44.88128" lon="0.83922">
        <ele>63.8</ele>
        <time>2022-05-15T06:54:36Z</time>
      </trkpt>
      <trkpt lat="44.88123" lon="0.83921">
        <ele>63.8</ele>
        <time>2022-05-15T06:54:37Z</time>
      </trkpt>
      <trkpt lat="44.88118" lon="0.83921">
        <ele>63.8</ele>
        <time>2022-05-15T06:54:38Z</time>
      </trkpt>
      <trkpt lat="44.88108" lon="0.8392">
        <ele>63.7</ele>
        <time>2022-05-15T06:54:40Z</time>
      </trkpt>
      <trkpt lat="44.88098" lon="0.8392">
        <ele>63.7</ele>
        <time>2022-05-15T06:54:42Z</time>
      </trkpt>
      <trkpt lat="44.88088" lon="0.83919">
        <ele>63.7</ele>
        <time>2022-05-15T06:54:44Z</time>
      </trkpt>
      <trkpt lat="44.88078" lon="0.83918">
        <ele>63.7</ele>
        <time>2022-05-15T06:54:46Z</time>
      </trkpt>
      <trkpt lat="44.88067" lon="0.83918">
        <ele>63.6</ele>
        <time>2022-05-15T06:54:48Z</time>
      </trkpt>
      <trkpt lat="44.88057" lon="0.83917">
        <ele>63.6</ele>
        <time>2022-05-15T06:54:50Z</time>
      </trkpt>
      <trkpt lat="44.88046" lon="0.83917">
        <ele>63.5</ele>
        <time>2022-05-15T06:54:52Z</time>
      </trkpt>
      <trkpt lat="44.88041" lon="0.83916">
        <ele>63.5</ele>
        <time>2022-05-15T06:54:53Z</time>
      </trkpt>
      <trkpt lat="44.88036" lon="0.83916">
        <ele>63.5</ele>
        <time>2022-05-15T06:54:54Z</time>
      </trkpt>
      <trkpt lat="44.88025" lon="0.83916">
        <ele>63.5</ele>
        <time>2022-05-15T06:54:56Z</time>
      </trkpt>
      <trkpt lat="44.88015" lon="0.83916">
        <ele>63.5</ele>
        <time>2022-05-15T06:54:58Z</time>
      </trkpt>
      <trkpt lat="44.88005" lon="0.83915">
        <ele>63.5</ele>
        <time>2022-05-15T06:55:00Z</time>
      </trkpt>
      <trkpt lat="44.88" lon="0.83915">
        <ele>63.5</ele>
        <time>2022-05-15T06:55:01Z</time>
      </trkpt>
      <trkpt lat="44.87995" lon="0.83915">
        <ele>63.5</ele>
        <time>2022-05-15T06:55:02Z</time>
      </trkpt>
      <trkpt lat="44.87984" lon="0.83915">
        <ele>63.5</ele>
        <time>2022-05-15T06:55:04Z</time>
      </trkpt>
      <trkpt lat="44.87972" lon="0.83915">
        <ele>63.5</ele>
        <time>2022-05-15T06:55:06Z</time>
      </trkpt>
      <trkpt lat="44.87967" lon="0.83914">
        <ele>63.5</ele>
        <time>2022-05-15T06:55:07Z</time>
      </trkpt>
      <trkpt lat="44.87961" lon="0.83913">
        <ele>63.5</ele>
        <time>2022-05-15T06:55:08Z</time>
      </trkpt>
      <trkpt lat="44.8795" lon="0.8391">
        <ele>63.5</ele>
        <time>2022-05-15T06:55:10Z</time>
      </trkpt>
      <trkpt lat="44.87939" lon="0.83908">
        <ele>63.5</ele>
        <time>2022-05-15T06:55:12Z</time>
      </trkpt>
      <trkpt lat="44.87928" lon="0.83905">
        <ele>63.5</ele>
        <time>2022-05-15T06:55:14Z</time>
      </trkpt>
      <trkpt lat="44.87923" lon="0.83904">
        <ele>63.5</ele>
        <time>2022-05-15T06:55:15Z</time>
      </trkpt>
      <trkpt lat="44.87917" lon="0.83902">
        <ele>63.5</ele>
        <time>2022-05-15T06:55:16Z</time>
      </trkpt>
      <trkpt lat="44.87906" lon="0.83898">
        <ele>63.5</ele>
        <time>2022-05-15T06:55:18Z</time>
      </trkpt>
      <trkpt lat="44.87895" lon="0.83895">
        <ele>63.6</ele>
        <time>2022-05-15T06:55:20Z</time>
      </trkpt>
      <trkpt lat="44.87884" lon="0.8389">
        <ele>63.6</ele>
        <time>2022-05-15T06:55:22Z</time>
      </trkpt>
      <trkpt lat="44.87873" lon="0.83884">
        <ele>63.6</ele>
        <time>2022-05-15T06:55:24Z</time>
      </trkpt>
      <trkpt lat="44.87862" lon="0.83878">
        <ele>63.7</ele>
        <time>2022-05-15T06:55:26Z</time>
      </trkpt>
      <trkpt lat="44.87852" lon="0.83871">
        <ele>63.7</ele>
        <time>2022-05-15T06:55:28Z</time>
      </trkpt>
      <trkpt lat="44.87842" lon="0.83863">
        <ele>63.7</ele>
        <time>2022-05-15T06:55:30Z</time>
      </trkpt>
      <trkpt lat="44.87837" lon="0.83859">
        <ele>63.7</ele>
        <time>2022-05-15T06:55:31Z</time>
      </trkpt>
      <trkpt lat="44.87832" lon="0.83855">
        <ele>63.7</ele>
        <time>2022-05-15T06:55:32Z</time>
      </trkpt>
      <trkpt lat="44.87823" lon="0.83847">
        <ele>63.7</ele>
        <time>2022-05-15T06:55:34Z</time>
      </trkpt>
      <trkpt lat="44.87813" lon="0.83839">
        <ele>63.7</ele>
        <time>2022-05-15T06:55:36Z</time>
      </trkpt>
      <trkpt lat="44.87803" lon="0.8383">
        <ele>63.7</ele>
        <time>2022-05-15T06:55:38Z</time>
      </trkpt>
      <trkpt lat="44.87794" lon="0.8382">
        <ele>63.6</ele>
        <time>2022-05-15T06:55:39Z</time>
      </trkpt>
      <trkpt lat="44.87794" lon="0.8382">
        <ele>63.6</ele>
        <time>2022-05-15T06:55:40Z</time>
      </trkpt>
      <trkpt lat="44.87783" lon="0.8381">
        <ele>63.5</ele>
        <time>2022-05-15T06:55:42Z</time>
      </trkpt>
      <trkpt lat="44.87769" lon="0.83794">
        <ele>63.3</ele>
        <time>2022-05-15T06:55:44Z</time>
      </trkpt>
      <trkpt lat="44.87759" lon="0.83782">
        <ele>63.1</ele>
        <time>2022-05-15T06:55:46Z</time>
      </trkpt>
      <trkpt lat="44.87755" lon="0.83776">
        <ele>63</ele>
        <time>2022-05-15T06:55:47Z</time>
      </trkpt>
      <trkpt lat="44.87748" lon="0.83766">
        <ele>62.9</ele>
        <time>2022-05-15T06:55:48Z</time>
      </trkpt>
      <trkpt lat="44.87742" lon="0.83756">
        <ele>62.7</ele>
        <time>2022-05-15T06:55:50Z</time>
      </trkpt>
      <trkpt lat="44.87733" lon="0.83742">
        <ele>62.5</ele>
        <time>2022-05-15T06:55:52Z</time>
      </trkpt>
      <trkpt lat="44.87725" lon="0.83727">
        <ele>62.2</ele>
        <time>2022-05-15T06:55:54Z</time>
      </trkpt>
      <trkpt lat="44.87717" lon="0.83711">
        <ele>62</ele>
        <time>2022-05-15T06:55:56Z</time>
      </trkpt>
      <trkpt lat="44.8771" lon="0.83696">
        <ele>61.6</ele>
        <time>2022-05-15T06:55:58Z</time>
      </trkpt>
      <trkpt lat="44.87703" lon="0.83679">
        <ele>61.4</ele>
        <time>2022-05-15T06:56:00Z</time>
      </trkpt>
      <trkpt lat="44.87698" lon="0.83664">
        <ele>61.1</ele>
        <time>2022-05-15T06:56:02Z</time>
      </trkpt>
      <trkpt lat="44.87692" lon="0.8365">
        <ele>60.8</ele>
        <time>2022-05-15T06:56:04Z</time>
      </trkpt>
      <trkpt lat="44.87691" lon="0.83645">
        <ele>60.8</ele>
        <time>2022-05-15T06:56:05Z</time>
      </trkpt>
      <trkpt lat="44.87689" lon="0.83642">
        <ele>60.7</ele>
        <time>2022-05-15T06:56:06Z</time>
      </trkpt>
      <trkpt lat="44.87688" lon="0.8364">
        <ele>60.7</ele>
        <time>2022-05-15T06:56:07Z</time>
      </trkpt>
      <trkpt lat="44.8769" lon="0.83639">
        <ele>61.1</ele>
        <time>2022-05-15T06:56:08Z</time>
      </trkpt>
      <trkpt lat="44.87694" lon="0.8364">
        <ele>61.9</ele>
        <time>2022-05-15T06:56:10Z</time>
      </trkpt>
      <trkpt lat="44.87695" lon="0.83641">
        <ele>62.2</ele>
        <time>2022-05-15T06:56:11Z</time>
      </trkpt>
      <trkpt lat="44.87697" lon="0.83641">
        <ele>62.5</ele>
        <time>2022-05-15T06:56:12Z</time>
      </trkpt>
      <trkpt lat="44.877" lon="0.83645">
        <ele>63.1</ele>
        <time>2022-05-15T06:56:14Z</time>
      </trkpt>
      <trkpt lat="44.87701" lon="0.83648">
        <ele>63.5</ele>
        <time>2022-05-15T06:56:16Z</time>
      </trkpt>
      <trkpt lat="44.87702" lon="0.8365">
        <ele>63.8</ele>
        <time>2022-05-15T06:56:18Z</time>
      </trkpt>
      <trkpt lat="44.87703" lon="0.83654">
        <ele>64.2</ele>
        <time>2022-05-15T06:56:20Z</time>
      </trkpt>
      <trkpt lat="44.87706" lon="0.83659">
        <ele>64.7</ele>
        <time>2022-05-15T06:56:22Z</time>
      </trkpt>
      <trkpt lat="44.87708" lon="0.83662">
        <ele>65</ele>
        <time>2022-05-15T06:56:24Z</time>
      </trkpt>
      <trkpt lat="44.87711" lon="0.83665">
        <ele>65.3</ele>
        <time>2022-05-15T06:56:26Z</time>
      </trkpt>
      <trkpt lat="44.87713" lon="0.83668">
        <ele>65.6</ele>
        <time>2022-05-15T06:56:28Z</time>
      </trkpt>
      <trkpt lat="44.87713" lon="0.8367">
        <ele>65.8</ele>
        <time>2022-05-15T06:56:29Z</time>
      </trkpt>
      <trkpt lat="44.87715" lon="0.83671">
        <ele>65.9</ele>
        <time>2022-05-15T06:56:30Z</time>
      </trkpt>
      <trkpt lat="44.87717" lon="0.83675">
        <ele>66.3</ele>
        <time>2022-05-15T06:56:32Z</time>
      </trkpt>
      <trkpt lat="44.87719" lon="0.83678">
        <ele>66.7</ele>
        <time>2022-05-15T06:56:34Z</time>
      </trkpt>
      <trkpt lat="44.87722" lon="0.83681">
        <ele>67.1</ele>
        <time>2022-05-15T06:56:36Z</time>
      </trkpt>
      <trkpt lat="44.87724" lon="0.83685">
        <ele>67.4</ele>
        <time>2022-05-15T06:56:38Z</time>
      </trkpt>
      <trkpt lat="44.87726" lon="0.83688">
        <ele>67.8</ele>
        <time>2022-05-15T06:56:40Z</time>
      </trkpt>
      <trkpt lat="44.87727" lon="0.83689">
        <ele>68.1</ele>
        <time>2022-05-15T06:56:41Z</time>
      </trkpt>
      <trkpt lat="44.87728" lon="0.83691">
        <ele>68.3</ele>
        <time>2022-05-15T06:56:42Z</time>
      </trkpt>
      <trkpt lat="44.8773" lon="0.83694">
        <ele>68.7</ele>
        <time>2022-05-15T06:56:44Z</time>
      </trkpt>
      <trkpt lat="44.87732" lon="0.83697">
        <ele>69.1</ele>
        <time>2022-05-15T06:56:46Z</time>
      </trkpt>
      <trkpt lat="44.87734" lon="0.837">
        <ele>69.6</ele>
        <time>2022-05-15T06:56:48Z</time>
      </trkpt>
      <trkpt lat="44.87736" lon="0.83703">
        <ele>70</ele>
        <time>2022-05-15T06:56:50Z</time>
      </trkpt>
      <trkpt lat="44.87738" lon="0.83706">
        <ele>70.5</ele>
        <time>2022-05-15T06:56:52Z</time>
      </trkpt>
      <trkpt lat="44.87741" lon="0.83709">
        <ele>71.1</ele>
        <time>2022-05-15T06:56:54Z</time>
      </trkpt>
      <trkpt lat="44.87743" lon="0.83712">
        <ele>71.6</ele>
        <time>2022-05-15T06:56:56Z</time>
      </trkpt>
      <trkpt lat="44.87744" lon="0.83714">
        <ele>71.9</ele>
        <time>2022-05-15T06:56:57Z</time>
      </trkpt>
      <trkpt lat="44.87745" lon="0.83716">
        <ele>72.1</ele>
        <time>2022-05-15T06:56:58Z</time>
      </trkpt>
      <trkpt lat="44.87746" lon="0.83717">
        <ele>72.4</ele>
        <time>2022-05-15T06:56:59Z</time>
      </trkpt>
      <trkpt lat="44.87747" lon="0.83719">
        <ele>72.6</ele>
        <time>2022-05-15T06:57:00Z</time>
      </trkpt>
      <trkpt lat="44.87749" lon="0.83721">
        <ele>73.1</ele>
        <time>2022-05-15T06:57:02Z</time>
      </trkpt>
      <trkpt lat="44.87751" lon="0.83724">
        <ele>73.5</ele>
        <time>2022-05-15T06:57:04Z</time>
      </trkpt>
      <trkpt lat="44.87753" lon="0.83727">
        <ele>73.9</ele>
        <time>2022-05-15T06:57:06Z</time>
      </trkpt>
      <trkpt lat="44.87755" lon="0.83729">
        <ele>74.2</ele>
        <time>2022-05-15T06:57:08Z</time>
      </trkpt>
      <trkpt lat="44.87758" lon="0.83731">
        <ele>74.5</ele>
        <time>2022-05-15T06:57:10Z</time>
      </trkpt>
      <trkpt lat="44.87761" lon="0.8373">
        <ele>74.8</ele>
        <time>2022-05-15T06:57:12Z</time>
      </trkpt>
      <trkpt lat="44.87764" lon="0.83727">
        <ele>75</ele>
        <time>2022-05-15T06:57:14Z</time>
      </trkpt>
      <trkpt lat="44.87764" lon="0.83724">
        <ele>75</ele>
        <time>2022-05-15T06:57:16Z</time>
      </trkpt>
      <trkpt lat="44.87762" lon="0.83719">
        <ele>75.1</ele>
        <time>2022-05-15T06:57:18Z</time>
      </trkpt>
      <trkpt lat="44.8776" lon="0.83713">
        <ele>75.2</ele>
        <time>2022-05-15T06:57:20Z</time>
      </trkpt>
      <trkpt lat="44.87757" lon="0.83706">
        <ele>75.2</ele>
        <time>2022-05-15T06:57:22Z</time>
      </trkpt>
      <trkpt lat="44.87754" lon="0.837">
        <ele>75.2</ele>
        <time>2022-05-15T06:57:24Z</time>
      </trkpt>
      <trkpt lat="44.87753" lon="0.83696">
        <ele>75.2</ele>
        <time>2022-05-15T06:57:25Z</time>
      </trkpt>
      <trkpt lat="44.87751" lon="0.83693">
        <ele>75.2</ele>
        <time>2022-05-15T06:57:26Z</time>
      </trkpt>
      <trkpt lat="44.87748" lon="0.83685">
        <ele>75.1</ele>
        <time>2022-05-15T06:57:28Z</time>
      </trkpt>
      <trkpt lat="44.87746" lon="0.83677">
        <ele>75.1</ele>
        <time>2022-05-15T06:57:30Z</time>
      </trkpt>
      <trkpt lat="44.87743" lon="0.83668">
        <ele>75</ele>
        <time>2022-05-15T06:57:32Z</time>
      </trkpt>
      <trkpt lat="44.87741" lon="0.83664">
        <ele>75</ele>
        <time>2022-05-15T06:57:33Z</time>
      </trkpt>
      <trkpt lat="44.8774" lon="0.8366">
        <ele>74.9</ele>
        <time>2022-05-15T06:57:34Z</time>
      </trkpt>
      <trkpt lat="44.87738" lon="0.8365">
        <ele>74.9</ele>
        <time>2022-05-15T06:57:36Z</time>
      </trkpt>
      <trkpt lat="44.87735" lon="0.8364">
        <ele>74.9</ele>
        <time>2022-05-15T06:57:38Z</time>
      </trkpt>
      <trkpt lat="44.87732" lon="0.8363">
        <ele>74.9</ele>
        <time>2022-05-15T06:57:40Z</time>
      </trkpt>
      <trkpt lat="44.87731" lon="0.83625">
        <ele>75</ele>
        <time>2022-05-15T06:57:41Z</time>
      </trkpt>
      <trkpt lat="44.8773" lon="0.83618">
        <ele>75.1</ele>
        <time>2022-05-15T06:57:42Z</time>
      </trkpt>
      <trkpt lat="44.87729" lon="0.83612">
        <ele>75.2</ele>
        <time>2022-05-15T06:57:43Z</time>
      </trkpt>
      <trkpt lat="44.87729" lon="0.83605">
        <ele>75.5</ele>
        <time>2022-05-15T06:57:44Z</time>
      </trkpt>
      <trkpt lat="44.87729" lon="0.83598">
        <ele>75.9</ele>
        <time>2022-05-15T06:57:45Z</time>
      </trkpt>
      <trkpt lat="44.87731" lon="0.83592">
        <ele>76.4</ele>
        <time>2022-05-15T06:57:46Z</time>
      </trkpt>
      <trkpt lat="44.87736" lon="0.8358">
        <ele>77.8</ele>
        <time>2022-05-15T06:57:48Z</time>
      </trkpt>
      <trkpt lat="44.87741" lon="0.83568">
        <ele>79.5</ele>
        <time>2022-05-15T06:57:50Z</time>
      </trkpt>
      <trkpt lat="44.87747" lon="0.83564">
        <ele>81</ele>
        <time>2022-05-15T06:57:52Z</time>
      </trkpt>
      <trkpt lat="44.8775" lon="0.83562">
        <ele>81.7</ele>
        <time>2022-05-15T06:57:54Z</time>
      </trkpt>
      <trkpt lat="44.87754" lon="0.83561">
        <ele>82.6</ele>
        <time>2022-05-15T06:57:56Z</time>
      </trkpt>
      <trkpt lat="44.87756" lon="0.83561">
        <ele>83.1</ele>
        <time>2022-05-15T06:57:57Z</time>
      </trkpt>
      <trkpt lat="44.87759" lon="0.83562">
        <ele>83.6</ele>
        <time>2022-05-15T06:57:58Z</time>
      </trkpt>
      <trkpt lat="44.87761" lon="0.83562">
        <ele>84.2</ele>
        <time>2022-05-15T06:58:00Z</time>
      </trkpt>
      <trkpt lat="44.87764" lon="0.83563">
        <ele>84.7</ele>
        <time>2022-05-15T06:58:02Z</time>
      </trkpt>
      <trkpt lat="44.87767" lon="0.83565">
        <ele>85.4</ele>
        <time>2022-05-15T06:58:04Z</time>
      </trkpt>
      <trkpt lat="44.8777" lon="0.83568">
        <ele>86.1</ele>
        <time>2022-05-15T06:58:06Z</time>
      </trkpt>
      <trkpt lat="44.87772" lon="0.8357">
        <ele>86.7</ele>
        <time>2022-05-15T06:58:08Z</time>
      </trkpt>
      <trkpt lat="44.87774" lon="0.83571">
        <ele>87</ele>
        <time>2022-05-15T06:58:09Z</time>
      </trkpt>
      <trkpt lat="44.87775" lon="0.83572">
        <ele>87.4</ele>
        <time>2022-05-15T06:58:10Z</time>
      </trkpt>
      <trkpt lat="44.87777" lon="0.83573">
        <ele>87.9</ele>
        <time>2022-05-15T06:58:12Z</time>
      </trkpt>
      <trkpt lat="44.8778" lon="0.83575">
        <ele>88.4</ele>
        <time>2022-05-15T06:58:14Z</time>
      </trkpt>
      <trkpt lat="44.87782" lon="0.83577">
        <ele>88.9</ele>
        <time>2022-05-15T06:58:16Z</time>
      </trkpt>
      <trkpt lat="44.87784" lon="0.83578">
        <ele>89.5</ele>
        <time>2022-05-15T06:58:18Z</time>
      </trkpt>
      <trkpt lat="44.87786" lon="0.8358">
        <ele>89.9</ele>
        <time>2022-05-15T06:58:20Z</time>
      </trkpt>
      <trkpt lat="44.87786" lon="0.8358">
        <ele>90</ele>
        <time>2022-05-15T06:58:22Z</time>
      </trkpt>
      <trkpt lat="44.87788" lon="0.83581">
        <ele>90.3</ele>
        <time>2022-05-15T06:58:23Z</time>
      </trkpt>
      <trkpt lat="44.87789" lon="0.83582">
        <ele>90.7</ele>
        <time>2022-05-15T06:58:24Z</time>
      </trkpt>
      <trkpt lat="44.87793" lon="0.83585">
        <ele>91.4</ele>
        <time>2022-05-15T06:58:26Z</time>
      </trkpt>
      <trkpt lat="44.87795" lon="0.83587">
        <ele>91.9</ele>
        <time>2022-05-15T06:58:28Z</time>
      </trkpt>
      <trkpt lat="44.87796" lon="0.83588">
        <ele>92</ele>
        <time>2022-05-15T06:58:29Z</time>
      </trkpt>
      <trkpt lat="44.87797" lon="0.83589">
        <ele>92.3</ele>
        <time>2022-05-15T06:58:30Z</time>
      </trkpt>
      <trkpt lat="44.878" lon="0.83591">
        <ele>92.7</ele>
        <time>2022-05-15T06:58:32Z</time>
      </trkpt>
      <trkpt lat="44.87802" lon="0.83593">
        <ele>93.2</ele>
        <time>2022-05-15T06:58:34Z</time>
      </trkpt>
      <trkpt lat="44.87805" lon="0.83595">
        <ele>93.7</ele>
        <time>2022-05-15T06:58:36Z</time>
      </trkpt>
      <trkpt lat="44.87807" lon="0.83597">
        <ele>93.9</ele>
        <time>2022-05-15T06:58:38Z</time>
      </trkpt>
      <trkpt lat="44.87809" lon="0.83599">
        <ele>94.3</ele>
        <time>2022-05-15T06:58:40Z</time>
      </trkpt>
      <trkpt lat="44.87812" lon="0.83601">
        <ele>94.8</ele>
        <time>2022-05-15T06:58:42Z</time>
      </trkpt>
      <trkpt lat="44.87815" lon="0.83603">
        <ele>95.3</ele>
        <time>2022-05-15T06:58:44Z</time>
      </trkpt>
      <trkpt lat="44.87819" lon="0.83604">
        <ele>95.8</ele>
        <time>2022-05-15T06:58:46Z</time>
      </trkpt>
      <trkpt lat="44.87822" lon="0.83605">
        <ele>96.3</ele>
        <time>2022-05-15T06:58:48Z</time>
      </trkpt>
      <trkpt lat="44.87825" lon="0.83607">
        <ele>96.8</ele>
        <time>2022-05-15T06:58:50Z</time>
      </trkpt>
      <trkpt lat="44.87827" lon="0.83608">
        <ele>97</ele>
        <time>2022-05-15T06:58:51Z</time>
      </trkpt>
      <trkpt lat="44.87828" lon="0.83609">
        <ele>97.2</ele>
        <time>2022-05-15T06:58:52Z</time>
      </trkpt>
      <trkpt lat="44.87829" lon="0.8361">
        <ele>97.3</ele>
        <time>2022-05-15T06:58:53Z</time>
      </trkpt>
      <trkpt lat="44.8783" lon="0.83611">
        <ele>97.5</ele>
        <time>2022-05-15T06:58:54Z</time>
      </trkpt>
      <trkpt lat="44.87833" lon="0.83613">
        <ele>97.8</ele>
        <time>2022-05-15T06:58:56Z</time>
      </trkpt>
      <trkpt lat="44.87834" lon="0.83614">
        <ele>97.9</ele>
        <time>2022-05-15T06:58:57Z</time>
      </trkpt>
      <trkpt lat="44.87835" lon="0.83614">
        <ele>98.1</ele>
        <time>2022-05-15T06:58:58Z</time>
      </trkpt>
      <trkpt lat="44.87837" lon="0.83617">
        <ele>98.4</ele>
        <time>2022-05-15T06:59:00Z</time>
      </trkpt>
      <trkpt lat="44.8784" lon="0.83619">
        <ele>98.7</ele>
        <time>2022-05-15T06:59:02Z</time>
      </trkpt>
      <trkpt lat="44.87842" lon="0.83621">
        <ele>99</ele>
        <time>2022-05-15T06:59:04Z</time>
      </trkpt>
      <trkpt lat="44.87845" lon="0.83623">
        <ele>99.3</ele>
        <time>2022-05-15T06:59:06Z</time>
      </trkpt>
      <trkpt lat="44.87847" lon="0.83626">
        <ele>99.6</ele>
        <time>2022-05-15T06:59:08Z</time>
      </trkpt>
      <trkpt lat="44.87849" lon="0.83629">
        <ele>99.9</ele>
        <time>2022-05-15T06:59:10Z</time>
      </trkpt>
      <trkpt lat="44.87851" lon="0.83631">
        <ele>100.2</ele>
        <time>2022-05-15T06:59:12Z</time>
      </trkpt>
      <trkpt lat="44.87854" lon="0.83634">
        <ele>100.5</ele>
        <time>2022-05-15T06:59:14Z</time>
      </trkpt>
      <trkpt lat="44.87856" lon="0.83637">
        <ele>100.8</ele>
        <time>2022-05-15T06:59:16Z</time>
      </trkpt>
      <trkpt lat="44.87858" lon="0.8364">
        <ele>101</ele>
        <time>2022-05-15T06:59:18Z</time>
      </trkpt>
      <trkpt lat="44.87861" lon="0.83643">
        <ele>101.4</ele>
        <time>2022-05-15T06:59:20Z</time>
      </trkpt>
      <trkpt lat="44.87863" lon="0.83645">
        <ele>101.5</ele>
        <time>2022-05-15T06:59:21Z</time>
      </trkpt>
      <trkpt lat="44.87864" lon="0.83646">
        <ele>101.6</ele>
        <time>2022-05-15T06:59:22Z</time>
      </trkpt>
      <trkpt lat="44.87866" lon="0.83649">
        <ele>101.9</ele>
        <time>2022-05-15T06:59:24Z</time>
      </trkpt>
      <trkpt lat="44.87869" lon="0.83652">
        <ele>102.2</ele>
        <time>2022-05-15T06:59:26Z</time>
      </trkpt>
      <trkpt lat="44.8787" lon="0.83654">
        <ele>102.3</ele>
        <time>2022-05-15T06:59:27Z</time>
      </trkpt>
      <trkpt lat="44.87872" lon="0.83656">
        <ele>102.5</ele>
        <time>2022-05-15T06:59:28Z</time>
      </trkpt>
      <trkpt lat="44.87875" lon="0.83659">
        <ele>102.7</ele>
        <time>2022-05-15T06:59:30Z</time>
      </trkpt>
      <trkpt lat="44.87878" lon="0.83663">
        <ele>103</ele>
        <time>2022-05-15T06:59:32Z</time>
      </trkpt>
      <trkpt lat="44.87881" lon="0.83666">
        <ele>103.3</ele>
        <time>2022-05-15T06:59:34Z</time>
      </trkpt>
      <trkpt lat="44.87884" lon="0.8367">
        <ele>103.6</ele>
        <time>2022-05-15T06:59:36Z</time>
      </trkpt>
      <trkpt lat="44.87887" lon="0.83673">
        <ele>103.9</ele>
        <time>2022-05-15T06:59:38Z</time>
      </trkpt>
      <trkpt lat="44.8789" lon="0.83676">
        <ele>104.1</ele>
        <time>2022-05-15T06:59:40Z</time>
      </trkpt>
      <trkpt lat="44.87893" lon="0.8368">
        <ele>104.4</ele>
        <time>2022-05-15T06:59:42Z</time>
      </trkpt>
      <trkpt lat="44.87897" lon="0.83683">
        <ele>104.6</ele>
        <time>2022-05-15T06:59:44Z</time>
      </trkpt>
      <trkpt lat="44.879" lon="0.83687">
        <ele>104.9</ele>
        <time>2022-05-15T06:59:46Z</time>
      </trkpt>
      <trkpt lat="44.87904" lon="0.83691">
        <ele>105.1</ele>
        <time>2022-05-15T06:59:48Z</time>
      </trkpt>
      <trkpt lat="44.87907" lon="0.83694">
        <ele>105.3</ele>
        <time>2022-05-15T06:59:50Z</time>
      </trkpt>
      <trkpt lat="44.87909" lon="0.83695">
        <ele>105.4</ele>
        <time>2022-05-15T06:59:51Z</time>
      </trkpt>
      <trkpt lat="44.87911" lon="0.83697">
        <ele>105.5</ele>
        <time>2022-05-15T06:59:52Z</time>
      </trkpt>
      <trkpt lat="44.87915" lon="0.837">
        <ele>105.6</ele>
        <time>2022-05-15T06:59:54Z</time>
      </trkpt>
      <trkpt lat="44.87918" lon="0.83703">
        <ele>105.7</ele>
        <time>2022-05-15T06:59:56Z</time>
      </trkpt>
      <trkpt lat="44.87922" lon="0.83706">
        <ele>105.8</ele>
        <time>2022-05-15T06:59:58Z</time>
      </trkpt>
      <trkpt lat="44.87925" lon="0.83709">
        <ele>106</ele>
        <time>2022-05-15T07:00:00Z</time>
      </trkpt>
      <trkpt lat="44.87929" lon="0.83712">
        <ele>106</ele>
        <time>2022-05-15T07:00:02Z</time>
      </trkpt>
      <trkpt lat="44.87933" lon="0.83715">
        <ele>106.1</ele>
        <time>2022-05-15T07:00:04Z</time>
      </trkpt>
      <trkpt lat="44.87937" lon="0.83718">
        <ele>106.2</ele>
        <time>2022-05-15T07:00:06Z</time>
      </trkpt>
      <trkpt lat="44.87941" lon="0.83722">
        <ele>106.4</ele>
        <time>2022-05-15T07:00:08Z</time>
      </trkpt>
      <trkpt lat="44.87944" lon="0.83725">
        <ele>106.5</ele>
        <time>2022-05-15T07:00:10Z</time>
      </trkpt>
      <trkpt lat="44.87949" lon="0.83728">
        <ele>106.6</ele>
        <time>2022-05-15T07:00:12Z</time>
      </trkpt>
      <trkpt lat="44.87953" lon="0.8373">
        <ele>106.8</ele>
        <time>2022-05-15T07:00:14Z</time>
      </trkpt>
      <trkpt lat="44.87955" lon="0.83731">
        <ele>106.9</ele>
        <time>2022-05-15T07:00:15Z</time>
      </trkpt>
      <trkpt lat="44.87957" lon="0.83732">
        <ele>107</ele>
        <time>2022-05-15T07:00:16Z</time>
      </trkpt>
      <trkpt lat="44.87962" lon="0.83734">
        <ele>107.2</ele>
        <time>2022-05-15T07:00:18Z</time>
      </trkpt>
      <trkpt lat="44.87967" lon="0.83736">
        <ele>107.5</ele>
        <time>2022-05-15T07:00:20Z</time>
      </trkpt>
      <trkpt lat="44.87969" lon="0.83736">
        <ele>107.6</ele>
        <time>2022-05-15T07:00:21Z</time>
      </trkpt>
      <trkpt lat="44.87972" lon="0.83737">
        <ele>107.8</ele>
        <time>2022-05-15T07:00:22Z</time>
      </trkpt>
      <trkpt lat="44.87977" lon="0.83739">
        <ele>108.1</ele>
        <time>2022-05-15T07:00:24Z</time>
      </trkpt>
      <trkpt lat="44.87983" lon="0.83739">
        <ele>108.4</ele>
        <time>2022-05-15T07:00:26Z</time>
      </trkpt>
      <trkpt lat="44.87985" lon="0.8374">
        <ele>108.6</ele>
        <time>2022-05-15T07:00:27Z</time>
      </trkpt>
      <trkpt lat="44.87988" lon="0.8374">
        <ele>108.8</ele>
        <time>2022-05-15T07:00:28Z</time>
      </trkpt>
      <trkpt lat="44.87994" lon="0.83741">
        <ele>109.3</ele>
        <time>2022-05-15T07:00:30Z</time>
      </trkpt>
      <trkpt lat="44.87999" lon="0.8374">
        <ele>109.8</ele>
        <time>2022-05-15T07:00:32Z</time>
      </trkpt>
      <trkpt lat="44.88005" lon="0.83739">
        <ele>110.3</ele>
        <time>2022-05-15T07:00:34Z</time>
      </trkpt>
      <trkpt lat="44.88007" lon="0.83739">
        <ele>110.6</ele>
        <time>2022-05-15T07:00:35Z</time>
      </trkpt>
      <trkpt lat="44.8801" lon="0.83738">
        <ele>110.9</ele>
        <time>2022-05-15T07:00:36Z</time>
      </trkpt>
      <trkpt lat="44.88015" lon="0.83734">
        <ele>111.5</ele>
        <time>2022-05-15T07:00:38Z</time>
      </trkpt>
      <trkpt lat="44.88019" lon="0.83731">
        <ele>112.1</ele>
        <time>2022-05-15T07:00:40Z</time>
      </trkpt>
      <trkpt lat="44.88022" lon="0.83726">
        <ele>112.6</ele>
        <time>2022-05-15T07:00:42Z</time>
      </trkpt>
      <trkpt lat="44.88024" lon="0.83722">
        <ele>113.1</ele>
        <time>2022-05-15T07:00:44Z</time>
      </trkpt>
      <trkpt lat="44.88027" lon="0.83716">
        <ele>113.7</ele>
        <time>2022-05-15T07:00:46Z</time>
      </trkpt>
      <trkpt lat="44.88029" lon="0.83712">
        <ele>114.1</ele>
        <time>2022-05-15T07:00:48Z</time>
      </trkpt>
      <trkpt lat="44.8803" lon="0.8371">
        <ele>114.3</ele>
        <time>2022-05-15T07:00:49Z</time>
      </trkpt>
      <trkpt lat="44.88031" lon="0.83708">
        <ele>114.4</ele>
        <time>2022-05-15T07:00:50Z</time>
      </trkpt>
      <trkpt lat="44.88032" lon="0.83706">
        <ele>114.6</ele>
        <time>2022-05-15T07:00:51Z</time>
      </trkpt>
      <trkpt lat="44.88033" lon="0.83704">
        <ele>114.8</ele>
        <time>2022-05-15T07:00:52Z</time>
      </trkpt>
      <trkpt lat="44.88035" lon="0.837">
        <ele>115.2</ele>
        <time>2022-05-15T07:00:54Z</time>
      </trkpt>
      <trkpt lat="44.88037" lon="0.83695">
        <ele>115.6</ele>
        <time>2022-05-15T07:00:56Z</time>
      </trkpt>
      <trkpt lat="44.88039" lon="0.83691">
        <ele>115.9</ele>
        <time>2022-05-15T07:00:58Z</time>
      </trkpt>
      <trkpt lat="44.88042" lon="0.83688">
        <ele>116.3</ele>
        <time>2022-05-15T07:01:00Z</time>
      </trkpt>
      <trkpt lat="44.88045" lon="0.83684">
        <ele>116.6</ele>
        <time>2022-05-15T07:01:02Z</time>
      </trkpt>
      <trkpt lat="44.88047" lon="0.8368">
        <ele>116.9</ele>
        <time>2022-05-15T07:01:04Z</time>
      </trkpt>
      <trkpt lat="44.88051" lon="0.83676">
        <ele>117.3</ele>
        <time>2022-05-15T07:01:06Z</time>
      </trkpt>
      <trkpt lat="44.88054" lon="0.83673">
        <ele>117.6</ele>
        <time>2022-05-15T07:01:08Z</time>
      </trkpt>
      <trkpt lat="44.88057" lon="0.8367">
        <ele>117.9</ele>
        <time>2022-05-15T07:01:10Z</time>
      </trkpt>
      <trkpt lat="44.88061" lon="0.83667">
        <ele>118.2</ele>
        <time>2022-05-15T07:01:12Z</time>
      </trkpt>
      <trkpt lat="44.88064" lon="0.83663">
        <ele>118.5</ele>
        <time>2022-05-15T07:01:14Z</time>
      </trkpt>
      <trkpt lat="44.88068" lon="0.8366">
        <ele>118.7</ele>
        <time>2022-05-15T07:01:16Z</time>
      </trkpt>
      <trkpt lat="44.88071" lon="0.83657">
        <ele>119</ele>
        <time>2022-05-15T07:01:18Z</time>
      </trkpt>
      <trkpt lat="44.88074" lon="0.83654">
        <ele>119.2</ele>
        <time>2022-05-15T07:01:20Z</time>
      </trkpt>
      <trkpt lat="44.88077" lon="0.83652">
        <ele>119.4</ele>
        <time>2022-05-15T07:01:22Z</time>
      </trkpt>
      <trkpt lat="44.8808" lon="0.83649">
        <ele>119.7</ele>
        <time>2022-05-15T07:01:24Z</time>
      </trkpt>
      <trkpt lat="44.88082" lon="0.83647">
        <ele>119.9</ele>
        <time>2022-05-15T07:01:25Z</time>
      </trkpt>
      <trkpt lat="44.88084" lon="0.83646">
        <ele>120.1</ele>
        <time>2022-05-15T07:01:26Z</time>
      </trkpt>
      <trkpt lat="44.88087" lon="0.83643">
        <ele>120.4</ele>
        <time>2022-05-15T07:01:28Z</time>
      </trkpt>
      <trkpt lat="44.88091" lon="0.83639">
        <ele>120.8</ele>
        <time>2022-05-15T07:01:30Z</time>
      </trkpt>
      <trkpt lat="44.88094" lon="0.83636">
        <ele>121.2</ele>
        <time>2022-05-15T07:01:32Z</time>
      </trkpt>
      <trkpt lat="44.88097" lon="0.83633">
        <ele>121.6</ele>
        <time>2022-05-15T07:01:34Z</time>
      </trkpt>
      <trkpt lat="44.88099" lon="0.83632">
        <ele>121.8</ele>
        <time>2022-05-15T07:01:35Z</time>
      </trkpt>
      <trkpt lat="44.88101" lon="0.8363">
        <ele>122</ele>
        <time>2022-05-15T07:01:36Z</time>
      </trkpt>
      <trkpt lat="44.88104" lon="0.83627">
        <ele>122.4</ele>
        <time>2022-05-15T07:01:38Z</time>
      </trkpt>
      <trkpt lat="44.88107" lon="0.83625">
        <ele>122.8</ele>
        <time>2022-05-15T07:01:40Z</time>
      </trkpt>
      <trkpt lat="44.88108" lon="0.83624">
        <ele>123</ele>
        <time>2022-05-15T07:01:41Z</time>
      </trkpt>
      <trkpt lat="44.88109" lon="0.83623">
        <ele>123.1</ele>
        <time>2022-05-15T07:01:42Z</time>
      </trkpt>
      <trkpt lat="44.88112" lon="0.8362">
        <ele>123.6</ele>
        <time>2022-05-15T07:01:44Z</time>
      </trkpt>
      <trkpt lat="44.88114" lon="0.83618">
        <ele>123.8</ele>
        <time>2022-05-15T07:01:45Z</time>
      </trkpt>
      <trkpt lat="44.88115" lon="0.83617">
        <ele>124.1</ele>
        <time>2022-05-15T07:01:46Z</time>
      </trkpt>
      <trkpt lat="44.88118" lon="0.83614">
        <ele>124.5</ele>
        <time>2022-05-15T07:01:48Z</time>
      </trkpt>
      <trkpt lat="44.88121" lon="0.83611">
        <ele>125</ele>
        <time>2022-05-15T07:01:50Z</time>
      </trkpt>
      <trkpt lat="44.88124" lon="0.83609">
        <ele>125.5</ele>
        <time>2022-05-15T07:01:52Z</time>
      </trkpt>
      <trkpt lat="44.88127" lon="0.83606">
        <ele>125.9</ele>
        <time>2022-05-15T07:01:54Z</time>
      </trkpt>
      <trkpt lat="44.8813" lon="0.83603">
        <ele>126.4</ele>
        <time>2022-05-15T07:01:56Z</time>
      </trkpt>
      <trkpt lat="44.88133" lon="0.83601">
        <ele>126.9</ele>
        <time>2022-05-15T07:01:58Z</time>
      </trkpt>
      <trkpt lat="44.88136" lon="0.83598">
        <ele>127.3</ele>
        <time>2022-05-15T07:02:00Z</time>
      </trkpt>
      <trkpt lat="44.88138" lon="0.83596">
        <ele>127.6</ele>
        <time>2022-05-15T07:02:02Z</time>
      </trkpt>
      <trkpt lat="44.88139" lon="0.83595">
        <ele>127.8</ele>
        <time>2022-05-15T07:02:03Z</time>
      </trkpt>
      <trkpt lat="44.88141" lon="0.83594">
        <ele>128</ele>
        <time>2022-05-15T07:02:04Z</time>
      </trkpt>
      <trkpt lat="44.88144" lon="0.83591">
        <ele>128.3</ele>
        <time>2022-05-15T07:02:06Z</time>
      </trkpt>
      <trkpt lat="44.88145" lon="0.8359">
        <ele>128.5</ele>
        <time>2022-05-15T07:02:07Z</time>
      </trkpt>
      <trkpt lat="44.88146" lon="0.83589">
        <ele>128.6</ele>
        <time>2022-05-15T07:02:08Z</time>
      </trkpt>
      <trkpt lat="44.88148" lon="0.83587">
        <ele>128.9</ele>
        <time>2022-05-15T07:02:10Z</time>
      </trkpt>
      <trkpt lat="44.88151" lon="0.83585">
        <ele>129.2</ele>
        <time>2022-05-15T07:02:12Z</time>
      </trkpt>
      <trkpt lat="44.88153" lon="0.83582">
        <ele>129.5</ele>
        <time>2022-05-15T07:02:14Z</time>
      </trkpt>
      <trkpt lat="44.88156" lon="0.8358">
        <ele>129.8</ele>
        <time>2022-05-15T07:02:16Z</time>
      </trkpt>
      <trkpt lat="44.88158" lon="0.83578">
        <ele>129.9</ele>
        <time>2022-05-15T07:02:17Z</time>
      </trkpt>
      <trkpt lat="44.88161" lon="0.83577">
        <ele>130.2</ele>
        <time>2022-05-15T07:02:18Z</time>
      </trkpt>
      <trkpt lat="44.88164" lon="0.83574">
        <ele>130.4</ele>
        <time>2022-05-15T07:02:20Z</time>
      </trkpt>
      <trkpt lat="44.88166" lon="0.83572">
        <ele>130.7</ele>
        <time>2022-05-15T07:02:22Z</time>
      </trkpt>
      <trkpt lat="44.8817" lon="0.83569">
        <ele>130.9</ele>
        <time>2022-05-15T07:02:24Z</time>
      </trkpt>
      <trkpt lat="44.88173" lon="0.83567">
        <ele>131.2</ele>
        <time>2022-05-15T07:02:26Z</time>
      </trkpt>
      <trkpt lat="44.88175" lon="0.83566">
        <ele>131.4</ele>
        <time>2022-05-15T07:02:27Z</time>
      </trkpt>
      <trkpt lat="44.88177" lon="0.83565">
        <ele>131.5</ele>
        <time>2022-05-15T07:02:28Z</time>
      </trkpt>
      <trkpt lat="44.88179" lon="0.83564">
        <ele>131.7</ele>
        <time>2022-05-15T07:02:30Z</time>
      </trkpt>
      <trkpt lat="44.88181" lon="0.83562">
        <ele>131.8</ele>
        <time>2022-05-15T07:02:31Z</time>
      </trkpt>
      <trkpt lat="44.88183" lon="0.83561">
        <ele>132</ele>
        <time>2022-05-15T07:02:32Z</time>
      </trkpt>
      <trkpt lat="44.88187" lon="0.83559">
        <ele>132.2</ele>
        <time>2022-05-15T07:02:34Z</time>
      </trkpt>
      <trkpt lat="44.8819" lon="0.83558">
        <ele>132.4</ele>
        <time>2022-05-15T07:02:36Z</time>
      </trkpt>
      <trkpt lat="44.88191" lon="0.83557">
        <ele>132.5</ele>
        <time>2022-05-15T07:02:37Z</time>
      </trkpt>
      <trkpt lat="44.88193" lon="0.83556">
        <ele>132.6</ele>
        <time>2022-05-15T07:02:38Z</time>
      </trkpt>
      <trkpt lat="44.88198" lon="0.83554">
        <ele>132.9</ele>
        <time>2022-05-15T07:02:40Z</time>
      </trkpt>
      <trkpt lat="44.88202" lon="0.83551">
        <ele>133.1</ele>
        <time>2022-05-15T07:02:42Z</time>
      </trkpt>
      <trkpt lat="44.88207" lon="0.83549">
        <ele>133.3</ele>
        <time>2022-05-15T07:02:44Z</time>
      </trkpt>
      <trkpt lat="44.8821" lon="0.83548">
        <ele>133.4</ele>
        <time>2022-05-15T07:02:45Z</time>
      </trkpt>
      <trkpt lat="44.88212" lon="0.83547">
        <ele>133.5</ele>
        <time>2022-05-15T07:02:46Z</time>
      </trkpt>
      <trkpt lat="44.88217" lon="0.83546">
        <ele>133.6</ele>
        <time>2022-05-15T07:02:48Z</time>
      </trkpt>
      <trkpt lat="44.88221" lon="0.83546">
        <ele>133.7</ele>
        <time>2022-05-15T07:02:50Z</time>
      </trkpt>
      <trkpt lat="44.88222" lon="0.83546">
        <ele>133.7</ele>
        <time>2022-05-15T07:02:51Z</time>
      </trkpt>
      <trkpt lat="44.88224" lon="0.83545">
        <ele>133.7</ele>
        <time>2022-05-15T07:02:52Z</time>
      </trkpt>
      <trkpt lat="44.88231" lon="0.83542">
        <ele>133.8</ele>
        <time>2022-05-15T07:02:54Z</time>
      </trkpt>
      <trkpt lat="44.88234" lon="0.8354">
        <ele>133.9</ele>
        <time>2022-05-15T07:02:55Z</time>
      </trkpt>
      <trkpt lat="44.88237" lon="0.83539">
        <ele>133.9</ele>
        <time>2022-05-15T07:02:56Z</time>
      </trkpt>
      <trkpt lat="44.88244" lon="0.83536">
        <ele>133.9</ele>
        <time>2022-05-15T07:02:58Z</time>
      </trkpt>
      <trkpt lat="44.88251" lon="0.83533">
        <ele>133.8</ele>
        <time>2022-05-15T07:03:00Z</time>
      </trkpt>
      <trkpt lat="44.88255" lon="0.83531">
        <ele>133.8</ele>
        <time>2022-05-15T07:03:01Z</time>
      </trkpt>
      <trkpt lat="44.88259" lon="0.83529">
        <ele>133.7</ele>
        <time>2022-05-15T07:03:02Z</time>
      </trkpt>
      <trkpt lat="44.88267" lon="0.83526">
        <ele>133.6</ele>
        <time>2022-05-15T07:03:04Z</time>
      </trkpt>
      <trkpt lat="44.88274" lon="0.83522">
        <ele>133.4</ele>
        <time>2022-05-15T07:03:06Z</time>
      </trkpt>
      <trkpt lat="44.88282" lon="0.83519">
        <ele>133.1</ele>
        <time>2022-05-15T07:03:08Z</time>
      </trkpt>
      <trkpt lat="44.8829" lon="0.83515">
        <ele>132.8</ele>
        <time>2022-05-15T07:03:10Z</time>
      </trkpt>
      <trkpt lat="44.88293" lon="0.83513">
        <ele>132.6</ele>
        <time>2022-05-15T07:03:11Z</time>
      </trkpt>
      <trkpt lat="44.88297" lon="0.83511">
        <ele>132.4</ele>
        <time>2022-05-15T07:03:12Z</time>
      </trkpt>
      <trkpt lat="44.88308" lon="0.83503">
        <ele>131.7</ele>
        <time>2022-05-15T07:03:14Z</time>
      </trkpt>
      <trkpt lat="44.88319" lon="0.83496">
        <ele>130.9</ele>
        <time>2022-05-15T07:03:16Z</time>
      </trkpt>
      <trkpt lat="44.88332" lon="0.83486">
        <ele>129.9</ele>
        <time>2022-05-15T07:03:18Z</time>
      </trkpt>
      <trkpt lat="44.88339" lon="0.83482">
        <ele>129.5</ele>
        <time>2022-05-15T07:03:19Z</time>
      </trkpt>
      <trkpt lat="44.88345" lon="0.83477">
        <ele>129</ele>
        <time>2022-05-15T07:03:20Z</time>
      </trkpt>
      <trkpt lat="44.88358" lon="0.83468">
        <ele>128.4</ele>
        <time>2022-05-15T07:03:22Z</time>
      </trkpt>
      <trkpt lat="44.88371" lon="0.83458">
        <ele>128</ele>
        <time>2022-05-15T07:03:24Z</time>
      </trkpt>
      <trkpt lat="44.88377" lon="0.83454">
        <ele>127.9</ele>
        <time>2022-05-15T07:03:25Z</time>
      </trkpt>
      <trkpt lat="44.88383" lon="0.8345">
        <ele>127.8</ele>
        <time>2022-05-15T07:03:26Z</time>
      </trkpt>
      <trkpt lat="44.88393" lon="0.83439">
        <ele>127.6</ele>
        <time>2022-05-15T07:03:28Z</time>
      </trkpt>
      <trkpt lat="44.88397" lon="0.83432">
        <ele>127.5</ele>
        <time>2022-05-15T07:03:29Z</time>
      </trkpt>
      <trkpt lat="44.884" lon="0.83425">
        <ele>127.4</ele>
        <time>2022-05-15T07:03:30Z</time>
      </trkpt>
      <trkpt lat="44.88408" lon="0.8341">
        <ele>127.1</ele>
        <time>2022-05-15T07:03:32Z</time>
      </trkpt>
      <trkpt lat="44.88415" lon="0.83394">
        <ele>126.6</ele>
        <time>2022-05-15T07:03:34Z</time>
      </trkpt>
      <trkpt lat="44.88419" lon="0.83386">
        <ele>126.4</ele>
        <time>2022-05-15T07:03:35Z</time>
      </trkpt>
      <trkpt lat="44.88423" lon="0.83377">
        <ele>126.2</ele>
        <time>2022-05-15T07:03:36Z</time>
      </trkpt>
      <trkpt lat="44.8843" lon="0.83358">
        <ele>125.7</ele>
        <time>2022-05-15T07:03:38Z</time>
      </trkpt>
      <trkpt lat="44.88437" lon="0.8334">
        <ele>125.4</ele>
        <time>2022-05-15T07:03:40Z</time>
      </trkpt>
      <trkpt lat="44.8844" lon="0.83331">
        <ele>125.4</ele>
        <time>2022-05-15T07:03:41Z</time>
      </trkpt>
      <trkpt lat="44.88443" lon="0.83324">
        <ele>125.4</ele>
        <time>2022-05-15T07:03:42Z</time>
      </trkpt>
      <trkpt lat="44.8845" lon="0.83308">
        <ele>125.4</ele>
        <time>2022-05-15T07:03:44Z</time>
      </trkpt>
      <trkpt lat="44.88453" lon="0.83301">
        <ele>125.4</ele>
        <time>2022-05-15T07:03:45Z</time>
      </trkpt>
      <trkpt lat="44.88458" lon="0.83297">
        <ele>125.4</ele>
        <time>2022-05-15T07:03:46Z</time>
      </trkpt>
      <trkpt lat="44.88468" lon="0.83297">
        <ele>125.3</ele>
        <time>2022-05-15T07:03:48Z</time>
      </trkpt>
      <trkpt lat="44.88479" lon="0.83299">
        <ele>124.9</ele>
        <time>2022-05-15T07:03:50Z</time>
      </trkpt>
      <trkpt lat="44.88489" lon="0.83299">
        <ele>124.3</ele>
        <time>2022-05-15T07:03:52Z</time>
      </trkpt>
      <trkpt lat="44.88495" lon="0.83296">
        <ele>123.9</ele>
        <time>2022-05-15T07:03:53Z</time>
      </trkpt>
      <trkpt lat="44.88501" lon="0.83294">
        <ele>123.4</ele>
        <time>2022-05-15T07:03:54Z</time>
      </trkpt>
      <trkpt lat="44.8851" lon="0.83289">
        <ele>122.6</ele>
        <time>2022-05-15T07:03:56Z</time>
      </trkpt>
      <trkpt lat="44.88514" lon="0.83288">
        <ele>122.3</ele>
        <time>2022-05-15T07:03:57Z</time>
      </trkpt>
      <trkpt lat="44.88519" lon="0.83286">
        <ele>122</ele>
        <time>2022-05-15T07:03:58Z</time>
      </trkpt>
      <trkpt lat="44.88524" lon="0.83282">
        <ele>121.6</ele>
        <time>2022-05-15T07:04:00Z</time>
      </trkpt>
      <trkpt lat="44.88531" lon="0.83278">
        <ele>121.3</ele>
        <time>2022-05-15T07:04:02Z</time>
      </trkpt>
      <trkpt lat="44.8854" lon="0.83273">
        <ele>121.1</ele>
        <time>2022-05-15T07:04:03Z</time>
      </trkpt>
      <trkpt lat="44.88541" lon="0.83267">
        <ele>121.7</ele>
        <time>2022-05-15T07:04:04Z</time>
      </trkpt>
      <trkpt lat="44.88542" lon="0.83257">
        <ele>122.8</ele>
        <time>2022-05-15T07:04:06Z</time>
      </trkpt>
      <trkpt lat="44.88544" lon="0.83251">
        <ele>123.5</ele>
        <time>2022-05-15T07:04:08Z</time>
      </trkpt>
      <trkpt lat="44.88543" lon="0.83247">
        <ele>124</ele>
        <time>2022-05-15T07:04:10Z</time>
      </trkpt>
      <trkpt lat="44.88543" lon="0.83244">
        <ele>124.4</ele>
        <time>2022-05-15T07:04:12Z</time>
      </trkpt>
      <trkpt lat="44.88542" lon="0.83241">
        <ele>124.7</ele>
        <time>2022-05-15T07:04:13Z</time>
      </trkpt>
      <trkpt lat="44.88542" lon="0.83241">
        <ele>124.7</ele>
        <time>2022-05-15T07:04:14Z</time>
      </trkpt>
      <trkpt lat="44.8854" lon="0.83234">
        <ele>125.7</ele>
        <time>2022-05-15T07:04:16Z</time>
      </trkpt>
      <trkpt lat="44.88539" lon="0.83228">
        <ele>126.4</ele>
        <time>2022-05-15T07:04:18Z</time>
      </trkpt>
      <trkpt lat="44.88538" lon="0.83222">
        <ele>127.1</ele>
        <time>2022-05-15T07:04:20Z</time>
      </trkpt>
      <trkpt lat="44.88537" lon="0.83218">
        <ele>127.6</ele>
        <time>2022-05-15T07:04:22Z</time>
      </trkpt>
      <trkpt lat="44.88536" lon="0.83213">
        <ele>128.2</ele>
        <time>2022-05-15T07:04:24Z</time>
      </trkpt>
      <trkpt lat="44.88535" lon="0.83208">
        <ele>128.7</ele>
        <time>2022-05-15T07:04:26Z</time>
      </trkpt>
      <trkpt lat="44.88534" lon="0.83203">
        <ele>129.2</ele>
        <time>2022-05-15T07:04:28Z</time>
      </trkpt>
      <trkpt lat="44.88533" lon="0.83198">
        <ele>129.6</ele>
        <time>2022-05-15T07:04:30Z</time>
      </trkpt>
      <trkpt lat="44.88532" lon="0.83193">
        <ele>130.1</ele>
        <time>2022-05-15T07:04:32Z</time>
      </trkpt>
      <trkpt lat="44.8853" lon="0.83187">
        <ele>130.6</ele>
        <time>2022-05-15T07:04:34Z</time>
      </trkpt>
      <trkpt lat="44.88529" lon="0.83182">
        <ele>131</ele>
        <time>2022-05-15T07:04:36Z</time>
      </trkpt>
      <trkpt lat="44.88528" lon="0.83177">
        <ele>131.3</ele>
        <time>2022-05-15T07:04:38Z</time>
      </trkpt>
      <trkpt lat="44.88527" lon="0.8317">
        <ele>131.7</ele>
        <time>2022-05-15T07:04:40Z</time>
      </trkpt>
      <trkpt lat="44.88526" lon="0.83165">
        <ele>132</ele>
        <time>2022-05-15T07:04:42Z</time>
      </trkpt>
      <trkpt lat="44.88525" lon="0.83163">
        <ele>132.1</ele>
        <time>2022-05-15T07:04:43Z</time>
      </trkpt>
      <trkpt lat="44.88525" lon="0.83161">
        <ele>132.2</ele>
        <time>2022-05-15T07:04:44Z</time>
      </trkpt>
      <trkpt lat="44.88524" lon="0.83158">
        <ele>132.4</ele>
        <time>2022-05-15T07:04:45Z</time>
      </trkpt>
      <trkpt lat="44.88523" lon="0.83155">
        <ele>132.5</ele>
        <time>2022-05-15T07:04:46Z</time>
      </trkpt>
      <trkpt lat="44.88522" lon="0.83149">
        <ele>132.9</ele>
        <time>2022-05-15T07:04:48Z</time>
      </trkpt>
      <trkpt lat="44.88521" lon="0.83143">
        <ele>133.1</ele>
        <time>2022-05-15T07:04:50Z</time>
      </trkpt>
      <trkpt lat="44.8852" lon="0.83137">
        <ele>133.3</ele>
        <time>2022-05-15T07:04:52Z</time>
      </trkpt>
      <trkpt lat="44.88519" lon="0.83131">
        <ele>133.5</ele>
        <time>2022-05-15T07:04:54Z</time>
      </trkpt>
      <trkpt lat="44.88518" lon="0.83128">
        <ele>133.6</ele>
        <time>2022-05-15T07:04:55Z</time>
      </trkpt>
      <trkpt lat="44.88518" lon="0.83124">
        <ele>133.8</ele>
        <time>2022-05-15T07:04:56Z</time>
      </trkpt>
      <trkpt lat="44.88517" lon="0.83117">
        <ele>134</ele>
        <time>2022-05-15T07:04:58Z</time>
      </trkpt>
      <trkpt lat="44.88516" lon="0.83111">
        <ele>134.2</ele>
        <time>2022-05-15T07:05:00Z</time>
      </trkpt>
      <trkpt lat="44.88515" lon="0.83104">
        <ele>134.4</ele>
        <time>2022-05-15T07:05:02Z</time>
      </trkpt>
      <trkpt lat="44.88513" lon="0.83097">
        <ele>134.6</ele>
        <time>2022-05-15T07:05:04Z</time>
      </trkpt>
      <trkpt lat="44.88513" lon="0.83093">
        <ele>134.8</ele>
        <time>2022-05-15T07:05:05Z</time>
      </trkpt>
      <trkpt lat="44.88512" lon="0.83089">
        <ele>134.9</ele>
        <time>2022-05-15T07:05:06Z</time>
      </trkpt>
      <trkpt lat="44.88511" lon="0.83081">
        <ele>135.2</ele>
        <time>2022-05-15T07:05:08Z</time>
      </trkpt>
      <trkpt lat="44.8851" lon="0.83076">
        <ele>135.4</ele>
        <time>2022-05-15T07:05:10Z</time>
      </trkpt>
      <trkpt lat="44.8851" lon="0.83072">
        <ele>135.6</ele>
        <time>2022-05-15T07:05:11Z</time>
      </trkpt>
      <trkpt lat="44.88509" lon="0.83069">
        <ele>135.7</ele>
        <time>2022-05-15T07:05:12Z</time>
      </trkpt>
      <trkpt lat="44.88507" lon="0.83064">
        <ele>135.9</ele>
        <time>2022-05-15T07:05:14Z</time>
      </trkpt>
      <trkpt lat="44.88506" lon="0.8306">
        <ele>136</ele>
        <time>2022-05-15T07:05:15Z</time>
      </trkpt>
      <trkpt lat="44.88505" lon="0.83056">
        <ele>136.1</ele>
        <time>2022-05-15T07:05:16Z</time>
      </trkpt>
      <trkpt lat="44.88503" lon="0.83048">
        <ele>136.4</ele>
        <time>2022-05-15T07:05:18Z</time>
      </trkpt>
      <trkpt lat="44.88501" lon="0.8304">
        <ele>136.6</ele>
        <time>2022-05-15T07:05:20Z</time>
      </trkpt>
      <trkpt lat="44.88499" lon="0.83033">
        <ele>136.8</ele>
        <time>2022-05-15T07:05:22Z</time>
      </trkpt>
      <trkpt lat="44.88498" lon="0.83029">
        <ele>136.9</ele>
        <time>2022-05-15T07:05:23Z</time>
      </trkpt>
      <trkpt lat="44.88497" lon="0.83025">
        <ele>137</ele>
        <time>2022-05-15T07:05:24Z</time>
      </trkpt>
      <trkpt lat="44.88494" lon="0.83019">
        <ele>137.1</ele>
        <time>2022-05-15T07:05:26Z</time>
      </trkpt>
      <trkpt lat="44.8849" lon="0.83013">
        <ele>137.2</ele>
        <time>2022-05-15T07:05:28Z</time>
      </trkpt>
      <trkpt lat="44.88485" lon="0.83006">
        <ele>137.2</ele>
        <time>2022-05-15T07:05:30Z</time>
      </trkpt>
      <trkpt lat="44.8848" lon="0.82999">
        <ele>137.3</ele>
        <time>2022-05-15T07:05:32Z</time>
      </trkpt>
      <trkpt lat="44.88478" lon="0.82996">
        <ele>137.4</ele>
        <time>2022-05-15T07:05:33Z</time>
      </trkpt>
      <trkpt lat="44.88476" lon="0.82994">
        <ele>137.4</ele>
        <time>2022-05-15T07:05:34Z</time>
      </trkpt>
      <trkpt lat="44.88475" lon="0.82984">
        <ele>137.7</ele>
        <time>2022-05-15T07:05:36Z</time>
      </trkpt>
      <trkpt lat="44.88476" lon="0.82975">
        <ele>138.1</ele>
        <time>2022-05-15T07:05:38Z</time>
      </trkpt>
      <trkpt lat="44.8848" lon="0.82968">
        <ele>138.6</ele>
        <time>2022-05-15T07:05:40Z</time>
      </trkpt>
      <trkpt lat="44.88484" lon="0.82962">
        <ele>139.1</ele>
        <time>2022-05-15T07:05:42Z</time>
      </trkpt>
      <trkpt lat="44.88485" lon="0.8296">
        <ele>139.4</ele>
        <time>2022-05-15T07:05:43Z</time>
      </trkpt>
      <trkpt lat="44.88487" lon="0.82957">
        <ele>139.7</ele>
        <time>2022-05-15T07:05:44Z</time>
      </trkpt>
      <trkpt lat="44.88489" lon="0.82953">
        <ele>140.1</ele>
        <time>2022-05-15T07:05:46Z</time>
      </trkpt>
      <trkpt lat="44.88492" lon="0.8295">
        <ele>140.5</ele>
        <time>2022-05-15T07:05:48Z</time>
      </trkpt>
      <trkpt lat="44.88494" lon="0.82946">
        <ele>140.9</ele>
        <time>2022-05-15T07:05:50Z</time>
      </trkpt>
      <trkpt lat="44.88497" lon="0.82941">
        <ele>141.3</ele>
        <time>2022-05-15T07:05:52Z</time>
      </trkpt>
      <trkpt lat="44.885" lon="0.82937">
        <ele>141.7</ele>
        <time>2022-05-15T07:05:54Z</time>
      </trkpt>
      <trkpt lat="44.88503" lon="0.82933">
        <ele>142.1</ele>
        <time>2022-05-15T07:05:56Z</time>
      </trkpt>
      <trkpt lat="44.88506" lon="0.82929">
        <ele>142.5</ele>
        <time>2022-05-15T07:05:58Z</time>
      </trkpt>
      <trkpt lat="44.88509" lon="0.82924">
        <ele>142.8</ele>
        <time>2022-05-15T07:06:00Z</time>
      </trkpt>
      <trkpt lat="44.88512" lon="0.8292">
        <ele>143.1</ele>
        <time>2022-05-15T07:06:02Z</time>
      </trkpt>
      <trkpt lat="44.88515" lon="0.82915">
        <ele>143.4</ele>
        <time>2022-05-15T07:06:04Z</time>
      </trkpt>
      <trkpt lat="44.88518" lon="0.8291">
        <ele>143.6</ele>
        <time>2022-05-15T07:06:06Z</time>
      </trkpt>
      <trkpt lat="44.88522" lon="0.82904">
        <ele>143.8</ele>
        <time>2022-05-15T07:06:08Z</time>
      </trkpt>
      <trkpt lat="44.88526" lon="0.82898">
        <ele>143.9</ele>
        <time>2022-05-15T07:06:10Z</time>
      </trkpt>
      <trkpt lat="44.8853" lon="0.82892">
        <ele>144</ele>
        <time>2022-05-15T07:06:12Z</time>
      </trkpt>
      <trkpt lat="44.88534" lon="0.82886">
        <ele>144</ele>
        <time>2022-05-15T07:06:14Z</time>
      </trkpt>
      <trkpt lat="44.88539" lon="0.82878">
        <ele>144</ele>
        <time>2022-05-15T07:06:16Z</time>
      </trkpt>
      <trkpt lat="44.88543" lon="0.82871">
        <ele>144.1</ele>
        <time>2022-05-15T07:06:18Z</time>
      </trkpt>
      <trkpt lat="44.88545" lon="0.82867">
        <ele>144.2</ele>
        <time>2022-05-15T07:06:19Z</time>
      </trkpt>
      <trkpt lat="44.88547" lon="0.82863">
        <ele>144.3</ele>
        <time>2022-05-15T07:06:20Z</time>
      </trkpt>
      <trkpt lat="44.88551" lon="0.82855">
        <ele>144.6</ele>
        <time>2022-05-15T07:06:22Z</time>
      </trkpt>
      <trkpt lat="44.88555" lon="0.82848">
        <ele>144.9</ele>
        <time>2022-05-15T07:06:24Z</time>
      </trkpt>
      <trkpt lat="44.88558" lon="0.82841">
        <ele>145.3</ele>
        <time>2022-05-15T07:06:26Z</time>
      </trkpt>
      <trkpt lat="44.88561" lon="0.82836">
        <ele>145.7</ele>
        <time>2022-05-15T07:06:28Z</time>
      </trkpt>
      <trkpt lat="44.88565" lon="0.82829">
        <ele>146.2</ele>
        <time>2022-05-15T07:06:30Z</time>
      </trkpt>
      <trkpt lat="44.88568" lon="0.82823">
        <ele>146.7</ele>
        <time>2022-05-15T07:06:32Z</time>
      </trkpt>
      <trkpt lat="44.88572" lon="0.82817">
        <ele>147.2</ele>
        <time>2022-05-15T07:06:34Z</time>
      </trkpt>
      <trkpt lat="44.88575" lon="0.82812">
        <ele>147.7</ele>
        <time>2022-05-15T07:06:36Z</time>
      </trkpt>
      <trkpt lat="44.88577" lon="0.82809">
        <ele>147.9</ele>
        <time>2022-05-15T07:06:37Z</time>
      </trkpt>
      <trkpt lat="44.88579" lon="0.82806">
        <ele>148.2</ele>
        <time>2022-05-15T07:06:38Z</time>
      </trkpt>
      <trkpt lat="44.88582" lon="0.82801">
        <ele>148.6</ele>
        <time>2022-05-15T07:06:40Z</time>
      </trkpt>
      <trkpt lat="44.88585" lon="0.82796">
        <ele>149</ele>
        <time>2022-05-15T07:06:42Z</time>
      </trkpt>
      <trkpt lat="44.88587" lon="0.82794">
        <ele>149.2</ele>
        <time>2022-05-15T07:06:43Z</time>
      </trkpt>
      <trkpt lat="44.88588" lon="0.82791">
        <ele>149.4</ele>
        <time>2022-05-15T07:06:44Z</time>
      </trkpt>
      <trkpt lat="44.88591" lon="0.82787">
        <ele>149.8</ele>
        <time>2022-05-15T07:06:46Z</time>
      </trkpt>
      <trkpt lat="44.88594" lon="0.82781">
        <ele>150.1</ele>
        <time>2022-05-15T07:06:48Z</time>
      </trkpt>
      <trkpt lat="44.88595" lon="0.82779">
        <ele>150.3</ele>
        <time>2022-05-15T07:06:49Z</time>
      </trkpt>
      <trkpt lat="44.88596" lon="0.82776">
        <ele>150.4</ele>
        <time>2022-05-15T07:06:50Z</time>
      </trkpt>
      <trkpt lat="44.88598" lon="0.82769">
        <ele>150.7</ele>
        <time>2022-05-15T07:06:52Z</time>
      </trkpt>
      <trkpt lat="44.886" lon="0.82764">
        <ele>150.8</ele>
        <time>2022-05-15T07:06:54Z</time>
      </trkpt>
      <trkpt lat="44.88601" lon="0.82761">
        <ele>150.9</ele>
        <time>2022-05-15T07:06:55Z</time>
      </trkpt>
      <trkpt lat="44.88602" lon="0.82759">
        <ele>151</ele>
        <time>2022-05-15T07:06:56Z</time>
      </trkpt>
      <trkpt lat="44.88604" lon="0.82753">
        <ele>151</ele>
        <time>2022-05-15T07:06:58Z</time>
      </trkpt>
      <trkpt lat="44.88606" lon="0.8275">
        <ele>151.1</ele>
        <time>2022-05-15T07:06:59Z</time>
      </trkpt>
      <trkpt lat="44.88607" lon="0.82747">
        <ele>151.1</ele>
        <time>2022-05-15T07:07:00Z</time>
      </trkpt>
      <trkpt lat="44.88609" lon="0.82741">
        <ele>151.1</ele>
        <time>2022-05-15T07:07:02Z</time>
      </trkpt>
      <trkpt lat="44.88611" lon="0.82734">
        <ele>151.1</ele>
        <time>2022-05-15T07:07:04Z</time>
      </trkpt>
      <trkpt lat="44.88612" lon="0.82731">
        <ele>151</ele>
        <time>2022-05-15T07:07:05Z</time>
      </trkpt>
      <trkpt lat="44.88614" lon="0.82728">
        <ele>150.9</ele>
        <time>2022-05-15T07:07:06Z</time>
      </trkpt>
      <trkpt lat="44.88616" lon="0.8272">
        <ele>150.7</ele>
        <time>2022-05-15T07:07:08Z</time>
      </trkpt>
      <trkpt lat="44.88618" lon="0.82716">
        <ele>150.6</ele>
        <time>2022-05-15T07:07:09Z</time>
      </trkpt>
      <trkpt lat="44.88619" lon="0.82713">
        <ele>150.4</ele>
        <time>2022-05-15T07:07:10Z</time>
      </trkpt>
      <trkpt lat="44.88621" lon="0.82708">
        <ele>150.2</ele>
        <time>2022-05-15T07:07:11Z</time>
      </trkpt>
      <trkpt lat="44.88623" lon="0.82701">
        <ele>149.8</ele>
        <time>2022-05-15T07:07:12Z</time>
      </trkpt>
      <trkpt lat="44.88626" lon="0.82694">
        <ele>149.4</ele>
        <time>2022-05-15T07:07:13Z</time>
      </trkpt>
      <trkpt lat="44.88628" lon="0.82686">
        <ele>148.9</ele>
        <time>2022-05-15T07:07:14Z</time>
      </trkpt>
      <trkpt lat="44.88633" lon="0.8267">
        <ele>147.9</ele>
        <time>2022-05-15T07:07:16Z</time>
      </trkpt>
      <trkpt lat="44.88635" lon="0.82661">
        <ele>147.4</ele>
        <time>2022-05-15T07:07:17Z</time>
      </trkpt>
      <trkpt lat="44.88638" lon="0.82652">
        <ele>146.8</ele>
        <time>2022-05-15T07:07:18Z</time>
      </trkpt>
      <trkpt lat="44.88641" lon="0.82642">
        <ele>146.2</ele>
        <time>2022-05-15T07:07:19Z</time>
      </trkpt>
      <trkpt lat="44.88643" lon="0.82633">
        <ele>145.6</ele>
        <time>2022-05-15T07:07:20Z</time>
      </trkpt>
      <trkpt lat="44.88646" lon="0.82623">
        <ele>145.1</ele>
        <time>2022-05-15T07:07:21Z</time>
      </trkpt>
      <trkpt lat="44.88649" lon="0.82613">
        <ele>144.7</ele>
        <time>2022-05-15T07:07:22Z</time>
      </trkpt>
      <trkpt lat="44.88654" lon="0.82594">
        <ele>144</ele>
        <time>2022-05-15T07:07:24Z</time>
      </trkpt>
      <trkpt lat="44.88657" lon="0.82586">
        <ele>143.9</ele>
        <time>2022-05-15T07:07:25Z</time>
      </trkpt>
      <trkpt lat="44.88661" lon="0.82578">
        <ele>143.8</ele>
        <time>2022-05-15T07:07:26Z</time>
      </trkpt>
      <trkpt lat="44.88668" lon="0.82562">
        <ele>144.1</ele>
        <time>2022-05-15T07:07:28Z</time>
      </trkpt>
      <trkpt lat="44.8867" lon="0.82556">
        <ele>144.3</ele>
        <time>2022-05-15T07:07:29Z</time>
      </trkpt>
      <trkpt lat="44.88673" lon="0.8255">
        <ele>144.5</ele>
        <time>2022-05-15T07:07:30Z</time>
      </trkpt>
      <trkpt lat="44.88677" lon="0.8254">
        <ele>144.8</ele>
        <time>2022-05-15T07:07:32Z</time>
      </trkpt>
      <trkpt lat="44.88679" lon="0.82535">
        <ele>145</ele>
        <time>2022-05-15T07:07:33Z</time>
      </trkpt>
      <trkpt lat="44.88682" lon="0.82529">
        <ele>145.2</ele>
        <time>2022-05-15T07:07:34Z</time>
      </trkpt>
      <trkpt lat="44.88684" lon="0.82524">
        <ele>145.4</ele>
        <time>2022-05-15T07:07:35Z</time>
      </trkpt>
      <trkpt lat="44.88686" lon="0.82518">
        <ele>145.4</ele>
        <time>2022-05-15T07:07:36Z</time>
      </trkpt>
      <trkpt lat="44.88691" lon="0.82507">
        <ele>145.4</ele>
        <time>2022-05-15T07:07:38Z</time>
      </trkpt>
      <trkpt lat="44.88696" lon="0.82495">
        <ele>145.1</ele>
        <time>2022-05-15T07:07:40Z</time>
      </trkpt>
      <trkpt lat="44.88701" lon="0.82481">
        <ele>144.3</ele>
        <time>2022-05-15T07:07:42Z</time>
      </trkpt>
      <trkpt lat="44.88707" lon="0.82464">
        <ele>142.9</ele>
        <time>2022-05-15T07:07:44Z</time>
      </trkpt>
      <trkpt lat="44.8871" lon="0.82454">
        <ele>142</ele>
        <time>2022-05-15T07:07:45Z</time>
      </trkpt>
      <trkpt lat="44.88713" lon="0.82443">
        <ele>141.1</ele>
        <time>2022-05-15T07:07:46Z</time>
      </trkpt>
      <trkpt lat="44.88719" lon="0.82419">
        <ele>139.2</ele>
        <time>2022-05-15T07:07:48Z</time>
      </trkpt>
      <trkpt lat="44.88722" lon="0.82394">
        <ele>137.7</ele>
        <time>2022-05-15T07:07:50Z</time>
      </trkpt>
      <trkpt lat="44.88728" lon="0.82372">
        <ele>136.7</ele>
        <time>2022-05-15T07:07:52Z</time>
      </trkpt>
      <trkpt lat="44.88734" lon="0.82352">
        <ele>136.4</ele>
        <time>2022-05-15T07:07:54Z</time>
      </trkpt>
      <trkpt lat="44.88737" lon="0.82346">
        <ele>136.7</ele>
        <time>2022-05-15T07:07:55Z</time>
      </trkpt>
      <trkpt lat="44.88735" lon="0.82332">
        <ele>136.9</ele>
        <time>2022-05-15T07:07:56Z</time>
      </trkpt>
      <trkpt lat="44.88741" lon="0.82319">
        <ele>137</ele>
        <time>2022-05-15T07:07:58Z</time>
      </trkpt>
      <trkpt lat="44.88747" lon="0.82308">
        <ele>137.1</ele>
        <time>2022-05-15T07:08:00Z</time>
      </trkpt>
      <trkpt lat="44.8875" lon="0.82303">
        <ele>137.1</ele>
        <time>2022-05-15T07:08:01Z</time>
      </trkpt>
      <trkpt lat="44.88754" lon="0.82298">
        <ele>137.1</ele>
        <time>2022-05-15T07:08:02Z</time>
      </trkpt>
      <trkpt lat="44.88761" lon="0.82297">
        <ele>137.1</ele>
        <time>2022-05-15T07:08:03Z</time>
      </trkpt>
      <trkpt lat="44.88764" lon="0.82291">
        <ele>137</ele>
        <time>2022-05-15T07:08:04Z</time>
      </trkpt>
      <trkpt lat="44.88771" lon="0.82281">
        <ele>137</ele>
        <time>2022-05-15T07:08:06Z</time>
      </trkpt>
      <trkpt lat="44.88775" lon="0.82275">
        <ele>137</ele>
        <time>2022-05-15T07:08:07Z</time>
      </trkpt>
      <trkpt lat="44.88779" lon="0.82269">
        <ele>137</ele>
        <time>2022-05-15T07:08:08Z</time>
      </trkpt>
      <trkpt lat="44.88782" lon="0.82264">
        <ele>137.1</ele>
        <time>2022-05-15T07:08:09Z</time>
      </trkpt>
      <trkpt lat="44.88786" lon="0.82258">
        <ele>137.1</ele>
        <time>2022-05-15T07:08:10Z</time>
      </trkpt>
      <trkpt lat="44.8879" lon="0.82252">
        <ele>137.2</ele>
        <time>2022-05-15T07:08:11Z</time>
      </trkpt>
      <trkpt lat="44.88794" lon="0.82246">
        <ele>137.4</ele>
        <time>2022-05-15T07:08:12Z</time>
      </trkpt>
      <trkpt lat="44.88798" lon="0.8224">
        <ele>137.6</ele>
        <time>2022-05-15T07:08:13Z</time>
      </trkpt>
      <trkpt lat="44.88803" lon="0.82234">
        <ele>137.8</ele>
        <time>2022-05-15T07:08:14Z</time>
      </trkpt>
      <trkpt lat="44.88811" lon="0.82226">
        <ele>138.2</ele>
        <time>2022-05-15T07:08:16Z</time>
      </trkpt>
      <trkpt lat="44.88816" lon="0.82221">
        <ele>138.4</ele>
        <time>2022-05-15T07:08:18Z</time>
      </trkpt>
      <trkpt lat="44.88821" lon="0.82216">
        <ele>138.7</ele>
        <time>2022-05-15T07:08:19Z</time>
      </trkpt>
      <trkpt lat="44.88825" lon="0.82211">
        <ele>139</ele>
        <time>2022-05-15T07:08:20Z</time>
      </trkpt>
      <trkpt lat="44.88833" lon="0.82201">
        <ele>139.6</ele>
        <time>2022-05-15T07:08:22Z</time>
      </trkpt>
      <trkpt lat="44.88836" lon="0.82196">
        <ele>139.9</ele>
        <time>2022-05-15T07:08:23Z</time>
      </trkpt>
      <trkpt lat="44.88838" lon="0.82192">
        <ele>140.1</ele>
        <time>2022-05-15T07:08:24Z</time>
      </trkpt>
      <trkpt lat="44.88843" lon="0.82183">
        <ele>140.7</ele>
        <time>2022-05-15T07:08:26Z</time>
      </trkpt>
      <trkpt lat="44.88848" lon="0.82175">
        <ele>141.2</ele>
        <time>2022-05-15T07:08:28Z</time>
      </trkpt>
      <trkpt lat="44.88854" lon="0.82169">
        <ele>141.7</ele>
        <time>2022-05-15T07:08:30Z</time>
      </trkpt>
      <trkpt lat="44.88859" lon="0.82165">
        <ele>141.9</ele>
        <time>2022-05-15T07:08:31Z</time>
      </trkpt>
      <trkpt lat="44.88863" lon="0.82163">
        <ele>142.2</ele>
        <time>2022-05-15T07:08:32Z</time>
      </trkpt>
      <trkpt lat="44.8887" lon="0.82158">
        <ele>142.5</ele>
        <time>2022-05-15T07:08:34Z</time>
      </trkpt>
      <trkpt lat="44.88876" lon="0.82153">
        <ele>142.8</ele>
        <time>2022-05-15T07:08:36Z</time>
      </trkpt>
      <trkpt lat="44.88882" lon="0.82146">
        <ele>143.2</ele>
        <time>2022-05-15T07:08:38Z</time>
      </trkpt>
      <trkpt lat="44.88887" lon="0.82141">
        <ele>143.5</ele>
        <time>2022-05-15T07:08:40Z</time>
      </trkpt>
      <trkpt lat="44.88892" lon="0.82136">
        <ele>143.8</ele>
        <time>2022-05-15T07:08:42Z</time>
      </trkpt>
      <trkpt lat="44.88893" lon="0.82135">
        <ele>144</ele>
        <time>2022-05-15T07:08:43Z</time>
      </trkpt>
      <trkpt lat="44.88895" lon="0.82133">
        <ele>144.1</ele>
        <time>2022-05-15T07:08:44Z</time>
      </trkpt>
      <trkpt lat="44.88896" lon="0.82132">
        <ele>144.2</ele>
        <time>2022-05-15T07:08:45Z</time>
      </trkpt>
      <trkpt lat="44.88899" lon="0.82128">
        <ele>144.5</ele>
        <time>2022-05-15T07:08:46Z</time>
      </trkpt>
      <trkpt lat="44.88905" lon="0.82123">
        <ele>144.9</ele>
        <time>2022-05-15T07:08:48Z</time>
      </trkpt>
      <trkpt lat="44.88912" lon="0.82116">
        <ele>145.6</ele>
        <time>2022-05-15T07:08:50Z</time>
      </trkpt>
      <trkpt lat="44.88915" lon="0.82113">
        <ele>145.9</ele>
        <time>2022-05-15T07:08:51Z</time>
      </trkpt>
      <trkpt lat="44.88916" lon="0.82112">
        <ele>146.1</ele>
        <time>2022-05-15T07:08:52Z</time>
      </trkpt>
      <trkpt lat="44.88918" lon="0.8211">
        <ele>146.2</ele>
        <time>2022-05-15T07:08:53Z</time>
      </trkpt>
      <trkpt lat="44.8892" lon="0.82108">
        <ele>146.5</ele>
        <time>2022-05-15T07:08:54Z</time>
      </trkpt>
      <trkpt lat="44.88923" lon="0.82106">
        <ele>146.7</ele>
        <time>2022-05-15T07:08:55Z</time>
      </trkpt>
      <trkpt lat="44.88925" lon="0.82103">
        <ele>147</ele>
        <time>2022-05-15T07:08:56Z</time>
      </trkpt>
      <trkpt lat="44.88927" lon="0.82101">
        <ele>147.2</ele>
        <time>2022-05-15T07:08:58Z</time>
      </trkpt>
      <trkpt lat="44.8893" lon="0.82099">
        <ele>147.5</ele>
        <time>2022-05-15T07:08:59Z</time>
      </trkpt>
      <trkpt lat="44.88932" lon="0.82097">
        <ele>147.7</ele>
        <time>2022-05-15T07:09:00Z</time>
      </trkpt>
      <trkpt lat="44.88935" lon="0.82094">
        <ele>148.1</ele>
        <time>2022-05-15T07:09:02Z</time>
      </trkpt>
      <trkpt lat="44.88938" lon="0.82091">
        <ele>148.4</ele>
        <time>2022-05-15T07:09:04Z</time>
      </trkpt>
      <trkpt lat="44.88942" lon="0.82088">
        <ele>148.9</ele>
        <time>2022-05-15T07:09:06Z</time>
      </trkpt>
      <trkpt lat="44.88944" lon="0.82087">
        <ele>149</ele>
        <time>2022-05-15T07:09:07Z</time>
      </trkpt>
      <trkpt lat="44.88947" lon="0.82086">
        <ele>149.2</ele>
        <time>2022-05-15T07:09:08Z</time>
      </trkpt>
      <trkpt lat="44.88954" lon="0.82082">
        <ele>149.7</ele>
        <time>2022-05-15T07:09:10Z</time>
      </trkpt>
      <trkpt lat="44.8896" lon="0.82079">
        <ele>149.9</ele>
        <time>2022-05-15T07:09:12Z</time>
      </trkpt>
      <trkpt lat="44.88964" lon="0.82077">
        <ele>150</ele>
        <time>2022-05-15T07:09:13Z</time>
      </trkpt>
      <trkpt lat="44.88967" lon="0.82075">
        <ele>150.1</ele>
        <time>2022-05-15T07:09:14Z</time>
      </trkpt>
      <trkpt lat="44.88975" lon="0.82072">
        <ele>150.1</ele>
        <time>2022-05-15T07:09:16Z</time>
      </trkpt>
      <trkpt lat="44.88985" lon="0.8207">
        <ele>149.9</ele>
        <time>2022-05-15T07:09:18Z</time>
      </trkpt>
      <trkpt lat="44.88996" lon="0.82066">
        <ele>149.6</ele>
        <time>2022-05-15T07:09:20Z</time>
      </trkpt>
      <trkpt lat="44.89004" lon="0.82058">
        <ele>149.2</ele>
        <time>2022-05-15T07:09:22Z</time>
      </trkpt>
      <trkpt lat="44.89009" lon="0.82057">
        <ele>148.9</ele>
        <time>2022-05-15T07:09:23Z</time>
      </trkpt>
      <trkpt lat="44.89014" lon="0.82055">
        <ele>148.6</ele>
        <time>2022-05-15T07:09:24Z</time>
      </trkpt>
      <trkpt lat="44.89025" lon="0.82051">
        <ele>147.7</ele>
        <time>2022-05-15T07:09:26Z</time>
      </trkpt>
      <trkpt lat="44.89032" lon="0.82049">
        <ele>147.2</ele>
        <time>2022-05-15T07:09:27Z</time>
      </trkpt>
      <trkpt lat="44.89038" lon="0.82048">
        <ele>146.7</ele>
        <time>2022-05-15T07:09:28Z</time>
      </trkpt>
      <trkpt lat="44.89054" lon="0.82045">
        <ele>145.2</ele>
        <time>2022-05-15T07:09:30Z</time>
      </trkpt>
      <trkpt lat="44.89062" lon="0.82042">
        <ele>144.4</ele>
        <time>2022-05-15T07:09:31Z</time>
      </trkpt>
      <trkpt lat="44.8907" lon="0.82039">
        <ele>143.8</ele>
        <time>2022-05-15T07:09:32Z</time>
      </trkpt>
      <trkpt lat="44.89076" lon="0.82037">
        <ele>143.3</ele>
        <time>2022-05-15T07:09:33Z</time>
      </trkpt>
      <trkpt lat="44.89083" lon="0.82036">
        <ele>142.7</ele>
        <time>2022-05-15T07:09:34Z</time>
      </trkpt>
      <trkpt lat="44.89089" lon="0.8204">
        <ele>142.2</ele>
        <time>2022-05-15T07:09:35Z</time>
      </trkpt>
      <trkpt lat="44.89093" lon="0.82043">
        <ele>141.9</ele>
        <time>2022-05-15T07:09:36Z</time>
      </trkpt>
      <trkpt lat="44.89096" lon="0.82043">
        <ele>141.6</ele>
        <time>2022-05-15T07:09:37Z</time>
      </trkpt>
      <trkpt lat="44.89102" lon="0.82042">
        <ele>141</ele>
        <time>2022-05-15T07:09:38Z</time>
      </trkpt>
      <trkpt lat="44.89109" lon="0.82041">
        <ele>140.3</ele>
        <time>2022-05-15T07:09:39Z</time>
      </trkpt>
      <trkpt lat="44.89117" lon="0.82039">
        <ele>139.4</ele>
        <time>2022-05-15T07:09:40Z</time>
      </trkpt>
      <trkpt lat="44.89134" lon="0.82033">
        <ele>137.3</ele>
        <time>2022-05-15T07:09:42Z</time>
      </trkpt>
      <trkpt lat="44.89143" lon="0.8203">
        <ele>136.2</ele>
        <time>2022-05-15T07:09:43Z</time>
      </trkpt>
      <trkpt lat="44.89153" lon="0.82025">
        <ele>134.9</ele>
        <time>2022-05-15T07:09:44Z</time>
      </trkpt>
      <trkpt lat="44.8917" lon="0.82014">
        <ele>132.6</ele>
        <time>2022-05-15T07:09:46Z</time>
      </trkpt>
      <trkpt lat="44.89185" lon="0.82005">
        <ele>130.6</ele>
        <time>2022-05-15T07:09:48Z</time>
      </trkpt>
      <trkpt lat="44.89199" lon="0.81991">
        <ele>128.7</ele>
        <time>2022-05-15T07:09:50Z</time>
      </trkpt>
      <trkpt lat="44.89211" lon="0.81977">
        <ele>127.1</ele>
        <time>2022-05-15T07:09:52Z</time>
      </trkpt>
      <trkpt lat="44.89216" lon="0.81973">
        <ele>126.5</ele>
        <time>2022-05-15T07:09:53Z</time>
      </trkpt>
      <trkpt lat="44.89221" lon="0.81968">
        <ele>125.9</ele>
        <time>2022-05-15T07:09:54Z</time>
      </trkpt>
      <trkpt lat="44.89227" lon="0.81965">
        <ele>125.3</ele>
        <time>2022-05-15T07:09:55Z</time>
      </trkpt>
      <trkpt lat="44.89233" lon="0.81963">
        <ele>124.7</ele>
        <time>2022-05-15T07:09:56Z</time>
      </trkpt>
      <trkpt lat="44.89244" lon="0.81958">
        <ele>123.5</ele>
        <time>2022-05-15T07:09:58Z</time>
      </trkpt>
      <trkpt lat="44.89255" lon="0.8195">
        <ele>122.3</ele>
        <time>2022-05-15T07:10:00Z</time>
      </trkpt>
      <trkpt lat="44.89262" lon="0.81945">
        <ele>121.7</ele>
        <time>2022-05-15T07:10:01Z</time>
      </trkpt>
      <trkpt lat="44.8927" lon="0.81939">
        <ele>121</ele>
        <time>2022-05-15T07:10:02Z</time>
      </trkpt>
      <trkpt lat="44.89284" lon="0.81928">
        <ele>120</ele>
        <time>2022-05-15T07:10:04Z</time>
      </trkpt>
      <trkpt lat="44.89301" lon="0.81915">
        <ele>119.2</ele>
        <time>2022-05-15T07:10:06Z</time>
      </trkpt>
      <trkpt lat="44.89317" lon="0.81903">
        <ele>118.6</ele>
        <time>2022-05-15T07:10:08Z</time>
      </trkpt>
      <trkpt lat="44.89332" lon="0.81891">
        <ele>118.5</ele>
        <time>2022-05-15T07:10:10Z</time>
      </trkpt>
      <trkpt lat="44.89345" lon="0.81879">
        <ele>118.5</ele>
        <time>2022-05-15T07:10:12Z</time>
      </trkpt>
      <trkpt lat="44.89357" lon="0.81869">
        <ele>118.7</ele>
        <time>2022-05-15T07:10:14Z</time>
      </trkpt>
      <trkpt lat="44.89362" lon="0.81865">
        <ele>118.9</ele>
        <time>2022-05-15T07:10:15Z</time>
      </trkpt>
      <trkpt lat="44.89366" lon="0.81861">
        <ele>119.1</ele>
        <time>2022-05-15T07:10:16Z</time>
      </trkpt>
      <trkpt lat="44.89375" lon="0.81854">
        <ele>119.7</ele>
        <time>2022-05-15T07:10:18Z</time>
      </trkpt>
      <trkpt lat="44.89382" lon="0.81848">
        <ele>120.2</ele>
        <time>2022-05-15T07:10:20Z</time>
      </trkpt>
      <trkpt lat="44.89388" lon="0.81843">
        <ele>120.7</ele>
        <time>2022-05-15T07:10:22Z</time>
      </trkpt>
      <trkpt lat="44.89394" lon="0.81838">
        <ele>121.3</ele>
        <time>2022-05-15T07:10:24Z</time>
      </trkpt>
      <trkpt lat="44.89399" lon="0.81834">
        <ele>121.9</ele>
        <time>2022-05-15T07:10:26Z</time>
      </trkpt>
      <trkpt lat="44.89404" lon="0.81831">
        <ele>122.5</ele>
        <time>2022-05-15T07:10:28Z</time>
      </trkpt>
      <trkpt lat="44.89409" lon="0.81827">
        <ele>123</ele>
        <time>2022-05-15T07:10:30Z</time>
      </trkpt>
      <trkpt lat="44.89413" lon="0.81824">
        <ele>123.4</ele>
        <time>2022-05-15T07:10:32Z</time>
      </trkpt>
      <trkpt lat="44.89415" lon="0.81822">
        <ele>123.6</ele>
        <time>2022-05-15T07:10:33Z</time>
      </trkpt>
      <trkpt lat="44.89417" lon="0.8182">
        <ele>123.8</ele>
        <time>2022-05-15T07:10:34Z</time>
      </trkpt>
      <trkpt lat="44.89421" lon="0.81816">
        <ele>124.2</ele>
        <time>2022-05-15T07:10:36Z</time>
      </trkpt>
      <trkpt lat="44.89425" lon="0.81811">
        <ele>124.6</ele>
        <time>2022-05-15T07:10:38Z</time>
      </trkpt>
      <trkpt lat="44.8943" lon="0.81806">
        <ele>125</ele>
        <time>2022-05-15T07:10:40Z</time>
      </trkpt>
      <trkpt lat="44.89435" lon="0.81801">
        <ele>125.4</ele>
        <time>2022-05-15T07:10:42Z</time>
      </trkpt>
      <trkpt lat="44.8944" lon="0.81796">
        <ele>125.8</ele>
        <time>2022-05-15T07:10:44Z</time>
      </trkpt>
      <trkpt lat="44.89445" lon="0.81792">
        <ele>126.1</ele>
        <time>2022-05-15T07:10:46Z</time>
      </trkpt>
      <trkpt lat="44.8945" lon="0.81788">
        <ele>126.3</ele>
        <time>2022-05-15T07:10:48Z</time>
      </trkpt>
      <trkpt lat="44.89452" lon="0.81786">
        <ele>126.4</ele>
        <time>2022-05-15T07:10:49Z</time>
      </trkpt>
      <trkpt lat="44.89455" lon="0.81784">
        <ele>126.5</ele>
        <time>2022-05-15T07:10:50Z</time>
      </trkpt>
      <trkpt lat="44.89459" lon="0.81781">
        <ele>126.8</ele>
        <time>2022-05-15T07:10:52Z</time>
      </trkpt>
      <trkpt lat="44.89464" lon="0.81777">
        <ele>127</ele>
        <time>2022-05-15T07:10:54Z</time>
      </trkpt>
      <trkpt lat="44.89468" lon="0.81773">
        <ele>127.2</ele>
        <time>2022-05-15T07:10:56Z</time>
      </trkpt>
      <trkpt lat="44.8947" lon="0.81772">
        <ele>127.3</ele>
        <time>2022-05-15T07:10:57Z</time>
      </trkpt>
      <trkpt lat="44.89472" lon="0.8177">
        <ele>127.4</ele>
        <time>2022-05-15T07:10:58Z</time>
      </trkpt>
      <trkpt lat="44.89475" lon="0.81768">
        <ele>127.5</ele>
        <time>2022-05-15T07:10:59Z</time>
      </trkpt>
      <trkpt lat="44.89477" lon="0.81766">
        <ele>127.7</ele>
        <time>2022-05-15T07:11:00Z</time>
      </trkpt>
      <trkpt lat="44.89481" lon="0.81763">
        <ele>127.9</ele>
        <time>2022-05-15T07:11:02Z</time>
      </trkpt>
      <trkpt lat="44.89485" lon="0.8176">
        <ele>128.2</ele>
        <time>2022-05-15T07:11:04Z</time>
      </trkpt>
      <trkpt lat="44.89488" lon="0.81757">
        <ele>128.6</ele>
        <time>2022-05-15T07:11:06Z</time>
      </trkpt>
      <trkpt lat="44.89491" lon="0.81755">
        <ele>128.8</ele>
        <time>2022-05-15T07:11:08Z</time>
      </trkpt>
      <trkpt lat="44.89492" lon="0.81754">
        <ele>129</ele>
        <time>2022-05-15T07:11:10Z</time>
      </trkpt>
      <trkpt lat="44.89496" lon="0.81751">
        <ele>129.4</ele>
        <time>2022-05-15T07:11:12Z</time>
      </trkpt>
      <trkpt lat="44.89499" lon="0.81748">
        <ele>129.8</ele>
        <time>2022-05-15T07:11:14Z</time>
      </trkpt>
      <trkpt lat="44.89502" lon="0.81746">
        <ele>130.1</ele>
        <time>2022-05-15T07:11:15Z</time>
      </trkpt>
      <trkpt lat="44.89502" lon="0.81746">
        <ele>130.1</ele>
        <time>2022-05-15T07:11:16Z</time>
      </trkpt>
      <trkpt lat="44.89509" lon="0.81742">
        <ele>130.9</ele>
        <time>2022-05-15T07:11:18Z</time>
      </trkpt>
      <trkpt lat="44.89512" lon="0.8174">
        <ele>131.4</ele>
        <time>2022-05-15T07:11:19Z</time>
      </trkpt>
      <trkpt lat="44.89515" lon="0.81738">
        <ele>131.7</ele>
        <time>2022-05-15T07:11:20Z</time>
      </trkpt>
      <trkpt lat="44.8952" lon="0.81733">
        <ele>132.2</ele>
        <time>2022-05-15T07:11:22Z</time>
      </trkpt>
      <trkpt lat="44.89524" lon="0.81727">
        <ele>132.7</ele>
        <time>2022-05-15T07:11:24Z</time>
      </trkpt>
      <trkpt lat="44.89527" lon="0.81722">
        <ele>133</ele>
        <time>2022-05-15T07:11:26Z</time>
      </trkpt>
      <trkpt lat="44.8953" lon="0.81716">
        <ele>133.2</ele>
        <time>2022-05-15T07:11:28Z</time>
      </trkpt>
      <trkpt lat="44.89533" lon="0.8171">
        <ele>133.4</ele>
        <time>2022-05-15T07:11:30Z</time>
      </trkpt>
      <trkpt lat="44.89537" lon="0.81704">
        <ele>133.6</ele>
        <time>2022-05-15T07:11:32Z</time>
      </trkpt>
      <trkpt lat="44.89539" lon="0.817">
        <ele>133.7</ele>
        <time>2022-05-15T07:11:33Z</time>
      </trkpt>
      <trkpt lat="44.89541" lon="0.81698">
        <ele>133.7</ele>
        <time>2022-05-15T07:11:34Z</time>
      </trkpt>
      <trkpt lat="44.89546" lon="0.81692">
        <ele>133.6</ele>
        <time>2022-05-15T07:11:36Z</time>
      </trkpt>
      <trkpt lat="44.8955" lon="0.81687">
        <ele>133.5</ele>
        <time>2022-05-15T07:11:38Z</time>
      </trkpt>
      <trkpt lat="44.89556" lon="0.81679">
        <ele>133.3</ele>
        <time>2022-05-15T07:11:40Z</time>
      </trkpt>
      <trkpt lat="44.89564" lon="0.81669">
        <ele>132.9</ele>
        <time>2022-05-15T07:11:42Z</time>
      </trkpt>
      <trkpt lat="44.89573" lon="0.81656">
        <ele>132.2</ele>
        <time>2022-05-15T07:11:44Z</time>
      </trkpt>
      <trkpt lat="44.89581" lon="0.81644">
        <ele>131.2</ele>
        <time>2022-05-15T07:11:46Z</time>
      </trkpt>
      <trkpt lat="44.89585" lon="0.81639">
        <ele>130.6</ele>
        <time>2022-05-15T07:11:47Z</time>
      </trkpt>
      <trkpt lat="44.89589" lon="0.81634">
        <ele>130.1</ele>
        <time>2022-05-15T07:11:48Z</time>
      </trkpt>
      <trkpt lat="44.89592" lon="0.8163">
        <ele>129.6</ele>
        <time>2022-05-15T07:11:49Z</time>
      </trkpt>
      <trkpt lat="44.89594" lon="0.81626">
        <ele>129.2</ele>
        <time>2022-05-15T07:11:50Z</time>
      </trkpt>
      <trkpt lat="44.89597" lon="0.81622">
        <ele>128.7</ele>
        <time>2022-05-15T07:11:51Z</time>
      </trkpt>
      <trkpt lat="44.896" lon="0.81618">
        <ele>128.2</ele>
        <time>2022-05-15T07:11:52Z</time>
      </trkpt>
      <trkpt lat="44.89607" lon="0.81609">
        <ele>127</ele>
        <time>2022-05-15T07:11:54Z</time>
      </trkpt>
      <trkpt lat="44.89611" lon="0.81604">
        <ele>126.4</ele>
        <time>2022-05-15T07:11:55Z</time>
      </trkpt>
      <trkpt lat="44.89614" lon="0.81598">
        <ele>125.7</ele>
        <time>2022-05-15T07:11:56Z</time>
      </trkpt>
      <trkpt lat="44.89622" lon="0.81587">
        <ele>124.3</ele>
        <time>2022-05-15T07:11:58Z</time>
      </trkpt>
      <trkpt lat="44.8963" lon="0.81576">
        <ele>122.9</ele>
        <time>2022-05-15T07:12:00Z</time>
      </trkpt>
      <trkpt lat="44.89633" lon="0.81571">
        <ele>122.3</ele>
        <time>2022-05-15T07:12:01Z</time>
      </trkpt>
      <trkpt lat="44.89636" lon="0.81567">
        <ele>121.7</ele>
        <time>2022-05-15T07:12:02Z</time>
      </trkpt>
      <trkpt lat="44.89642" lon="0.81556">
        <ele>120.5</ele>
        <time>2022-05-15T07:12:04Z</time>
      </trkpt>
      <trkpt lat="44.89645" lon="0.81548">
        <ele>119.5</ele>
        <time>2022-05-15T07:12:06Z</time>
      </trkpt>
      <trkpt lat="44.89648" lon="0.8154">
        <ele>118.6</ele>
        <time>2022-05-15T07:12:08Z</time>
      </trkpt>
      <trkpt lat="44.8965" lon="0.81536">
        <ele>118.2</ele>
        <time>2022-05-15T07:12:09Z</time>
      </trkpt>
      <trkpt lat="44.89651" lon="0.81532">
        <ele>117.8</ele>
        <time>2022-05-15T07:12:10Z</time>
      </trkpt>
      <trkpt lat="44.89654" lon="0.81524">
        <ele>117</ele>
        <time>2022-05-15T07:12:12Z</time>
      </trkpt>
      <trkpt lat="44.89659" lon="0.81513">
        <ele>115.9</ele>
        <time>2022-05-15T07:12:14Z</time>
      </trkpt>
      <trkpt lat="44.89664" lon="0.81502">
        <ele>115.5</ele>
        <time>2022-05-15T07:12:16Z</time>
      </trkpt>
      <trkpt lat="44.89666" lon="0.81496">
        <ele>115.3</ele>
        <time>2022-05-15T07:12:18Z</time>
      </trkpt>
      <trkpt lat="44.89669" lon="0.81493">
        <ele>115.2</ele>
        <time>2022-05-15T07:12:20Z</time>
      </trkpt>
      <trkpt lat="44.89674" lon="0.81487">
        <ele>115.2</ele>
        <time>2022-05-15T07:12:21Z</time>
      </trkpt>
      <trkpt lat="44.89677" lon="0.81483">
        <ele>115.3</ele>
        <time>2022-05-15T07:12:22Z</time>
      </trkpt>
      <trkpt lat="44.89681" lon="0.81479">
        <ele>115.5</ele>
        <time>2022-05-15T07:12:24Z</time>
      </trkpt>
      <trkpt lat="44.8969" lon="0.81466">
        <ele>116.6</ele>
        <time>2022-05-15T07:12:26Z</time>
      </trkpt>
      <trkpt lat="44.89695" lon="0.81459">
        <ele>117.4</ele>
        <time>2022-05-15T07:12:28Z</time>
      </trkpt>
      <trkpt lat="44.89696" lon="0.81456">
        <ele>117.7</ele>
        <time>2022-05-15T07:12:29Z</time>
      </trkpt>
      <trkpt lat="44.89698" lon="0.81453">
        <ele>118.1</ele>
        <time>2022-05-15T07:12:30Z</time>
      </trkpt>
      <trkpt lat="44.89698" lon="0.81453">
        <ele>118.1</ele>
        <time>2022-05-15T07:12:31Z</time>
      </trkpt>
      <trkpt lat="44.89699" lon="0.8145">
        <ele>118.4</ele>
        <time>2022-05-15T07:12:32Z</time>
      </trkpt>
      <trkpt lat="44.89699" lon="0.81446">
        <ele>118.8</ele>
        <time>2022-05-15T07:12:33Z</time>
      </trkpt>
      <trkpt lat="44.897" lon="0.81442">
        <ele>119.1</ele>
        <time>2022-05-15T07:12:34Z</time>
      </trkpt>
      <trkpt lat="44.897" lon="0.81439">
        <ele>119.4</ele>
        <time>2022-05-15T07:12:35Z</time>
      </trkpt>
      <trkpt lat="44.89698" lon="0.81434">
        <ele>119.9</ele>
        <time>2022-05-15T07:12:36Z</time>
      </trkpt>
      <trkpt lat="44.89696" lon="0.8143">
        <ele>120.3</ele>
        <time>2022-05-15T07:12:37Z</time>
      </trkpt>
      <trkpt lat="44.89695" lon="0.81427">
        <ele>120.6</ele>
        <time>2022-05-15T07:12:38Z</time>
      </trkpt>
      <trkpt lat="44.89692" lon="0.8142">
        <ele>121.2</ele>
        <time>2022-05-15T07:12:40Z</time>
      </trkpt>
      <trkpt lat="44.89691" lon="0.81417">
        <ele>121.4</ele>
        <time>2022-05-15T07:12:41Z</time>
      </trkpt>
      <trkpt lat="44.8969" lon="0.81412">
        <ele>121.8</ele>
        <time>2022-05-15T07:12:42Z</time>
      </trkpt>
      <trkpt lat="44.8969" lon="0.81404">
        <ele>122.4</ele>
        <time>2022-05-15T07:12:44Z</time>
      </trkpt>
      <trkpt lat="44.89691" lon="0.81401">
        <ele>122.6</ele>
        <time>2022-05-15T07:12:45Z</time>
      </trkpt>
      <trkpt lat="44.89691" lon="0.81399">
        <ele>122.8</ele>
        <time>2022-05-15T07:12:46Z</time>
      </trkpt>
      <trkpt lat="44.89692" lon="0.81396">
        <ele>123</ele>
        <time>2022-05-15T07:12:47Z</time>
      </trkpt>
      <trkpt lat="44.89692" lon="0.81393">
        <ele>123.2</ele>
        <time>2022-05-15T07:12:48Z</time>
      </trkpt>
      <trkpt lat="44.89696" lon="0.81389">
        <ele>123.8</ele>
        <time>2022-05-15T07:12:50Z</time>
      </trkpt>
      <trkpt lat="44.897" lon="0.81386">
        <ele>124.3</ele>
        <time>2022-05-15T07:12:52Z</time>
      </trkpt>
      <trkpt lat="44.89703" lon="0.81383">
        <ele>124.7</ele>
        <time>2022-05-15T07:12:54Z</time>
      </trkpt>
      <trkpt lat="44.89706" lon="0.8138">
        <ele>125.1</ele>
        <time>2022-05-15T07:12:56Z</time>
      </trkpt>
      <trkpt lat="44.89708" lon="0.81379">
        <ele>125.3</ele>
        <time>2022-05-15T07:12:57Z</time>
      </trkpt>
      <trkpt lat="44.8971" lon="0.81377">
        <ele>125.6</ele>
        <time>2022-05-15T07:12:58Z</time>
      </trkpt>
      <trkpt lat="44.89713" lon="0.81372">
        <ele>126</ele>
        <time>2022-05-15T07:13:00Z</time>
      </trkpt>
      <trkpt lat="44.89715" lon="0.81368">
        <ele>126.4</ele>
        <time>2022-05-15T07:13:02Z</time>
      </trkpt>
      <trkpt lat="44.89716" lon="0.81366">
        <ele>126.6</ele>
        <time>2022-05-15T07:13:03Z</time>
      </trkpt>
      <trkpt lat="44.89716" lon="0.81364">
        <ele>126.8</ele>
        <time>2022-05-15T07:13:04Z</time>
      </trkpt>
      <trkpt lat="44.89718" lon="0.8136">
        <ele>127.2</ele>
        <time>2022-05-15T07:13:06Z</time>
      </trkpt>
      <trkpt lat="44.89719" lon="0.81358">
        <ele>127.3</ele>
        <time>2022-05-15T07:13:07Z</time>
      </trkpt>
      <trkpt lat="44.8972" lon="0.81356">
        <ele>127.5</ele>
        <time>2022-05-15T07:13:08Z</time>
      </trkpt>
      <trkpt lat="44.89722" lon="0.81352">
        <ele>127.9</ele>
        <time>2022-05-15T07:13:10Z</time>
      </trkpt>
      <trkpt lat="44.89724" lon="0.81348">
        <ele>128.2</ele>
        <time>2022-05-15T07:13:12Z</time>
      </trkpt>
      <trkpt lat="44.89725" lon="0.81344">
        <ele>128.6</ele>
        <time>2022-05-15T07:13:14Z</time>
      </trkpt>
      <trkpt lat="44.89726" lon="0.81342">
        <ele>128.7</ele>
        <time>2022-05-15T07:13:15Z</time>
      </trkpt>
      <trkpt lat="44.89727" lon="0.8134">
        <ele>128.9</ele>
        <time>2022-05-15T07:13:16Z</time>
      </trkpt>
      <trkpt lat="44.89729" lon="0.81336">
        <ele>129.3</ele>
        <time>2022-05-15T07:13:18Z</time>
      </trkpt>
      <trkpt lat="44.89729" lon="0.81335">
        <ele>129.5</ele>
        <time>2022-05-15T07:13:19Z</time>
      </trkpt>
      <trkpt lat="44.8973" lon="0.81332">
        <ele>129.7</ele>
        <time>2022-05-15T07:13:20Z</time>
      </trkpt>
      <trkpt lat="44.89732" lon="0.81329">
        <ele>130</ele>
        <time>2022-05-15T07:13:22Z</time>
      </trkpt>
      <trkpt lat="44.89733" lon="0.81324">
        <ele>130.5</ele>
        <time>2022-05-15T07:13:24Z</time>
      </trkpt>
      <trkpt lat="44.89733" lon="0.81322">
        <ele>130.7</ele>
        <time>2022-05-15T07:13:25Z</time>
      </trkpt>
      <trkpt lat="44.89733" lon="0.8132">
        <ele>130.9</ele>
        <time>2022-05-15T07:13:26Z</time>
      </trkpt>
      <trkpt lat="44.89733" lon="0.81317">
        <ele>131.1</ele>
        <time>2022-05-15T07:13:27Z</time>
      </trkpt>
      <trkpt lat="44.89733" lon="0.81315">
        <ele>131.3</ele>
        <time>2022-05-15T07:13:28Z</time>
      </trkpt>
      <trkpt lat="44.89734" lon="0.81311">
        <ele>131.7</ele>
        <time>2022-05-15T07:13:30Z</time>
      </trkpt>
      <trkpt lat="44.89734" lon="0.81306">
        <ele>132.1</ele>
        <time>2022-05-15T07:13:32Z</time>
      </trkpt>
      <trkpt lat="44.89734" lon="0.81305">
        <ele>132.3</ele>
        <time>2022-05-15T07:13:33Z</time>
      </trkpt>
      <trkpt lat="44.89734" lon="0.81303">
        <ele>132.4</ele>
        <time>2022-05-15T07:13:34Z</time>
      </trkpt>
      <trkpt lat="44.89734" lon="0.813">
        <ele>132.7</ele>
        <time>2022-05-15T07:13:36Z</time>
      </trkpt>
      <trkpt lat="44.89735" lon="0.81296">
        <ele>133.1</ele>
        <time>2022-05-15T07:13:38Z</time>
      </trkpt>
      <trkpt lat="44.89734" lon="0.81293">
        <ele>133.5</ele>
        <time>2022-05-15T07:13:40Z</time>
      </trkpt>
      <trkpt lat="44.89734" lon="0.81288">
        <ele>134</ele>
        <time>2022-05-15T07:13:42Z</time>
      </trkpt>
      <trkpt lat="44.89733" lon="0.81285">
        <ele>134.2</ele>
        <time>2022-05-15T07:13:43Z</time>
      </trkpt>
      <trkpt lat="44.89733" lon="0.81283">
        <ele>134.5</ele>
        <time>2022-05-15T07:13:44Z</time>
      </trkpt>
      <trkpt lat="44.89732" lon="0.81279">
        <ele>134.9</ele>
        <time>2022-05-15T07:13:46Z</time>
      </trkpt>
      <trkpt lat="44.89732" lon="0.81274">
        <ele>135.3</ele>
        <time>2022-05-15T07:13:48Z</time>
      </trkpt>
      <trkpt lat="44.89732" lon="0.81273">
        <ele>135.5</ele>
        <time>2022-05-15T07:13:49Z</time>
      </trkpt>
      <trkpt lat="44.89731" lon="0.8127">
        <ele>135.8</ele>
        <time>2022-05-15T07:13:50Z</time>
      </trkpt>
      <trkpt lat="44.89731" lon="0.81268">
        <ele>136.1</ele>
        <time>2022-05-15T07:13:52Z</time>
      </trkpt>
      <trkpt lat="44.8973" lon="0.81264">
        <ele>136.5</ele>
        <time>2022-05-15T07:13:53Z</time>
      </trkpt>
      <trkpt lat="44.8973" lon="0.81261">
        <ele>136.7</ele>
        <time>2022-05-15T07:13:54Z</time>
      </trkpt>
      <trkpt lat="44.8973" lon="0.81257">
        <ele>137.2</ele>
        <time>2022-05-15T07:13:56Z</time>
      </trkpt>
      <trkpt lat="44.89729" lon="0.81254">
        <ele>137.5</ele>
        <time>2022-05-15T07:13:58Z</time>
      </trkpt>
      <trkpt lat="44.89729" lon="0.81252">
        <ele>137.8</ele>
        <time>2022-05-15T07:14:00Z</time>
      </trkpt>
      <trkpt lat="44.89728" lon="0.81247">
        <ele>138.3</ele>
        <time>2022-05-15T07:14:02Z</time>
      </trkpt>
      <trkpt lat="44.89728" lon="0.81245">
        <ele>138.4</ele>
        <time>2022-05-15T07:14:03Z</time>
      </trkpt>
      <trkpt lat="44.89727" lon="0.81244">
        <ele>138.6</ele>
        <time>2022-05-15T07:14:04Z</time>
      </trkpt>
      <trkpt lat="44.89727" lon="0.81242">
        <ele>138.8</ele>
        <time>2022-05-15T07:14:05Z</time>
      </trkpt>
      <trkpt lat="44.89727" lon="0.81241">
        <ele>138.9</ele>
        <time>2022-05-15T07:14:06Z</time>
      </trkpt>
      <trkpt lat="44.89726" lon="0.81237">
        <ele>139.3</ele>
        <time>2022-05-15T07:14:08Z</time>
      </trkpt>
      <trkpt lat="44.89725" lon="0.81233">
        <ele>139.6</ele>
        <time>2022-05-15T07:14:10Z</time>
      </trkpt>
      <trkpt lat="44.89724" lon="0.8123">
        <ele>140</ele>
        <time>2022-05-15T07:14:12Z</time>
      </trkpt>
      <trkpt lat="44.89724" lon="0.81228">
        <ele>140.2</ele>
        <time>2022-05-15T07:14:13Z</time>
      </trkpt>
      <trkpt lat="44.89723" lon="0.81226">
        <ele>140.3</ele>
        <time>2022-05-15T07:14:14Z</time>
      </trkpt>
      <trkpt lat="44.89722" lon="0.81222">
        <ele>140.7</ele>
        <time>2022-05-15T07:14:16Z</time>
      </trkpt>
      <trkpt lat="44.89721" lon="0.81219">
        <ele>141</ele>
        <time>2022-05-15T07:14:18Z</time>
      </trkpt>
      <trkpt lat="44.89721" lon="0.81217">
        <ele>141.1</ele>
        <time>2022-05-15T07:14:19Z</time>
      </trkpt>
      <trkpt lat="44.89721" lon="0.81216">
        <ele>141.2</ele>
        <time>2022-05-15T07:14:20Z</time>
      </trkpt>
      <trkpt lat="44.8972" lon="0.81212">
        <ele>141.6</ele>
        <time>2022-05-15T07:14:22Z</time>
      </trkpt>
      <trkpt lat="44.89719" lon="0.81208">
        <ele>142</ele>
        <time>2022-05-15T07:14:24Z</time>
      </trkpt>
      <trkpt lat="44.89718" lon="0.81204">
        <ele>142.3</ele>
        <time>2022-05-15T07:14:26Z</time>
      </trkpt>
      <trkpt lat="44.89717" lon="0.81203">
        <ele>142.4</ele>
        <time>2022-05-15T07:14:27Z</time>
      </trkpt>
      <trkpt lat="44.89717" lon="0.81203">
        <ele>142.4</ele>
        <time>2022-05-15T07:14:28Z</time>
      </trkpt>
      <trkpt lat="44.89717" lon="0.812">
        <ele>142.7</ele>
        <time>2022-05-15T07:14:29Z</time>
      </trkpt>
      <trkpt lat="44.89716" lon="0.81199">
        <ele>142.8</ele>
        <time>2022-05-15T07:14:30Z</time>
      </trkpt>
      <trkpt lat="44.89716" lon="0.81195">
        <ele>143.2</ele>
        <time>2022-05-15T07:14:32Z</time>
      </trkpt>
      <trkpt lat="44.89715" lon="0.81191">
        <ele>143.5</ele>
        <time>2022-05-15T07:14:34Z</time>
      </trkpt>
      <trkpt lat="44.89714" lon="0.81187">
        <ele>143.9</ele>
        <time>2022-05-15T07:14:36Z</time>
      </trkpt>
      <trkpt lat="44.89712" lon="0.81182">
        <ele>144.4</ele>
        <time>2022-05-15T07:14:38Z</time>
      </trkpt>
      <trkpt lat="44.89712" lon="0.8118">
        <ele>144.5</ele>
        <time>2022-05-15T07:14:39Z</time>
      </trkpt>
      <trkpt lat="44.89711" lon="0.81178">
        <ele>144.7</ele>
        <time>2022-05-15T07:14:40Z</time>
      </trkpt>
      <trkpt lat="44.8971" lon="0.81173">
        <ele>145.1</ele>
        <time>2022-05-15T07:14:42Z</time>
      </trkpt>
      <trkpt lat="44.8971" lon="0.81168">
        <ele>145.5</ele>
        <time>2022-05-15T07:14:44Z</time>
      </trkpt>
      <trkpt lat="44.89709" lon="0.81166">
        <ele>145.7</ele>
        <time>2022-05-15T07:14:45Z</time>
      </trkpt>
      <trkpt lat="44.89709" lon="0.81164">
        <ele>145.8</ele>
        <time>2022-05-15T07:14:46Z</time>
      </trkpt>
      <trkpt lat="44.89708" lon="0.8116">
        <ele>146.1</ele>
        <time>2022-05-15T07:14:48Z</time>
      </trkpt>
      <trkpt lat="44.89708" lon="0.81158">
        <ele>146.3</ele>
        <time>2022-05-15T07:14:49Z</time>
      </trkpt>
      <trkpt lat="44.89707" lon="0.81155">
        <ele>146.5</ele>
        <time>2022-05-15T07:14:50Z</time>
      </trkpt>
      <trkpt lat="44.89707" lon="0.81153">
        <ele>146.6</ele>
        <time>2022-05-15T07:14:52Z</time>
      </trkpt>
      <trkpt lat="44.89708" lon="0.81147">
        <ele>147</ele>
        <time>2022-05-15T07:14:53Z</time>
      </trkpt>
      <trkpt lat="44.89708" lon="0.81145">
        <ele>147.1</ele>
        <time>2022-05-15T07:14:54Z</time>
      </trkpt>
      <trkpt lat="44.89709" lon="0.81144">
        <ele>147.2</ele>
        <time>2022-05-15T07:14:55Z</time>
      </trkpt>
      <trkpt lat="44.89709" lon="0.81142">
        <ele>147.3</ele>
        <time>2022-05-15T07:14:56Z</time>
      </trkpt>
      <trkpt lat="44.8971" lon="0.81137">
        <ele>147.6</ele>
        <time>2022-05-15T07:14:58Z</time>
      </trkpt>
      <trkpt lat="44.8971" lon="0.81134">
        <ele>147.7</ele>
        <time>2022-05-15T07:14:59Z</time>
      </trkpt>
      <trkpt lat="44.89711" lon="0.81132">
        <ele>147.8</ele>
        <time>2022-05-15T07:15:00Z</time>
      </trkpt>
      <trkpt lat="44.8971" lon="0.81125">
        <ele>148.1</ele>
        <time>2022-05-15T07:15:02Z</time>
      </trkpt>
      <trkpt lat="44.8971" lon="0.81122">
        <ele>148.3</ele>
        <time>2022-05-15T07:15:03Z</time>
      </trkpt>
      <trkpt lat="44.89709" lon="0.81119">
        <ele>148.4</ele>
        <time>2022-05-15T07:15:04Z</time>
      </trkpt>
      <trkpt lat="44.89708" lon="0.81112">
        <ele>148.6</ele>
        <time>2022-05-15T07:15:06Z</time>
      </trkpt>
      <trkpt lat="44.89706" lon="0.81105">
        <ele>148.8</ele>
        <time>2022-05-15T07:15:08Z</time>
      </trkpt>
      <trkpt lat="44.89705" lon="0.81098">
        <ele>149</ele>
        <time>2022-05-15T07:15:10Z</time>
      </trkpt>
      <trkpt lat="44.89704" lon="0.81092">
        <ele>149.1</ele>
        <time>2022-05-15T07:15:12Z</time>
      </trkpt>
      <trkpt lat="44.89703" lon="0.81089">
        <ele>149.2</ele>
        <time>2022-05-15T07:15:13Z</time>
      </trkpt>
      <trkpt lat="44.89703" lon="0.81086">
        <ele>149.2</ele>
        <time>2022-05-15T07:15:14Z</time>
      </trkpt>
      <trkpt lat="44.89703" lon="0.81077">
        <ele>149.4</ele>
        <time>2022-05-15T07:15:16Z</time>
      </trkpt>
      <trkpt lat="44.89703" lon="0.81069">
        <ele>149.6</ele>
        <time>2022-05-15T07:15:18Z</time>
      </trkpt>
      <trkpt lat="44.89704" lon="0.8106">
        <ele>149.8</ele>
        <time>2022-05-15T07:15:20Z</time>
      </trkpt>
      <trkpt lat="44.89704" lon="0.81056">
        <ele>149.9</ele>
        <time>2022-05-15T07:15:21Z</time>
      </trkpt>
      <trkpt lat="44.89704" lon="0.81052">
        <ele>150</ele>
        <time>2022-05-15T07:15:22Z</time>
      </trkpt>
      <trkpt lat="44.89706" lon="0.81043">
        <ele>150.3</ele>
        <time>2022-05-15T07:15:24Z</time>
      </trkpt>
      <trkpt lat="44.89709" lon="0.81037">
        <ele>150.5</ele>
        <time>2022-05-15T07:15:26Z</time>
      </trkpt>
      <trkpt lat="44.89712" lon="0.81035">
        <ele>150.7</ele>
        <time>2022-05-15T07:15:27Z</time>
      </trkpt>
      <trkpt lat="44.89714" lon="0.81034">
        <ele>150.8</ele>
        <time>2022-05-15T07:15:28Z</time>
      </trkpt>
      <trkpt lat="44.89717" lon="0.81031">
        <ele>151</ele>
        <time>2022-05-15T07:15:30Z</time>
      </trkpt>
      <trkpt lat="44.89718" lon="0.8103">
        <ele>151.1</ele>
        <time>2022-05-15T07:15:32Z</time>
      </trkpt>
      <trkpt lat="44.89721" lon="0.81028">
        <ele>151.3</ele>
        <time>2022-05-15T07:15:34Z</time>
      </trkpt>
      <trkpt lat="44.89726" lon="0.81025">
        <ele>151.7</ele>
        <time>2022-05-15T07:15:36Z</time>
      </trkpt>
      <trkpt lat="44.8973" lon="0.81022">
        <ele>152.1</ele>
        <time>2022-05-15T07:15:38Z</time>
      </trkpt>
      <trkpt lat="44.89733" lon="0.81019">
        <ele>152.3</ele>
        <time>2022-05-15T07:15:39Z</time>
      </trkpt>
      <trkpt lat="44.89735" lon="0.81017">
        <ele>152.5</ele>
        <time>2022-05-15T07:15:40Z</time>
      </trkpt>
      <trkpt lat="44.89738" lon="0.81012">
        <ele>153</ele>
        <time>2022-05-15T07:15:42Z</time>
      </trkpt>
      <trkpt lat="44.89739" lon="0.81009">
        <ele>153.2</ele>
        <time>2022-05-15T07:15:44Z</time>
      </trkpt>
      <trkpt lat="44.89741" lon="0.81007">
        <ele>153.4</ele>
        <time>2022-05-15T07:15:45Z</time>
      </trkpt>
      <trkpt lat="44.89743" lon="0.81004">
        <ele>153.6</ele>
        <time>2022-05-15T07:15:46Z</time>
      </trkpt>
      <trkpt lat="44.89746" lon="0.80999">
        <ele>154</ele>
        <time>2022-05-15T07:15:48Z</time>
      </trkpt>
      <trkpt lat="44.8975" lon="0.80994">
        <ele>154.5</ele>
        <time>2022-05-15T07:15:50Z</time>
      </trkpt>
      <trkpt lat="44.89751" lon="0.80991">
        <ele>154.6</ele>
        <time>2022-05-15T07:15:51Z</time>
      </trkpt>
      <trkpt lat="44.89752" lon="0.8099">
        <ele>154.8</ele>
        <time>2022-05-15T07:15:52Z</time>
      </trkpt>
      <trkpt lat="44.89754" lon="0.80987">
        <ele>155</ele>
        <time>2022-05-15T07:15:54Z</time>
      </trkpt>
      <trkpt lat="44.89757" lon="0.80983">
        <ele>155.3</ele>
        <time>2022-05-15T07:15:56Z</time>
      </trkpt>
      <trkpt lat="44.8976" lon="0.80978">
        <ele>155.7</ele>
        <time>2022-05-15T07:15:58Z</time>
      </trkpt>
      <trkpt lat="44.89763" lon="0.80974">
        <ele>156</ele>
        <time>2022-05-15T07:16:00Z</time>
      </trkpt>
      <trkpt lat="44.89765" lon="0.8097">
        <ele>156.4</ele>
        <time>2022-05-15T07:16:02Z</time>
      </trkpt>
      <trkpt lat="44.89768" lon="0.80966">
        <ele>156.7</ele>
        <time>2022-05-15T07:16:04Z</time>
      </trkpt>
      <trkpt lat="44.89769" lon="0.80964">
        <ele>156.8</ele>
        <time>2022-05-15T07:16:05Z</time>
      </trkpt>
      <trkpt lat="44.8977" lon="0.80962">
        <ele>157</ele>
        <time>2022-05-15T07:16:06Z</time>
      </trkpt>
      <trkpt lat="44.8977" lon="0.80961">
        <ele>157.1</ele>
        <time>2022-05-15T07:16:07Z</time>
      </trkpt>
      <trkpt lat="44.89771" lon="0.80959">
        <ele>157.2</ele>
        <time>2022-05-15T07:16:08Z</time>
      </trkpt>
      <trkpt lat="44.89773" lon="0.80955">
        <ele>157.5</ele>
        <time>2022-05-15T07:16:10Z</time>
      </trkpt>
      <trkpt lat="44.89774" lon="0.80951">
        <ele>157.8</ele>
        <time>2022-05-15T07:16:12Z</time>
      </trkpt>
      <trkpt lat="44.89776" lon="0.80946">
        <ele>158.2</ele>
        <time>2022-05-15T07:16:14Z</time>
      </trkpt>
      <trkpt lat="44.89778" lon="0.80942">
        <ele>158.5</ele>
        <time>2022-05-15T07:16:16Z</time>
      </trkpt>
      <trkpt lat="44.89781" lon="0.8094">
        <ele>158.8</ele>
        <time>2022-05-15T07:16:18Z</time>
      </trkpt>
      <trkpt lat="44.89783" lon="0.80939">
        <ele>159</ele>
        <time>2022-05-15T07:16:19Z</time>
      </trkpt>
      <trkpt lat="44.89785" lon="0.80937">
        <ele>159.2</ele>
        <time>2022-05-15T07:16:20Z</time>
      </trkpt>
      <trkpt lat="44.89788" lon="0.80934">
        <ele>159.5</ele>
        <time>2022-05-15T07:16:22Z</time>
      </trkpt>
      <trkpt lat="44.8979" lon="0.80931">
        <ele>159.8</ele>
        <time>2022-05-15T07:16:24Z</time>
      </trkpt>
      <trkpt lat="44.89792" lon="0.80928">
        <ele>160</ele>
        <time>2022-05-15T07:16:25Z</time>
      </trkpt>
      <trkpt lat="44.89792" lon="0.80928">
        <ele>160</ele>
        <time>2022-05-15T07:16:26Z</time>
      </trkpt>
      <trkpt lat="44.89795" lon="0.80923">
        <ele>160.4</ele>
        <time>2022-05-15T07:16:28Z</time>
      </trkpt>
      <trkpt lat="44.89799" lon="0.80921">
        <ele>160.7</ele>
        <time>2022-05-15T07:16:30Z</time>
      </trkpt>
      <trkpt lat="44.89804" lon="0.80919">
        <ele>165.8</ele>
        <time>2022-05-15T07:16:32Z</time>
      </trkpt>
      <trkpt lat="44.89808" lon="0.80917">
        <ele>165.4</ele>
        <time>2022-05-15T07:16:33Z</time>
      </trkpt>
      <trkpt lat="44.89812" lon="0.80915">
        <ele>165</ele>
        <time>2022-05-15T07:16:34Z</time>
      </trkpt>
      <trkpt lat="44.89817" lon="0.80913">
        <ele>164.6</ele>
        <time>2022-05-15T07:16:35Z</time>
      </trkpt>
      <trkpt lat="44.89821" lon="0.80911">
        <ele>164.1</ele>
        <time>2022-05-15T07:16:36Z</time>
      </trkpt>
      <trkpt lat="44.89826" lon="0.80909">
        <ele>163.5</ele>
        <time>2022-05-15T07:16:38Z</time>
      </trkpt>
      <trkpt lat="44.89827" lon="0.80907">
        <ele>163.3</ele>
        <time>2022-05-15T07:16:39Z</time>
      </trkpt>
      <trkpt lat="44.8983" lon="0.80904">
        <ele>162.9</ele>
        <time>2022-05-15T07:16:40Z</time>
      </trkpt>
      <trkpt lat="44.89832" lon="0.80901">
        <ele>162.4</ele>
        <time>2022-05-15T07:16:41Z</time>
      </trkpt>
      <trkpt lat="44.89835" lon="0.80898">
        <ele>161.9</ele>
        <time>2022-05-15T07:16:42Z</time>
      </trkpt>
      <trkpt lat="44.89838" lon="0.80895">
        <ele>161.4</ele>
        <time>2022-05-15T07:16:43Z</time>
      </trkpt>
      <trkpt lat="44.89841" lon="0.80894">
        <ele>161</ele>
        <time>2022-05-15T07:16:44Z</time>
      </trkpt>
      <trkpt lat="44.89847" lon="0.8089">
        <ele>160.2</ele>
        <time>2022-05-15T07:16:46Z</time>
      </trkpt>
      <trkpt lat="44.89852" lon="0.80886">
        <ele>159.3</ele>
        <time>2022-05-15T07:16:48Z</time>
      </trkpt>
      <trkpt lat="44.89855" lon="0.80884">
        <ele>158.9</ele>
        <time>2022-05-15T07:16:49Z</time>
      </trkpt>
      <trkpt lat="44.89857" lon="0.80881">
        <ele>158.6</ele>
        <time>2022-05-15T07:16:50Z</time>
      </trkpt>
      <trkpt lat="44.89861" lon="0.80869">
        <ele>157.5</ele>
        <time>2022-05-15T07:16:52Z</time>
      </trkpt>
      <trkpt lat="44.89863" lon="0.80869">
        <ele>157.3</ele>
        <time>2022-05-15T07:16:53Z</time>
      </trkpt>
      <trkpt lat="44.89866" lon="0.80869">
        <ele>157</ele>
        <time>2022-05-15T07:16:54Z</time>
      </trkpt>
      <trkpt lat="44.89873" lon="0.80868">
        <ele>156.4</ele>
        <time>2022-05-15T07:16:56Z</time>
      </trkpt>
      <trkpt lat="44.89877" lon="0.80867">
        <ele>156.1</ele>
        <time>2022-05-15T07:16:57Z</time>
      </trkpt>
      <trkpt lat="44.89882" lon="0.80865">
        <ele>155.8</ele>
        <time>2022-05-15T07:16:58Z</time>
      </trkpt>
      <trkpt lat="44.89891" lon="0.8086">
        <ele>155.2</ele>
        <time>2022-05-15T07:17:00Z</time>
      </trkpt>
      <trkpt lat="44.89896" lon="0.80858">
        <ele>154.9</ele>
        <time>2022-05-15T07:17:01Z</time>
      </trkpt>
      <trkpt lat="44.899" lon="0.80855">
        <ele>154.7</ele>
        <time>2022-05-15T07:17:02Z</time>
      </trkpt>
      <trkpt lat="44.89908" lon="0.80849">
        <ele>154.1</ele>
        <time>2022-05-15T07:17:04Z</time>
      </trkpt>
      <trkpt lat="44.89916" lon="0.80845">
        <ele>153.6</ele>
        <time>2022-05-15T07:17:06Z</time>
      </trkpt>
      <trkpt lat="44.89923" lon="0.80842">
        <ele>153</ele>
        <time>2022-05-15T07:17:08Z</time>
      </trkpt>
      <trkpt lat="44.89931" lon="0.8084">
        <ele>152.3</ele>
        <time>2022-05-15T07:17:10Z</time>
      </trkpt>
      <trkpt lat="44.89942" lon="0.8084">
        <ele>151.3</ele>
        <time>2022-05-15T07:17:12Z</time>
      </trkpt>
      <trkpt lat="44.89954" lon="0.8084">
        <ele>150.1</ele>
        <time>2022-05-15T07:17:14Z</time>
      </trkpt>
      <trkpt lat="44.89967" lon="0.8084">
        <ele>148.7</ele>
        <time>2022-05-15T07:17:16Z</time>
      </trkpt>
      <trkpt lat="44.89973" lon="0.8084">
        <ele>148</ele>
        <time>2022-05-15T07:17:17Z</time>
      </trkpt>
      <trkpt lat="44.8998" lon="0.80841">
        <ele>147.4</ele>
        <time>2022-05-15T07:17:18Z</time>
      </trkpt>
      <trkpt lat="44.89986" lon="0.80842">
        <ele>146.6</ele>
        <time>2022-05-15T07:17:19Z</time>
      </trkpt>
      <trkpt lat="44.89993" lon="0.80843">
        <ele>145.9</ele>
        <time>2022-05-15T07:17:20Z</time>
      </trkpt>
      <trkpt lat="44.9" lon="0.80844">
        <ele>145.1</ele>
        <time>2022-05-15T07:17:21Z</time>
      </trkpt>
      <trkpt lat="44.90005" lon="0.80848">
        <ele>144.4</ele>
        <time>2022-05-15T07:17:22Z</time>
      </trkpt>
      <trkpt lat="44.90019" lon="0.80856">
        <ele>142.8</ele>
        <time>2022-05-15T07:17:24Z</time>
      </trkpt>
      <trkpt lat="44.90027" lon="0.8086">
        <ele>142</ele>
        <time>2022-05-15T07:17:25Z</time>
      </trkpt>
      <trkpt lat="44.90035" lon="0.80864">
        <ele>141.4</ele>
        <time>2022-05-15T07:17:26Z</time>
      </trkpt>
      <trkpt lat="44.90049" lon="0.80864">
        <ele>140.1</ele>
        <time>2022-05-15T07:17:28Z</time>
      </trkpt>
      <trkpt lat="44.90066" lon="0.80868">
        <ele>138.4</ele>
        <time>2022-05-15T07:17:30Z</time>
      </trkpt>
      <trkpt lat="44.90082" lon="0.80875">
        <ele>136.7</ele>
        <time>2022-05-15T07:17:32Z</time>
      </trkpt>
      <trkpt lat="44.90097" lon="0.8088">
        <ele>135.2</ele>
        <time>2022-05-15T07:17:34Z</time>
      </trkpt>
      <trkpt lat="44.90106" lon="0.8088">
        <ele>134.4</ele>
        <time>2022-05-15T07:17:35Z</time>
      </trkpt>
      <trkpt lat="44.90114" lon="0.80879">
        <ele>133.7</ele>
        <time>2022-05-15T07:17:36Z</time>
      </trkpt>
      <trkpt lat="44.90132" lon="0.80868">
        <ele>132</ele>
        <time>2022-05-15T07:17:38Z</time>
      </trkpt>
      <trkpt lat="44.90141" lon="0.80862">
        <ele>130.9</ele>
        <time>2022-05-15T07:17:39Z</time>
      </trkpt>
      <trkpt lat="44.9015" lon="0.80854">
        <ele>129.8</ele>
        <time>2022-05-15T07:17:40Z</time>
      </trkpt>
      <trkpt lat="44.90168" lon="0.80837">
        <ele>127.4</ele>
        <time>2022-05-15T07:17:42Z</time>
      </trkpt>
      <trkpt lat="44.90178" lon="0.80828">
        <ele>126.2</ele>
        <time>2022-05-15T07:17:43Z</time>
      </trkpt>
      <trkpt lat="44.90188" lon="0.80819">
        <ele>125.1</ele>
        <time>2022-05-15T07:17:44Z</time>
      </trkpt>
      <trkpt lat="44.90209" lon="0.80799">
        <ele>123.1</ele>
        <time>2022-05-15T07:17:46Z</time>
      </trkpt>
      <trkpt lat="44.9022" lon="0.80792">
        <ele>122</ele>
        <time>2022-05-15T07:17:47Z</time>
      </trkpt>
      <trkpt lat="44.90231" lon="0.80787">
        <ele>121</ele>
        <time>2022-05-15T07:17:48Z</time>
      </trkpt>
      <trkpt lat="44.90242" lon="0.80782">
        <ele>120.1</ele>
        <time>2022-05-15T07:17:49Z</time>
      </trkpt>
      <trkpt lat="44.90252" lon="0.80777">
        <ele>119.2</ele>
        <time>2022-05-15T07:17:50Z</time>
      </trkpt>
      <trkpt lat="44.90263" lon="0.80773">
        <ele>118.2</ele>
        <time>2022-05-15T07:17:51Z</time>
      </trkpt>
      <trkpt lat="44.90275" lon="0.80772">
        <ele>117</ele>
        <time>2022-05-15T07:17:52Z</time>
      </trkpt>
      <trkpt lat="44.90287" lon="0.80771">
        <ele>115.8</ele>
        <time>2022-05-15T07:17:53Z</time>
      </trkpt>
      <trkpt lat="44.90298" lon="0.8077">
        <ele>114.5</ele>
        <time>2022-05-15T07:17:54Z</time>
      </trkpt>
      <trkpt lat="44.90322" lon="0.80771">
        <ele>112.2</ele>
        <time>2022-05-15T07:17:56Z</time>
      </trkpt>
      <trkpt lat="44.90334" lon="0.80772">
        <ele>111.2</ele>
        <time>2022-05-15T07:17:57Z</time>
      </trkpt>
      <trkpt lat="44.90346" lon="0.80774">
        <ele>110.2</ele>
        <time>2022-05-15T07:17:58Z</time>
      </trkpt>
      <trkpt lat="44.90368" lon="0.80778">
        <ele>107.5</ele>
        <time>2022-05-15T07:18:00Z</time>
      </trkpt>
      <trkpt lat="44.9038" lon="0.8078">
        <ele>106.2</ele>
        <time>2022-05-15T07:18:01Z</time>
      </trkpt>
      <trkpt lat="44.90391" lon="0.8078">
        <ele>105.5</ele>
        <time>2022-05-15T07:18:02Z</time>
      </trkpt>
      <trkpt lat="44.90413" lon="0.80777">
        <ele>105</ele>
        <time>2022-05-15T07:18:04Z</time>
      </trkpt>
      <trkpt lat="44.90428" lon="0.80776">
        <ele>105.2</ele>
        <time>2022-05-15T07:18:06Z</time>
      </trkpt>
      <trkpt lat="44.90433" lon="0.80777">
        <ele>105.4</ele>
        <time>2022-05-15T07:18:07Z</time>
      </trkpt>
      <trkpt lat="44.90439" lon="0.80771">
        <ele>105.8</ele>
        <time>2022-05-15T07:18:08Z</time>
      </trkpt>
      <trkpt lat="44.90439" lon="0.80762">
        <ele>106.2</ele>
        <time>2022-05-15T07:18:10Z</time>
      </trkpt>
      <trkpt lat="44.9044" lon="0.80755">
        <ele>106.5</ele>
        <time>2022-05-15T07:18:12Z</time>
      </trkpt>
      <trkpt lat="44.9044" lon="0.80747">
        <ele>106.8</ele>
        <time>2022-05-15T07:18:14Z</time>
      </trkpt>
      <trkpt lat="44.9044" lon="0.80742">
        <ele>107</ele>
        <time>2022-05-15T07:18:15Z</time>
      </trkpt>
      <trkpt lat="44.90441" lon="0.80738">
        <ele>107.2</ele>
        <time>2022-05-15T07:18:16Z</time>
      </trkpt>
      <trkpt lat="44.90441" lon="0.80729">
        <ele>107.6</ele>
        <time>2022-05-15T07:18:18Z</time>
      </trkpt>
      <trkpt lat="44.90441" lon="0.8072">
        <ele>107.8</ele>
        <time>2022-05-15T07:18:20Z</time>
      </trkpt>
      <trkpt lat="44.90442" lon="0.80711">
        <ele>108</ele>
        <time>2022-05-15T07:18:22Z</time>
      </trkpt>
      <trkpt lat="44.90442" lon="0.80701">
        <ele>108.2</ele>
        <time>2022-05-15T07:18:24Z</time>
      </trkpt>
      <trkpt lat="44.90443" lon="0.80692">
        <ele>108.1</ele>
        <time>2022-05-15T07:18:26Z</time>
      </trkpt>
      <trkpt lat="44.9044" lon="0.80685">
        <ele>108</ele>
        <time>2022-05-15T07:18:27Z</time>
      </trkpt>
      <trkpt lat="44.90438" lon="0.8068">
        <ele>108</ele>
        <time>2022-05-15T07:18:28Z</time>
      </trkpt>
      <trkpt lat="44.90434" lon="0.80672">
        <ele>107.9</ele>
        <time>2022-05-15T07:18:30Z</time>
      </trkpt>
      <trkpt lat="44.90429" lon="0.80663">
        <ele>108</ele>
        <time>2022-05-15T07:18:32Z</time>
      </trkpt>
      <trkpt lat="44.90424" lon="0.80654">
        <ele>108.1</ele>
        <time>2022-05-15T07:18:34Z</time>
      </trkpt>
      <trkpt lat="44.9042" lon="0.80645">
        <ele>108.2</ele>
        <time>2022-05-15T07:18:36Z</time>
      </trkpt>
      <trkpt lat="44.90415" lon="0.80636">
        <ele>108.2</ele>
        <time>2022-05-15T07:18:38Z</time>
      </trkpt>
      <trkpt lat="44.90413" lon="0.80631">
        <ele>108.3</ele>
        <time>2022-05-15T07:18:39Z</time>
      </trkpt>
      <trkpt lat="44.90411" lon="0.80627">
        <ele>108.3</ele>
        <time>2022-05-15T07:18:40Z</time>
      </trkpt>
      <trkpt lat="44.90406" lon="0.80617">
        <ele>108.3</ele>
        <time>2022-05-15T07:18:42Z</time>
      </trkpt>
      <trkpt lat="44.90401" lon="0.80609">
        <ele>108.4</ele>
        <time>2022-05-15T07:18:44Z</time>
      </trkpt>
      <trkpt lat="44.90395" lon="0.806">
        <ele>108.8</ele>
        <time>2022-05-15T07:18:46Z</time>
      </trkpt>
      <trkpt lat="44.90389" lon="0.80592">
        <ele>109.4</ele>
        <time>2022-05-15T07:18:48Z</time>
      </trkpt>
      <trkpt lat="44.90384" lon="0.80584">
        <ele>110</ele>
        <time>2022-05-15T07:18:50Z</time>
      </trkpt>
      <trkpt lat="44.90381" lon="0.8058">
        <ele>110.4</ele>
        <time>2022-05-15T07:18:51Z</time>
      </trkpt>
      <trkpt lat="44.90378" lon="0.80574">
        <ele>111</ele>
        <time>2022-05-15T07:18:52Z</time>
      </trkpt>
      <trkpt lat="44.90376" lon="0.80564">
        <ele>111.8</ele>
        <time>2022-05-15T07:18:54Z</time>
      </trkpt>
      <trkpt lat="44.90374" lon="0.80556">
        <ele>112.4</ele>
        <time>2022-05-15T07:18:56Z</time>
      </trkpt>
      <trkpt lat="44.90373" lon="0.80552">
        <ele>112.6</ele>
        <time>2022-05-15T07:18:57Z</time>
      </trkpt>
      <trkpt lat="44.90372" lon="0.80548">
        <ele>112.8</ele>
        <time>2022-05-15T07:18:58Z</time>
      </trkpt>
      <trkpt lat="44.9037" lon="0.80541">
        <ele>113.2</ele>
        <time>2022-05-15T07:19:00Z</time>
      </trkpt>
      <trkpt lat="44.90367" lon="0.80535">
        <ele>113.3</ele>
        <time>2022-05-15T07:19:01Z</time>
      </trkpt>
      <trkpt lat="44.90364" lon="0.8053">
        <ele>113.2</ele>
        <time>2022-05-15T07:19:02Z</time>
      </trkpt>
      <trkpt lat="44.90362" lon="0.80526">
        <ele>113.5</ele>
        <time>2022-05-15T07:19:04Z</time>
      </trkpt>
      <trkpt lat="44.90359" lon="0.80521">
        <ele>113.4</ele>
        <time>2022-05-15T07:19:06Z</time>
      </trkpt>
      <trkpt lat="44.90356" lon="0.80516">
        <ele>113.4</ele>
        <time>2022-05-15T07:19:08Z</time>
      </trkpt>
      <trkpt lat="44.90353" lon="0.80512">
        <ele>113.9</ele>
        <time>2022-05-15T07:19:10Z</time>
      </trkpt>
      <trkpt lat="44.90351" lon="0.80507">
        <ele>114</ele>
        <time>2022-05-15T07:19:12Z</time>
      </trkpt>
      <trkpt lat="44.90349" lon="0.80503">
        <ele>114</ele>
        <time>2022-05-15T07:19:14Z</time>
      </trkpt>
      <trkpt lat="44.90346" lon="0.805">
        <ele>113.9</ele>
        <time>2022-05-15T07:19:16Z</time>
      </trkpt>
      <trkpt lat="44.90343" lon="0.80496">
        <ele>114.6</ele>
        <time>2022-05-15T07:19:18Z</time>
      </trkpt>
      <trkpt lat="44.9034" lon="0.80492">
        <ele>114.6</ele>
        <time>2022-05-15T07:19:20Z</time>
      </trkpt>
      <trkpt lat="44.90338" lon="0.8049">
        <ele>114.6</ele>
        <time>2022-05-15T07:19:22Z</time>
      </trkpt>
      <trkpt lat="44.90336" lon="0.80486">
        <ele>114.5</ele>
        <time>2022-05-15T07:19:24Z</time>
      </trkpt>
      <trkpt lat="44.90334" lon="0.80482">
        <ele>114.5</ele>
        <time>2022-05-15T07:19:26Z</time>
      </trkpt>
      <trkpt lat="44.90331" lon="0.80478">
        <ele>114.5</ele>
        <time>2022-05-15T07:19:28Z</time>
      </trkpt>
      <trkpt lat="44.9033" lon="0.80476">
        <ele>115.6</ele>
        <time>2022-05-15T07:19:29Z</time>
      </trkpt>
      <trkpt lat="44.90329" lon="0.80474">
        <ele>115.7</ele>
        <time>2022-05-15T07:19:30Z</time>
      </trkpt>
      <trkpt lat="44.90327" lon="0.8047">
        <ele>115.6</ele>
        <time>2022-05-15T07:19:32Z</time>
      </trkpt>
      <trkpt lat="44.90325" lon="0.80466">
        <ele>115.6</ele>
        <time>2022-05-15T07:19:34Z</time>
      </trkpt>
      <trkpt lat="44.90324" lon="0.80462">
        <ele>115.6</ele>
        <time>2022-05-15T07:19:36Z</time>
      </trkpt>
      <trkpt lat="44.90323" lon="0.80458">
        <ele>115.5</ele>
        <time>2022-05-15T07:19:38Z</time>
      </trkpt>
      <trkpt lat="44.90321" lon="0.80454">
        <ele>115.3</ele>
        <time>2022-05-15T07:19:40Z</time>
      </trkpt>
      <trkpt lat="44.9032" lon="0.80451">
        <ele>115.3</ele>
        <time>2022-05-15T07:19:42Z</time>
      </trkpt>
      <trkpt lat="44.90319" lon="0.80449">
        <ele>115.3</ele>
        <time>2022-05-15T07:19:44Z</time>
      </trkpt>
      <trkpt lat="44.90318" lon="0.80447">
        <ele>116.8</ele>
        <time>2022-05-15T07:19:46Z</time>
      </trkpt>
      <trkpt lat="44.90318" lon="0.80447">
        <ele>116.7</ele>
        <time>2022-05-15T07:19:47Z</time>
      </trkpt>
      <trkpt lat="44.90325" lon="0.8045">
        <ele>115.2</ele>
        <time>2022-05-15T07:19:59Z</time>
      </trkpt>
      <trkpt lat="44.90327" lon="0.80447">
        <ele>115.2</ele>
        <time>2022-05-15T07:20:00Z</time>
      </trkpt>
      <trkpt lat="44.90327" lon="0.80441">
        <ele>115.1</ele>
        <time>2022-05-15T07:20:02Z</time>
      </trkpt>
      <trkpt lat="44.90327" lon="0.80438">
        <ele>114.8</ele>
        <time>2022-05-15T07:20:03Z</time>
      </trkpt>
      <trkpt lat="44.90327" lon="0.80436">
        <ele>114.8</ele>
        <time>2022-05-15T07:20:04Z</time>
      </trkpt>
      <trkpt lat="44.90326" lon="0.80434">
        <ele>114.8</ele>
        <time>2022-05-15T07:20:05Z</time>
      </trkpt>
      <trkpt lat="44.90325" lon="0.80432">
        <ele>114.8</ele>
        <time>2022-05-15T07:20:06Z</time>
      </trkpt>
      <trkpt lat="44.90321" lon="0.80429">
        <ele>114.7</ele>
        <time>2022-05-15T07:20:08Z</time>
      </trkpt>
      <trkpt lat="44.90319" lon="0.80427">
        <ele>114.7</ele>
        <time>2022-05-15T07:20:10Z</time>
      </trkpt>
      <trkpt lat="44.90317" lon="0.80423">
        <ele>116.7</ele>
        <time>2022-05-15T07:20:12Z</time>
      </trkpt>
      <trkpt lat="44.90316" lon="0.80419">
        <ele>116.6</ele>
        <time>2022-05-15T07:20:14Z</time>
      </trkpt>
      <trkpt lat="44.90316" lon="0.80417">
        <ele>116.6</ele>
        <time>2022-05-15T07:20:15Z</time>
      </trkpt>
      <trkpt lat="44.90315" lon="0.80415">
        <ele>116.6</ele>
        <time>2022-05-15T07:20:16Z</time>
      </trkpt>
      <trkpt lat="44.90314" lon="0.80414">
        <ele>116.6</ele>
        <time>2022-05-15T07:20:18Z</time>
      </trkpt>
      <trkpt lat="44.90313" lon="0.80412">
        <ele>116.5</ele>
        <time>2022-05-15T07:20:19Z</time>
      </trkpt>
      <trkpt lat="44.90311" lon="0.80409">
        <ele>116.5</ele>
        <time>2022-05-15T07:20:20Z</time>
      </trkpt>
      <trkpt lat="44.90309" lon="0.80403">
        <ele>116.9</ele>
        <time>2022-05-15T07:20:22Z</time>
      </trkpt>
      <trkpt lat="44.90307" lon="0.80399">
        <ele>116.9</ele>
        <time>2022-05-15T07:20:24Z</time>
      </trkpt>
      <trkpt lat="44.90307" lon="0.80397">
        <ele>116.9</ele>
        <time>2022-05-15T07:20:25Z</time>
      </trkpt>
      <trkpt lat="44.90308" lon="0.80395">
        <ele>116.9</ele>
        <time>2022-05-15T07:20:26Z</time>
      </trkpt>
      <trkpt lat="44.90307" lon="0.80391">
        <ele>116.8</ele>
        <time>2022-05-15T07:20:28Z</time>
      </trkpt>
      <trkpt lat="44.90306" lon="0.80387">
        <ele>119.7</ele>
        <time>2022-05-15T07:20:29Z</time>
      </trkpt>
      <trkpt lat="44.90305" lon="0.80386">
        <ele>119.6</ele>
        <time>2022-05-15T07:20:30Z</time>
      </trkpt>
      <trkpt lat="44.90304" lon="0.80385">
        <ele>119.6</ele>
        <time>2022-05-15T07:20:31Z</time>
      </trkpt>
      <trkpt lat="44.90302" lon="0.80384">
        <ele>119.6</ele>
        <time>2022-05-15T07:20:32Z</time>
      </trkpt>
      <trkpt lat="44.903" lon="0.80382">
        <ele>119.6</ele>
        <time>2022-05-15T07:20:34Z</time>
      </trkpt>
      <trkpt lat="44.90297" lon="0.8038">
        <ele>119.5</ele>
        <time>2022-05-15T07:20:36Z</time>
      </trkpt>
      <trkpt lat="44.90294" lon="0.80377">
        <ele>121.5</ele>
        <time>2022-05-15T07:20:38Z</time>
      </trkpt>
      <trkpt lat="44.90292" lon="0.80375">
        <ele>121.5</ele>
        <time>2022-05-15T07:20:40Z</time>
      </trkpt>
      <trkpt lat="44.9029" lon="0.80371">
        <ele>122</ele>
        <time>2022-05-15T07:20:42Z</time>
      </trkpt>
      <trkpt lat="44.9029" lon="0.80369">
        <ele>122</ele>
        <time>2022-05-15T07:20:43Z</time>
      </trkpt>
      <trkpt lat="44.90289" lon="0.80368">
        <ele>122</ele>
        <time>2022-05-15T07:20:44Z</time>
      </trkpt>
      <trkpt lat="44.90288" lon="0.80365">
        <ele>121.9</ele>
        <time>2022-05-15T07:20:46Z</time>
      </trkpt>
      <trkpt lat="44.90287" lon="0.80364">
        <ele>121.9</ele>
        <time>2022-05-15T07:20:47Z</time>
      </trkpt>
      <trkpt lat="44.90286" lon="0.80363">
        <ele>121.9</ele>
        <time>2022-05-15T07:20:48Z</time>
      </trkpt>
      <trkpt lat="44.90286" lon="0.8036">
        <ele>121.8</ele>
        <time>2022-05-15T07:20:50Z</time>
      </trkpt>
      <trkpt lat="44.90284" lon="0.80358">
        <ele>121.8</ele>
        <time>2022-05-15T07:20:52Z</time>
      </trkpt>
      <trkpt lat="44.90284" lon="0.80356">
        <ele>121.8</ele>
        <time>2022-05-15T07:20:53Z</time>
      </trkpt>
      <trkpt lat="44.90283" lon="0.80354">
        <ele>122.4</ele>
        <time>2022-05-15T07:20:54Z</time>
      </trkpt>
      <trkpt lat="44.90282" lon="0.80351">
        <ele>124.7</ele>
        <time>2022-05-15T07:20:56Z</time>
      </trkpt>
      <trkpt lat="44.90281" lon="0.80349">
        <ele>124.7</ele>
        <time>2022-05-15T07:20:58Z</time>
      </trkpt>
      <trkpt lat="44.90281" lon="0.80347">
        <ele>124.6</ele>
        <time>2022-05-15T07:20:59Z</time>
      </trkpt>
      <trkpt lat="44.90281" lon="0.80345">
        <ele>124.6</ele>
        <time>2022-05-15T07:21:00Z</time>
      </trkpt>
      <trkpt lat="44.90279" lon="0.80342">
        <ele>124.6</ele>
        <time>2022-05-15T07:21:02Z</time>
      </trkpt>
      <trkpt lat="44.90279" lon="0.80338">
        <ele>124.5</ele>
        <time>2022-05-15T07:21:04Z</time>
      </trkpt>
      <trkpt lat="44.90278" lon="0.80337">
        <ele>125.2</ele>
        <time>2022-05-15T07:21:05Z</time>
      </trkpt>
      <trkpt lat="44.90277" lon="0.80335">
        <ele>125.2</ele>
        <time>2022-05-15T07:21:06Z</time>
      </trkpt>
      <trkpt lat="44.90275" lon="0.80333">
        <ele>125.2</ele>
        <time>2022-05-15T07:21:08Z</time>
      </trkpt>
      <trkpt lat="44.90274" lon="0.8033">
        <ele>125.1</ele>
        <time>2022-05-15T07:21:10Z</time>
      </trkpt>
      <trkpt lat="44.90274" lon="0.80325">
        <ele>125.1</ele>
        <time>2022-05-15T07:21:12Z</time>
      </trkpt>
      <trkpt lat="44.90272" lon="0.80322">
        <ele>125.1</ele>
        <time>2022-05-15T07:21:14Z</time>
      </trkpt>
      <trkpt lat="44.90272" lon="0.8032">
        <ele>125.9</ele>
        <time>2022-05-15T07:21:16Z</time>
      </trkpt>
      <trkpt lat="44.90271" lon="0.80317">
        <ele>125.9</ele>
        <time>2022-05-15T07:21:18Z</time>
      </trkpt>
      <trkpt lat="44.9027" lon="0.80315">
        <ele>125.9</ele>
        <time>2022-05-15T07:21:20Z</time>
      </trkpt>
      <trkpt lat="44.9027" lon="0.80311">
        <ele>125.8</ele>
        <time>2022-05-15T07:21:22Z</time>
      </trkpt>
      <trkpt lat="44.9027" lon="0.80308">
        <ele>125.8</ele>
        <time>2022-05-15T07:21:24Z</time>
      </trkpt>
      <trkpt lat="44.90269" lon="0.80303">
        <ele>129.4</ele>
        <time>2022-05-15T07:21:26Z</time>
      </trkpt>
      <trkpt lat="44.90269" lon="0.80301">
        <ele>129.4</ele>
        <time>2022-05-15T07:21:27Z</time>
      </trkpt>
      <trkpt lat="44.90269" lon="0.803">
        <ele>129.4</ele>
        <time>2022-05-15T07:21:28Z</time>
      </trkpt>
      <trkpt lat="44.90269" lon="0.80297">
        <ele>129.3</ele>
        <time>2022-05-15T07:21:30Z</time>
      </trkpt>
      <trkpt lat="44.90269" lon="0.80294">
        <ele>129.3</ele>
        <time>2022-05-15T07:21:32Z</time>
      </trkpt>
      <trkpt lat="44.90268" lon="0.80291">
        <ele>129.3</ele>
        <time>2022-05-15T07:21:34Z</time>
      </trkpt>
      <trkpt lat="44.90267" lon="0.80288">
        <ele>129.3</ele>
        <time>2022-05-15T07:21:36Z</time>
      </trkpt>
      <trkpt lat="44.90267" lon="0.80284">
        <ele>130.9</ele>
        <time>2022-05-15T07:21:38Z</time>
      </trkpt>
      <trkpt lat="44.90267" lon="0.80281">
        <ele>130.9</ele>
        <time>2022-05-15T07:21:40Z</time>
      </trkpt>
      <trkpt lat="44.90267" lon="0.80278">
        <ele>130.9</ele>
        <time>2022-05-15T07:21:42Z</time>
      </trkpt>
      <trkpt lat="44.90266" lon="0.80274">
        <ele>130.8</ele>
        <time>2022-05-15T07:21:44Z</time>
      </trkpt>
      <trkpt lat="44.90265" lon="0.80271">
        <ele>130.8</ele>
        <time>2022-05-15T07:21:46Z</time>
      </trkpt>
      <trkpt lat="44.90264" lon="0.80266">
        <ele>132.5</ele>
        <time>2022-05-15T07:21:48Z</time>
      </trkpt>
      <trkpt lat="44.90264" lon="0.80264">
        <ele>132.5</ele>
        <time>2022-05-15T07:21:50Z</time>
      </trkpt>
      <trkpt lat="44.90263" lon="0.8026">
        <ele>132.5</ele>
        <time>2022-05-15T07:21:52Z</time>
      </trkpt>
      <trkpt lat="44.90262" lon="0.80257">
        <ele>132.4</ele>
        <time>2022-05-15T07:21:54Z</time>
      </trkpt>
      <trkpt lat="44.90261" lon="0.80253">
        <ele>132.4</ele>
        <time>2022-05-15T07:21:56Z</time>
      </trkpt>
      <trkpt lat="44.90262" lon="0.80249">
        <ele>134.2</ele>
        <time>2022-05-15T07:21:58Z</time>
      </trkpt>
      <trkpt lat="44.90262" lon="0.80245">
        <ele>134.2</ele>
        <time>2022-05-15T07:21:59Z</time>
      </trkpt>
      <trkpt lat="44.90262" lon="0.80243">
        <ele>134.2</ele>
        <time>2022-05-15T07:22:00Z</time>
      </trkpt>
      <trkpt lat="44.90262" lon="0.80239">
        <ele>134.1</ele>
        <time>2022-05-15T07:22:02Z</time>
      </trkpt>
      <trkpt lat="44.90263" lon="0.80236">
        <ele>134.1</ele>
        <time>2022-05-15T07:22:04Z</time>
      </trkpt>
      <trkpt lat="44.90262" lon="0.80235">
        <ele>135.8</ele>
        <time>2022-05-15T07:22:05Z</time>
      </trkpt>
      <trkpt lat="44.90262" lon="0.80233">
        <ele>135.8</ele>
        <time>2022-05-15T07:22:06Z</time>
      </trkpt>
      <trkpt lat="44.90262" lon="0.80229">
        <ele>135.7</ele>
        <time>2022-05-15T07:22:08Z</time>
      </trkpt>
      <trkpt lat="44.90262" lon="0.80224">
        <ele>135.7</ele>
        <time>2022-05-15T07:22:10Z</time>
      </trkpt>
      <trkpt lat="44.90262" lon="0.8022">
        <ele>135.7</ele>
        <time>2022-05-15T07:22:12Z</time>
      </trkpt>
      <trkpt lat="44.90261" lon="0.80218">
        <ele>135.6</ele>
        <time>2022-05-15T07:22:14Z</time>
      </trkpt>
      <trkpt lat="44.90261" lon="0.80215">
        <ele>137.8</ele>
        <time>2022-05-15T07:22:16Z</time>
      </trkpt>
      <trkpt lat="44.9026" lon="0.80213">
        <ele>137.7</ele>
        <time>2022-05-15T07:22:18Z</time>
      </trkpt>
      <trkpt lat="44.9026" lon="0.80211">
        <ele>137.7</ele>
        <time>2022-05-15T07:22:19Z</time>
      </trkpt>
      <trkpt lat="44.9026" lon="0.80209">
        <ele>137.7</ele>
        <time>2022-05-15T07:22:20Z</time>
      </trkpt>
      <trkpt lat="44.9026" lon="0.80203">
        <ele>137.7</ele>
        <time>2022-05-15T07:22:22Z</time>
      </trkpt>
      <trkpt lat="44.9026" lon="0.80198">
        <ele>140.2</ele>
        <time>2022-05-15T07:22:24Z</time>
      </trkpt>
      <trkpt lat="44.9026" lon="0.80195">
        <ele>140.1</ele>
        <time>2022-05-15T07:22:26Z</time>
      </trkpt>
      <trkpt lat="44.9026" lon="0.80191">
        <ele>140.1</ele>
        <time>2022-05-15T07:22:28Z</time>
      </trkpt>
      <trkpt lat="44.90259" lon="0.80187">
        <ele>140.1</ele>
        <time>2022-05-15T07:22:30Z</time>
      </trkpt>
      <trkpt lat="44.90259" lon="0.80184">
        <ele>140</ele>
        <time>2022-05-15T07:22:32Z</time>
      </trkpt>
      <trkpt lat="44.90257" lon="0.80181">
        <ele>144.8</ele>
        <time>2022-05-15T07:22:34Z</time>
      </trkpt>
      <trkpt lat="44.90258" lon="0.80179">
        <ele>144.8</ele>
        <time>2022-05-15T07:22:35Z</time>
      </trkpt>
      <trkpt lat="44.90257" lon="0.80178">
        <ele>144.8</ele>
        <time>2022-05-15T07:22:36Z</time>
      </trkpt>
      <trkpt lat="44.90256" lon="0.80175">
        <ele>144.7</ele>
        <time>2022-05-15T07:22:38Z</time>
      </trkpt>
      <trkpt lat="44.90256" lon="0.80172">
        <ele>144.7</ele>
        <time>2022-05-15T07:22:40Z</time>
      </trkpt>
      <trkpt lat="44.90255" lon="0.80168">
        <ele>144.7</ele>
        <time>2022-05-15T07:22:42Z</time>
      </trkpt>
      <trkpt lat="44.90255" lon="0.80164">
        <ele>147.8</ele>
        <time>2022-05-15T07:22:44Z</time>
      </trkpt>
      <trkpt lat="44.90254" lon="0.80162">
        <ele>147.7</ele>
        <time>2022-05-15T07:22:45Z</time>
      </trkpt>
      <trkpt lat="44.90254" lon="0.80161">
        <ele>147.7</ele>
        <time>2022-05-15T07:22:46Z</time>
      </trkpt>
      <trkpt lat="44.90255" lon="0.80157">
        <ele>147.7</ele>
        <time>2022-05-15T07:22:48Z</time>
      </trkpt>
      <trkpt lat="44.90254" lon="0.80154">
        <ele>147.6</ele>
        <time>2022-05-15T07:22:50Z</time>
      </trkpt>
      <trkpt lat="44.90254" lon="0.80151">
        <ele>147.6</ele>
        <time>2022-05-15T07:22:51Z</time>
      </trkpt>
      <trkpt lat="44.90253" lon="0.80149">
        <ele>147.6</ele>
        <time>2022-05-15T07:22:52Z</time>
      </trkpt>
      <trkpt lat="44.90252" lon="0.80145">
        <ele>150.6</ele>
        <time>2022-05-15T07:22:54Z</time>
      </trkpt>
      <trkpt lat="44.90253" lon="0.80141">
        <ele>150.5</ele>
        <time>2022-05-15T07:22:56Z</time>
      </trkpt>
      <trkpt lat="44.90252" lon="0.80137">
        <ele>150.5</ele>
        <time>2022-05-15T07:22:58Z</time>
      </trkpt>
      <trkpt lat="44.90252" lon="0.80135">
        <ele>150.5</ele>
        <time>2022-05-15T07:22:59Z</time>
      </trkpt>
      <trkpt lat="44.90252" lon="0.80134">
        <ele>150.5</ele>
        <time>2022-05-15T07:23:00Z</time>
      </trkpt>
      <trkpt lat="44.90252" lon="0.8013">
        <ele>153.4</ele>
        <time>2022-05-15T07:23:02Z</time>
      </trkpt>
      <trkpt lat="44.90253" lon="0.80128">
        <ele>153.4</ele>
        <time>2022-05-15T07:23:04Z</time>
      </trkpt>
      <trkpt lat="44.90253" lon="0.80124">
        <ele>153.3</ele>
        <time>2022-05-15T07:23:06Z</time>
      </trkpt>
      <trkpt lat="44.90254" lon="0.8012">
        <ele>153.3</ele>
        <time>2022-05-15T07:23:08Z</time>
      </trkpt>
      <trkpt lat="44.90253" lon="0.80117">
        <ele>153.3</ele>
        <time>2022-05-15T07:23:10Z</time>
      </trkpt>
      <trkpt lat="44.90252" lon="0.80114">
        <ele>153.2</ele>
        <time>2022-05-15T07:23:12Z</time>
      </trkpt>
      <trkpt lat="44.90252" lon="0.80111">
        <ele>156</ele>
        <time>2022-05-15T07:23:14Z</time>
      </trkpt>
      <trkpt lat="44.90252" lon="0.80109">
        <ele>155.9</ele>
        <time>2022-05-15T07:23:15Z</time>
      </trkpt>
      <trkpt lat="44.90251" lon="0.80108">
        <ele>155.9</ele>
        <time>2022-05-15T07:23:16Z</time>
      </trkpt>
      <trkpt lat="44.90252" lon="0.80105">
        <ele>155.9</ele>
        <time>2022-05-15T07:23:18Z</time>
      </trkpt>
      <trkpt lat="44.90252" lon="0.801">
        <ele>155.8</ele>
        <time>2022-05-15T07:23:20Z</time>
      </trkpt>
      <trkpt lat="44.90253" lon="0.80097">
        <ele>158.1</ele>
        <time>2022-05-15T07:23:22Z</time>
      </trkpt>
      <trkpt lat="44.90252" lon="0.80094">
        <ele>158.1</ele>
        <time>2022-05-15T07:23:24Z</time>
      </trkpt>
      <trkpt lat="44.90252" lon="0.80089">
        <ele>158</ele>
        <time>2022-05-15T07:23:26Z</time>
      </trkpt>
      <trkpt lat="44.90252" lon="0.80087">
        <ele>158</ele>
        <time>2022-05-15T07:23:27Z</time>
      </trkpt>
      <trkpt lat="44.90252" lon="0.80085">
        <ele>158</ele>
        <time>2022-05-15T07:23:28Z</time>
      </trkpt>
      <trkpt lat="44.90252" lon="0.80082">
        <ele>158</ele>
        <time>2022-05-15T07:23:30Z</time>
      </trkpt>
      <trkpt lat="44.90252" lon="0.80079">
        <ele>160.3</ele>
        <time>2022-05-15T07:23:32Z</time>
      </trkpt>
      <trkpt lat="44.90251" lon="0.80077">
        <ele>160.3</ele>
        <time>2022-05-15T07:23:34Z</time>
      </trkpt>
      <trkpt lat="44.90251" lon="0.80075">
        <ele>160.3</ele>
        <time>2022-05-15T07:23:35Z</time>
      </trkpt>
      <trkpt lat="44.90251" lon="0.80074">
        <ele>160.2</ele>
        <time>2022-05-15T07:23:36Z</time>
      </trkpt>
      <trkpt lat="44.90251" lon="0.8007">
        <ele>160.2</ele>
        <time>2022-05-15T07:23:38Z</time>
      </trkpt>
      <trkpt lat="44.9025" lon="0.80067">
        <ele>160.2</ele>
        <time>2022-05-15T07:23:40Z</time>
      </trkpt>
      <trkpt lat="44.9025" lon="0.80064">
        <ele>160.1</ele>
        <time>2022-05-15T07:23:42Z</time>
      </trkpt>
      <trkpt lat="44.90249" lon="0.8006">
        <ele>162.1</ele>
        <time>2022-05-15T07:23:44Z</time>
      </trkpt>
      <trkpt lat="44.90248" lon="0.80058">
        <ele>162.1</ele>
        <time>2022-05-15T07:23:45Z</time>
      </trkpt>
      <trkpt lat="44.90247" lon="0.80056">
        <ele>162.1</ele>
        <time>2022-05-15T07:23:46Z</time>
      </trkpt>
      <trkpt lat="44.90247" lon="0.80055">
        <ele>162</ele>
        <time>2022-05-15T07:23:48Z</time>
      </trkpt>
      <trkpt lat="44.90165" lon="0.79914">
        <ele>177.4</ele>
        <time>2022-05-15T07:26:44Z</time>
      </trkpt>
      <trkpt lat="44.90164" lon="0.79913">
        <ele>177.4</ele>
        <time>2022-05-15T07:26:45Z</time>
      </trkpt>
      <trkpt lat="44.90162" lon="0.7991">
        <ele>177.4</ele>
        <time>2022-05-15T07:26:47Z</time>
      </trkpt>
      <trkpt lat="44.9016" lon="0.79907">
        <ele>178.7</ele>
        <time>2022-05-15T07:26:49Z</time>
      </trkpt>
      <trkpt lat="44.90157" lon="0.79904">
        <ele>178.7</ele>
        <time>2022-05-15T07:26:51Z</time>
      </trkpt>
      <trkpt lat="44.90155" lon="0.79903">
        <ele>178.7</ele>
        <time>2022-05-15T07:26:53Z</time>
      </trkpt>
      <trkpt lat="44.90152" lon="0.79901">
        <ele>178.6</ele>
        <time>2022-05-15T07:26:55Z</time>
      </trkpt>
      <trkpt lat="44.9015" lon="0.799">
        <ele>178.6</ele>
        <time>2022-05-15T07:26:57Z</time>
      </trkpt>
      <trkpt lat="44.90148" lon="0.79898">
        <ele>179.1</ele>
        <time>2022-05-15T07:26:59Z</time>
      </trkpt>
      <trkpt lat="44.90146" lon="0.79895">
        <ele>179.1</ele>
        <time>2022-05-15T07:27:01Z</time>
      </trkpt>
      <trkpt lat="44.90144" lon="0.79893">
        <ele>179</ele>
        <time>2022-05-15T07:27:03Z</time>
      </trkpt>
      <trkpt lat="44.90142" lon="0.79892">
        <ele>179</ele>
        <time>2022-05-15T07:27:05Z</time>
      </trkpt>
      <trkpt lat="44.9014" lon="0.79891">
        <ele>179.6</ele>
        <time>2022-05-15T07:27:07Z</time>
      </trkpt>
      <trkpt lat="44.90138" lon="0.79889">
        <ele>179.6</ele>
        <time>2022-05-15T07:27:09Z</time>
      </trkpt>
      <trkpt lat="44.90135" lon="0.79887">
        <ele>180.1</ele>
        <time>2022-05-15T07:27:11Z</time>
      </trkpt>
      <trkpt lat="44.90133" lon="0.79886">
        <ele>180.1</ele>
        <time>2022-05-15T07:27:13Z</time>
      </trkpt>
      <trkpt lat="44.9013" lon="0.79884">
        <ele>180.1</ele>
        <time>2022-05-15T07:27:15Z</time>
      </trkpt>
      <trkpt lat="44.90128" lon="0.79881">
        <ele>180</ele>
        <time>2022-05-15T07:27:17Z</time>
      </trkpt>
      <trkpt lat="44.90125" lon="0.79881">
        <ele>180</ele>
        <time>2022-05-15T07:27:19Z</time>
      </trkpt>
      <trkpt lat="44.90123" lon="0.79878">
        <ele>180.3</ele>
        <time>2022-05-15T07:27:21Z</time>
      </trkpt>
      <trkpt lat="44.9012" lon="0.79876">
        <ele>180.2</ele>
        <time>2022-05-15T07:27:23Z</time>
      </trkpt>
      <trkpt lat="44.90116" lon="0.79874">
        <ele>180.2</ele>
        <time>2022-05-15T07:27:25Z</time>
      </trkpt>
      <trkpt lat="44.90114" lon="0.79873">
        <ele>180.8</ele>
        <time>2022-05-15T07:27:26Z</time>
      </trkpt>
      <trkpt lat="44.90113" lon="0.79873">
        <ele>180.8</ele>
        <time>2022-05-15T07:27:27Z</time>
      </trkpt>
      <trkpt lat="44.90105" lon="0.79865">
        <ele>181.1</ele>
        <time>2022-05-15T07:27:29Z</time>
      </trkpt>
      <trkpt lat="44.90104" lon="0.79867">
        <ele>181.2</ele>
        <time>2022-05-15T07:27:31Z</time>
      </trkpt>
      <trkpt lat="44.90103" lon="0.79868">
        <ele>181.3</ele>
        <time>2022-05-15T07:27:32Z</time>
      </trkpt>
      <trkpt lat="44.90102" lon="0.7987">
        <ele>181.4</ele>
        <time>2022-05-15T07:27:33Z</time>
      </trkpt>
      <trkpt lat="44.90099" lon="0.79873">
        <ele>181.6</ele>
        <time>2022-05-15T07:27:35Z</time>
      </trkpt>
      <trkpt lat="44.90093" lon="0.79878">
        <ele>181.9</ele>
        <time>2022-05-15T07:27:37Z</time>
      </trkpt>
      <trkpt lat="44.90089" lon="0.79878">
        <ele>182.2</ele>
        <time>2022-05-15T07:27:39Z</time>
      </trkpt>
      <trkpt lat="44.90086" lon="0.79878">
        <ele>182.3</ele>
        <time>2022-05-15T07:27:40Z</time>
      </trkpt>
      <trkpt lat="44.90084" lon="0.79878">
        <ele>182.4</ele>
        <time>2022-05-15T07:27:41Z</time>
      </trkpt>
      <trkpt lat="44.9008" lon="0.79877">
        <ele>182.6</ele>
        <time>2022-05-15T07:27:43Z</time>
      </trkpt>
      <trkpt lat="44.90076" lon="0.79877">
        <ele>182.9</ele>
        <time>2022-05-15T07:27:45Z</time>
      </trkpt>
      <trkpt lat="44.90071" lon="0.79877">
        <ele>183.1</ele>
        <time>2022-05-15T07:27:47Z</time>
      </trkpt>
      <trkpt lat="44.90066" lon="0.79876">
        <ele>183.4</ele>
        <time>2022-05-15T07:27:49Z</time>
      </trkpt>
      <trkpt lat="44.90062" lon="0.79876">
        <ele>183.6</ele>
        <time>2022-05-15T07:27:51Z</time>
      </trkpt>
      <trkpt lat="44.90057" lon="0.79876">
        <ele>183.8</ele>
        <time>2022-05-15T07:27:53Z</time>
      </trkpt>
      <trkpt lat="44.90053" lon="0.79875">
        <ele>184.1</ele>
        <time>2022-05-15T07:27:55Z</time>
      </trkpt>
      <trkpt lat="44.90048" lon="0.79875">
        <ele>184.3</ele>
        <time>2022-05-15T07:27:57Z</time>
      </trkpt>
      <trkpt lat="44.90043" lon="0.79875">
        <ele>184.6</ele>
        <time>2022-05-15T07:27:59Z</time>
      </trkpt>
      <trkpt lat="44.90038" lon="0.79874">
        <ele>184.9</ele>
        <time>2022-05-15T07:28:01Z</time>
      </trkpt>
      <trkpt lat="44.90031" lon="0.79874">
        <ele>185.2</ele>
        <time>2022-05-15T07:28:03Z</time>
      </trkpt>
      <trkpt lat="44.90025" lon="0.79873">
        <ele>185.6</ele>
        <time>2022-05-15T07:28:05Z</time>
      </trkpt>
      <trkpt lat="44.90019" lon="0.79873">
        <ele>185.9</ele>
        <time>2022-05-15T07:28:07Z</time>
      </trkpt>
      <trkpt lat="44.90016" lon="0.79873">
        <ele>186</ele>
        <time>2022-05-15T07:28:08Z</time>
      </trkpt>
      <trkpt lat="44.90013" lon="0.79872">
        <ele>186.2</ele>
        <time>2022-05-15T07:28:09Z</time>
      </trkpt>
      <trkpt lat="44.90006" lon="0.79872">
        <ele>186.6</ele>
        <time>2022-05-15T07:28:11Z</time>
      </trkpt>
      <trkpt lat="44.89999" lon="0.7987">
        <ele>186.9</ele>
        <time>2022-05-15T07:28:13Z</time>
      </trkpt>
      <trkpt lat="44.89992" lon="0.79867">
        <ele>187.3</ele>
        <time>2022-05-15T07:28:15Z</time>
      </trkpt>
      <trkpt lat="44.89984" lon="0.79864">
        <ele>187.4</ele>
        <time>2022-05-15T07:28:17Z</time>
      </trkpt>
      <trkpt lat="44.89976" lon="0.79858">
        <ele>187.1</ele>
        <time>2022-05-15T07:28:19Z</time>
      </trkpt>
      <trkpt lat="44.89969" lon="0.79852">
        <ele>186.6</ele>
        <time>2022-05-15T07:28:21Z</time>
      </trkpt>
      <trkpt lat="44.8996" lon="0.79845">
        <ele>186.1</ele>
        <time>2022-05-15T07:28:23Z</time>
      </trkpt>
      <trkpt lat="44.8995" lon="0.79838">
        <ele>185.5</ele>
        <time>2022-05-15T07:28:25Z</time>
      </trkpt>
      <trkpt lat="44.89939" lon="0.79829">
        <ele>184.7</ele>
        <time>2022-05-15T07:28:27Z</time>
      </trkpt>
      <trkpt lat="44.89928" lon="0.7982">
        <ele>183.9</ele>
        <time>2022-05-15T07:28:29Z</time>
      </trkpt>
      <trkpt lat="44.89923" lon="0.79815">
        <ele>183.5</ele>
        <time>2022-05-15T07:28:30Z</time>
      </trkpt>
      <trkpt lat="44.89919" lon="0.7981">
        <ele>183</ele>
        <time>2022-05-15T07:28:31Z</time>
      </trkpt>
      <trkpt lat="44.89917" lon="0.79805">
        <ele>182.5</ele>
        <time>2022-05-15T07:28:32Z</time>
      </trkpt>
      <trkpt lat="44.89914" lon="0.79799">
        <ele>182</ele>
        <time>2022-05-15T07:28:33Z</time>
      </trkpt>
      <trkpt lat="44.89911" lon="0.79793">
        <ele>181.3</ele>
        <time>2022-05-15T07:28:34Z</time>
      </trkpt>
      <trkpt lat="44.89907" lon="0.79785">
        <ele>180.6</ele>
        <time>2022-05-15T07:28:35Z</time>
      </trkpt>
      <trkpt lat="44.89898" lon="0.79768">
        <ele>178.8</ele>
        <time>2022-05-15T07:28:37Z</time>
      </trkpt>
      <trkpt lat="44.89888" lon="0.7975">
        <ele>176.6</ele>
        <time>2022-05-15T07:28:39Z</time>
      </trkpt>
      <trkpt lat="44.89881" lon="0.79741">
        <ele>175.3</ele>
        <time>2022-05-15T07:28:40Z</time>
      </trkpt>
      <trkpt lat="44.89875" lon="0.79732">
        <ele>173.9</ele>
        <time>2022-05-15T07:28:41Z</time>
      </trkpt>
      <trkpt lat="44.89861" lon="0.79714">
        <ele>171.1</ele>
        <time>2022-05-15T07:28:43Z</time>
      </trkpt>
      <trkpt lat="44.89849" lon="0.79697">
        <ele>168.2</ele>
        <time>2022-05-15T07:28:45Z</time>
      </trkpt>
      <trkpt lat="44.89837" lon="0.79681">
        <ele>165.6</ele>
        <time>2022-05-15T07:28:47Z</time>
      </trkpt>
      <trkpt lat="44.89831" lon="0.79673">
        <ele>164.5</ele>
        <time>2022-05-15T07:28:48Z</time>
      </trkpt>
      <trkpt lat="44.89826" lon="0.79666">
        <ele>163.5</ele>
        <time>2022-05-15T07:28:49Z</time>
      </trkpt>
      <trkpt lat="44.89815" lon="0.79649">
        <ele>161.4</ele>
        <time>2022-05-15T07:28:51Z</time>
      </trkpt>
      <trkpt lat="44.89809" lon="0.79641">
        <ele>160.3</ele>
        <time>2022-05-15T07:28:52Z</time>
      </trkpt>
      <trkpt lat="44.89803" lon="0.79632">
        <ele>159.2</ele>
        <time>2022-05-15T07:28:53Z</time>
      </trkpt>
      <trkpt lat="44.89792" lon="0.79614">
        <ele>156.7</ele>
        <time>2022-05-15T07:28:55Z</time>
      </trkpt>
      <trkpt lat="44.8978" lon="0.79597">
        <ele>154.2</ele>
        <time>2022-05-15T07:28:57Z</time>
      </trkpt>
      <trkpt lat="44.89769" lon="0.7958">
        <ele>151.8</ele>
        <time>2022-05-15T07:28:59Z</time>
      </trkpt>
      <trkpt lat="44.89755" lon="0.79565">
        <ele>149.6</ele>
        <time>2022-05-15T07:29:01Z</time>
      </trkpt>
      <trkpt lat="44.89741" lon="0.7955">
        <ele>147.4</ele>
        <time>2022-05-15T07:29:03Z</time>
      </trkpt>
      <trkpt lat="44.89734" lon="0.79542">
        <ele>146.4</ele>
        <time>2022-05-15T07:29:04Z</time>
      </trkpt>
      <trkpt lat="44.89727" lon="0.79535">
        <ele>145.4</ele>
        <time>2022-05-15T07:29:05Z</time>
      </trkpt>
      <trkpt lat="44.89713" lon="0.79521">
        <ele>143.3</ele>
        <time>2022-05-15T07:29:07Z</time>
      </trkpt>
      <trkpt lat="44.89707" lon="0.79514">
        <ele>142.1</ele>
        <time>2022-05-15T07:29:08Z</time>
      </trkpt>
      <trkpt lat="44.897" lon="0.79507">
        <ele>141</ele>
        <time>2022-05-15T07:29:09Z</time>
      </trkpt>
      <trkpt lat="44.89688" lon="0.79494">
        <ele>139</ele>
        <time>2022-05-15T07:29:11Z</time>
      </trkpt>
      <trkpt lat="44.89677" lon="0.79481">
        <ele>136.9</ele>
        <time>2022-05-15T07:29:13Z</time>
      </trkpt>
      <trkpt lat="44.89664" lon="0.79471">
        <ele>134.9</ele>
        <time>2022-05-15T07:29:15Z</time>
      </trkpt>
      <trkpt lat="44.89651" lon="0.79461">
        <ele>132.9</ele>
        <time>2022-05-15T07:29:17Z</time>
      </trkpt>
      <trkpt lat="44.89639" lon="0.79452">
        <ele>130.9</ele>
        <time>2022-05-15T07:29:19Z</time>
      </trkpt>
      <trkpt lat="44.89631" lon="0.7944">
        <ele>129</ele>
        <time>2022-05-15T07:29:21Z</time>
      </trkpt>
      <trkpt lat="44.89622" lon="0.79427">
        <ele>127</ele>
        <time>2022-05-15T07:29:23Z</time>
      </trkpt>
      <trkpt lat="44.89617" lon="0.7942">
        <ele>125.8</ele>
        <time>2022-05-15T07:29:24Z</time>
      </trkpt>
      <trkpt lat="44.89611" lon="0.79417">
        <ele>124.8</ele>
        <time>2022-05-15T07:29:25Z</time>
      </trkpt>
      <trkpt lat="44.89606" lon="0.79414">
        <ele>123.9</ele>
        <time>2022-05-15T07:29:26Z</time>
      </trkpt>
      <trkpt lat="44.89601" lon="0.79411">
        <ele>123.1</ele>
        <time>2022-05-15T07:29:27Z</time>
      </trkpt>
      <trkpt lat="44.89596" lon="0.79408">
        <ele>122.2</ele>
        <time>2022-05-15T07:29:29Z</time>
      </trkpt>
      <trkpt lat="44.89594" lon="0.79407">
        <ele>121.8</ele>
        <time>2022-05-15T07:29:31Z</time>
      </trkpt>
      <trkpt lat="44.89594" lon="0.79407">
        <ele>121.8</ele>
        <time>2022-05-15T07:29:33Z</time>
      </trkpt>
      <trkpt lat="44.89589" lon="0.79404">
        <ele>121</ele>
        <time>2022-05-15T07:29:42Z</time>
      </trkpt>
      <trkpt lat="44.89591" lon="0.79403">
        <ele>121</ele>
        <time>2022-05-15T07:29:43Z</time>
      </trkpt>
      <trkpt lat="44.89594" lon="0.794">
        <ele>121.1</ele>
        <time>2022-05-15T07:29:45Z</time>
      </trkpt>
      <trkpt lat="44.89597" lon="0.79397">
        <ele>121.2</ele>
        <time>2022-05-15T07:29:47Z</time>
      </trkpt>
      <trkpt lat="44.89601" lon="0.79394">
        <ele>121.3</ele>
        <time>2022-05-15T07:29:49Z</time>
      </trkpt>
      <trkpt lat="44.89606" lon="0.79391">
        <ele>121.5</ele>
        <time>2022-05-15T07:29:51Z</time>
      </trkpt>
      <trkpt lat="44.89611" lon="0.79387">
        <ele>121.6</ele>
        <time>2022-05-15T07:29:53Z</time>
      </trkpt>
      <trkpt lat="44.89613" lon="0.79385">
        <ele>121.7</ele>
        <time>2022-05-15T07:29:54Z</time>
      </trkpt>
      <trkpt lat="44.89615" lon="0.79383">
        <ele>121.7</ele>
        <time>2022-05-15T07:29:55Z</time>
      </trkpt>
      <trkpt lat="44.89621" lon="0.79379">
        <ele>121.8</ele>
        <time>2022-05-15T07:29:57Z</time>
      </trkpt>
      <trkpt lat="44.89626" lon="0.79374">
        <ele>121.9</ele>
        <time>2022-05-15T07:29:59Z</time>
      </trkpt>
      <trkpt lat="44.89629" lon="0.79372">
        <ele>121.9</ele>
        <time>2022-05-15T07:30:00Z</time>
      </trkpt>
      <trkpt lat="44.89635" lon="0.79367">
        <ele>121.9</ele>
        <time>2022-05-15T07:30:02Z</time>
      </trkpt>
      <trkpt lat="44.89637" lon="0.79365">
        <ele>121.9</ele>
        <time>2022-05-15T07:30:03Z</time>
      </trkpt>
      <trkpt lat="44.89642" lon="0.79362">
        <ele>122</ele>
        <time>2022-05-15T07:30:05Z</time>
      </trkpt>
      <trkpt lat="44.89646" lon="0.79359">
        <ele>122</ele>
        <time>2022-05-15T07:30:07Z</time>
      </trkpt>
      <trkpt lat="44.89652" lon="0.79354">
        <ele>122.1</ele>
        <time>2022-05-15T07:30:09Z</time>
      </trkpt>
      <trkpt lat="44.89658" lon="0.7935">
        <ele>122.3</ele>
        <time>2022-05-15T07:30:11Z</time>
      </trkpt>
      <trkpt lat="44.89665" lon="0.79346">
        <ele>122.5</ele>
        <time>2022-05-15T07:30:13Z</time>
      </trkpt>
      <trkpt lat="44.89671" lon="0.79342">
        <ele>122.8</ele>
        <time>2022-05-15T07:30:15Z</time>
      </trkpt>
      <trkpt lat="44.89677" lon="0.79339">
        <ele>123.1</ele>
        <time>2022-05-15T07:30:17Z</time>
      </trkpt>
      <trkpt lat="44.89682" lon="0.79336">
        <ele>123.6</ele>
        <time>2022-05-15T07:30:19Z</time>
      </trkpt>
      <trkpt lat="44.89687" lon="0.79333">
        <ele>124</ele>
        <time>2022-05-15T07:30:21Z</time>
      </trkpt>
      <trkpt lat="44.89689" lon="0.79332">
        <ele>124.2</ele>
        <time>2022-05-15T07:30:22Z</time>
      </trkpt>
      <trkpt lat="44.8969" lon="0.79331">
        <ele>124.4</ele>
        <time>2022-05-15T07:30:23Z</time>
      </trkpt>
      <trkpt lat="44.89693" lon="0.79329">
        <ele>124.7</ele>
        <time>2022-05-15T07:30:25Z</time>
      </trkpt>
      <trkpt lat="44.89695" lon="0.79329">
        <ele>124.9</ele>
        <time>2022-05-15T07:30:26Z</time>
      </trkpt>
      <trkpt lat="44.89696" lon="0.79328">
        <ele>125.1</ele>
        <time>2022-05-15T07:30:27Z</time>
      </trkpt>
      <trkpt lat="44.89699" lon="0.79326">
        <ele>125.4</ele>
        <time>2022-05-15T07:30:29Z</time>
      </trkpt>
      <trkpt lat="44.89704" lon="0.79323">
        <ele>126</ele>
        <time>2022-05-15T07:30:31Z</time>
      </trkpt>
      <trkpt lat="44.89708" lon="0.79321">
        <ele>126.5</ele>
        <time>2022-05-15T07:30:33Z</time>
      </trkpt>
      <trkpt lat="44.89709" lon="0.7932">
        <ele>126.8</ele>
        <time>2022-05-15T07:30:34Z</time>
      </trkpt>
      <trkpt lat="44.89711" lon="0.79319">
        <ele>127</ele>
        <time>2022-05-15T07:30:35Z</time>
      </trkpt>
      <trkpt lat="44.89714" lon="0.79317">
        <ele>127.4</ele>
        <time>2022-05-15T07:30:37Z</time>
      </trkpt>
      <trkpt lat="44.89716" lon="0.79316">
        <ele>127.7</ele>
        <time>2022-05-15T07:30:39Z</time>
      </trkpt>
      <trkpt lat="44.89718" lon="0.79315">
        <ele>127.9</ele>
        <time>2022-05-15T07:30:40Z</time>
      </trkpt>
      <trkpt lat="44.89721" lon="0.79314">
        <ele>128.4</ele>
        <time>2022-05-15T07:30:42Z</time>
      </trkpt>
      <trkpt lat="44.89722" lon="0.79313">
        <ele>128.6</ele>
        <time>2022-05-15T07:30:43Z</time>
      </trkpt>
      <trkpt lat="44.89726" lon="0.79311">
        <ele>129.1</ele>
        <time>2022-05-15T07:30:45Z</time>
      </trkpt>
      <trkpt lat="44.89727" lon="0.79311">
        <ele>129.3</ele>
        <time>2022-05-15T07:30:46Z</time>
      </trkpt>
      <trkpt lat="44.89728" lon="0.7931">
        <ele>129.5</ele>
        <time>2022-05-15T07:30:47Z</time>
      </trkpt>
      <trkpt lat="44.89732" lon="0.79308">
        <ele>130</ele>
        <time>2022-05-15T07:30:50Z</time>
      </trkpt>
      <trkpt lat="44.89734" lon="0.79308">
        <ele>130.2</ele>
        <time>2022-05-15T07:30:51Z</time>
      </trkpt>
      <trkpt lat="44.89735" lon="0.79307">
        <ele>130.4</ele>
        <time>2022-05-15T07:30:52Z</time>
      </trkpt>
      <trkpt lat="44.89736" lon="0.79306">
        <ele>130.6</ele>
        <time>2022-05-15T07:30:53Z</time>
      </trkpt>
      <trkpt lat="44.89738" lon="0.79306">
        <ele>130.9</ele>
        <time>2022-05-15T07:30:55Z</time>
      </trkpt>
      <trkpt lat="44.89741" lon="0.79304">
        <ele>131.2</ele>
        <time>2022-05-15T07:30:57Z</time>
      </trkpt>
      <trkpt lat="44.89743" lon="0.79303">
        <ele>131.6</ele>
        <time>2022-05-15T07:30:58Z</time>
      </trkpt>
      <trkpt lat="44.89743" lon="0.79303">
        <ele>131.6</ele>
        <time>2022-05-15T07:30:59Z</time>
      </trkpt>
      <trkpt lat="44.89745" lon="0.79302">
        <ele>132</ele>
        <time>2022-05-15T07:31:01Z</time>
      </trkpt>
      <trkpt lat="44.89746" lon="0.79302">
        <ele>132.2</ele>
        <time>2022-05-15T07:31:02Z</time>
      </trkpt>
      <trkpt lat="44.89748" lon="0.79301">
        <ele>132.4</ele>
        <time>2022-05-15T07:31:03Z</time>
      </trkpt>
      <trkpt lat="44.8975" lon="0.793">
        <ele>132.7</ele>
        <time>2022-05-15T07:31:05Z</time>
      </trkpt>
      <trkpt lat="44.89751" lon="0.793">
        <ele>132.9</ele>
        <time>2022-05-15T07:31:07Z</time>
      </trkpt>
      <trkpt lat="44.89754" lon="0.79298">
        <ele>133.3</ele>
        <time>2022-05-15T07:31:09Z</time>
      </trkpt>
      <trkpt lat="44.89757" lon="0.79297">
        <ele>133.8</ele>
        <time>2022-05-15T07:31:11Z</time>
      </trkpt>
      <trkpt lat="44.8976" lon="0.79295">
        <ele>134.3</ele>
        <time>2022-05-15T07:31:13Z</time>
      </trkpt>
      <trkpt lat="44.89762" lon="0.79294">
        <ele>134.6</ele>
        <time>2022-05-15T07:31:15Z</time>
      </trkpt>
      <trkpt lat="44.89764" lon="0.79293">
        <ele>134.9</ele>
        <time>2022-05-15T07:31:17Z</time>
      </trkpt>
      <trkpt lat="44.89767" lon="0.79292">
        <ele>135.3</ele>
        <time>2022-05-15T07:31:19Z</time>
      </trkpt>
      <trkpt lat="44.89768" lon="0.79292">
        <ele>135.4</ele>
        <time>2022-05-15T07:31:20Z</time>
      </trkpt>
      <trkpt lat="44.89769" lon="0.79291">
        <ele>135.6</ele>
        <time>2022-05-15T07:31:21Z</time>
      </trkpt>
      <trkpt lat="44.89771" lon="0.7929">
        <ele>135.8</ele>
        <time>2022-05-15T07:31:23Z</time>
      </trkpt>
      <trkpt lat="44.89773" lon="0.79289">
        <ele>136.2</ele>
        <time>2022-05-15T07:31:25Z</time>
      </trkpt>
      <trkpt lat="44.89776" lon="0.79288">
        <ele>136.6</ele>
        <time>2022-05-15T07:31:27Z</time>
      </trkpt>
      <trkpt lat="44.89777" lon="0.79287">
        <ele>136.8</ele>
        <time>2022-05-15T07:31:28Z</time>
      </trkpt>
      <trkpt lat="44.89779" lon="0.79287">
        <ele>137</ele>
        <time>2022-05-15T07:31:29Z</time>
      </trkpt>
      <trkpt lat="44.89781" lon="0.79285">
        <ele>137.3</ele>
        <time>2022-05-15T07:31:31Z</time>
      </trkpt>
      <trkpt lat="44.89784" lon="0.79284">
        <ele>137.8</ele>
        <time>2022-05-15T07:31:33Z</time>
      </trkpt>
      <trkpt lat="44.89786" lon="0.79283">
        <ele>138.1</ele>
        <time>2022-05-15T07:31:35Z</time>
      </trkpt>
      <trkpt lat="44.89788" lon="0.79282">
        <ele>138.3</ele>
        <time>2022-05-15T07:31:37Z</time>
      </trkpt>
      <trkpt lat="44.8979" lon="0.79281">
        <ele>138.6</ele>
        <time>2022-05-15T07:31:39Z</time>
      </trkpt>
      <trkpt lat="44.89792" lon="0.7928">
        <ele>138.9</ele>
        <time>2022-05-15T07:31:41Z</time>
      </trkpt>
      <trkpt lat="44.89794" lon="0.79279">
        <ele>139.1</ele>
        <time>2022-05-15T07:31:43Z</time>
      </trkpt>
      <trkpt lat="44.89796" lon="0.79278">
        <ele>139.5</ele>
        <time>2022-05-15T07:31:45Z</time>
      </trkpt>
      <trkpt lat="44.89797" lon="0.79278">
        <ele>139.6</ele>
        <time>2022-05-15T07:31:46Z</time>
      </trkpt>
      <trkpt lat="44.89798" lon="0.79277">
        <ele>139.8</ele>
        <time>2022-05-15T07:31:47Z</time>
      </trkpt>
      <trkpt lat="44.898" lon="0.79276">
        <ele>140.1</ele>
        <time>2022-05-15T07:31:49Z</time>
      </trkpt>
      <trkpt lat="44.89802" lon="0.79275">
        <ele>140.5</ele>
        <time>2022-05-15T07:31:51Z</time>
      </trkpt>
      <trkpt lat="44.89804" lon="0.79274">
        <ele>140.8</ele>
        <time>2022-05-15T07:31:53Z</time>
      </trkpt>
      <trkpt lat="44.89806" lon="0.79273">
        <ele>141.1</ele>
        <time>2022-05-15T07:31:55Z</time>
      </trkpt>
      <trkpt lat="44.89808" lon="0.79272">
        <ele>141.4</ele>
        <time>2022-05-15T07:31:57Z</time>
      </trkpt>
      <trkpt lat="44.8981" lon="0.79271">
        <ele>141.9</ele>
        <time>2022-05-15T07:31:59Z</time>
      </trkpt>
      <trkpt lat="44.89813" lon="0.7927">
        <ele>142.3</ele>
        <time>2022-05-15T07:32:01Z</time>
      </trkpt>
      <trkpt lat="44.89814" lon="0.79268">
        <ele>142.7</ele>
        <time>2022-05-15T07:32:03Z</time>
      </trkpt>
      <trkpt lat="44.89815" lon="0.79265">
        <ele>143.2</ele>
        <time>2022-05-15T07:32:05Z</time>
      </trkpt>
      <trkpt lat="44.89816" lon="0.79263">
        <ele>143.4</ele>
        <time>2022-05-15T07:32:06Z</time>
      </trkpt>
      <trkpt lat="44.89816" lon="0.79261">
        <ele>143.8</ele>
        <time>2022-05-15T07:32:07Z</time>
      </trkpt>
      <trkpt lat="44.89817" lon="0.79258">
        <ele>144.3</ele>
        <time>2022-05-15T07:32:09Z</time>
      </trkpt>
      <trkpt lat="44.89818" lon="0.79255">
        <ele>144.8</ele>
        <time>2022-05-15T07:32:11Z</time>
      </trkpt>
      <trkpt lat="44.89819" lon="0.79255">
        <ele>144.9</ele>
        <time>2022-05-15T07:32:12Z</time>
      </trkpt>
      <trkpt lat="44.89819" lon="0.79254">
        <ele>145.1</ele>
        <time>2022-05-15T07:32:13Z</time>
      </trkpt>
      <trkpt lat="44.89819" lon="0.79252">
        <ele>145.3</ele>
        <time>2022-05-15T07:32:14Z</time>
      </trkpt>
      <trkpt lat="44.8982" lon="0.79251">
        <ele>145.5</ele>
        <time>2022-05-15T07:32:15Z</time>
      </trkpt>
      <trkpt lat="44.8982" lon="0.7925">
        <ele>145.7</ele>
        <time>2022-05-15T07:32:16Z</time>
      </trkpt>
      <trkpt lat="44.89821" lon="0.79249">
        <ele>145.8</ele>
        <time>2022-05-15T07:32:17Z</time>
      </trkpt>
      <trkpt lat="44.89821" lon="0.79249">
        <ele>146</ele>
        <time>2022-05-15T07:32:18Z</time>
      </trkpt>
      <trkpt lat="44.89822" lon="0.79248">
        <ele>146.2</ele>
        <time>2022-05-15T07:32:19Z</time>
      </trkpt>
      <trkpt lat="44.89824" lon="0.79246">
        <ele>146.6</ele>
        <time>2022-05-15T07:32:21Z</time>
      </trkpt>
      <trkpt lat="44.89825" lon="0.79244">
        <ele>146.9</ele>
        <time>2022-05-15T07:32:23Z</time>
      </trkpt>
      <trkpt lat="44.89825" lon="0.79244">
        <ele>147.1</ele>
        <time>2022-05-15T07:32:24Z</time>
      </trkpt>
      <trkpt lat="44.89826" lon="0.79243">
        <ele>147.3</ele>
        <time>2022-05-15T07:32:25Z</time>
      </trkpt>
      <trkpt lat="44.89828" lon="0.79241">
        <ele>147.7</ele>
        <time>2022-05-15T07:32:27Z</time>
      </trkpt>
      <trkpt lat="44.89829" lon="0.79238">
        <ele>148.3</ele>
        <time>2022-05-15T07:32:29Z</time>
      </trkpt>
      <trkpt lat="44.8983" lon="0.79235">
        <ele>148.5</ele>
        <time>2022-05-15T07:32:31Z</time>
      </trkpt>
      <trkpt lat="44.89831" lon="0.79233">
        <ele>148.8</ele>
        <time>2022-05-15T07:32:33Z</time>
      </trkpt>
      <trkpt lat="44.89831" lon="0.79231">
        <ele>149.2</ele>
        <time>2022-05-15T07:32:35Z</time>
      </trkpt>
      <trkpt lat="44.89831" lon="0.79228">
        <ele>149.5</ele>
        <time>2022-05-15T07:32:37Z</time>
      </trkpt>
      <trkpt lat="44.89832" lon="0.79226">
        <ele>149.9</ele>
        <time>2022-05-15T07:32:39Z</time>
      </trkpt>
      <trkpt lat="44.89832" lon="0.79223">
        <ele>150.3</ele>
        <time>2022-05-15T07:32:41Z</time>
      </trkpt>
      <trkpt lat="44.89832" lon="0.79221">
        <ele>150.5</ele>
        <time>2022-05-15T07:32:42Z</time>
      </trkpt>
      <trkpt lat="44.89832" lon="0.79219">
        <ele>150.7</ele>
        <time>2022-05-15T07:32:43Z</time>
      </trkpt>
      <trkpt lat="44.89833" lon="0.79217">
        <ele>151</ele>
        <time>2022-05-15T07:32:45Z</time>
      </trkpt>
      <trkpt lat="44.89833" lon="0.79214">
        <ele>151.3</ele>
        <time>2022-05-15T07:32:47Z</time>
      </trkpt>
      <trkpt lat="44.89833" lon="0.79212">
        <ele>151.6</ele>
        <time>2022-05-15T07:32:48Z</time>
      </trkpt>
      <trkpt lat="44.89834" lon="0.7921">
        <ele>151.9</ele>
        <time>2022-05-15T07:32:49Z</time>
      </trkpt>
      <trkpt lat="44.89835" lon="0.79208">
        <ele>152.2</ele>
        <time>2022-05-15T07:32:51Z</time>
      </trkpt>
      <trkpt lat="44.89836" lon="0.79206">
        <ele>152.4</ele>
        <time>2022-05-15T07:32:53Z</time>
      </trkpt>
      <trkpt lat="44.89837" lon="0.79205">
        <ele>152.6</ele>
        <time>2022-05-15T07:32:54Z</time>
      </trkpt>
      <trkpt lat="44.89837" lon="0.79204">
        <ele>152.8</ele>
        <time>2022-05-15T07:32:55Z</time>
      </trkpt>
      <trkpt lat="44.89838" lon="0.79202">
        <ele>153.1</ele>
        <time>2022-05-15T07:32:57Z</time>
      </trkpt>
      <trkpt lat="44.89839" lon="0.79199">
        <ele>153.4</ele>
        <time>2022-05-15T07:32:59Z</time>
      </trkpt>
      <trkpt lat="44.8984" lon="0.79198">
        <ele>153.6</ele>
        <time>2022-05-15T07:33:00Z</time>
      </trkpt>
      <trkpt lat="44.8984" lon="0.79198">
        <ele>153.7</ele>
        <time>2022-05-15T07:33:01Z</time>
      </trkpt>
      <trkpt lat="44.89842" lon="0.79195">
        <ele>154.2</ele>
        <time>2022-05-15T07:33:03Z</time>
      </trkpt>
      <trkpt lat="44.89843" lon="0.79194">
        <ele>154.4</ele>
        <time>2022-05-15T07:33:04Z</time>
      </trkpt>
      <trkpt lat="44.89844" lon="0.79192">
        <ele>154.6</ele>
        <time>2022-05-15T07:33:05Z</time>
      </trkpt>
      <trkpt lat="44.89845" lon="0.79191">
        <ele>154.9</ele>
        <time>2022-05-15T07:33:06Z</time>
      </trkpt>
      <trkpt lat="44.89846" lon="0.7919">
        <ele>155.1</ele>
        <time>2022-05-15T07:33:07Z</time>
      </trkpt>
      <trkpt lat="44.89847" lon="0.79188">
        <ele>155.5</ele>
        <time>2022-05-15T07:33:09Z</time>
      </trkpt>
      <trkpt lat="44.89848" lon="0.79186">
        <ele>155.7</ele>
        <time>2022-05-15T07:33:11Z</time>
      </trkpt>
      <trkpt lat="44.89848" lon="0.79186">
        <ele>155.7</ele>
        <time>2022-05-15T07:33:13Z</time>
      </trkpt>
      <trkpt lat="44.89947" lon="0.79126">
        <ele>174.1</ele>
        <time>2022-05-15T07:35:43Z</time>
      </trkpt>
      <trkpt lat="44.8995" lon="0.79124">
        <ele>174.4</ele>
        <time>2022-05-15T07:35:45Z</time>
      </trkpt>
      <trkpt lat="44.89953" lon="0.79123">
        <ele>174.6</ele>
        <time>2022-05-15T07:35:47Z</time>
      </trkpt>
      <trkpt lat="44.89956" lon="0.79121">
        <ele>174.8</ele>
        <time>2022-05-15T07:35:49Z</time>
      </trkpt>
      <trkpt lat="44.89958" lon="0.7912">
        <ele>175</ele>
        <time>2022-05-15T07:35:50Z</time>
      </trkpt>
      <trkpt lat="44.8996" lon="0.7912">
        <ele>175.1</ele>
        <time>2022-05-15T07:35:51Z</time>
      </trkpt>
      <trkpt lat="44.89964" lon="0.79118">
        <ele>175.3</ele>
        <time>2022-05-15T07:35:53Z</time>
      </trkpt>
      <trkpt lat="44.89967" lon="0.79117">
        <ele>175.5</ele>
        <time>2022-05-15T07:35:55Z</time>
      </trkpt>
      <trkpt lat="44.89971" lon="0.79115">
        <ele>175.7</ele>
        <time>2022-05-15T07:35:57Z</time>
      </trkpt>
      <trkpt lat="44.89975" lon="0.79113">
        <ele>175.9</ele>
        <time>2022-05-15T07:35:59Z</time>
      </trkpt>
      <trkpt lat="44.89978" lon="0.79112">
        <ele>176.1</ele>
        <time>2022-05-15T07:36:01Z</time>
      </trkpt>
      <trkpt lat="44.8998" lon="0.79111">
        <ele>176.2</ele>
        <time>2022-05-15T07:36:02Z</time>
      </trkpt>
      <trkpt lat="44.89982" lon="0.79111">
        <ele>176.3</ele>
        <time>2022-05-15T07:36:03Z</time>
      </trkpt>
      <trkpt lat="44.89986" lon="0.79109">
        <ele>176.5</ele>
        <time>2022-05-15T07:36:05Z</time>
      </trkpt>
      <trkpt lat="44.8999" lon="0.79107">
        <ele>176.7</ele>
        <time>2022-05-15T07:36:07Z</time>
      </trkpt>
      <trkpt lat="44.89994" lon="0.79105">
        <ele>177</ele>
        <time>2022-05-15T07:36:09Z</time>
      </trkpt>
      <trkpt lat="44.89998" lon="0.79103">
        <ele>177.2</ele>
        <time>2022-05-15T07:36:11Z</time>
      </trkpt>
      <trkpt lat="44.90002" lon="0.79101">
        <ele>177.4</ele>
        <time>2022-05-15T07:36:13Z</time>
      </trkpt>
      <trkpt lat="44.90006" lon="0.79099">
        <ele>177.7</ele>
        <time>2022-05-15T07:36:15Z</time>
      </trkpt>
      <trkpt lat="44.90011" lon="0.79096">
        <ele>177.9</ele>
        <time>2022-05-15T07:36:17Z</time>
      </trkpt>
      <trkpt lat="44.90016" lon="0.79094">
        <ele>178.2</ele>
        <time>2022-05-15T07:36:19Z</time>
      </trkpt>
      <trkpt lat="44.90021" lon="0.79092">
        <ele>178.5</ele>
        <time>2022-05-15T07:36:21Z</time>
      </trkpt>
      <trkpt lat="44.90025" lon="0.7909">
        <ele>178.8</ele>
        <time>2022-05-15T07:36:23Z</time>
      </trkpt>
      <trkpt lat="44.9003" lon="0.79088">
        <ele>179.1</ele>
        <time>2022-05-15T07:36:25Z</time>
      </trkpt>
      <trkpt lat="44.90035" lon="0.79086">
        <ele>179.3</ele>
        <time>2022-05-15T07:36:27Z</time>
      </trkpt>
      <trkpt lat="44.90039" lon="0.79084">
        <ele>179.6</ele>
        <time>2022-05-15T07:36:29Z</time>
      </trkpt>
      <trkpt lat="44.90041" lon="0.79082">
        <ele>179.7</ele>
        <time>2022-05-15T07:36:30Z</time>
      </trkpt>
      <trkpt lat="44.90043" lon="0.79081">
        <ele>179.8</ele>
        <time>2022-05-15T07:36:31Z</time>
      </trkpt>
      <trkpt lat="44.90048" lon="0.79079">
        <ele>179.9</ele>
        <time>2022-05-15T07:36:33Z</time>
      </trkpt>
      <trkpt lat="44.90052" lon="0.79077">
        <ele>180.1</ele>
        <time>2022-05-15T07:36:35Z</time>
      </trkpt>
      <trkpt lat="44.90057" lon="0.79075">
        <ele>180.3</ele>
        <time>2022-05-15T07:36:37Z</time>
      </trkpt>
      <trkpt lat="44.90061" lon="0.79074">
        <ele>180.4</ele>
        <time>2022-05-15T07:36:39Z</time>
      </trkpt>
      <trkpt lat="44.90066" lon="0.79074">
        <ele>180.5</ele>
        <time>2022-05-15T07:36:41Z</time>
      </trkpt>
      <trkpt lat="44.90071" lon="0.79074">
        <ele>180.6</ele>
        <time>2022-05-15T07:36:43Z</time>
      </trkpt>
      <trkpt lat="44.90077" lon="0.79075">
        <ele>180.9</ele>
        <time>2022-05-15T07:36:45Z</time>
      </trkpt>
      <trkpt lat="44.90082" lon="0.79078">
        <ele>181.3</ele>
        <time>2022-05-15T07:36:47Z</time>
      </trkpt>
      <trkpt lat="44.90088" lon="0.79081">
        <ele>181.7</ele>
        <time>2022-05-15T07:36:49Z</time>
      </trkpt>
      <trkpt lat="44.90093" lon="0.79084">
        <ele>182.1</ele>
        <time>2022-05-15T07:36:51Z</time>
      </trkpt>
      <trkpt lat="44.90099" lon="0.79087">
        <ele>182.5</ele>
        <time>2022-05-15T07:36:53Z</time>
      </trkpt>
      <trkpt lat="44.90104" lon="0.7909">
        <ele>183</ele>
        <time>2022-05-15T07:36:55Z</time>
      </trkpt>
      <trkpt lat="44.90109" lon="0.79092">
        <ele>183.4</ele>
        <time>2022-05-15T07:36:57Z</time>
      </trkpt>
      <trkpt lat="44.90114" lon="0.79095">
        <ele>183.8</ele>
        <time>2022-05-15T07:36:59Z</time>
      </trkpt>
      <trkpt lat="44.90116" lon="0.79096">
        <ele>184</ele>
        <time>2022-05-15T07:37:00Z</time>
      </trkpt>
      <trkpt lat="44.90119" lon="0.79097">
        <ele>184.2</ele>
        <time>2022-05-15T07:37:01Z</time>
      </trkpt>
      <trkpt lat="44.90121" lon="0.79099">
        <ele>184.4</ele>
        <time>2022-05-15T07:37:02Z</time>
      </trkpt>
      <trkpt lat="44.90124" lon="0.791">
        <ele>184.6</ele>
        <time>2022-05-15T07:37:03Z</time>
      </trkpt>
      <trkpt lat="44.9013" lon="0.79101">
        <ele>184.9</ele>
        <time>2022-05-15T07:37:05Z</time>
      </trkpt>
      <trkpt lat="44.90137" lon="0.79097">
        <ele>185.2</ele>
        <time>2022-05-15T07:37:07Z</time>
      </trkpt>
      <trkpt lat="44.9014" lon="0.79091">
        <ele>185.4</ele>
        <time>2022-05-15T07:37:09Z</time>
      </trkpt>
      <trkpt lat="44.90142" lon="0.79087">
        <ele>185.5</ele>
        <time>2022-05-15T07:37:10Z</time>
      </trkpt>
      <trkpt lat="44.90144" lon="0.79084">
        <ele>185.6</ele>
        <time>2022-05-15T07:37:11Z</time>
      </trkpt>
      <trkpt lat="44.90147" lon="0.79077">
        <ele>185.8</ele>
        <time>2022-05-15T07:37:13Z</time>
      </trkpt>
      <trkpt lat="44.9015" lon="0.79071">
        <ele>185.9</ele>
        <time>2022-05-15T07:37:15Z</time>
      </trkpt>
      <trkpt lat="44.90154" lon="0.79064">
        <ele>186.1</ele>
        <time>2022-05-15T07:37:17Z</time>
      </trkpt>
      <trkpt lat="44.90157" lon="0.79057">
        <ele>186.3</ele>
        <time>2022-05-15T07:37:19Z</time>
      </trkpt>
      <trkpt lat="44.9016" lon="0.79051">
        <ele>186.4</ele>
        <time>2022-05-15T07:37:21Z</time>
      </trkpt>
      <trkpt lat="44.90164" lon="0.79044">
        <ele>186.6</ele>
        <time>2022-05-15T07:37:23Z</time>
      </trkpt>
      <trkpt lat="44.90167" lon="0.79038">
        <ele>186.7</ele>
        <time>2022-05-15T07:37:25Z</time>
      </trkpt>
      <trkpt lat="44.90168" lon="0.79035">
        <ele>186.8</ele>
        <time>2022-05-15T07:37:26Z</time>
      </trkpt>
      <trkpt lat="44.90172" lon="0.79035">
        <ele>186.8</ele>
        <time>2022-05-15T07:37:27Z</time>
      </trkpt>
      <trkpt lat="44.90177" lon="0.79038">
        <ele>186.9</ele>
        <time>2022-05-15T07:37:29Z</time>
      </trkpt>
      <trkpt lat="44.90182" lon="0.79043">
        <ele>186.9</ele>
        <time>2022-05-15T07:37:31Z</time>
      </trkpt>
      <trkpt lat="44.90187" lon="0.79049">
        <ele>186.9</ele>
        <time>2022-05-15T07:37:33Z</time>
      </trkpt>
      <trkpt lat="44.90193" lon="0.79055">
        <ele>186.8</ele>
        <time>2022-05-15T07:37:35Z</time>
      </trkpt>
      <trkpt lat="44.90196" lon="0.79058">
        <ele>186.7</ele>
        <time>2022-05-15T07:37:36Z</time>
      </trkpt>
      <trkpt lat="44.90199" lon="0.79062">
        <ele>186.5</ele>
        <time>2022-05-15T07:37:37Z</time>
      </trkpt>
      <trkpt lat="44.90207" lon="0.7907">
        <ele>186.2</ele>
        <time>2022-05-15T07:37:39Z</time>
      </trkpt>
      <trkpt lat="44.90216" lon="0.7908">
        <ele>185.8</ele>
        <time>2022-05-15T07:37:41Z</time>
      </trkpt>
      <trkpt lat="44.90223" lon="0.79088">
        <ele>185.6</ele>
        <time>2022-05-15T07:37:43Z</time>
      </trkpt>
      <trkpt lat="44.90225" lon="0.79095">
        <ele>185.5</ele>
        <time>2022-05-15T07:37:44Z</time>
      </trkpt>
      <trkpt lat="44.90223" lon="0.79099">
        <ele>185.4</ele>
        <time>2022-05-15T07:37:45Z</time>
      </trkpt>
      <trkpt lat="44.90219" lon="0.7911">
        <ele>185.4</ele>
        <time>2022-05-15T07:37:47Z</time>
      </trkpt>
      <trkpt lat="44.90216" lon="0.79115">
        <ele>185.4</ele>
        <time>2022-05-15T07:37:48Z</time>
      </trkpt>
      <trkpt lat="44.90214" lon="0.7912">
        <ele>185.4</ele>
        <time>2022-05-15T07:37:49Z</time>
      </trkpt>
      <trkpt lat="44.90212" lon="0.79125">
        <ele>185.4</ele>
        <time>2022-05-15T07:37:50Z</time>
      </trkpt>
      <trkpt lat="44.9021" lon="0.79131">
        <ele>185.4</ele>
        <time>2022-05-15T07:37:51Z</time>
      </trkpt>
      <trkpt lat="44.90208" lon="0.79136">
        <ele>185.4</ele>
        <time>2022-05-15T07:37:52Z</time>
      </trkpt>
      <trkpt lat="44.90205" lon="0.79142">
        <ele>185.4</ele>
        <time>2022-05-15T07:37:53Z</time>
      </trkpt>
      <trkpt lat="44.90201" lon="0.79152">
        <ele>185.4</ele>
        <time>2022-05-15T07:37:55Z</time>
      </trkpt>
      <trkpt lat="44.90197" lon="0.79162">
        <ele>185.4</ele>
        <time>2022-05-15T07:37:57Z</time>
      </trkpt>
      <trkpt lat="44.90193" lon="0.79172">
        <ele>185.5</ele>
        <time>2022-05-15T07:37:59Z</time>
      </trkpt>
      <trkpt lat="44.90192" lon="0.79176">
        <ele>185.5</ele>
        <time>2022-05-15T07:38:00Z</time>
      </trkpt>
      <trkpt lat="44.90192" lon="0.79184">
        <ele>185.5</ele>
        <time>2022-05-15T07:38:01Z</time>
      </trkpt>
      <trkpt lat="44.90197" lon="0.7919">
        <ele>185.6</ele>
        <time>2022-05-15T07:38:03Z</time>
      </trkpt>
      <trkpt lat="44.902" lon="0.79193">
        <ele>185.7</ele>
        <time>2022-05-15T07:38:04Z</time>
      </trkpt>
      <trkpt lat="44.90204" lon="0.79197">
        <ele>185.7</ele>
        <time>2022-05-15T07:38:05Z</time>
      </trkpt>
      <trkpt lat="44.9021" lon="0.79204">
        <ele>185.7</ele>
        <time>2022-05-15T07:38:07Z</time>
      </trkpt>
      <trkpt lat="44.90217" lon="0.79212">
        <ele>185.8</ele>
        <time>2022-05-15T07:38:09Z</time>
      </trkpt>
      <trkpt lat="44.90224" lon="0.7922">
        <ele>186</ele>
        <time>2022-05-15T07:38:11Z</time>
      </trkpt>
      <trkpt lat="44.9023" lon="0.79227">
        <ele>186.2</ele>
        <time>2022-05-15T07:38:13Z</time>
      </trkpt>
      <trkpt lat="44.90236" lon="0.79234">
        <ele>186.3</ele>
        <time>2022-05-15T07:38:15Z</time>
      </trkpt>
      <trkpt lat="44.90244" lon="0.7924">
        <ele>186.4</ele>
        <time>2022-05-15T07:38:17Z</time>
      </trkpt>
      <trkpt lat="44.90251" lon="0.79244">
        <ele>186.4</ele>
        <time>2022-05-15T07:38:19Z</time>
      </trkpt>
      <trkpt lat="44.90258" lon="0.7925">
        <ele>186.4</ele>
        <time>2022-05-15T07:38:21Z</time>
      </trkpt>
      <trkpt lat="44.90266" lon="0.79255">
        <ele>186.3</ele>
        <time>2022-05-15T07:38:23Z</time>
      </trkpt>
      <trkpt lat="44.90271" lon="0.79257">
        <ele>186.2</ele>
        <time>2022-05-15T07:38:24Z</time>
      </trkpt>
      <trkpt lat="44.90275" lon="0.79259">
        <ele>186</ele>
        <time>2022-05-15T07:38:25Z</time>
      </trkpt>
      <trkpt lat="44.90284" lon="0.79263">
        <ele>185.2</ele>
        <time>2022-05-15T07:38:27Z</time>
      </trkpt>
      <trkpt lat="44.90293" lon="0.79267">
        <ele>184</ele>
        <time>2022-05-15T07:38:29Z</time>
      </trkpt>
      <trkpt lat="44.90308" lon="0.79274">
        <ele>182.1</ele>
        <time>2022-05-15T07:38:31Z</time>
      </trkpt>
      <trkpt lat="44.90323" lon="0.79281">
        <ele>180.1</ele>
        <time>2022-05-15T07:38:33Z</time>
      </trkpt>
      <trkpt lat="44.90338" lon="0.7929">
        <ele>177.6</ele>
        <time>2022-05-15T07:38:35Z</time>
      </trkpt>
      <trkpt lat="44.90346" lon="0.79294">
        <ele>176.3</ele>
        <time>2022-05-15T07:38:36Z</time>
      </trkpt>
      <trkpt lat="44.90354" lon="0.79299">
        <ele>175.1</ele>
        <time>2022-05-15T07:38:37Z</time>
      </trkpt>
      <trkpt lat="44.9036" lon="0.79307">
        <ele>174</ele>
        <time>2022-05-15T07:38:38Z</time>
      </trkpt>
      <trkpt lat="44.90366" lon="0.79316">
        <ele>172.9</ele>
        <time>2022-05-15T07:38:39Z</time>
      </trkpt>
      <trkpt lat="44.90372" lon="0.79325">
        <ele>171.9</ele>
        <time>2022-05-15T07:38:40Z</time>
      </trkpt>
      <trkpt lat="44.90379" lon="0.79332">
        <ele>170.9</ele>
        <time>2022-05-15T07:38:41Z</time>
      </trkpt>
      <trkpt lat="44.90391" lon="0.79345">
        <ele>169.1</ele>
        <time>2022-05-15T07:38:43Z</time>
      </trkpt>
      <trkpt lat="44.90396" lon="0.79351">
        <ele>168.3</ele>
        <time>2022-05-15T07:38:44Z</time>
      </trkpt>
      <trkpt lat="44.90402" lon="0.79356">
        <ele>167.2</ele>
        <time>2022-05-15T07:38:45Z</time>
      </trkpt>
      <trkpt lat="44.90414" lon="0.79364">
        <ele>164.9</ele>
        <time>2022-05-15T07:38:47Z</time>
      </trkpt>
      <trkpt lat="44.90427" lon="0.79373">
        <ele>162.1</ele>
        <time>2022-05-15T07:38:49Z</time>
      </trkpt>
      <trkpt lat="44.90434" lon="0.79377">
        <ele>160.7</ele>
        <time>2022-05-15T07:38:50Z</time>
      </trkpt>
      <trkpt lat="44.90441" lon="0.79382">
        <ele>159.3</ele>
        <time>2022-05-15T07:38:51Z</time>
      </trkpt>
      <trkpt lat="44.90457" lon="0.79393">
        <ele>156.3</ele>
        <time>2022-05-15T07:38:53Z</time>
      </trkpt>
      <trkpt lat="44.90466" lon="0.79401">
        <ele>155</ele>
        <time>2022-05-15T07:38:54Z</time>
      </trkpt>
      <trkpt lat="44.90474" lon="0.79408">
        <ele>153.9</ele>
        <time>2022-05-15T07:38:55Z</time>
      </trkpt>
      <trkpt lat="44.90491" lon="0.79422">
        <ele>152.2</ele>
        <time>2022-05-15T07:38:57Z</time>
      </trkpt>
      <trkpt lat="44.90509" lon="0.79433">
        <ele>149.9</ele>
        <time>2022-05-15T07:38:59Z</time>
      </trkpt>
      <trkpt lat="44.90526" lon="0.79443">
        <ele>147.7</ele>
        <time>2022-05-15T07:39:01Z</time>
      </trkpt>
      <trkpt lat="44.90539" lon="0.79451">
        <ele>146.4</ele>
        <time>2022-05-15T07:39:03Z</time>
      </trkpt>
      <trkpt lat="44.90545" lon="0.79454">
        <ele>145.8</ele>
        <time>2022-05-15T07:39:04Z</time>
      </trkpt>
      <trkpt lat="44.9055" lon="0.79457">
        <ele>145.2</ele>
        <time>2022-05-15T07:39:05Z</time>
      </trkpt>
      <trkpt lat="44.90555" lon="0.7946">
        <ele>144.4</ele>
        <time>2022-05-15T07:39:06Z</time>
      </trkpt>
      <trkpt lat="44.90561" lon="0.79463">
        <ele>143.5</ele>
        <time>2022-05-15T07:39:07Z</time>
      </trkpt>
      <trkpt lat="44.90572" lon="0.7947">
        <ele>141</ele>
        <time>2022-05-15T07:39:09Z</time>
      </trkpt>
      <trkpt lat="44.90578" lon="0.79474">
        <ele>139.5</ele>
        <time>2022-05-15T07:39:10Z</time>
      </trkpt>
      <trkpt lat="44.90585" lon="0.79479">
        <ele>138.1</ele>
        <time>2022-05-15T07:39:11Z</time>
      </trkpt>
      <trkpt lat="44.90599" lon="0.79491">
        <ele>136</ele>
        <time>2022-05-15T07:39:13Z</time>
      </trkpt>
      <trkpt lat="44.90606" lon="0.79497">
        <ele>134.9</ele>
        <time>2022-05-15T07:39:14Z</time>
      </trkpt>
      <trkpt lat="44.90613" lon="0.79502">
        <ele>134</ele>
        <time>2022-05-15T07:39:15Z</time>
      </trkpt>
      <trkpt lat="44.90628" lon="0.79512">
        <ele>132.4</ele>
        <time>2022-05-15T07:39:17Z</time>
      </trkpt>
      <trkpt lat="44.90642" lon="0.79522">
        <ele>132.1</ele>
        <time>2022-05-15T07:39:19Z</time>
      </trkpt>
      <trkpt lat="44.90652" lon="0.79529">
        <ele>132.6</ele>
        <time>2022-05-15T07:39:21Z</time>
      </trkpt>
      <trkpt lat="44.90656" lon="0.79532">
        <ele>132.9</ele>
        <time>2022-05-15T07:39:22Z</time>
      </trkpt>
      <trkpt lat="44.90658" lon="0.79534">
        <ele>133.1</ele>
        <time>2022-05-15T07:39:23Z</time>
      </trkpt>
      <trkpt lat="44.90662" lon="0.79539">
        <ele>133.5</ele>
        <time>2022-05-15T07:39:25Z</time>
      </trkpt>
      <trkpt lat="44.90663" lon="0.79541">
        <ele>133.8</ele>
        <time>2022-05-15T07:39:26Z</time>
      </trkpt>
      <trkpt lat="44.90665" lon="0.79543">
        <ele>134</ele>
        <time>2022-05-15T07:39:27Z</time>
      </trkpt>
      <trkpt lat="44.90668" lon="0.79547">
        <ele>134.5</ele>
        <time>2022-05-15T07:39:29Z</time>
      </trkpt>
      <trkpt lat="44.90669" lon="0.7955">
        <ele>134.9</ele>
        <time>2022-05-15T07:39:31Z</time>
      </trkpt>
      <trkpt lat="44.90669" lon="0.79552">
        <ele>135.1</ele>
        <time>2022-05-15T07:39:32Z</time>
      </trkpt>
      <trkpt lat="44.9067" lon="0.79554">
        <ele>135.3</ele>
        <time>2022-05-15T07:39:33Z</time>
      </trkpt>
      <trkpt lat="44.90671" lon="0.79557">
        <ele>135.6</ele>
        <time>2022-05-15T07:39:35Z</time>
      </trkpt>
      <trkpt lat="44.90671" lon="0.79558">
        <ele>135.7</ele>
        <time>2022-05-15T07:39:36Z</time>
      </trkpt>
      <trkpt lat="44.90671" lon="0.79559">
        <ele>135.8</ele>
        <time>2022-05-15T07:39:37Z</time>
      </trkpt>
      <trkpt lat="44.90672" lon="0.79563">
        <ele>136.2</ele>
        <time>2022-05-15T07:39:39Z</time>
      </trkpt>
      <trkpt lat="44.90673" lon="0.79564">
        <ele>136.4</ele>
        <time>2022-05-15T07:39:40Z</time>
      </trkpt>
      <trkpt lat="44.90673" lon="0.79566">
        <ele>136.6</ele>
        <time>2022-05-15T07:39:41Z</time>
      </trkpt>
      <trkpt lat="44.90674" lon="0.79569">
        <ele>136.9</ele>
        <time>2022-05-15T07:39:42Z</time>
      </trkpt>
      <trkpt lat="44.90674" lon="0.79571">
        <ele>137.1</ele>
        <time>2022-05-15T07:39:43Z</time>
      </trkpt>
      <trkpt lat="44.90676" lon="0.79576">
        <ele>137.7</ele>
        <time>2022-05-15T07:39:45Z</time>
      </trkpt>
      <trkpt lat="44.90677" lon="0.79581">
        <ele>138.3</ele>
        <time>2022-05-15T07:39:47Z</time>
      </trkpt>
      <trkpt lat="44.90678" lon="0.79583">
        <ele>138.5</ele>
        <time>2022-05-15T07:39:48Z</time>
      </trkpt>
      <trkpt lat="44.90679" lon="0.79586">
        <ele>138.8</ele>
        <time>2022-05-15T07:39:49Z</time>
      </trkpt>
      <trkpt lat="44.90679" lon="0.79588">
        <ele>139</ele>
        <time>2022-05-15T07:39:50Z</time>
      </trkpt>
      <trkpt lat="44.9068" lon="0.7959">
        <ele>139.3</ele>
        <time>2022-05-15T07:39:51Z</time>
      </trkpt>
      <trkpt lat="44.90682" lon="0.79594">
        <ele>139.8</ele>
        <time>2022-05-15T07:39:53Z</time>
      </trkpt>
      <trkpt lat="44.90683" lon="0.79598">
        <ele>140.3</ele>
        <time>2022-05-15T07:39:55Z</time>
      </trkpt>
      <trkpt lat="44.90685" lon="0.79602">
        <ele>140.8</ele>
        <time>2022-05-15T07:39:57Z</time>
      </trkpt>
      <trkpt lat="44.90686" lon="0.79604">
        <ele>141</ele>
        <time>2022-05-15T07:39:58Z</time>
      </trkpt>
      <trkpt lat="44.90686" lon="0.79605">
        <ele>141.2</ele>
        <time>2022-05-15T07:39:59Z</time>
      </trkpt>
      <trkpt lat="44.90688" lon="0.79609">
        <ele>141.7</ele>
        <time>2022-05-15T07:40:01Z</time>
      </trkpt>
      <trkpt lat="44.90689" lon="0.79612">
        <ele>142.1</ele>
        <time>2022-05-15T07:40:03Z</time>
      </trkpt>
      <trkpt lat="44.9069" lon="0.79615">
        <ele>142.5</ele>
        <time>2022-05-15T07:40:05Z</time>
      </trkpt>
      <trkpt lat="44.90691" lon="0.79618">
        <ele>142.7</ele>
        <time>2022-05-15T07:40:07Z</time>
      </trkpt>
      <trkpt lat="44.90692" lon="0.79619">
        <ele>142.9</ele>
        <time>2022-05-15T07:40:08Z</time>
      </trkpt>
      <trkpt lat="44.90692" lon="0.7962">
        <ele>143</ele>
        <time>2022-05-15T07:40:09Z</time>
      </trkpt>
      <trkpt lat="44.90693" lon="0.79624">
        <ele>143.4</ele>
        <time>2022-05-15T07:40:11Z</time>
      </trkpt>
      <trkpt lat="44.90695" lon="0.79627">
        <ele>143.8</ele>
        <time>2022-05-15T07:40:13Z</time>
      </trkpt>
      <trkpt lat="44.90696" lon="0.7963">
        <ele>144.1</ele>
        <time>2022-05-15T07:40:14Z</time>
      </trkpt>
      <trkpt lat="44.90697" lon="0.79631">
        <ele>144.3</ele>
        <time>2022-05-15T07:40:15Z</time>
      </trkpt>
      <trkpt lat="44.90698" lon="0.79635">
        <ele>144.7</ele>
        <time>2022-05-15T07:40:17Z</time>
      </trkpt>
      <trkpt lat="44.907" lon="0.79639">
        <ele>145.3</ele>
        <time>2022-05-15T07:40:19Z</time>
      </trkpt>
      <trkpt lat="44.90701" lon="0.79643">
        <ele>145.7</ele>
        <time>2022-05-15T07:40:21Z</time>
      </trkpt>
      <trkpt lat="44.90703" lon="0.79647">
        <ele>146.1</ele>
        <time>2022-05-15T07:40:23Z</time>
      </trkpt>
      <trkpt lat="44.90703" lon="0.79649">
        <ele>146.3</ele>
        <time>2022-05-15T07:40:24Z</time>
      </trkpt>
      <trkpt lat="44.90704" lon="0.79651">
        <ele>146.5</ele>
        <time>2022-05-15T07:40:25Z</time>
      </trkpt>
      <trkpt lat="44.90706" lon="0.79655">
        <ele>147</ele>
        <time>2022-05-15T07:40:27Z</time>
      </trkpt>
      <trkpt lat="44.90706" lon="0.79657">
        <ele>147.2</ele>
        <time>2022-05-15T07:40:28Z</time>
      </trkpt>
      <trkpt lat="44.90707" lon="0.79658">
        <ele>147.4</ele>
        <time>2022-05-15T07:40:29Z</time>
      </trkpt>
      <trkpt lat="44.90708" lon="0.79661">
        <ele>147.7</ele>
        <time>2022-05-15T07:40:31Z</time>
      </trkpt>
      <trkpt lat="44.90709" lon="0.79664">
        <ele>148.1</ele>
        <time>2022-05-15T07:40:33Z</time>
      </trkpt>
      <trkpt lat="44.90711" lon="0.79668">
        <ele>148.5</ele>
        <time>2022-05-15T07:40:35Z</time>
      </trkpt>
      <trkpt lat="44.90712" lon="0.7967">
        <ele>148.9</ele>
        <time>2022-05-15T07:40:37Z</time>
      </trkpt>
      <trkpt lat="44.90713" lon="0.79672">
        <ele>149</ele>
        <time>2022-05-15T07:40:38Z</time>
      </trkpt>
      <trkpt lat="44.90713" lon="0.79672">
        <ele>149</ele>
        <time>2022-05-15T07:40:39Z</time>
      </trkpt>
      <trkpt lat="44.90714" lon="0.79673">
        <ele>149.2</ele>
        <time>2022-05-15T07:40:40Z</time>
      </trkpt>
      <trkpt lat="44.90715" lon="0.79674">
        <ele>149.4</ele>
        <time>2022-05-15T07:40:41Z</time>
      </trkpt>
      <trkpt lat="44.90716" lon="0.79677">
        <ele>149.7</ele>
        <time>2022-05-15T07:40:43Z</time>
      </trkpt>
      <trkpt lat="44.90718" lon="0.7968">
        <ele>150.2</ele>
        <time>2022-05-15T07:40:45Z</time>
      </trkpt>
      <trkpt lat="44.90719" lon="0.79683">
        <ele>150.5</ele>
        <time>2022-05-15T07:40:47Z</time>
      </trkpt>
      <trkpt lat="44.90721" lon="0.79686">
        <ele>150.9</ele>
        <time>2022-05-15T07:40:49Z</time>
      </trkpt>
      <trkpt lat="44.90723" lon="0.79689">
        <ele>151.3</ele>
        <time>2022-05-15T07:40:51Z</time>
      </trkpt>
      <trkpt lat="44.90725" lon="0.79692">
        <ele>151.8</ele>
        <time>2022-05-15T07:40:53Z</time>
      </trkpt>
      <trkpt lat="44.90726" lon="0.79694">
        <ele>152</ele>
        <time>2022-05-15T07:40:54Z</time>
      </trkpt>
      <trkpt lat="44.90726" lon="0.79694">
        <ele>152</ele>
        <time>2022-05-15T07:40:55Z</time>
      </trkpt>
      <trkpt lat="44.90727" lon="0.79696">
        <ele>152.3</ele>
        <time>2022-05-15T07:40:57Z</time>
      </trkpt>
      <trkpt lat="44.90729" lon="0.79699">
        <ele>152.7</ele>
        <time>2022-05-15T07:40:58Z</time>
      </trkpt>
      <trkpt lat="44.90729" lon="0.79701">
        <ele>152.8</ele>
        <time>2022-05-15T07:40:59Z</time>
      </trkpt>
      <trkpt lat="44.9073" lon="0.79704">
        <ele>153.2</ele>
        <time>2022-05-15T07:41:01Z</time>
      </trkpt>
      <trkpt lat="44.90732" lon="0.79707">
        <ele>153.5</ele>
        <time>2022-05-15T07:41:03Z</time>
      </trkpt>
      <trkpt lat="44.90732" lon="0.79709">
        <ele>153.7</ele>
        <time>2022-05-15T07:41:04Z</time>
      </trkpt>
      <trkpt lat="44.90733" lon="0.7971">
        <ele>153.8</ele>
        <time>2022-05-15T07:41:05Z</time>
      </trkpt>
      <trkpt lat="44.90734" lon="0.79714">
        <ele>154.1</ele>
        <time>2022-05-15T07:41:07Z</time>
      </trkpt>
      <trkpt lat="44.90735" lon="0.79716">
        <ele>154.2</ele>
        <time>2022-05-15T07:41:08Z</time>
      </trkpt>
      <trkpt lat="44.90735" lon="0.79716">
        <ele>154.2</ele>
        <time>2022-05-15T07:41:09Z</time>
      </trkpt>
      <trkpt lat="44.90737" lon="0.79722">
        <ele>154.8</ele>
        <time>2022-05-15T07:41:11Z</time>
      </trkpt>
      <trkpt lat="44.90738" lon="0.79725">
        <ele>155</ele>
        <time>2022-05-15T07:41:13Z</time>
      </trkpt>
      <trkpt lat="44.90739" lon="0.79727">
        <ele>155.2</ele>
        <time>2022-05-15T07:41:14Z</time>
      </trkpt>
      <trkpt lat="44.90739" lon="0.79729">
        <ele>155.4</ele>
        <time>2022-05-15T07:41:15Z</time>
      </trkpt>
      <trkpt lat="44.9074" lon="0.7973">
        <ele>155.5</ele>
        <time>2022-05-15T07:41:16Z</time>
      </trkpt>
      <trkpt lat="44.90741" lon="0.79732">
        <ele>155.6</ele>
        <time>2022-05-15T07:41:17Z</time>
      </trkpt>
      <trkpt lat="44.90741" lon="0.79734">
        <ele>155.8</ele>
        <time>2022-05-15T07:41:18Z</time>
      </trkpt>
      <trkpt lat="44.90742" lon="0.79736">
        <ele>155.9</ele>
        <time>2022-05-15T07:41:19Z</time>
      </trkpt>
      <trkpt lat="44.90743" lon="0.79739">
        <ele>156.2</ele>
        <time>2022-05-15T07:41:21Z</time>
      </trkpt>
      <trkpt lat="44.90745" lon="0.79743">
        <ele>156.5</ele>
        <time>2022-05-15T07:41:23Z</time>
      </trkpt>
      <trkpt lat="44.90746" lon="0.79748">
        <ele>156.9</ele>
        <time>2022-05-15T07:41:25Z</time>
      </trkpt>
      <trkpt lat="44.90747" lon="0.79753">
        <ele>157.2</ele>
        <time>2022-05-15T07:41:27Z</time>
      </trkpt>
      <trkpt lat="44.90747" lon="0.79757">
        <ele>157.6</ele>
        <time>2022-05-15T07:41:29Z</time>
      </trkpt>
      <trkpt lat="44.90748" lon="0.79759">
        <ele>157.7</ele>
        <time>2022-05-15T07:41:30Z</time>
      </trkpt>
      <trkpt lat="44.90748" lon="0.7976">
        <ele>157.8</ele>
        <time>2022-05-15T07:41:31Z</time>
      </trkpt>
      <trkpt lat="44.90748" lon="0.79764">
        <ele>158</ele>
        <time>2022-05-15T07:41:33Z</time>
      </trkpt>
      <trkpt lat="44.90749" lon="0.79768">
        <ele>158.3</ele>
        <time>2022-05-15T07:41:35Z</time>
      </trkpt>
      <trkpt lat="44.9075" lon="0.79772">
        <ele>158.6</ele>
        <time>2022-05-15T07:41:37Z</time>
      </trkpt>
      <trkpt lat="44.90751" lon="0.79777">
        <ele>159</ele>
        <time>2022-05-15T07:41:39Z</time>
      </trkpt>
      <trkpt lat="44.90751" lon="0.79779">
        <ele>159.1</ele>
        <time>2022-05-15T07:41:40Z</time>
      </trkpt>
      <trkpt lat="44.90751" lon="0.79781">
        <ele>159.3</ele>
        <time>2022-05-15T07:41:41Z</time>
      </trkpt>
      <trkpt lat="44.90752" lon="0.79783">
        <ele>159.5</ele>
        <time>2022-05-15T07:41:42Z</time>
      </trkpt>
      <trkpt lat="44.90752" lon="0.79785">
        <ele>159.6</ele>
        <time>2022-05-15T07:41:43Z</time>
      </trkpt>
      <trkpt lat="44.90753" lon="0.79788">
        <ele>159.9</ele>
        <time>2022-05-15T07:41:45Z</time>
      </trkpt>
      <trkpt lat="44.90753" lon="0.79791">
        <ele>160.1</ele>
        <time>2022-05-15T07:41:46Z</time>
      </trkpt>
      <trkpt lat="44.90753" lon="0.79793">
        <ele>160.3</ele>
        <time>2022-05-15T07:41:47Z</time>
      </trkpt>
      <trkpt lat="44.90754" lon="0.79797">
        <ele>160.7</ele>
        <time>2022-05-15T07:41:49Z</time>
      </trkpt>
      <trkpt lat="44.90754" lon="0.79799">
        <ele>160.9</ele>
        <time>2022-05-15T07:41:50Z</time>
      </trkpt>
      <trkpt lat="44.90754" lon="0.79799">
        <ele>160.9</ele>
        <time>2022-05-15T07:41:51Z</time>
      </trkpt>
      <trkpt lat="44.90755" lon="0.79803">
        <ele>161.2</ele>
        <time>2022-05-15T07:41:52Z</time>
      </trkpt>
      <trkpt lat="44.90755" lon="0.79805">
        <ele>161.4</ele>
        <time>2022-05-15T07:41:53Z</time>
      </trkpt>
      <trkpt lat="44.90756" lon="0.79807">
        <ele>161.6</ele>
        <time>2022-05-15T07:41:54Z</time>
      </trkpt>
      <trkpt lat="44.90756" lon="0.79809">
        <ele>161.8</ele>
        <time>2022-05-15T07:41:55Z</time>
      </trkpt>
      <trkpt lat="44.90756" lon="0.79811">
        <ele>162</ele>
        <time>2022-05-15T07:41:56Z</time>
      </trkpt>
      <trkpt lat="44.90757" lon="0.79813">
        <ele>162.2</ele>
        <time>2022-05-15T07:41:57Z</time>
      </trkpt>
      <trkpt lat="44.90757" lon="0.79817">
        <ele>162.6</ele>
        <time>2022-05-15T07:41:59Z</time>
      </trkpt>
      <trkpt lat="44.90757" lon="0.79817">
        <ele>162.6</ele>
        <time>2022-05-15T07:42:00Z</time>
      </trkpt>
      <trkpt lat="44.90758" lon="0.79821">
        <ele>162.9</ele>
        <time>2022-05-15T07:42:01Z</time>
      </trkpt>
      <trkpt lat="44.90759" lon="0.79825">
        <ele>163.2</ele>
        <time>2022-05-15T07:42:03Z</time>
      </trkpt>
      <trkpt lat="44.90759" lon="0.79829">
        <ele>163.5</ele>
        <time>2022-05-15T07:42:05Z</time>
      </trkpt>
      <trkpt lat="44.9076" lon="0.79832">
        <ele>163.8</ele>
        <time>2022-05-15T07:42:07Z</time>
      </trkpt>
      <trkpt lat="44.9076" lon="0.79835">
        <ele>164.1</ele>
        <time>2022-05-15T07:42:09Z</time>
      </trkpt>
      <trkpt lat="44.90761" lon="0.7984">
        <ele>164.5</ele>
        <time>2022-05-15T07:42:11Z</time>
      </trkpt>
      <trkpt lat="44.90763" lon="0.79845">
        <ele>164.9</ele>
        <time>2022-05-15T07:42:13Z</time>
      </trkpt>
      <trkpt lat="44.90763" lon="0.79848">
        <ele>165.1</ele>
        <time>2022-05-15T07:42:15Z</time>
      </trkpt>
      <trkpt lat="44.90764" lon="0.79851">
        <ele>165.4</ele>
        <time>2022-05-15T07:42:16Z</time>
      </trkpt>
      <trkpt lat="44.90764" lon="0.79853">
        <ele>165.6</ele>
        <time>2022-05-15T07:42:17Z</time>
      </trkpt>
      <trkpt lat="44.90765" lon="0.79857">
        <ele>165.9</ele>
        <time>2022-05-15T07:42:19Z</time>
      </trkpt>
      <trkpt lat="44.90765" lon="0.79859">
        <ele>166.1</ele>
        <time>2022-05-15T07:42:20Z</time>
      </trkpt>
      <trkpt lat="44.90766" lon="0.79861">
        <ele>166.3</ele>
        <time>2022-05-15T07:42:21Z</time>
      </trkpt>
      <trkpt lat="44.90767" lon="0.79865">
        <ele>166.6</ele>
        <time>2022-05-15T07:42:23Z</time>
      </trkpt>
      <trkpt lat="44.90767" lon="0.79867">
        <ele>166.8</ele>
        <time>2022-05-15T07:42:24Z</time>
      </trkpt>
      <trkpt lat="44.90768" lon="0.79869">
        <ele>166.9</ele>
        <time>2022-05-15T07:42:25Z</time>
      </trkpt>
      <trkpt lat="44.90768" lon="0.79871">
        <ele>167.1</ele>
        <time>2022-05-15T07:42:26Z</time>
      </trkpt>
      <trkpt lat="44.90769" lon="0.79874">
        <ele>167.3</ele>
        <time>2022-05-15T07:42:27Z</time>
      </trkpt>
      <trkpt lat="44.90769" lon="0.79876">
        <ele>167.5</ele>
        <time>2022-05-15T07:42:28Z</time>
      </trkpt>
      <trkpt lat="44.90769" lon="0.79876">
        <ele>167.5</ele>
        <time>2022-05-15T07:42:29Z</time>
      </trkpt>
      <trkpt lat="44.9077" lon="0.7988">
        <ele>167.8</ele>
        <time>2022-05-15T07:42:30Z</time>
      </trkpt>
      <trkpt lat="44.90771" lon="0.79883">
        <ele>168.1</ele>
        <time>2022-05-15T07:42:31Z</time>
      </trkpt>
      <trkpt lat="44.90771" lon="0.79886">
        <ele>168</ele>
        <time>2022-05-15T07:42:32Z</time>
      </trkpt>
      <trkpt lat="44.90772" lon="0.79888">
        <ele>167.9</ele>
        <time>2022-05-15T07:42:33Z</time>
      </trkpt>
      <trkpt lat="44.90775" lon="0.79894">
        <ele>167.6</ele>
        <time>2022-05-15T07:42:35Z</time>
      </trkpt>
      <trkpt lat="44.90777" lon="0.79894">
        <ele>167.5</ele>
        <time>2022-05-15T07:42:36Z</time>
      </trkpt>
      <trkpt lat="44.90779" lon="0.79895">
        <ele>167.4</ele>
        <time>2022-05-15T07:42:37Z</time>
      </trkpt>
      <trkpt lat="44.90779" lon="0.79893">
        <ele>167.4</ele>
        <time>2022-05-15T07:42:39Z</time>
      </trkpt>
      <trkpt lat="44.90773" lon="0.79895">
        <ele>167</ele>
        <time>2022-05-15T07:42:40Z</time>
      </trkpt>
      <trkpt lat="44.90773" lon="0.79893">
        <ele>167</ele>
        <time>2022-05-15T07:42:41Z</time>
      </trkpt>
      <trkpt lat="44.90772" lon="0.79888">
        <ele>166.8</ele>
        <time>2022-05-15T07:42:43Z</time>
      </trkpt>
      <trkpt lat="44.90771" lon="0.79886">
        <ele>166.7</ele>
        <time>2022-05-15T07:42:44Z</time>
      </trkpt>
      <trkpt lat="44.90771" lon="0.79883">
        <ele>166.6</ele>
        <time>2022-05-15T07:42:45Z</time>
      </trkpt>
      <trkpt lat="44.9077" lon="0.79878">
        <ele>166.4</ele>
        <time>2022-05-15T07:42:47Z</time>
      </trkpt>
      <trkpt lat="44.90768" lon="0.79873">
        <ele>166.2</ele>
        <time>2022-05-15T07:42:49Z</time>
      </trkpt>
      <trkpt lat="44.90768" lon="0.7987">
        <ele>166.1</ele>
        <time>2022-05-15T07:42:50Z</time>
      </trkpt>
      <trkpt lat="44.90767" lon="0.79867">
        <ele>165.9</ele>
        <time>2022-05-15T07:42:51Z</time>
      </trkpt>
      <trkpt lat="44.90766" lon="0.79861">
        <ele>165.7</ele>
        <time>2022-05-15T07:42:53Z</time>
      </trkpt>
      <trkpt lat="44.90764" lon="0.79854">
        <ele>165.5</ele>
        <time>2022-05-15T07:42:55Z</time>
      </trkpt>
      <trkpt lat="44.90764" lon="0.79851">
        <ele>165.3</ele>
        <time>2022-05-15T07:42:56Z</time>
      </trkpt>
      <trkpt lat="44.90763" lon="0.79848">
        <ele>165.2</ele>
        <time>2022-05-15T07:42:57Z</time>
      </trkpt>
      <trkpt lat="44.90762" lon="0.79843">
        <ele>166.4</ele>
        <time>2022-05-15T07:42:59Z</time>
      </trkpt>
      <trkpt lat="44.90761" lon="0.79837">
        <ele>167.8</ele>
        <time>2022-05-15T07:43:01Z</time>
      </trkpt>
      <trkpt lat="44.90773" lon="0.79829">
        <ele>170</ele>
        <time>2022-05-15T07:43:02Z</time>
      </trkpt>
      <trkpt lat="44.90785" lon="0.79821">
        <ele>171.8</ele>
        <time>2022-05-15T07:43:03Z</time>
      </trkpt>
      <trkpt lat="44.90784" lon="0.79813">
        <ele>171.9</ele>
        <time>2022-05-15T07:43:05Z</time>
      </trkpt>
      <trkpt lat="44.90785" lon="0.79809">
        <ele>172</ele>
        <time>2022-05-15T07:43:06Z</time>
      </trkpt>
      <trkpt lat="44.90786" lon="0.79804">
        <ele>172</ele>
        <time>2022-05-15T07:43:07Z</time>
      </trkpt>
      <trkpt lat="44.90789" lon="0.79798">
        <ele>172.1</ele>
        <time>2022-05-15T07:43:09Z</time>
      </trkpt>
      <trkpt lat="44.9079" lon="0.79794">
        <ele>172.1</ele>
        <time>2022-05-15T07:43:10Z</time>
      </trkpt>
      <trkpt lat="44.90792" lon="0.79791">
        <ele>172.1</ele>
        <time>2022-05-15T07:43:11Z</time>
      </trkpt>
      <trkpt lat="44.90794" lon="0.79784">
        <ele>172.2</ele>
        <time>2022-05-15T07:43:13Z</time>
      </trkpt>
      <trkpt lat="44.90801" lon="0.79779">
        <ele>172.2</ele>
        <time>2022-05-15T07:43:15Z</time>
      </trkpt>
      <trkpt lat="44.90801" lon="0.79774">
        <ele>172.2</ele>
        <time>2022-05-15T07:43:17Z</time>
      </trkpt>
      <trkpt lat="44.90803" lon="0.79767">
        <ele>172.3</ele>
        <time>2022-05-15T07:43:19Z</time>
      </trkpt>
      <trkpt lat="44.90803" lon="0.79763">
        <ele>172.3</ele>
        <time>2022-05-15T07:43:20Z</time>
      </trkpt>
      <trkpt lat="44.90804" lon="0.79759">
        <ele>172.3</ele>
        <time>2022-05-15T07:43:21Z</time>
      </trkpt>
      <trkpt lat="44.90806" lon="0.7975">
        <ele>172.3</ele>
        <time>2022-05-15T07:43:23Z</time>
      </trkpt>
      <trkpt lat="44.90808" lon="0.79742">
        <ele>172.3</ele>
        <time>2022-05-15T07:43:25Z</time>
      </trkpt>
      <trkpt lat="44.90809" lon="0.79738">
        <ele>172.3</ele>
        <time>2022-05-15T07:43:26Z</time>
      </trkpt>
      <trkpt lat="44.9081" lon="0.79734">
        <ele>172.3</ele>
        <time>2022-05-15T07:43:27Z</time>
      </trkpt>
      <trkpt lat="44.90812" lon="0.79725">
        <ele>172.3</ele>
        <time>2022-05-15T07:43:29Z</time>
      </trkpt>
      <trkpt lat="44.90812" lon="0.79721">
        <ele>172.3</ele>
        <time>2022-05-15T07:43:30Z</time>
      </trkpt>
      <trkpt lat="44.90812" lon="0.79717">
        <ele>172.3</ele>
        <time>2022-05-15T07:43:31Z</time>
      </trkpt>
      <trkpt lat="44.90811" lon="0.79711">
        <ele>172.4</ele>
        <time>2022-05-15T07:43:33Z</time>
      </trkpt>
      <trkpt lat="44.90809" lon="0.79702">
        <ele>172.4</ele>
        <time>2022-05-15T07:43:35Z</time>
      </trkpt>
      <trkpt lat="44.90807" lon="0.79694">
        <ele>172.5</ele>
        <time>2022-05-15T07:43:37Z</time>
      </trkpt>
      <trkpt lat="44.90804" lon="0.79685">
        <ele>172.5</ele>
        <time>2022-05-15T07:43:39Z</time>
      </trkpt>
      <trkpt lat="44.90801" lon="0.79677">
        <ele>172.7</ele>
        <time>2022-05-15T07:43:41Z</time>
      </trkpt>
      <trkpt lat="44.90799" lon="0.79668">
        <ele>173</ele>
        <time>2022-05-15T07:43:43Z</time>
      </trkpt>
      <trkpt lat="44.90796" lon="0.7966">
        <ele>173.3</ele>
        <time>2022-05-15T07:43:45Z</time>
      </trkpt>
      <trkpt lat="44.90794" lon="0.79652">
        <ele>173.7</ele>
        <time>2022-05-15T07:43:47Z</time>
      </trkpt>
      <trkpt lat="44.90791" lon="0.79643">
        <ele>174.1</ele>
        <time>2022-05-15T07:43:49Z</time>
      </trkpt>
      <trkpt lat="44.90788" lon="0.79633">
        <ele>174.5</ele>
        <time>2022-05-15T07:43:51Z</time>
      </trkpt>
      <trkpt lat="44.90787" lon="0.79628">
        <ele>174.7</ele>
        <time>2022-05-15T07:43:52Z</time>
      </trkpt>
      <trkpt lat="44.90786" lon="0.79623">
        <ele>174.8</ele>
        <time>2022-05-15T07:43:53Z</time>
      </trkpt>
      <trkpt lat="44.90784" lon="0.79614">
        <ele>175.2</ele>
        <time>2022-05-15T07:43:55Z</time>
      </trkpt>
      <trkpt lat="44.90783" lon="0.79604">
        <ele>175.5</ele>
        <time>2022-05-15T07:43:57Z</time>
      </trkpt>
      <trkpt lat="44.90783" lon="0.79596">
        <ele>175.8</ele>
        <time>2022-05-15T07:43:59Z</time>
      </trkpt>
      <trkpt lat="44.90783" lon="0.79592">
        <ele>175.9</ele>
        <time>2022-05-15T07:44:00Z</time>
      </trkpt>
      <trkpt lat="44.90782" lon="0.79587">
        <ele>176</ele>
        <time>2022-05-15T07:44:01Z</time>
      </trkpt>
      <trkpt lat="44.90782" lon="0.79579">
        <ele>176.3</ele>
        <time>2022-05-15T07:44:03Z</time>
      </trkpt>
      <trkpt lat="44.90781" lon="0.7957">
        <ele>176.6</ele>
        <time>2022-05-15T07:44:05Z</time>
      </trkpt>
      <trkpt lat="44.90781" lon="0.79561">
        <ele>177</ele>
        <time>2022-05-15T07:44:07Z</time>
      </trkpt>
      <trkpt lat="44.9078" lon="0.79553">
        <ele>177.3</ele>
        <time>2022-05-15T07:44:09Z</time>
      </trkpt>
      <trkpt lat="44.9078" lon="0.79544">
        <ele>177.6</ele>
        <time>2022-05-15T07:44:11Z</time>
      </trkpt>
      <trkpt lat="44.90781" lon="0.79535">
        <ele>177.9</ele>
        <time>2022-05-15T07:44:13Z</time>
      </trkpt>
      <trkpt lat="44.90784" lon="0.79527">
        <ele>178.2</ele>
        <time>2022-05-15T07:44:15Z</time>
      </trkpt>
      <trkpt lat="44.90789" lon="0.79521">
        <ele>178.5</ele>
        <time>2022-05-15T07:44:17Z</time>
      </trkpt>
      <trkpt lat="44.90791" lon="0.79518">
        <ele>178.6</ele>
        <time>2022-05-15T07:44:18Z</time>
      </trkpt>
      <trkpt lat="44.90793" lon="0.79515">
        <ele>178.7</ele>
        <time>2022-05-15T07:44:19Z</time>
      </trkpt>
      <trkpt lat="44.90798" lon="0.79508">
        <ele>179.1</ele>
        <time>2022-05-15T07:44:21Z</time>
      </trkpt>
      <trkpt lat="44.90802" lon="0.79502">
        <ele>179.4</ele>
        <time>2022-05-15T07:44:23Z</time>
      </trkpt>
      <trkpt lat="44.90805" lon="0.79499">
        <ele>179.6</ele>
        <time>2022-05-15T07:44:24Z</time>
      </trkpt>
      <trkpt lat="44.90807" lon="0.79496">
        <ele>179.8</ele>
        <time>2022-05-15T07:44:25Z</time>
      </trkpt>
      <trkpt lat="44.90812" lon="0.79489">
        <ele>180.3</ele>
        <time>2022-05-15T07:44:27Z</time>
      </trkpt>
      <trkpt lat="44.90817" lon="0.79483">
        <ele>180.8</ele>
        <time>2022-05-15T07:44:29Z</time>
      </trkpt>
      <trkpt lat="44.90821" lon="0.79478">
        <ele>181.1</ele>
        <time>2022-05-15T07:44:31Z</time>
      </trkpt>
      <trkpt lat="44.90825" lon="0.79474">
        <ele>181.3</ele>
        <time>2022-05-15T07:44:33Z</time>
      </trkpt>
      <trkpt lat="44.9083" lon="0.79469">
        <ele>181.6</ele>
        <time>2022-05-15T07:44:35Z</time>
      </trkpt>
      <trkpt lat="44.90834" lon="0.79464">
        <ele>182</ele>
        <time>2022-05-15T07:44:37Z</time>
      </trkpt>
      <trkpt lat="44.90839" lon="0.79455">
        <ele>182.4</ele>
        <time>2022-05-15T07:44:39Z</time>
      </trkpt>
      <trkpt lat="44.90841" lon="0.79451">
        <ele>182.6</ele>
        <time>2022-05-15T07:44:40Z</time>
      </trkpt>
      <trkpt lat="44.90842" lon="0.79447">
        <ele>182.8</ele>
        <time>2022-05-15T07:44:41Z</time>
      </trkpt>
      <trkpt lat="44.90844" lon="0.79439">
        <ele>183</ele>
        <time>2022-05-15T07:44:43Z</time>
      </trkpt>
      <trkpt lat="44.90845" lon="0.79435">
        <ele>183.2</ele>
        <time>2022-05-15T07:44:44Z</time>
      </trkpt>
      <trkpt lat="44.90846" lon="0.7943">
        <ele>183.4</ele>
        <time>2022-05-15T07:44:45Z</time>
      </trkpt>
      <trkpt lat="44.90847" lon="0.7942">
        <ele>183.9</ele>
        <time>2022-05-15T07:44:47Z</time>
      </trkpt>
      <trkpt lat="44.90849" lon="0.79412">
        <ele>184.2</ele>
        <time>2022-05-15T07:44:49Z</time>
      </trkpt>
      <trkpt lat="44.90849" lon="0.79408">
        <ele>184.4</ele>
        <time>2022-05-15T07:44:50Z</time>
      </trkpt>
      <trkpt lat="44.9085" lon="0.79404">
        <ele>184.6</ele>
        <time>2022-05-15T07:44:51Z</time>
      </trkpt>
      <trkpt lat="44.90851" lon="0.79398">
        <ele>185</ele>
        <time>2022-05-15T07:44:53Z</time>
      </trkpt>
      <trkpt lat="44.90852" lon="0.79394">
        <ele>185.1</ele>
        <time>2022-05-15T07:44:54Z</time>
      </trkpt>
      <trkpt lat="44.90852" lon="0.79391">
        <ele>185.2</ele>
        <time>2022-05-15T07:44:55Z</time>
      </trkpt>
      <trkpt lat="44.90853" lon="0.79383">
        <ele>185.6</ele>
        <time>2022-05-15T07:44:57Z</time>
      </trkpt>
      <trkpt lat="44.90854" lon="0.79379">
        <ele>185.8</ele>
        <time>2022-05-15T07:44:58Z</time>
      </trkpt>
      <trkpt lat="44.90855" lon="0.79374">
        <ele>186</ele>
        <time>2022-05-15T07:44:59Z</time>
      </trkpt>
      <trkpt lat="44.90856" lon="0.79365">
        <ele>186.3</ele>
        <time>2022-05-15T07:45:01Z</time>
      </trkpt>
      <trkpt lat="44.90858" lon="0.79352">
        <ele>186.7</ele>
        <time>2022-05-15T07:45:03Z</time>
      </trkpt>
      <trkpt lat="44.9086" lon="0.79343">
        <ele>186.9</ele>
        <time>2022-05-15T07:45:05Z</time>
      </trkpt>
      <trkpt lat="44.9086" lon="0.7934">
        <ele>186.9</ele>
        <time>2022-05-15T07:45:06Z</time>
      </trkpt>
      <trkpt lat="44.90861" lon="0.79334">
        <ele>187.1</ele>
        <time>2022-05-15T07:45:07Z</time>
      </trkpt>
      <trkpt lat="44.90863" lon="0.79325">
        <ele>187.2</ele>
        <time>2022-05-15T07:45:09Z</time>
      </trkpt>
      <trkpt lat="44.90863" lon="0.79321">
        <ele>187.3</ele>
        <time>2022-05-15T07:45:10Z</time>
      </trkpt>
      <trkpt lat="44.90864" lon="0.79316">
        <ele>187.4</ele>
        <time>2022-05-15T07:45:11Z</time>
      </trkpt>
      <trkpt lat="44.90866" lon="0.79307">
        <ele>187.6</ele>
        <time>2022-05-15T07:45:13Z</time>
      </trkpt>
      <trkpt lat="44.90867" lon="0.79298">
        <ele>187.8</ele>
        <time>2022-05-15T07:45:15Z</time>
      </trkpt>
      <trkpt lat="44.90868" lon="0.79294">
        <ele>187.8</ele>
        <time>2022-05-15T07:45:16Z</time>
      </trkpt>
      <trkpt lat="44.90869" lon="0.79289">
        <ele>187.9</ele>
        <time>2022-05-15T07:45:17Z</time>
      </trkpt>
      <trkpt lat="44.9087" lon="0.79282">
        <ele>188</ele>
        <time>2022-05-15T07:45:19Z</time>
      </trkpt>
      <trkpt lat="44.9087" lon="0.79282">
        <ele>188</ele>
        <time>2022-05-15T07:45:20Z</time>
      </trkpt>
      <trkpt lat="44.9087" lon="0.79282">
        <ele>188</ele>
        <time>2022-05-15T07:45:21Z</time>
      </trkpt>
      <trkpt lat="44.9087" lon="0.79282">
        <ele>188</ele>
        <time>2022-05-15T07:45:22Z</time>
      </trkpt>
      <trkpt lat="44.90874" lon="0.79275">
        <ele>188.2</ele>
        <time>2022-05-15T07:49:59Z</time>
      </trkpt>
      <trkpt lat="44.90876" lon="0.79275">
        <ele>188.2</ele>
        <time>2022-05-15T07:50:00Z</time>
      </trkpt>
      <trkpt lat="44.90878" lon="0.79275">
        <ele>188.2</ele>
        <time>2022-05-15T07:50:01Z</time>
      </trkpt>
      <trkpt lat="44.90881" lon="0.79274">
        <ele>188.3</ele>
        <time>2022-05-15T07:50:03Z</time>
      </trkpt>
      <trkpt lat="44.90885" lon="0.79274">
        <ele>188.3</ele>
        <time>2022-05-15T07:50:05Z</time>
      </trkpt>
      <trkpt lat="44.9089" lon="0.79273">
        <ele>188.4</ele>
        <time>2022-05-15T07:50:07Z</time>
      </trkpt>
      <trkpt lat="44.90893" lon="0.79273">
        <ele>188.4</ele>
        <time>2022-05-15T07:50:09Z</time>
      </trkpt>
      <trkpt lat="44.90896" lon="0.79273">
        <ele>188.5</ele>
        <time>2022-05-15T07:50:10Z</time>
      </trkpt>
      <trkpt lat="44.90897" lon="0.79273">
        <ele>188.5</ele>
        <time>2022-05-15T07:50:11Z</time>
      </trkpt>
      <trkpt lat="44.90901" lon="0.79272">
        <ele>188.6</ele>
        <time>2022-05-15T07:50:13Z</time>
      </trkpt>
      <trkpt lat="44.90905" lon="0.79272">
        <ele>188.7</ele>
        <time>2022-05-15T07:50:15Z</time>
      </trkpt>
      <trkpt lat="44.90908" lon="0.79271">
        <ele>188.8</ele>
        <time>2022-05-15T07:50:17Z</time>
      </trkpt>
      <trkpt lat="44.90911" lon="0.79271">
        <ele>188.8</ele>
        <time>2022-05-15T07:50:19Z</time>
      </trkpt>
      <trkpt lat="44.90913" lon="0.79271">
        <ele>188.9</ele>
        <time>2022-05-15T07:50:20Z</time>
      </trkpt>
      <trkpt lat="44.90915" lon="0.7927">
        <ele>188.9</ele>
        <time>2022-05-15T07:50:21Z</time>
      </trkpt>
      <trkpt lat="44.90918" lon="0.7927">
        <ele>189</ele>
        <time>2022-05-15T07:50:23Z</time>
      </trkpt>
      <trkpt lat="44.90922" lon="0.7927">
        <ele>189.1</ele>
        <time>2022-05-15T07:50:25Z</time>
      </trkpt>
      <trkpt lat="44.90925" lon="0.79269">
        <ele>189.2</ele>
        <time>2022-05-15T07:50:27Z</time>
      </trkpt>
      <trkpt lat="44.90927" lon="0.79269">
        <ele>189.3</ele>
        <time>2022-05-15T07:50:29Z</time>
      </trkpt>
      <trkpt lat="44.90932" lon="0.79268">
        <ele>189.3</ele>
        <time>2022-05-15T07:50:31Z</time>
      </trkpt>
      <trkpt lat="44.90938" lon="0.79268">
        <ele>189.4</ele>
        <time>2022-05-15T07:50:33Z</time>
      </trkpt>
      <trkpt lat="44.90942" lon="0.79267">
        <ele>189.4</ele>
        <time>2022-05-15T07:50:35Z</time>
      </trkpt>
      <trkpt lat="44.90945" lon="0.79267">
        <ele>189.4</ele>
        <time>2022-05-15T07:50:37Z</time>
      </trkpt>
      <trkpt lat="44.9095" lon="0.79266">
        <ele>189.4</ele>
        <time>2022-05-15T07:50:39Z</time>
      </trkpt>
      <trkpt lat="44.90954" lon="0.79266">
        <ele>189.4</ele>
        <time>2022-05-15T07:50:41Z</time>
      </trkpt>
      <trkpt lat="44.90959" lon="0.79265">
        <ele>189.3</ele>
        <time>2022-05-15T07:50:43Z</time>
      </trkpt>
      <trkpt lat="44.90966" lon="0.79264">
        <ele>189.2</ele>
        <time>2022-05-15T07:50:45Z</time>
      </trkpt>
      <trkpt lat="44.90971" lon="0.79261">
        <ele>189.1</ele>
        <time>2022-05-15T07:50:47Z</time>
      </trkpt>
      <trkpt lat="44.90973" lon="0.7926">
        <ele>189.1</ele>
        <time>2022-05-15T07:50:48Z</time>
      </trkpt>
      <trkpt lat="44.90975" lon="0.79259">
        <ele>189</ele>
        <time>2022-05-15T07:50:49Z</time>
      </trkpt>
      <trkpt lat="44.90979" lon="0.79257">
        <ele>188.9</ele>
        <time>2022-05-15T07:50:51Z</time>
      </trkpt>
      <trkpt lat="44.90981" lon="0.79256">
        <ele>188.9</ele>
        <time>2022-05-15T07:50:52Z</time>
      </trkpt>
      <trkpt lat="44.90983" lon="0.79254">
        <ele>188.8</ele>
        <time>2022-05-15T07:50:53Z</time>
      </trkpt>
      <trkpt lat="44.90988" lon="0.79251">
        <ele>188.6</ele>
        <time>2022-05-15T07:50:55Z</time>
      </trkpt>
      <trkpt lat="44.9099" lon="0.79249">
        <ele>188.5</ele>
        <time>2022-05-15T07:50:57Z</time>
      </trkpt>
      <trkpt lat="44.90995" lon="0.79244">
        <ele>188.3</ele>
        <time>2022-05-15T07:50:59Z</time>
      </trkpt>
      <trkpt lat="44.90998" lon="0.79242">
        <ele>188.1</ele>
        <time>2022-05-15T07:51:00Z</time>
      </trkpt>
      <trkpt lat="44.91001" lon="0.7924">
        <ele>187.9</ele>
        <time>2022-05-15T07:51:01Z</time>
      </trkpt>
      <trkpt lat="44.91005" lon="0.79236">
        <ele>187.7</ele>
        <time>2022-05-15T07:51:03Z</time>
      </trkpt>
      <trkpt lat="44.9101" lon="0.79232">
        <ele>187.4</ele>
        <time>2022-05-15T07:51:05Z</time>
      </trkpt>
      <trkpt lat="44.91013" lon="0.79231">
        <ele>187.3</ele>
        <time>2022-05-15T07:51:06Z</time>
      </trkpt>
      <trkpt lat="44.91016" lon="0.7923">
        <ele>187.2</ele>
        <time>2022-05-15T07:51:07Z</time>
      </trkpt>
      <trkpt lat="44.91021" lon="0.79228">
        <ele>187</ele>
        <time>2022-05-15T07:51:09Z</time>
      </trkpt>
      <trkpt lat="44.91023" lon="0.79228">
        <ele>186.9</ele>
        <time>2022-05-15T07:51:10Z</time>
      </trkpt>
      <trkpt lat="44.91024" lon="0.79228">
        <ele>186.9</ele>
        <time>2022-05-15T07:51:11Z</time>
      </trkpt>
      <trkpt lat="44.91026" lon="0.79228">
        <ele>186.8</ele>
        <time>2022-05-15T07:51:12Z</time>
      </trkpt>
      <trkpt lat="44.91031" lon="0.79228">
        <ele>186.7</ele>
        <time>2022-05-15T07:51:13Z</time>
      </trkpt>
      <trkpt lat="44.91032" lon="0.79234">
        <ele>186.5</ele>
        <time>2022-05-15T07:51:15Z</time>
      </trkpt>
      <trkpt lat="44.91034" lon="0.79237">
        <ele>186.4</ele>
        <time>2022-05-15T07:51:16Z</time>
      </trkpt>
      <trkpt lat="44.91033" lon="0.79237">
        <ele>186.4</ele>
        <time>2022-05-15T07:51:17Z</time>
      </trkpt>
      <trkpt lat="44.91042" lon="0.7924">
        <ele>186</ele>
        <time>2022-05-15T07:51:19Z</time>
      </trkpt>
      <trkpt lat="44.91047" lon="0.79243">
        <ele>185.7</ele>
        <time>2022-05-15T07:51:21Z</time>
      </trkpt>
      <trkpt lat="44.91052" lon="0.79248">
        <ele>185.4</ele>
        <time>2022-05-15T07:51:23Z</time>
      </trkpt>
      <trkpt lat="44.91054" lon="0.7925">
        <ele>185.3</ele>
        <time>2022-05-15T07:51:24Z</time>
      </trkpt>
      <trkpt lat="44.91057" lon="0.79252">
        <ele>185.1</ele>
        <time>2022-05-15T07:51:25Z</time>
      </trkpt>
      <trkpt lat="44.91062" lon="0.79258">
        <ele>184.8</ele>
        <time>2022-05-15T07:51:27Z</time>
      </trkpt>
      <trkpt lat="44.91064" lon="0.7926">
        <ele>184.7</ele>
        <time>2022-05-15T07:51:28Z</time>
      </trkpt>
      <trkpt lat="44.91066" lon="0.79261">
        <ele>184.6</ele>
        <time>2022-05-15T07:51:29Z</time>
      </trkpt>
      <trkpt lat="44.9107" lon="0.79265">
        <ele>184.4</ele>
        <time>2022-05-15T07:51:31Z</time>
      </trkpt>
      <trkpt lat="44.91074" lon="0.79269">
        <ele>184.1</ele>
        <time>2022-05-15T07:51:33Z</time>
      </trkpt>
      <trkpt lat="44.91077" lon="0.79273">
        <ele>183.9</ele>
        <time>2022-05-15T07:51:35Z</time>
      </trkpt>
      <trkpt lat="44.91079" lon="0.79274">
        <ele>183.8</ele>
        <time>2022-05-15T07:51:36Z</time>
      </trkpt>
      <trkpt lat="44.91081" lon="0.79277">
        <ele>183.7</ele>
        <time>2022-05-15T07:51:37Z</time>
      </trkpt>
      <trkpt lat="44.91086" lon="0.79284">
        <ele>183.4</ele>
        <time>2022-05-15T07:51:39Z</time>
      </trkpt>
      <trkpt lat="44.9109" lon="0.79289">
        <ele>183.1</ele>
        <time>2022-05-15T07:51:40Z</time>
      </trkpt>
      <trkpt lat="44.91093" lon="0.79294">
        <ele>182.9</ele>
        <time>2022-05-15T07:51:41Z</time>
      </trkpt>
      <trkpt lat="44.91098" lon="0.79301">
        <ele>182.4</ele>
        <time>2022-05-15T07:51:43Z</time>
      </trkpt>
      <trkpt lat="44.91103" lon="0.79309">
        <ele>181.8</ele>
        <time>2022-05-15T07:51:45Z</time>
      </trkpt>
      <trkpt lat="44.91109" lon="0.79317">
        <ele>181.2</ele>
        <time>2022-05-15T07:51:47Z</time>
      </trkpt>
      <trkpt lat="44.91116" lon="0.79326">
        <ele>180.5</ele>
        <time>2022-05-15T07:51:49Z</time>
      </trkpt>
      <trkpt lat="44.91122" lon="0.79336">
        <ele>179.8</ele>
        <time>2022-05-15T07:51:51Z</time>
      </trkpt>
      <trkpt lat="44.91127" lon="0.79346">
        <ele>179.2</ele>
        <time>2022-05-15T07:51:53Z</time>
      </trkpt>
      <trkpt lat="44.9113" lon="0.7935">
        <ele>179</ele>
        <time>2022-05-15T07:51:54Z</time>
      </trkpt>
      <trkpt lat="44.91132" lon="0.79354">
        <ele>178.7</ele>
        <time>2022-05-15T07:51:55Z</time>
      </trkpt>
      <trkpt lat="44.91137" lon="0.79363">
        <ele>178.2</ele>
        <time>2022-05-15T07:51:57Z</time>
      </trkpt>
      <trkpt lat="44.91139" lon="0.79368">
        <ele>177.9</ele>
        <time>2022-05-15T07:51:58Z</time>
      </trkpt>
      <trkpt lat="44.91142" lon="0.79373">
        <ele>177.6</ele>
        <time>2022-05-15T07:51:59Z</time>
      </trkpt>
      <trkpt lat="44.9115" lon="0.7938">
        <ele>177.2</ele>
        <time>2022-05-15T07:52:01Z</time>
      </trkpt>
      <trkpt lat="44.91154" lon="0.79383">
        <ele>177.1</ele>
        <time>2022-05-15T07:52:02Z</time>
      </trkpt>
      <trkpt lat="44.91156" lon="0.79387">
        <ele>177</ele>
        <time>2022-05-15T07:52:03Z</time>
      </trkpt>
      <trkpt lat="44.91161" lon="0.79396">
        <ele>176.7</ele>
        <time>2022-05-15T07:52:05Z</time>
      </trkpt>
      <trkpt lat="44.91167" lon="0.79408">
        <ele>176.3</ele>
        <time>2022-05-15T07:52:07Z</time>
      </trkpt>
      <trkpt lat="44.91173" lon="0.7942">
        <ele>175.7</ele>
        <time>2022-05-15T07:52:09Z</time>
      </trkpt>
      <trkpt lat="44.9118" lon="0.79433">
        <ele>175</ele>
        <time>2022-05-15T07:52:11Z</time>
      </trkpt>
      <trkpt lat="44.91187" lon="0.79445">
        <ele>174.3</ele>
        <time>2022-05-15T07:52:13Z</time>
      </trkpt>
      <trkpt lat="44.91191" lon="0.79451">
        <ele>174</ele>
        <time>2022-05-15T07:52:14Z</time>
      </trkpt>
      <trkpt lat="44.91194" lon="0.79457">
        <ele>173.8</ele>
        <time>2022-05-15T07:52:15Z</time>
      </trkpt>
      <trkpt lat="44.91201" lon="0.79469">
        <ele>173.3</ele>
        <time>2022-05-15T07:52:17Z</time>
      </trkpt>
      <trkpt lat="44.91203" lon="0.79474">
        <ele>173.1</ele>
        <time>2022-05-15T07:52:18Z</time>
      </trkpt>
      <trkpt lat="44.91206" lon="0.79479">
        <ele>173</ele>
        <time>2022-05-15T07:52:19Z</time>
      </trkpt>
      <trkpt lat="44.9121" lon="0.79486">
        <ele>172.8</ele>
        <time>2022-05-15T07:52:21Z</time>
      </trkpt>
      <trkpt lat="44.91211" lon="0.79488">
        <ele>172.7</ele>
        <time>2022-05-15T07:52:22Z</time>
      </trkpt>
      <trkpt lat="44.91211" lon="0.79488">
        <ele>172.7</ele>
        <time>2022-05-15T07:52:23Z</time>
      </trkpt>
      <trkpt lat="44.91211" lon="0.79488">
        <ele>172.7</ele>
        <time>2022-05-15T07:52:24Z</time>
      </trkpt>
      <trkpt lat="44.91216" lon="0.79497">
        <ele>172.4</ele>
        <time>2022-05-15T07:52:52Z</time>
      </trkpt>
      <trkpt lat="44.91218" lon="0.79501">
        <ele>172.3</ele>
        <time>2022-05-15T07:52:53Z</time>
      </trkpt>
      <trkpt lat="44.91222" lon="0.79508">
        <ele>172</ele>
        <time>2022-05-15T07:52:55Z</time>
      </trkpt>
      <trkpt lat="44.91227" lon="0.79517">
        <ele>171.7</ele>
        <time>2022-05-15T07:52:57Z</time>
      </trkpt>
      <trkpt lat="44.91232" lon="0.79526">
        <ele>171.3</ele>
        <time>2022-05-15T07:52:59Z</time>
      </trkpt>
      <trkpt lat="44.91235" lon="0.79532">
        <ele>171.1</ele>
        <time>2022-05-15T07:53:00Z</time>
      </trkpt>
      <trkpt lat="44.91237" lon="0.79538">
        <ele>170.9</ele>
        <time>2022-05-15T07:53:01Z</time>
      </trkpt>
      <trkpt lat="44.91242" lon="0.79549">
        <ele>170.5</ele>
        <time>2022-05-15T07:53:03Z</time>
      </trkpt>
      <trkpt lat="44.91245" lon="0.79555">
        <ele>170.3</ele>
        <time>2022-05-15T07:53:04Z</time>
      </trkpt>
      <trkpt lat="44.91247" lon="0.79561">
        <ele>170</ele>
        <time>2022-05-15T07:53:05Z</time>
      </trkpt>
      <trkpt lat="44.9125" lon="0.79568">
        <ele>169.7</ele>
        <time>2022-05-15T07:53:06Z</time>
      </trkpt>
      <trkpt lat="44.91253" lon="0.79575">
        <ele>169.4</ele>
        <time>2022-05-15T07:53:07Z</time>
      </trkpt>
      <trkpt lat="44.91258" lon="0.79589">
        <ele>168.8</ele>
        <time>2022-05-15T07:53:09Z</time>
      </trkpt>
      <trkpt lat="44.91261" lon="0.79604">
        <ele>168.2</ele>
        <time>2022-05-15T07:53:11Z</time>
      </trkpt>
      <trkpt lat="44.91263" lon="0.79612">
        <ele>167.8</ele>
        <time>2022-05-15T07:53:12Z</time>
      </trkpt>
      <trkpt lat="44.91265" lon="0.7962">
        <ele>167.4</ele>
        <time>2022-05-15T07:53:13Z</time>
      </trkpt>
      <trkpt lat="44.91267" lon="0.79637">
        <ele>166.7</ele>
        <time>2022-05-15T07:53:15Z</time>
      </trkpt>
      <trkpt lat="44.9127" lon="0.79653">
        <ele>166.1</ele>
        <time>2022-05-15T07:53:17Z</time>
      </trkpt>
      <trkpt lat="44.91271" lon="0.79661">
        <ele>165.9</ele>
        <time>2022-05-15T07:53:18Z</time>
      </trkpt>
      <trkpt lat="44.91272" lon="0.79669">
        <ele>165.6</ele>
        <time>2022-05-15T07:53:19Z</time>
      </trkpt>
      <trkpt lat="44.91275" lon="0.79685">
        <ele>165.1</ele>
        <time>2022-05-15T07:53:21Z</time>
      </trkpt>
      <trkpt lat="44.91277" lon="0.797">
        <ele>164.7</ele>
        <time>2022-05-15T07:53:23Z</time>
      </trkpt>
      <trkpt lat="44.91279" lon="0.79715">
        <ele>164.2</ele>
        <time>2022-05-15T07:53:25Z</time>
      </trkpt>
      <trkpt lat="44.91282" lon="0.79728">
        <ele>163.9</ele>
        <time>2022-05-15T07:53:27Z</time>
      </trkpt>
      <trkpt lat="44.91283" lon="0.79736">
        <ele>163.7</ele>
        <time>2022-05-15T07:53:28Z</time>
      </trkpt>
      <trkpt lat="44.91284" lon="0.79743">
        <ele>163.5</ele>
        <time>2022-05-15T07:53:29Z</time>
      </trkpt>
      <trkpt lat="44.91286" lon="0.79751">
        <ele>163.3</ele>
        <time>2022-05-15T07:53:30Z</time>
      </trkpt>
      <trkpt lat="44.91287" lon="0.79759">
        <ele>163.2</ele>
        <time>2022-05-15T07:53:31Z</time>
      </trkpt>
      <trkpt lat="44.91289" lon="0.79767">
        <ele>163</ele>
        <time>2022-05-15T07:53:32Z</time>
      </trkpt>
      <trkpt lat="44.91291" lon="0.79776">
        <ele>162.8</ele>
        <time>2022-05-15T07:53:33Z</time>
      </trkpt>
      <trkpt lat="44.91292" lon="0.79783">
        <ele>162.6</ele>
        <time>2022-05-15T07:53:34Z</time>
      </trkpt>
      <trkpt lat="44.91294" lon="0.79792">
        <ele>162.4</ele>
        <time>2022-05-15T07:53:35Z</time>
      </trkpt>
      <trkpt lat="44.91296" lon="0.798">
        <ele>162.1</ele>
        <time>2022-05-15T07:53:36Z</time>
      </trkpt>
      <trkpt lat="44.91297" lon="0.79808">
        <ele>161.9</ele>
        <time>2022-05-15T07:53:37Z</time>
      </trkpt>
      <trkpt lat="44.91301" lon="0.79825">
        <ele>161.3</ele>
        <time>2022-05-15T07:53:39Z</time>
      </trkpt>
      <trkpt lat="44.91303" lon="0.7984">
        <ele>160.8</ele>
        <time>2022-05-15T07:53:41Z</time>
      </trkpt>
      <trkpt lat="44.91304" lon="0.79847">
        <ele>160.6</ele>
        <time>2022-05-15T07:53:42Z</time>
      </trkpt>
      <trkpt lat="44.91305" lon="0.79855">
        <ele>160.3</ele>
        <time>2022-05-15T07:53:43Z</time>
      </trkpt>
      <trkpt lat="44.91307" lon="0.7987">
        <ele>159.8</ele>
        <time>2022-05-15T07:53:45Z</time>
      </trkpt>
      <trkpt lat="44.91307" lon="0.79878">
        <ele>159.5</ele>
        <time>2022-05-15T07:53:46Z</time>
      </trkpt>
      <trkpt lat="44.91308" lon="0.79885">
        <ele>159.2</ele>
        <time>2022-05-15T07:53:47Z</time>
      </trkpt>
      <trkpt lat="44.91308" lon="0.79893">
        <ele>158.9</ele>
        <time>2022-05-15T07:53:48Z</time>
      </trkpt>
      <trkpt lat="44.91308" lon="0.79901">
        <ele>158.5</ele>
        <time>2022-05-15T07:53:49Z</time>
      </trkpt>
      <trkpt lat="44.91309" lon="0.7991">
        <ele>158.1</ele>
        <time>2022-05-15T07:53:50Z</time>
      </trkpt>
      <trkpt lat="44.9131" lon="0.79919">
        <ele>157.7</ele>
        <time>2022-05-15T07:53:51Z</time>
      </trkpt>
      <trkpt lat="44.91311" lon="0.79927">
        <ele>157.2</ele>
        <time>2022-05-15T07:53:52Z</time>
      </trkpt>
      <trkpt lat="44.91312" lon="0.79937">
        <ele>156.7</ele>
        <time>2022-05-15T07:53:53Z</time>
      </trkpt>
      <trkpt lat="44.91314" lon="0.79946">
        <ele>156.1</ele>
        <time>2022-05-15T07:53:54Z</time>
      </trkpt>
      <trkpt lat="44.91315" lon="0.79956">
        <ele>155.4</ele>
        <time>2022-05-15T07:53:55Z</time>
      </trkpt>
      <trkpt lat="44.91316" lon="0.79966">
        <ele>154.7</ele>
        <time>2022-05-15T07:53:56Z</time>
      </trkpt>
      <trkpt lat="44.91317" lon="0.79978">
        <ele>153.8</ele>
        <time>2022-05-15T07:53:57Z</time>
      </trkpt>
      <trkpt lat="44.91318" lon="0.79989">
        <ele>152.8</ele>
        <time>2022-05-15T07:53:58Z</time>
      </trkpt>
      <trkpt lat="44.9132" lon="0.80001">
        <ele>151.8</ele>
        <time>2022-05-15T07:53:59Z</time>
      </trkpt>
      <trkpt lat="44.91319" lon="0.80024">
        <ele>149.7</ele>
        <time>2022-05-15T07:54:01Z</time>
      </trkpt>
      <trkpt lat="44.91318" lon="0.80035">
        <ele>148.7</ele>
        <time>2022-05-15T07:54:02Z</time>
      </trkpt>
      <trkpt lat="44.91318" lon="0.80047">
        <ele>147.6</ele>
        <time>2022-05-15T07:54:03Z</time>
      </trkpt>
      <trkpt lat="44.91315" lon="0.80072">
        <ele>145.2</ele>
        <time>2022-05-15T07:54:05Z</time>
      </trkpt>
      <trkpt lat="44.91313" lon="0.80085">
        <ele>144</ele>
        <time>2022-05-15T07:54:06Z</time>
      </trkpt>
      <trkpt lat="44.91312" lon="0.80097">
        <ele>142.9</ele>
        <time>2022-05-15T07:54:07Z</time>
      </trkpt>
      <trkpt lat="44.9131" lon="0.80108">
        <ele>141.9</ele>
        <time>2022-05-15T07:54:08Z</time>
      </trkpt>
      <trkpt lat="44.91307" lon="0.80118">
        <ele>141</ele>
        <time>2022-05-15T07:54:09Z</time>
      </trkpt>
      <trkpt lat="44.91305" lon="0.80129">
        <ele>140.1</ele>
        <time>2022-05-15T07:54:10Z</time>
      </trkpt>
      <trkpt lat="44.91302" lon="0.8014">
        <ele>139.6</ele>
        <time>2022-05-15T07:54:11Z</time>
      </trkpt>
      <trkpt lat="44.91295" lon="0.80162">
        <ele>138.7</ele>
        <time>2022-05-15T07:54:13Z</time>
      </trkpt>
      <trkpt lat="44.9129" lon="0.80184">
        <ele>137.6</ele>
        <time>2022-05-15T07:54:15Z</time>
      </trkpt>
      <trkpt lat="44.91286" lon="0.80204">
        <ele>136</ele>
        <time>2022-05-15T07:54:17Z</time>
      </trkpt>
      <trkpt lat="44.91284" lon="0.80214">
        <ele>135.1</ele>
        <time>2022-05-15T07:54:18Z</time>
      </trkpt>
      <trkpt lat="44.91281" lon="0.80223">
        <ele>134.2</ele>
        <time>2022-05-15T07:54:19Z</time>
      </trkpt>
      <trkpt lat="44.91279" lon="0.80234">
        <ele>133.1</ele>
        <time>2022-05-15T07:54:20Z</time>
      </trkpt>
      <trkpt lat="44.91278" lon="0.80245">
        <ele>132.2</ele>
        <time>2022-05-15T07:54:21Z</time>
      </trkpt>
      <trkpt lat="44.91275" lon="0.80265">
        <ele>130.8</ele>
        <time>2022-05-15T07:54:23Z</time>
      </trkpt>
      <trkpt lat="44.91269" lon="0.80284">
        <ele>129.6</ele>
        <time>2022-05-15T07:54:25Z</time>
      </trkpt>
      <trkpt lat="44.91264" lon="0.80301">
        <ele>127.8</ele>
        <time>2022-05-15T07:54:27Z</time>
      </trkpt>
      <trkpt lat="44.91261" lon="0.80311">
        <ele>126.7</ele>
        <time>2022-05-15T07:54:28Z</time>
      </trkpt>
      <trkpt lat="44.91258" lon="0.80322">
        <ele>125.3</ele>
        <time>2022-05-15T07:54:29Z</time>
      </trkpt>
      <trkpt lat="44.91251" lon="0.80347">
        <ele>122.4</ele>
        <time>2022-05-15T07:54:31Z</time>
      </trkpt>
      <trkpt lat="44.91249" lon="0.8036">
        <ele>121.1</ele>
        <time>2022-05-15T07:54:32Z</time>
      </trkpt>
      <trkpt lat="44.91248" lon="0.80373">
        <ele>120</ele>
        <time>2022-05-15T07:54:33Z</time>
      </trkpt>
      <trkpt lat="44.91239" lon="0.80396">
        <ele>118.2</ele>
        <time>2022-05-15T07:54:35Z</time>
      </trkpt>
      <trkpt lat="44.91232" lon="0.80418">
        <ele>116.8</ele>
        <time>2022-05-15T07:54:37Z</time>
      </trkpt>
      <trkpt lat="44.9123" lon="0.80429">
        <ele>116.4</ele>
        <time>2022-05-15T07:54:38Z</time>
      </trkpt>
      <trkpt lat="44.91228" lon="0.80439">
        <ele>116</ele>
        <time>2022-05-15T07:54:39Z</time>
      </trkpt>
      <trkpt lat="44.91224" lon="0.80456">
        <ele>115.4</ele>
        <time>2022-05-15T07:54:41Z</time>
      </trkpt>
      <trkpt lat="44.91221" lon="0.80464">
        <ele>115.2</ele>
        <time>2022-05-15T07:54:42Z</time>
      </trkpt>
      <trkpt lat="44.91218" lon="0.80471">
        <ele>115</ele>
        <time>2022-05-15T07:54:43Z</time>
      </trkpt>
      <trkpt lat="44.91207" lon="0.80479">
        <ele>114.8</ele>
        <time>2022-05-15T07:54:45Z</time>
      </trkpt>
      <trkpt lat="44.91203" lon="0.80512">
        <ele>114.3</ele>
        <time>2022-05-15T07:54:47Z</time>
      </trkpt>
      <trkpt lat="44.91203" lon="0.80522">
        <ele>114.2</ele>
        <time>2022-05-15T07:54:48Z</time>
      </trkpt>
      <trkpt lat="44.91203" lon="0.80532">
        <ele>113.7</ele>
        <time>2022-05-15T07:54:49Z</time>
      </trkpt>
      <trkpt lat="44.91205" lon="0.80551">
        <ele>113.1</ele>
        <time>2022-05-15T07:54:51Z</time>
      </trkpt>
      <trkpt lat="44.91208" lon="0.80571">
        <ele>112.8</ele>
        <time>2022-05-15T07:54:53Z</time>
      </trkpt>
      <trkpt lat="44.9121" lon="0.80581">
        <ele>112.2</ele>
        <time>2022-05-15T07:54:54Z</time>
      </trkpt>
      <trkpt lat="44.91212" lon="0.80591">
        <ele>112.1</ele>
        <time>2022-05-15T07:54:55Z</time>
      </trkpt>
      <trkpt lat="44.91216" lon="0.80609">
        <ele>111.6</ele>
        <time>2022-05-15T07:54:57Z</time>
      </trkpt>
      <trkpt lat="44.9122" lon="0.80627">
        <ele>111.5</ele>
        <time>2022-05-15T07:54:59Z</time>
      </trkpt>
      <trkpt lat="44.91222" lon="0.80644">
        <ele>111.1</ele>
        <time>2022-05-15T07:55:01Z</time>
      </trkpt>
      <trkpt lat="44.91224" lon="0.80659">
        <ele>110.7</ele>
        <time>2022-05-15T07:55:03Z</time>
      </trkpt>
      <trkpt lat="44.91227" lon="0.80673">
        <ele>110.4</ele>
        <time>2022-05-15T07:55:05Z</time>
      </trkpt>
      <trkpt lat="44.9123" lon="0.80686">
        <ele>110.4</ele>
        <time>2022-05-15T07:55:07Z</time>
      </trkpt>
      <trkpt lat="44.91233" lon="0.80698">
        <ele>110.9</ele>
        <time>2022-05-15T07:55:09Z</time>
      </trkpt>
      <trkpt lat="44.91233" lon="0.8071">
        <ele>110.8</ele>
        <time>2022-05-15T07:55:11Z</time>
      </trkpt>
      <trkpt lat="44.91233" lon="0.80716">
        <ele>111.3</ele>
        <time>2022-05-15T07:55:12Z</time>
      </trkpt>
      <trkpt lat="44.91234" lon="0.80722">
        <ele>111.2</ele>
        <time>2022-05-15T07:55:13Z</time>
      </trkpt>
      <trkpt lat="44.9124" lon="0.80732">
        <ele>111.1</ele>
        <time>2022-05-15T07:55:15Z</time>
      </trkpt>
      <trkpt lat="44.91239" lon="0.80741">
        <ele>111.7</ele>
        <time>2022-05-15T07:55:17Z</time>
      </trkpt>
      <trkpt lat="44.91237" lon="0.80749">
        <ele>111.6</ele>
        <time>2022-05-15T07:55:19Z</time>
      </trkpt>
      <trkpt lat="44.91235" lon="0.80753">
        <ele>112.3</ele>
        <time>2022-05-15T07:55:20Z</time>
      </trkpt>
      <trkpt lat="44.91234" lon="0.80756">
        <ele>112.3</ele>
        <time>2022-05-15T07:55:21Z</time>
      </trkpt>
      <trkpt lat="44.91232" lon="0.80763">
        <ele>112.2</ele>
        <time>2022-05-15T07:55:23Z</time>
      </trkpt>
      <trkpt lat="44.9123" lon="0.80771">
        <ele>112.5</ele>
        <time>2022-05-15T07:55:25Z</time>
      </trkpt>
      <trkpt lat="44.91228" lon="0.80778">
        <ele>112.4</ele>
        <time>2022-05-15T07:55:27Z</time>
      </trkpt>
      <trkpt lat="44.91227" lon="0.80782">
        <ele>112.3</ele>
        <time>2022-05-15T07:55:28Z</time>
      </trkpt>
      <trkpt lat="44.91225" lon="0.80786">
        <ele>113.3</ele>
        <time>2022-05-15T07:55:29Z</time>
      </trkpt>
      <trkpt lat="44.91223" lon="0.80793">
        <ele>113.2</ele>
        <time>2022-05-15T07:55:31Z</time>
      </trkpt>
      <trkpt lat="44.91224" lon="0.80807">
        <ele>114.2</ele>
        <time>2022-05-15T07:55:33Z</time>
      </trkpt>
      <trkpt lat="44.91225" lon="0.80804">
        <ele>114.4</ele>
        <time>2022-05-15T07:55:34Z</time>
      </trkpt>
      <trkpt lat="44.91226" lon="0.80808">
        <ele>114.7</ele>
        <time>2022-05-15T07:55:35Z</time>
      </trkpt>
      <trkpt lat="44.91231" lon="0.80809">
        <ele>115.2</ele>
        <time>2022-05-15T07:55:37Z</time>
      </trkpt>
      <trkpt lat="44.91236" lon="0.8081">
        <ele>115.7</ele>
        <time>2022-05-15T07:55:39Z</time>
      </trkpt>
      <trkpt lat="44.9124" lon="0.80811">
        <ele>116</ele>
        <time>2022-05-15T07:55:41Z</time>
      </trkpt>
      <trkpt lat="44.91243" lon="0.80812">
        <ele>116.4</ele>
        <time>2022-05-15T07:55:43Z</time>
      </trkpt>
      <trkpt lat="44.91245" lon="0.80813">
        <ele>116.6</ele>
        <time>2022-05-15T07:55:44Z</time>
      </trkpt>
      <trkpt lat="44.91247" lon="0.80813">
        <ele>116.8</ele>
        <time>2022-05-15T07:55:45Z</time>
      </trkpt>
      <trkpt lat="44.91251" lon="0.80815">
        <ele>117.2</ele>
        <time>2022-05-15T07:55:47Z</time>
      </trkpt>
      <trkpt lat="44.91255" lon="0.80817">
        <ele>117.6</ele>
        <time>2022-05-15T07:55:49Z</time>
      </trkpt>
      <trkpt lat="44.91259" lon="0.80819">
        <ele>118</ele>
        <time>2022-05-15T07:55:51Z</time>
      </trkpt>
      <trkpt lat="44.91261" lon="0.80819">
        <ele>118.1</ele>
        <time>2022-05-15T07:55:52Z</time>
      </trkpt>
      <trkpt lat="44.91263" lon="0.8082">
        <ele>118.3</ele>
        <time>2022-05-15T07:55:53Z</time>
      </trkpt>
      <trkpt lat="44.91267" lon="0.80821">
        <ele>118.6</ele>
        <time>2022-05-15T07:55:55Z</time>
      </trkpt>
      <trkpt lat="44.91271" lon="0.80823">
        <ele>118.9</ele>
        <time>2022-05-15T07:55:57Z</time>
      </trkpt>
      <trkpt lat="44.91274" lon="0.80824">
        <ele>119.1</ele>
        <time>2022-05-15T07:55:59Z</time>
      </trkpt>
      <trkpt lat="44.91279" lon="0.80825">
        <ele>119.4</ele>
        <time>2022-05-15T07:56:01Z</time>
      </trkpt>
      <trkpt lat="44.91283" lon="0.80826">
        <ele>119.8</ele>
        <time>2022-05-15T07:56:03Z</time>
      </trkpt>
      <trkpt lat="44.91287" lon="0.80828">
        <ele>120.2</ele>
        <time>2022-05-15T07:56:05Z</time>
      </trkpt>
      <trkpt lat="44.91288" lon="0.80828">
        <ele>120.3</ele>
        <time>2022-05-15T07:56:06Z</time>
      </trkpt>
      <trkpt lat="44.9129" lon="0.80829">
        <ele>120.5</ele>
        <time>2022-05-15T07:56:07Z</time>
      </trkpt>
      <trkpt lat="44.91295" lon="0.8083">
        <ele>121</ele>
        <time>2022-05-15T07:56:09Z</time>
      </trkpt>
      <trkpt lat="44.91299" lon="0.80832">
        <ele>121.4</ele>
        <time>2022-05-15T07:56:11Z</time>
      </trkpt>
      <trkpt lat="44.91303" lon="0.80833">
        <ele>121.9</ele>
        <time>2022-05-15T07:56:13Z</time>
      </trkpt>
      <trkpt lat="44.91308" lon="0.80827">
        <ele>122.7</ele>
        <time>2022-05-15T07:56:15Z</time>
      </trkpt>
      <trkpt lat="44.91311" lon="0.80827">
        <ele>123</ele>
        <time>2022-05-15T07:56:17Z</time>
      </trkpt>
      <trkpt lat="44.91314" lon="0.80826">
        <ele>123.4</ele>
        <time>2022-05-15T07:56:19Z</time>
      </trkpt>
      <trkpt lat="44.91316" lon="0.80826">
        <ele>123.6</ele>
        <time>2022-05-15T07:56:20Z</time>
      </trkpt>
      <trkpt lat="44.91318" lon="0.80826">
        <ele>123.8</ele>
        <time>2022-05-15T07:56:21Z</time>
      </trkpt>
      <trkpt lat="44.91321" lon="0.80826">
        <ele>124.1</ele>
        <time>2022-05-15T07:56:23Z</time>
      </trkpt>
      <trkpt lat="44.91325" lon="0.80826">
        <ele>124.5</ele>
        <time>2022-05-15T07:56:25Z</time>
      </trkpt>
      <trkpt lat="44.91328" lon="0.80826">
        <ele>124.9</ele>
        <time>2022-05-15T07:56:27Z</time>
      </trkpt>
      <trkpt lat="44.9133" lon="0.80825">
        <ele>125.1</ele>
        <time>2022-05-15T07:56:28Z</time>
      </trkpt>
      <trkpt lat="44.91332" lon="0.80825">
        <ele>125.3</ele>
        <time>2022-05-15T07:56:29Z</time>
      </trkpt>
      <trkpt lat="44.91335" lon="0.80825">
        <ele>125.7</ele>
        <time>2022-05-15T07:56:31Z</time>
      </trkpt>
      <trkpt lat="44.91339" lon="0.80825">
        <ele>126.1</ele>
        <time>2022-05-15T07:56:33Z</time>
      </trkpt>
      <trkpt lat="44.91342" lon="0.80825">
        <ele>126.4</ele>
        <time>2022-05-15T07:56:35Z</time>
      </trkpt>
      <trkpt lat="44.91346" lon="0.80825">
        <ele>126.6</ele>
        <time>2022-05-15T07:56:37Z</time>
      </trkpt>
      <trkpt lat="44.91348" lon="0.80825">
        <ele>126.7</ele>
        <time>2022-05-15T07:56:38Z</time>
      </trkpt>
      <trkpt lat="44.91349" lon="0.80826">
        <ele>126.7</ele>
        <time>2022-05-15T07:56:39Z</time>
      </trkpt>
      <trkpt lat="44.91353" lon="0.80826">
        <ele>126.9</ele>
        <time>2022-05-15T07:56:41Z</time>
      </trkpt>
      <trkpt lat="44.91357" lon="0.80827">
        <ele>127.1</ele>
        <time>2022-05-15T07:56:43Z</time>
      </trkpt>
      <trkpt lat="44.91359" lon="0.80827">
        <ele>127.1</ele>
        <time>2022-05-15T07:56:44Z</time>
      </trkpt>
      <trkpt lat="44.91361" lon="0.80827">
        <ele>127.2</ele>
        <time>2022-05-15T07:56:45Z</time>
      </trkpt>
      <trkpt lat="44.91365" lon="0.80828">
        <ele>127.4</ele>
        <time>2022-05-15T07:56:47Z</time>
      </trkpt>
      <trkpt lat="44.91369" lon="0.80829">
        <ele>127.6</ele>
        <time>2022-05-15T07:56:49Z</time>
      </trkpt>
      <trkpt lat="44.91371" lon="0.80829">
        <ele>127.7</ele>
        <time>2022-05-15T07:56:50Z</time>
      </trkpt>
      <trkpt lat="44.91373" lon="0.80829">
        <ele>127.7</ele>
        <time>2022-05-15T07:56:51Z</time>
      </trkpt>
      <trkpt lat="44.91377" lon="0.8083">
        <ele>127.9</ele>
        <time>2022-05-15T07:56:53Z</time>
      </trkpt>
      <trkpt lat="44.9138" lon="0.80832">
        <ele>128</ele>
        <time>2022-05-15T07:56:55Z</time>
      </trkpt>
      <trkpt lat="44.91384" lon="0.80833">
        <ele>128.2</ele>
        <time>2022-05-15T07:56:57Z</time>
      </trkpt>
      <trkpt lat="44.91386" lon="0.80834">
        <ele>128.3</ele>
        <time>2022-05-15T07:56:59Z</time>
      </trkpt>
      <trkpt lat="44.91391" lon="0.80835">
        <ele>128.5</ele>
        <time>2022-05-15T07:57:01Z</time>
      </trkpt>
      <trkpt lat="44.91396" lon="0.80837">
        <ele>128.7</ele>
        <time>2022-05-15T07:57:03Z</time>
      </trkpt>
      <trkpt lat="44.91398" lon="0.80837">
        <ele>128.8</ele>
        <time>2022-05-15T07:57:04Z</time>
      </trkpt>
      <trkpt lat="44.914" lon="0.80838">
        <ele>129</ele>
        <time>2022-05-15T07:57:05Z</time>
      </trkpt>
      <trkpt lat="44.91405" lon="0.80839">
        <ele>129.2</ele>
        <time>2022-05-15T07:57:07Z</time>
      </trkpt>
      <trkpt lat="44.91409" lon="0.80841">
        <ele>129.5</ele>
        <time>2022-05-15T07:57:09Z</time>
      </trkpt>
      <trkpt lat="44.91414" lon="0.80843">
        <ele>129.8</ele>
        <time>2022-05-15T07:57:11Z</time>
      </trkpt>
      <trkpt lat="44.91419" lon="0.80846">
        <ele>130.1</ele>
        <time>2022-05-15T07:57:13Z</time>
      </trkpt>
      <trkpt lat="44.91423" lon="0.80848">
        <ele>130.5</ele>
        <time>2022-05-15T07:57:15Z</time>
      </trkpt>
      <trkpt lat="44.91428" lon="0.80851">
        <ele>130.8</ele>
        <time>2022-05-15T07:57:17Z</time>
      </trkpt>
      <trkpt lat="44.9143" lon="0.80853">
        <ele>131.1</ele>
        <time>2022-05-15T07:57:18Z</time>
      </trkpt>
      <trkpt lat="44.91432" lon="0.80855">
        <ele>131.3</ele>
        <time>2022-05-15T07:57:19Z</time>
      </trkpt>
      <trkpt lat="44.91437" lon="0.80857">
        <ele>131.6</ele>
        <time>2022-05-15T07:57:21Z</time>
      </trkpt>
      <trkpt lat="44.91441" lon="0.8086">
        <ele>131.9</ele>
        <time>2022-05-15T07:57:23Z</time>
      </trkpt>
      <trkpt lat="44.91443" lon="0.80861">
        <ele>132</ele>
        <time>2022-05-15T07:57:24Z</time>
      </trkpt>
      <trkpt lat="44.91445" lon="0.80863">
        <ele>132.2</ele>
        <time>2022-05-15T07:57:25Z</time>
      </trkpt>
      <trkpt lat="44.91449" lon="0.80865">
        <ele>132.4</ele>
        <time>2022-05-15T07:57:27Z</time>
      </trkpt>
      <trkpt lat="44.91453" lon="0.80868">
        <ele>132.6</ele>
        <time>2022-05-15T07:57:29Z</time>
      </trkpt>
      <trkpt lat="44.91455" lon="0.80869">
        <ele>132.7</ele>
        <time>2022-05-15T07:57:30Z</time>
      </trkpt>
      <trkpt lat="44.91456" lon="0.8087">
        <ele>132.7</ele>
        <time>2022-05-15T07:57:31Z</time>
      </trkpt>
      <trkpt lat="44.91458" lon="0.80871">
        <ele>132.8</ele>
        <time>2022-05-15T07:57:33Z</time>
      </trkpt>
      <trkpt lat="44.91459" lon="0.80872">
        <ele>132.8</ele>
        <time>2022-05-15T07:57:34Z</time>
      </trkpt>
      <trkpt lat="44.91462" lon="0.80874">
        <ele>132.9</ele>
        <time>2022-05-15T07:57:35Z</time>
      </trkpt>
      <trkpt lat="44.91468" lon="0.80878">
        <ele>133.1</ele>
        <time>2022-05-15T07:57:37Z</time>
      </trkpt>
      <trkpt lat="44.91471" lon="0.80879">
        <ele>133.2</ele>
        <time>2022-05-15T07:57:38Z</time>
      </trkpt>
      <trkpt lat="44.91473" lon="0.80881">
        <ele>133.2</ele>
        <time>2022-05-15T07:57:39Z</time>
      </trkpt>
      <trkpt lat="44.91478" lon="0.80885">
        <ele>133.4</ele>
        <time>2022-05-15T07:57:41Z</time>
      </trkpt>
      <trkpt lat="44.91483" lon="0.80889">
        <ele>133.5</ele>
        <time>2022-05-15T07:57:43Z</time>
      </trkpt>
      <trkpt lat="44.91488" lon="0.80894">
        <ele>133.6</ele>
        <time>2022-05-15T07:57:45Z</time>
      </trkpt>
      <trkpt lat="44.91492" lon="0.80897">
        <ele>133.7</ele>
        <time>2022-05-15T07:57:47Z</time>
      </trkpt>
      <trkpt lat="44.91497" lon="0.80901">
        <ele>133.8</ele>
        <time>2022-05-15T07:57:49Z</time>
      </trkpt>
      <trkpt lat="44.91499" lon="0.80903">
        <ele>133.9</ele>
        <time>2022-05-15T07:57:50Z</time>
      </trkpt>
      <trkpt lat="44.91501" lon="0.80905">
        <ele>134</ele>
        <time>2022-05-15T07:57:51Z</time>
      </trkpt>
      <trkpt lat="44.91506" lon="0.80909">
        <ele>134.3</ele>
        <time>2022-05-15T07:57:53Z</time>
      </trkpt>
      <trkpt lat="44.91511" lon="0.80913">
        <ele>134.5</ele>
        <time>2022-05-15T07:57:55Z</time>
      </trkpt>
      <trkpt lat="44.91513" lon="0.80916">
        <ele>134.7</ele>
        <time>2022-05-15T07:57:56Z</time>
      </trkpt>
      <trkpt lat="44.91516" lon="0.80917">
        <ele>134.9</ele>
        <time>2022-05-15T07:57:57Z</time>
      </trkpt>
      <trkpt lat="44.9152" lon="0.80921">
        <ele>135.2</ele>
        <time>2022-05-15T07:57:59Z</time>
      </trkpt>
      <trkpt lat="44.91523" lon="0.80925">
        <ele>135.5</ele>
        <time>2022-05-15T07:58:01Z</time>
      </trkpt>
      <trkpt lat="44.91525" lon="0.80927">
        <ele>135.7</ele>
        <time>2022-05-15T07:58:02Z</time>
      </trkpt>
      <trkpt lat="44.91527" lon="0.8093">
        <ele>135.9</ele>
        <time>2022-05-15T07:58:03Z</time>
      </trkpt>
      <trkpt lat="44.91532" lon="0.80935">
        <ele>136.3</ele>
        <time>2022-05-15T07:58:05Z</time>
      </trkpt>
      <trkpt lat="44.91536" lon="0.80939">
        <ele>136.7</ele>
        <time>2022-05-15T07:58:07Z</time>
      </trkpt>
      <trkpt lat="44.91538" lon="0.80942">
        <ele>136.9</ele>
        <time>2022-05-15T07:58:08Z</time>
      </trkpt>
      <trkpt lat="44.9154" lon="0.80944">
        <ele>137</ele>
        <time>2022-05-15T07:58:09Z</time>
      </trkpt>
      <trkpt lat="44.91544" lon="0.80949">
        <ele>137.4</ele>
        <time>2022-05-15T07:58:11Z</time>
      </trkpt>
      <trkpt lat="44.91548" lon="0.80954">
        <ele>137.8</ele>
        <time>2022-05-15T07:58:13Z</time>
      </trkpt>
      <trkpt lat="44.91552" lon="0.80958">
        <ele>138.1</ele>
        <time>2022-05-15T07:58:15Z</time>
      </trkpt>
      <trkpt lat="44.91554" lon="0.80961">
        <ele>138.3</ele>
        <time>2022-05-15T07:58:16Z</time>
      </trkpt>
      <trkpt lat="44.91556" lon="0.80963">
        <ele>138.4</ele>
        <time>2022-05-15T07:58:17Z</time>
      </trkpt>
      <trkpt lat="44.9156" lon="0.80968">
        <ele>138.7</ele>
        <time>2022-05-15T07:58:19Z</time>
      </trkpt>
      <trkpt lat="44.91564" lon="0.80974">
        <ele>138.9</ele>
        <time>2022-05-15T07:58:21Z</time>
      </trkpt>
      <trkpt lat="44.91567" lon="0.8098">
        <ele>139</ele>
        <time>2022-05-15T07:58:23Z</time>
      </trkpt>
      <trkpt lat="44.91571" lon="0.80985">
        <ele>139.1</ele>
        <time>2022-05-15T07:58:25Z</time>
      </trkpt>
      <trkpt lat="44.91574" lon="0.80991">
        <ele>139.2</ele>
        <time>2022-05-15T07:58:27Z</time>
      </trkpt>
      <trkpt lat="44.91578" lon="0.80997">
        <ele>139.2</ele>
        <time>2022-05-15T07:58:29Z</time>
      </trkpt>
      <trkpt lat="44.91581" lon="0.81003">
        <ele>139.1</ele>
        <time>2022-05-15T07:58:31Z</time>
      </trkpt>
      <trkpt lat="44.91585" lon="0.8101">
        <ele>139</ele>
        <time>2022-05-15T07:58:33Z</time>
      </trkpt>
      <trkpt lat="44.9159" lon="0.81018">
        <ele>138.8</ele>
        <time>2022-05-15T07:58:35Z</time>
      </trkpt>
      <trkpt lat="44.91595" lon="0.81026">
        <ele>138.6</ele>
        <time>2022-05-15T07:58:37Z</time>
      </trkpt>
      <trkpt lat="44.916" lon="0.81035">
        <ele>138.4</ele>
        <time>2022-05-15T07:58:39Z</time>
      </trkpt>
      <trkpt lat="44.91603" lon="0.81039">
        <ele>138.3</ele>
        <time>2022-05-15T07:58:40Z</time>
      </trkpt>
      <trkpt lat="44.91606" lon="0.81044">
        <ele>138.2</ele>
        <time>2022-05-15T07:58:41Z</time>
      </trkpt>
      <trkpt lat="44.91612" lon="0.81055">
        <ele>138.1</ele>
        <time>2022-05-15T07:58:43Z</time>
      </trkpt>
      <trkpt lat="44.91618" lon="0.81066">
        <ele>138.2</ele>
        <time>2022-05-15T07:58:45Z</time>
      </trkpt>
      <trkpt lat="44.91625" lon="0.81077">
        <ele>138.4</ele>
        <time>2022-05-15T07:58:47Z</time>
      </trkpt>
      <trkpt lat="44.91631" lon="0.81087">
        <ele>138.8</ele>
        <time>2022-05-15T07:58:49Z</time>
      </trkpt>
      <trkpt lat="44.91637" lon="0.81098">
        <ele>139.3</ele>
        <time>2022-05-15T07:58:51Z</time>
      </trkpt>
      <trkpt lat="44.91643" lon="0.81108">
        <ele>140</ele>
        <time>2022-05-15T07:58:53Z</time>
      </trkpt>
      <trkpt lat="44.91646" lon="0.81112">
        <ele>140.3</ele>
        <time>2022-05-15T07:58:54Z</time>
      </trkpt>
      <trkpt lat="44.91648" lon="0.81117">
        <ele>140.6</ele>
        <time>2022-05-15T07:58:55Z</time>
      </trkpt>
      <trkpt lat="44.91653" lon="0.81125">
        <ele>141.3</ele>
        <time>2022-05-15T07:58:57Z</time>
      </trkpt>
      <trkpt lat="44.91656" lon="0.81132">
        <ele>141.8</ele>
        <time>2022-05-15T07:58:59Z</time>
      </trkpt>
      <trkpt lat="44.91658" lon="0.81136">
        <ele>142</ele>
        <time>2022-05-15T07:59:00Z</time>
      </trkpt>
      <trkpt lat="44.9166" lon="0.81139">
        <ele>142.2</ele>
        <time>2022-05-15T07:59:01Z</time>
      </trkpt>
      <trkpt lat="44.91663" lon="0.81147">
        <ele>142.6</ele>
        <time>2022-05-15T07:59:03Z</time>
      </trkpt>
      <trkpt lat="44.91667" lon="0.81154">
        <ele>142.8</ele>
        <time>2022-05-15T07:59:05Z</time>
      </trkpt>
      <trkpt lat="44.91671" lon="0.81161">
        <ele>143</ele>
        <time>2022-05-15T07:59:07Z</time>
      </trkpt>
      <trkpt lat="44.91674" lon="0.81169">
        <ele>143.1</ele>
        <time>2022-05-15T07:59:09Z</time>
      </trkpt>
      <trkpt lat="44.91678" lon="0.81176">
        <ele>143.1</ele>
        <time>2022-05-15T07:59:11Z</time>
      </trkpt>
      <trkpt lat="44.91681" lon="0.81183">
        <ele>143.2</ele>
        <time>2022-05-15T07:59:13Z</time>
      </trkpt>
      <trkpt lat="44.91685" lon="0.81192">
        <ele>143.4</ele>
        <time>2022-05-15T07:59:15Z</time>
      </trkpt>
      <trkpt lat="44.9169" lon="0.81201">
        <ele>143.9</ele>
        <time>2022-05-15T07:59:17Z</time>
      </trkpt>
      <trkpt lat="44.91692" lon="0.81206">
        <ele>144.2</ele>
        <time>2022-05-15T07:59:18Z</time>
      </trkpt>
      <trkpt lat="44.91693" lon="0.8121">
        <ele>144.4</ele>
        <time>2022-05-15T07:59:19Z</time>
      </trkpt>
      <trkpt lat="44.91689" lon="0.81223">
        <ele>145.1</ele>
        <time>2022-05-15T07:59:21Z</time>
      </trkpt>
      <trkpt lat="44.91684" lon="0.81228">
        <ele>145.5</ele>
        <time>2022-05-15T07:59:23Z</time>
      </trkpt>
      <trkpt lat="44.91679" lon="0.81232">
        <ele>145.9</ele>
        <time>2022-05-15T07:59:25Z</time>
      </trkpt>
      <trkpt lat="44.91675" lon="0.81236">
        <ele>146.3</ele>
        <time>2022-05-15T07:59:27Z</time>
      </trkpt>
      <trkpt lat="44.91673" lon="0.81239">
        <ele>146.5</ele>
        <time>2022-05-15T07:59:28Z</time>
      </trkpt>
      <trkpt lat="44.91671" lon="0.81241">
        <ele>146.7</ele>
        <time>2022-05-15T07:59:29Z</time>
      </trkpt>
      <trkpt lat="44.91667" lon="0.81244">
        <ele>147</ele>
        <time>2022-05-15T07:59:31Z</time>
      </trkpt>
      <trkpt lat="44.91663" lon="0.81248">
        <ele>147.4</ele>
        <time>2022-05-15T07:59:33Z</time>
      </trkpt>
      <trkpt lat="44.91661" lon="0.8125">
        <ele>147.5</ele>
        <time>2022-05-15T07:59:34Z</time>
      </trkpt>
      <trkpt lat="44.9166" lon="0.81251">
        <ele>147.7</ele>
        <time>2022-05-15T07:59:35Z</time>
      </trkpt>
      <trkpt lat="44.91657" lon="0.81254">
        <ele>148</ele>
        <time>2022-05-15T07:59:37Z</time>
      </trkpt>
      <trkpt lat="44.91654" lon="0.81257">
        <ele>148.3</ele>
        <time>2022-05-15T07:59:39Z</time>
      </trkpt>
      <trkpt lat="44.9165" lon="0.81261">
        <ele>148.6</ele>
        <time>2022-05-15T07:59:41Z</time>
      </trkpt>
      <trkpt lat="44.91646" lon="0.81265">
        <ele>148.9</ele>
        <time>2022-05-15T07:59:43Z</time>
      </trkpt>
      <trkpt lat="44.91643" lon="0.81269">
        <ele>149.3</ele>
        <time>2022-05-15T07:59:45Z</time>
      </trkpt>
      <trkpt lat="44.9164" lon="0.81273">
        <ele>149.6</ele>
        <time>2022-05-15T07:59:47Z</time>
      </trkpt>
      <trkpt lat="44.91639" lon="0.81276">
        <ele>149.8</ele>
        <time>2022-05-15T07:59:48Z</time>
      </trkpt>
      <trkpt lat="44.91637" lon="0.81279">
        <ele>150</ele>
        <time>2022-05-15T07:59:49Z</time>
      </trkpt>
      <trkpt lat="44.91634" lon="0.81285">
        <ele>150.5</ele>
        <time>2022-05-15T07:59:51Z</time>
      </trkpt>
      <trkpt lat="44.91632" lon="0.81289">
        <ele>150.8</ele>
        <time>2022-05-15T07:59:53Z</time>
      </trkpt>
      <trkpt lat="44.91629" lon="0.81294">
        <ele>151.2</ele>
        <time>2022-05-15T07:59:55Z</time>
      </trkpt>
      <trkpt lat="44.91627" lon="0.81299">
        <ele>151.5</ele>
        <time>2022-05-15T07:59:57Z</time>
      </trkpt>
      <trkpt lat="44.91624" lon="0.81304">
        <ele>151.9</ele>
        <time>2022-05-15T07:59:59Z</time>
      </trkpt>
      <trkpt lat="44.91622" lon="0.81309">
        <ele>152.3</ele>
        <time>2022-05-15T08:00:01Z</time>
      </trkpt>
      <trkpt lat="44.91619" lon="0.81314">
        <ele>152.7</ele>
        <time>2022-05-15T08:00:03Z</time>
      </trkpt>
      <trkpt lat="44.91616" lon="0.81319">
        <ele>153.1</ele>
        <time>2022-05-15T08:00:05Z</time>
      </trkpt>
      <trkpt lat="44.91614" lon="0.81324">
        <ele>153.5</ele>
        <time>2022-05-15T08:00:07Z</time>
      </trkpt>
      <trkpt lat="44.91611" lon="0.81328">
        <ele>153.9</ele>
        <time>2022-05-15T08:00:09Z</time>
      </trkpt>
      <trkpt lat="44.91609" lon="0.81335">
        <ele>154.3</ele>
        <time>2022-05-15T08:00:11Z</time>
      </trkpt>
      <trkpt lat="44.91607" lon="0.81338">
        <ele>154.5</ele>
        <time>2022-05-15T08:00:12Z</time>
      </trkpt>
      <trkpt lat="44.91606" lon="0.81341">
        <ele>154.7</ele>
        <time>2022-05-15T08:00:13Z</time>
      </trkpt>
      <trkpt lat="44.91604" lon="0.81347">
        <ele>155.1</ele>
        <time>2022-05-15T08:00:15Z</time>
      </trkpt>
      <trkpt lat="44.91602" lon="0.81352">
        <ele>155.4</ele>
        <time>2022-05-15T08:00:17Z</time>
      </trkpt>
      <trkpt lat="44.916" lon="0.81358">
        <ele>155.7</ele>
        <time>2022-05-15T08:00:19Z</time>
      </trkpt>
      <trkpt lat="44.91598" lon="0.8136">
        <ele>155.8</ele>
        <time>2022-05-15T08:00:20Z</time>
      </trkpt>
      <trkpt lat="44.91597" lon="0.81363">
        <ele>156</ele>
        <time>2022-05-15T08:00:21Z</time>
      </trkpt>
      <trkpt lat="44.91595" lon="0.81369">
        <ele>156.3</ele>
        <time>2022-05-15T08:00:23Z</time>
      </trkpt>
      <trkpt lat="44.91593" lon="0.81374">
        <ele>156.6</ele>
        <time>2022-05-15T08:00:25Z</time>
      </trkpt>
      <trkpt lat="44.91591" lon="0.8138">
        <ele>156.8</ele>
        <time>2022-05-15T08:00:27Z</time>
      </trkpt>
      <trkpt lat="44.91588" lon="0.81385">
        <ele>157.1</ele>
        <time>2022-05-15T08:00:29Z</time>
      </trkpt>
      <trkpt lat="44.91586" lon="0.81391">
        <ele>157.5</ele>
        <time>2022-05-15T08:00:31Z</time>
      </trkpt>
      <trkpt lat="44.91584" lon="0.81397">
        <ele>157.8</ele>
        <time>2022-05-15T08:00:33Z</time>
      </trkpt>
      <trkpt lat="44.91581" lon="0.81403">
        <ele>158.2</ele>
        <time>2022-05-15T08:00:35Z</time>
      </trkpt>
      <trkpt lat="44.91579" lon="0.81409">
        <ele>158.5</ele>
        <time>2022-05-15T08:00:37Z</time>
      </trkpt>
      <trkpt lat="44.91577" lon="0.81415">
        <ele>158.9</ele>
        <time>2022-05-15T08:00:39Z</time>
      </trkpt>
      <trkpt lat="44.91576" lon="0.81417">
        <ele>159.1</ele>
        <time>2022-05-15T08:00:40Z</time>
      </trkpt>
      <trkpt lat="44.91575" lon="0.8142">
        <ele>159.2</ele>
        <time>2022-05-15T08:00:41Z</time>
      </trkpt>
      <trkpt lat="44.91572" lon="0.81426">
        <ele>159.6</ele>
        <time>2022-05-15T08:00:43Z</time>
      </trkpt>
      <trkpt lat="44.9157" lon="0.81431">
        <ele>160</ele>
        <time>2022-05-15T08:00:45Z</time>
      </trkpt>
      <trkpt lat="44.91568" lon="0.81436">
        <ele>160.4</ele>
        <time>2022-05-15T08:00:47Z</time>
      </trkpt>
      <trkpt lat="44.91567" lon="0.81438">
        <ele>160.5</ele>
        <time>2022-05-15T08:00:48Z</time>
      </trkpt>
      <trkpt lat="44.91566" lon="0.81441">
        <ele>160.7</ele>
        <time>2022-05-15T08:00:49Z</time>
      </trkpt>
      <trkpt lat="44.91564" lon="0.81446">
        <ele>161.1</ele>
        <time>2022-05-15T08:00:51Z</time>
      </trkpt>
      <trkpt lat="44.91562" lon="0.81451">
        <ele>161.5</ele>
        <time>2022-05-15T08:00:53Z</time>
      </trkpt>
      <trkpt lat="44.91561" lon="0.81455">
        <ele>161.7</ele>
        <time>2022-05-15T08:00:54Z</time>
      </trkpt>
      <trkpt lat="44.91561" lon="0.81458">
        <ele>161.9</ele>
        <time>2022-05-15T08:00:55Z</time>
      </trkpt>
      <trkpt lat="44.91559" lon="0.81463">
        <ele>162.2</ele>
        <time>2022-05-15T08:00:57Z</time>
      </trkpt>
      <trkpt lat="44.91558" lon="0.81468">
        <ele>162.5</ele>
        <time>2022-05-15T08:00:59Z</time>
      </trkpt>
      <trkpt lat="44.91556" lon="0.81475">
        <ele>162.8</ele>
        <time>2022-05-15T08:01:01Z</time>
      </trkpt>
      <trkpt lat="44.91554" lon="0.8148">
        <ele>163</ele>
        <time>2022-05-15T08:01:03Z</time>
      </trkpt>
      <trkpt lat="44.91552" lon="0.81487">
        <ele>163.3</ele>
        <time>2022-05-15T08:01:05Z</time>
      </trkpt>
      <trkpt lat="44.91549" lon="0.81492">
        <ele>163.6</ele>
        <time>2022-05-15T08:01:07Z</time>
      </trkpt>
      <trkpt lat="44.91547" lon="0.81494">
        <ele>163.7</ele>
        <time>2022-05-15T08:01:08Z</time>
      </trkpt>
      <trkpt lat="44.91546" lon="0.81497">
        <ele>163.9</ele>
        <time>2022-05-15T08:01:09Z</time>
      </trkpt>
      <trkpt lat="44.91542" lon="0.81502">
        <ele>164.1</ele>
        <time>2022-05-15T08:01:11Z</time>
      </trkpt>
      <trkpt lat="44.91538" lon="0.81506">
        <ele>164.3</ele>
        <time>2022-05-15T08:01:13Z</time>
      </trkpt>
      <trkpt lat="44.91534" lon="0.8151">
        <ele>164.6</ele>
        <time>2022-05-15T08:01:15Z</time>
      </trkpt>
      <trkpt lat="44.9153" lon="0.81514">
        <ele>164.8</ele>
        <time>2022-05-15T08:01:17Z</time>
      </trkpt>
      <trkpt lat="44.91526" lon="0.81518">
        <ele>165.1</ele>
        <time>2022-05-15T08:01:19Z</time>
      </trkpt>
      <trkpt lat="44.91522" lon="0.81522">
        <ele>165.4</ele>
        <time>2022-05-15T08:01:21Z</time>
      </trkpt>
      <trkpt lat="44.91518" lon="0.81526">
        <ele>165.7</ele>
        <time>2022-05-15T08:01:23Z</time>
      </trkpt>
      <trkpt lat="44.91516" lon="0.81528">
        <ele>165.8</ele>
        <time>2022-05-15T08:01:24Z</time>
      </trkpt>
      <trkpt lat="44.91514" lon="0.81529">
        <ele>166</ele>
        <time>2022-05-15T08:01:25Z</time>
      </trkpt>
      <trkpt lat="44.9151" lon="0.81533">
        <ele>166.3</ele>
        <time>2022-05-15T08:01:27Z</time>
      </trkpt>
      <trkpt lat="44.91505" lon="0.81537">
        <ele>166.6</ele>
        <time>2022-05-15T08:01:29Z</time>
      </trkpt>
      <trkpt lat="44.91501" lon="0.81542">
        <ele>166.9</ele>
        <time>2022-05-15T08:01:31Z</time>
      </trkpt>
      <trkpt lat="44.91497" lon="0.81546">
        <ele>167.2</ele>
        <time>2022-05-15T08:01:33Z</time>
      </trkpt>
      <trkpt lat="44.91492" lon="0.8155">
        <ele>167.5</ele>
        <time>2022-05-15T08:01:35Z</time>
      </trkpt>
      <trkpt lat="44.91488" lon="0.81554">
        <ele>167.8</ele>
        <time>2022-05-15T08:01:37Z</time>
      </trkpt>
      <trkpt lat="44.91486" lon="0.81556">
        <ele>167.9</ele>
        <time>2022-05-15T08:01:38Z</time>
      </trkpt>
      <trkpt lat="44.91483" lon="0.81558">
        <ele>168.1</ele>
        <time>2022-05-15T08:01:39Z</time>
      </trkpt>
      <trkpt lat="44.91478" lon="0.81561">
        <ele>168.3</ele>
        <time>2022-05-15T08:01:41Z</time>
      </trkpt>
      <trkpt lat="44.91473" lon="0.81564">
        <ele>168.5</ele>
        <time>2022-05-15T08:01:43Z</time>
      </trkpt>
      <trkpt lat="44.9147" lon="0.81565">
        <ele>168.6</ele>
        <time>2022-05-15T08:01:44Z</time>
      </trkpt>
      <trkpt lat="44.91468" lon="0.81566">
        <ele>168.7</ele>
        <time>2022-05-15T08:01:45Z</time>
      </trkpt>
      <trkpt lat="44.91462" lon="0.8157">
        <ele>169</ele>
        <time>2022-05-15T08:01:47Z</time>
      </trkpt>
      <trkpt lat="44.91456" lon="0.81573">
        <ele>169.2</ele>
        <time>2022-05-15T08:01:49Z</time>
      </trkpt>
      <trkpt lat="44.91453" lon="0.81575">
        <ele>169.3</ele>
        <time>2022-05-15T08:01:50Z</time>
      </trkpt>
      <trkpt lat="44.9145" lon="0.81577">
        <ele>169.4</ele>
        <time>2022-05-15T08:01:51Z</time>
      </trkpt>
      <trkpt lat="44.91445" lon="0.81581">
        <ele>169.5</ele>
        <time>2022-05-15T08:01:53Z</time>
      </trkpt>
      <trkpt lat="44.9144" lon="0.81585">
        <ele>169.7</ele>
        <time>2022-05-15T08:01:55Z</time>
      </trkpt>
      <trkpt lat="44.91435" lon="0.8159">
        <ele>169.7</ele>
        <time>2022-05-15T08:01:57Z</time>
      </trkpt>
      <trkpt lat="44.91433" lon="0.81592">
        <ele>169.8</ele>
        <time>2022-05-15T08:01:58Z</time>
      </trkpt>
      <trkpt lat="44.9143" lon="0.81594">
        <ele>169.8</ele>
        <time>2022-05-15T08:01:59Z</time>
      </trkpt>
      <trkpt lat="44.91424" lon="0.816">
        <ele>169.9</ele>
        <time>2022-05-15T08:02:01Z</time>
      </trkpt>
      <trkpt lat="44.91418" lon="0.81605">
        <ele>170</ele>
        <time>2022-05-15T08:02:03Z</time>
      </trkpt>
      <trkpt lat="44.91415" lon="0.81608">
        <ele>170.1</ele>
        <time>2022-05-15T08:02:04Z</time>
      </trkpt>
      <trkpt lat="44.91412" lon="0.81611">
        <ele>170.1</ele>
        <time>2022-05-15T08:02:05Z</time>
      </trkpt>
      <trkpt lat="44.91406" lon="0.81616">
        <ele>170.2</ele>
        <time>2022-05-15T08:02:07Z</time>
      </trkpt>
      <trkpt lat="44.91399" lon="0.81622">
        <ele>170.3</ele>
        <time>2022-05-15T08:02:09Z</time>
      </trkpt>
      <trkpt lat="44.91396" lon="0.81626">
        <ele>170.3</ele>
        <time>2022-05-15T08:02:10Z</time>
      </trkpt>
      <trkpt lat="44.91394" lon="0.8163">
        <ele>170.3</ele>
        <time>2022-05-15T08:02:11Z</time>
      </trkpt>
      <trkpt lat="44.91388" lon="0.8164">
        <ele>170.3</ele>
        <time>2022-05-15T08:02:13Z</time>
      </trkpt>
      <trkpt lat="44.91386" lon="0.81645">
        <ele>170.3</ele>
        <time>2022-05-15T08:02:14Z</time>
      </trkpt>
      <trkpt lat="44.9138" lon="0.81649">
        <ele>170.3</ele>
        <time>2022-05-15T08:02:15Z</time>
      </trkpt>
      <trkpt lat="44.91372" lon="0.81652">
        <ele>170.3</ele>
        <time>2022-05-15T08:02:17Z</time>
      </trkpt>
      <trkpt lat="44.91368" lon="0.81654">
        <ele>170.3</ele>
        <time>2022-05-15T08:02:18Z</time>
      </trkpt>
      <trkpt lat="44.91365" lon="0.81655">
        <ele>170.4</ele>
        <time>2022-05-15T08:02:19Z</time>
      </trkpt>
      <trkpt lat="44.91357" lon="0.81659">
        <ele>170.4</ele>
        <time>2022-05-15T08:02:21Z</time>
      </trkpt>
      <trkpt lat="44.91349" lon="0.81664">
        <ele>170.4</ele>
        <time>2022-05-15T08:02:23Z</time>
      </trkpt>
      <trkpt lat="44.91338" lon="0.8167">
        <ele>170.4</ele>
        <time>2022-05-15T08:02:25Z</time>
      </trkpt>
      <trkpt lat="44.91337" lon="0.81675">
        <ele>170.5</ele>
        <time>2022-05-15T08:02:26Z</time>
      </trkpt>
      <trkpt lat="44.91336" lon="0.81682">
        <ele>170.5</ele>
        <time>2022-05-15T08:02:27Z</time>
      </trkpt>
      <trkpt lat="44.91334" lon="0.81691">
        <ele>170.6</ele>
        <time>2022-05-15T08:02:29Z</time>
      </trkpt>
      <trkpt lat="44.91335" lon="0.81706">
        <ele>170.9</ele>
        <time>2022-05-15T08:02:31Z</time>
      </trkpt>
      <trkpt lat="44.91336" lon="0.81715">
        <ele>171.1</ele>
        <time>2022-05-15T08:02:33Z</time>
      </trkpt>
      <trkpt lat="44.91337" lon="0.81719">
        <ele>171.2</ele>
        <time>2022-05-15T08:02:34Z</time>
      </trkpt>
      <trkpt lat="44.91339" lon="0.81727">
        <ele>171.5</ele>
        <time>2022-05-15T08:02:35Z</time>
      </trkpt>
      <trkpt lat="44.91342" lon="0.81736">
        <ele>171.7</ele>
        <time>2022-05-15T08:02:37Z</time>
      </trkpt>
      <trkpt lat="44.91346" lon="0.81746">
        <ele>172</ele>
        <time>2022-05-15T08:02:39Z</time>
      </trkpt>
      <trkpt lat="44.91348" lon="0.81755">
        <ele>172.3</ele>
        <time>2022-05-15T08:02:41Z</time>
      </trkpt>
      <trkpt lat="44.91351" lon="0.81767">
        <ele>172.5</ele>
        <time>2022-05-15T08:02:43Z</time>
      </trkpt>
      <trkpt lat="44.91355" lon="0.8178">
        <ele>172.6</ele>
        <time>2022-05-15T08:02:45Z</time>
      </trkpt>
      <trkpt lat="44.91357" lon="0.81791">
        <ele>172.7</ele>
        <time>2022-05-15T08:02:47Z</time>
      </trkpt>
      <trkpt lat="44.9136" lon="0.81805">
        <ele>172.8</ele>
        <time>2022-05-15T08:02:49Z</time>
      </trkpt>
      <trkpt lat="44.91362" lon="0.81819">
        <ele>172.9</ele>
        <time>2022-05-15T08:02:51Z</time>
      </trkpt>
      <trkpt lat="44.91364" lon="0.81832">
        <ele>172.9</ele>
        <time>2022-05-15T08:02:53Z</time>
      </trkpt>
      <trkpt lat="44.91366" lon="0.81843">
        <ele>173</ele>
        <time>2022-05-15T08:02:55Z</time>
      </trkpt>
      <trkpt lat="44.91368" lon="0.81856">
        <ele>173.1</ele>
        <time>2022-05-15T08:02:57Z</time>
      </trkpt>
      <trkpt lat="44.91369" lon="0.81872">
        <ele>173.3</ele>
        <time>2022-05-15T08:02:59Z</time>
      </trkpt>
      <trkpt lat="44.91373" lon="0.81884">
        <ele>173.5</ele>
        <time>2022-05-15T08:03:01Z</time>
      </trkpt>
      <trkpt lat="44.91377" lon="0.81896">
        <ele>173.6</ele>
        <time>2022-05-15T08:03:03Z</time>
      </trkpt>
      <trkpt lat="44.91381" lon="0.81907">
        <ele>173.8</ele>
        <time>2022-05-15T08:03:05Z</time>
      </trkpt>
      <trkpt lat="44.91383" lon="0.81913">
        <ele>173.9</ele>
        <time>2022-05-15T08:03:06Z</time>
      </trkpt>
      <trkpt lat="44.91386" lon="0.8192">
        <ele>174</ele>
        <time>2022-05-15T08:03:07Z</time>
      </trkpt>
      <trkpt lat="44.9139" lon="0.81931">
        <ele>174.1</ele>
        <time>2022-05-15T08:03:09Z</time>
      </trkpt>
      <trkpt lat="44.91394" lon="0.81944">
        <ele>174.3</ele>
        <time>2022-05-15T08:03:11Z</time>
      </trkpt>
      <trkpt lat="44.91399" lon="0.81955">
        <ele>174.5</ele>
        <time>2022-05-15T08:03:13Z</time>
      </trkpt>
      <trkpt lat="44.91403" lon="0.81966">
        <ele>174.7</ele>
        <time>2022-05-15T08:03:15Z</time>
      </trkpt>
      <trkpt lat="44.91408" lon="0.81976">
        <ele>175</ele>
        <time>2022-05-15T08:03:17Z</time>
      </trkpt>
      <trkpt lat="44.9141" lon="0.81981">
        <ele>175.1</ele>
        <time>2022-05-15T08:03:18Z</time>
      </trkpt>
      <trkpt lat="44.91413" lon="0.81986">
        <ele>175.2</ele>
        <time>2022-05-15T08:03:19Z</time>
      </trkpt>
      <trkpt lat="44.91418" lon="0.81995">
        <ele>175.5</ele>
        <time>2022-05-15T08:03:21Z</time>
      </trkpt>
      <trkpt lat="44.91423" lon="0.82005">
        <ele>175.8</ele>
        <time>2022-05-15T08:03:23Z</time>
      </trkpt>
      <trkpt lat="44.91427" lon="0.82013">
        <ele>176</ele>
        <time>2022-05-15T08:03:25Z</time>
      </trkpt>
      <trkpt lat="44.91432" lon="0.82022">
        <ele>176.4</ele>
        <time>2022-05-15T08:03:27Z</time>
      </trkpt>
      <trkpt lat="44.91439" lon="0.82031">
        <ele>176.8</ele>
        <time>2022-05-15T08:03:29Z</time>
      </trkpt>
      <trkpt lat="44.91446" lon="0.82039">
        <ele>177.3</ele>
        <time>2022-05-15T08:03:31Z</time>
      </trkpt>
      <trkpt lat="44.9145" lon="0.82043">
        <ele>177.5</ele>
        <time>2022-05-15T08:03:32Z</time>
      </trkpt>
      <trkpt lat="44.91453" lon="0.82047">
        <ele>177.7</ele>
        <time>2022-05-15T08:03:33Z</time>
      </trkpt>
      <trkpt lat="44.9146" lon="0.82056">
        <ele>177.9</ele>
        <time>2022-05-15T08:03:35Z</time>
      </trkpt>
      <trkpt lat="44.91466" lon="0.82064">
        <ele>178.2</ele>
        <time>2022-05-15T08:03:37Z</time>
      </trkpt>
      <trkpt lat="44.91472" lon="0.82073">
        <ele>178.4</ele>
        <time>2022-05-15T08:03:39Z</time>
      </trkpt>
      <trkpt lat="44.91478" lon="0.82081">
        <ele>178.5</ele>
        <time>2022-05-15T08:03:41Z</time>
      </trkpt>
      <trkpt lat="44.91481" lon="0.82086">
        <ele>178.5</ele>
        <time>2022-05-15T08:03:42Z</time>
      </trkpt>
      <trkpt lat="44.91484" lon="0.8209">
        <ele>178.5</ele>
        <time>2022-05-15T08:03:43Z</time>
      </trkpt>
      <trkpt lat="44.9149" lon="0.82098">
        <ele>178.6</ele>
        <time>2022-05-15T08:03:45Z</time>
      </trkpt>
      <trkpt lat="44.91496" lon="0.82108">
        <ele>178.6</ele>
        <time>2022-05-15T08:03:47Z</time>
      </trkpt>
      <trkpt lat="44.91503" lon="0.82116">
        <ele>178.5</ele>
        <time>2022-05-15T08:03:49Z</time>
      </trkpt>
      <trkpt lat="44.91507" lon="0.82121">
        <ele>178.5</ele>
        <time>2022-05-15T08:03:50Z</time>
      </trkpt>
      <trkpt lat="44.91511" lon="0.82126">
        <ele>178.4</ele>
        <time>2022-05-15T08:03:51Z</time>
      </trkpt>
      <trkpt lat="44.91515" lon="0.82131">
        <ele>178.3</ele>
        <time>2022-05-15T08:03:52Z</time>
      </trkpt>
      <trkpt lat="44.91519" lon="0.82136">
        <ele>178.2</ele>
        <time>2022-05-15T08:03:53Z</time>
      </trkpt>
      <trkpt lat="44.91528" lon="0.82144">
        <ele>178.1</ele>
        <time>2022-05-15T08:03:55Z</time>
      </trkpt>
      <trkpt lat="44.91532" lon="0.82148">
        <ele>178.1</ele>
        <time>2022-05-15T08:03:56Z</time>
      </trkpt>
      <trkpt lat="44.91536" lon="0.82151">
        <ele>178.1</ele>
        <time>2022-05-15T08:03:57Z</time>
      </trkpt>
      <trkpt lat="44.91539" lon="0.82155">
        <ele>178</ele>
        <time>2022-05-15T08:03:58Z</time>
      </trkpt>
      <trkpt lat="44.91543" lon="0.82159">
        <ele>178</ele>
        <time>2022-05-15T08:03:59Z</time>
      </trkpt>
      <trkpt lat="44.91546" lon="0.82162">
        <ele>177.9</ele>
        <time>2022-05-15T08:04:00Z</time>
      </trkpt>
      <trkpt lat="44.9155" lon="0.82166">
        <ele>177.8</ele>
        <time>2022-05-15T08:04:01Z</time>
      </trkpt>
      <trkpt lat="44.91557" lon="0.82172">
        <ele>177.7</ele>
        <time>2022-05-15T08:04:03Z</time>
      </trkpt>
      <trkpt lat="44.91563" lon="0.82179">
        <ele>177.5</ele>
        <time>2022-05-15T08:04:05Z</time>
      </trkpt>
      <trkpt lat="44.9157" lon="0.82186">
        <ele>177.4</ele>
        <time>2022-05-15T08:04:07Z</time>
      </trkpt>
      <trkpt lat="44.91577" lon="0.82192">
        <ele>177.2</ele>
        <time>2022-05-15T08:04:09Z</time>
      </trkpt>
      <trkpt lat="44.91583" lon="0.82199">
        <ele>177</ele>
        <time>2022-05-15T08:04:11Z</time>
      </trkpt>
      <trkpt lat="44.91591" lon="0.82207">
        <ele>176.9</ele>
        <time>2022-05-15T08:04:13Z</time>
      </trkpt>
      <trkpt lat="44.91598" lon="0.82214">
        <ele>176.8</ele>
        <time>2022-05-15T08:04:15Z</time>
      </trkpt>
      <trkpt lat="44.91605" lon="0.82221">
        <ele>176.8</ele>
        <time>2022-05-15T08:04:17Z</time>
      </trkpt>
      <trkpt lat="44.91611" lon="0.82227">
        <ele>176.8</ele>
        <time>2022-05-15T08:04:19Z</time>
      </trkpt>
      <trkpt lat="44.91618" lon="0.82234">
        <ele>176.8</ele>
        <time>2022-05-15T08:04:21Z</time>
      </trkpt>
      <trkpt lat="44.91625" lon="0.8224">
        <ele>176.8</ele>
        <time>2022-05-15T08:04:23Z</time>
      </trkpt>
      <trkpt lat="44.91631" lon="0.82247">
        <ele>176.8</ele>
        <time>2022-05-15T08:04:25Z</time>
      </trkpt>
      <trkpt lat="44.91638" lon="0.82254">
        <ele>176.8</ele>
        <time>2022-05-15T08:04:27Z</time>
      </trkpt>
      <trkpt lat="44.91641" lon="0.82257">
        <ele>176.8</ele>
        <time>2022-05-15T08:04:28Z</time>
      </trkpt>
      <trkpt lat="44.91645" lon="0.82261">
        <ele>176.8</ele>
        <time>2022-05-15T08:04:29Z</time>
      </trkpt>
      <trkpt lat="44.91652" lon="0.82267">
        <ele>176.9</ele>
        <time>2022-05-15T08:04:31Z</time>
      </trkpt>
      <trkpt lat="44.91658" lon="0.82275">
        <ele>176.9</ele>
        <time>2022-05-15T08:04:33Z</time>
      </trkpt>
      <trkpt lat="44.91664" lon="0.82282">
        <ele>176.9</ele>
        <time>2022-05-15T08:04:35Z</time>
      </trkpt>
      <trkpt lat="44.91667" lon="0.82286">
        <ele>177</ele>
        <time>2022-05-15T08:04:36Z</time>
      </trkpt>
      <trkpt lat="44.9167" lon="0.8229">
        <ele>177</ele>
        <time>2022-05-15T08:04:37Z</time>
      </trkpt>
      <trkpt lat="44.91675" lon="0.82298">
        <ele>177</ele>
        <time>2022-05-15T08:04:39Z</time>
      </trkpt>
      <trkpt lat="44.91681" lon="0.82306">
        <ele>177</ele>
        <time>2022-05-15T08:04:41Z</time>
      </trkpt>
      <trkpt lat="44.91687" lon="0.82315">
        <ele>176.9</ele>
        <time>2022-05-15T08:04:43Z</time>
      </trkpt>
      <trkpt lat="44.9169" lon="0.82319">
        <ele>176.8</ele>
        <time>2022-05-15T08:04:44Z</time>
      </trkpt>
      <trkpt lat="44.91693" lon="0.82323">
        <ele>176.8</ele>
        <time>2022-05-15T08:04:45Z</time>
      </trkpt>
      <trkpt lat="44.91699" lon="0.82332">
        <ele>176.8</ele>
        <time>2022-05-15T08:04:47Z</time>
      </trkpt>
      <trkpt lat="44.91704" lon="0.82341">
        <ele>176.8</ele>
        <time>2022-05-15T08:04:49Z</time>
      </trkpt>
      <trkpt lat="44.91707" lon="0.82345">
        <ele>176.8</ele>
        <time>2022-05-15T08:04:50Z</time>
      </trkpt>
      <trkpt lat="44.9171" lon="0.82349">
        <ele>176.8</ele>
        <time>2022-05-15T08:04:51Z</time>
      </trkpt>
      <trkpt lat="44.91715" lon="0.82357">
        <ele>176.8</ele>
        <time>2022-05-15T08:04:53Z</time>
      </trkpt>
      <trkpt lat="44.91721" lon="0.82365">
        <ele>176.8</ele>
        <time>2022-05-15T08:04:55Z</time>
      </trkpt>
      <trkpt lat="44.91724" lon="0.8237">
        <ele>176.8</ele>
        <time>2022-05-15T08:04:56Z</time>
      </trkpt>
      <trkpt lat="44.91728" lon="0.82375">
        <ele>176.8</ele>
        <time>2022-05-15T08:04:57Z</time>
      </trkpt>
      <trkpt lat="44.91734" lon="0.82384">
        <ele>176.8</ele>
        <time>2022-05-15T08:04:59Z</time>
      </trkpt>
      <trkpt lat="44.91737" lon="0.82388">
        <ele>176.8</ele>
        <time>2022-05-15T08:05:00Z</time>
      </trkpt>
      <trkpt lat="44.91739" lon="0.82392">
        <ele>176.8</ele>
        <time>2022-05-15T08:05:01Z</time>
      </trkpt>
      <trkpt lat="44.91742" lon="0.82397">
        <ele>176.8</ele>
        <time>2022-05-15T08:05:02Z</time>
      </trkpt>
      <trkpt lat="44.91744" lon="0.82403">
        <ele>176.8</ele>
        <time>2022-05-15T08:05:03Z</time>
      </trkpt>
      <trkpt lat="44.91745" lon="0.82409">
        <ele>176.7</ele>
        <time>2022-05-15T08:05:04Z</time>
      </trkpt>
      <trkpt lat="44.91746" lon="0.82415">
        <ele>176.7</ele>
        <time>2022-05-15T08:05:05Z</time>
      </trkpt>
      <trkpt lat="44.91748" lon="0.82427">
        <ele>176.7</ele>
        <time>2022-05-15T08:05:07Z</time>
      </trkpt>
      <trkpt lat="44.91749" lon="0.8244">
        <ele>176.7</ele>
        <time>2022-05-15T08:05:09Z</time>
      </trkpt>
      <trkpt lat="44.9175" lon="0.82453">
        <ele>176.7</ele>
        <time>2022-05-15T08:05:11Z</time>
      </trkpt>
      <trkpt lat="44.91752" lon="0.82465">
        <ele>176.7</ele>
        <time>2022-05-15T08:05:13Z</time>
      </trkpt>
      <trkpt lat="44.91753" lon="0.82477">
        <ele>176.8</ele>
        <time>2022-05-15T08:05:15Z</time>
      </trkpt>
      <trkpt lat="44.91755" lon="0.8249">
        <ele>176.9</ele>
        <time>2022-05-15T08:05:17Z</time>
      </trkpt>
      <trkpt lat="44.91757" lon="0.82502">
        <ele>177</ele>
        <time>2022-05-15T08:05:19Z</time>
      </trkpt>
      <trkpt lat="44.91758" lon="0.82514">
        <ele>177.2</ele>
        <time>2022-05-15T08:05:21Z</time>
      </trkpt>
      <trkpt lat="44.91759" lon="0.8252">
        <ele>177.3</ele>
        <time>2022-05-15T08:05:22Z</time>
      </trkpt>
      <trkpt lat="44.9176" lon="0.82526">
        <ele>177.5</ele>
        <time>2022-05-15T08:05:23Z</time>
      </trkpt>
      <trkpt lat="44.91761" lon="0.82538">
        <ele>177.8</ele>
        <time>2022-05-15T08:05:25Z</time>
      </trkpt>
      <trkpt lat="44.91763" lon="0.8255">
        <ele>178.2</ele>
        <time>2022-05-15T08:05:27Z</time>
      </trkpt>
      <trkpt lat="44.91765" lon="0.82561">
        <ele>178.6</ele>
        <time>2022-05-15T08:05:29Z</time>
      </trkpt>
      <trkpt lat="44.91765" lon="0.82567">
        <ele>178.8</ele>
        <time>2022-05-15T08:05:30Z</time>
      </trkpt>
      <trkpt lat="44.91766" lon="0.82573">
        <ele>178.9</ele>
        <time>2022-05-15T08:05:31Z</time>
      </trkpt>
      <trkpt lat="44.91769" lon="0.82581">
        <ele>179.2</ele>
        <time>2022-05-15T08:05:33Z</time>
      </trkpt>
      <trkpt lat="44.91771" lon="0.82584">
        <ele>179.1</ele>
        <time>2022-05-15T08:05:34Z</time>
      </trkpt>
      <trkpt lat="44.91773" lon="0.82588">
        <ele>179.4</ele>
        <time>2022-05-15T08:05:35Z</time>
      </trkpt>
      <trkpt lat="44.91775" lon="0.82591">
        <ele>179.3</ele>
        <time>2022-05-15T08:05:36Z</time>
      </trkpt>
      <trkpt lat="44.91777" lon="0.82594">
        <ele>179.3</ele>
        <time>2022-05-15T08:05:37Z</time>
      </trkpt>
      <trkpt lat="44.91787" lon="0.82611">
        <ele>178.8</ele>
        <time>2022-05-15T08:05:38Z</time>
      </trkpt>
      <trkpt lat="44.91791" lon="0.82616">
        <ele>178.1</ele>
        <time>2022-05-15T08:05:39Z</time>
      </trkpt>
      <trkpt lat="44.91793" lon="0.82622">
        <ele>178.3</ele>
        <time>2022-05-15T08:05:40Z</time>
      </trkpt>
      <trkpt lat="44.91795" lon="0.82629">
        <ele>178.3</ele>
        <time>2022-05-15T08:05:41Z</time>
      </trkpt>
      <trkpt lat="44.91799" lon="0.82643">
        <ele>178.5</ele>
        <time>2022-05-15T08:05:43Z</time>
      </trkpt>
      <trkpt lat="44.91804" lon="0.82657">
        <ele>178.2</ele>
        <time>2022-05-15T08:05:45Z</time>
      </trkpt>
      <trkpt lat="44.91806" lon="0.82664">
        <ele>178.1</ele>
        <time>2022-05-15T08:05:46Z</time>
      </trkpt>
      <trkpt lat="44.9181" lon="0.82671">
        <ele>178</ele>
        <time>2022-05-15T08:05:47Z</time>
      </trkpt>
      <trkpt lat="44.91812" lon="0.82679">
        <ele>178.2</ele>
        <time>2022-05-15T08:05:48Z</time>
      </trkpt>
      <trkpt lat="44.91815" lon="0.82687">
        <ele>177.7</ele>
        <time>2022-05-15T08:05:49Z</time>
      </trkpt>
      <trkpt lat="44.91822" lon="0.82704">
        <ele>177.8</ele>
        <time>2022-05-15T08:05:51Z</time>
      </trkpt>
      <trkpt lat="44.91829" lon="0.82722">
        <ele>177.4</ele>
        <time>2022-05-15T08:05:53Z</time>
      </trkpt>
      <trkpt lat="44.91838" lon="0.82739">
        <ele>177.5</ele>
        <time>2022-05-15T08:05:55Z</time>
      </trkpt>
      <trkpt lat="44.91842" lon="0.82747">
        <ele>177.1</ele>
        <time>2022-05-15T08:05:56Z</time>
      </trkpt>
      <trkpt lat="44.91845" lon="0.82754">
        <ele>177</ele>
        <time>2022-05-15T08:05:57Z</time>
      </trkpt>
      <trkpt lat="44.91853" lon="0.82771">
        <ele>176.7</ele>
        <time>2022-05-15T08:05:59Z</time>
      </trkpt>
      <trkpt lat="44.91863" lon="0.82788">
        <ele>176.3</ele>
        <time>2022-05-15T08:06:01Z</time>
      </trkpt>
      <trkpt lat="44.91871" lon="0.82806">
        <ele>176.1</ele>
        <time>2022-05-15T08:06:03Z</time>
      </trkpt>
      <trkpt lat="44.91878" lon="0.82824">
        <ele>175.8</ele>
        <time>2022-05-15T08:06:05Z</time>
      </trkpt>
      <trkpt lat="44.91881" lon="0.82833">
        <ele>175.6</ele>
        <time>2022-05-15T08:06:06Z</time>
      </trkpt>
      <trkpt lat="44.91886" lon="0.82842">
        <ele>175.5</ele>
        <time>2022-05-15T08:06:07Z</time>
      </trkpt>
      <trkpt lat="44.91892" lon="0.8286">
        <ele>174.7</ele>
        <time>2022-05-15T08:06:09Z</time>
      </trkpt>
      <trkpt lat="44.91897" lon="0.8287">
        <ele>174.3</ele>
        <time>2022-05-15T08:06:10Z</time>
      </trkpt>
      <trkpt lat="44.91899" lon="0.82881">
        <ele>173.3</ele>
        <time>2022-05-15T08:06:11Z</time>
      </trkpt>
      <trkpt lat="44.91905" lon="0.82902">
        <ele>172.6</ele>
        <time>2022-05-15T08:06:13Z</time>
      </trkpt>
      <trkpt lat="44.91907" lon="0.82913">
        <ele>171.5</ele>
        <time>2022-05-15T08:06:14Z</time>
      </trkpt>
      <trkpt lat="44.91909" lon="0.82925">
        <ele>171.4</ele>
        <time>2022-05-15T08:06:15Z</time>
      </trkpt>
      <trkpt lat="44.91913" lon="0.82951">
        <ele>167.4</ele>
        <time>2022-05-15T08:06:17Z</time>
      </trkpt>
      <trkpt lat="44.91915" lon="0.82963">
        <ele>167.3</ele>
        <time>2022-05-15T08:06:18Z</time>
      </trkpt>
      <trkpt lat="44.91918" lon="0.82976">
        <ele>165.7</ele>
        <time>2022-05-15T08:06:19Z</time>
      </trkpt>
      <trkpt lat="44.91922" lon="0.82997">
        <ele>164.2</ele>
        <time>2022-05-15T08:06:21Z</time>
      </trkpt>
      <trkpt lat="44.91926" lon="0.83008">
        <ele>160.9</ele>
        <time>2022-05-15T08:06:22Z</time>
      </trkpt>
      <trkpt lat="44.91931" lon="0.83018">
        <ele>158.8</ele>
        <time>2022-05-15T08:06:23Z</time>
      </trkpt>
      <trkpt lat="44.91944" lon="0.83037">
        <ele>155.4</ele>
        <time>2022-05-15T08:06:25Z</time>
      </trkpt>
      <trkpt lat="44.91958" lon="0.83056">
        <ele>152.6</ele>
        <time>2022-05-15T08:06:27Z</time>
      </trkpt>
      <trkpt lat="44.91967" lon="0.8307">
        <ele>150.2</ele>
        <time>2022-05-15T08:06:29Z</time>
      </trkpt>
      <trkpt lat="44.91971" lon="0.83076">
        <ele>150.1</ele>
        <time>2022-05-15T08:06:31Z</time>
      </trkpt>
      <trkpt lat="44.91973" lon="0.83079">
        <ele>149</ele>
        <time>2022-05-15T08:06:32Z</time>
      </trkpt>
      <trkpt lat="44.91974" lon="0.83083">
        <ele>148.9</ele>
        <time>2022-05-15T08:06:33Z</time>
      </trkpt>
      <trkpt lat="44.91973" lon="0.83096">
        <ele>148.1</ele>
        <time>2022-05-15T08:06:35Z</time>
      </trkpt>
      <trkpt lat="44.91977" lon="0.83112">
        <ele>147.4</ele>
        <time>2022-05-15T08:06:37Z</time>
      </trkpt>
      <trkpt lat="44.91983" lon="0.83129">
        <ele>146.8</ele>
        <time>2022-05-15T08:06:39Z</time>
      </trkpt>
      <trkpt lat="44.91984" lon="0.83138">
        <ele>146.2</ele>
        <time>2022-05-15T08:06:40Z</time>
      </trkpt>
      <trkpt lat="44.91986" lon="0.83148">
        <ele>145.6</ele>
        <time>2022-05-15T08:06:41Z</time>
      </trkpt>
      <trkpt lat="44.91989" lon="0.83167">
        <ele>144.7</ele>
        <time>2022-05-15T08:06:43Z</time>
      </trkpt>
      <trkpt lat="44.91991" lon="0.83186">
        <ele>143.6</ele>
        <time>2022-05-15T08:06:45Z</time>
      </trkpt>
      <trkpt lat="44.91993" lon="0.83208">
        <ele>141.8</ele>
        <time>2022-05-15T08:06:47Z</time>
      </trkpt>
      <trkpt lat="44.91996" lon="0.83231">
        <ele>140.8</ele>
        <time>2022-05-15T08:06:49Z</time>
      </trkpt>
      <trkpt lat="44.92" lon="0.83255">
        <ele>139.8</ele>
        <time>2022-05-15T08:06:51Z</time>
      </trkpt>
      <trkpt lat="44.92001" lon="0.83265">
        <ele>138.9</ele>
        <time>2022-05-15T08:06:52Z</time>
      </trkpt>
      <trkpt lat="44.92002" lon="0.83274">
        <ele>137.8</ele>
        <time>2022-05-15T08:06:53Z</time>
      </trkpt>
      <trkpt lat="44.92002" lon="0.83295">
        <ele>136.8</ele>
        <time>2022-05-15T08:06:55Z</time>
      </trkpt>
      <trkpt lat="44.92003" lon="0.83308">
        <ele>135.7</ele>
        <time>2022-05-15T08:06:56Z</time>
      </trkpt>
      <trkpt lat="44.92004" lon="0.8332">
        <ele>135.6</ele>
        <time>2022-05-15T08:06:57Z</time>
      </trkpt>
      <trkpt lat="44.92006" lon="0.83346">
        <ele>133.9</ele>
        <time>2022-05-15T08:06:59Z</time>
      </trkpt>
      <trkpt lat="44.92007" lon="0.83355">
        <ele>133.8</ele>
        <time>2022-05-15T08:07:00Z</time>
      </trkpt>
      <trkpt lat="44.92009" lon="0.8336">
        <ele>133.1</ele>
        <time>2022-05-15T08:07:01Z</time>
      </trkpt>
      <trkpt lat="44.92007" lon="0.83369">
        <ele>133</ele>
        <time>2022-05-15T08:07:02Z</time>
      </trkpt>
      <trkpt lat="44.9201" lon="0.83372">
        <ele>132.9</ele>
        <time>2022-05-15T08:07:03Z</time>
      </trkpt>
      <trkpt lat="44.92016" lon="0.83376">
        <ele>132.9</ele>
        <time>2022-05-15T08:07:05Z</time>
      </trkpt>
      <trkpt lat="44.92018" lon="0.83378">
        <ele>132.8</ele>
        <time>2022-05-15T08:07:06Z</time>
      </trkpt>
      <trkpt lat="44.9202" lon="0.8338">
        <ele>132.8</ele>
        <time>2022-05-15T08:07:07Z</time>
      </trkpt>
      <trkpt lat="44.92026" lon="0.83384">
        <ele>132.7</ele>
        <time>2022-05-15T08:07:09Z</time>
      </trkpt>
      <trkpt lat="44.92032" lon="0.83387">
        <ele>132.7</ele>
        <time>2022-05-15T08:07:11Z</time>
      </trkpt>
      <trkpt lat="44.92038" lon="0.83387">
        <ele>132.6</ele>
        <time>2022-05-15T08:07:13Z</time>
      </trkpt>
      <trkpt lat="44.92043" lon="0.83385">
        <ele>132.5</ele>
        <time>2022-05-15T08:07:15Z</time>
      </trkpt>
      <trkpt lat="44.92045" lon="0.83384">
        <ele>132.5</ele>
        <time>2022-05-15T08:07:16Z</time>
      </trkpt>
      <trkpt lat="44.92047" lon="0.83383">
        <ele>132.5</ele>
        <time>2022-05-15T08:07:17Z</time>
      </trkpt>
      <trkpt lat="44.92051" lon="0.83381">
        <ele>132.4</ele>
        <time>2022-05-15T08:07:19Z</time>
      </trkpt>
      <trkpt lat="44.92055" lon="0.83379">
        <ele>132.4</ele>
        <time>2022-05-15T08:07:21Z</time>
      </trkpt>
      <trkpt lat="44.92057" lon="0.83378">
        <ele>132.4</ele>
        <time>2022-05-15T08:07:22Z</time>
      </trkpt>
      <trkpt lat="44.92059" lon="0.83377">
        <ele>132.3</ele>
        <time>2022-05-15T08:07:23Z</time>
      </trkpt>
      <trkpt lat="44.92064" lon="0.83374">
        <ele>132.3</ele>
        <time>2022-05-15T08:07:25Z</time>
      </trkpt>
      <trkpt lat="44.92068" lon="0.83372">
        <ele>132.2</ele>
        <time>2022-05-15T08:07:27Z</time>
      </trkpt>
      <trkpt lat="44.92071" lon="0.83371">
        <ele>132.2</ele>
        <time>2022-05-15T08:07:28Z</time>
      </trkpt>
      <trkpt lat="44.92073" lon="0.83369">
        <ele>132.2</ele>
        <time>2022-05-15T08:07:29Z</time>
      </trkpt>
      <trkpt lat="44.92078" lon="0.83367">
        <ele>132.1</ele>
        <time>2022-05-15T08:07:31Z</time>
      </trkpt>
      <trkpt lat="44.92083" lon="0.83364">
        <ele>132</ele>
        <time>2022-05-15T08:07:33Z</time>
      </trkpt>
      <trkpt lat="44.92086" lon="0.83363">
        <ele>132</ele>
        <time>2022-05-15T08:07:34Z</time>
      </trkpt>
      <trkpt lat="44.92089" lon="0.83361">
        <ele>132</ele>
        <time>2022-05-15T08:07:35Z</time>
      </trkpt>
      <trkpt lat="44.92096" lon="0.83358">
        <ele>131.9</ele>
        <time>2022-05-15T08:07:37Z</time>
      </trkpt>
      <trkpt lat="44.92102" lon="0.83354">
        <ele>131.8</ele>
        <time>2022-05-15T08:07:39Z</time>
      </trkpt>
      <trkpt lat="44.92109" lon="0.83351">
        <ele>131.7</ele>
        <time>2022-05-15T08:07:41Z</time>
      </trkpt>
      <trkpt lat="44.92116" lon="0.83348">
        <ele>131.6</ele>
        <time>2022-05-15T08:07:43Z</time>
      </trkpt>
      <trkpt lat="44.92123" lon="0.83344">
        <ele>131.5</ele>
        <time>2022-05-15T08:07:45Z</time>
      </trkpt>
      <trkpt lat="44.92127" lon="0.83341">
        <ele>131.5</ele>
        <time>2022-05-15T08:07:46Z</time>
      </trkpt>
      <trkpt lat="44.92132" lon="0.83338">
        <ele>131.4</ele>
        <time>2022-05-15T08:07:47Z</time>
      </trkpt>
      <trkpt lat="44.92135" lon="0.83335">
        <ele>131.4</ele>
        <time>2022-05-15T08:07:48Z</time>
      </trkpt>
      <trkpt lat="44.92139" lon="0.83333">
        <ele>131.3</ele>
        <time>2022-05-15T08:07:49Z</time>
      </trkpt>
      <trkpt lat="44.92142" lon="0.83331">
        <ele>131.3</ele>
        <time>2022-05-15T08:07:50Z</time>
      </trkpt>
      <trkpt lat="44.92156" lon="0.83321">
        <ele>131.4</ele>
        <time>2022-05-15T08:07:51Z</time>
      </trkpt>
      <trkpt lat="44.92157" lon="0.83311">
        <ele>131.8</ele>
        <time>2022-05-15T08:07:53Z</time>
      </trkpt>
      <trkpt lat="44.92158" lon="0.83304">
        <ele>132</ele>
        <time>2022-05-15T08:07:54Z</time>
      </trkpt>
      <trkpt lat="44.92159" lon="0.83298">
        <ele>132.3</ele>
        <time>2022-05-15T08:07:55Z</time>
      </trkpt>
      <trkpt lat="44.92164" lon="0.83285">
        <ele>132.9</ele>
        <time>2022-05-15T08:07:57Z</time>
      </trkpt>
      <trkpt lat="44.92171" lon="0.83274">
        <ele>133.4</ele>
        <time>2022-05-15T08:07:59Z</time>
      </trkpt>
      <trkpt lat="44.92177" lon="0.83267">
        <ele>133.8</ele>
        <time>2022-05-15T08:08:01Z</time>
      </trkpt>
      <trkpt lat="44.92181" lon="0.83262">
        <ele>134.2</ele>
        <time>2022-05-15T08:08:03Z</time>
      </trkpt>
      <trkpt lat="44.92187" lon="0.83255">
        <ele>134.6</ele>
        <time>2022-05-15T08:08:05Z</time>
      </trkpt>
      <trkpt lat="44.92189" lon="0.83252">
        <ele>134.7</ele>
        <time>2022-05-15T08:08:06Z</time>
      </trkpt>
      <trkpt lat="44.92194" lon="0.83247">
        <ele>135.1</ele>
        <time>2022-05-15T08:08:07Z</time>
      </trkpt>
      <trkpt lat="44.92219" lon="0.83273">
        <ele>139.2</ele>
        <time>2022-05-15T08:08:09Z</time>
      </trkpt>
      <trkpt lat="44.92219" lon="0.83273">
        <ele>139.2</ele>
        <time>2022-05-15T08:08:11Z</time>
      </trkpt>
      <trkpt lat="44.92219" lon="0.83273">
        <ele>139.2</ele>
        <time>2022-05-15T08:08:12Z</time>
      </trkpt>
      <trkpt lat="44.92223" lon="0.83275">
        <ele>139.5</ele>
        <time>2022-05-15T08:08:13Z</time>
      </trkpt>
      <trkpt lat="44.92228" lon="0.83275">
        <ele>139.9</ele>
        <time>2022-05-15T08:08:15Z</time>
      </trkpt>
      <trkpt lat="44.92234" lon="0.83275">
        <ele>140.3</ele>
        <time>2022-05-15T08:08:17Z</time>
      </trkpt>
      <trkpt lat="44.9224" lon="0.83276">
        <ele>140.8</ele>
        <time>2022-05-15T08:08:19Z</time>
      </trkpt>
      <trkpt lat="44.92242" lon="0.83276">
        <ele>141</ele>
        <time>2022-05-15T08:08:20Z</time>
      </trkpt>
      <trkpt lat="44.92245" lon="0.83276">
        <ele>141.2</ele>
        <time>2022-05-15T08:08:21Z</time>
      </trkpt>
      <trkpt lat="44.9225" lon="0.83276">
        <ele>141.6</ele>
        <time>2022-05-15T08:08:23Z</time>
      </trkpt>
      <trkpt lat="44.92255" lon="0.83276">
        <ele>142</ele>
        <time>2022-05-15T08:08:25Z</time>
      </trkpt>
      <trkpt lat="44.9226" lon="0.83276">
        <ele>142.5</ele>
        <time>2022-05-15T08:08:27Z</time>
      </trkpt>
      <trkpt lat="44.92264" lon="0.83276">
        <ele>142.8</ele>
        <time>2022-05-15T08:08:29Z</time>
      </trkpt>
      <trkpt lat="44.92269" lon="0.83276">
        <ele>143.1</ele>
        <time>2022-05-15T08:08:31Z</time>
      </trkpt>
      <trkpt lat="44.92274" lon="0.83276">
        <ele>143.5</ele>
        <time>2022-05-15T08:08:33Z</time>
      </trkpt>
      <trkpt lat="44.92277" lon="0.83277">
        <ele>143.7</ele>
        <time>2022-05-15T08:08:35Z</time>
      </trkpt>
      <trkpt lat="44.92281" lon="0.83277">
        <ele>144</ele>
        <time>2022-05-15T08:08:37Z</time>
      </trkpt>
      <trkpt lat="44.92286" lon="0.83277">
        <ele>144.3</ele>
        <time>2022-05-15T08:08:39Z</time>
      </trkpt>
      <trkpt lat="44.92289" lon="0.83277">
        <ele>144.5</ele>
        <time>2022-05-15T08:08:40Z</time>
      </trkpt>
      <trkpt lat="44.92291" lon="0.83277">
        <ele>144.6</ele>
        <time>2022-05-15T08:08:41Z</time>
      </trkpt>
      <trkpt lat="44.92295" lon="0.83277">
        <ele>145</ele>
        <time>2022-05-15T08:08:43Z</time>
      </trkpt>
      <trkpt lat="44.92301" lon="0.83277">
        <ele>145.3</ele>
        <time>2022-05-15T08:08:45Z</time>
      </trkpt>
      <trkpt lat="44.92305" lon="0.83278">
        <ele>145.6</ele>
        <time>2022-05-15T08:08:47Z</time>
      </trkpt>
      <trkpt lat="44.9231" lon="0.83279">
        <ele>145.9</ele>
        <time>2022-05-15T08:08:49Z</time>
      </trkpt>
      <trkpt lat="44.92315" lon="0.83281">
        <ele>146.2</ele>
        <time>2022-05-15T08:08:51Z</time>
      </trkpt>
      <trkpt lat="44.92319" lon="0.83282">
        <ele>146.5</ele>
        <time>2022-05-15T08:08:53Z</time>
      </trkpt>
      <trkpt lat="44.92324" lon="0.83283">
        <ele>146.8</ele>
        <time>2022-05-15T08:08:55Z</time>
      </trkpt>
      <trkpt lat="44.92329" lon="0.83283">
        <ele>147.1</ele>
        <time>2022-05-15T08:08:57Z</time>
      </trkpt>
      <trkpt lat="44.92334" lon="0.83281">
        <ele>147.3</ele>
        <time>2022-05-15T08:08:59Z</time>
      </trkpt>
      <trkpt lat="44.92338" lon="0.8328">
        <ele>147.6</ele>
        <time>2022-05-15T08:09:01Z</time>
      </trkpt>
      <trkpt lat="44.92343" lon="0.83279">
        <ele>147.9</ele>
        <time>2022-05-15T08:09:03Z</time>
      </trkpt>
      <trkpt lat="44.92345" lon="0.83278">
        <ele>148</ele>
        <time>2022-05-15T08:09:04Z</time>
      </trkpt>
      <trkpt lat="44.92348" lon="0.83277">
        <ele>148.1</ele>
        <time>2022-05-15T08:09:05Z</time>
      </trkpt>
      <trkpt lat="44.92353" lon="0.83276">
        <ele>148.3</ele>
        <time>2022-05-15T08:09:07Z</time>
      </trkpt>
      <trkpt lat="44.92358" lon="0.83274">
        <ele>148.5</ele>
        <time>2022-05-15T08:09:09Z</time>
      </trkpt>
      <trkpt lat="44.92363" lon="0.83272">
        <ele>148.7</ele>
        <time>2022-05-15T08:09:11Z</time>
      </trkpt>
      <trkpt lat="44.92365" lon="0.83271">
        <ele>148.8</ele>
        <time>2022-05-15T08:09:12Z</time>
      </trkpt>
      <trkpt lat="44.92367" lon="0.83269">
        <ele>148.9</ele>
        <time>2022-05-15T08:09:13Z</time>
      </trkpt>
      <trkpt lat="44.92373" lon="0.83266">
        <ele>149.1</ele>
        <time>2022-05-15T08:09:15Z</time>
      </trkpt>
      <trkpt lat="44.92378" lon="0.83262">
        <ele>149.3</ele>
        <time>2022-05-15T08:09:17Z</time>
      </trkpt>
      <trkpt lat="44.9238" lon="0.83261">
        <ele>149.4</ele>
        <time>2022-05-15T08:09:18Z</time>
      </trkpt>
      <trkpt lat="44.92382" lon="0.8326">
        <ele>149.5</ele>
        <time>2022-05-15T08:09:19Z</time>
      </trkpt>
      <trkpt lat="44.92388" lon="0.83257">
        <ele>149.7</ele>
        <time>2022-05-15T08:09:21Z</time>
      </trkpt>
      <trkpt lat="44.9239" lon="0.83256">
        <ele>149.8</ele>
        <time>2022-05-15T08:09:22Z</time>
      </trkpt>
      <trkpt lat="44.92393" lon="0.83255">
        <ele>149.9</ele>
        <time>2022-05-15T08:09:23Z</time>
      </trkpt>
      <trkpt lat="44.92398" lon="0.83252">
        <ele>150.1</ele>
        <time>2022-05-15T08:09:25Z</time>
      </trkpt>
      <trkpt lat="44.92405" lon="0.8325">
        <ele>150.2</ele>
        <time>2022-05-15T08:09:27Z</time>
      </trkpt>
      <trkpt lat="44.9241" lon="0.83248">
        <ele>150.4</ele>
        <time>2022-05-15T08:09:29Z</time>
      </trkpt>
      <trkpt lat="44.92416" lon="0.83245">
        <ele>150.5</ele>
        <time>2022-05-15T08:09:31Z</time>
      </trkpt>
      <trkpt lat="44.92422" lon="0.83243">
        <ele>150.7</ele>
        <time>2022-05-15T08:09:33Z</time>
      </trkpt>
      <trkpt lat="44.92425" lon="0.83241">
        <ele>150.8</ele>
        <time>2022-05-15T08:09:34Z</time>
      </trkpt>
      <trkpt lat="44.92427" lon="0.8324">
        <ele>150.9</ele>
        <time>2022-05-15T08:09:35Z</time>
      </trkpt>
      <trkpt lat="44.92432" lon="0.83239">
        <ele>151</ele>
        <time>2022-05-15T08:09:37Z</time>
      </trkpt>
      <trkpt lat="44.92439" lon="0.83235">
        <ele>151.2</ele>
        <time>2022-05-15T08:09:39Z</time>
      </trkpt>
      <trkpt lat="44.92445" lon="0.83233">
        <ele>151.4</ele>
        <time>2022-05-15T08:09:41Z</time>
      </trkpt>
      <trkpt lat="44.92452" lon="0.83227">
        <ele>151.5</ele>
        <time>2022-05-15T08:09:43Z</time>
      </trkpt>
      <trkpt lat="44.92458" lon="0.83222">
        <ele>151.7</ele>
        <time>2022-05-15T08:09:45Z</time>
      </trkpt>
      <trkpt lat="44.9246" lon="0.83219">
        <ele>151.7</ele>
        <time>2022-05-15T08:09:46Z</time>
      </trkpt>
      <trkpt lat="44.92463" lon="0.83216">
        <ele>151.7</ele>
        <time>2022-05-15T08:09:47Z</time>
      </trkpt>
      <trkpt lat="44.92468" lon="0.83211">
        <ele>151.8</ele>
        <time>2022-05-15T08:09:49Z</time>
      </trkpt>
      <trkpt lat="44.92474" lon="0.83205">
        <ele>151.7</ele>
        <time>2022-05-15T08:09:51Z</time>
      </trkpt>
      <trkpt lat="44.92477" lon="0.83203">
        <ele>151.7</ele>
        <time>2022-05-15T08:09:52Z</time>
      </trkpt>
      <trkpt lat="44.9248" lon="0.832">
        <ele>151.6</ele>
        <time>2022-05-15T08:09:53Z</time>
      </trkpt>
      <trkpt lat="44.92488" lon="0.83194">
        <ele>151.5</ele>
        <time>2022-05-15T08:09:55Z</time>
      </trkpt>
      <trkpt lat="44.92492" lon="0.83191">
        <ele>151.4</ele>
        <time>2022-05-15T08:09:56Z</time>
      </trkpt>
      <trkpt lat="44.92496" lon="0.83187">
        <ele>151.3</ele>
        <time>2022-05-15T08:09:57Z</time>
      </trkpt>
      <trkpt lat="44.925" lon="0.83184">
        <ele>151.2</ele>
        <time>2022-05-15T08:09:58Z</time>
      </trkpt>
      <trkpt lat="44.92504" lon="0.8318">
        <ele>151.1</ele>
        <time>2022-05-15T08:09:59Z</time>
      </trkpt>
      <trkpt lat="44.92513" lon="0.83173">
        <ele>150.8</ele>
        <time>2022-05-15T08:10:01Z</time>
      </trkpt>
      <trkpt lat="44.92521" lon="0.83166">
        <ele>150.6</ele>
        <time>2022-05-15T08:10:03Z</time>
      </trkpt>
      <trkpt lat="44.92531" lon="0.83158">
        <ele>150.4</ele>
        <time>2022-05-15T08:10:05Z</time>
      </trkpt>
      <trkpt lat="44.92541" lon="0.8315">
        <ele>150.4</ele>
        <time>2022-05-15T08:10:07Z</time>
      </trkpt>
      <trkpt lat="44.9255" lon="0.83142">
        <ele>150.3</ele>
        <time>2022-05-15T08:10:09Z</time>
      </trkpt>
      <trkpt lat="44.92555" lon="0.83139">
        <ele>150.3</ele>
        <time>2022-05-15T08:10:10Z</time>
      </trkpt>
      <trkpt lat="44.92559" lon="0.83136">
        <ele>150.4</ele>
        <time>2022-05-15T08:10:11Z</time>
      </trkpt>
      <trkpt lat="44.92569" lon="0.83128">
        <ele>150.4</ele>
        <time>2022-05-15T08:10:13Z</time>
      </trkpt>
      <trkpt lat="44.92578" lon="0.83121">
        <ele>150.3</ele>
        <time>2022-05-15T08:10:15Z</time>
      </trkpt>
      <trkpt lat="44.92587" lon="0.83114">
        <ele>150.1</ele>
        <time>2022-05-15T08:10:17Z</time>
      </trkpt>
      <trkpt lat="44.92597" lon="0.83107">
        <ele>149.9</ele>
        <time>2022-05-15T08:10:19Z</time>
      </trkpt>
      <trkpt lat="44.92607" lon="0.83099">
        <ele>149.7</ele>
        <time>2022-05-15T08:10:21Z</time>
      </trkpt>
      <trkpt lat="44.92612" lon="0.83096">
        <ele>149.8</ele>
        <time>2022-05-15T08:10:22Z</time>
      </trkpt>
      <trkpt lat="44.92617" lon="0.83092">
        <ele>149.9</ele>
        <time>2022-05-15T08:10:23Z</time>
      </trkpt>
      <trkpt lat="44.92627" lon="0.83084">
        <ele>150.3</ele>
        <time>2022-05-15T08:10:25Z</time>
      </trkpt>
      <trkpt lat="44.92631" lon="0.8308">
        <ele>150.5</ele>
        <time>2022-05-15T08:10:26Z</time>
      </trkpt>
      <trkpt lat="44.92635" lon="0.83076">
        <ele>150.6</ele>
        <time>2022-05-15T08:10:27Z</time>
      </trkpt>
      <trkpt lat="44.92639" lon="0.83071">
        <ele>150.7</ele>
        <time>2022-05-15T08:10:28Z</time>
      </trkpt>
      <trkpt lat="44.92643" lon="0.83067">
        <ele>150.8</ele>
        <time>2022-05-15T08:10:29Z</time>
      </trkpt>
      <trkpt lat="44.92652" lon="0.83057">
        <ele>150.8</ele>
        <time>2022-05-15T08:10:31Z</time>
      </trkpt>
      <trkpt lat="44.92661" lon="0.83049">
        <ele>150.9</ele>
        <time>2022-05-15T08:10:33Z</time>
      </trkpt>
      <trkpt lat="44.9267" lon="0.83041">
        <ele>151.2</ele>
        <time>2022-05-15T08:10:35Z</time>
      </trkpt>
      <trkpt lat="44.92679" lon="0.83033">
        <ele>151.5</ele>
        <time>2022-05-15T08:10:37Z</time>
      </trkpt>
      <trkpt lat="44.92683" lon="0.83029">
        <ele>151.6</ele>
        <time>2022-05-15T08:10:38Z</time>
      </trkpt>
      <trkpt lat="44.92687" lon="0.83025">
        <ele>151.7</ele>
        <time>2022-05-15T08:10:39Z</time>
      </trkpt>
      <trkpt lat="44.92692" lon="0.83021">
        <ele>151.8</ele>
        <time>2022-05-15T08:10:40Z</time>
      </trkpt>
      <trkpt lat="44.92696" lon="0.83017">
        <ele>151.9</ele>
        <time>2022-05-15T08:10:41Z</time>
      </trkpt>
      <trkpt lat="44.92699" lon="0.83013">
        <ele>152</ele>
        <time>2022-05-15T08:10:42Z</time>
      </trkpt>
      <trkpt lat="44.92709" lon="0.83009">
        <ele>152</ele>
        <time>2022-05-15T08:10:43Z</time>
      </trkpt>
      <trkpt lat="44.9271" lon="0.83011">
        <ele>151.3</ele>
        <time>2022-05-15T08:10:44Z</time>
      </trkpt>
      <trkpt lat="44.92712" lon="0.83015">
        <ele>150.9</ele>
        <time>2022-05-15T08:10:45Z</time>
      </trkpt>
      <trkpt lat="44.92714" lon="0.8302">
        <ele>150.4</ele>
        <time>2022-05-15T08:10:46Z</time>
      </trkpt>
      <trkpt lat="44.92717" lon="0.83025">
        <ele>149.8</ele>
        <time>2022-05-15T08:10:47Z</time>
      </trkpt>
      <trkpt lat="44.9272" lon="0.83032">
        <ele>149.1</ele>
        <time>2022-05-15T08:10:48Z</time>
      </trkpt>
      <trkpt lat="44.92723" lon="0.8304">
        <ele>148.3</ele>
        <time>2022-05-15T08:10:49Z</time>
      </trkpt>
      <trkpt lat="44.92726" lon="0.83049">
        <ele>147.5</ele>
        <time>2022-05-15T08:10:50Z</time>
      </trkpt>
      <trkpt lat="44.9273" lon="0.83059">
        <ele>146.8</ele>
        <time>2022-05-15T08:10:51Z</time>
      </trkpt>
      <trkpt lat="44.92737" lon="0.83078">
        <ele>145.3</ele>
        <time>2022-05-15T08:10:53Z</time>
      </trkpt>
      <trkpt lat="44.92746" lon="0.83099">
        <ele>143.4</ele>
        <time>2022-05-15T08:10:55Z</time>
      </trkpt>
      <trkpt lat="44.9276" lon="0.83117">
        <ele>141.7</ele>
        <time>2022-05-15T08:10:57Z</time>
      </trkpt>
      <trkpt lat="44.92773" lon="0.83133">
        <ele>140.6</ele>
        <time>2022-05-15T08:10:59Z</time>
      </trkpt>
      <trkpt lat="44.9278" lon="0.83142">
        <ele>140.3</ele>
        <time>2022-05-15T08:11:00Z</time>
      </trkpt>
      <trkpt lat="44.92786" lon="0.8315">
        <ele>140</ele>
        <time>2022-05-15T08:11:01Z</time>
      </trkpt>
      <trkpt lat="44.92792" lon="0.83158">
        <ele>139.9</ele>
        <time>2022-05-15T08:11:02Z</time>
      </trkpt>
      <trkpt lat="44.92796" lon="0.83167">
        <ele>139.8</ele>
        <time>2022-05-15T08:11:03Z</time>
      </trkpt>
      <trkpt lat="44.92799" lon="0.83179">
        <ele>139.7</ele>
        <time>2022-05-15T08:11:04Z</time>
      </trkpt>
      <trkpt lat="44.928" lon="0.83189">
        <ele>139.7</ele>
        <time>2022-05-15T08:11:05Z</time>
      </trkpt>
      <trkpt lat="44.928" lon="0.832">
        <ele>139.6</ele>
        <time>2022-05-15T08:11:06Z</time>
      </trkpt>
      <trkpt lat="44.92801" lon="0.8321">
        <ele>139.6</ele>
        <time>2022-05-15T08:11:07Z</time>
      </trkpt>
      <trkpt lat="44.92802" lon="0.8323">
        <ele>139.8</ele>
        <time>2022-05-15T08:11:09Z</time>
      </trkpt>
      <trkpt lat="44.92804" lon="0.83249">
        <ele>140</ele>
        <time>2022-05-15T08:11:11Z</time>
      </trkpt>
      <trkpt lat="44.92805" lon="0.83258">
        <ele>140.3</ele>
        <time>2022-05-15T08:11:12Z</time>
      </trkpt>
      <trkpt lat="44.92807" lon="0.83267">
        <ele>140.7</ele>
        <time>2022-05-15T08:11:13Z</time>
      </trkpt>
      <trkpt lat="44.92814" lon="0.83279">
        <ele>141.7</ele>
        <time>2022-05-15T08:11:15Z</time>
      </trkpt>
      <trkpt lat="44.92819" lon="0.83287">
        <ele>142.3</ele>
        <time>2022-05-15T08:11:17Z</time>
      </trkpt>
      <trkpt lat="44.92825" lon="0.83299">
        <ele>142.7</ele>
        <time>2022-05-15T08:11:19Z</time>
      </trkpt>
      <trkpt lat="44.92822" lon="0.83305">
        <ele>142.2</ele>
        <time>2022-05-15T08:11:21Z</time>
      </trkpt>
      <trkpt lat="44.92817" lon="0.83318">
        <ele>141.3</ele>
        <time>2022-05-15T08:11:23Z</time>
      </trkpt>
      <trkpt lat="44.92811" lon="0.83332">
        <ele>140.4</ele>
        <time>2022-05-15T08:11:25Z</time>
      </trkpt>
      <trkpt lat="44.92806" lon="0.83348">
        <ele>139.6</ele>
        <time>2022-05-15T08:11:27Z</time>
      </trkpt>
      <trkpt lat="44.92804" lon="0.83357">
        <ele>139.2</ele>
        <time>2022-05-15T08:11:28Z</time>
      </trkpt>
      <trkpt lat="44.92802" lon="0.83366">
        <ele>138.8</ele>
        <time>2022-05-15T08:11:29Z</time>
      </trkpt>
      <trkpt lat="44.92802" lon="0.83375">
        <ele>138.5</ele>
        <time>2022-05-15T08:11:30Z</time>
      </trkpt>
      <trkpt lat="44.92805" lon="0.83384">
        <ele>138.1</ele>
        <time>2022-05-15T08:11:31Z</time>
      </trkpt>
      <trkpt lat="44.9281" lon="0.83405">
        <ele>137.2</ele>
        <time>2022-05-15T08:11:33Z</time>
      </trkpt>
      <trkpt lat="44.92812" lon="0.83416">
        <ele>136.8</ele>
        <time>2022-05-15T08:11:34Z</time>
      </trkpt>
      <trkpt lat="44.92812" lon="0.83428">
        <ele>136.4</ele>
        <time>2022-05-15T08:11:35Z</time>
      </trkpt>
      <trkpt lat="44.92811" lon="0.8344">
        <ele>136.2</ele>
        <time>2022-05-15T08:11:36Z</time>
      </trkpt>
      <trkpt lat="44.92807" lon="0.83451">
        <ele>136</ele>
        <time>2022-05-15T08:11:37Z</time>
      </trkpt>
      <trkpt lat="44.92803" lon="0.83461">
        <ele>136.3</ele>
        <time>2022-05-15T08:11:38Z</time>
      </trkpt>
      <trkpt lat="44.92802" lon="0.8347">
        <ele>137.3</ele>
        <time>2022-05-15T08:11:39Z</time>
      </trkpt>
      <trkpt lat="44.92802" lon="0.83477">
        <ele>138.2</ele>
        <time>2022-05-15T08:11:40Z</time>
      </trkpt>
      <trkpt lat="44.92802" lon="0.83482">
        <ele>138.9</ele>
        <time>2022-05-15T08:11:41Z</time>
      </trkpt>
      <trkpt lat="44.92801" lon="0.8349">
        <ele>139.9</ele>
        <time>2022-05-15T08:11:43Z</time>
      </trkpt>
      <trkpt lat="44.92801" lon="0.83496">
        <ele>140.6</ele>
        <time>2022-05-15T08:11:45Z</time>
      </trkpt>
      <trkpt lat="44.928" lon="0.83501">
        <ele>141.3</ele>
        <time>2022-05-15T08:11:47Z</time>
      </trkpt>
      <trkpt lat="44.928" lon="0.83504">
        <ele>141.7</ele>
        <time>2022-05-15T08:11:48Z</time>
      </trkpt>
      <trkpt lat="44.928" lon="0.83508">
        <ele>142.1</ele>
        <time>2022-05-15T08:11:49Z</time>
      </trkpt>
      <trkpt lat="44.928" lon="0.83512">
        <ele>142.5</ele>
        <time>2022-05-15T08:11:50Z</time>
      </trkpt>
      <trkpt lat="44.92799" lon="0.83516">
        <ele>142.9</ele>
        <time>2022-05-15T08:11:51Z</time>
      </trkpt>
      <trkpt lat="44.92799" lon="0.83525">
        <ele>143.8</ele>
        <time>2022-05-15T08:11:53Z</time>
      </trkpt>
      <trkpt lat="44.92798" lon="0.83532">
        <ele>144.2</ele>
        <time>2022-05-15T08:11:55Z</time>
      </trkpt>
      <trkpt lat="44.92798" lon="0.83537">
        <ele>144.4</ele>
        <time>2022-05-15T08:11:56Z</time>
      </trkpt>
      <trkpt lat="44.92798" lon="0.83541">
        <ele>144.7</ele>
        <time>2022-05-15T08:11:57Z</time>
      </trkpt>
      <trkpt lat="44.92797" lon="0.8355">
        <ele>145.2</ele>
        <time>2022-05-15T08:11:59Z</time>
      </trkpt>
      <trkpt lat="44.92797" lon="0.8356">
        <ele>145.7</ele>
        <time>2022-05-15T08:12:01Z</time>
      </trkpt>
      <trkpt lat="44.92796" lon="0.83569">
        <ele>146.2</ele>
        <time>2022-05-15T08:12:03Z</time>
      </trkpt>
      <trkpt lat="44.92796" lon="0.83577">
        <ele>146.6</ele>
        <time>2022-05-15T08:12:05Z</time>
      </trkpt>
      <trkpt lat="44.92795" lon="0.83585">
        <ele>147</ele>
        <time>2022-05-15T08:12:07Z</time>
      </trkpt>
      <trkpt lat="44.92795" lon="0.83593">
        <ele>147.5</ele>
        <time>2022-05-15T08:12:09Z</time>
      </trkpt>
      <trkpt lat="44.92794" lon="0.836">
        <ele>147.9</ele>
        <time>2022-05-15T08:12:11Z</time>
      </trkpt>
      <trkpt lat="44.92793" lon="0.83607">
        <ele>148.3</ele>
        <time>2022-05-15T08:12:13Z</time>
      </trkpt>
      <trkpt lat="44.92792" lon="0.83615">
        <ele>148.8</ele>
        <time>2022-05-15T08:12:15Z</time>
      </trkpt>
      <trkpt lat="44.92792" lon="0.83623">
        <ele>149.3</ele>
        <time>2022-05-15T08:12:17Z</time>
      </trkpt>
      <trkpt lat="44.92791" lon="0.8363">
        <ele>149.7</ele>
        <time>2022-05-15T08:12:19Z</time>
      </trkpt>
      <trkpt lat="44.9279" lon="0.83637">
        <ele>150.2</ele>
        <time>2022-05-15T08:12:21Z</time>
      </trkpt>
      <trkpt lat="44.9279" lon="0.83641">
        <ele>150.4</ele>
        <time>2022-05-15T08:12:22Z</time>
      </trkpt>
      <trkpt lat="44.9279" lon="0.83645">
        <ele>150.7</ele>
        <time>2022-05-15T08:12:23Z</time>
      </trkpt>
      <trkpt lat="44.92789" lon="0.83654">
        <ele>151.3</ele>
        <time>2022-05-15T08:12:25Z</time>
      </trkpt>
      <trkpt lat="44.92788" lon="0.83662">
        <ele>151.9</ele>
        <time>2022-05-15T08:12:27Z</time>
      </trkpt>
      <trkpt lat="44.92787" lon="0.83669">
        <ele>152.4</ele>
        <time>2022-05-15T08:12:29Z</time>
      </trkpt>
      <trkpt lat="44.92787" lon="0.83675">
        <ele>152.8</ele>
        <time>2022-05-15T08:12:31Z</time>
      </trkpt>
      <trkpt lat="44.92786" lon="0.83681">
        <ele>153.3</ele>
        <time>2022-05-15T08:12:33Z</time>
      </trkpt>
      <trkpt lat="44.92785" lon="0.83688">
        <ele>153.8</ele>
        <time>2022-05-15T08:12:35Z</time>
      </trkpt>
      <trkpt lat="44.92785" lon="0.83693">
        <ele>154.2</ele>
        <time>2022-05-15T08:12:37Z</time>
      </trkpt>
      <trkpt lat="44.92784" lon="0.83699">
        <ele>154.8</ele>
        <time>2022-05-15T08:12:39Z</time>
      </trkpt>
      <trkpt lat="44.92784" lon="0.83704">
        <ele>155.2</ele>
        <time>2022-05-15T08:12:41Z</time>
      </trkpt>
      <trkpt lat="44.92783" lon="0.8371">
        <ele>155.8</ele>
        <time>2022-05-15T08:12:43Z</time>
      </trkpt>
      <trkpt lat="44.92783" lon="0.83715">
        <ele>156.4</ele>
        <time>2022-05-15T08:12:45Z</time>
      </trkpt>
      <trkpt lat="44.92782" lon="0.83718">
        <ele>156.7</ele>
        <time>2022-05-15T08:12:46Z</time>
      </trkpt>
      <trkpt lat="44.92782" lon="0.8372">
        <ele>156.9</ele>
        <time>2022-05-15T08:12:47Z</time>
      </trkpt>
      <trkpt lat="44.92782" lon="0.83725">
        <ele>157.5</ele>
        <time>2022-05-15T08:12:49Z</time>
      </trkpt>
      <trkpt lat="44.92781" lon="0.8373">
        <ele>158</ele>
        <time>2022-05-15T08:12:51Z</time>
      </trkpt>
      <trkpt lat="44.92781" lon="0.83735">
        <ele>158.5</ele>
        <time>2022-05-15T08:12:53Z</time>
      </trkpt>
      <trkpt lat="44.92781" lon="0.83736">
        <ele>158.7</ele>
        <time>2022-05-15T08:12:54Z</time>
      </trkpt>
      <trkpt lat="44.9278" lon="0.83739">
        <ele>159</ele>
        <time>2022-05-15T08:12:55Z</time>
      </trkpt>
      <trkpt lat="44.9278" lon="0.83744">
        <ele>159.5</ele>
        <time>2022-05-15T08:12:57Z</time>
      </trkpt>
      <trkpt lat="44.92779" lon="0.83749">
        <ele>160.1</ele>
        <time>2022-05-15T08:12:59Z</time>
      </trkpt>
      <trkpt lat="44.92779" lon="0.83753">
        <ele>160.5</ele>
        <time>2022-05-15T08:13:01Z</time>
      </trkpt>
      <trkpt lat="44.92778" lon="0.83758">
        <ele>161</ele>
        <time>2022-05-15T08:13:03Z</time>
      </trkpt>
      <trkpt lat="44.92778" lon="0.83763">
        <ele>161.4</ele>
        <time>2022-05-15T08:13:05Z</time>
      </trkpt>
      <trkpt lat="44.92777" lon="0.83768">
        <ele>161.7</ele>
        <time>2022-05-15T08:13:07Z</time>
      </trkpt>
      <trkpt lat="44.92778" lon="0.83771">
        <ele>161.9</ele>
        <time>2022-05-15T08:13:08Z</time>
      </trkpt>
      <trkpt lat="44.92778" lon="0.83774">
        <ele>162.1</ele>
        <time>2022-05-15T08:13:09Z</time>
      </trkpt>
      <trkpt lat="44.92779" lon="0.8378">
        <ele>162.4</ele>
        <time>2022-05-15T08:13:11Z</time>
      </trkpt>
      <trkpt lat="44.9278" lon="0.83787">
        <ele>162.8</ele>
        <time>2022-05-15T08:13:13Z</time>
      </trkpt>
      <trkpt lat="44.92781" lon="0.83794">
        <ele>162.7</ele>
        <time>2022-05-15T08:13:15Z</time>
      </trkpt>
      <trkpt lat="44.92781" lon="0.83797">
        <ele>162.7</ele>
        <time>2022-05-15T08:13:16Z</time>
      </trkpt>
      <trkpt lat="44.92781" lon="0.838">
        <ele>162.7</ele>
        <time>2022-05-15T08:13:17Z</time>
      </trkpt>
      <trkpt lat="44.92782" lon="0.83807">
        <ele>162.6</ele>
        <time>2022-05-15T08:13:19Z</time>
      </trkpt>
      <trkpt lat="44.92782" lon="0.83816">
        <ele>162.2</ele>
        <time>2022-05-15T08:13:21Z</time>
      </trkpt>
      <trkpt lat="44.92782" lon="0.83821">
        <ele>161.9</ele>
        <time>2022-05-15T08:13:22Z</time>
      </trkpt>
      <trkpt lat="44.92781" lon="0.83827">
        <ele>161.5</ele>
        <time>2022-05-15T08:13:23Z</time>
      </trkpt>
      <trkpt lat="44.92779" lon="0.83842">
        <ele>160.2</ele>
        <time>2022-05-15T08:13:25Z</time>
      </trkpt>
      <trkpt lat="44.92778" lon="0.83851">
        <ele>159.3</ele>
        <time>2022-05-15T08:13:26Z</time>
      </trkpt>
      <trkpt lat="44.92777" lon="0.83861">
        <ele>158.1</ele>
        <time>2022-05-15T08:13:27Z</time>
      </trkpt>
      <trkpt lat="44.92775" lon="0.83881">
        <ele>155.4</ele>
        <time>2022-05-15T08:13:29Z</time>
      </trkpt>
      <trkpt lat="44.92772" lon="0.83904">
        <ele>152.6</ele>
        <time>2022-05-15T08:13:31Z</time>
      </trkpt>
      <trkpt lat="44.92768" lon="0.83925">
        <ele>150.1</ele>
        <time>2022-05-15T08:13:33Z</time>
      </trkpt>
      <trkpt lat="44.92765" lon="0.83943">
        <ele>148.3</ele>
        <time>2022-05-15T08:13:35Z</time>
      </trkpt>
      <trkpt lat="44.92764" lon="0.83952">
        <ele>147.6</ele>
        <time>2022-05-15T08:13:36Z</time>
      </trkpt>
      <trkpt lat="44.92763" lon="0.83958">
        <ele>147.1</ele>
        <time>2022-05-15T08:13:37Z</time>
      </trkpt>
      <trkpt lat="44.92762" lon="0.83969">
        <ele>146.3</ele>
        <time>2022-05-15T08:13:39Z</time>
      </trkpt>
      <trkpt lat="44.9276" lon="0.83981">
        <ele>145.5</ele>
        <time>2022-05-15T08:13:41Z</time>
      </trkpt>
      <trkpt lat="44.92758" lon="0.83996">
        <ele>144.7</ele>
        <time>2022-05-15T08:13:43Z</time>
      </trkpt>
      <trkpt lat="44.92757" lon="0.84005">
        <ele>144.4</ele>
        <time>2022-05-15T08:13:44Z</time>
      </trkpt>
      <trkpt lat="44.92756" lon="0.84013">
        <ele>144.1</ele>
        <time>2022-05-15T08:13:45Z</time>
      </trkpt>
      <trkpt lat="44.92753" lon="0.84029">
        <ele>143.7</ele>
        <time>2022-05-15T08:13:47Z</time>
      </trkpt>
      <trkpt lat="44.9275" lon="0.84045">
        <ele>143.6</ele>
        <time>2022-05-15T08:13:49Z</time>
      </trkpt>
      <trkpt lat="44.92748" lon="0.8406">
        <ele>143.7</ele>
        <time>2022-05-15T08:13:51Z</time>
      </trkpt>
      <trkpt lat="44.92746" lon="0.84074">
        <ele>143.8</ele>
        <time>2022-05-15T08:13:53Z</time>
      </trkpt>
      <trkpt lat="44.92745" lon="0.84088">
        <ele>143.9</ele>
        <time>2022-05-15T08:13:55Z</time>
      </trkpt>
      <trkpt lat="44.92744" lon="0.84093">
        <ele>144</ele>
        <time>2022-05-15T08:13:56Z</time>
      </trkpt>
      <trkpt lat="44.92743" lon="0.84098">
        <ele>144.1</ele>
        <time>2022-05-15T08:13:57Z</time>
      </trkpt>
      <trkpt lat="44.92741" lon="0.8411">
        <ele>144.4</ele>
        <time>2022-05-15T08:13:59Z</time>
      </trkpt>
      <trkpt lat="44.92741" lon="0.84115">
        <ele>144.5</ele>
        <time>2022-05-15T08:14:00Z</time>
      </trkpt>
      <trkpt lat="44.92741" lon="0.8412">
        <ele>144.6</ele>
        <time>2022-05-15T08:14:01Z</time>
      </trkpt>
      <trkpt lat="44.9275" lon="0.84131">
        <ele>144.9</ele>
        <time>2022-05-15T08:14:03Z</time>
      </trkpt>
      <trkpt lat="44.92753" lon="0.84131">
        <ele>144.9</ele>
        <time>2022-05-15T08:14:04Z</time>
      </trkpt>
      <trkpt lat="44.92757" lon="0.8413">
        <ele>144.9</ele>
        <time>2022-05-15T08:14:05Z</time>
      </trkpt>
      <trkpt lat="44.92761" lon="0.84129">
        <ele>144.8</ele>
        <time>2022-05-15T08:14:07Z</time>
      </trkpt>
      <trkpt lat="44.92765" lon="0.84128">
        <ele>144.8</ele>
        <time>2022-05-15T08:14:09Z</time>
      </trkpt>
      <trkpt lat="44.9277" lon="0.84127">
        <ele>144.7</ele>
        <time>2022-05-15T08:14:11Z</time>
      </trkpt>
      <trkpt lat="44.92775" lon="0.84126">
        <ele>144.6</ele>
        <time>2022-05-15T08:14:13Z</time>
      </trkpt>
      <trkpt lat="44.92781" lon="0.84124">
        <ele>144.4</ele>
        <time>2022-05-15T08:14:15Z</time>
      </trkpt>
      <trkpt lat="44.92787" lon="0.84123">
        <ele>144.3</ele>
        <time>2022-05-15T08:14:17Z</time>
      </trkpt>
      <trkpt lat="44.92795" lon="0.84121">
        <ele>144</ele>
        <time>2022-05-15T08:14:19Z</time>
      </trkpt>
      <trkpt lat="44.92799" lon="0.8412">
        <ele>143.8</ele>
        <time>2022-05-15T08:14:20Z</time>
      </trkpt>
      <trkpt lat="44.92804" lon="0.84119">
        <ele>143.6</ele>
        <time>2022-05-15T08:14:21Z</time>
      </trkpt>
      <trkpt lat="44.92814" lon="0.84117">
        <ele>143</ele>
        <time>2022-05-15T08:14:23Z</time>
      </trkpt>
      <trkpt lat="44.92819" lon="0.84116">
        <ele>142.8</ele>
        <time>2022-05-15T08:14:24Z</time>
      </trkpt>
      <trkpt lat="44.92825" lon="0.84114">
        <ele>142.6</ele>
        <time>2022-05-15T08:14:25Z</time>
      </trkpt>
      <trkpt lat="44.92836" lon="0.84112">
        <ele>142.2</ele>
        <time>2022-05-15T08:14:27Z</time>
      </trkpt>
      <trkpt lat="44.92842" lon="0.84113">
        <ele>142</ele>
        <time>2022-05-15T08:14:28Z</time>
      </trkpt>
      <trkpt lat="44.92849" lon="0.84114">
        <ele>141.8</ele>
        <time>2022-05-15T08:14:29Z</time>
      </trkpt>
      <trkpt lat="44.9286" lon="0.84119">
        <ele>141.9</ele>
        <time>2022-05-15T08:14:31Z</time>
      </trkpt>
      <trkpt lat="44.9287" lon="0.84123">
        <ele>142.3</ele>
        <time>2022-05-15T08:14:33Z</time>
      </trkpt>
      <trkpt lat="44.92879" lon="0.84127">
        <ele>143</ele>
        <time>2022-05-15T08:14:35Z</time>
      </trkpt>
      <trkpt lat="44.92887" lon="0.84129">
        <ele>143.7</ele>
        <time>2022-05-15T08:14:37Z</time>
      </trkpt>
      <trkpt lat="44.92895" lon="0.8413">
        <ele>144.5</ele>
        <time>2022-05-15T08:14:39Z</time>
      </trkpt>
      <trkpt lat="44.92902" lon="0.84131">
        <ele>145.4</ele>
        <time>2022-05-15T08:14:41Z</time>
      </trkpt>
      <trkpt lat="44.92909" lon="0.84133">
        <ele>146.1</ele>
        <time>2022-05-15T08:14:43Z</time>
      </trkpt>
      <trkpt lat="44.92911" lon="0.84135">
        <ele>146.4</ele>
        <time>2022-05-15T08:14:44Z</time>
      </trkpt>
      <trkpt lat="44.92914" lon="0.84136">
        <ele>146.7</ele>
        <time>2022-05-15T08:14:45Z</time>
      </trkpt>
      <trkpt lat="44.9292" lon="0.84141">
        <ele>147.3</ele>
        <time>2022-05-15T08:14:47Z</time>
      </trkpt>
      <trkpt lat="44.92924" lon="0.84144">
        <ele>147.6</ele>
        <time>2022-05-15T08:14:48Z</time>
      </trkpt>
      <trkpt lat="44.92926" lon="0.84146">
        <ele>147.8</ele>
        <time>2022-05-15T08:14:49Z</time>
      </trkpt>
      <trkpt lat="44.92932" lon="0.8415">
        <ele>148.1</ele>
        <time>2022-05-15T08:14:51Z</time>
      </trkpt>
      <trkpt lat="44.92938" lon="0.84156">
        <ele>148.3</ele>
        <time>2022-05-15T08:14:53Z</time>
      </trkpt>
      <trkpt lat="44.92945" lon="0.84161">
        <ele>148.5</ele>
        <time>2022-05-15T08:14:55Z</time>
      </trkpt>
      <trkpt lat="44.92952" lon="0.84165">
        <ele>148.5</ele>
        <time>2022-05-15T08:14:57Z</time>
      </trkpt>
      <trkpt lat="44.92959" lon="0.84163">
        <ele>148.6</ele>
        <time>2022-05-15T08:14:59Z</time>
      </trkpt>
      <trkpt lat="44.92963" lon="0.84161">
        <ele>148.7</ele>
        <time>2022-05-15T08:15:00Z</time>
      </trkpt>
      <trkpt lat="44.92966" lon="0.8416">
        <ele>148.8</ele>
        <time>2022-05-15T08:15:01Z</time>
      </trkpt>
      <trkpt lat="44.92971" lon="0.84157">
        <ele>149.1</ele>
        <time>2022-05-15T08:15:03Z</time>
      </trkpt>
      <trkpt lat="44.92974" lon="0.84156">
        <ele>149.2</ele>
        <time>2022-05-15T08:15:04Z</time>
      </trkpt>
      <trkpt lat="44.92977" lon="0.84154">
        <ele>149.3</ele>
        <time>2022-05-15T08:15:05Z</time>
      </trkpt>
      <trkpt lat="44.92982" lon="0.84151">
        <ele>149.6</ele>
        <time>2022-05-15T08:15:07Z</time>
      </trkpt>
      <trkpt lat="44.92987" lon="0.84147">
        <ele>149.9</ele>
        <time>2022-05-15T08:15:09Z</time>
      </trkpt>
      <trkpt lat="44.92992" lon="0.84144">
        <ele>150.2</ele>
        <time>2022-05-15T08:15:11Z</time>
      </trkpt>
      <trkpt lat="44.92995" lon="0.84143">
        <ele>150.4</ele>
        <time>2022-05-15T08:15:12Z</time>
      </trkpt>
      <trkpt lat="44.92997" lon="0.84141">
        <ele>150.6</ele>
        <time>2022-05-15T08:15:13Z</time>
      </trkpt>
      <trkpt lat="44.93002" lon="0.84138">
        <ele>150.9</ele>
        <time>2022-05-15T08:15:15Z</time>
      </trkpt>
      <trkpt lat="44.93007" lon="0.84134">
        <ele>151.3</ele>
        <time>2022-05-15T08:15:17Z</time>
      </trkpt>
      <trkpt lat="44.93011" lon="0.84131">
        <ele>151.7</ele>
        <time>2022-05-15T08:15:19Z</time>
      </trkpt>
      <trkpt lat="44.93016" lon="0.84128">
        <ele>152.1</ele>
        <time>2022-05-15T08:15:21Z</time>
      </trkpt>
      <trkpt lat="44.9302" lon="0.84125">
        <ele>152.6</ele>
        <time>2022-05-15T08:15:23Z</time>
      </trkpt>
      <trkpt lat="44.93024" lon="0.84121">
        <ele>153.1</ele>
        <time>2022-05-15T08:15:25Z</time>
      </trkpt>
      <trkpt lat="44.93028" lon="0.84118">
        <ele>153.5</ele>
        <time>2022-05-15T08:15:27Z</time>
      </trkpt>
      <trkpt lat="44.93032" lon="0.84115">
        <ele>153.9</ele>
        <time>2022-05-15T08:15:29Z</time>
      </trkpt>
      <trkpt lat="44.93035" lon="0.84113">
        <ele>154.3</ele>
        <time>2022-05-15T08:15:31Z</time>
      </trkpt>
      <trkpt lat="44.93039" lon="0.8411">
        <ele>154.7</ele>
        <time>2022-05-15T08:15:33Z</time>
      </trkpt>
      <trkpt lat="44.93042" lon="0.84107">
        <ele>155.1</ele>
        <time>2022-05-15T08:15:35Z</time>
      </trkpt>
      <trkpt lat="44.93045" lon="0.84105">
        <ele>155.6</ele>
        <time>2022-05-15T08:15:37Z</time>
      </trkpt>
      <trkpt lat="44.93048" lon="0.84103">
        <ele>155.9</ele>
        <time>2022-05-15T08:15:39Z</time>
      </trkpt>
      <trkpt lat="44.93049" lon="0.84102">
        <ele>156.1</ele>
        <time>2022-05-15T08:15:40Z</time>
      </trkpt>
      <trkpt lat="44.93051" lon="0.84101">
        <ele>156.3</ele>
        <time>2022-05-15T08:15:41Z</time>
      </trkpt>
      <trkpt lat="44.93054" lon="0.84099">
        <ele>156.7</ele>
        <time>2022-05-15T08:15:43Z</time>
      </trkpt>
      <trkpt lat="44.93057" lon="0.84096">
        <ele>157.1</ele>
        <time>2022-05-15T08:15:45Z</time>
      </trkpt>
      <trkpt lat="44.9306" lon="0.84094">
        <ele>157.4</ele>
        <time>2022-05-15T08:15:47Z</time>
      </trkpt>
      <trkpt lat="44.93063" lon="0.84092">
        <ele>157.8</ele>
        <time>2022-05-15T08:15:49Z</time>
      </trkpt>
      <trkpt lat="44.93066" lon="0.84091">
        <ele>158.1</ele>
        <time>2022-05-15T08:15:51Z</time>
      </trkpt>
      <trkpt lat="44.93069" lon="0.84089">
        <ele>158.5</ele>
        <time>2022-05-15T08:15:53Z</time>
      </trkpt>
      <trkpt lat="44.93072" lon="0.84087">
        <ele>158.9</ele>
        <time>2022-05-15T08:15:55Z</time>
      </trkpt>
      <trkpt lat="44.93075" lon="0.84085">
        <ele>159.2</ele>
        <time>2022-05-15T08:15:57Z</time>
      </trkpt>
      <trkpt lat="44.93076" lon="0.84084">
        <ele>159.3</ele>
        <time>2022-05-15T08:15:58Z</time>
      </trkpt>
      <trkpt lat="44.93078" lon="0.84083">
        <ele>159.5</ele>
        <time>2022-05-15T08:15:59Z</time>
      </trkpt>
      <trkpt lat="44.9308" lon="0.84082">
        <ele>159.8</ele>
        <time>2022-05-15T08:16:01Z</time>
      </trkpt>
      <trkpt lat="44.93083" lon="0.8408">
        <ele>160</ele>
        <time>2022-05-15T08:16:03Z</time>
      </trkpt>
      <trkpt lat="44.93085" lon="0.8408">
        <ele>160.2</ele>
        <time>2022-05-15T08:16:04Z</time>
      </trkpt>
      <trkpt lat="44.93086" lon="0.84079">
        <ele>160.3</ele>
        <time>2022-05-15T08:16:05Z</time>
      </trkpt>
      <trkpt lat="44.9309" lon="0.84077">
        <ele>160.7</ele>
        <time>2022-05-15T08:16:07Z</time>
      </trkpt>
      <trkpt lat="44.93093" lon="0.84077">
        <ele>161</ele>
        <time>2022-05-15T08:16:09Z</time>
      </trkpt>
      <trkpt lat="44.93097" lon="0.84076">
        <ele>161.2</ele>
        <time>2022-05-15T08:16:11Z</time>
      </trkpt>
      <trkpt lat="44.93101" lon="0.84075">
        <ele>161.5</ele>
        <time>2022-05-15T08:16:13Z</time>
      </trkpt>
      <trkpt lat="44.93105" lon="0.84075">
        <ele>161.7</ele>
        <time>2022-05-15T08:16:15Z</time>
      </trkpt>
      <trkpt lat="44.93109" lon="0.84074">
        <ele>162</ele>
        <time>2022-05-15T08:16:17Z</time>
      </trkpt>
      <trkpt lat="44.93112" lon="0.84073">
        <ele>162.2</ele>
        <time>2022-05-15T08:16:19Z</time>
      </trkpt>
      <trkpt lat="44.93116" lon="0.84072">
        <ele>162.4</ele>
        <time>2022-05-15T08:16:21Z</time>
      </trkpt>
      <trkpt lat="44.93119" lon="0.84071">
        <ele>162.6</ele>
        <time>2022-05-15T08:16:23Z</time>
      </trkpt>
      <trkpt lat="44.93123" lon="0.84071">
        <ele>162.9</ele>
        <time>2022-05-15T08:16:25Z</time>
      </trkpt>
      <trkpt lat="44.93126" lon="0.8407">
        <ele>163.1</ele>
        <time>2022-05-15T08:16:27Z</time>
      </trkpt>
      <trkpt lat="44.93129" lon="0.84069">
        <ele>163.3</ele>
        <time>2022-05-15T08:16:29Z</time>
      </trkpt>
      <trkpt lat="44.93131" lon="0.84068">
        <ele>163.4</ele>
        <time>2022-05-15T08:16:30Z</time>
      </trkpt>
      <trkpt lat="44.93133" lon="0.84068">
        <ele>163.5</ele>
        <time>2022-05-15T08:16:31Z</time>
      </trkpt>
      <trkpt lat="44.93137" lon="0.84066">
        <ele>163.8</ele>
        <time>2022-05-15T08:16:33Z</time>
      </trkpt>
      <trkpt lat="44.9314" lon="0.84064">
        <ele>164.1</ele>
        <time>2022-05-15T08:16:35Z</time>
      </trkpt>
      <trkpt lat="44.93144" lon="0.84062">
        <ele>164.4</ele>
        <time>2022-05-15T08:16:37Z</time>
      </trkpt>
      <trkpt lat="44.93147" lon="0.84061">
        <ele>164.6</ele>
        <time>2022-05-15T08:16:39Z</time>
      </trkpt>
      <trkpt lat="44.9315" lon="0.84059">
        <ele>164.9</ele>
        <time>2022-05-15T08:16:41Z</time>
      </trkpt>
      <trkpt lat="44.93154" lon="0.84057">
        <ele>165.2</ele>
        <time>2022-05-15T08:16:43Z</time>
      </trkpt>
      <trkpt lat="44.93157" lon="0.84055">
        <ele>165.6</ele>
        <time>2022-05-15T08:16:45Z</time>
      </trkpt>
      <trkpt lat="44.9316" lon="0.84054">
        <ele>166</ele>
        <time>2022-05-15T08:16:47Z</time>
      </trkpt>
      <trkpt lat="44.93164" lon="0.84052">
        <ele>166.4</ele>
        <time>2022-05-15T08:16:49Z</time>
      </trkpt>
      <trkpt lat="44.93167" lon="0.84051">
        <ele>166.9</ele>
        <time>2022-05-15T08:16:51Z</time>
      </trkpt>
      <trkpt lat="44.93168" lon="0.84051">
        <ele>167</ele>
        <time>2022-05-15T08:16:52Z</time>
      </trkpt>
      <trkpt lat="44.9317" lon="0.8405">
        <ele>167.3</ele>
        <time>2022-05-15T08:16:53Z</time>
      </trkpt>
      <trkpt lat="44.93173" lon="0.84049">
        <ele>167.7</ele>
        <time>2022-05-15T08:16:55Z</time>
      </trkpt>
      <trkpt lat="44.93176" lon="0.84048">
        <ele>168</ele>
        <time>2022-05-15T08:16:57Z</time>
      </trkpt>
      <trkpt lat="44.93179" lon="0.84046">
        <ele>168.4</ele>
        <time>2022-05-15T08:16:59Z</time>
      </trkpt>
      <trkpt lat="44.93183" lon="0.84045">
        <ele>168.9</ele>
        <time>2022-05-15T08:17:01Z</time>
      </trkpt>
      <trkpt lat="44.93187" lon="0.84043">
        <ele>169.3</ele>
        <time>2022-05-15T08:17:03Z</time>
      </trkpt>
      <trkpt lat="44.9319" lon="0.84041">
        <ele>169.8</ele>
        <time>2022-05-15T08:17:05Z</time>
      </trkpt>
      <trkpt lat="44.93192" lon="0.84039">
        <ele>170</ele>
        <time>2022-05-15T08:17:06Z</time>
      </trkpt>
      <trkpt lat="44.93193" lon="0.84038">
        <ele>170.2</ele>
        <time>2022-05-15T08:17:07Z</time>
      </trkpt>
      <trkpt lat="44.93196" lon="0.84035">
        <ele>170.7</ele>
        <time>2022-05-15T08:17:09Z</time>
      </trkpt>
      <trkpt lat="44.93199" lon="0.84033">
        <ele>171.1</ele>
        <time>2022-05-15T08:17:11Z</time>
      </trkpt>
      <trkpt lat="44.93202" lon="0.8403">
        <ele>171.5</ele>
        <time>2022-05-15T08:17:13Z</time>
      </trkpt>
      <trkpt lat="44.93205" lon="0.84028">
        <ele>171.9</ele>
        <time>2022-05-15T08:17:15Z</time>
      </trkpt>
      <trkpt lat="44.93208" lon="0.84023">
        <ele>172.4</ele>
        <time>2022-05-15T08:17:17Z</time>
      </trkpt>
      <trkpt lat="44.9321" lon="0.84019">
        <ele>172.8</ele>
        <time>2022-05-15T08:17:19Z</time>
      </trkpt>
      <trkpt lat="44.93213" lon="0.84016">
        <ele>173.2</ele>
        <time>2022-05-15T08:17:21Z</time>
      </trkpt>
      <trkpt lat="44.93215" lon="0.84011">
        <ele>173.7</ele>
        <time>2022-05-15T08:17:23Z</time>
      </trkpt>
      <trkpt lat="44.93217" lon="0.84007">
        <ele>174.1</ele>
        <time>2022-05-15T08:17:25Z</time>
      </trkpt>
      <trkpt lat="44.93218" lon="0.84002">
        <ele>174.5</ele>
        <time>2022-05-15T08:17:27Z</time>
      </trkpt>
      <trkpt lat="44.93219" lon="0.83999">
        <ele>174.8</ele>
        <time>2022-05-15T08:17:29Z</time>
      </trkpt>
      <trkpt lat="44.9322" lon="0.83997">
        <ele>174.9</ele>
        <time>2022-05-15T08:17:30Z</time>
      </trkpt>
      <trkpt lat="44.93221" lon="0.83996">
        <ele>175.1</ele>
        <time>2022-05-15T08:17:31Z</time>
      </trkpt>
      <trkpt lat="44.93223" lon="0.83993">
        <ele>175.4</ele>
        <time>2022-05-15T08:17:33Z</time>
      </trkpt>
      <trkpt lat="44.93226" lon="0.83991">
        <ele>175.7</ele>
        <time>2022-05-15T08:17:35Z</time>
      </trkpt>
      <trkpt lat="44.93227" lon="0.83989">
        <ele>175.9</ele>
        <time>2022-05-15T08:17:36Z</time>
      </trkpt>
      <trkpt lat="44.93228" lon="0.83987">
        <ele>176.1</ele>
        <time>2022-05-15T08:17:37Z</time>
      </trkpt>
      <trkpt lat="44.93231" lon="0.83984">
        <ele>176.5</ele>
        <time>2022-05-15T08:17:39Z</time>
      </trkpt>
      <trkpt lat="44.93234" lon="0.8398">
        <ele>176.8</ele>
        <time>2022-05-15T08:17:41Z</time>
      </trkpt>
      <trkpt lat="44.93238" lon="0.83976">
        <ele>177.1</ele>
        <time>2022-05-15T08:17:43Z</time>
      </trkpt>
      <trkpt lat="44.93239" lon="0.83974">
        <ele>177.3</ele>
        <time>2022-05-15T08:17:44Z</time>
      </trkpt>
      <trkpt lat="44.9324" lon="0.83972">
        <ele>177.4</ele>
        <time>2022-05-15T08:17:45Z</time>
      </trkpt>
      <trkpt lat="44.93243" lon="0.83969">
        <ele>177.6</ele>
        <time>2022-05-15T08:17:47Z</time>
      </trkpt>
      <trkpt lat="44.93246" lon="0.83965">
        <ele>177.9</ele>
        <time>2022-05-15T08:17:49Z</time>
      </trkpt>
      <trkpt lat="44.93248" lon="0.83964">
        <ele>178</ele>
        <time>2022-05-15T08:17:50Z</time>
      </trkpt>
      <trkpt lat="44.93249" lon="0.83962">
        <ele>178.1</ele>
        <time>2022-05-15T08:17:51Z</time>
      </trkpt>
      <trkpt lat="44.93252" lon="0.83958">
        <ele>178.3</ele>
        <time>2022-05-15T08:17:53Z</time>
      </trkpt>
      <trkpt lat="44.93254" lon="0.83955">
        <ele>178.5</ele>
        <time>2022-05-15T08:17:55Z</time>
      </trkpt>
      <trkpt lat="44.93257" lon="0.83951">
        <ele>178.7</ele>
        <time>2022-05-15T08:17:57Z</time>
      </trkpt>
      <trkpt lat="44.93259" lon="0.83948">
        <ele>178.8</ele>
        <time>2022-05-15T08:17:58Z</time>
      </trkpt>
      <trkpt lat="44.9326" lon="0.83945">
        <ele>178.9</ele>
        <time>2022-05-15T08:17:59Z</time>
      </trkpt>
      <trkpt lat="44.93262" lon="0.8394">
        <ele>179.1</ele>
        <time>2022-05-15T08:18:01Z</time>
      </trkpt>
      <trkpt lat="44.93265" lon="0.83935">
        <ele>179.4</ele>
        <time>2022-05-15T08:18:03Z</time>
      </trkpt>
      <trkpt lat="44.93267" lon="0.83929">
        <ele>179.6</ele>
        <time>2022-05-15T08:18:05Z</time>
      </trkpt>
      <trkpt lat="44.9327" lon="0.83924">
        <ele>179.9</ele>
        <time>2022-05-15T08:18:07Z</time>
      </trkpt>
      <trkpt lat="44.93272" lon="0.83919">
        <ele>180.1</ele>
        <time>2022-05-15T08:18:09Z</time>
      </trkpt>
      <trkpt lat="44.93274" lon="0.83913">
        <ele>180.4</ele>
        <time>2022-05-15T08:18:11Z</time>
      </trkpt>
      <trkpt lat="44.93275" lon="0.8391">
        <ele>180.5</ele>
        <time>2022-05-15T08:18:12Z</time>
      </trkpt>
      <trkpt lat="44.93276" lon="0.83908">
        <ele>180.7</ele>
        <time>2022-05-15T08:18:13Z</time>
      </trkpt>
      <trkpt lat="44.93278" lon="0.83902">
        <ele>180.9</ele>
        <time>2022-05-15T08:18:15Z</time>
      </trkpt>
      <trkpt lat="44.9328" lon="0.83896">
        <ele>181.2</ele>
        <time>2022-05-15T08:18:17Z</time>
      </trkpt>
      <trkpt lat="44.93282" lon="0.8389">
        <ele>181.5</ele>
        <time>2022-05-15T08:18:19Z</time>
      </trkpt>
      <trkpt lat="44.93283" lon="0.83888">
        <ele>181.7</ele>
        <time>2022-05-15T08:18:20Z</time>
      </trkpt>
      <trkpt lat="44.93284" lon="0.83885">
        <ele>181.8</ele>
        <time>2022-05-15T08:18:21Z</time>
      </trkpt>
      <trkpt lat="44.93286" lon="0.83878">
        <ele>182.1</ele>
        <time>2022-05-15T08:18:23Z</time>
      </trkpt>
      <trkpt lat="44.93288" lon="0.83872">
        <ele>182.3</ele>
        <time>2022-05-15T08:18:25Z</time>
      </trkpt>
      <trkpt lat="44.9329" lon="0.83866">
        <ele>182.6</ele>
        <time>2022-05-15T08:18:27Z</time>
      </trkpt>
      <trkpt lat="44.93291" lon="0.83863">
        <ele>182.7</ele>
        <time>2022-05-15T08:18:28Z</time>
      </trkpt>
      <trkpt lat="44.93292" lon="0.8386">
        <ele>182.8</ele>
        <time>2022-05-15T08:18:29Z</time>
      </trkpt>
      <trkpt lat="44.93293" lon="0.83854">
        <ele>183</ele>
        <time>2022-05-15T08:18:31Z</time>
      </trkpt>
      <trkpt lat="44.93295" lon="0.83847">
        <ele>183.2</ele>
        <time>2022-05-15T08:18:33Z</time>
      </trkpt>
      <trkpt lat="44.93298" lon="0.83843">
        <ele>183.5</ele>
        <time>2022-05-15T08:18:35Z</time>
      </trkpt>
      <trkpt lat="44.93299" lon="0.8384">
        <ele>183.6</ele>
        <time>2022-05-15T08:18:36Z</time>
      </trkpt>
      <trkpt lat="44.93301" lon="0.83836">
        <ele>183.8</ele>
        <time>2022-05-15T08:18:37Z</time>
      </trkpt>
      <trkpt lat="44.93304" lon="0.83832">
        <ele>184</ele>
        <time>2022-05-15T08:18:39Z</time>
      </trkpt>
      <trkpt lat="44.93308" lon="0.83828">
        <ele>184.3</ele>
        <time>2022-05-15T08:18:41Z</time>
      </trkpt>
      <trkpt lat="44.93313" lon="0.83823">
        <ele>184.6</ele>
        <time>2022-05-15T08:18:43Z</time>
      </trkpt>
      <trkpt lat="44.93317" lon="0.83818">
        <ele>184.9</ele>
        <time>2022-05-15T08:18:45Z</time>
      </trkpt>
      <trkpt lat="44.9332" lon="0.83812">
        <ele>185.2</ele>
        <time>2022-05-15T08:18:47Z</time>
      </trkpt>
      <trkpt lat="44.93322" lon="0.83809">
        <ele>185.3</ele>
        <time>2022-05-15T08:18:48Z</time>
      </trkpt>
      <trkpt lat="44.93324" lon="0.83806">
        <ele>185.4</ele>
        <time>2022-05-15T08:18:49Z</time>
      </trkpt>
      <trkpt lat="44.93327" lon="0.838">
        <ele>185.7</ele>
        <time>2022-05-15T08:18:51Z</time>
      </trkpt>
      <trkpt lat="44.93331" lon="0.83794">
        <ele>185.9</ele>
        <time>2022-05-15T08:18:53Z</time>
      </trkpt>
      <trkpt lat="44.93335" lon="0.83788">
        <ele>186.2</ele>
        <time>2022-05-15T08:18:55Z</time>
      </trkpt>
      <trkpt lat="44.93338" lon="0.83782">
        <ele>186.4</ele>
        <time>2022-05-15T08:18:57Z</time>
      </trkpt>
      <trkpt lat="44.9334" lon="0.83775">
        <ele>186.6</ele>
        <time>2022-05-15T08:18:59Z</time>
      </trkpt>
      <trkpt lat="44.93343" lon="0.83767">
        <ele>186.8</ele>
        <time>2022-05-15T08:19:01Z</time>
      </trkpt>
      <trkpt lat="44.93347" lon="0.8376">
        <ele>187.1</ele>
        <time>2022-05-15T08:19:03Z</time>
      </trkpt>
      <trkpt lat="44.93351" lon="0.83752">
        <ele>187.2</ele>
        <time>2022-05-15T08:19:05Z</time>
      </trkpt>
      <trkpt lat="44.93354" lon="0.83745">
        <ele>187.3</ele>
        <time>2022-05-15T08:19:07Z</time>
      </trkpt>
      <trkpt lat="44.93359" lon="0.83739">
        <ele>187.4</ele>
        <time>2022-05-15T08:19:09Z</time>
      </trkpt>
      <trkpt lat="44.93362" lon="0.83736">
        <ele>187.4</ele>
        <time>2022-05-15T08:19:10Z</time>
      </trkpt>
      <trkpt lat="44.93365" lon="0.83733">
        <ele>187.4</ele>
        <time>2022-05-15T08:19:11Z</time>
      </trkpt>
      <trkpt lat="44.93372" lon="0.83728">
        <ele>187.3</ele>
        <time>2022-05-15T08:19:13Z</time>
      </trkpt>
      <trkpt lat="44.9338" lon="0.83723">
        <ele>187.2</ele>
        <time>2022-05-15T08:19:15Z</time>
      </trkpt>
      <trkpt lat="44.93388" lon="0.83719">
        <ele>187.1</ele>
        <time>2022-05-15T08:19:17Z</time>
      </trkpt>
      <trkpt lat="44.93397" lon="0.83714">
        <ele>187</ele>
        <time>2022-05-15T08:19:19Z</time>
      </trkpt>
      <trkpt lat="44.93402" lon="0.83711">
        <ele>186.9</ele>
        <time>2022-05-15T08:19:20Z</time>
      </trkpt>
      <trkpt lat="44.93407" lon="0.83708">
        <ele>186.8</ele>
        <time>2022-05-15T08:19:21Z</time>
      </trkpt>
      <trkpt lat="44.93417" lon="0.83703">
        <ele>186.4</ele>
        <time>2022-05-15T08:19:23Z</time>
      </trkpt>
      <trkpt lat="44.93428" lon="0.83696">
        <ele>185.9</ele>
        <time>2022-05-15T08:19:25Z</time>
      </trkpt>
      <trkpt lat="44.93434" lon="0.83693">
        <ele>185.6</ele>
        <time>2022-05-15T08:19:26Z</time>
      </trkpt>
      <trkpt lat="44.9344" lon="0.8369">
        <ele>185.2</ele>
        <time>2022-05-15T08:19:27Z</time>
      </trkpt>
      <trkpt lat="44.93453" lon="0.83684">
        <ele>184.4</ele>
        <time>2022-05-15T08:19:29Z</time>
      </trkpt>
      <trkpt lat="44.93467" lon="0.83678">
        <ele>183.6</ele>
        <time>2022-05-15T08:19:31Z</time>
      </trkpt>
      <trkpt lat="44.93474" lon="0.83673">
        <ele>183.1</ele>
        <time>2022-05-15T08:19:32Z</time>
      </trkpt>
      <trkpt lat="44.93481" lon="0.83669">
        <ele>182.6</ele>
        <time>2022-05-15T08:19:33Z</time>
      </trkpt>
      <trkpt lat="44.93489" lon="0.83665">
        <ele>182.1</ele>
        <time>2022-05-15T08:19:34Z</time>
      </trkpt>
      <trkpt lat="44.93496" lon="0.83661">
        <ele>181.6</ele>
        <time>2022-05-15T08:19:35Z</time>
      </trkpt>
      <trkpt lat="44.93504" lon="0.83656">
        <ele>181.1</ele>
        <time>2022-05-15T08:19:36Z</time>
      </trkpt>
      <trkpt lat="44.93511" lon="0.83649">
        <ele>180.6</ele>
        <time>2022-05-15T08:19:37Z</time>
      </trkpt>
      <trkpt lat="44.93517" lon="0.83643">
        <ele>180.1</ele>
        <time>2022-05-15T08:19:38Z</time>
      </trkpt>
      <trkpt lat="44.93524" lon="0.83635">
        <ele>179.5</ele>
        <time>2022-05-15T08:19:39Z</time>
      </trkpt>
      <trkpt lat="44.93537" lon="0.83616">
        <ele>178</ele>
        <time>2022-05-15T08:19:41Z</time>
      </trkpt>
      <trkpt lat="44.93544" lon="0.83606">
        <ele>177.3</ele>
        <time>2022-05-15T08:19:42Z</time>
      </trkpt>
      <trkpt lat="44.9355" lon="0.83597">
        <ele>176.7</ele>
        <time>2022-05-15T08:19:43Z</time>
      </trkpt>
      <trkpt lat="44.93562" lon="0.83579">
        <ele>175.9</ele>
        <time>2022-05-15T08:19:45Z</time>
      </trkpt>
      <trkpt lat="44.93574" lon="0.83561">
        <ele>175.4</ele>
        <time>2022-05-15T08:19:47Z</time>
      </trkpt>
      <trkpt lat="44.93588" lon="0.8355">
        <ele>175.1</ele>
        <time>2022-05-15T08:19:49Z</time>
      </trkpt>
      <trkpt lat="44.93602" lon="0.83541">
        <ele>175.1</ele>
        <time>2022-05-15T08:19:51Z</time>
      </trkpt>
      <trkpt lat="44.93608" lon="0.83536">
        <ele>175.2</ele>
        <time>2022-05-15T08:19:52Z</time>
      </trkpt>
      <trkpt lat="44.93614" lon="0.83531">
        <ele>175.2</ele>
        <time>2022-05-15T08:19:53Z</time>
      </trkpt>
      <trkpt lat="44.93626" lon="0.83522">
        <ele>175.5</ele>
        <time>2022-05-15T08:19:55Z</time>
      </trkpt>
      <trkpt lat="44.93632" lon="0.83517">
        <ele>175.7</ele>
        <time>2022-05-15T08:19:56Z</time>
      </trkpt>
      <trkpt lat="44.93638" lon="0.83515">
        <ele>175.9</ele>
        <time>2022-05-15T08:19:57Z</time>
      </trkpt>
      <trkpt lat="44.93649" lon="0.83511">
        <ele>176.4</ele>
        <time>2022-05-15T08:19:59Z</time>
      </trkpt>
      <trkpt lat="44.93658" lon="0.83507">
        <ele>176.9</ele>
        <time>2022-05-15T08:20:01Z</time>
      </trkpt>
      <trkpt lat="44.93667" lon="0.83503">
        <ele>177.5</ele>
        <time>2022-05-15T08:20:03Z</time>
      </trkpt>
      <trkpt lat="44.93676" lon="0.83499">
        <ele>178</ele>
        <time>2022-05-15T08:20:05Z</time>
      </trkpt>
      <trkpt lat="44.93684" lon="0.83495">
        <ele>178.5</ele>
        <time>2022-05-15T08:20:07Z</time>
      </trkpt>
      <trkpt lat="44.93692" lon="0.83492">
        <ele>178.9</ele>
        <time>2022-05-15T08:20:09Z</time>
      </trkpt>
      <trkpt lat="44.93698" lon="0.83487">
        <ele>179.4</ele>
        <time>2022-05-15T08:20:11Z</time>
      </trkpt>
      <trkpt lat="44.93705" lon="0.83482">
        <ele>179.9</ele>
        <time>2022-05-15T08:20:13Z</time>
      </trkpt>
      <trkpt lat="44.93708" lon="0.8348">
        <ele>180.1</ele>
        <time>2022-05-15T08:20:14Z</time>
      </trkpt>
      <trkpt lat="44.93712" lon="0.83477">
        <ele>180.4</ele>
        <time>2022-05-15T08:20:15Z</time>
      </trkpt>
      <trkpt lat="44.93719" lon="0.83473">
        <ele>180.9</ele>
        <time>2022-05-15T08:20:17Z</time>
      </trkpt>
      <trkpt lat="44.93725" lon="0.83469">
        <ele>181.3</ele>
        <time>2022-05-15T08:20:19Z</time>
      </trkpt>
      <trkpt lat="44.93729" lon="0.83467">
        <ele>181.5</ele>
        <time>2022-05-15T08:20:20Z</time>
      </trkpt>
      <trkpt lat="44.93732" lon="0.83466">
        <ele>181.8</ele>
        <time>2022-05-15T08:20:21Z</time>
      </trkpt>
      <trkpt lat="44.93738" lon="0.83464">
        <ele>182.2</ele>
        <time>2022-05-15T08:20:23Z</time>
      </trkpt>
      <trkpt lat="44.93744" lon="0.83463">
        <ele>182.7</ele>
        <time>2022-05-15T08:20:25Z</time>
      </trkpt>
      <trkpt lat="44.93749" lon="0.83461">
        <ele>183.1</ele>
        <time>2022-05-15T08:20:27Z</time>
      </trkpt>
      <trkpt lat="44.93754" lon="0.8346">
        <ele>183.5</ele>
        <time>2022-05-15T08:20:29Z</time>
      </trkpt>
      <trkpt lat="44.93759" lon="0.83459">
        <ele>184</ele>
        <time>2022-05-15T08:20:31Z</time>
      </trkpt>
      <trkpt lat="44.93761" lon="0.83458">
        <ele>184.1</ele>
        <time>2022-05-15T08:20:32Z</time>
      </trkpt>
      <trkpt lat="44.93762" lon="0.83458">
        <ele>184.3</ele>
        <time>2022-05-15T08:20:33Z</time>
      </trkpt>
      <trkpt lat="44.93767" lon="0.83457">
        <ele>184.7</ele>
        <time>2022-05-15T08:20:35Z</time>
      </trkpt>
      <trkpt lat="44.93772" lon="0.83455">
        <ele>185.2</ele>
        <time>2022-05-15T08:20:37Z</time>
      </trkpt>
      <trkpt lat="44.93776" lon="0.83454">
        <ele>185.6</ele>
        <time>2022-05-15T08:20:39Z</time>
      </trkpt>
      <trkpt lat="44.9378" lon="0.83453">
        <ele>186</ele>
        <time>2022-05-15T08:20:41Z</time>
      </trkpt>
      <trkpt lat="44.93782" lon="0.83453">
        <ele>186.2</ele>
        <time>2022-05-15T08:20:42Z</time>
      </trkpt>
      <trkpt lat="44.93785" lon="0.83452">
        <ele>186.4</ele>
        <time>2022-05-15T08:20:43Z</time>
      </trkpt>
      <trkpt lat="44.93789" lon="0.83451">
        <ele>186.8</ele>
        <time>2022-05-15T08:20:45Z</time>
      </trkpt>
      <trkpt lat="44.93794" lon="0.83451">
        <ele>187.2</ele>
        <time>2022-05-15T08:20:47Z</time>
      </trkpt>
      <trkpt lat="44.93798" lon="0.83451">
        <ele>187.6</ele>
        <time>2022-05-15T08:20:49Z</time>
      </trkpt>
      <trkpt lat="44.93801" lon="0.83451">
        <ele>187.8</ele>
        <time>2022-05-15T08:20:50Z</time>
      </trkpt>
      <trkpt lat="44.93803" lon="0.83451">
        <ele>187.9</ele>
        <time>2022-05-15T08:20:51Z</time>
      </trkpt>
      <trkpt lat="44.93806" lon="0.83451">
        <ele>188.3</ele>
        <time>2022-05-15T08:20:53Z</time>
      </trkpt>
      <trkpt lat="44.9381" lon="0.83452">
        <ele>188.6</ele>
        <time>2022-05-15T08:20:55Z</time>
      </trkpt>
      <trkpt lat="44.93815" lon="0.83453">
        <ele>188.9</ele>
        <time>2022-05-15T08:20:57Z</time>
      </trkpt>
      <trkpt lat="44.93817" lon="0.83453">
        <ele>189.1</ele>
        <time>2022-05-15T08:20:58Z</time>
      </trkpt>
      <trkpt lat="44.93818" lon="0.83453">
        <ele>189.3</ele>
        <time>2022-05-15T08:20:59Z</time>
      </trkpt>
      <trkpt lat="44.93822" lon="0.83454">
        <ele>189.6</ele>
        <time>2022-05-15T08:21:01Z</time>
      </trkpt>
      <trkpt lat="44.93826" lon="0.83455">
        <ele>189.9</ele>
        <time>2022-05-15T08:21:03Z</time>
      </trkpt>
      <trkpt lat="44.93828" lon="0.83455">
        <ele>190</ele>
        <time>2022-05-15T08:21:04Z</time>
      </trkpt>
      <trkpt lat="44.9383" lon="0.83455">
        <ele>190.2</ele>
        <time>2022-05-15T08:21:05Z</time>
      </trkpt>
      <trkpt lat="44.93834" lon="0.83455">
        <ele>190.5</ele>
        <time>2022-05-15T08:21:07Z</time>
      </trkpt>
      <trkpt lat="44.93838" lon="0.83455">
        <ele>190.7</ele>
        <time>2022-05-15T08:21:09Z</time>
      </trkpt>
      <trkpt lat="44.93843" lon="0.83455">
        <ele>191</ele>
        <time>2022-05-15T08:21:11Z</time>
      </trkpt>
      <trkpt lat="44.93847" lon="0.83455">
        <ele>191.3</ele>
        <time>2022-05-15T08:21:13Z</time>
      </trkpt>
      <trkpt lat="44.93851" lon="0.83455">
        <ele>191.6</ele>
        <time>2022-05-15T08:21:15Z</time>
      </trkpt>
      <trkpt lat="44.93855" lon="0.83455">
        <ele>191.8</ele>
        <time>2022-05-15T08:21:17Z</time>
      </trkpt>
      <trkpt lat="44.9386" lon="0.83455">
        <ele>192.1</ele>
        <time>2022-05-15T08:21:19Z</time>
      </trkpt>
      <trkpt lat="44.93863" lon="0.83455">
        <ele>192.4</ele>
        <time>2022-05-15T08:21:21Z</time>
      </trkpt>
      <trkpt lat="44.93867" lon="0.83456">
        <ele>192.7</ele>
        <time>2022-05-15T08:21:23Z</time>
      </trkpt>
      <trkpt lat="44.93869" lon="0.83456">
        <ele>192.9</ele>
        <time>2022-05-15T08:21:24Z</time>
      </trkpt>
      <trkpt lat="44.93871" lon="0.83456">
        <ele>193</ele>
        <time>2022-05-15T08:21:25Z</time>
      </trkpt>
      <trkpt lat="44.93875" lon="0.83457">
        <ele>193.3</ele>
        <time>2022-05-15T08:21:27Z</time>
      </trkpt>
      <trkpt lat="44.93879" lon="0.83458">
        <ele>193.6</ele>
        <time>2022-05-15T08:21:29Z</time>
      </trkpt>
      <trkpt lat="44.9388" lon="0.8346">
        <ele>193.8</ele>
        <time>2022-05-15T08:21:30Z</time>
      </trkpt>
      <trkpt lat="44.93885" lon="0.83465">
        <ele>194.3</ele>
        <time>2022-05-15T08:21:31Z</time>
      </trkpt>
      <trkpt lat="44.93889" lon="0.83469">
        <ele>194.3</ele>
        <time>2022-05-15T08:21:32Z</time>
      </trkpt>
      <trkpt lat="44.93889" lon="0.83471">
        <ele>194.2</ele>
        <time>2022-05-15T08:21:33Z</time>
      </trkpt>
      <trkpt lat="44.93888" lon="0.83477">
        <ele>193.7</ele>
        <time>2022-05-15T08:21:35Z</time>
      </trkpt>
      <trkpt lat="44.93887" lon="0.83482">
        <ele>193.3</ele>
        <time>2022-05-15T08:21:37Z</time>
      </trkpt>
      <trkpt lat="44.93886" lon="0.83486">
        <ele>193</ele>
        <time>2022-05-15T08:21:38Z</time>
      </trkpt>
      <trkpt lat="44.93886" lon="0.83489">
        <ele>192.7</ele>
        <time>2022-05-15T08:21:39Z</time>
      </trkpt>
      <trkpt lat="44.93885" lon="0.83493">
        <ele>192.4</ele>
        <time>2022-05-15T08:21:40Z</time>
      </trkpt>
      <trkpt lat="44.93885" lon="0.83496">
        <ele>192.1</ele>
        <time>2022-05-15T08:21:41Z</time>
      </trkpt>
      <trkpt lat="44.93884" lon="0.83502">
        <ele>191.6</ele>
        <time>2022-05-15T08:21:43Z</time>
      </trkpt>
      <trkpt lat="44.93882" lon="0.83515">
        <ele>190.3</ele>
        <time>2022-05-15T08:21:45Z</time>
      </trkpt>
      <trkpt lat="44.93878" lon="0.83531">
        <ele>188.6</ele>
        <time>2022-05-15T08:21:47Z</time>
      </trkpt>
      <trkpt lat="44.9387" lon="0.83547">
        <ele>186.8</ele>
        <time>2022-05-15T08:21:49Z</time>
      </trkpt>
      <trkpt lat="44.93866" lon="0.83558">
        <ele>185.6</ele>
        <time>2022-05-15T08:21:50Z</time>
      </trkpt>
      <trkpt lat="44.93864" lon="0.83569">
        <ele>184.4</ele>
        <time>2022-05-15T08:21:51Z</time>
      </trkpt>
      <trkpt lat="44.9386" lon="0.83577">
        <ele>183.3</ele>
        <time>2022-05-15T08:21:52Z</time>
      </trkpt>
      <trkpt lat="44.93854" lon="0.83584">
        <ele>182.2</ele>
        <time>2022-05-15T08:21:53Z</time>
      </trkpt>
      <trkpt lat="44.93848" lon="0.83592">
        <ele>181</ele>
        <time>2022-05-15T08:21:54Z</time>
      </trkpt>
      <trkpt lat="44.93842" lon="0.836">
        <ele>179.9</ele>
        <time>2022-05-15T08:21:55Z</time>
      </trkpt>
      <trkpt lat="44.93828" lon="0.83618">
        <ele>177.7</ele>
        <time>2022-05-15T08:21:57Z</time>
      </trkpt>
      <trkpt lat="44.93815" lon="0.83637">
        <ele>175.9</ele>
        <time>2022-05-15T08:21:59Z</time>
      </trkpt>
      <trkpt lat="44.93801" lon="0.83658">
        <ele>174.1</ele>
        <time>2022-05-15T08:22:01Z</time>
      </trkpt>
      <trkpt lat="44.93795" lon="0.8367">
        <ele>173.2</ele>
        <time>2022-05-15T08:22:02Z</time>
      </trkpt>
      <trkpt lat="44.93789" lon="0.83681">
        <ele>172.2</ele>
        <time>2022-05-15T08:22:03Z</time>
      </trkpt>
      <trkpt lat="44.93783" lon="0.83692">
        <ele>171.1</ele>
        <time>2022-05-15T08:22:04Z</time>
      </trkpt>
      <trkpt lat="44.93776" lon="0.83702">
        <ele>170</ele>
        <time>2022-05-15T08:22:05Z</time>
      </trkpt>
      <trkpt lat="44.93765" lon="0.8372">
        <ele>168.1</ele>
        <time>2022-05-15T08:22:07Z</time>
      </trkpt>
      <trkpt lat="44.93759" lon="0.83729">
        <ele>167.1</ele>
        <time>2022-05-15T08:22:08Z</time>
      </trkpt>
      <trkpt lat="44.93754" lon="0.83738">
        <ele>166</ele>
        <time>2022-05-15T08:22:09Z</time>
      </trkpt>
      <trkpt lat="44.93746" lon="0.83759">
        <ele>163.5</ele>
        <time>2022-05-15T08:22:11Z</time>
      </trkpt>
      <trkpt lat="44.93739" lon="0.8378">
        <ele>161.3</ele>
        <time>2022-05-15T08:22:13Z</time>
      </trkpt>
      <trkpt lat="44.93731" lon="0.83798">
        <ele>159.1</ele>
        <time>2022-05-15T08:22:15Z</time>
      </trkpt>
      <trkpt lat="44.93727" lon="0.83807">
        <ele>158.1</ele>
        <time>2022-05-15T08:22:16Z</time>
      </trkpt>
      <trkpt lat="44.93723" lon="0.83815">
        <ele>157.1</ele>
        <time>2022-05-15T08:22:17Z</time>
      </trkpt>
      <trkpt lat="44.93715" lon="0.83832">
        <ele>155.3</ele>
        <time>2022-05-15T08:22:19Z</time>
      </trkpt>
      <trkpt lat="44.93708" lon="0.83855">
        <ele>153.3</ele>
        <time>2022-05-15T08:22:21Z</time>
      </trkpt>
      <trkpt lat="44.93707" lon="0.83874">
        <ele>152.3</ele>
        <time>2022-05-15T08:22:23Z</time>
      </trkpt>
      <trkpt lat="44.937" lon="0.83891">
        <ele>151.5</ele>
        <time>2022-05-15T08:22:25Z</time>
      </trkpt>
      <trkpt lat="44.93694" lon="0.839">
        <ele>151.2</ele>
        <time>2022-05-15T08:22:26Z</time>
      </trkpt>
      <trkpt lat="44.93688" lon="0.83906">
        <ele>151</ele>
        <time>2022-05-15T08:22:27Z</time>
      </trkpt>
      <trkpt lat="44.93678" lon="0.83918">
        <ele>150.7</ele>
        <time>2022-05-15T08:22:29Z</time>
      </trkpt>
      <trkpt lat="44.93667" lon="0.83927">
        <ele>150.6</ele>
        <time>2022-05-15T08:22:31Z</time>
      </trkpt>
      <trkpt lat="44.93658" lon="0.83936">
        <ele>150.6</ele>
        <time>2022-05-15T08:22:33Z</time>
      </trkpt>
      <trkpt lat="44.93653" lon="0.83941">
        <ele>150.6</ele>
        <time>2022-05-15T08:22:34Z</time>
      </trkpt>
      <trkpt lat="44.93648" lon="0.83945">
        <ele>150.6</ele>
        <time>2022-05-15T08:22:35Z</time>
      </trkpt>
      <trkpt lat="44.9364" lon="0.83952">
        <ele>150.5</ele>
        <time>2022-05-15T08:22:37Z</time>
      </trkpt>
      <trkpt lat="44.93635" lon="0.83957">
        <ele>150.3</ele>
        <time>2022-05-15T08:22:38Z</time>
      </trkpt>
      <trkpt lat="44.93631" lon="0.83961">
        <ele>150.2</ele>
        <time>2022-05-15T08:22:39Z</time>
      </trkpt>
      <trkpt lat="44.93622" lon="0.83969">
        <ele>150</ele>
        <time>2022-05-15T08:22:41Z</time>
      </trkpt>
      <trkpt lat="44.93617" lon="0.83973">
        <ele>150</ele>
        <time>2022-05-15T08:22:42Z</time>
      </trkpt>
      <trkpt lat="44.93613" lon="0.83975">
        <ele>150</ele>
        <time>2022-05-15T08:22:43Z</time>
      </trkpt>
      <trkpt lat="44.93606" lon="0.83981">
        <ele>150</ele>
        <time>2022-05-15T08:22:45Z</time>
      </trkpt>
      <trkpt lat="44.93598" lon="0.83987">
        <ele>150</ele>
        <time>2022-05-15T08:22:47Z</time>
      </trkpt>
      <trkpt lat="44.93589" lon="0.83998">
        <ele>150.3</ele>
        <time>2022-05-15T08:22:49Z</time>
      </trkpt>
      <trkpt lat="44.93583" lon="0.8401">
        <ele>150.8</ele>
        <time>2022-05-15T08:22:51Z</time>
      </trkpt>
      <trkpt lat="44.9358" lon="0.84015">
        <ele>151.1</ele>
        <time>2022-05-15T08:22:52Z</time>
      </trkpt>
      <trkpt lat="44.93579" lon="0.84019">
        <ele>151.2</ele>
        <time>2022-05-15T08:22:53Z</time>
      </trkpt>
      <trkpt lat="44.93574" lon="0.84029">
        <ele>151.7</ele>
        <time>2022-05-15T08:22:55Z</time>
      </trkpt>
      <trkpt lat="44.93571" lon="0.84034">
        <ele>152</ele>
        <time>2022-05-15T08:22:56Z</time>
      </trkpt>
      <trkpt lat="44.93569" lon="0.84039">
        <ele>152.2</ele>
        <time>2022-05-15T08:22:57Z</time>
      </trkpt>
      <trkpt lat="44.93565" lon="0.84048">
        <ele>152.4</ele>
        <time>2022-05-15T08:22:59Z</time>
      </trkpt>
      <trkpt lat="44.93561" lon="0.84059">
        <ele>152.4</ele>
        <time>2022-05-15T08:23:01Z</time>
      </trkpt>
      <trkpt lat="44.93557" lon="0.84071">
        <ele>152.4</ele>
        <time>2022-05-15T08:23:03Z</time>
      </trkpt>
      <trkpt lat="44.93554" lon="0.84082">
        <ele>152.4</ele>
        <time>2022-05-15T08:23:05Z</time>
      </trkpt>
      <trkpt lat="44.93552" lon="0.84088">
        <ele>152.5</ele>
        <time>2022-05-15T08:23:06Z</time>
      </trkpt>
      <trkpt lat="44.9355" lon="0.84094">
        <ele>152.5</ele>
        <time>2022-05-15T08:23:07Z</time>
      </trkpt>
      <trkpt lat="44.93546" lon="0.84105">
        <ele>152.7</ele>
        <time>2022-05-15T08:23:09Z</time>
      </trkpt>
      <trkpt lat="44.93543" lon="0.84115">
        <ele>152.9</ele>
        <time>2022-05-15T08:23:11Z</time>
      </trkpt>
      <trkpt lat="44.93542" lon="0.84125">
        <ele>153.1</ele>
        <time>2022-05-15T08:23:13Z</time>
      </trkpt>
      <trkpt lat="44.9354" lon="0.84136">
        <ele>153.2</ele>
        <time>2022-05-15T08:23:15Z</time>
      </trkpt>
      <trkpt lat="44.93539" lon="0.8414">
        <ele>153.3</ele>
        <time>2022-05-15T08:23:16Z</time>
      </trkpt>
      <trkpt lat="44.93538" lon="0.84145">
        <ele>153.3</ele>
        <time>2022-05-15T08:23:17Z</time>
      </trkpt>
      <trkpt lat="44.93536" lon="0.84157">
        <ele>153.3</ele>
        <time>2022-05-15T08:23:19Z</time>
      </trkpt>
      <trkpt lat="44.93534" lon="0.84169">
        <ele>153.3</ele>
        <time>2022-05-15T08:23:21Z</time>
      </trkpt>
      <trkpt lat="44.93532" lon="0.84179">
        <ele>153.3</ele>
        <time>2022-05-15T08:23:23Z</time>
      </trkpt>
      <trkpt lat="44.93531" lon="0.8419">
        <ele>153.3</ele>
        <time>2022-05-15T08:23:25Z</time>
      </trkpt>
      <trkpt lat="44.9353" lon="0.84195">
        <ele>153.3</ele>
        <time>2022-05-15T08:23:26Z</time>
      </trkpt>
      <trkpt lat="44.93529" lon="0.84199">
        <ele>153.4</ele>
        <time>2022-05-15T08:23:27Z</time>
      </trkpt>
      <trkpt lat="44.93526" lon="0.8421">
        <ele>153.4</ele>
        <time>2022-05-15T08:23:29Z</time>
      </trkpt>
      <trkpt lat="44.93523" lon="0.84222">
        <ele>153.5</ele>
        <time>2022-05-15T08:23:31Z</time>
      </trkpt>
      <trkpt lat="44.93521" lon="0.84236">
        <ele>153.7</ele>
        <time>2022-05-15T08:23:33Z</time>
      </trkpt>
      <trkpt lat="44.9352" lon="0.84248">
        <ele>153.9</ele>
        <time>2022-05-15T08:23:35Z</time>
      </trkpt>
      <trkpt lat="44.9352" lon="0.84254">
        <ele>154</ele>
        <time>2022-05-15T08:23:36Z</time>
      </trkpt>
      <trkpt lat="44.93519" lon="0.8426">
        <ele>154</ele>
        <time>2022-05-15T08:23:37Z</time>
      </trkpt>
      <trkpt lat="44.93519" lon="0.84272">
        <ele>154.2</ele>
        <time>2022-05-15T08:23:39Z</time>
      </trkpt>
      <trkpt lat="44.93517" lon="0.84285">
        <ele>154.3</ele>
        <time>2022-05-15T08:23:41Z</time>
      </trkpt>
      <trkpt lat="44.93516" lon="0.8429">
        <ele>154.4</ele>
        <time>2022-05-15T08:23:42Z</time>
      </trkpt>
      <trkpt lat="44.93515" lon="0.84296">
        <ele>154.4</ele>
        <time>2022-05-15T08:23:43Z</time>
      </trkpt>
      <trkpt lat="44.93512" lon="0.84306">
        <ele>154.4</ele>
        <time>2022-05-15T08:23:45Z</time>
      </trkpt>
      <trkpt lat="44.9351" lon="0.84317">
        <ele>154.3</ele>
        <time>2022-05-15T08:23:47Z</time>
      </trkpt>
      <trkpt lat="44.93507" lon="0.84328">
        <ele>154.1</ele>
        <time>2022-05-15T08:23:49Z</time>
      </trkpt>
      <trkpt lat="44.93505" lon="0.8434">
        <ele>154</ele>
        <time>2022-05-15T08:23:51Z</time>
      </trkpt>
      <trkpt lat="44.93503" lon="0.84353">
        <ele>153.8</ele>
        <time>2022-05-15T08:23:53Z</time>
      </trkpt>
      <trkpt lat="44.93502" lon="0.84367">
        <ele>153.6</ele>
        <time>2022-05-15T08:23:55Z</time>
      </trkpt>
      <trkpt lat="44.93501" lon="0.84373">
        <ele>153.6</ele>
        <time>2022-05-15T08:23:56Z</time>
      </trkpt>
      <trkpt lat="44.93501" lon="0.8438">
        <ele>153.7</ele>
        <time>2022-05-15T08:23:57Z</time>
      </trkpt>
      <trkpt lat="44.93497" lon="0.84393">
        <ele>154.2</ele>
        <time>2022-05-15T08:23:59Z</time>
      </trkpt>
      <trkpt lat="44.93493" lon="0.84405">
        <ele>154.8</ele>
        <time>2022-05-15T08:24:01Z</time>
      </trkpt>
      <trkpt lat="44.93491" lon="0.84413">
        <ele>155.4</ele>
        <time>2022-05-15T08:24:03Z</time>
      </trkpt>
      <trkpt lat="44.93489" lon="0.84419">
        <ele>155.8</ele>
        <time>2022-05-15T08:24:05Z</time>
      </trkpt>
      <trkpt lat="44.93485" lon="0.84426">
        <ele>156.3</ele>
        <time>2022-05-15T08:24:07Z</time>
      </trkpt>
      <trkpt lat="44.93483" lon="0.84429">
        <ele>156.5</ele>
        <time>2022-05-15T08:24:08Z</time>
      </trkpt>
      <trkpt lat="44.93481" lon="0.84432">
        <ele>156.7</ele>
        <time>2022-05-15T08:24:09Z</time>
      </trkpt>
      <trkpt lat="44.93478" lon="0.84438">
        <ele>157.1</ele>
        <time>2022-05-15T08:24:11Z</time>
      </trkpt>
      <trkpt lat="44.93476" lon="0.84444">
        <ele>157.4</ele>
        <time>2022-05-15T08:24:13Z</time>
      </trkpt>
      <trkpt lat="44.93475" lon="0.84447">
        <ele>157.5</ele>
        <time>2022-05-15T08:24:14Z</time>
      </trkpt>
      <trkpt lat="44.93474" lon="0.84449">
        <ele>157.6</ele>
        <time>2022-05-15T08:24:15Z</time>
      </trkpt>
      <trkpt lat="44.93471" lon="0.84455">
        <ele>157.9</ele>
        <time>2022-05-15T08:24:17Z</time>
      </trkpt>
      <trkpt lat="44.9347" lon="0.8446">
        <ele>158</ele>
        <time>2022-05-15T08:24:19Z</time>
      </trkpt>
      <trkpt lat="44.93467" lon="0.84467">
        <ele>158.2</ele>
        <time>2022-05-15T08:24:21Z</time>
      </trkpt>
      <trkpt lat="44.93464" lon="0.84473">
        <ele>158.4</ele>
        <time>2022-05-15T08:24:23Z</time>
      </trkpt>
      <trkpt lat="44.93462" lon="0.84479">
        <ele>158.5</ele>
        <time>2022-05-15T08:24:25Z</time>
      </trkpt>
      <trkpt lat="44.93461" lon="0.84484">
        <ele>158.5</ele>
        <time>2022-05-15T08:24:27Z</time>
      </trkpt>
      <trkpt lat="44.93459" lon="0.84494">
        <ele>158.6</ele>
        <time>2022-05-15T08:24:29Z</time>
      </trkpt>
      <trkpt lat="44.93459" lon="0.84497">
        <ele>158.6</ele>
        <time>2022-05-15T08:24:30Z</time>
      </trkpt>
      <trkpt lat="44.93458" lon="0.84505">
        <ele>158.6</ele>
        <time>2022-05-15T08:24:31Z</time>
      </trkpt>
      <trkpt lat="44.93462" lon="0.84507">
        <ele>158.9</ele>
        <time>2022-05-15T08:24:33Z</time>
      </trkpt>
      <trkpt lat="44.93463" lon="0.84509">
        <ele>159.1</ele>
        <time>2022-05-15T08:24:34Z</time>
      </trkpt>
      <trkpt lat="44.93465" lon="0.8451">
        <ele>159.2</ele>
        <time>2022-05-15T08:24:35Z</time>
      </trkpt>
      <trkpt lat="44.93468" lon="0.84512">
        <ele>159.6</ele>
        <time>2022-05-15T08:24:37Z</time>
      </trkpt>
      <trkpt lat="44.93472" lon="0.84514">
        <ele>159.9</ele>
        <time>2022-05-15T08:24:39Z</time>
      </trkpt>
      <trkpt lat="44.93474" lon="0.84516">
        <ele>160.2</ele>
        <time>2022-05-15T08:24:41Z</time>
      </trkpt>
      <trkpt lat="44.93477" lon="0.84518">
        <ele>160.4</ele>
        <time>2022-05-15T08:24:43Z</time>
      </trkpt>
      <trkpt lat="44.9348" lon="0.8452">
        <ele>160.8</ele>
        <time>2022-05-15T08:24:45Z</time>
      </trkpt>
      <trkpt lat="44.93482" lon="0.84521">
        <ele>160.9</ele>
        <time>2022-05-15T08:24:46Z</time>
      </trkpt>
      <trkpt lat="44.93484" lon="0.84522">
        <ele>161.1</ele>
        <time>2022-05-15T08:24:47Z</time>
      </trkpt>
      <trkpt lat="44.93487" lon="0.84525">
        <ele>161.5</ele>
        <time>2022-05-15T08:24:49Z</time>
      </trkpt>
      <trkpt lat="44.9349" lon="0.84527">
        <ele>161.9</ele>
        <time>2022-05-15T08:24:51Z</time>
      </trkpt>
      <trkpt lat="44.93493" lon="0.84529">
        <ele>162.3</ele>
        <time>2022-05-15T08:24:53Z</time>
      </trkpt>
      <trkpt lat="44.93496" lon="0.84531">
        <ele>162.7</ele>
        <time>2022-05-15T08:24:55Z</time>
      </trkpt>
      <trkpt lat="44.935" lon="0.84533">
        <ele>163.1</ele>
        <time>2022-05-15T08:24:57Z</time>
      </trkpt>
      <trkpt lat="44.93503" lon="0.84535">
        <ele>163.4</ele>
        <time>2022-05-15T08:24:59Z</time>
      </trkpt>
      <trkpt lat="44.93506" lon="0.84538">
        <ele>163.9</ele>
        <time>2022-05-15T08:25:01Z</time>
      </trkpt>
      <trkpt lat="44.93508" lon="0.84539">
        <ele>164.1</ele>
        <time>2022-05-15T08:25:02Z</time>
      </trkpt>
      <trkpt lat="44.9351" lon="0.8454">
        <ele>164.2</ele>
        <time>2022-05-15T08:25:03Z</time>
      </trkpt>
      <trkpt lat="44.93512" lon="0.84542">
        <ele>164.6</ele>
        <time>2022-05-15T08:25:05Z</time>
      </trkpt>
      <trkpt lat="44.93516" lon="0.84544">
        <ele>165</ele>
        <time>2022-05-15T08:25:07Z</time>
      </trkpt>
      <trkpt lat="44.93517" lon="0.84545">
        <ele>165.2</ele>
        <time>2022-05-15T08:25:08Z</time>
      </trkpt>
      <trkpt lat="44.93519" lon="0.84546">
        <ele>165.4</ele>
        <time>2022-05-15T08:25:09Z</time>
      </trkpt>
      <trkpt lat="44.93522" lon="0.84548">
        <ele>165.8</ele>
        <time>2022-05-15T08:25:11Z</time>
      </trkpt>
      <trkpt lat="44.93525" lon="0.8455">
        <ele>166.2</ele>
        <time>2022-05-15T08:25:13Z</time>
      </trkpt>
      <trkpt lat="44.93529" lon="0.84553">
        <ele>166.6</ele>
        <time>2022-05-15T08:25:15Z</time>
      </trkpt>
      <trkpt lat="44.93532" lon="0.84555">
        <ele>167</ele>
        <time>2022-05-15T08:25:17Z</time>
      </trkpt>
      <trkpt lat="44.93535" lon="0.84556">
        <ele>167.3</ele>
        <time>2022-05-15T08:25:19Z</time>
      </trkpt>
      <trkpt lat="44.93538" lon="0.84558">
        <ele>167.8</ele>
        <time>2022-05-15T08:25:21Z</time>
      </trkpt>
      <trkpt lat="44.93541" lon="0.8456">
        <ele>168.1</ele>
        <time>2022-05-15T08:25:23Z</time>
      </trkpt>
      <trkpt lat="44.93544" lon="0.84562">
        <ele>168.5</ele>
        <time>2022-05-15T08:25:25Z</time>
      </trkpt>
      <trkpt lat="44.93547" lon="0.84564">
        <ele>168.9</ele>
        <time>2022-05-15T08:25:27Z</time>
      </trkpt>
      <trkpt lat="44.93549" lon="0.84565">
        <ele>169.1</ele>
        <time>2022-05-15T08:25:28Z</time>
      </trkpt>
      <trkpt lat="44.9355" lon="0.84566">
        <ele>169.3</ele>
        <time>2022-05-15T08:25:29Z</time>
      </trkpt>
      <trkpt lat="44.93553" lon="0.84568">
        <ele>169.7</ele>
        <time>2022-05-15T08:25:31Z</time>
      </trkpt>
      <trkpt lat="44.93557" lon="0.84571">
        <ele>170.2</ele>
        <time>2022-05-15T08:25:33Z</time>
      </trkpt>
      <trkpt lat="44.9356" lon="0.84573">
        <ele>170.7</ele>
        <time>2022-05-15T08:25:35Z</time>
      </trkpt>
      <trkpt lat="44.93563" lon="0.84575">
        <ele>171</ele>
        <time>2022-05-15T08:25:37Z</time>
      </trkpt>
      <trkpt lat="44.93566" lon="0.84577">
        <ele>171.4</ele>
        <time>2022-05-15T08:25:39Z</time>
      </trkpt>
      <trkpt lat="44.93569" lon="0.8458">
        <ele>171.9</ele>
        <time>2022-05-15T08:25:41Z</time>
      </trkpt>
      <trkpt lat="44.93572" lon="0.84582">
        <ele>172.3</ele>
        <time>2022-05-15T08:25:43Z</time>
      </trkpt>
      <trkpt lat="44.93575" lon="0.84584">
        <ele>172.8</ele>
        <time>2022-05-15T08:25:45Z</time>
      </trkpt>
      <trkpt lat="44.93578" lon="0.84586">
        <ele>173.2</ele>
        <time>2022-05-15T08:25:47Z</time>
      </trkpt>
      <trkpt lat="44.93581" lon="0.84589">
        <ele>173.7</ele>
        <time>2022-05-15T08:25:49Z</time>
      </trkpt>
      <trkpt lat="44.93584" lon="0.84591">
        <ele>174.2</ele>
        <time>2022-05-15T08:25:51Z</time>
      </trkpt>
      <trkpt lat="44.93587" lon="0.84593">
        <ele>174.7</ele>
        <time>2022-05-15T08:25:53Z</time>
      </trkpt>
      <trkpt lat="44.93589" lon="0.84594">
        <ele>174.9</ele>
        <time>2022-05-15T08:25:54Z</time>
      </trkpt>
      <trkpt lat="44.9359" lon="0.84595">
        <ele>175.2</ele>
        <time>2022-05-15T08:25:55Z</time>
      </trkpt>
      <trkpt lat="44.93593" lon="0.84597">
        <ele>175.7</ele>
        <time>2022-05-15T08:25:57Z</time>
      </trkpt>
      <trkpt lat="44.93595" lon="0.84599">
        <ele>176.1</ele>
        <time>2022-05-15T08:25:59Z</time>
      </trkpt>
      <trkpt lat="44.93597" lon="0.846">
        <ele>176.4</ele>
        <time>2022-05-15T08:26:00Z</time>
      </trkpt>
      <trkpt lat="44.93598" lon="0.84601">
        <ele>176.6</ele>
        <time>2022-05-15T08:26:01Z</time>
      </trkpt>
      <trkpt lat="44.93601" lon="0.84603">
        <ele>177.1</ele>
        <time>2022-05-15T08:26:03Z</time>
      </trkpt>
      <trkpt lat="44.93603" lon="0.84605">
        <ele>177.5</ele>
        <time>2022-05-15T08:26:05Z</time>
      </trkpt>
      <trkpt lat="44.93606" lon="0.84607">
        <ele>177.9</ele>
        <time>2022-05-15T08:26:07Z</time>
      </trkpt>
      <trkpt lat="44.93607" lon="0.84608">
        <ele>178.2</ele>
        <time>2022-05-15T08:26:08Z</time>
      </trkpt>
      <trkpt lat="44.93608" lon="0.84609">
        <ele>178.4</ele>
        <time>2022-05-15T08:26:09Z</time>
      </trkpt>
      <trkpt lat="44.93611" lon="0.84611">
        <ele>178.9</ele>
        <time>2022-05-15T08:26:11Z</time>
      </trkpt>
      <trkpt lat="44.93614" lon="0.84614">
        <ele>179.4</ele>
        <time>2022-05-15T08:26:13Z</time>
      </trkpt>
      <trkpt lat="44.93616" lon="0.84616">
        <ele>179.8</ele>
        <time>2022-05-15T08:26:15Z</time>
      </trkpt>
      <trkpt lat="44.93619" lon="0.84619">
        <ele>180.3</ele>
        <time>2022-05-15T08:26:17Z</time>
      </trkpt>
      <trkpt lat="44.93622" lon="0.84621">
        <ele>180.8</ele>
        <time>2022-05-15T08:26:19Z</time>
      </trkpt>
      <trkpt lat="44.93623" lon="0.84622">
        <ele>180.9</ele>
        <time>2022-05-15T08:26:20Z</time>
      </trkpt>
      <trkpt lat="44.93624" lon="0.84623">
        <ele>181.1</ele>
        <time>2022-05-15T08:26:21Z</time>
      </trkpt>
      <trkpt lat="44.93627" lon="0.84625">
        <ele>181.6</ele>
        <time>2022-05-15T08:26:23Z</time>
      </trkpt>
      <trkpt lat="44.93628" lon="0.84626">
        <ele>181.7</ele>
        <time>2022-05-15T08:26:25Z</time>
      </trkpt>
      <trkpt lat="44.9363" lon="0.84628">
        <ele>182</ele>
        <time>2022-05-15T08:26:26Z</time>
      </trkpt>
      <trkpt lat="44.93631" lon="0.84629">
        <ele>182.2</ele>
        <time>2022-05-15T08:26:27Z</time>
      </trkpt>
      <trkpt lat="44.93633" lon="0.84631">
        <ele>182.6</ele>
        <time>2022-05-15T08:26:29Z</time>
      </trkpt>
      <trkpt lat="44.93636" lon="0.84633">
        <ele>183</ele>
        <time>2022-05-15T08:26:31Z</time>
      </trkpt>
      <trkpt lat="44.93637" lon="0.84634">
        <ele>183.1</ele>
        <time>2022-05-15T08:26:32Z</time>
      </trkpt>
      <trkpt lat="44.93639" lon="0.84635">
        <ele>183.3</ele>
        <time>2022-05-15T08:26:33Z</time>
      </trkpt>
      <trkpt lat="44.93641" lon="0.84637">
        <ele>183.7</ele>
        <time>2022-05-15T08:26:35Z</time>
      </trkpt>
      <trkpt lat="44.93643" lon="0.84639">
        <ele>184.1</ele>
        <time>2022-05-15T08:26:37Z</time>
      </trkpt>
      <trkpt lat="44.93645" lon="0.84642">
        <ele>184.5</ele>
        <time>2022-05-15T08:26:39Z</time>
      </trkpt>
      <trkpt lat="44.93647" lon="0.84644">
        <ele>184.9</ele>
        <time>2022-05-15T08:26:41Z</time>
      </trkpt>
      <trkpt lat="44.93649" lon="0.84647">
        <ele>185.3</ele>
        <time>2022-05-15T08:26:43Z</time>
      </trkpt>
      <trkpt lat="44.93651" lon="0.84651">
        <ele>185.7</ele>
        <time>2022-05-15T08:26:45Z</time>
      </trkpt>
      <trkpt lat="44.93653" lon="0.84654">
        <ele>186.1</ele>
        <time>2022-05-15T08:26:47Z</time>
      </trkpt>
      <trkpt lat="44.93655" lon="0.84657">
        <ele>186.5</ele>
        <time>2022-05-15T08:26:49Z</time>
      </trkpt>
      <trkpt lat="44.93655" lon="0.84658">
        <ele>186.7</ele>
        <time>2022-05-15T08:26:50Z</time>
      </trkpt>
      <trkpt lat="44.93656" lon="0.8466">
        <ele>186.9</ele>
        <time>2022-05-15T08:26:51Z</time>
      </trkpt>
      <trkpt lat="44.93658" lon="0.84663">
        <ele>187.3</ele>
        <time>2022-05-15T08:26:53Z</time>
      </trkpt>
      <trkpt lat="44.9366" lon="0.84666">
        <ele>187.7</ele>
        <time>2022-05-15T08:26:55Z</time>
      </trkpt>
      <trkpt lat="44.93662" lon="0.8467">
        <ele>188.2</ele>
        <time>2022-05-15T08:26:57Z</time>
      </trkpt>
      <trkpt lat="44.93664" lon="0.84672">
        <ele>188.5</ele>
        <time>2022-05-15T08:26:59Z</time>
      </trkpt>
      <trkpt lat="44.93666" lon="0.84676">
        <ele>189</ele>
        <time>2022-05-15T08:27:01Z</time>
      </trkpt>
      <trkpt lat="44.93668" lon="0.84678">
        <ele>189.3</ele>
        <time>2022-05-15T08:27:03Z</time>
      </trkpt>
      <trkpt lat="44.9367" lon="0.84682">
        <ele>189.8</ele>
        <time>2022-05-15T08:27:05Z</time>
      </trkpt>
      <trkpt lat="44.93671" lon="0.84685">
        <ele>190.2</ele>
        <time>2022-05-15T08:27:07Z</time>
      </trkpt>
      <trkpt lat="44.93673" lon="0.84688">
        <ele>190.6</ele>
        <time>2022-05-15T08:27:09Z</time>
      </trkpt>
      <trkpt lat="44.93675" lon="0.84691">
        <ele>191</ele>
        <time>2022-05-15T08:27:11Z</time>
      </trkpt>
      <trkpt lat="44.93676" lon="0.84693">
        <ele>191.3</ele>
        <time>2022-05-15T08:27:12Z</time>
      </trkpt>
      <trkpt lat="44.93677" lon="0.84694">
        <ele>191.4</ele>
        <time>2022-05-15T08:27:13Z</time>
      </trkpt>
      <trkpt lat="44.93679" lon="0.84698">
        <ele>191.9</ele>
        <time>2022-05-15T08:27:15Z</time>
      </trkpt>
      <trkpt lat="44.93681" lon="0.84701">
        <ele>192.4</ele>
        <time>2022-05-15T08:27:17Z</time>
      </trkpt>
      <trkpt lat="44.93682" lon="0.84702">
        <ele>192.6</ele>
        <time>2022-05-15T08:27:18Z</time>
      </trkpt>
      <trkpt lat="44.93683" lon="0.84704">
        <ele>192.8</ele>
        <time>2022-05-15T08:27:19Z</time>
      </trkpt>
      <trkpt lat="44.93684" lon="0.84705">
        <ele>193</ele>
        <time>2022-05-15T08:27:20Z</time>
      </trkpt>
      <trkpt lat="44.93685" lon="0.84707">
        <ele>193.2</ele>
        <time>2022-05-15T08:27:21Z</time>
      </trkpt>
      <trkpt lat="44.93687" lon="0.8471">
        <ele>193.6</ele>
        <time>2022-05-15T08:27:23Z</time>
      </trkpt>
      <trkpt lat="44.93689" lon="0.84713">
        <ele>194.1</ele>
        <time>2022-05-15T08:27:25Z</time>
      </trkpt>
      <trkpt lat="44.93691" lon="0.84717">
        <ele>194.7</ele>
        <time>2022-05-15T08:27:27Z</time>
      </trkpt>
      <trkpt lat="44.93693" lon="0.8472">
        <ele>195.1</ele>
        <time>2022-05-15T08:27:29Z</time>
      </trkpt>
      <trkpt lat="44.93695" lon="0.84723">
        <ele>195.5</ele>
        <time>2022-05-15T08:27:31Z</time>
      </trkpt>
      <trkpt lat="44.93697" lon="0.84726">
        <ele>196</ele>
        <time>2022-05-15T08:27:33Z</time>
      </trkpt>
      <trkpt lat="44.93699" lon="0.84729">
        <ele>196.4</ele>
        <time>2022-05-15T08:27:35Z</time>
      </trkpt>
      <trkpt lat="44.937" lon="0.84732">
        <ele>196.8</ele>
        <time>2022-05-15T08:27:37Z</time>
      </trkpt>
      <trkpt lat="44.93702" lon="0.84735">
        <ele>197.2</ele>
        <time>2022-05-15T08:27:39Z</time>
      </trkpt>
      <trkpt lat="44.93704" lon="0.84738">
        <ele>197.6</ele>
        <time>2022-05-15T08:27:41Z</time>
      </trkpt>
      <trkpt lat="44.93706" lon="0.84741">
        <ele>198.1</ele>
        <time>2022-05-15T08:27:43Z</time>
      </trkpt>
      <trkpt lat="44.93708" lon="0.84744">
        <ele>198.6</ele>
        <time>2022-05-15T08:27:45Z</time>
      </trkpt>
      <trkpt lat="44.9371" lon="0.84747">
        <ele>199</ele>
        <time>2022-05-15T08:27:47Z</time>
      </trkpt>
      <trkpt lat="44.93711" lon="0.84749">
        <ele>199.3</ele>
        <time>2022-05-15T08:27:48Z</time>
      </trkpt>
      <trkpt lat="44.93712" lon="0.84751">
        <ele>199.5</ele>
        <time>2022-05-15T08:27:49Z</time>
      </trkpt>
      <trkpt lat="44.93714" lon="0.84754">
        <ele>199.9</ele>
        <time>2022-05-15T08:27:51Z</time>
      </trkpt>
      <trkpt lat="44.93716" lon="0.84757">
        <ele>200.4</ele>
        <time>2022-05-15T08:27:53Z</time>
      </trkpt>
      <trkpt lat="44.93718" lon="0.84761">
        <ele>200.8</ele>
        <time>2022-05-15T08:27:55Z</time>
      </trkpt>
      <trkpt lat="44.93721" lon="0.84762">
        <ele>201.1</ele>
        <time>2022-05-15T08:27:57Z</time>
      </trkpt>
      <trkpt lat="44.93723" lon="0.84763">
        <ele>201.3</ele>
        <time>2022-05-15T08:27:58Z</time>
      </trkpt>
      <trkpt lat="44.93724" lon="0.84763">
        <ele>201.5</ele>
        <time>2022-05-15T08:27:59Z</time>
      </trkpt>
      <trkpt lat="44.93726" lon="0.84764">
        <ele>201.7</ele>
        <time>2022-05-15T08:28:01Z</time>
      </trkpt>
      <trkpt lat="44.93729" lon="0.84764">
        <ele>202.1</ele>
        <time>2022-05-15T08:28:03Z</time>
      </trkpt>
      <trkpt lat="44.93731" lon="0.84764">
        <ele>202.2</ele>
        <time>2022-05-15T08:28:04Z</time>
      </trkpt>
      <trkpt lat="44.93732" lon="0.84764">
        <ele>202.3</ele>
        <time>2022-05-15T08:28:05Z</time>
      </trkpt>
      <trkpt lat="44.93733" lon="0.84764">
        <ele>202.5</ele>
        <time>2022-05-15T08:28:06Z</time>
      </trkpt>
      <trkpt lat="44.93734" lon="0.84764">
        <ele>202.7</ele>
        <time>2022-05-15T08:28:07Z</time>
      </trkpt>
      <trkpt lat="44.93738" lon="0.84764">
        <ele>203</ele>
        <time>2022-05-15T08:28:09Z</time>
      </trkpt>
      <trkpt lat="44.93741" lon="0.84764">
        <ele>203.4</ele>
        <time>2022-05-15T08:28:11Z</time>
      </trkpt>
      <trkpt lat="44.93743" lon="0.84764">
        <ele>203.5</ele>
        <time>2022-05-15T08:28:12Z</time>
      </trkpt>
      <trkpt lat="44.93744" lon="0.84764">
        <ele>203.7</ele>
        <time>2022-05-15T08:28:13Z</time>
      </trkpt>
      <trkpt lat="44.93747" lon="0.84764">
        <ele>204</ele>
        <time>2022-05-15T08:28:15Z</time>
      </trkpt>
      <trkpt lat="44.9375" lon="0.84765">
        <ele>204.4</ele>
        <time>2022-05-15T08:28:17Z</time>
      </trkpt>
      <trkpt lat="44.93754" lon="0.84768">
        <ele>204.8</ele>
        <time>2022-05-15T08:28:19Z</time>
      </trkpt>
      <trkpt lat="44.93757" lon="0.8477">
        <ele>205.1</ele>
        <time>2022-05-15T08:28:21Z</time>
      </trkpt>
      <trkpt lat="44.93758" lon="0.84771">
        <ele>205.3</ele>
        <time>2022-05-15T08:28:22Z</time>
      </trkpt>
      <trkpt lat="44.93759" lon="0.84772">
        <ele>205.4</ele>
        <time>2022-05-15T08:28:23Z</time>
      </trkpt>
      <trkpt lat="44.93762" lon="0.84775">
        <ele>205.7</ele>
        <time>2022-05-15T08:28:25Z</time>
      </trkpt>
      <trkpt lat="44.93764" lon="0.84778">
        <ele>206.1</ele>
        <time>2022-05-15T08:28:27Z</time>
      </trkpt>
      <trkpt lat="44.93767" lon="0.84781">
        <ele>206.4</ele>
        <time>2022-05-15T08:28:29Z</time>
      </trkpt>
      <trkpt lat="44.93769" lon="0.84784">
        <ele>206.7</ele>
        <time>2022-05-15T08:28:31Z</time>
      </trkpt>
      <trkpt lat="44.9377" lon="0.84785">
        <ele>206.8</ele>
        <time>2022-05-15T08:28:32Z</time>
      </trkpt>
      <trkpt lat="44.93772" lon="0.84787">
        <ele>206.9</ele>
        <time>2022-05-15T08:28:33Z</time>
      </trkpt>
      <trkpt lat="44.93774" lon="0.8479">
        <ele>207.2</ele>
        <time>2022-05-15T08:28:35Z</time>
      </trkpt>
      <trkpt lat="44.93776" lon="0.84793">
        <ele>207.4</ele>
        <time>2022-05-15T08:28:37Z</time>
      </trkpt>
      <trkpt lat="44.93779" lon="0.84795">
        <ele>207.6</ele>
        <time>2022-05-15T08:28:39Z</time>
      </trkpt>
      <trkpt lat="44.93783" lon="0.84796">
        <ele>207.8</ele>
        <time>2022-05-15T08:28:41Z</time>
      </trkpt>
      <trkpt lat="44.93786" lon="0.84794">
        <ele>208</ele>
        <time>2022-05-15T08:28:43Z</time>
      </trkpt>
      <trkpt lat="44.9379" lon="0.84792">
        <ele>208.2</ele>
        <time>2022-05-15T08:28:45Z</time>
      </trkpt>
      <trkpt lat="44.93792" lon="0.84791">
        <ele>208.2</ele>
        <time>2022-05-15T08:28:46Z</time>
      </trkpt>
      <trkpt lat="44.93794" lon="0.8479">
        <ele>208.3</ele>
        <time>2022-05-15T08:28:47Z</time>
      </trkpt>
      <trkpt lat="44.93798" lon="0.84788">
        <ele>208.4</ele>
        <time>2022-05-15T08:28:49Z</time>
      </trkpt>
      <trkpt lat="44.93801" lon="0.84787">
        <ele>208.5</ele>
        <time>2022-05-15T08:28:51Z</time>
      </trkpt>
      <trkpt lat="44.93803" lon="0.84786">
        <ele>208.5</ele>
        <time>2022-05-15T08:28:52Z</time>
      </trkpt>
      <trkpt lat="44.93805" lon="0.84785">
        <ele>208.6</ele>
        <time>2022-05-15T08:28:53Z</time>
      </trkpt>
      <trkpt lat="44.93809" lon="0.84783">
        <ele>208.7</ele>
        <time>2022-05-15T08:28:55Z</time>
      </trkpt>
      <trkpt lat="44.93813" lon="0.84781">
        <ele>208.8</ele>
        <time>2022-05-15T08:28:57Z</time>
      </trkpt>
      <trkpt lat="44.93816" lon="0.84779">
        <ele>209</ele>
        <time>2022-05-15T08:28:59Z</time>
      </trkpt>
      <trkpt lat="44.93818" lon="0.84778">
        <ele>209</ele>
        <time>2022-05-15T08:29:00Z</time>
      </trkpt>
      <trkpt lat="44.9382" lon="0.84777">
        <ele>209.1</ele>
        <time>2022-05-15T08:29:01Z</time>
      </trkpt>
      <trkpt lat="44.93824" lon="0.84775">
        <ele>209.3</ele>
        <time>2022-05-15T08:29:03Z</time>
      </trkpt>
      <trkpt lat="44.93828" lon="0.84773">
        <ele>209.5</ele>
        <time>2022-05-15T08:29:05Z</time>
      </trkpt>
      <trkpt lat="44.9383" lon="0.84773">
        <ele>209.5</ele>
        <time>2022-05-15T08:29:06Z</time>
      </trkpt>
      <trkpt lat="44.93832" lon="0.84772">
        <ele>209.6</ele>
        <time>2022-05-15T08:29:07Z</time>
      </trkpt>
      <trkpt lat="44.93836" lon="0.84772">
        <ele>209.8</ele>
        <time>2022-05-15T08:29:09Z</time>
      </trkpt>
      <trkpt lat="44.9384" lon="0.84771">
        <ele>210.1</ele>
        <time>2022-05-15T08:29:11Z</time>
      </trkpt>
      <trkpt lat="44.93844" lon="0.8477">
        <ele>210.3</ele>
        <time>2022-05-15T08:29:13Z</time>
      </trkpt>
      <trkpt lat="44.93845" lon="0.8477">
        <ele>210.4</ele>
        <time>2022-05-15T08:29:14Z</time>
      </trkpt>
      <trkpt lat="44.93847" lon="0.8477">
        <ele>210.5</ele>
        <time>2022-05-15T08:29:15Z</time>
      </trkpt>
      <trkpt lat="44.93851" lon="0.84769">
        <ele>210.7</ele>
        <time>2022-05-15T08:29:17Z</time>
      </trkpt>
      <trkpt lat="44.93855" lon="0.84769">
        <ele>211</ele>
        <time>2022-05-15T08:29:19Z</time>
      </trkpt>
      <trkpt lat="44.93856" lon="0.84769">
        <ele>211.1</ele>
        <time>2022-05-15T08:29:20Z</time>
      </trkpt>
      <trkpt lat="44.93858" lon="0.84768">
        <ele>211.2</ele>
        <time>2022-05-15T08:29:21Z</time>
      </trkpt>
      <trkpt lat="44.93862" lon="0.84768">
        <ele>211.4</ele>
        <time>2022-05-15T08:29:23Z</time>
      </trkpt>
      <trkpt lat="44.93867" lon="0.84767">
        <ele>211.7</ele>
        <time>2022-05-15T08:29:25Z</time>
      </trkpt>
      <trkpt lat="44.93871" lon="0.84767">
        <ele>212</ele>
        <time>2022-05-15T08:29:27Z</time>
      </trkpt>
      <trkpt lat="44.93876" lon="0.84766">
        <ele>212.3</ele>
        <time>2022-05-15T08:29:29Z</time>
      </trkpt>
      <trkpt lat="44.9388" lon="0.84766">
        <ele>212.5</ele>
        <time>2022-05-15T08:29:31Z</time>
      </trkpt>
      <trkpt lat="44.93882" lon="0.84766">
        <ele>212.7</ele>
        <time>2022-05-15T08:29:32Z</time>
      </trkpt>
      <trkpt lat="44.93884" lon="0.84765">
        <ele>212.8</ele>
        <time>2022-05-15T08:29:33Z</time>
      </trkpt>
      <trkpt lat="44.93888" lon="0.84765">
        <ele>213.1</ele>
        <time>2022-05-15T08:29:35Z</time>
      </trkpt>
      <trkpt lat="44.93892" lon="0.84764">
        <ele>213.5</ele>
        <time>2022-05-15T08:29:37Z</time>
      </trkpt>
      <trkpt lat="44.93895" lon="0.84764">
        <ele>213.7</ele>
        <time>2022-05-15T08:29:39Z</time>
      </trkpt>
      <trkpt lat="44.93898" lon="0.84763">
        <ele>214</ele>
        <time>2022-05-15T08:29:41Z</time>
      </trkpt>
      <trkpt lat="44.93903" lon="0.84762">
        <ele>214.4</ele>
        <time>2022-05-15T08:29:43Z</time>
      </trkpt>
      <trkpt lat="44.93906" lon="0.84761">
        <ele>214.8</ele>
        <time>2022-05-15T08:29:45Z</time>
      </trkpt>
      <trkpt lat="44.93908" lon="0.84761">
        <ele>215</ele>
        <time>2022-05-15T08:29:46Z</time>
      </trkpt>
      <trkpt lat="44.9391" lon="0.84761">
        <ele>215.2</ele>
        <time>2022-05-15T08:29:47Z</time>
      </trkpt>
      <trkpt lat="44.93914" lon="0.8476">
        <ele>215.6</ele>
        <time>2022-05-15T08:29:49Z</time>
      </trkpt>
      <trkpt lat="44.93917" lon="0.84759">
        <ele>215.8</ele>
        <time>2022-05-15T08:29:51Z</time>
      </trkpt>
      <trkpt lat="44.93921" lon="0.84758">
        <ele>216.1</ele>
        <time>2022-05-15T08:29:53Z</time>
      </trkpt>
      <trkpt lat="44.93926" lon="0.84757">
        <ele>216.4</ele>
        <time>2022-05-15T08:29:55Z</time>
      </trkpt>
      <trkpt lat="44.9393" lon="0.84756">
        <ele>216.6</ele>
        <time>2022-05-15T08:29:57Z</time>
      </trkpt>
      <trkpt lat="44.93932" lon="0.84755">
        <ele>216.8</ele>
        <time>2022-05-15T08:29:58Z</time>
      </trkpt>
      <trkpt lat="44.93934" lon="0.84755">
        <ele>216.9</ele>
        <time>2022-05-15T08:29:59Z</time>
      </trkpt>
      <trkpt lat="44.93937" lon="0.84754">
        <ele>217.2</ele>
        <time>2022-05-15T08:30:01Z</time>
      </trkpt>
      <trkpt lat="44.93941" lon="0.84751">
        <ele>217.5</ele>
        <time>2022-05-15T08:30:03Z</time>
      </trkpt>
      <trkpt lat="44.93943" lon="0.8475">
        <ele>217.7</ele>
        <time>2022-05-15T08:30:04Z</time>
      </trkpt>
      <trkpt lat="44.93945" lon="0.84749">
        <ele>217.8</ele>
        <time>2022-05-15T08:30:05Z</time>
      </trkpt>
      <trkpt lat="44.93948" lon="0.84747">
        <ele>218.2</ele>
        <time>2022-05-15T08:30:07Z</time>
      </trkpt>
      <trkpt lat="44.9395" lon="0.84745">
        <ele>218.4</ele>
        <time>2022-05-15T08:30:08Z</time>
      </trkpt>
      <trkpt lat="44.93952" lon="0.84744">
        <ele>218.5</ele>
        <time>2022-05-15T08:30:09Z</time>
      </trkpt>
      <trkpt lat="44.93955" lon="0.84741">
        <ele>218.9</ele>
        <time>2022-05-15T08:30:11Z</time>
      </trkpt>
      <trkpt lat="44.93959" lon="0.84739">
        <ele>219.2</ele>
        <time>2022-05-15T08:30:13Z</time>
      </trkpt>
      <trkpt lat="44.93961" lon="0.84737">
        <ele>219.4</ele>
        <time>2022-05-15T08:30:14Z</time>
      </trkpt>
      <trkpt lat="44.93963" lon="0.84736">
        <ele>219.6</ele>
        <time>2022-05-15T08:30:15Z</time>
      </trkpt>
      <trkpt lat="44.93967" lon="0.84733">
        <ele>219.9</ele>
        <time>2022-05-15T08:30:17Z</time>
      </trkpt>
      <trkpt lat="44.93969" lon="0.84732">
        <ele>220.1</ele>
        <time>2022-05-15T08:30:18Z</time>
      </trkpt>
      <trkpt lat="44.93971" lon="0.84731">
        <ele>220.3</ele>
        <time>2022-05-15T08:30:19Z</time>
      </trkpt>
      <trkpt lat="44.93973" lon="0.8473">
        <ele>220.4</ele>
        <time>2022-05-15T08:30:20Z</time>
      </trkpt>
      <trkpt lat="44.93975" lon="0.84729">
        <ele>220.6</ele>
        <time>2022-05-15T08:30:21Z</time>
      </trkpt>
      <trkpt lat="44.93976" lon="0.84727">
        <ele>220.7</ele>
        <time>2022-05-15T08:30:22Z</time>
      </trkpt>
      <trkpt lat="44.93979" lon="0.84726">
        <ele>220.9</ele>
        <time>2022-05-15T08:30:23Z</time>
      </trkpt>
      <trkpt lat="44.93982" lon="0.84724">
        <ele>221.2</ele>
        <time>2022-05-15T08:30:25Z</time>
      </trkpt>
      <trkpt lat="44.93986" lon="0.84722">
        <ele>221.4</ele>
        <time>2022-05-15T08:30:27Z</time>
      </trkpt>
      <trkpt lat="44.93987" lon="0.84721">
        <ele>221.6</ele>
        <time>2022-05-15T08:30:28Z</time>
      </trkpt>
      <trkpt lat="44.9399" lon="0.84719">
        <ele>221.8</ele>
        <time>2022-05-15T08:30:29Z</time>
      </trkpt>
      <trkpt lat="44.93994" lon="0.8472">
        <ele>222.1</ele>
        <time>2022-05-15T08:30:31Z</time>
      </trkpt>
      <trkpt lat="44.93998" lon="0.84721">
        <ele>222.4</ele>
        <time>2022-05-15T08:30:33Z</time>
      </trkpt>
      <trkpt lat="44.94002" lon="0.84722">
        <ele>222.7</ele>
        <time>2022-05-15T08:30:35Z</time>
      </trkpt>
      <trkpt lat="44.94007" lon="0.84723">
        <ele>223.1</ele>
        <time>2022-05-15T08:30:37Z</time>
      </trkpt>
      <trkpt lat="44.9401" lon="0.84724">
        <ele>223.4</ele>
        <time>2022-05-15T08:30:39Z</time>
      </trkpt>
      <trkpt lat="44.94014" lon="0.84725">
        <ele>223.7</ele>
        <time>2022-05-15T08:30:41Z</time>
      </trkpt>
      <trkpt lat="44.94016" lon="0.84726">
        <ele>223.8</ele>
        <time>2022-05-15T08:30:43Z</time>
      </trkpt>
      <trkpt lat="44.94024" lon="0.8472">
        <ele>224.1</ele>
        <time>2022-05-15T08:30:45Z</time>
      </trkpt>
      <trkpt lat="44.94028" lon="0.84719">
        <ele>224.2</ele>
        <time>2022-05-15T08:30:47Z</time>
      </trkpt>
      <trkpt lat="44.9403" lon="0.84719">
        <ele>224.2</ele>
        <time>2022-05-15T08:30:48Z</time>
      </trkpt>
      <trkpt lat="44.94034" lon="0.84719">
        <ele>224.2</ele>
        <time>2022-05-15T08:30:49Z</time>
      </trkpt>
      <trkpt lat="44.94038" lon="0.84718">
        <ele>224.1</ele>
        <time>2022-05-15T08:30:50Z</time>
      </trkpt>
      <trkpt lat="44.94042" lon="0.84718">
        <ele>223.7</ele>
        <time>2022-05-15T08:30:51Z</time>
      </trkpt>
      <trkpt lat="44.94046" lon="0.84717">
        <ele>223.4</ele>
        <time>2022-05-15T08:30:53Z</time>
      </trkpt>
      <trkpt lat="44.94054" lon="0.84707">
        <ele>222.5</ele>
        <time>2022-05-15T08:30:55Z</time>
      </trkpt>
      <trkpt lat="44.94067" lon="0.84694">
        <ele>220.9</ele>
        <time>2022-05-15T08:30:57Z</time>
      </trkpt>
      <trkpt lat="44.94075" lon="0.84687">
        <ele>219.8</ele>
        <time>2022-05-15T08:30:58Z</time>
      </trkpt>
      <trkpt lat="44.94083" lon="0.84679">
        <ele>218.8</ele>
        <time>2022-05-15T08:30:59Z</time>
      </trkpt>
      <trkpt lat="44.94098" lon="0.84664">
        <ele>216.9</ele>
        <time>2022-05-15T08:31:01Z</time>
      </trkpt>
      <trkpt lat="44.94113" lon="0.84646">
        <ele>215</ele>
        <time>2022-05-15T08:31:03Z</time>
      </trkpt>
      <trkpt lat="44.94119" lon="0.84637">
        <ele>214.1</ele>
        <time>2022-05-15T08:31:04Z</time>
      </trkpt>
      <trkpt lat="44.94124" lon="0.8463">
        <ele>213.3</ele>
        <time>2022-05-15T08:31:05Z</time>
      </trkpt>
      <trkpt lat="44.94131" lon="0.84622">
        <ele>212.5</ele>
        <time>2022-05-15T08:31:06Z</time>
      </trkpt>
      <trkpt lat="44.94137" lon="0.84616">
        <ele>211.8</ele>
        <time>2022-05-15T08:31:07Z</time>
      </trkpt>
      <trkpt lat="44.94151" lon="0.84608">
        <ele>210.4</ele>
        <time>2022-05-15T08:31:09Z</time>
      </trkpt>
      <trkpt lat="44.94164" lon="0.84599">
        <ele>208.7</ele>
        <time>2022-05-15T08:31:11Z</time>
      </trkpt>
      <trkpt lat="44.94171" lon="0.84596">
        <ele>207.9</ele>
        <time>2022-05-15T08:31:12Z</time>
      </trkpt>
      <trkpt lat="44.94179" lon="0.84592">
        <ele>207.1</ele>
        <time>2022-05-15T08:31:13Z</time>
      </trkpt>
      <trkpt lat="44.94196" lon="0.84585">
        <ele>205.5</ele>
        <time>2022-05-15T08:31:15Z</time>
      </trkpt>
      <trkpt lat="44.94212" lon="0.84575">
        <ele>203.6</ele>
        <time>2022-05-15T08:31:17Z</time>
      </trkpt>
      <trkpt lat="44.94229" lon="0.84564">
        <ele>201.7</ele>
        <time>2022-05-15T08:31:19Z</time>
      </trkpt>
      <trkpt lat="44.94247" lon="0.84553">
        <ele>200</ele>
        <time>2022-05-15T08:31:21Z</time>
      </trkpt>
      <trkpt lat="44.94262" lon="0.8454">
        <ele>198</ele>
        <time>2022-05-15T08:31:23Z</time>
      </trkpt>
      <trkpt lat="44.94267" lon="0.84533">
        <ele>197.2</ele>
        <time>2022-05-15T08:31:24Z</time>
      </trkpt>
      <trkpt lat="44.94272" lon="0.84526">
        <ele>196.3</ele>
        <time>2022-05-15T08:31:25Z</time>
      </trkpt>
      <trkpt lat="44.94278" lon="0.84519">
        <ele>195.3</ele>
        <time>2022-05-15T08:31:26Z</time>
      </trkpt>
      <trkpt lat="44.94283" lon="0.84511">
        <ele>194.3</ele>
        <time>2022-05-15T08:31:27Z</time>
      </trkpt>
      <trkpt lat="44.94289" lon="0.84502">
        <ele>193.4</ele>
        <time>2022-05-15T08:31:28Z</time>
      </trkpt>
      <trkpt lat="44.94294" lon="0.84494">
        <ele>192.8</ele>
        <time>2022-05-15T08:31:29Z</time>
      </trkpt>
      <trkpt lat="44.94305" lon="0.84482">
        <ele>191.3</ele>
        <time>2022-05-15T08:31:31Z</time>
      </trkpt>
      <trkpt lat="44.94314" lon="0.84475">
        <ele>189.9</ele>
        <time>2022-05-15T08:31:33Z</time>
      </trkpt>
      <trkpt lat="44.94317" lon="0.84471">
        <ele>189.3</ele>
        <time>2022-05-15T08:31:34Z</time>
      </trkpt>
      <trkpt lat="44.94321" lon="0.84466">
        <ele>188.5</ele>
        <time>2022-05-15T08:31:35Z</time>
      </trkpt>
      <trkpt lat="44.94326" lon="0.8446">
        <ele>187.7</ele>
        <time>2022-05-15T08:31:36Z</time>
      </trkpt>
      <trkpt lat="44.94331" lon="0.84455">
        <ele>186.7</ele>
        <time>2022-05-15T08:31:37Z</time>
      </trkpt>
      <trkpt lat="44.94335" lon="0.8445">
        <ele>185.7</ele>
        <time>2022-05-15T08:31:38Z</time>
      </trkpt>
      <trkpt lat="44.9434" lon="0.84444">
        <ele>184.4</ele>
        <time>2022-05-15T08:31:39Z</time>
      </trkpt>
      <trkpt lat="44.94346" lon="0.84439">
        <ele>182.9</ele>
        <time>2022-05-15T08:31:40Z</time>
      </trkpt>
      <trkpt lat="44.94351" lon="0.84435">
        <ele>181.7</ele>
        <time>2022-05-15T08:31:41Z</time>
      </trkpt>
      <trkpt lat="44.94357" lon="0.84431">
        <ele>180.5</ele>
        <time>2022-05-15T08:31:43Z</time>
      </trkpt>
      <trkpt lat="44.94364" lon="0.84426">
        <ele>179.5</ele>
        <time>2022-05-15T08:31:45Z</time>
      </trkpt>
      <trkpt lat="44.94368" lon="0.84424">
        <ele>179.1</ele>
        <time>2022-05-15T08:31:46Z</time>
      </trkpt>
      <trkpt lat="44.94372" lon="0.8442">
        <ele>178.7</ele>
        <time>2022-05-15T08:31:47Z</time>
      </trkpt>
      <trkpt lat="44.9438" lon="0.84414">
        <ele>178.2</ele>
        <time>2022-05-15T08:31:49Z</time>
      </trkpt>
      <trkpt lat="44.94386" lon="0.84407">
        <ele>177.9</ele>
        <time>2022-05-15T08:31:51Z</time>
      </trkpt>
      <trkpt lat="44.94391" lon="0.84397">
        <ele>177.8</ele>
        <time>2022-05-15T08:31:53Z</time>
      </trkpt>
      <trkpt lat="44.94396" lon="0.84391">
        <ele>177.9</ele>
        <time>2022-05-15T08:31:55Z</time>
      </trkpt>
      <trkpt lat="44.944" lon="0.84387">
        <ele>178.1</ele>
        <time>2022-05-15T08:31:57Z</time>
      </trkpt>
      <trkpt lat="44.94403" lon="0.84384">
        <ele>178.4</ele>
        <time>2022-05-15T08:31:59Z</time>
      </trkpt>
      <trkpt lat="44.94406" lon="0.84382">
        <ele>178.7</ele>
        <time>2022-05-15T08:32:01Z</time>
      </trkpt>
      <trkpt lat="44.94408" lon="0.8438">
        <ele>178.8</ele>
        <time>2022-05-15T08:32:02Z</time>
      </trkpt>
      <trkpt lat="44.94409" lon="0.84379">
        <ele>179</ele>
        <time>2022-05-15T08:32:03Z</time>
      </trkpt>
      <trkpt lat="44.94411" lon="0.84377">
        <ele>179.3</ele>
        <time>2022-05-15T08:32:05Z</time>
      </trkpt>
      <trkpt lat="44.94411" lon="0.84377">
        <ele>179.3</ele>
        <time>2022-05-15T08:32:06Z</time>
      </trkpt>
      <trkpt lat="44.94414" lon="0.84375">
        <ele>179.6</ele>
        <time>2022-05-15T08:32:07Z</time>
      </trkpt>
      <trkpt lat="44.94418" lon="0.84372">
        <ele>180.2</ele>
        <time>2022-05-15T08:32:09Z</time>
      </trkpt>
      <trkpt lat="44.94421" lon="0.84369">
        <ele>180.7</ele>
        <time>2022-05-15T08:32:11Z</time>
      </trkpt>
      <trkpt lat="44.94425" lon="0.84366">
        <ele>181.2</ele>
        <time>2022-05-15T08:32:13Z</time>
      </trkpt>
      <trkpt lat="44.94428" lon="0.84363">
        <ele>181.7</ele>
        <time>2022-05-15T08:32:15Z</time>
      </trkpt>
      <trkpt lat="44.94431" lon="0.84361">
        <ele>182.1</ele>
        <time>2022-05-15T08:32:17Z</time>
      </trkpt>
      <trkpt lat="44.94432" lon="0.84359">
        <ele>182.3</ele>
        <time>2022-05-15T08:32:19Z</time>
      </trkpt>
      <trkpt lat="44.94434" lon="0.84358">
        <ele>182.6</ele>
        <time>2022-05-15T08:32:21Z</time>
      </trkpt>
      <trkpt lat="44.94436" lon="0.84356">
        <ele>182.8</ele>
        <time>2022-05-15T08:32:22Z</time>
      </trkpt>
      <trkpt lat="44.94436" lon="0.84356">
        <ele>182.8</ele>
        <time>2022-05-15T08:32:23Z</time>
      </trkpt>
      <trkpt lat="44.94438" lon="0.84354">
        <ele>183.2</ele>
        <time>2022-05-15T08:32:25Z</time>
      </trkpt>
      <trkpt lat="44.9444" lon="0.84353">
        <ele>183.4</ele>
        <time>2022-05-15T08:32:26Z</time>
      </trkpt>
      <trkpt lat="44.94442" lon="0.84351">
        <ele>183.7</ele>
        <time>2022-05-15T08:32:27Z</time>
      </trkpt>
      <trkpt lat="44.94445" lon="0.84348">
        <ele>184.1</ele>
        <time>2022-05-15T08:32:29Z</time>
      </trkpt>
      <trkpt lat="44.94448" lon="0.84346">
        <ele>184.5</ele>
        <time>2022-05-15T08:32:31Z</time>
      </trkpt>
      <trkpt lat="44.9445" lon="0.84344">
        <ele>184.9</ele>
        <time>2022-05-15T08:32:33Z</time>
      </trkpt>
      <trkpt lat="44.94452" lon="0.84342">
        <ele>185.1</ele>
        <time>2022-05-15T08:32:34Z</time>
      </trkpt>
      <trkpt lat="44.94454" lon="0.8434">
        <ele>185.3</ele>
        <time>2022-05-15T08:32:35Z</time>
      </trkpt>
      <trkpt lat="44.94457" lon="0.84338">
        <ele>185.7</ele>
        <time>2022-05-15T08:32:37Z</time>
      </trkpt>
      <trkpt lat="44.94458" lon="0.84337">
        <ele>185.9</ele>
        <time>2022-05-15T08:32:38Z</time>
      </trkpt>
      <trkpt lat="44.94459" lon="0.84336">
        <ele>186</ele>
        <time>2022-05-15T08:32:39Z</time>
      </trkpt>
      <trkpt lat="44.9446" lon="0.84335">
        <ele>186.1</ele>
        <time>2022-05-15T08:32:40Z</time>
      </trkpt>
      <trkpt lat="44.9446" lon="0.84335">
        <ele>186.1</ele>
        <time>2022-05-15T08:32:41Z</time>
      </trkpt>
      <trkpt lat="44.9446" lon="0.84335">
        <ele>186.1</ele>
        <time>2022-05-15T08:32:42Z</time>
      </trkpt>
      <trkpt lat="44.94473" lon="0.84304">
        <ele>188.7</ele>
        <time>2022-05-15T08:32:56Z</time>
      </trkpt>
      <trkpt lat="44.94474" lon="0.84302">
        <ele>188.9</ele>
        <time>2022-05-15T08:32:57Z</time>
      </trkpt>
      <trkpt lat="44.94475" lon="0.84298">
        <ele>189.2</ele>
        <time>2022-05-15T08:32:59Z</time>
      </trkpt>
      <trkpt lat="44.94477" lon="0.84294">
        <ele>189.5</ele>
        <time>2022-05-15T08:33:01Z</time>
      </trkpt>
      <trkpt lat="44.94479" lon="0.84289">
        <ele>189.8</ele>
        <time>2022-05-15T08:33:03Z</time>
      </trkpt>
      <trkpt lat="44.9448" lon="0.84285">
        <ele>190.1</ele>
        <time>2022-05-15T08:33:05Z</time>
      </trkpt>
      <trkpt lat="44.94481" lon="0.84282">
        <ele>190.3</ele>
        <time>2022-05-15T08:33:06Z</time>
      </trkpt>
      <trkpt lat="44.94482" lon="0.8428">
        <ele>190.4</ele>
        <time>2022-05-15T08:33:07Z</time>
      </trkpt>
      <trkpt lat="44.94483" lon="0.84277">
        <ele>190.6</ele>
        <time>2022-05-15T08:33:09Z</time>
      </trkpt>
      <trkpt lat="44.94484" lon="0.84275">
        <ele>190.7</ele>
        <time>2022-05-15T08:33:11Z</time>
      </trkpt>
      <trkpt lat="44.94485" lon="0.84273">
        <ele>190.8</ele>
        <time>2022-05-15T08:33:12Z</time>
      </trkpt>
      <trkpt lat="44.94486" lon="0.84271">
        <ele>190.9</ele>
        <time>2022-05-15T08:33:13Z</time>
      </trkpt>
      <trkpt lat="44.94488" lon="0.84266">
        <ele>191.2</ele>
        <time>2022-05-15T08:33:15Z</time>
      </trkpt>
      <trkpt lat="44.94489" lon="0.84261">
        <ele>191.4</ele>
        <time>2022-05-15T08:33:17Z</time>
      </trkpt>
      <trkpt lat="44.94491" lon="0.84257">
        <ele>191.7</ele>
        <time>2022-05-15T08:33:19Z</time>
      </trkpt>
      <trkpt lat="44.94492" lon="0.84254">
        <ele>191.8</ele>
        <time>2022-05-15T08:33:21Z</time>
      </trkpt>
      <trkpt lat="44.94494" lon="0.8425">
        <ele>192</ele>
        <time>2022-05-15T08:33:23Z</time>
      </trkpt>
      <trkpt lat="44.94496" lon="0.84245">
        <ele>192.2</ele>
        <time>2022-05-15T08:33:25Z</time>
      </trkpt>
      <trkpt lat="44.94496" lon="0.84243">
        <ele>192.3</ele>
        <time>2022-05-15T08:33:27Z</time>
      </trkpt>
      <trkpt lat="44.94498" lon="0.84239">
        <ele>192.5</ele>
        <time>2022-05-15T08:33:29Z</time>
      </trkpt>
      <trkpt lat="44.94499" lon="0.84235">
        <ele>192.7</ele>
        <time>2022-05-15T08:33:31Z</time>
      </trkpt>
      <trkpt lat="44.945" lon="0.84233">
        <ele>192.8</ele>
        <time>2022-05-15T08:33:32Z</time>
      </trkpt>
      <trkpt lat="44.94501" lon="0.8423">
        <ele>192.9</ele>
        <time>2022-05-15T08:33:33Z</time>
      </trkpt>
      <trkpt lat="44.94502" lon="0.84228">
        <ele>193</ele>
        <time>2022-05-15T08:33:34Z</time>
      </trkpt>
      <trkpt lat="44.94503" lon="0.84226">
        <ele>193.1</ele>
        <time>2022-05-15T08:33:35Z</time>
      </trkpt>
      <trkpt lat="44.94504" lon="0.84222">
        <ele>193.3</ele>
        <time>2022-05-15T08:33:37Z</time>
      </trkpt>
      <trkpt lat="44.94506" lon="0.84219">
        <ele>193.5</ele>
        <time>2022-05-15T08:33:39Z</time>
      </trkpt>
      <trkpt lat="44.94506" lon="0.84217">
        <ele>193.6</ele>
        <time>2022-05-15T08:33:40Z</time>
      </trkpt>
      <trkpt lat="44.94507" lon="0.84215">
        <ele>193.7</ele>
        <time>2022-05-15T08:33:41Z</time>
      </trkpt>
      <trkpt lat="44.94508" lon="0.84212">
        <ele>193.9</ele>
        <time>2022-05-15T08:33:43Z</time>
      </trkpt>
      <trkpt lat="44.9451" lon="0.84207">
        <ele>194.3</ele>
        <time>2022-05-15T08:33:45Z</time>
      </trkpt>
      <trkpt lat="44.94511" lon="0.84205">
        <ele>194.6</ele>
        <time>2022-05-15T08:33:46Z</time>
      </trkpt>
      <trkpt lat="44.94511" lon="0.84204">
        <ele>194.7</ele>
        <time>2022-05-15T08:33:47Z</time>
      </trkpt>
      <trkpt lat="44.94511" lon="0.84204">
        <ele>194.7</ele>
        <time>2022-05-15T08:33:49Z</time>
      </trkpt>
      <trkpt lat="44.94517" lon="0.84189">
        <ele>196.1</ele>
        <time>2022-05-15T08:33:54Z</time>
      </trkpt>
      <trkpt lat="44.94518" lon="0.84185">
        <ele>196.4</ele>
        <time>2022-05-15T08:33:55Z</time>
      </trkpt>
      <trkpt lat="44.94519" lon="0.84181">
        <ele>196.8</ele>
        <time>2022-05-15T08:33:57Z</time>
      </trkpt>
      <trkpt lat="44.9452" lon="0.84178">
        <ele>197.1</ele>
        <time>2022-05-15T08:33:58Z</time>
      </trkpt>
      <trkpt lat="44.94521" lon="0.84175">
        <ele>197.3</ele>
        <time>2022-05-15T08:33:59Z</time>
      </trkpt>
      <trkpt lat="44.94522" lon="0.84173">
        <ele>197.5</ele>
        <time>2022-05-15T08:34:01Z</time>
      </trkpt>
      <trkpt lat="44.94523" lon="0.84166">
        <ele>198.1</ele>
        <time>2022-05-15T08:34:03Z</time>
      </trkpt>
      <trkpt lat="44.94524" lon="0.84164">
        <ele>198.4</ele>
        <time>2022-05-15T08:34:04Z</time>
      </trkpt>
      <trkpt lat="44.94524" lon="0.84162">
        <ele>198.6</ele>
        <time>2022-05-15T08:34:05Z</time>
      </trkpt>
      <trkpt lat="44.94525" lon="0.84158">
        <ele>198.9</ele>
        <time>2022-05-15T08:34:07Z</time>
      </trkpt>
      <trkpt lat="44.94526" lon="0.84155">
        <ele>199.4</ele>
        <time>2022-05-15T08:34:09Z</time>
      </trkpt>
      <trkpt lat="44.94527" lon="0.84153">
        <ele>199.5</ele>
        <time>2022-05-15T08:34:10Z</time>
      </trkpt>
      <trkpt lat="44.94527" lon="0.84152">
        <ele>199.7</ele>
        <time>2022-05-15T08:34:11Z</time>
      </trkpt>
      <trkpt lat="44.94528" lon="0.84148">
        <ele>200.1</ele>
        <time>2022-05-15T08:34:13Z</time>
      </trkpt>
      <trkpt lat="44.94529" lon="0.84144">
        <ele>200.6</ele>
        <time>2022-05-15T08:34:15Z</time>
      </trkpt>
      <trkpt lat="44.94529" lon="0.84144">
        <ele>200.6</ele>
        <time>2022-05-15T08:34:16Z</time>
      </trkpt>
      <trkpt lat="44.9453" lon="0.84141">
        <ele>201</ele>
        <time>2022-05-15T08:34:17Z</time>
      </trkpt>
      <trkpt lat="44.9453" lon="0.84139">
        <ele>201.2</ele>
        <time>2022-05-15T08:34:19Z</time>
      </trkpt>
      <trkpt lat="44.94531" lon="0.84136">
        <ele>201.5</ele>
        <time>2022-05-15T08:34:20Z</time>
      </trkpt>
      <trkpt lat="44.94531" lon="0.84134">
        <ele>201.8</ele>
        <time>2022-05-15T08:34:21Z</time>
      </trkpt>
      <trkpt lat="44.94532" lon="0.84131">
        <ele>202.1</ele>
        <time>2022-05-15T08:34:23Z</time>
      </trkpt>
      <trkpt lat="44.94533" lon="0.84128">
        <ele>202.5</ele>
        <time>2022-05-15T08:34:25Z</time>
      </trkpt>
      <trkpt lat="44.94534" lon="0.84124">
        <ele>203</ele>
        <time>2022-05-15T08:34:27Z</time>
      </trkpt>
      <trkpt lat="44.94535" lon="0.8412">
        <ele>203.5</ele>
        <time>2022-05-15T08:34:29Z</time>
      </trkpt>
      <trkpt lat="44.94535" lon="0.84116">
        <ele>203.8</ele>
        <time>2022-05-15T08:34:31Z</time>
      </trkpt>
      <trkpt lat="44.94536" lon="0.84113">
        <ele>204.2</ele>
        <time>2022-05-15T08:34:33Z</time>
      </trkpt>
      <trkpt lat="44.94537" lon="0.84109">
        <ele>204.5</ele>
        <time>2022-05-15T08:34:35Z</time>
      </trkpt>
      <trkpt lat="44.94537" lon="0.84109">
        <ele>204.5</ele>
        <time>2022-05-15T08:34:36Z</time>
      </trkpt>
      <trkpt lat="44.94538" lon="0.84106">
        <ele>204.9</ele>
        <time>2022-05-15T08:34:37Z</time>
      </trkpt>
      <trkpt lat="44.94538" lon="0.84104">
        <ele>205</ele>
        <time>2022-05-15T08:34:38Z</time>
      </trkpt>
      <trkpt lat="44.94539" lon="0.84103">
        <ele>205.2</ele>
        <time>2022-05-15T08:34:39Z</time>
      </trkpt>
      <trkpt lat="44.9454" lon="0.841">
        <ele>205.4</ele>
        <time>2022-05-15T08:34:41Z</time>
      </trkpt>
      <trkpt lat="44.9454" lon="0.84098">
        <ele>205.6</ele>
        <time>2022-05-15T08:34:43Z</time>
      </trkpt>
      <trkpt lat="44.94541" lon="0.84094">
        <ele>205.9</ele>
        <time>2022-05-15T08:34:44Z</time>
      </trkpt>
      <trkpt lat="44.94541" lon="0.84092">
        <ele>206.1</ele>
        <time>2022-05-15T08:34:45Z</time>
      </trkpt>
      <trkpt lat="44.94542" lon="0.8409">
        <ele>206.3</ele>
        <time>2022-05-15T08:34:46Z</time>
      </trkpt>
      <trkpt lat="44.94542" lon="0.84088">
        <ele>206.4</ele>
        <time>2022-05-15T08:34:47Z</time>
      </trkpt>
      <trkpt lat="44.94543" lon="0.84086">
        <ele>206.6</ele>
        <time>2022-05-15T08:34:48Z</time>
      </trkpt>
      <trkpt lat="44.94543" lon="0.84084">
        <ele>206.7</ele>
        <time>2022-05-15T08:34:49Z</time>
      </trkpt>
      <trkpt lat="44.94544" lon="0.84079">
        <ele>207</ele>
        <time>2022-05-15T08:34:51Z</time>
      </trkpt>
      <trkpt lat="44.94545" lon="0.84075">
        <ele>207.3</ele>
        <time>2022-05-15T08:34:53Z</time>
      </trkpt>
      <trkpt lat="44.94546" lon="0.84071">
        <ele>207.6</ele>
        <time>2022-05-15T08:34:55Z</time>
      </trkpt>
      <trkpt lat="44.94547" lon="0.84067">
        <ele>207.8</ele>
        <time>2022-05-15T08:34:57Z</time>
      </trkpt>
      <trkpt lat="44.94548" lon="0.84065">
        <ele>207.9</ele>
        <time>2022-05-15T08:34:58Z</time>
      </trkpt>
      <trkpt lat="44.94548" lon="0.84063">
        <ele>208</ele>
        <time>2022-05-15T08:34:59Z</time>
      </trkpt>
      <trkpt lat="44.94549" lon="0.84061">
        <ele>208.1</ele>
        <time>2022-05-15T08:35:01Z</time>
      </trkpt>
      <trkpt lat="44.9455" lon="0.84058">
        <ele>208.2</ele>
        <time>2022-05-15T08:35:02Z</time>
      </trkpt>
      <trkpt lat="44.9455" lon="0.84057">
        <ele>208.3</ele>
        <time>2022-05-15T08:35:03Z</time>
      </trkpt>
      <trkpt lat="44.94551" lon="0.84053">
        <ele>208.5</ele>
        <time>2022-05-15T08:35:05Z</time>
      </trkpt>
      <trkpt lat="44.94551" lon="0.84051">
        <ele>208.6</ele>
        <time>2022-05-15T08:35:06Z</time>
      </trkpt>
      <trkpt lat="44.94552" lon="0.84049">
        <ele>208.6</ele>
        <time>2022-05-15T08:35:07Z</time>
      </trkpt>
      <trkpt lat="44.94552" lon="0.84047">
        <ele>208.8</ele>
        <time>2022-05-15T08:35:09Z</time>
      </trkpt>
      <trkpt lat="44.94554" lon="0.8404">
        <ele>209.1</ele>
        <time>2022-05-15T08:35:11Z</time>
      </trkpt>
      <trkpt lat="44.94556" lon="0.84033">
        <ele>209.4</ele>
        <time>2022-05-15T08:35:13Z</time>
      </trkpt>
      <trkpt lat="44.94556" lon="0.84032">
        <ele>209.5</ele>
        <time>2022-05-15T08:35:14Z</time>
      </trkpt>
      <trkpt lat="44.94556" lon="0.8403">
        <ele>209.6</ele>
        <time>2022-05-15T08:35:15Z</time>
      </trkpt>
      <trkpt lat="44.94558" lon="0.84026">
        <ele>209.8</ele>
        <time>2022-05-15T08:35:17Z</time>
      </trkpt>
      <trkpt lat="44.94558" lon="0.84023">
        <ele>210</ele>
        <time>2022-05-15T08:35:18Z</time>
      </trkpt>
      <trkpt lat="44.94561" lon="0.84013">
        <ele>210.7</ele>
        <time>2022-05-15T08:35:19Z</time>
      </trkpt>
      <trkpt lat="44.94563" lon="0.84013">
        <ele>210.9</ele>
        <time>2022-05-15T08:35:21Z</time>
      </trkpt>
      <trkpt lat="44.94564" lon="0.84013">
        <ele>211</ele>
        <time>2022-05-15T08:35:22Z</time>
      </trkpt>
      <trkpt lat="44.94566" lon="0.84013">
        <ele>211.1</ele>
        <time>2022-05-15T08:35:23Z</time>
      </trkpt>
      <trkpt lat="44.94567" lon="0.84013">
        <ele>211.2</ele>
        <time>2022-05-15T08:35:24Z</time>
      </trkpt>
      <trkpt lat="44.94569" lon="0.84013">
        <ele>211.3</ele>
        <time>2022-05-15T08:35:25Z</time>
      </trkpt>
      <trkpt lat="44.9457" lon="0.84013">
        <ele>211.4</ele>
        <time>2022-05-15T08:35:27Z</time>
      </trkpt>
      <trkpt lat="44.94572" lon="0.84012">
        <ele>211.5</ele>
        <time>2022-05-15T08:35:28Z</time>
      </trkpt>
      <trkpt lat="44.94573" lon="0.84012">
        <ele>211.5</ele>
        <time>2022-05-15T08:35:29Z</time>
      </trkpt>
      <trkpt lat="44.94576" lon="0.84011">
        <ele>211.7</ele>
        <time>2022-05-15T08:35:30Z</time>
      </trkpt>
      <trkpt lat="44.94576" lon="0.8401">
        <ele>211.8</ele>
        <time>2022-05-15T08:35:31Z</time>
      </trkpt>
      <trkpt lat="44.94576" lon="0.84009">
        <ele>212</ele>
        <time>2022-05-15T08:35:33Z</time>
      </trkpt>
      <trkpt lat="44.94576" lon="0.84006">
        <ele>212.2</ele>
        <time>2022-05-15T08:35:35Z</time>
      </trkpt>
      <trkpt lat="44.94576" lon="0.84002">
        <ele>212.5</ele>
        <time>2022-05-15T08:35:37Z</time>
      </trkpt>
      <trkpt lat="44.94576" lon="0.83999">
        <ele>212.8</ele>
        <time>2022-05-15T08:35:39Z</time>
      </trkpt>
      <trkpt lat="44.94576" lon="0.83997">
        <ele>213.1</ele>
        <time>2022-05-15T08:35:41Z</time>
      </trkpt>
      <trkpt lat="44.94577" lon="0.83992">
        <ele>213.5</ele>
        <time>2022-05-15T08:35:43Z</time>
      </trkpt>
      <trkpt lat="44.94578" lon="0.83988">
        <ele>213.9</ele>
        <time>2022-05-15T08:35:45Z</time>
      </trkpt>
      <trkpt lat="44.94579" lon="0.83986">
        <ele>214.1</ele>
        <time>2022-05-15T08:35:46Z</time>
      </trkpt>
      <trkpt lat="44.94579" lon="0.83986">
        <ele>214.1</ele>
        <time>2022-05-15T08:35:47Z</time>
      </trkpt>
      <trkpt lat="44.94579" lon="0.83986">
        <ele>214.1</ele>
        <time>2022-05-15T08:35:48Z</time>
      </trkpt>
      <trkpt lat="44.94586" lon="0.83962">
        <ele>216.4</ele>
        <time>2022-05-15T08:35:57Z</time>
      </trkpt>
      <trkpt lat="44.94588" lon="0.83958">
        <ele>216.8</ele>
        <time>2022-05-15T08:35:58Z</time>
      </trkpt>
      <trkpt lat="44.94589" lon="0.83955">
        <ele>217</ele>
        <time>2022-05-15T08:35:59Z</time>
      </trkpt>
      <trkpt lat="44.94593" lon="0.83949">
        <ele>217.7</ele>
        <time>2022-05-15T08:36:00Z</time>
      </trkpt>
      <trkpt lat="44.94593" lon="0.83949">
        <ele>217.7</ele>
        <time>2022-05-15T08:36:01Z</time>
      </trkpt>
      <trkpt lat="44.94593" lon="0.83945">
        <ele>217.7</ele>
        <time>2022-05-15T08:36:03Z</time>
      </trkpt>
      <trkpt lat="44.94593" lon="0.8394">
        <ele>217.8</ele>
        <time>2022-05-15T08:36:05Z</time>
      </trkpt>
      <trkpt lat="44.94593" lon="0.83935">
        <ele>217.8</ele>
        <time>2022-05-15T08:36:07Z</time>
      </trkpt>
      <trkpt lat="44.94593" lon="0.83933">
        <ele>217.9</ele>
        <time>2022-05-15T08:36:09Z</time>
      </trkpt>
      <trkpt lat="44.94593" lon="0.83928">
        <ele>218.1</ele>
        <time>2022-05-15T08:36:10Z</time>
      </trkpt>
      <trkpt lat="44.94593" lon="0.83926">
        <ele>218.2</ele>
        <time>2022-05-15T08:36:11Z</time>
      </trkpt>
      <trkpt lat="44.94593" lon="0.83919">
        <ele>218.5</ele>
        <time>2022-05-15T08:36:13Z</time>
      </trkpt>
      <trkpt lat="44.94595" lon="0.83913">
        <ele>218.8</ele>
        <time>2022-05-15T08:36:15Z</time>
      </trkpt>
      <trkpt lat="44.94596" lon="0.83908">
        <ele>219</ele>
        <time>2022-05-15T08:36:17Z</time>
      </trkpt>
      <trkpt lat="44.94597" lon="0.83902">
        <ele>219.3</ele>
        <time>2022-05-15T08:36:19Z</time>
      </trkpt>
      <trkpt lat="44.94598" lon="0.83898">
        <ele>219.5</ele>
        <time>2022-05-15T08:36:21Z</time>
      </trkpt>
      <trkpt lat="44.946" lon="0.83892">
        <ele>219.8</ele>
        <time>2022-05-15T08:36:23Z</time>
      </trkpt>
      <trkpt lat="44.94601" lon="0.83887">
        <ele>220</ele>
        <time>2022-05-15T08:36:25Z</time>
      </trkpt>
      <trkpt lat="44.94602" lon="0.83885">
        <ele>220.2</ele>
        <time>2022-05-15T08:36:26Z</time>
      </trkpt>
      <trkpt lat="44.94602" lon="0.83883">
        <ele>220.3</ele>
        <time>2022-05-15T08:36:27Z</time>
      </trkpt>
      <trkpt lat="44.94602" lon="0.83881">
        <ele>220.4</ele>
        <time>2022-05-15T08:36:29Z</time>
      </trkpt>
      <trkpt lat="44.94603" lon="0.83877">
        <ele>220.6</ele>
        <time>2022-05-15T08:36:31Z</time>
      </trkpt>
      <trkpt lat="44.94605" lon="0.83872">
        <ele>220.9</ele>
        <time>2022-05-15T08:36:33Z</time>
      </trkpt>
      <trkpt lat="44.94606" lon="0.83868">
        <ele>221.1</ele>
        <time>2022-05-15T08:36:35Z</time>
      </trkpt>
      <trkpt lat="44.94607" lon="0.83863">
        <ele>221.4</ele>
        <time>2022-05-15T08:36:37Z</time>
      </trkpt>
      <trkpt lat="44.94608" lon="0.83859">
        <ele>221.6</ele>
        <time>2022-05-15T08:36:39Z</time>
      </trkpt>
      <trkpt lat="44.94609" lon="0.83854">
        <ele>221.9</ele>
        <time>2022-05-15T08:36:41Z</time>
      </trkpt>
      <trkpt lat="44.9461" lon="0.8385">
        <ele>222.1</ele>
        <time>2022-05-15T08:36:43Z</time>
      </trkpt>
      <trkpt lat="44.9461" lon="0.83847">
        <ele>222.3</ele>
        <time>2022-05-15T08:36:45Z</time>
      </trkpt>
      <trkpt lat="44.94611" lon="0.83845">
        <ele>222.4</ele>
        <time>2022-05-15T08:36:46Z</time>
      </trkpt>
      <trkpt lat="44.94611" lon="0.83844">
        <ele>222.5</ele>
        <time>2022-05-15T08:36:47Z</time>
      </trkpt>
      <trkpt lat="44.94612" lon="0.83839">
        <ele>222.7</ele>
        <time>2022-05-15T08:36:49Z</time>
      </trkpt>
      <trkpt lat="44.94613" lon="0.83836">
        <ele>223</ele>
        <time>2022-05-15T08:36:51Z</time>
      </trkpt>
      <trkpt lat="44.94614" lon="0.83832">
        <ele>223.2</ele>
        <time>2022-05-15T08:36:53Z</time>
      </trkpt>
      <trkpt lat="44.94614" lon="0.83829">
        <ele>223.3</ele>
        <time>2022-05-15T08:36:54Z</time>
      </trkpt>
      <trkpt lat="44.94615" lon="0.83827">
        <ele>223.5</ele>
        <time>2022-05-15T08:36:55Z</time>
      </trkpt>
      <trkpt lat="44.94615" lon="0.83825">
        <ele>223.6</ele>
        <time>2022-05-15T08:36:57Z</time>
      </trkpt>
      <trkpt lat="44.94615" lon="0.83825">
        <ele>223.6</ele>
        <time>2022-05-15T08:36:58Z</time>
      </trkpt>
      <trkpt lat="44.94616" lon="0.83808">
        <ele>224.6</ele>
        <time>2022-05-15T08:37:04Z</time>
      </trkpt>
      <trkpt lat="44.94616" lon="0.83806">
        <ele>224.7</ele>
        <time>2022-05-15T08:37:05Z</time>
      </trkpt>
      <trkpt lat="44.94616" lon="0.83804">
        <ele>224.9</ele>
        <time>2022-05-15T08:37:06Z</time>
      </trkpt>
      <trkpt lat="44.94616" lon="0.83801">
        <ele>225</ele>
        <time>2022-05-15T08:37:07Z</time>
      </trkpt>
      <trkpt lat="44.94616" lon="0.83797">
        <ele>225.3</ele>
        <time>2022-05-15T08:37:09Z</time>
      </trkpt>
      <trkpt lat="44.94616" lon="0.83793">
        <ele>225.5</ele>
        <time>2022-05-15T08:37:11Z</time>
      </trkpt>
      <trkpt lat="44.94616" lon="0.83788">
        <ele>225.8</ele>
        <time>2022-05-15T08:37:12Z</time>
      </trkpt>
      <trkpt lat="44.94616" lon="0.83788">
        <ele>225.8</ele>
        <time>2022-05-15T08:37:13Z</time>
      </trkpt>
      <trkpt lat="44.94615" lon="0.83784">
        <ele>226.1</ele>
        <time>2022-05-15T08:37:14Z</time>
      </trkpt>
      <trkpt lat="44.94614" lon="0.83782">
        <ele>226.2</ele>
        <time>2022-05-15T08:37:15Z</time>
      </trkpt>
      <trkpt lat="44.94613" lon="0.8378">
        <ele>226.3</ele>
        <time>2022-05-15T08:37:16Z</time>
      </trkpt>
      <trkpt lat="44.94613" lon="0.8378">
        <ele>226.3</ele>
        <time>2022-05-15T08:37:17Z</time>
      </trkpt>
      <trkpt lat="44.94612" lon="0.83776">
        <ele>226.5</ele>
        <time>2022-05-15T08:37:18Z</time>
      </trkpt>
      <trkpt lat="44.94611" lon="0.83773">
        <ele>226.7</ele>
        <time>2022-05-15T08:37:19Z</time>
      </trkpt>
      <trkpt lat="44.9461" lon="0.83768">
        <ele>227</ele>
        <time>2022-05-15T08:37:21Z</time>
      </trkpt>
      <trkpt lat="44.94609" lon="0.83765">
        <ele>227.2</ele>
        <time>2022-05-15T08:37:23Z</time>
      </trkpt>
      <trkpt lat="44.94607" lon="0.83759">
        <ele>227.5</ele>
        <time>2022-05-15T08:37:25Z</time>
      </trkpt>
      <trkpt lat="44.94606" lon="0.83754">
        <ele>227.8</ele>
        <time>2022-05-15T08:37:27Z</time>
      </trkpt>
      <trkpt lat="44.94604" lon="0.83748">
        <ele>228.1</ele>
        <time>2022-05-15T08:37:29Z</time>
      </trkpt>
      <trkpt lat="44.94604" lon="0.83745">
        <ele>228.3</ele>
        <time>2022-05-15T08:37:30Z</time>
      </trkpt>
      <trkpt lat="44.94603" lon="0.83742">
        <ele>228.4</ele>
        <time>2022-05-15T08:37:31Z</time>
      </trkpt>
      <trkpt lat="44.94601" lon="0.83736">
        <ele>228.7</ele>
        <time>2022-05-15T08:37:33Z</time>
      </trkpt>
      <trkpt lat="44.94599" lon="0.8373">
        <ele>229</ele>
        <time>2022-05-15T08:37:35Z</time>
      </trkpt>
      <trkpt lat="44.94598" lon="0.83726">
        <ele>229.1</ele>
        <time>2022-05-15T08:37:36Z</time>
      </trkpt>
      <trkpt lat="44.94597" lon="0.83722">
        <ele>229.3</ele>
        <time>2022-05-15T08:37:37Z</time>
      </trkpt>
      <trkpt lat="44.94595" lon="0.83716">
        <ele>229.6</ele>
        <time>2022-05-15T08:37:39Z</time>
      </trkpt>
      <trkpt lat="44.94594" lon="0.83711">
        <ele>229.7</ele>
        <time>2022-05-15T08:37:41Z</time>
      </trkpt>
      <trkpt lat="44.94593" lon="0.83709">
        <ele>229.8</ele>
        <time>2022-05-15T08:37:42Z</time>
      </trkpt>
      <trkpt lat="44.94593" lon="0.83702">
        <ele>229.9</ele>
        <time>2022-05-15T08:37:43Z</time>
      </trkpt>
      <trkpt lat="44.94594" lon="0.83695">
        <ele>230.1</ele>
        <time>2022-05-15T08:37:45Z</time>
      </trkpt>
      <trkpt lat="44.94595" lon="0.83687">
        <ele>230.2</ele>
        <time>2022-05-15T08:37:47Z</time>
      </trkpt>
      <trkpt lat="44.94596" lon="0.83682">
        <ele>230.2</ele>
        <time>2022-05-15T08:37:48Z</time>
      </trkpt>
      <trkpt lat="44.94597" lon="0.83678">
        <ele>230.2</ele>
        <time>2022-05-15T08:37:49Z</time>
      </trkpt>
      <trkpt lat="44.94599" lon="0.83668">
        <ele>230.2</ele>
        <time>2022-05-15T08:37:51Z</time>
      </trkpt>
      <trkpt lat="44.94602" lon="0.83659">
        <ele>230.1</ele>
        <time>2022-05-15T08:37:53Z</time>
      </trkpt>
      <trkpt lat="44.94603" lon="0.83655">
        <ele>230</ele>
        <time>2022-05-15T08:37:54Z</time>
      </trkpt>
      <trkpt lat="44.94605" lon="0.8365">
        <ele>230</ele>
        <time>2022-05-15T08:37:55Z</time>
      </trkpt>
      <trkpt lat="44.94608" lon="0.8364">
        <ele>229.9</ele>
        <time>2022-05-15T08:37:57Z</time>
      </trkpt>
      <trkpt lat="44.94611" lon="0.83629">
        <ele>229.7</ele>
        <time>2022-05-15T08:37:59Z</time>
      </trkpt>
      <trkpt lat="44.94615" lon="0.83619">
        <ele>229.7</ele>
        <time>2022-05-15T08:38:01Z</time>
      </trkpt>
      <trkpt lat="44.94619" lon="0.83608">
        <ele>229.6</ele>
        <time>2022-05-15T08:38:03Z</time>
      </trkpt>
      <trkpt lat="44.94621" lon="0.83601">
        <ele>229.5</ele>
        <time>2022-05-15T08:38:04Z</time>
      </trkpt>
      <trkpt lat="44.94623" lon="0.83596">
        <ele>229.5</ele>
        <time>2022-05-15T08:38:05Z</time>
      </trkpt>
      <trkpt lat="44.94626" lon="0.83585">
        <ele>229.3</ele>
        <time>2022-05-15T08:38:07Z</time>
      </trkpt>
      <trkpt lat="44.94628" lon="0.8358">
        <ele>229.3</ele>
        <time>2022-05-15T08:38:08Z</time>
      </trkpt>
      <trkpt lat="44.9463" lon="0.83574">
        <ele>229.2</ele>
        <time>2022-05-15T08:38:09Z</time>
      </trkpt>
      <trkpt lat="44.94634" lon="0.83562">
        <ele>229</ele>
        <time>2022-05-15T08:38:11Z</time>
      </trkpt>
      <trkpt lat="44.94637" lon="0.83555">
        <ele>228.9</ele>
        <time>2022-05-15T08:38:12Z</time>
      </trkpt>
      <trkpt lat="44.94639" lon="0.83549">
        <ele>228.8</ele>
        <time>2022-05-15T08:38:13Z</time>
      </trkpt>
      <trkpt lat="44.9463" lon="0.83534">
        <ele>228.9</ele>
        <time>2022-05-15T08:38:15Z</time>
      </trkpt>
      <trkpt lat="44.94628" lon="0.83529">
        <ele>228.9</ele>
        <time>2022-05-15T08:38:16Z</time>
      </trkpt>
      <trkpt lat="44.94627" lon="0.83524">
        <ele>228.8</ele>
        <time>2022-05-15T08:38:17Z</time>
      </trkpt>
      <trkpt lat="44.94625" lon="0.83516">
        <ele>228.7</ele>
        <time>2022-05-15T08:38:19Z</time>
      </trkpt>
      <trkpt lat="44.94624" lon="0.83509">
        <ele>228.6</ele>
        <time>2022-05-15T08:38:21Z</time>
      </trkpt>
      <trkpt lat="44.94623" lon="0.83503">
        <ele>228.5</ele>
        <time>2022-05-15T08:38:23Z</time>
      </trkpt>
      <trkpt lat="44.94623" lon="0.83501">
        <ele>228.4</ele>
        <time>2022-05-15T08:38:25Z</time>
      </trkpt>
      <trkpt lat="44.94623" lon="0.83501">
        <ele>228.4</ele>
        <time>2022-05-15T08:38:26Z</time>
      </trkpt>
      <trkpt lat="44.94622" lon="0.83493">
        <ele>228.3</ele>
        <time>2022-05-15T08:39:05Z</time>
      </trkpt>
      <trkpt lat="44.94621" lon="0.83486">
        <ele>228.1</ele>
        <time>2022-05-15T08:39:07Z</time>
      </trkpt>
      <trkpt lat="44.9462" lon="0.83476">
        <ele>227.9</ele>
        <time>2022-05-15T08:39:09Z</time>
      </trkpt>
      <trkpt lat="44.9462" lon="0.83467">
        <ele>227.7</ele>
        <time>2022-05-15T08:39:11Z</time>
      </trkpt>
      <trkpt lat="44.94619" lon="0.83457">
        <ele>227.5</ele>
        <time>2022-05-15T08:39:13Z</time>
      </trkpt>
      <trkpt lat="44.94617" lon="0.83448">
        <ele>227.4</ele>
        <time>2022-05-15T08:39:15Z</time>
      </trkpt>
      <trkpt lat="44.94615" lon="0.83438">
        <ele>227.1</ele>
        <time>2022-05-15T08:39:17Z</time>
      </trkpt>
      <trkpt lat="44.94613" lon="0.83427">
        <ele>226.9</ele>
        <time>2022-05-15T08:39:19Z</time>
      </trkpt>
      <trkpt lat="44.9461" lon="0.83417">
        <ele>226.6</ele>
        <time>2022-05-15T08:39:21Z</time>
      </trkpt>
      <trkpt lat="44.94608" lon="0.83411">
        <ele>226.4</ele>
        <time>2022-05-15T08:39:22Z</time>
      </trkpt>
      <trkpt lat="44.94607" lon="0.83405">
        <ele>226.2</ele>
        <time>2022-05-15T08:39:23Z</time>
      </trkpt>
      <trkpt lat="44.94605" lon="0.83399">
        <ele>225.9</ele>
        <time>2022-05-15T08:39:24Z</time>
      </trkpt>
      <trkpt lat="44.94604" lon="0.83393">
        <ele>225.7</ele>
        <time>2022-05-15T08:39:25Z</time>
      </trkpt>
      <trkpt lat="44.94603" lon="0.83387">
        <ele>225.4</ele>
        <time>2022-05-15T08:39:26Z</time>
      </trkpt>
      <trkpt lat="44.94602" lon="0.83381">
        <ele>225.1</ele>
        <time>2022-05-15T08:39:27Z</time>
      </trkpt>
      <trkpt lat="44.946" lon="0.83373">
        <ele>224.7</ele>
        <time>2022-05-15T08:39:28Z</time>
      </trkpt>
      <trkpt lat="44.94598" lon="0.83364">
        <ele>224.2</ele>
        <time>2022-05-15T08:39:29Z</time>
      </trkpt>
      <trkpt lat="44.94592" lon="0.83346">
        <ele>223.4</ele>
        <time>2022-05-15T08:39:31Z</time>
      </trkpt>
      <trkpt lat="44.94587" lon="0.83328">
        <ele>222.9</ele>
        <time>2022-05-15T08:39:33Z</time>
      </trkpt>
      <trkpt lat="44.94581" lon="0.83312">
        <ele>222.7</ele>
        <time>2022-05-15T08:39:35Z</time>
      </trkpt>
      <trkpt lat="44.94575" lon="0.83297">
        <ele>222.7</ele>
        <time>2022-05-15T08:39:37Z</time>
      </trkpt>
      <trkpt lat="44.94569" lon="0.83283">
        <ele>222.5</ele>
        <time>2022-05-15T08:39:39Z</time>
      </trkpt>
      <trkpt lat="44.94563" lon="0.8327">
        <ele>222.2</ele>
        <time>2022-05-15T08:39:41Z</time>
      </trkpt>
      <trkpt lat="44.94558" lon="0.83255">
        <ele>221.9</ele>
        <time>2022-05-15T08:39:43Z</time>
      </trkpt>
      <trkpt lat="44.94554" lon="0.83241">
        <ele>221.7</ele>
        <time>2022-05-15T08:39:45Z</time>
      </trkpt>
      <trkpt lat="44.94551" lon="0.83234">
        <ele>221.7</ele>
        <time>2022-05-15T08:39:46Z</time>
      </trkpt>
      <trkpt lat="44.94549" lon="0.83227">
        <ele>221.6</ele>
        <time>2022-05-15T08:39:47Z</time>
      </trkpt>
      <trkpt lat="44.94547" lon="0.8322">
        <ele>221.6</ele>
        <time>2022-05-15T08:39:48Z</time>
      </trkpt>
      <trkpt lat="44.94545" lon="0.83214">
        <ele>221.5</ele>
        <time>2022-05-15T08:39:49Z</time>
      </trkpt>
      <trkpt lat="44.94543" lon="0.83209">
        <ele>221.5</ele>
        <time>2022-05-15T08:39:50Z</time>
      </trkpt>
      <trkpt lat="44.94541" lon="0.83203">
        <ele>221.4</ele>
        <time>2022-05-15T08:39:51Z</time>
      </trkpt>
      <trkpt lat="44.9454" lon="0.83198">
        <ele>221.3</ele>
        <time>2022-05-15T08:39:52Z</time>
      </trkpt>
      <trkpt lat="44.94538" lon="0.83192">
        <ele>221.2</ele>
        <time>2022-05-15T08:39:53Z</time>
      </trkpt>
      <trkpt lat="44.94536" lon="0.83186">
        <ele>221</ele>
        <time>2022-05-15T08:39:54Z</time>
      </trkpt>
      <trkpt lat="44.94533" lon="0.8318">
        <ele>220.8</ele>
        <time>2022-05-15T08:39:55Z</time>
      </trkpt>
      <trkpt lat="44.94533" lon="0.83171">
        <ele>220.4</ele>
        <time>2022-05-15T08:39:56Z</time>
      </trkpt>
      <trkpt lat="44.94532" lon="0.83163">
        <ele>220</ele>
        <time>2022-05-15T08:39:57Z</time>
      </trkpt>
      <trkpt lat="44.94529" lon="0.83145">
        <ele>219.1</ele>
        <time>2022-05-15T08:39:59Z</time>
      </trkpt>
      <trkpt lat="44.94525" lon="0.83125">
        <ele>218.4</ele>
        <time>2022-05-15T08:40:01Z</time>
      </trkpt>
      <trkpt lat="44.94521" lon="0.83116">
        <ele>218.1</ele>
        <time>2022-05-15T08:40:02Z</time>
      </trkpt>
      <trkpt lat="44.94517" lon="0.83108">
        <ele>217.8</ele>
        <time>2022-05-15T08:40:03Z</time>
      </trkpt>
      <trkpt lat="44.94512" lon="0.83101">
        <ele>217.6</ele>
        <time>2022-05-15T08:40:04Z</time>
      </trkpt>
      <trkpt lat="44.94508" lon="0.83093">
        <ele>217.4</ele>
        <time>2022-05-15T08:40:05Z</time>
      </trkpt>
      <trkpt lat="44.94498" lon="0.83078">
        <ele>217</ele>
        <time>2022-05-15T08:40:07Z</time>
      </trkpt>
      <trkpt lat="44.94487" lon="0.83066">
        <ele>216.7</ele>
        <time>2022-05-15T08:40:09Z</time>
      </trkpt>
      <trkpt lat="44.94476" lon="0.83055">
        <ele>216.4</ele>
        <time>2022-05-15T08:40:11Z</time>
      </trkpt>
      <trkpt lat="44.94464" lon="0.83046">
        <ele>216.2</ele>
        <time>2022-05-15T08:40:13Z</time>
      </trkpt>
      <trkpt lat="44.94451" lon="0.83038">
        <ele>216.1</ele>
        <time>2022-05-15T08:40:15Z</time>
      </trkpt>
      <trkpt lat="44.94445" lon="0.83034">
        <ele>216.1</ele>
        <time>2022-05-15T08:40:16Z</time>
      </trkpt>
      <trkpt lat="44.9444" lon="0.8303">
        <ele>216.1</ele>
        <time>2022-05-15T08:40:17Z</time>
      </trkpt>
      <trkpt lat="44.94429" lon="0.83021">
        <ele>216.1</ele>
        <time>2022-05-15T08:40:19Z</time>
      </trkpt>
      <trkpt lat="44.94424" lon="0.83017">
        <ele>216</ele>
        <time>2022-05-15T08:40:20Z</time>
      </trkpt>
      <trkpt lat="44.94419" lon="0.83012">
        <ele>216</ele>
        <time>2022-05-15T08:40:21Z</time>
      </trkpt>
      <trkpt lat="44.94414" lon="0.83008">
        <ele>216</ele>
        <time>2022-05-15T08:40:22Z</time>
      </trkpt>
      <trkpt lat="44.94409" lon="0.83003">
        <ele>216</ele>
        <time>2022-05-15T08:40:23Z</time>
      </trkpt>
      <trkpt lat="44.94399" lon="0.82994">
        <ele>215.9</ele>
        <time>2022-05-15T08:40:25Z</time>
      </trkpt>
      <trkpt lat="44.9439" lon="0.82983">
        <ele>215.8</ele>
        <time>2022-05-15T08:40:27Z</time>
      </trkpt>
      <trkpt lat="44.94386" lon="0.82977">
        <ele>215.7</ele>
        <time>2022-05-15T08:40:28Z</time>
      </trkpt>
      <trkpt lat="44.94383" lon="0.8297">
        <ele>215.7</ele>
        <time>2022-05-15T08:40:29Z</time>
      </trkpt>
      <trkpt lat="44.94377" lon="0.82956">
        <ele>215.7</ele>
        <time>2022-05-15T08:40:31Z</time>
      </trkpt>
      <trkpt lat="44.94374" lon="0.82949">
        <ele>215.8</ele>
        <time>2022-05-15T08:40:32Z</time>
      </trkpt>
      <trkpt lat="44.9437" lon="0.82941">
        <ele>215.9</ele>
        <time>2022-05-15T08:40:33Z</time>
      </trkpt>
      <trkpt lat="44.94364" lon="0.82927">
        <ele>216.2</ele>
        <time>2022-05-15T08:40:35Z</time>
      </trkpt>
      <trkpt lat="44.94361" lon="0.82921">
        <ele>216.4</ele>
        <time>2022-05-15T08:40:36Z</time>
      </trkpt>
      <trkpt lat="44.94359" lon="0.82914">
        <ele>216.6</ele>
        <time>2022-05-15T08:40:37Z</time>
      </trkpt>
      <trkpt lat="44.94356" lon="0.82907">
        <ele>216.9</ele>
        <time>2022-05-15T08:40:38Z</time>
      </trkpt>
      <trkpt lat="44.94353" lon="0.82901">
        <ele>217.1</ele>
        <time>2022-05-15T08:40:39Z</time>
      </trkpt>
      <trkpt lat="44.94351" lon="0.82895">
        <ele>217.3</ele>
        <time>2022-05-15T08:40:40Z</time>
      </trkpt>
      <trkpt lat="44.94348" lon="0.82889">
        <ele>217.5</ele>
        <time>2022-05-15T08:40:41Z</time>
      </trkpt>
      <trkpt lat="44.94344" lon="0.82877">
        <ele>217.9</ele>
        <time>2022-05-15T08:40:43Z</time>
      </trkpt>
      <trkpt lat="44.9434" lon="0.82865">
        <ele>218.2</ele>
        <time>2022-05-15T08:40:45Z</time>
      </trkpt>
      <trkpt lat="44.94337" lon="0.82853">
        <ele>218.6</ele>
        <time>2022-05-15T08:40:47Z</time>
      </trkpt>
      <trkpt lat="44.94333" lon="0.82841">
        <ele>218.9</ele>
        <time>2022-05-15T08:40:49Z</time>
      </trkpt>
      <trkpt lat="44.94331" lon="0.82835">
        <ele>219</ele>
        <time>2022-05-15T08:40:50Z</time>
      </trkpt>
      <trkpt lat="44.9433" lon="0.82828">
        <ele>219</ele>
        <time>2022-05-15T08:40:51Z</time>
      </trkpt>
      <trkpt lat="44.94328" lon="0.82822">
        <ele>219.1</ele>
        <time>2022-05-15T08:40:52Z</time>
      </trkpt>
      <trkpt lat="44.94326" lon="0.82816">
        <ele>219.1</ele>
        <time>2022-05-15T08:40:53Z</time>
      </trkpt>
      <trkpt lat="44.94322" lon="0.82803">
        <ele>219</ele>
        <time>2022-05-15T08:40:55Z</time>
      </trkpt>
      <trkpt lat="44.9432" lon="0.82796">
        <ele>219</ele>
        <time>2022-05-15T08:40:56Z</time>
      </trkpt>
      <trkpt lat="44.94318" lon="0.8279">
        <ele>218.9</ele>
        <time>2022-05-15T08:40:57Z</time>
      </trkpt>
      <trkpt lat="44.94313" lon="0.82776">
        <ele>218.5</ele>
        <time>2022-05-15T08:40:59Z</time>
      </trkpt>
      <trkpt lat="44.94308" lon="0.82762">
        <ele>218.2</ele>
        <time>2022-05-15T08:41:01Z</time>
      </trkpt>
      <trkpt lat="44.94305" lon="0.82754">
        <ele>218</ele>
        <time>2022-05-15T08:41:02Z</time>
      </trkpt>
      <trkpt lat="44.94303" lon="0.82747">
        <ele>217.8</ele>
        <time>2022-05-15T08:41:03Z</time>
      </trkpt>
      <trkpt lat="44.94298" lon="0.82732">
        <ele>217.5</ele>
        <time>2022-05-15T08:41:05Z</time>
      </trkpt>
      <trkpt lat="44.94293" lon="0.82719">
        <ele>217.2</ele>
        <time>2022-05-15T08:41:07Z</time>
      </trkpt>
      <trkpt lat="44.94287" lon="0.82705">
        <ele>216.8</ele>
        <time>2022-05-15T08:41:09Z</time>
      </trkpt>
      <trkpt lat="44.94281" lon="0.8269">
        <ele>216.1</ele>
        <time>2022-05-15T08:41:11Z</time>
      </trkpt>
      <trkpt lat="44.94275" lon="0.82674">
        <ele>215.2</ele>
        <time>2022-05-15T08:41:13Z</time>
      </trkpt>
      <trkpt lat="44.94269" lon="0.82656">
        <ele>214</ele>
        <time>2022-05-15T08:41:15Z</time>
      </trkpt>
      <trkpt lat="44.94269" lon="0.82636">
        <ele>212.8</ele>
        <time>2022-05-15T08:41:17Z</time>
      </trkpt>
      <trkpt lat="44.94268" lon="0.82615">
        <ele>212.1</ele>
        <time>2022-05-15T08:41:19Z</time>
      </trkpt>
      <trkpt lat="44.94267" lon="0.82605">
        <ele>211.9</ele>
        <time>2022-05-15T08:41:20Z</time>
      </trkpt>
      <trkpt lat="44.94266" lon="0.82595">
        <ele>211.7</ele>
        <time>2022-05-15T08:41:21Z</time>
      </trkpt>
      <trkpt lat="44.94265" lon="0.82576">
        <ele>211.7</ele>
        <time>2022-05-15T08:41:23Z</time>
      </trkpt>
      <trkpt lat="44.94265" lon="0.82564">
        <ele>211.7</ele>
        <time>2022-05-15T08:41:24Z</time>
      </trkpt>
      <trkpt lat="44.94267" lon="0.82555">
        <ele>211.7</ele>
        <time>2022-05-15T08:41:25Z</time>
      </trkpt>
      <trkpt lat="44.9427" lon="0.82538">
        <ele>211.7</ele>
        <time>2022-05-15T08:41:27Z</time>
      </trkpt>
      <trkpt lat="44.94274" lon="0.8252">
        <ele>211.8</ele>
        <time>2022-05-15T08:41:29Z</time>
      </trkpt>
      <trkpt lat="44.94278" lon="0.82502">
        <ele>212.1</ele>
        <time>2022-05-15T08:41:31Z</time>
      </trkpt>
      <trkpt lat="44.94282" lon="0.82484">
        <ele>212.4</ele>
        <time>2022-05-15T08:41:33Z</time>
      </trkpt>
      <trkpt lat="44.94283" lon="0.82476">
        <ele>212.5</ele>
        <time>2022-05-15T08:41:34Z</time>
      </trkpt>
      <trkpt lat="44.94284" lon="0.82469">
        <ele>212.7</ele>
        <time>2022-05-15T08:41:35Z</time>
      </trkpt>
      <trkpt lat="44.94285" lon="0.82453">
        <ele>213</ele>
        <time>2022-05-15T08:41:37Z</time>
      </trkpt>
      <trkpt lat="44.94286" lon="0.82445">
        <ele>213.1</ele>
        <time>2022-05-15T08:41:38Z</time>
      </trkpt>
      <trkpt lat="44.94288" lon="0.82438">
        <ele>213.2</ele>
        <time>2022-05-15T08:41:39Z</time>
      </trkpt>
      <trkpt lat="44.9429" lon="0.82432">
        <ele>213.3</ele>
        <time>2022-05-15T08:41:40Z</time>
      </trkpt>
      <trkpt lat="44.94292" lon="0.82426">
        <ele>213.4</ele>
        <time>2022-05-15T08:41:41Z</time>
      </trkpt>
      <trkpt lat="44.94295" lon="0.82414">
        <ele>213.7</ele>
        <time>2022-05-15T08:41:43Z</time>
      </trkpt>
      <trkpt lat="44.94296" lon="0.82408">
        <ele>213.9</ele>
        <time>2022-05-15T08:41:44Z</time>
      </trkpt>
      <trkpt lat="44.94298" lon="0.82401">
        <ele>214</ele>
        <time>2022-05-15T08:41:45Z</time>
      </trkpt>
      <trkpt lat="44.94302" lon="0.82388">
        <ele>214.4</ele>
        <time>2022-05-15T08:41:47Z</time>
      </trkpt>
      <trkpt lat="44.94305" lon="0.8238">
        <ele>214.6</ele>
        <time>2022-05-15T08:41:48Z</time>
      </trkpt>
      <trkpt lat="44.94308" lon="0.82374">
        <ele>214.8</ele>
        <time>2022-05-15T08:41:49Z</time>
      </trkpt>
      <trkpt lat="44.94314" lon="0.82364">
        <ele>215.2</ele>
        <time>2022-05-15T08:41:51Z</time>
      </trkpt>
      <trkpt lat="44.94315" lon="0.82359">
        <ele>215.4</ele>
        <time>2022-05-15T08:41:52Z</time>
      </trkpt>
      <trkpt lat="44.94317" lon="0.82354">
        <ele>215.6</ele>
        <time>2022-05-15T08:41:53Z</time>
      </trkpt>
      <trkpt lat="44.9432" lon="0.82344">
        <ele>216</ele>
        <time>2022-05-15T08:41:55Z</time>
      </trkpt>
      <trkpt lat="44.94322" lon="0.82333">
        <ele>216.4</ele>
        <time>2022-05-15T08:41:57Z</time>
      </trkpt>
      <trkpt lat="44.94322" lon="0.82328">
        <ele>216.6</ele>
        <time>2022-05-15T08:41:58Z</time>
      </trkpt>
      <trkpt lat="44.94323" lon="0.82323">
        <ele>216.8</ele>
        <time>2022-05-15T08:41:59Z</time>
      </trkpt>
      <trkpt lat="44.94325" lon="0.82313">
        <ele>217.2</ele>
        <time>2022-05-15T08:42:01Z</time>
      </trkpt>
      <trkpt lat="44.94326" lon="0.82304">
        <ele>217.6</ele>
        <time>2022-05-15T08:42:03Z</time>
      </trkpt>
      <trkpt lat="44.94326" lon="0.82296">
        <ele>218</ele>
        <time>2022-05-15T08:42:05Z</time>
      </trkpt>
      <trkpt lat="44.94327" lon="0.82287">
        <ele>218.4</ele>
        <time>2022-05-15T08:42:07Z</time>
      </trkpt>
      <trkpt lat="44.94328" lon="0.8228">
        <ele>218.9</ele>
        <time>2022-05-15T08:42:09Z</time>
      </trkpt>
      <trkpt lat="44.94329" lon="0.82272">
        <ele>219.3</ele>
        <time>2022-05-15T08:42:11Z</time>
      </trkpt>
      <trkpt lat="44.9433" lon="0.82264">
        <ele>219.7</ele>
        <time>2022-05-15T08:42:13Z</time>
      </trkpt>
      <trkpt lat="44.9433" lon="0.82256">
        <ele>220.1</ele>
        <time>2022-05-15T08:42:15Z</time>
      </trkpt>
      <trkpt lat="44.94331" lon="0.82252">
        <ele>220.3</ele>
        <time>2022-05-15T08:42:16Z</time>
      </trkpt>
      <trkpt lat="44.94331" lon="0.82248">
        <ele>220.5</ele>
        <time>2022-05-15T08:42:17Z</time>
      </trkpt>
      <trkpt lat="44.94332" lon="0.82241">
        <ele>220.8</ele>
        <time>2022-05-15T08:42:19Z</time>
      </trkpt>
      <trkpt lat="44.94333" lon="0.82233">
        <ele>221.1</ele>
        <time>2022-05-15T08:42:21Z</time>
      </trkpt>
      <trkpt lat="44.94334" lon="0.82225">
        <ele>221.4</ele>
        <time>2022-05-15T08:42:23Z</time>
      </trkpt>
      <trkpt lat="44.94334" lon="0.82221">
        <ele>221.6</ele>
        <time>2022-05-15T08:42:24Z</time>
      </trkpt>
      <trkpt lat="44.94334" lon="0.82217">
        <ele>221.7</ele>
        <time>2022-05-15T08:42:25Z</time>
      </trkpt>
      <trkpt lat="44.94335" lon="0.82209">
        <ele>222.1</ele>
        <time>2022-05-15T08:42:27Z</time>
      </trkpt>
      <trkpt lat="44.94337" lon="0.82202">
        <ele>222.3</ele>
        <time>2022-05-15T08:42:29Z</time>
      </trkpt>
      <trkpt lat="44.9434" lon="0.82195">
        <ele>222.6</ele>
        <time>2022-05-15T08:42:31Z</time>
      </trkpt>
      <trkpt lat="44.94344" lon="0.82191">
        <ele>222.7</ele>
        <time>2022-05-15T08:42:32Z</time>
      </trkpt>
      <trkpt lat="44.94346" lon="0.82193">
        <ele>223.2</ele>
        <time>2022-05-15T08:42:33Z</time>
      </trkpt>
      <trkpt lat="44.94351" lon="0.82198">
        <ele>223.5</ele>
        <time>2022-05-15T08:42:35Z</time>
      </trkpt>
      <trkpt lat="44.94353" lon="0.822">
        <ele>223.5</ele>
        <time>2022-05-15T08:42:36Z</time>
      </trkpt>
      <trkpt lat="44.94355" lon="0.82203">
        <ele>223.6</ele>
        <time>2022-05-15T08:42:37Z</time>
      </trkpt>
      <trkpt lat="44.9436" lon="0.82207">
        <ele>223.7</ele>
        <time>2022-05-15T08:42:39Z</time>
      </trkpt>
      <trkpt lat="44.94366" lon="0.82212">
        <ele>223.9</ele>
        <time>2022-05-15T08:42:41Z</time>
      </trkpt>
      <trkpt lat="44.94371" lon="0.82217">
        <ele>224.1</ele>
        <time>2022-05-15T08:42:43Z</time>
      </trkpt>
      <trkpt lat="44.94377" lon="0.82223">
        <ele>224.3</ele>
        <time>2022-05-15T08:42:45Z</time>
      </trkpt>
      <trkpt lat="44.94382" lon="0.82228">
        <ele>224.5</ele>
        <time>2022-05-15T08:42:47Z</time>
      </trkpt>
      <trkpt lat="44.94388" lon="0.82233">
        <ele>224.5</ele>
        <time>2022-05-15T08:42:49Z</time>
      </trkpt>
      <trkpt lat="44.9439" lon="0.82236">
        <ele>224.5</ele>
        <time>2022-05-15T08:42:50Z</time>
      </trkpt>
      <trkpt lat="44.94394" lon="0.82236">
        <ele>224.5</ele>
        <time>2022-05-15T08:42:51Z</time>
      </trkpt>
      <trkpt lat="44.94399" lon="0.82232">
        <ele>224.4</ele>
        <time>2022-05-15T08:42:53Z</time>
      </trkpt>
      <trkpt lat="44.94401" lon="0.82229">
        <ele>224.3</ele>
        <time>2022-05-15T08:42:54Z</time>
      </trkpt>
      <trkpt lat="44.94403" lon="0.82225">
        <ele>224.3</ele>
        <time>2022-05-15T08:42:55Z</time>
      </trkpt>
      <trkpt lat="44.94407" lon="0.82219">
        <ele>224.2</ele>
        <time>2022-05-15T08:42:57Z</time>
      </trkpt>
      <trkpt lat="44.94411" lon="0.82211">
        <ele>224.3</ele>
        <time>2022-05-15T08:42:59Z</time>
      </trkpt>
      <trkpt lat="44.94416" lon="0.82204">
        <ele>224.4</ele>
        <time>2022-05-15T08:43:01Z</time>
      </trkpt>
      <trkpt lat="44.9442" lon="0.82197">
        <ele>224.5</ele>
        <time>2022-05-15T08:43:03Z</time>
      </trkpt>
      <trkpt lat="44.94425" lon="0.82189">
        <ele>224.6</ele>
        <time>2022-05-15T08:43:05Z</time>
      </trkpt>
      <trkpt lat="44.94431" lon="0.82182">
        <ele>224.6</ele>
        <time>2022-05-15T08:43:07Z</time>
      </trkpt>
      <trkpt lat="44.94439" lon="0.82177">
        <ele>224.4</ele>
        <time>2022-05-15T08:43:09Z</time>
      </trkpt>
      <trkpt lat="44.94443" lon="0.82174">
        <ele>224.4</ele>
        <time>2022-05-15T08:43:10Z</time>
      </trkpt>
      <trkpt lat="44.94446" lon="0.82171">
        <ele>224.3</ele>
        <time>2022-05-15T08:43:11Z</time>
      </trkpt>
      <trkpt lat="44.94454" lon="0.82166">
        <ele>224.3</ele>
        <time>2022-05-15T08:43:13Z</time>
      </trkpt>
      <trkpt lat="44.94461" lon="0.8216">
        <ele>224.4</ele>
        <time>2022-05-15T08:43:15Z</time>
      </trkpt>
      <trkpt lat="44.94469" lon="0.82155">
        <ele>224.5</ele>
        <time>2022-05-15T08:43:17Z</time>
      </trkpt>
      <trkpt lat="44.94477" lon="0.82149">
        <ele>224.5</ele>
        <time>2022-05-15T08:43:19Z</time>
      </trkpt>
      <trkpt lat="44.94484" lon="0.82144">
        <ele>224.6</ele>
        <time>2022-05-15T08:43:21Z</time>
      </trkpt>
      <trkpt lat="44.94492" lon="0.82137">
        <ele>224.7</ele>
        <time>2022-05-15T08:43:23Z</time>
      </trkpt>
      <trkpt lat="44.94498" lon="0.8213">
        <ele>225.1</ele>
        <time>2022-05-15T08:43:25Z</time>
      </trkpt>
      <trkpt lat="44.94501" lon="0.82126">
        <ele>225.3</ele>
        <time>2022-05-15T08:43:26Z</time>
      </trkpt>
      <trkpt lat="44.94505" lon="0.82122">
        <ele>225.5</ele>
        <time>2022-05-15T08:43:27Z</time>
      </trkpt>
      <trkpt lat="44.94511" lon="0.82115">
        <ele>225.6</ele>
        <time>2022-05-15T08:43:29Z</time>
      </trkpt>
      <trkpt lat="44.94515" lon="0.82106">
        <ele>225.7</ele>
        <time>2022-05-15T08:43:31Z</time>
      </trkpt>
      <trkpt lat="44.94519" lon="0.82097">
        <ele>225.8</ele>
        <time>2022-05-15T08:43:33Z</time>
      </trkpt>
      <trkpt lat="44.94521" lon="0.82092">
        <ele>225.9</ele>
        <time>2022-05-15T08:43:34Z</time>
      </trkpt>
      <trkpt lat="44.94524" lon="0.82087">
        <ele>226</ele>
        <time>2022-05-15T08:43:35Z</time>
      </trkpt>
      <trkpt lat="44.94528" lon="0.82078">
        <ele>226.2</ele>
        <time>2022-05-15T08:43:37Z</time>
      </trkpt>
      <trkpt lat="44.94532" lon="0.8207">
        <ele>226.2</ele>
        <time>2022-05-15T08:43:39Z</time>
      </trkpt>
      <trkpt lat="44.94534" lon="0.82065">
        <ele>226.2</ele>
        <time>2022-05-15T08:43:40Z</time>
      </trkpt>
      <trkpt lat="44.94536" lon="0.82061">
        <ele>226.1</ele>
        <time>2022-05-15T08:43:41Z</time>
      </trkpt>
      <trkpt lat="44.94538" lon="0.82056">
        <ele>226.1</ele>
        <time>2022-05-15T08:43:42Z</time>
      </trkpt>
      <trkpt lat="44.9454" lon="0.82051">
        <ele>226</ele>
        <time>2022-05-15T08:43:43Z</time>
      </trkpt>
      <trkpt lat="44.94545" lon="0.8204">
        <ele>225.7</ele>
        <time>2022-05-15T08:43:45Z</time>
      </trkpt>
      <trkpt lat="44.94548" lon="0.82034">
        <ele>225.5</ele>
        <time>2022-05-15T08:43:46Z</time>
      </trkpt>
      <trkpt lat="44.94552" lon="0.8203">
        <ele>225.3</ele>
        <time>2022-05-15T08:43:47Z</time>
      </trkpt>
      <trkpt lat="44.94559" lon="0.8202">
        <ele>224.8</ele>
        <time>2022-05-15T08:43:49Z</time>
      </trkpt>
      <trkpt lat="44.94567" lon="0.82009">
        <ele>224.2</ele>
        <time>2022-05-15T08:43:51Z</time>
      </trkpt>
      <trkpt lat="44.94571" lon="0.82003">
        <ele>223.9</ele>
        <time>2022-05-15T08:43:52Z</time>
      </trkpt>
      <trkpt lat="44.94575" lon="0.81997">
        <ele>223.5</ele>
        <time>2022-05-15T08:43:53Z</time>
      </trkpt>
      <trkpt lat="44.94584" lon="0.81984">
        <ele>222.4</ele>
        <time>2022-05-15T08:43:55Z</time>
      </trkpt>
      <trkpt lat="44.94588" lon="0.81977">
        <ele>221.8</ele>
        <time>2022-05-15T08:43:56Z</time>
      </trkpt>
      <trkpt lat="44.9459" lon="0.81968">
        <ele>221.3</ele>
        <time>2022-05-15T08:43:57Z</time>
      </trkpt>
      <trkpt lat="44.94593" lon="0.81953">
        <ele>220.9</ele>
        <time>2022-05-15T08:43:59Z</time>
      </trkpt>
      <trkpt lat="44.9461" lon="0.81938">
        <ele>219.9</ele>
        <time>2022-05-15T08:44:01Z</time>
      </trkpt>
      <trkpt lat="44.94618" lon="0.81918">
        <ele>218.6</ele>
        <time>2022-05-15T08:44:03Z</time>
      </trkpt>
      <trkpt lat="44.94626" lon="0.81898">
        <ele>217.4</ele>
        <time>2022-05-15T08:44:05Z</time>
      </trkpt>
      <trkpt lat="44.94635" lon="0.81878">
        <ele>216.3</ele>
        <time>2022-05-15T08:44:07Z</time>
      </trkpt>
      <trkpt lat="44.94644" lon="0.81857">
        <ele>215.5</ele>
        <time>2022-05-15T08:44:09Z</time>
      </trkpt>
      <trkpt lat="44.9465" lon="0.8184">
        <ele>215.1</ele>
        <time>2022-05-15T08:44:11Z</time>
      </trkpt>
      <trkpt lat="44.94654" lon="0.81835">
        <ele>215</ele>
        <time>2022-05-15T08:44:12Z</time>
      </trkpt>
      <trkpt lat="44.94656" lon="0.81834">
        <ele>214.9</ele>
        <time>2022-05-15T08:44:13Z</time>
      </trkpt>
      <trkpt lat="44.94659" lon="0.81837">
        <ele>214.8</ele>
        <time>2022-05-15T08:44:14Z</time>
      </trkpt>
      <trkpt lat="44.94662" lon="0.81841">
        <ele>214.7</ele>
        <time>2022-05-15T08:44:15Z</time>
      </trkpt>
      <trkpt lat="44.94665" lon="0.81846">
        <ele>214.5</ele>
        <time>2022-05-15T08:44:16Z</time>
      </trkpt>
      <trkpt lat="44.94668" lon="0.81851">
        <ele>214.3</ele>
        <time>2022-05-15T08:44:17Z</time>
      </trkpt>
      <trkpt lat="44.94674" lon="0.81863">
        <ele>213.5</ele>
        <time>2022-05-15T08:44:19Z</time>
      </trkpt>
      <trkpt lat="44.94681" lon="0.81878">
        <ele>212.4</ele>
        <time>2022-05-15T08:44:21Z</time>
      </trkpt>
      <trkpt lat="44.94685" lon="0.81886">
        <ele>211.9</ele>
        <time>2022-05-15T08:44:22Z</time>
      </trkpt>
      <trkpt lat="44.94687" lon="0.81895">
        <ele>211.7</ele>
        <time>2022-05-15T08:44:23Z</time>
      </trkpt>
      <trkpt lat="44.9469" lon="0.81913">
        <ele>211.9</ele>
        <time>2022-05-15T08:44:25Z</time>
      </trkpt>
      <trkpt lat="44.94691" lon="0.81931">
        <ele>211.7</ele>
        <time>2022-05-15T08:44:27Z</time>
      </trkpt>
      <trkpt lat="44.94691" lon="0.81939">
        <ele>211.5</ele>
        <time>2022-05-15T08:44:28Z</time>
      </trkpt>
      <trkpt lat="44.94691" lon="0.81947">
        <ele>211.5</ele>
        <time>2022-05-15T08:44:29Z</time>
      </trkpt>
      <trkpt lat="44.94691" lon="0.81956">
        <ele>211.6</ele>
        <time>2022-05-15T08:44:30Z</time>
      </trkpt>
      <trkpt lat="44.9469" lon="0.81963">
        <ele>211.7</ele>
        <time>2022-05-15T08:44:31Z</time>
      </trkpt>
      <trkpt lat="44.9469" lon="0.81971">
        <ele>211.8</ele>
        <time>2022-05-15T08:44:32Z</time>
      </trkpt>
      <trkpt lat="44.9469" lon="0.81979">
        <ele>211.8</ele>
        <time>2022-05-15T08:44:33Z</time>
      </trkpt>
      <trkpt lat="44.9469" lon="0.81988">
        <ele>211.6</ele>
        <time>2022-05-15T08:44:34Z</time>
      </trkpt>
      <trkpt lat="44.94689" lon="0.81996">
        <ele>211.3</ele>
        <time>2022-05-15T08:44:35Z</time>
      </trkpt>
      <trkpt lat="44.94689" lon="0.82003">
        <ele>211.1</ele>
        <time>2022-05-15T08:44:36Z</time>
      </trkpt>
      <trkpt lat="44.94698" lon="0.82018">
        <ele>210.2</ele>
        <time>2022-05-15T08:44:37Z</time>
      </trkpt>
      <trkpt lat="44.94698" lon="0.82034">
        <ele>210.7</ele>
        <time>2022-05-15T08:44:39Z</time>
      </trkpt>
      <trkpt lat="44.94698" lon="0.82043">
        <ele>210.9</ele>
        <time>2022-05-15T08:44:40Z</time>
      </trkpt>
      <trkpt lat="44.94698" lon="0.82052">
        <ele>211.2</ele>
        <time>2022-05-15T08:44:41Z</time>
      </trkpt>
      <trkpt lat="44.94698" lon="0.82059">
        <ele>211.4</ele>
        <time>2022-05-15T08:44:42Z</time>
      </trkpt>
      <trkpt lat="44.94701" lon="0.82066">
        <ele>211.7</ele>
        <time>2022-05-15T08:44:43Z</time>
      </trkpt>
      <trkpt lat="44.94706" lon="0.82081">
        <ele>212.1</ele>
        <time>2022-05-15T08:44:45Z</time>
      </trkpt>
      <trkpt lat="44.94709" lon="0.82089">
        <ele>212.3</ele>
        <time>2022-05-15T08:44:46Z</time>
      </trkpt>
      <trkpt lat="44.94712" lon="0.82096">
        <ele>212.4</ele>
        <time>2022-05-15T08:44:47Z</time>
      </trkpt>
      <trkpt lat="44.94715" lon="0.82103">
        <ele>212.4</ele>
        <time>2022-05-15T08:44:48Z</time>
      </trkpt>
      <trkpt lat="44.94717" lon="0.8211">
        <ele>212.4</ele>
        <time>2022-05-15T08:44:49Z</time>
      </trkpt>
      <trkpt lat="44.94721" lon="0.82114">
        <ele>212.4</ele>
        <time>2022-05-15T08:44:50Z</time>
      </trkpt>
      <trkpt lat="44.94725" lon="0.82119">
        <ele>212.4</ele>
        <time>2022-05-15T08:44:51Z</time>
      </trkpt>
      <trkpt lat="44.94729" lon="0.82124">
        <ele>212.3</ele>
        <time>2022-05-15T08:44:52Z</time>
      </trkpt>
      <trkpt lat="44.94734" lon="0.8213">
        <ele>212</ele>
        <time>2022-05-15T08:44:53Z</time>
      </trkpt>
      <trkpt lat="44.94739" lon="0.82136">
        <ele>211.8</ele>
        <time>2022-05-15T08:44:54Z</time>
      </trkpt>
      <trkpt lat="44.94744" lon="0.82142">
        <ele>211.5</ele>
        <time>2022-05-15T08:44:55Z</time>
      </trkpt>
      <trkpt lat="44.94754" lon="0.82155">
        <ele>211</ele>
        <time>2022-05-15T08:44:57Z</time>
      </trkpt>
      <trkpt lat="44.9476" lon="0.82161">
        <ele>210.7</ele>
        <time>2022-05-15T08:44:58Z</time>
      </trkpt>
      <trkpt lat="44.94765" lon="0.82167">
        <ele>210.5</ele>
        <time>2022-05-15T08:44:59Z</time>
      </trkpt>
      <trkpt lat="44.94769" lon="0.82173">
        <ele>210.2</ele>
        <time>2022-05-15T08:45:00Z</time>
      </trkpt>
      <trkpt lat="44.94775" lon="0.8218">
        <ele>210</ele>
        <time>2022-05-15T08:45:01Z</time>
      </trkpt>
      <trkpt lat="44.94785" lon="0.82192">
        <ele>209.4</ele>
        <time>2022-05-15T08:45:03Z</time>
      </trkpt>
      <trkpt lat="44.94794" lon="0.82204">
        <ele>209</ele>
        <time>2022-05-15T08:45:05Z</time>
      </trkpt>
      <trkpt lat="44.94804" lon="0.82216">
        <ele>208.5</ele>
        <time>2022-05-15T08:45:07Z</time>
      </trkpt>
      <trkpt lat="44.94809" lon="0.82223">
        <ele>208.2</ele>
        <time>2022-05-15T08:45:08Z</time>
      </trkpt>
      <trkpt lat="44.94813" lon="0.82231">
        <ele>208</ele>
        <time>2022-05-15T08:45:09Z</time>
      </trkpt>
      <trkpt lat="44.94818" lon="0.82239">
        <ele>207.8</ele>
        <time>2022-05-15T08:45:10Z</time>
      </trkpt>
      <trkpt lat="44.94822" lon="0.82246">
        <ele>207.5</ele>
        <time>2022-05-15T08:45:11Z</time>
      </trkpt>
      <trkpt lat="44.94827" lon="0.82253">
        <ele>207.3</ele>
        <time>2022-05-15T08:45:12Z</time>
      </trkpt>
      <trkpt lat="44.94831" lon="0.82261">
        <ele>207.1</ele>
        <time>2022-05-15T08:45:13Z</time>
      </trkpt>
      <trkpt lat="44.94839" lon="0.82277">
        <ele>206.8</ele>
        <time>2022-05-15T08:45:15Z</time>
      </trkpt>
      <trkpt lat="44.94841" lon="0.82286">
        <ele>206.6</ele>
        <time>2022-05-15T08:45:16Z</time>
      </trkpt>
      <trkpt lat="44.94844" lon="0.82295">
        <ele>206.5</ele>
        <time>2022-05-15T08:45:17Z</time>
      </trkpt>
      <trkpt lat="44.94847" lon="0.82314">
        <ele>206.2</ele>
        <time>2022-05-15T08:45:19Z</time>
      </trkpt>
      <trkpt lat="44.9485" lon="0.82331">
        <ele>206.1</ele>
        <time>2022-05-15T08:45:21Z</time>
      </trkpt>
      <trkpt lat="44.9485" lon="0.8234">
        <ele>206</ele>
        <time>2022-05-15T08:45:22Z</time>
      </trkpt>
      <trkpt lat="44.94851" lon="0.82348">
        <ele>206</ele>
        <time>2022-05-15T08:45:23Z</time>
      </trkpt>
      <trkpt lat="44.94851" lon="0.82363">
        <ele>206.1</ele>
        <time>2022-05-15T08:45:25Z</time>
      </trkpt>
      <trkpt lat="44.94852" lon="0.82376">
        <ele>206.1</ele>
        <time>2022-05-15T08:45:27Z</time>
      </trkpt>
      <trkpt lat="44.94852" lon="0.82382">
        <ele>206.2</ele>
        <time>2022-05-15T08:45:28Z</time>
      </trkpt>
      <trkpt lat="44.94852" lon="0.82387">
        <ele>206.2</ele>
        <time>2022-05-15T08:45:29Z</time>
      </trkpt>
      <trkpt lat="44.94851" lon="0.82397">
        <ele>206.2</ele>
        <time>2022-05-15T08:45:31Z</time>
      </trkpt>
      <trkpt lat="44.94851" lon="0.82403">
        <ele>206.2</ele>
        <time>2022-05-15T08:45:32Z</time>
      </trkpt>
      <trkpt lat="44.94851" lon="0.82408">
        <ele>206.2</ele>
        <time>2022-05-15T08:45:33Z</time>
      </trkpt>
      <trkpt lat="44.9485" lon="0.82413">
        <ele>206.3</ele>
        <time>2022-05-15T08:45:34Z</time>
      </trkpt>
      <trkpt lat="44.94849" lon="0.82418">
        <ele>206.3</ele>
        <time>2022-05-15T08:45:35Z</time>
      </trkpt>
      <trkpt lat="44.94848" lon="0.82423">
        <ele>206.4</ele>
        <time>2022-05-15T08:45:36Z</time>
      </trkpt>
      <trkpt lat="44.94848" lon="0.82427">
        <ele>206.4</ele>
        <time>2022-05-15T08:45:37Z</time>
      </trkpt>
      <trkpt lat="44.94846" lon="0.82434">
        <ele>206.6</ele>
        <time>2022-05-15T08:45:39Z</time>
      </trkpt>
      <trkpt lat="44.94846" lon="0.82439">
        <ele>206.6</ele>
        <time>2022-05-15T08:45:40Z</time>
      </trkpt>
      <trkpt lat="44.94845" lon="0.82443">
        <ele>206.7</ele>
        <time>2022-05-15T08:45:41Z</time>
      </trkpt>
      <trkpt lat="44.94844" lon="0.82449">
        <ele>206.8</ele>
        <time>2022-05-15T08:45:43Z</time>
      </trkpt>
      <trkpt lat="44.94842" lon="0.82455">
        <ele>206.9</ele>
        <time>2022-05-15T08:45:45Z</time>
      </trkpt>
      <trkpt lat="44.9484" lon="0.82461">
        <ele>207</ele>
        <time>2022-05-15T08:45:47Z</time>
      </trkpt>
      <trkpt lat="44.94839" lon="0.82467">
        <ele>207.1</ele>
        <time>2022-05-15T08:45:49Z</time>
      </trkpt>
      <trkpt lat="44.94837" lon="0.82473">
        <ele>207.2</ele>
        <time>2022-05-15T08:45:51Z</time>
      </trkpt>
      <trkpt lat="44.94835" lon="0.8248">
        <ele>207.4</ele>
        <time>2022-05-15T08:45:53Z</time>
      </trkpt>
      <trkpt lat="44.94833" lon="0.82486">
        <ele>207.5</ele>
        <time>2022-05-15T08:45:55Z</time>
      </trkpt>
      <trkpt lat="44.94831" lon="0.82492">
        <ele>207.1</ele>
        <time>2022-05-15T08:45:57Z</time>
      </trkpt>
      <trkpt lat="44.94868" lon="0.82524">
        <ele>209.6</ele>
        <time>2022-05-15T08:45:59Z</time>
      </trkpt>
      <trkpt lat="44.94869" lon="0.82533">
        <ele>209.3</ele>
        <time>2022-05-15T08:46:01Z</time>
      </trkpt>
      <trkpt lat="44.9487" lon="0.82541">
        <ele>209.3</ele>
        <time>2022-05-15T08:46:03Z</time>
      </trkpt>
      <trkpt lat="44.94872" lon="0.8255">
        <ele>209</ele>
        <time>2022-05-15T08:46:05Z</time>
      </trkpt>
      <trkpt lat="44.94872" lon="0.82558">
        <ele>209</ele>
        <time>2022-05-15T08:46:07Z</time>
      </trkpt>
      <trkpt lat="44.94873" lon="0.82566">
        <ele>208.6</ele>
        <time>2022-05-15T08:46:09Z</time>
      </trkpt>
      <trkpt lat="44.94875" lon="0.82573">
        <ele>208.6</ele>
        <time>2022-05-15T08:46:11Z</time>
      </trkpt>
      <trkpt lat="44.94875" lon="0.82578">
        <ele>208.3</ele>
        <time>2022-05-15T08:46:12Z</time>
      </trkpt>
      <trkpt lat="44.94876" lon="0.82582">
        <ele>207.9</ele>
        <time>2022-05-15T08:46:13Z</time>
      </trkpt>
      <trkpt lat="44.94878" lon="0.82591">
        <ele>208.1</ele>
        <time>2022-05-15T08:46:15Z</time>
      </trkpt>
      <trkpt lat="44.94881" lon="0.82599">
        <ele>207.7</ele>
        <time>2022-05-15T08:46:17Z</time>
      </trkpt>
      <trkpt lat="44.94884" lon="0.82607">
        <ele>207.7</ele>
        <time>2022-05-15T08:46:19Z</time>
      </trkpt>
      <trkpt lat="44.94885" lon="0.82611">
        <ele>207.4</ele>
        <time>2022-05-15T08:46:20Z</time>
      </trkpt>
      <trkpt lat="44.94887" lon="0.82614">
        <ele>207</ele>
        <time>2022-05-15T08:46:21Z</time>
      </trkpt>
      <trkpt lat="44.94891" lon="0.82621">
        <ele>206.8</ele>
        <time>2022-05-15T08:46:23Z</time>
      </trkpt>
      <trkpt lat="44.94895" lon="0.82628">
        <ele>206.4</ele>
        <time>2022-05-15T08:46:25Z</time>
      </trkpt>
      <trkpt lat="44.949" lon="0.8264">
        <ele>206.2</ele>
        <time>2022-05-15T08:46:27Z</time>
      </trkpt>
      <trkpt lat="44.94903" lon="0.82631">
        <ele>206.1</ele>
        <time>2022-05-15T08:46:29Z</time>
      </trkpt>
      <trkpt lat="44.94906" lon="0.82625">
        <ele>206</ele>
        <time>2022-05-15T08:46:31Z</time>
      </trkpt>
      <trkpt lat="44.94909" lon="0.82617">
        <ele>205.9</ele>
        <time>2022-05-15T08:46:33Z</time>
      </trkpt>
      <trkpt lat="44.94912" lon="0.82609">
        <ele>205.7</ele>
        <time>2022-05-15T08:46:35Z</time>
      </trkpt>
      <trkpt lat="44.94917" lon="0.82598">
        <ele>205.6</ele>
        <time>2022-05-15T08:46:37Z</time>
      </trkpt>
      <trkpt lat="44.9492" lon="0.82592">
        <ele>205.5</ele>
        <time>2022-05-15T08:46:38Z</time>
      </trkpt>
      <trkpt lat="44.94923" lon="0.82586">
        <ele>205.4</ele>
        <time>2022-05-15T08:46:39Z</time>
      </trkpt>
      <trkpt lat="44.94927" lon="0.82581">
        <ele>205.3</ele>
        <time>2022-05-15T08:46:40Z</time>
      </trkpt>
      <trkpt lat="44.94931" lon="0.82576">
        <ele>205.2</ele>
        <time>2022-05-15T08:46:41Z</time>
      </trkpt>
      <trkpt lat="44.94941" lon="0.82568">
        <ele>204.9</ele>
        <time>2022-05-15T08:46:43Z</time>
      </trkpt>
      <trkpt lat="44.9495" lon="0.8256">
        <ele>204.7</ele>
        <time>2022-05-15T08:46:45Z</time>
      </trkpt>
      <trkpt lat="44.94959" lon="0.82556">
        <ele>204.5</ele>
        <time>2022-05-15T08:46:47Z</time>
      </trkpt>
      <trkpt lat="44.94965" lon="0.82561">
        <ele>204.4</ele>
        <time>2022-05-15T08:46:49Z</time>
      </trkpt>
      <trkpt lat="44.9497" lon="0.82564">
        <ele>204.3</ele>
        <time>2022-05-15T08:46:50Z</time>
      </trkpt>
      <trkpt lat="44.94974" lon="0.82569">
        <ele>204.2</ele>
        <time>2022-05-15T08:46:51Z</time>
      </trkpt>
      <trkpt lat="44.94984" lon="0.82579">
        <ele>204</ele>
        <time>2022-05-15T08:46:53Z</time>
      </trkpt>
      <trkpt lat="44.9499" lon="0.82585">
        <ele>203.8</ele>
        <time>2022-05-15T08:46:54Z</time>
      </trkpt>
      <trkpt lat="44.94996" lon="0.82591">
        <ele>203.7</ele>
        <time>2022-05-15T08:46:55Z</time>
      </trkpt>
      <trkpt lat="44.9501" lon="0.82601">
        <ele>203.4</ele>
        <time>2022-05-15T08:46:57Z</time>
      </trkpt>
      <trkpt lat="44.95018" lon="0.82605">
        <ele>203.2</ele>
        <time>2022-05-15T08:46:58Z</time>
      </trkpt>
      <trkpt lat="44.95025" lon="0.8261">
        <ele>203</ele>
        <time>2022-05-15T08:46:59Z</time>
      </trkpt>
      <trkpt lat="44.95042" lon="0.8262">
        <ele>202.7</ele>
        <time>2022-05-15T08:47:01Z</time>
      </trkpt>
      <trkpt lat="44.95057" lon="0.82629">
        <ele>202.4</ele>
        <time>2022-05-15T08:47:03Z</time>
      </trkpt>
      <trkpt lat="44.95071" lon="0.82638">
        <ele>202.1</ele>
        <time>2022-05-15T08:47:05Z</time>
      </trkpt>
      <trkpt lat="44.95077" lon="0.82641">
        <ele>202</ele>
        <time>2022-05-15T08:47:07Z</time>
      </trkpt>
      <trkpt lat="44.95079" lon="0.82644">
        <ele>201.9</ele>
        <time>2022-05-15T08:47:09Z</time>
      </trkpt>
      <trkpt lat="44.9508" lon="0.82646">
        <ele>201.9</ele>
        <time>2022-05-15T08:47:10Z</time>
      </trkpt>
      <trkpt lat="44.95081" lon="0.82649">
        <ele>201.9</ele>
        <time>2022-05-15T08:47:11Z</time>
      </trkpt>
      <trkpt lat="44.95081" lon="0.82651">
        <ele>201.9</ele>
        <time>2022-05-15T08:47:12Z</time>
      </trkpt>
      <trkpt lat="44.95082" lon="0.82653">
        <ele>201.9</ele>
        <time>2022-05-15T08:47:13Z</time>
      </trkpt>
      <trkpt lat="44.95081" lon="0.82673">
        <ele>199.7</ele>
        <time>2022-05-15T08:47:15Z</time>
      </trkpt>
      <trkpt lat="44.9508" lon="0.82684">
        <ele>199.7</ele>
        <time>2022-05-15T08:47:16Z</time>
      </trkpt>
      <trkpt lat="44.95078" lon="0.82697">
        <ele>198.3</ele>
        <time>2022-05-15T08:47:17Z</time>
      </trkpt>
      <trkpt lat="44.95076" lon="0.82709">
        <ele>197.1</ele>
        <time>2022-05-15T08:47:18Z</time>
      </trkpt>
      <trkpt lat="44.95078" lon="0.82719">
        <ele>197.1</ele>
        <time>2022-05-15T08:47:19Z</time>
      </trkpt>
      <trkpt lat="44.95086" lon="0.82734">
        <ele>194</ele>
        <time>2022-05-15T08:47:21Z</time>
      </trkpt>
      <trkpt lat="44.95097" lon="0.82748">
        <ele>191.3</ele>
        <time>2022-05-15T08:47:23Z</time>
      </trkpt>
      <trkpt lat="44.95108" lon="0.82762">
        <ele>189.2</ele>
        <time>2022-05-15T08:47:25Z</time>
      </trkpt>
      <trkpt lat="44.95118" lon="0.82774">
        <ele>189.2</ele>
        <time>2022-05-15T08:47:27Z</time>
      </trkpt>
      <trkpt lat="44.95122" lon="0.82778">
        <ele>187.5</ele>
        <time>2022-05-15T08:47:28Z</time>
      </trkpt>
      <trkpt lat="44.95125" lon="0.82781">
        <ele>187.5</ele>
        <time>2022-05-15T08:47:29Z</time>
      </trkpt>
      <trkpt lat="44.95127" lon="0.82785">
        <ele>187.5</ele>
        <time>2022-05-15T08:47:31Z</time>
      </trkpt>
      <trkpt lat="44.95133" lon="0.82791">
        <ele>186.6</ele>
        <time>2022-05-15T08:47:33Z</time>
      </trkpt>
      <trkpt lat="44.95138" lon="0.82794">
        <ele>186.4</ele>
        <time>2022-05-15T08:47:34Z</time>
      </trkpt>
      <trkpt lat="44.95141" lon="0.82797">
        <ele>186.4</ele>
        <time>2022-05-15T08:47:35Z</time>
      </trkpt>
      <trkpt lat="44.95147" lon="0.82803">
        <ele>186</ele>
        <time>2022-05-15T08:47:37Z</time>
      </trkpt>
      <trkpt lat="44.95148" lon="0.82805">
        <ele>186</ele>
        <time>2022-05-15T08:47:38Z</time>
      </trkpt>
      <trkpt lat="44.95148" lon="0.82808">
        <ele>186</ele>
        <time>2022-05-15T08:47:39Z</time>
      </trkpt>
      <trkpt lat="44.95149" lon="0.82814">
        <ele>185.8</ele>
        <time>2022-05-15T08:47:41Z</time>
      </trkpt>
      <trkpt lat="44.95151" lon="0.82816">
        <ele>185.8</ele>
        <time>2022-05-15T08:47:42Z</time>
      </trkpt>
      <trkpt lat="44.95154" lon="0.82817">
        <ele>185.8</ele>
        <time>2022-05-15T08:47:43Z</time>
      </trkpt>
      <trkpt lat="44.95158" lon="0.82818">
        <ele>185.8</ele>
        <time>2022-05-15T08:47:45Z</time>
      </trkpt>
      <trkpt lat="44.95157" lon="0.82827">
        <ele>185.8</ele>
        <time>2022-05-15T08:47:46Z</time>
      </trkpt>
      <trkpt lat="44.95157" lon="0.82835">
        <ele>185.5</ele>
        <time>2022-05-15T08:47:47Z</time>
      </trkpt>
      <trkpt lat="44.95159" lon="0.82848">
        <ele>185.3</ele>
        <time>2022-05-15T08:47:49Z</time>
      </trkpt>
      <trkpt lat="44.95158" lon="0.82855">
        <ele>185.3</ele>
        <time>2022-05-15T08:47:50Z</time>
      </trkpt>
      <trkpt lat="44.95159" lon="0.82863">
        <ele>185.1</ele>
        <time>2022-05-15T08:47:51Z</time>
      </trkpt>
      <trkpt lat="44.95162" lon="0.82878">
        <ele>185.1</ele>
        <time>2022-05-15T08:47:53Z</time>
      </trkpt>
      <trkpt lat="44.95163" lon="0.82883">
        <ele>185.1</ele>
        <time>2022-05-15T08:47:54Z</time>
      </trkpt>
      <trkpt lat="44.95165" lon="0.82889">
        <ele>185.1</ele>
        <time>2022-05-15T08:47:55Z</time>
      </trkpt>
      <trkpt lat="44.95169" lon="0.82892">
        <ele>185.2</ele>
        <time>2022-05-15T08:47:56Z</time>
      </trkpt>
      <trkpt lat="44.95171" lon="0.82899">
        <ele>185.4</ele>
        <time>2022-05-15T08:47:57Z</time>
      </trkpt>
      <trkpt lat="44.95174" lon="0.82902">
        <ele>185.4</ele>
        <time>2022-05-15T08:47:58Z</time>
      </trkpt>
      <trkpt lat="44.95177" lon="0.82908">
        <ele>185.4</ele>
        <time>2022-05-15T08:47:59Z</time>
      </trkpt>
      <trkpt lat="44.95179" lon="0.8292">
        <ele>185.8</ele>
        <time>2022-05-15T08:48:01Z</time>
      </trkpt>
      <trkpt lat="44.95181" lon="0.82931">
        <ele>186.8</ele>
        <time>2022-05-15T08:48:03Z</time>
      </trkpt>
      <trkpt lat="44.95183" lon="0.82942">
        <ele>186.8</ele>
        <time>2022-05-15T08:48:05Z</time>
      </trkpt>
      <trkpt lat="44.95187" lon="0.8295">
        <ele>187.3</ele>
        <time>2022-05-15T08:48:07Z</time>
      </trkpt>
      <trkpt lat="44.95188" lon="0.82964">
        <ele>187.3</ele>
        <time>2022-05-15T08:48:09Z</time>
      </trkpt>
      <trkpt lat="44.95189" lon="0.82976">
        <ele>187.5</ele>
        <time>2022-05-15T08:48:11Z</time>
      </trkpt>
      <trkpt lat="44.95188" lon="0.82987">
        <ele>187.7</ele>
        <time>2022-05-15T08:48:13Z</time>
      </trkpt>
      <trkpt lat="44.95191" lon="0.82994">
        <ele>187.7</ele>
        <time>2022-05-15T08:48:15Z</time>
      </trkpt>
      <trkpt lat="44.95196" lon="0.82996">
        <ele>188.1</ele>
        <time>2022-05-15T08:48:16Z</time>
      </trkpt>
      <trkpt lat="44.95196" lon="0.83004">
        <ele>188.5</ele>
        <time>2022-05-15T08:48:17Z</time>
      </trkpt>
      <trkpt lat="44.95196" lon="0.83009">
        <ele>188.5</ele>
        <time>2022-05-15T08:48:19Z</time>
      </trkpt>
      <trkpt lat="44.95196" lon="0.83017">
        <ele>188.7</ele>
        <time>2022-05-15T08:48:21Z</time>
      </trkpt>
      <trkpt lat="44.95196" lon="0.83018">
        <ele>188.7</ele>
        <time>2022-05-15T08:48:23Z</time>
      </trkpt>
      <trkpt lat="44.95196" lon="0.83019">
        <ele>188.7</ele>
        <time>2022-05-15T08:48:25Z</time>
      </trkpt>
      <trkpt lat="44.95201" lon="0.83027">
        <ele>188.7</ele>
        <time>2022-05-15T08:48:29Z</time>
      </trkpt>
      <trkpt lat="44.95201" lon="0.83033">
        <ele>189.1</ele>
        <time>2022-05-15T08:48:31Z</time>
      </trkpt>
      <trkpt lat="44.95201" lon="0.83037">
        <ele>189.1</ele>
        <time>2022-05-15T08:48:32Z</time>
      </trkpt>
      <trkpt lat="44.95203" lon="0.83041">
        <ele>189.1</ele>
        <time>2022-05-15T08:48:33Z</time>
      </trkpt>
      <trkpt lat="44.95205" lon="0.83048">
        <ele>189.3</ele>
        <time>2022-05-15T08:48:35Z</time>
      </trkpt>
      <trkpt lat="44.95206" lon="0.83049">
        <ele>189.3</ele>
        <time>2022-05-15T08:48:36Z</time>
      </trkpt>
      <trkpt lat="44.95208" lon="0.83051">
        <ele>190</ele>
        <time>2022-05-15T08:48:37Z</time>
      </trkpt>
      <trkpt lat="44.95208" lon="0.83055">
        <ele>190.1</ele>
        <time>2022-05-15T08:48:38Z</time>
      </trkpt>
      <trkpt lat="44.95208" lon="0.83059">
        <ele>190.1</ele>
        <time>2022-05-15T08:48:39Z</time>
      </trkpt>
      <trkpt lat="44.95207" lon="0.83063">
        <ele>190.1</ele>
        <time>2022-05-15T08:48:40Z</time>
      </trkpt>
      <trkpt lat="44.95207" lon="0.83069">
        <ele>191.1</ele>
        <time>2022-05-15T08:48:41Z</time>
      </trkpt>
      <trkpt lat="44.95204" lon="0.83075">
        <ele>190.8</ele>
        <time>2022-05-15T08:48:43Z</time>
      </trkpt>
      <trkpt lat="44.95206" lon="0.83079">
        <ele>191.1</ele>
        <time>2022-05-15T08:48:44Z</time>
      </trkpt>
      <trkpt lat="44.95207" lon="0.83082">
        <ele>191.1</ele>
        <time>2022-05-15T08:48:45Z</time>
      </trkpt>
      <trkpt lat="44.95209" lon="0.83087">
        <ele>192.2</ele>
        <time>2022-05-15T08:48:47Z</time>
      </trkpt>
      <trkpt lat="44.9521" lon="0.83091">
        <ele>192.2</ele>
        <time>2022-05-15T08:48:48Z</time>
      </trkpt>
      <trkpt lat="44.9521" lon="0.83093">
        <ele>192.3</ele>
        <time>2022-05-15T08:48:49Z</time>
      </trkpt>
      <trkpt lat="44.9521" lon="0.83102">
        <ele>193.1</ele>
        <time>2022-05-15T08:48:51Z</time>
      </trkpt>
      <trkpt lat="44.9521" lon="0.83109">
        <ele>193.1</ele>
        <time>2022-05-15T08:48:53Z</time>
      </trkpt>
      <trkpt lat="44.95211" lon="0.83113">
        <ele>193.1</ele>
        <time>2022-05-15T08:48:54Z</time>
      </trkpt>
      <trkpt lat="44.95212" lon="0.83115">
        <ele>193.1</ele>
        <time>2022-05-15T08:48:55Z</time>
      </trkpt>
      <trkpt lat="44.95211" lon="0.83121">
        <ele>193.4</ele>
        <time>2022-05-15T08:48:56Z</time>
      </trkpt>
      <trkpt lat="44.9521" lon="0.83125">
        <ele>193.4</ele>
        <time>2022-05-15T08:48:57Z</time>
      </trkpt>
      <trkpt lat="44.95209" lon="0.83129">
        <ele>193.4</ele>
        <time>2022-05-15T08:48:58Z</time>
      </trkpt>
      <trkpt lat="44.9521" lon="0.83133">
        <ele>193.4</ele>
        <time>2022-05-15T08:48:59Z</time>
      </trkpt>
      <trkpt lat="44.9521" lon="0.83141">
        <ele>193.3</ele>
        <time>2022-05-15T08:49:01Z</time>
      </trkpt>
      <trkpt lat="44.95209" lon="0.83144">
        <ele>193.3</ele>
        <time>2022-05-15T08:49:02Z</time>
      </trkpt>
      <trkpt lat="44.9521" lon="0.83147">
        <ele>193.3</ele>
        <time>2022-05-15T08:49:03Z</time>
      </trkpt>
      <trkpt lat="44.95213" lon="0.83154">
        <ele>193.1</ele>
        <time>2022-05-15T08:49:05Z</time>
      </trkpt>
      <trkpt lat="44.95217" lon="0.83156">
        <ele>193.9</ele>
        <time>2022-05-15T08:49:06Z</time>
      </trkpt>
      <trkpt lat="44.95218" lon="0.8316">
        <ele>193.9</ele>
        <time>2022-05-15T08:49:07Z</time>
      </trkpt>
      <trkpt lat="44.95219" lon="0.83165">
        <ele>193.9</ele>
        <time>2022-05-15T08:49:09Z</time>
      </trkpt>
      <trkpt lat="44.95221" lon="0.83167">
        <ele>193.9</ele>
        <time>2022-05-15T08:49:10Z</time>
      </trkpt>
      <trkpt lat="44.95221" lon="0.83168">
        <ele>193.9</ele>
        <time>2022-05-15T08:49:11Z</time>
      </trkpt>
      <trkpt lat="44.95221" lon="0.83169">
        <ele>193.9</ele>
        <time>2022-05-15T08:49:12Z</time>
      </trkpt>
      <trkpt lat="44.95225" lon="0.83174">
        <ele>193.7</ele>
        <time>2022-05-15T08:49:14Z</time>
      </trkpt>
      <trkpt lat="44.95227" lon="0.83177">
        <ele>193.7</ele>
        <time>2022-05-15T08:49:15Z</time>
      </trkpt>
      <trkpt lat="44.9523" lon="0.83179">
        <ele>194.8</ele>
        <time>2022-05-15T08:49:16Z</time>
      </trkpt>
      <trkpt lat="44.95231" lon="0.83182">
        <ele>194.8</ele>
        <time>2022-05-15T08:49:17Z</time>
      </trkpt>
      <trkpt lat="44.95233" lon="0.83184">
        <ele>194.8</ele>
        <time>2022-05-15T08:49:18Z</time>
      </trkpt>
      <trkpt lat="44.95238" lon="0.83186">
        <ele>194.8</ele>
        <time>2022-05-15T08:49:19Z</time>
      </trkpt>
      <trkpt lat="44.95243" lon="0.83191">
        <ele>195.6</ele>
        <time>2022-05-15T08:49:21Z</time>
      </trkpt>
      <trkpt lat="44.95245" lon="0.83193">
        <ele>195.6</ele>
        <time>2022-05-15T08:49:22Z</time>
      </trkpt>
      <trkpt lat="44.95247" lon="0.83196">
        <ele>195.6</ele>
        <time>2022-05-15T08:49:23Z</time>
      </trkpt>
      <trkpt lat="44.9525" lon="0.83201">
        <ele>195.6</ele>
        <time>2022-05-15T08:49:25Z</time>
      </trkpt>
      <trkpt lat="44.95251" lon="0.83207">
        <ele>194.8</ele>
        <time>2022-05-15T08:49:27Z</time>
      </trkpt>
      <trkpt lat="44.95253" lon="0.8321">
        <ele>195.9</ele>
        <time>2022-05-15T08:49:28Z</time>
      </trkpt>
      <trkpt lat="44.95253" lon="0.83211">
        <ele>195.9</ele>
        <time>2022-05-15T08:49:29Z</time>
      </trkpt>
      <trkpt lat="44.95256" lon="0.83212">
        <ele>195.9</ele>
        <time>2022-05-15T08:49:30Z</time>
      </trkpt>
      <trkpt lat="44.95257" lon="0.83215">
        <ele>196</ele>
        <time>2022-05-15T08:49:31Z</time>
      </trkpt>
      <trkpt lat="44.95256" lon="0.83218">
        <ele>196</ele>
        <time>2022-05-15T08:49:32Z</time>
      </trkpt>
      <trkpt lat="44.95258" lon="0.83221">
        <ele>196</ele>
        <time>2022-05-15T08:49:33Z</time>
      </trkpt>
      <trkpt lat="44.95261" lon="0.83223">
        <ele>195</ele>
        <time>2022-05-15T08:49:34Z</time>
      </trkpt>
      <trkpt lat="44.95263" lon="0.83225">
        <ele>195.1</ele>
        <time>2022-05-15T08:49:35Z</time>
      </trkpt>
      <trkpt lat="44.95267" lon="0.8323">
        <ele>195.8</ele>
        <time>2022-05-15T08:49:37Z</time>
      </trkpt>
      <trkpt lat="44.95269" lon="0.83235">
        <ele>195.8</ele>
        <time>2022-05-15T08:49:38Z</time>
      </trkpt>
      <trkpt lat="44.95271" lon="0.83238">
        <ele>195.8</ele>
        <time>2022-05-15T08:49:39Z</time>
      </trkpt>
      <trkpt lat="44.95272" lon="0.83242">
        <ele>194.8</ele>
        <time>2022-05-15T08:49:40Z</time>
      </trkpt>
      <trkpt lat="44.95274" lon="0.83245">
        <ele>194.8</ele>
        <time>2022-05-15T08:49:41Z</time>
      </trkpt>
      <trkpt lat="44.95275" lon="0.83247">
        <ele>194.8</ele>
        <time>2022-05-15T08:49:42Z</time>
      </trkpt>
      <trkpt lat="44.95277" lon="0.83251">
        <ele>194.9</ele>
        <time>2022-05-15T08:49:43Z</time>
      </trkpt>
      <trkpt lat="44.9528" lon="0.83253">
        <ele>195.2</ele>
        <time>2022-05-15T08:49:44Z</time>
      </trkpt>
      <trkpt lat="44.95284" lon="0.83254">
        <ele>195.2</ele>
        <time>2022-05-15T08:49:45Z</time>
      </trkpt>
      <trkpt lat="44.95288" lon="0.83255">
        <ele>195.2</ele>
        <time>2022-05-15T08:49:46Z</time>
      </trkpt>
      <trkpt lat="44.9529" lon="0.83258">
        <ele>194.3</ele>
        <time>2022-05-15T08:49:47Z</time>
      </trkpt>
      <trkpt lat="44.95293" lon="0.83261">
        <ele>194.3</ele>
        <time>2022-05-15T08:49:49Z</time>
      </trkpt>
      <trkpt lat="44.95293" lon="0.83261">
        <ele>194.3</ele>
        <time>2022-05-15T08:49:50Z</time>
      </trkpt>
      <trkpt lat="44.95297" lon="0.83272">
        <ele>194.3</ele>
        <time>2022-05-15T08:49:53Z</time>
      </trkpt>
      <trkpt lat="44.95299" lon="0.83277">
        <ele>193.5</ele>
        <time>2022-05-15T08:49:54Z</time>
      </trkpt>
      <trkpt lat="44.95301" lon="0.83281">
        <ele>193.5</ele>
        <time>2022-05-15T08:49:55Z</time>
      </trkpt>
      <trkpt lat="44.95305" lon="0.83289">
        <ele>193.8</ele>
        <time>2022-05-15T08:49:57Z</time>
      </trkpt>
      <trkpt lat="44.9531" lon="0.83291">
        <ele>192.8</ele>
        <time>2022-05-15T08:49:58Z</time>
      </trkpt>
      <trkpt lat="44.95313" lon="0.83295">
        <ele>192.8</ele>
        <time>2022-05-15T08:49:59Z</time>
      </trkpt>
      <trkpt lat="44.95318" lon="0.83303">
        <ele>193</ele>
        <time>2022-05-15T08:50:01Z</time>
      </trkpt>
      <trkpt lat="44.95323" lon="0.83309">
        <ele>192.2</ele>
        <time>2022-05-15T08:50:02Z</time>
      </trkpt>
      <trkpt lat="44.95326" lon="0.83314">
        <ele>192.2</ele>
        <time>2022-05-15T08:50:03Z</time>
      </trkpt>
      <trkpt lat="44.9533" lon="0.8332">
        <ele>192.7</ele>
        <time>2022-05-15T08:50:05Z</time>
      </trkpt>
      <trkpt lat="44.95331" lon="0.83324">
        <ele>192.7</ele>
        <time>2022-05-15T08:50:06Z</time>
      </trkpt>
      <trkpt lat="44.95332" lon="0.83327">
        <ele>191.8</ele>
        <time>2022-05-15T08:50:07Z</time>
      </trkpt>
      <trkpt lat="44.95333" lon="0.83338">
        <ele>191.8</ele>
        <time>2022-05-15T08:50:09Z</time>
      </trkpt>
      <trkpt lat="44.95335" lon="0.83343">
        <ele>191.3</ele>
        <time>2022-05-15T08:50:10Z</time>
      </trkpt>
      <trkpt lat="44.95336" lon="0.83347">
        <ele>191.3</ele>
        <time>2022-05-15T08:50:11Z</time>
      </trkpt>
      <trkpt lat="44.95339" lon="0.83354">
        <ele>191.3</ele>
        <time>2022-05-15T08:50:13Z</time>
      </trkpt>
      <trkpt lat="44.95342" lon="0.83358">
        <ele>191.3</ele>
        <time>2022-05-15T08:50:14Z</time>
      </trkpt>
      <trkpt lat="44.95344" lon="0.8336">
        <ele>191</ele>
        <time>2022-05-15T08:50:15Z</time>
      </trkpt>
      <trkpt lat="44.95352" lon="0.8336">
        <ele>191</ele>
        <time>2022-05-15T08:50:17Z</time>
      </trkpt>
      <trkpt lat="44.95356" lon="0.83359">
        <ele>191</ele>
        <time>2022-05-15T08:50:18Z</time>
      </trkpt>
      <trkpt lat="44.9536" lon="0.83357">
        <ele>191.8</ele>
        <time>2022-05-15T08:50:19Z</time>
      </trkpt>
      <trkpt lat="44.95365" lon="0.83354">
        <ele>192.5</ele>
        <time>2022-05-15T08:50:21Z</time>
      </trkpt>
      <trkpt lat="44.95367" lon="0.83355">
        <ele>192.5</ele>
        <time>2022-05-15T08:50:22Z</time>
      </trkpt>
      <trkpt lat="44.9537" lon="0.83357">
        <ele>192.5</ele>
        <time>2022-05-15T08:50:23Z</time>
      </trkpt>
      <trkpt lat="44.95375" lon="0.83364">
        <ele>192</ele>
        <time>2022-05-15T08:50:25Z</time>
      </trkpt>
      <trkpt lat="44.95381" lon="0.83369">
        <ele>192</ele>
        <time>2022-05-15T08:50:27Z</time>
      </trkpt>
      <trkpt lat="44.95386" lon="0.83375">
        <ele>192</ele>
        <time>2022-05-15T08:50:29Z</time>
      </trkpt>
      <trkpt lat="44.95392" lon="0.8338">
        <ele>191.6</ele>
        <time>2022-05-15T08:50:31Z</time>
      </trkpt>
      <trkpt lat="44.95394" lon="0.83382">
        <ele>191.6</ele>
        <time>2022-05-15T08:50:32Z</time>
      </trkpt>
      <trkpt lat="44.95396" lon="0.83385">
        <ele>191.6</ele>
        <time>2022-05-15T08:50:33Z</time>
      </trkpt>
      <trkpt lat="44.95398" lon="0.83388">
        <ele>191.6</ele>
        <time>2022-05-15T08:50:35Z</time>
      </trkpt>
      <trkpt lat="44.95401" lon="0.83393">
        <ele>191.7</ele>
        <time>2022-05-15T08:50:37Z</time>
      </trkpt>
      <trkpt lat="44.95404" lon="0.83396">
        <ele>191.7</ele>
        <time>2022-05-15T08:50:38Z</time>
      </trkpt>
      <trkpt lat="44.95407" lon="0.83398">
        <ele>191.7</ele>
        <time>2022-05-15T08:50:39Z</time>
      </trkpt>
      <trkpt lat="44.95412" lon="0.83404">
        <ele>192.4</ele>
        <time>2022-05-15T08:50:41Z</time>
      </trkpt>
      <trkpt lat="44.95416" lon="0.83411">
        <ele>192</ele>
        <time>2022-05-15T08:50:43Z</time>
      </trkpt>
      <trkpt lat="44.95421" lon="0.83419">
        <ele>192</ele>
        <time>2022-05-15T08:50:45Z</time>
      </trkpt>
      <trkpt lat="44.95423" lon="0.83423">
        <ele>192</ele>
        <time>2022-05-15T08:50:46Z</time>
      </trkpt>
      <trkpt lat="44.95425" lon="0.83427">
        <ele>192.8</ele>
        <time>2022-05-15T08:50:47Z</time>
      </trkpt>
      <trkpt lat="44.95429" lon="0.83434">
        <ele>192.6</ele>
        <time>2022-05-15T08:50:49Z</time>
      </trkpt>
      <trkpt lat="44.95433" lon="0.83441">
        <ele>192.6</ele>
        <time>2022-05-15T08:50:51Z</time>
      </trkpt>
      <trkpt lat="44.95437" lon="0.83447">
        <ele>193.5</ele>
        <time>2022-05-15T08:50:53Z</time>
      </trkpt>
      <trkpt lat="44.95441" lon="0.83453">
        <ele>193.5</ele>
        <time>2022-05-15T08:50:55Z</time>
      </trkpt>
      <trkpt lat="44.95444" lon="0.83457">
        <ele>193.5</ele>
        <time>2022-05-15T08:50:57Z</time>
      </trkpt>
      <trkpt lat="44.95447" lon="0.83459">
        <ele>193.5</ele>
        <time>2022-05-15T08:50:58Z</time>
      </trkpt>
      <trkpt lat="44.95448" lon="0.8346">
        <ele>194.5</ele>
        <time>2022-05-15T08:50:59Z</time>
      </trkpt>
      <trkpt lat="44.95453" lon="0.8346">
        <ele>194.5</ele>
        <time>2022-05-15T08:51:01Z</time>
      </trkpt>
      <trkpt lat="44.95455" lon="0.8346">
        <ele>194.5</ele>
        <time>2022-05-15T08:51:02Z</time>
      </trkpt>
      <trkpt lat="44.95457" lon="0.8346">
        <ele>194.5</ele>
        <time>2022-05-15T08:51:03Z</time>
      </trkpt>
      <trkpt lat="44.95461" lon="0.83459">
        <ele>195.2</ele>
        <time>2022-05-15T08:51:05Z</time>
      </trkpt>
      <trkpt lat="44.95464" lon="0.8346">
        <ele>195.2</ele>
        <time>2022-05-15T08:51:07Z</time>
      </trkpt>
      <trkpt lat="44.95466" lon="0.83459">
        <ele>195.2</ele>
        <time>2022-05-15T08:51:08Z</time>
      </trkpt>
      <trkpt lat="44.95467" lon="0.83459">
        <ele>195.2</ele>
        <time>2022-05-15T08:51:09Z</time>
      </trkpt>
      <trkpt lat="44.95469" lon="0.83459">
        <ele>195.2</ele>
        <time>2022-05-15T08:51:11Z</time>
      </trkpt>
      <trkpt lat="44.95473" lon="0.83459">
        <ele>195.7</ele>
        <time>2022-05-15T08:51:13Z</time>
      </trkpt>
      <trkpt lat="44.95478" lon="0.83458">
        <ele>195.7</ele>
        <time>2022-05-15T08:51:15Z</time>
      </trkpt>
      <trkpt lat="44.95482" lon="0.83458">
        <ele>195.7</ele>
        <time>2022-05-15T08:51:17Z</time>
      </trkpt>
      <trkpt lat="44.95485" lon="0.83459">
        <ele>196.1</ele>
        <time>2022-05-15T08:51:19Z</time>
      </trkpt>
      <trkpt lat="44.95489" lon="0.83459">
        <ele>196.1</ele>
        <time>2022-05-15T08:51:21Z</time>
      </trkpt>
      <trkpt lat="44.95491" lon="0.8346">
        <ele>196.1</ele>
        <time>2022-05-15T08:51:23Z</time>
      </trkpt>
      <trkpt lat="44.95493" lon="0.8346">
        <ele>196.1</ele>
        <time>2022-05-15T08:51:24Z</time>
      </trkpt>
      <trkpt lat="44.95495" lon="0.83461">
        <ele>196.1</ele>
        <time>2022-05-15T08:51:25Z</time>
      </trkpt>
      <trkpt lat="44.95498" lon="0.83462">
        <ele>196.6</ele>
        <time>2022-05-15T08:51:27Z</time>
      </trkpt>
      <trkpt lat="44.95502" lon="0.83463">
        <ele>196.7</ele>
        <time>2022-05-15T08:51:29Z</time>
      </trkpt>
      <trkpt lat="44.95504" lon="0.83463">
        <ele>196.7</ele>
        <time>2022-05-15T08:51:30Z</time>
      </trkpt>
      <trkpt lat="44.95506" lon="0.83463">
        <ele>196.7</ele>
        <time>2022-05-15T08:51:31Z</time>
      </trkpt>
      <trkpt lat="44.9551" lon="0.83464">
        <ele>197.6</ele>
        <time>2022-05-15T08:51:33Z</time>
      </trkpt>
      <trkpt lat="44.95512" lon="0.83465">
        <ele>197.7</ele>
        <time>2022-05-15T08:51:35Z</time>
      </trkpt>
      <trkpt lat="44.95516" lon="0.83467">
        <ele>197.7</ele>
        <time>2022-05-15T08:51:37Z</time>
      </trkpt>
      <trkpt lat="44.95519" lon="0.83468">
        <ele>197.7</ele>
        <time>2022-05-15T08:51:39Z</time>
      </trkpt>
      <trkpt lat="44.95522" lon="0.83469">
        <ele>198.9</ele>
        <time>2022-05-15T08:51:41Z</time>
      </trkpt>
      <trkpt lat="44.95525" lon="0.8347">
        <ele>198.9</ele>
        <time>2022-05-15T08:51:43Z</time>
      </trkpt>
      <trkpt lat="44.95527" lon="0.83471">
        <ele>198.9</ele>
        <time>2022-05-15T08:51:44Z</time>
      </trkpt>
      <trkpt lat="44.95528" lon="0.83471">
        <ele>198.9</ele>
        <time>2022-05-15T08:51:45Z</time>
      </trkpt>
      <trkpt lat="44.95531" lon="0.83472">
        <ele>198.9</ele>
        <time>2022-05-15T08:51:47Z</time>
      </trkpt>
      <trkpt lat="44.95535" lon="0.83474">
        <ele>200.4</ele>
        <time>2022-05-15T08:51:49Z</time>
      </trkpt>
      <trkpt lat="44.95537" lon="0.83475">
        <ele>200.4</ele>
        <time>2022-05-15T08:51:51Z</time>
      </trkpt>
      <trkpt lat="44.95539" lon="0.83476">
        <ele>200.4</ele>
        <time>2022-05-15T08:51:52Z</time>
      </trkpt>
      <trkpt lat="44.9554" lon="0.83477">
        <ele>200.4</ele>
        <time>2022-05-15T08:51:53Z</time>
      </trkpt>
      <trkpt lat="44.95543" lon="0.83477">
        <ele>200.4</ele>
        <time>2022-05-15T08:51:55Z</time>
      </trkpt>
      <trkpt lat="44.95546" lon="0.83478">
        <ele>201.9</ele>
        <time>2022-05-15T08:51:57Z</time>
      </trkpt>
      <trkpt lat="44.95549" lon="0.8348">
        <ele>202</ele>
        <time>2022-05-15T08:51:59Z</time>
      </trkpt>
      <trkpt lat="44.95551" lon="0.83481">
        <ele>202</ele>
        <time>2022-05-15T08:52:01Z</time>
      </trkpt>
      <trkpt lat="44.95554" lon="0.83482">
        <ele>202</ele>
        <time>2022-05-15T08:52:03Z</time>
      </trkpt>
      <trkpt lat="44.95557" lon="0.83484">
        <ele>204.3</ele>
        <time>2022-05-15T08:52:05Z</time>
      </trkpt>
      <trkpt lat="44.95558" lon="0.83485">
        <ele>204.3</ele>
        <time>2022-05-15T08:52:06Z</time>
      </trkpt>
      <trkpt lat="44.9556" lon="0.83486">
        <ele>204.3</ele>
        <time>2022-05-15T08:52:07Z</time>
      </trkpt>
      <trkpt lat="44.95563" lon="0.83487">
        <ele>204.3</ele>
        <time>2022-05-15T08:52:09Z</time>
      </trkpt>
      <trkpt lat="44.95565" lon="0.83488">
        <ele>204.3</ele>
        <time>2022-05-15T08:52:11Z</time>
      </trkpt>
      <trkpt lat="44.95568" lon="0.8349">
        <ele>204.3</ele>
        <time>2022-05-15T08:52:13Z</time>
      </trkpt>
      <trkpt lat="44.95569" lon="0.83491">
        <ele>206.4</ele>
        <time>2022-05-15T08:52:14Z</time>
      </trkpt>
      <trkpt lat="44.9557" lon="0.83491">
        <ele>206.4</ele>
        <time>2022-05-15T08:52:15Z</time>
      </trkpt>
      <trkpt lat="44.95573" lon="0.83493">
        <ele>206.4</ele>
        <time>2022-05-15T08:52:17Z</time>
      </trkpt>
      <trkpt lat="44.95576" lon="0.83495">
        <ele>206.4</ele>
        <time>2022-05-15T08:52:19Z</time>
      </trkpt>
      <trkpt lat="44.95578" lon="0.83496">
        <ele>206.7</ele>
        <time>2022-05-15T08:52:21Z</time>
      </trkpt>
      <trkpt lat="44.95581" lon="0.83498">
        <ele>209.1</ele>
        <time>2022-05-15T08:52:23Z</time>
      </trkpt>
      <trkpt lat="44.95584" lon="0.83499">
        <ele>209.1</ele>
        <time>2022-05-15T08:52:25Z</time>
      </trkpt>
      <trkpt lat="44.95587" lon="0.83501">
        <ele>209.1</ele>
        <time>2022-05-15T08:52:27Z</time>
      </trkpt>
      <trkpt lat="44.95589" lon="0.83503">
        <ele>209.1</ele>
        <time>2022-05-15T08:52:29Z</time>
      </trkpt>
      <trkpt lat="44.95592" lon="0.83505">
        <ele>209.1</ele>
        <time>2022-05-15T08:52:31Z</time>
      </trkpt>
      <trkpt lat="44.95593" lon="0.83506">
        <ele>209.1</ele>
        <time>2022-05-15T08:52:32Z</time>
      </trkpt>
      <trkpt lat="44.95595" lon="0.83507">
        <ele>211.3</ele>
        <time>2022-05-15T08:52:33Z</time>
      </trkpt>
      <trkpt lat="44.95598" lon="0.83509">
        <ele>211.3</ele>
        <time>2022-05-15T08:52:35Z</time>
      </trkpt>
      <trkpt lat="44.956" lon="0.8351">
        <ele>211.3</ele>
        <time>2022-05-15T08:52:37Z</time>
      </trkpt>
      <trkpt lat="44.95601" lon="0.83512">
        <ele>211.3</ele>
        <time>2022-05-15T08:52:38Z</time>
      </trkpt>
      <trkpt lat="44.95603" lon="0.83512">
        <ele>211.3</ele>
        <time>2022-05-15T08:52:39Z</time>
      </trkpt>
      <trkpt lat="44.95605" lon="0.83514">
        <ele>211.2</ele>
        <time>2022-05-15T08:52:41Z</time>
      </trkpt>
      <trkpt lat="44.95607" lon="0.83514">
        <ele>213.5</ele>
        <time>2022-05-15T08:52:43Z</time>
      </trkpt>
      <trkpt lat="44.9561" lon="0.83516">
        <ele>213.5</ele>
        <time>2022-05-15T08:52:45Z</time>
      </trkpt>
      <trkpt lat="44.95613" lon="0.83518">
        <ele>213.5</ele>
        <time>2022-05-15T08:52:47Z</time>
      </trkpt>
      <trkpt lat="44.95615" lon="0.83519">
        <ele>213.5</ele>
        <time>2022-05-15T08:52:49Z</time>
      </trkpt>
      <trkpt lat="44.95618" lon="0.8352">
        <ele>215.8</ele>
        <time>2022-05-15T08:52:51Z</time>
      </trkpt>
      <trkpt lat="44.95621" lon="0.8352">
        <ele>215.8</ele>
        <time>2022-05-15T08:52:53Z</time>
      </trkpt>
      <trkpt lat="44.95623" lon="0.83521">
        <ele>215.8</ele>
        <time>2022-05-15T08:52:54Z</time>
      </trkpt>
      <trkpt lat="44.95624" lon="0.83521">
        <ele>215.8</ele>
        <time>2022-05-15T08:52:55Z</time>
      </trkpt>
      <trkpt lat="44.95628" lon="0.83523">
        <ele>215.8</ele>
        <time>2022-05-15T08:52:57Z</time>
      </trkpt>
      <trkpt lat="44.95631" lon="0.83524">
        <ele>217.8</ele>
        <time>2022-05-15T08:52:59Z</time>
      </trkpt>
      <trkpt lat="44.95634" lon="0.83525">
        <ele>217.8</ele>
        <time>2022-05-15T08:53:01Z</time>
      </trkpt>
      <trkpt lat="44.95635" lon="0.83525">
        <ele>217.8</ele>
        <time>2022-05-15T08:53:02Z</time>
      </trkpt>
      <trkpt lat="44.95636" lon="0.83525">
        <ele>217.8</ele>
        <time>2022-05-15T08:53:03Z</time>
      </trkpt>
      <trkpt lat="44.95639" lon="0.83526">
        <ele>217.8</ele>
        <time>2022-05-15T08:53:05Z</time>
      </trkpt>
      <trkpt lat="44.95642" lon="0.83528">
        <ele>219.8</ele>
        <time>2022-05-15T08:53:07Z</time>
      </trkpt>
      <trkpt lat="44.95645" lon="0.83529">
        <ele>219.8</ele>
        <time>2022-05-15T08:53:09Z</time>
      </trkpt>
      <trkpt lat="44.95646" lon="0.83529">
        <ele>219.8</ele>
        <time>2022-05-15T08:53:10Z</time>
      </trkpt>
      <trkpt lat="44.95648" lon="0.8353">
        <ele>219.8</ele>
        <time>2022-05-15T08:53:11Z</time>
      </trkpt>
      <trkpt lat="44.95651" lon="0.83532">
        <ele>219.6</ele>
        <time>2022-05-15T08:53:13Z</time>
      </trkpt>
      <trkpt lat="44.95654" lon="0.83534">
        <ele>221.2</ele>
        <time>2022-05-15T08:53:15Z</time>
      </trkpt>
      <trkpt lat="44.95656" lon="0.83536">
        <ele>221.2</ele>
        <time>2022-05-15T08:53:16Z</time>
      </trkpt>
      <trkpt lat="44.95657" lon="0.83537">
        <ele>221.2</ele>
        <time>2022-05-15T08:53:17Z</time>
      </trkpt>
      <trkpt lat="44.95661" lon="0.83539">
        <ele>221.2</ele>
        <time>2022-05-15T08:53:19Z</time>
      </trkpt>
      <trkpt lat="44.95664" lon="0.83542">
        <ele>221.2</ele>
        <time>2022-05-15T08:53:21Z</time>
      </trkpt>
      <trkpt lat="44.95667" lon="0.83545">
        <ele>223</ele>
        <time>2022-05-15T08:53:23Z</time>
      </trkpt>
      <trkpt lat="44.95668" lon="0.83545">
        <ele>223</ele>
        <time>2022-05-15T08:53:24Z</time>
      </trkpt>
      <trkpt lat="44.9567" lon="0.83546">
        <ele>223</ele>
        <time>2022-05-15T08:53:25Z</time>
      </trkpt>
      <trkpt lat="44.95673" lon="0.83547">
        <ele>223</ele>
        <time>2022-05-15T08:53:27Z</time>
      </trkpt>
      <trkpt lat="44.95676" lon="0.83548">
        <ele>222.4</ele>
        <time>2022-05-15T08:53:29Z</time>
      </trkpt>
      <trkpt lat="44.95678" lon="0.83549">
        <ele>222.4</ele>
        <time>2022-05-15T08:53:30Z</time>
      </trkpt>
      <trkpt lat="44.9568" lon="0.83549">
        <ele>223.6</ele>
        <time>2022-05-15T08:53:31Z</time>
      </trkpt>
      <trkpt lat="44.95683" lon="0.8355">
        <ele>223.6</ele>
        <time>2022-05-15T08:53:33Z</time>
      </trkpt>
      <trkpt lat="44.95686" lon="0.8355">
        <ele>223.6</ele>
        <time>2022-05-15T08:53:35Z</time>
      </trkpt>
      <trkpt lat="44.95689" lon="0.83551">
        <ele>223.6</ele>
        <time>2022-05-15T08:53:37Z</time>
      </trkpt>
      <trkpt lat="44.95692" lon="0.83552">
        <ele>224.6</ele>
        <time>2022-05-15T08:53:39Z</time>
      </trkpt>
      <trkpt lat="44.95695" lon="0.83554">
        <ele>224.6</ele>
        <time>2022-05-15T08:53:41Z</time>
      </trkpt>
      <trkpt lat="44.95699" lon="0.83555">
        <ele>224.6</ele>
        <time>2022-05-15T08:53:43Z</time>
      </trkpt>
      <trkpt lat="44.95703" lon="0.83557">
        <ele>225.5</ele>
        <time>2022-05-15T08:53:45Z</time>
      </trkpt>
      <trkpt lat="44.95706" lon="0.83559">
        <ele>225.5</ele>
        <time>2022-05-15T08:53:47Z</time>
      </trkpt>
      <trkpt lat="44.95713" lon="0.83561">
        <ele>225.5</ele>
        <time>2022-05-15T08:53:49Z</time>
      </trkpt>
      <trkpt lat="44.95713" lon="0.83562">
        <ele>225.4</ele>
        <time>2022-05-15T08:53:50Z</time>
      </trkpt>
      <trkpt lat="44.95713" lon="0.83564">
        <ele>225.4</ele>
        <time>2022-05-15T08:53:51Z</time>
      </trkpt>
      <trkpt lat="44.95714" lon="0.83569">
        <ele>225.1</ele>
        <time>2022-05-15T08:53:53Z</time>
      </trkpt>
      <trkpt lat="44.95715" lon="0.83574">
        <ele>225</ele>
        <time>2022-05-15T08:53:55Z</time>
      </trkpt>
      <trkpt lat="44.95716" lon="0.83577">
        <ele>225.1</ele>
        <time>2022-05-15T08:53:56Z</time>
      </trkpt>
      <trkpt lat="44.95717" lon="0.8358">
        <ele>225.2</ele>
        <time>2022-05-15T08:53:57Z</time>
      </trkpt>
      <trkpt lat="44.95717" lon="0.8358">
        <ele>225.2</ele>
        <time>2022-05-15T08:53:58Z</time>
      </trkpt>
      <trkpt lat="44.9572" lon="0.83583">
        <ele>225.1</ele>
        <time>2022-05-15T08:53:59Z</time>
      </trkpt>
      <trkpt lat="44.95722" lon="0.83585">
        <ele>225</ele>
        <time>2022-05-15T08:54:01Z</time>
      </trkpt>
      <trkpt lat="44.95722" lon="0.83585">
        <ele>225</ele>
        <time>2022-05-15T08:54:03Z</time>
      </trkpt>
      <trkpt lat="44.95724" lon="0.83587">
        <ele>224.9</ele>
        <time>2022-05-15T08:54:41Z</time>
      </trkpt>
      <trkpt lat="44.95728" lon="0.8359">
        <ele>224.8</ele>
        <time>2022-05-15T08:54:43Z</time>
      </trkpt>
      <trkpt lat="44.95732" lon="0.83595">
        <ele>224.5</ele>
        <time>2022-05-15T08:54:45Z</time>
      </trkpt>
      <trkpt lat="44.95738" lon="0.836">
        <ele>224.1</ele>
        <time>2022-05-15T08:54:47Z</time>
      </trkpt>
      <trkpt lat="44.95745" lon="0.83608">
        <ele>223.5</ele>
        <time>2022-05-15T08:54:49Z</time>
      </trkpt>
      <trkpt lat="44.95754" lon="0.83617">
        <ele>222.6</ele>
        <time>2022-05-15T08:54:51Z</time>
      </trkpt>
      <trkpt lat="44.95765" lon="0.83626">
        <ele>221.6</ele>
        <time>2022-05-15T08:54:53Z</time>
      </trkpt>
      <trkpt lat="44.95772" lon="0.8363">
        <ele>221</ele>
        <time>2022-05-15T08:54:54Z</time>
      </trkpt>
      <trkpt lat="44.9578" lon="0.83631">
        <ele>220.5</ele>
        <time>2022-05-15T08:54:55Z</time>
      </trkpt>
      <trkpt lat="44.95788" lon="0.8363">
        <ele>220</ele>
        <time>2022-05-15T08:54:56Z</time>
      </trkpt>
      <trkpt lat="44.95796" lon="0.83628">
        <ele>219.5</ele>
        <time>2022-05-15T08:54:57Z</time>
      </trkpt>
      <trkpt lat="44.95804" lon="0.83625">
        <ele>219.2</ele>
        <time>2022-05-15T08:54:58Z</time>
      </trkpt>
      <trkpt lat="44.95812" lon="0.83621">
        <ele>218.8</ele>
        <time>2022-05-15T08:54:59Z</time>
      </trkpt>
      <trkpt lat="44.95827" lon="0.83611">
        <ele>218.3</ele>
        <time>2022-05-15T08:55:01Z</time>
      </trkpt>
      <trkpt lat="44.95836" lon="0.83608">
        <ele>218</ele>
        <time>2022-05-15T08:55:02Z</time>
      </trkpt>
      <trkpt lat="44.95844" lon="0.83606">
        <ele>217.8</ele>
        <time>2022-05-15T08:55:03Z</time>
      </trkpt>
      <trkpt lat="44.95861" lon="0.83606">
        <ele>217.1</ele>
        <time>2022-05-15T08:55:05Z</time>
      </trkpt>
      <trkpt lat="44.95868" lon="0.83607">
        <ele>216.6</ele>
        <time>2022-05-15T08:55:06Z</time>
      </trkpt>
      <trkpt lat="44.95876" lon="0.83609">
        <ele>216.1</ele>
        <time>2022-05-15T08:55:07Z</time>
      </trkpt>
      <trkpt lat="44.95883" lon="0.8361">
        <ele>215.6</ele>
        <time>2022-05-15T08:55:08Z</time>
      </trkpt>
      <trkpt lat="44.9589" lon="0.83611">
        <ele>215.2</ele>
        <time>2022-05-15T08:55:09Z</time>
      </trkpt>
      <trkpt lat="44.95898" lon="0.83615">
        <ele>214.6</ele>
        <time>2022-05-15T08:55:10Z</time>
      </trkpt>
      <trkpt lat="44.95904" lon="0.8362">
        <ele>214.1</ele>
        <time>2022-05-15T08:55:11Z</time>
      </trkpt>
      <trkpt lat="44.9591" lon="0.83626">
        <ele>213.6</ele>
        <time>2022-05-15T08:55:12Z</time>
      </trkpt>
      <trkpt lat="44.95915" lon="0.83633">
        <ele>213.2</ele>
        <time>2022-05-15T08:55:13Z</time>
      </trkpt>
      <trkpt lat="44.9592" lon="0.83641">
        <ele>212.9</ele>
        <time>2022-05-15T08:55:14Z</time>
      </trkpt>
      <trkpt lat="44.95924" lon="0.83649">
        <ele>212.6</ele>
        <time>2022-05-15T08:55:15Z</time>
      </trkpt>
      <trkpt lat="44.95933" lon="0.83666">
        <ele>211.9</ele>
        <time>2022-05-15T08:55:17Z</time>
      </trkpt>
      <trkpt lat="44.95938" lon="0.83674">
        <ele>211.7</ele>
        <time>2022-05-15T08:55:18Z</time>
      </trkpt>
      <trkpt lat="44.95942" lon="0.83682">
        <ele>211.4</ele>
        <time>2022-05-15T08:55:19Z</time>
      </trkpt>
      <trkpt lat="44.95947" lon="0.83691">
        <ele>211.2</ele>
        <time>2022-05-15T08:55:20Z</time>
      </trkpt>
      <trkpt lat="44.95952" lon="0.837">
        <ele>210.9</ele>
        <time>2022-05-15T08:55:21Z</time>
      </trkpt>
      <trkpt lat="44.95955" lon="0.8371">
        <ele>210.8</ele>
        <time>2022-05-15T08:55:22Z</time>
      </trkpt>
      <trkpt lat="44.95958" lon="0.8372">
        <ele>210.7</ele>
        <time>2022-05-15T08:55:23Z</time>
      </trkpt>
      <trkpt lat="44.95964" lon="0.8374">
        <ele>210.6</ele>
        <time>2022-05-15T08:55:25Z</time>
      </trkpt>
      <trkpt lat="44.95967" lon="0.8375">
        <ele>210.6</ele>
        <time>2022-05-15T08:55:26Z</time>
      </trkpt>
      <trkpt lat="44.95971" lon="0.83758">
        <ele>210.8</ele>
        <time>2022-05-15T08:55:27Z</time>
      </trkpt>
      <trkpt lat="44.95974" lon="0.83765">
        <ele>211</ele>
        <time>2022-05-15T08:55:28Z</time>
      </trkpt>
      <trkpt lat="44.95978" lon="0.83771">
        <ele>211.3</ele>
        <time>2022-05-15T08:55:29Z</time>
      </trkpt>
      <trkpt lat="44.95982" lon="0.83777">
        <ele>211.6</ele>
        <time>2022-05-15T08:55:30Z</time>
      </trkpt>
      <trkpt lat="44.95985" lon="0.83781">
        <ele>211.9</ele>
        <time>2022-05-15T08:55:31Z</time>
      </trkpt>
      <trkpt lat="44.9599" lon="0.83789">
        <ele>212.4</ele>
        <time>2022-05-15T08:55:33Z</time>
      </trkpt>
      <trkpt lat="44.95992" lon="0.83792">
        <ele>212.6</ele>
        <time>2022-05-15T08:55:34Z</time>
      </trkpt>
      <trkpt lat="44.95994" lon="0.83796">
        <ele>212.8</ele>
        <time>2022-05-15T08:55:35Z</time>
      </trkpt>
      <trkpt lat="44.95998" lon="0.83802">
        <ele>213.3</ele>
        <time>2022-05-15T08:55:37Z</time>
      </trkpt>
      <trkpt lat="44.96001" lon="0.83808">
        <ele>213.7</ele>
        <time>2022-05-15T08:55:39Z</time>
      </trkpt>
      <trkpt lat="44.96004" lon="0.83814">
        <ele>214.2</ele>
        <time>2022-05-15T08:55:41Z</time>
      </trkpt>
      <trkpt lat="44.96008" lon="0.8382">
        <ele>214.8</ele>
        <time>2022-05-15T08:55:43Z</time>
      </trkpt>
      <trkpt lat="44.96009" lon="0.83824">
        <ele>215</ele>
        <time>2022-05-15T08:55:44Z</time>
      </trkpt>
      <trkpt lat="44.9601" lon="0.83827">
        <ele>215.3</ele>
        <time>2022-05-15T08:55:45Z</time>
      </trkpt>
      <trkpt lat="44.96013" lon="0.83835">
        <ele>215.9</ele>
        <time>2022-05-15T08:55:47Z</time>
      </trkpt>
      <trkpt lat="44.96015" lon="0.83842">
        <ele>216.4</ele>
        <time>2022-05-15T08:55:49Z</time>
      </trkpt>
      <trkpt lat="44.96018" lon="0.8385">
        <ele>217.1</ele>
        <time>2022-05-15T08:55:51Z</time>
      </trkpt>
      <trkpt lat="44.96019" lon="0.83857">
        <ele>217.7</ele>
        <time>2022-05-15T08:55:53Z</time>
      </trkpt>
      <trkpt lat="44.9602" lon="0.83863">
        <ele>218.2</ele>
        <time>2022-05-15T08:55:55Z</time>
      </trkpt>
      <trkpt lat="44.96021" lon="0.83869">
        <ele>218.7</ele>
        <time>2022-05-15T08:55:57Z</time>
      </trkpt>
      <trkpt lat="44.96022" lon="0.83876">
        <ele>219.2</ele>
        <time>2022-05-15T08:55:59Z</time>
      </trkpt>
      <trkpt lat="44.96022" lon="0.83879">
        <ele>219.4</ele>
        <time>2022-05-15T08:56:00Z</time>
      </trkpt>
      <trkpt lat="44.96022" lon="0.83882">
        <ele>219.6</ele>
        <time>2022-05-15T08:56:01Z</time>
      </trkpt>
      <trkpt lat="44.96022" lon="0.83888">
        <ele>220</ele>
        <time>2022-05-15T08:56:03Z</time>
      </trkpt>
      <trkpt lat="44.96022" lon="0.83893">
        <ele>220.4</ele>
        <time>2022-05-15T08:56:05Z</time>
      </trkpt>
      <trkpt lat="44.96022" lon="0.839">
        <ele>220.9</ele>
        <time>2022-05-15T08:56:07Z</time>
      </trkpt>
      <trkpt lat="44.96022" lon="0.83903">
        <ele>221.1</ele>
        <time>2022-05-15T08:56:08Z</time>
      </trkpt>
      <trkpt lat="44.96021" lon="0.83907">
        <ele>221.4</ele>
        <time>2022-05-15T08:56:09Z</time>
      </trkpt>
      <trkpt lat="44.96021" lon="0.83914">
        <ele>221.8</ele>
        <time>2022-05-15T08:56:11Z</time>
      </trkpt>
      <trkpt lat="44.9602" lon="0.83917">
        <ele>222</ele>
        <time>2022-05-15T08:56:12Z</time>
      </trkpt>
      <trkpt lat="44.9602" lon="0.83918">
        <ele>222.1</ele>
        <time>2022-05-15T08:56:13Z</time>
      </trkpt>
      <trkpt lat="44.9602" lon="0.83926">
        <ele>222.6</ele>
        <time>2022-05-15T08:56:15Z</time>
      </trkpt>
      <trkpt lat="44.96019" lon="0.8393">
        <ele>222.9</ele>
        <time>2022-05-15T08:56:16Z</time>
      </trkpt>
      <trkpt lat="44.96019" lon="0.83934">
        <ele>223.1</ele>
        <time>2022-05-15T08:56:17Z</time>
      </trkpt>
      <trkpt lat="44.96018" lon="0.83941">
        <ele>223.6</ele>
        <time>2022-05-15T08:56:19Z</time>
      </trkpt>
      <trkpt lat="44.96018" lon="0.83948">
        <ele>224</ele>
        <time>2022-05-15T08:56:21Z</time>
      </trkpt>
      <trkpt lat="44.96017" lon="0.8395">
        <ele>224.2</ele>
        <time>2022-05-15T08:56:22Z</time>
      </trkpt>
      <trkpt lat="44.96017" lon="0.83954">
        <ele>224.5</ele>
        <time>2022-05-15T08:56:23Z</time>
      </trkpt>
      <trkpt lat="44.96017" lon="0.8396">
        <ele>224.9</ele>
        <time>2022-05-15T08:56:25Z</time>
      </trkpt>
      <trkpt lat="44.96016" lon="0.83963">
        <ele>225.1</ele>
        <time>2022-05-15T08:56:26Z</time>
      </trkpt>
      <trkpt lat="44.96016" lon="0.83967">
        <ele>225.3</ele>
        <time>2022-05-15T08:56:27Z</time>
      </trkpt>
      <trkpt lat="44.96015" lon="0.83974">
        <ele>225.8</ele>
        <time>2022-05-15T08:56:29Z</time>
      </trkpt>
      <trkpt lat="44.96015" lon="0.83977">
        <ele>226</ele>
        <time>2022-05-15T08:56:30Z</time>
      </trkpt>
      <trkpt lat="44.96015" lon="0.83981">
        <ele>226.3</ele>
        <time>2022-05-15T08:56:31Z</time>
      </trkpt>
      <trkpt lat="44.96015" lon="0.83987">
        <ele>226.7</ele>
        <time>2022-05-15T08:56:33Z</time>
      </trkpt>
      <trkpt lat="44.96015" lon="0.83991">
        <ele>226.9</ele>
        <time>2022-05-15T08:56:34Z</time>
      </trkpt>
      <trkpt lat="44.96015" lon="0.83994">
        <ele>227.1</ele>
        <time>2022-05-15T08:56:35Z</time>
      </trkpt>
      <trkpt lat="44.96015" lon="0.83997">
        <ele>227.3</ele>
        <time>2022-05-15T08:56:36Z</time>
      </trkpt>
      <trkpt lat="44.96015" lon="0.84">
        <ele>227.4</ele>
        <time>2022-05-15T08:56:37Z</time>
      </trkpt>
      <trkpt lat="44.96015" lon="0.84003">
        <ele>227.6</ele>
        <time>2022-05-15T08:56:38Z</time>
      </trkpt>
      <trkpt lat="44.96016" lon="0.84006">
        <ele>227.8</ele>
        <time>2022-05-15T08:56:39Z</time>
      </trkpt>
      <trkpt lat="44.96017" lon="0.84012">
        <ele>228.1</ele>
        <time>2022-05-15T08:56:41Z</time>
      </trkpt>
      <trkpt lat="44.96018" lon="0.84018">
        <ele>228.5</ele>
        <time>2022-05-15T08:56:43Z</time>
      </trkpt>
      <trkpt lat="44.96018" lon="0.84021">
        <ele>228.7</ele>
        <time>2022-05-15T08:56:44Z</time>
      </trkpt>
      <trkpt lat="44.96016" lon="0.84025">
        <ele>229</ele>
        <time>2022-05-15T08:56:45Z</time>
      </trkpt>
      <trkpt lat="44.96014" lon="0.84027">
        <ele>229.2</ele>
        <time>2022-05-15T08:56:46Z</time>
      </trkpt>
      <trkpt lat="44.96013" lon="0.84031">
        <ele>229.4</ele>
        <time>2022-05-15T08:56:47Z</time>
      </trkpt>
      <trkpt lat="44.96019" lon="0.84029">
        <ele>229.8</ele>
        <time>2022-05-15T08:56:48Z</time>
      </trkpt>
      <trkpt lat="44.9602" lon="0.84033">
        <ele>230</ele>
        <time>2022-05-15T08:56:49Z</time>
      </trkpt>
      <trkpt lat="44.96021" lon="0.84038">
        <ele>230.3</ele>
        <time>2022-05-15T08:56:51Z</time>
      </trkpt>
      <trkpt lat="44.96022" lon="0.84046">
        <ele>230.7</ele>
        <time>2022-05-15T08:56:53Z</time>
      </trkpt>
      <trkpt lat="44.96023" lon="0.84054">
        <ele>231.1</ele>
        <time>2022-05-15T08:56:55Z</time>
      </trkpt>
      <trkpt lat="44.96024" lon="0.84058">
        <ele>231.3</ele>
        <time>2022-05-15T08:56:56Z</time>
      </trkpt>
      <trkpt lat="44.96024" lon="0.84061">
        <ele>231.4</ele>
        <time>2022-05-15T08:56:57Z</time>
      </trkpt>
      <trkpt lat="44.96025" lon="0.84068">
        <ele>231.8</ele>
        <time>2022-05-15T08:56:59Z</time>
      </trkpt>
      <trkpt lat="44.96026" lon="0.84075">
        <ele>232.1</ele>
        <time>2022-05-15T08:57:01Z</time>
      </trkpt>
      <trkpt lat="44.96028" lon="0.84082">
        <ele>232.5</ele>
        <time>2022-05-15T08:57:03Z</time>
      </trkpt>
      <trkpt lat="44.96029" lon="0.84091">
        <ele>232.9</ele>
        <time>2022-05-15T08:57:05Z</time>
      </trkpt>
      <trkpt lat="44.9603" lon="0.84099">
        <ele>233.3</ele>
        <time>2022-05-15T08:57:07Z</time>
      </trkpt>
      <trkpt lat="44.96033" lon="0.84105">
        <ele>233.8</ele>
        <time>2022-05-15T08:57:09Z</time>
      </trkpt>
      <trkpt lat="44.96036" lon="0.84109">
        <ele>234.2</ele>
        <time>2022-05-15T08:57:11Z</time>
      </trkpt>
      <trkpt lat="44.96037" lon="0.84111">
        <ele>234.4</ele>
        <time>2022-05-15T08:57:12Z</time>
      </trkpt>
      <trkpt lat="44.96038" lon="0.84113">
        <ele>234.6</ele>
        <time>2022-05-15T08:57:13Z</time>
      </trkpt>
      <trkpt lat="44.96044" lon="0.84119">
        <ele>235.3</ele>
        <time>2022-05-15T08:57:15Z</time>
      </trkpt>
      <trkpt lat="44.96047" lon="0.84122">
        <ele>235.7</ele>
        <time>2022-05-15T08:57:16Z</time>
      </trkpt>
      <trkpt lat="44.96052" lon="0.84129">
        <ele>236.5</ele>
        <time>2022-05-15T08:57:17Z</time>
      </trkpt>
      <trkpt lat="44.96052" lon="0.84129">
        <ele>236.5</ele>
        <time>2022-05-15T08:57:18Z</time>
      </trkpt>
      <trkpt lat="44.96054" lon="0.84129">
        <ele>236.7</ele>
        <time>2022-05-15T08:57:19Z</time>
      </trkpt>
      <trkpt lat="44.96057" lon="0.84128">
        <ele>237.2</ele>
        <time>2022-05-15T08:57:21Z</time>
      </trkpt>
      <trkpt lat="44.96059" lon="0.84127">
        <ele>237.4</ele>
        <time>2022-05-15T08:57:23Z</time>
      </trkpt>
      <trkpt lat="44.96061" lon="0.84127">
        <ele>237.7</ele>
        <time>2022-05-15T08:57:25Z</time>
      </trkpt>
      <trkpt lat="44.96065" lon="0.84126">
        <ele>238.2</ele>
        <time>2022-05-15T08:57:27Z</time>
      </trkpt>
      <trkpt lat="44.96068" lon="0.84125">
        <ele>238.6</ele>
        <time>2022-05-15T08:57:29Z</time>
      </trkpt>
      <trkpt lat="44.96068" lon="0.84125">
        <ele>238.6</ele>
        <time>2022-05-15T08:57:31Z</time>
      </trkpt>
      <trkpt lat="44.96107" lon="0.8413">
        <ele>242.7</ele>
        <time>2022-05-15T08:57:58Z</time>
      </trkpt>
      <trkpt lat="44.96108" lon="0.84131">
        <ele>242.8</ele>
        <time>2022-05-15T08:57:59Z</time>
      </trkpt>
      <trkpt lat="44.96111" lon="0.84133">
        <ele>242.9</ele>
        <time>2022-05-15T08:58:01Z</time>
      </trkpt>
      <trkpt lat="44.96112" lon="0.84134">
        <ele>242.9</ele>
        <time>2022-05-15T08:58:02Z</time>
      </trkpt>
      <trkpt lat="44.96113" lon="0.84135">
        <ele>242.9</ele>
        <time>2022-05-15T08:58:03Z</time>
      </trkpt>
      <trkpt lat="44.96115" lon="0.84138">
        <ele>242.9</ele>
        <time>2022-05-15T08:58:04Z</time>
      </trkpt>
      <trkpt lat="44.96116" lon="0.8414">
        <ele>242.9</ele>
        <time>2022-05-15T08:58:05Z</time>
      </trkpt>
      <trkpt lat="44.96117" lon="0.84144">
        <ele>243</ele>
        <time>2022-05-15T08:58:06Z</time>
      </trkpt>
      <trkpt lat="44.96118" lon="0.84146">
        <ele>243</ele>
        <time>2022-05-15T08:58:07Z</time>
      </trkpt>
      <trkpt lat="44.96118" lon="0.84146">
        <ele>243</ele>
        <time>2022-05-15T08:58:09Z</time>
      </trkpt>
      <trkpt lat="44.96133" lon="0.84177">
        <ele>243.7</ele>
        <time>2022-05-15T08:58:26Z</time>
      </trkpt>
      <trkpt lat="44.96134" lon="0.84179">
        <ele>243.8</ele>
        <time>2022-05-15T08:58:27Z</time>
      </trkpt>
      <trkpt lat="44.96135" lon="0.8418">
        <ele>243.9</ele>
        <time>2022-05-15T08:58:28Z</time>
      </trkpt>
      <trkpt lat="44.96136" lon="0.84181">
        <ele>243.9</ele>
        <time>2022-05-15T08:58:29Z</time>
      </trkpt>
      <trkpt lat="44.96137" lon="0.84183">
        <ele>244</ele>
        <time>2022-05-15T08:58:30Z</time>
      </trkpt>
      <trkpt lat="44.96138" lon="0.84184">
        <ele>244</ele>
        <time>2022-05-15T08:58:31Z</time>
      </trkpt>
      <trkpt lat="44.96141" lon="0.84188">
        <ele>244.2</ele>
        <time>2022-05-15T08:58:33Z</time>
      </trkpt>
      <trkpt lat="44.96143" lon="0.84191">
        <ele>244.3</ele>
        <time>2022-05-15T08:58:34Z</time>
      </trkpt>
      <trkpt lat="44.96145" lon="0.84193">
        <ele>244.4</ele>
        <time>2022-05-15T08:58:35Z</time>
      </trkpt>
      <trkpt lat="44.96147" lon="0.84196">
        <ele>244.6</ele>
        <time>2022-05-15T08:58:36Z</time>
      </trkpt>
      <trkpt lat="44.96149" lon="0.84199">
        <ele>244.7</ele>
        <time>2022-05-15T08:58:37Z</time>
      </trkpt>
      <trkpt lat="44.96151" lon="0.84201">
        <ele>244.8</ele>
        <time>2022-05-15T08:58:38Z</time>
      </trkpt>
      <trkpt lat="44.96152" lon="0.84203">
        <ele>244.9</ele>
        <time>2022-05-15T08:58:39Z</time>
      </trkpt>
      <trkpt lat="44.96153" lon="0.84204">
        <ele>245</ele>
        <time>2022-05-15T08:58:41Z</time>
      </trkpt>
      <trkpt lat="44.96156" lon="0.84209">
        <ele>245.2</ele>
        <time>2022-05-15T08:58:43Z</time>
      </trkpt>
      <trkpt lat="44.96158" lon="0.84211">
        <ele>245.4</ele>
        <time>2022-05-15T08:58:45Z</time>
      </trkpt>
      <trkpt lat="44.96158" lon="0.84211">
        <ele>245.4</ele>
        <time>2022-05-15T08:58:46Z</time>
      </trkpt>
      <trkpt lat="44.96167" lon="0.84218">
        <ele>246.1</ele>
        <time>2022-05-15T08:58:50Z</time>
      </trkpt>
      <trkpt lat="44.96169" lon="0.8422">
        <ele>246.3</ele>
        <time>2022-05-15T08:58:51Z</time>
      </trkpt>
      <trkpt lat="44.96172" lon="0.84222">
        <ele>246.6</ele>
        <time>2022-05-15T08:58:53Z</time>
      </trkpt>
      <trkpt lat="44.96176" lon="0.84225">
        <ele>246.9</ele>
        <time>2022-05-15T08:58:55Z</time>
      </trkpt>
      <trkpt lat="44.96177" lon="0.84227">
        <ele>247</ele>
        <time>2022-05-15T08:58:56Z</time>
      </trkpt>
      <trkpt lat="44.96178" lon="0.84228">
        <ele>247.1</ele>
        <time>2022-05-15T08:58:57Z</time>
      </trkpt>
      <trkpt lat="44.9618" lon="0.8423">
        <ele>247.1</ele>
        <time>2022-05-15T08:58:58Z</time>
      </trkpt>
      <trkpt lat="44.96181" lon="0.84232">
        <ele>247.2</ele>
        <time>2022-05-15T08:58:59Z</time>
      </trkpt>
      <trkpt lat="44.96183" lon="0.84236">
        <ele>247.3</ele>
        <time>2022-05-15T08:59:00Z</time>
      </trkpt>
      <trkpt lat="44.96184" lon="0.84238">
        <ele>247.3</ele>
        <time>2022-05-15T08:59:01Z</time>
      </trkpt>
      <trkpt lat="44.96186" lon="0.84243">
        <ele>247.3</ele>
        <time>2022-05-15T08:59:03Z</time>
      </trkpt>
      <trkpt lat="44.96187" lon="0.84244">
        <ele>247.3</ele>
        <time>2022-05-15T08:59:04Z</time>
      </trkpt>
      <trkpt lat="44.96188" lon="0.84246">
        <ele>247.3</ele>
        <time>2022-05-15T08:59:05Z</time>
      </trkpt>
      <trkpt lat="44.9619" lon="0.84249">
        <ele>247.3</ele>
        <time>2022-05-15T08:59:06Z</time>
      </trkpt>
      <trkpt lat="44.96191" lon="0.84252">
        <ele>247.3</ele>
        <time>2022-05-15T08:59:07Z</time>
      </trkpt>
      <trkpt lat="44.96193" lon="0.84255">
        <ele>247.3</ele>
        <time>2022-05-15T08:59:08Z</time>
      </trkpt>
      <trkpt lat="44.96194" lon="0.84258">
        <ele>247.2</ele>
        <time>2022-05-15T08:59:09Z</time>
      </trkpt>
      <trkpt lat="44.96196" lon="0.84261">
        <ele>247.2</ele>
        <time>2022-05-15T08:59:10Z</time>
      </trkpt>
      <trkpt lat="44.96198" lon="0.84265">
        <ele>247.2</ele>
        <time>2022-05-15T08:59:11Z</time>
      </trkpt>
      <trkpt lat="44.962" lon="0.84273">
        <ele>247.1</ele>
        <time>2022-05-15T08:59:13Z</time>
      </trkpt>
      <trkpt lat="44.96202" lon="0.84281">
        <ele>247.2</ele>
        <time>2022-05-15T08:59:15Z</time>
      </trkpt>
      <trkpt lat="44.96204" lon="0.84289">
        <ele>247.2</ele>
        <time>2022-05-15T08:59:17Z</time>
      </trkpt>
      <trkpt lat="44.96209" lon="0.84298">
        <ele>247.3</ele>
        <time>2022-05-15T08:59:19Z</time>
      </trkpt>
      <trkpt lat="44.96214" lon="0.84304">
        <ele>247.5</ele>
        <time>2022-05-15T08:59:21Z</time>
      </trkpt>
      <trkpt lat="44.96219" lon="0.84311">
        <ele>247.8</ele>
        <time>2022-05-15T08:59:23Z</time>
      </trkpt>
      <trkpt lat="44.96225" lon="0.84317">
        <ele>248.1</ele>
        <time>2022-05-15T08:59:25Z</time>
      </trkpt>
      <trkpt lat="44.9623" lon="0.84323">
        <ele>248.4</ele>
        <time>2022-05-15T08:59:27Z</time>
      </trkpt>
      <trkpt lat="44.96236" lon="0.84328">
        <ele>248.6</ele>
        <time>2022-05-15T08:59:29Z</time>
      </trkpt>
      <trkpt lat="44.96241" lon="0.84334">
        <ele>248.9</ele>
        <time>2022-05-15T08:59:31Z</time>
      </trkpt>
      <trkpt lat="44.96244" lon="0.84337">
        <ele>249</ele>
        <time>2022-05-15T08:59:32Z</time>
      </trkpt>
      <trkpt lat="44.96246" lon="0.84339">
        <ele>249.2</ele>
        <time>2022-05-15T08:59:33Z</time>
      </trkpt>
      <trkpt lat="44.96251" lon="0.84344">
        <ele>249.4</ele>
        <time>2022-05-15T08:59:35Z</time>
      </trkpt>
      <trkpt lat="44.96257" lon="0.8435">
        <ele>249.7</ele>
        <time>2022-05-15T08:59:37Z</time>
      </trkpt>
      <trkpt lat="44.96262" lon="0.84356">
        <ele>249.9</ele>
        <time>2022-05-15T08:59:39Z</time>
      </trkpt>
      <trkpt lat="44.96267" lon="0.84361">
        <ele>250.1</ele>
        <time>2022-05-15T08:59:41Z</time>
      </trkpt>
      <trkpt lat="44.96269" lon="0.84363">
        <ele>250.1</ele>
        <time>2022-05-15T08:59:42Z</time>
      </trkpt>
      <trkpt lat="44.96272" lon="0.84365">
        <ele>250.2</ele>
        <time>2022-05-15T08:59:43Z</time>
      </trkpt>
      <trkpt lat="44.96273" lon="0.84367">
        <ele>250.2</ele>
        <time>2022-05-15T08:59:45Z</time>
      </trkpt>
      <trkpt lat="44.96273" lon="0.84367">
        <ele>250.2</ele>
        <time>2022-05-15T08:59:46Z</time>
      </trkpt>
      <trkpt lat="44.96285" lon="0.84379">
        <ele>250.5</ele>
        <time>2022-05-15T09:00:19Z</time>
      </trkpt>
      <trkpt lat="44.96286" lon="0.8438">
        <ele>250.5</ele>
        <time>2022-05-15T09:00:20Z</time>
      </trkpt>
      <trkpt lat="44.96288" lon="0.84382">
        <ele>250.6</ele>
        <time>2022-05-15T09:00:21Z</time>
      </trkpt>
      <trkpt lat="44.96291" lon="0.84385">
        <ele>250.6</ele>
        <time>2022-05-15T09:00:23Z</time>
      </trkpt>
      <trkpt lat="44.96294" lon="0.84388">
        <ele>250.6</ele>
        <time>2022-05-15T09:00:25Z</time>
      </trkpt>
      <trkpt lat="44.96296" lon="0.8439">
        <ele>250.6</ele>
        <time>2022-05-15T09:00:26Z</time>
      </trkpt>
      <trkpt lat="44.96297" lon="0.84391">
        <ele>250.6</ele>
        <time>2022-05-15T09:00:27Z</time>
      </trkpt>
      <trkpt lat="44.96299" lon="0.84394">
        <ele>250.5</ele>
        <time>2022-05-15T09:00:29Z</time>
      </trkpt>
      <trkpt lat="44.96302" lon="0.84396">
        <ele>250.5</ele>
        <time>2022-05-15T09:00:31Z</time>
      </trkpt>
      <trkpt lat="44.96305" lon="0.84399">
        <ele>250.5</ele>
        <time>2022-05-15T09:00:33Z</time>
      </trkpt>
      <trkpt lat="44.96308" lon="0.84402">
        <ele>250.5</ele>
        <time>2022-05-15T09:00:35Z</time>
      </trkpt>
      <trkpt lat="44.96312" lon="0.84407">
        <ele>250.4</ele>
        <time>2022-05-15T09:00:37Z</time>
      </trkpt>
      <trkpt lat="44.96316" lon="0.84411">
        <ele>250.4</ele>
        <time>2022-05-15T09:00:39Z</time>
      </trkpt>
      <trkpt lat="44.96318" lon="0.84415">
        <ele>250.4</ele>
        <time>2022-05-15T09:00:41Z</time>
      </trkpt>
      <trkpt lat="44.96321" lon="0.84419">
        <ele>250.4</ele>
        <time>2022-05-15T09:00:43Z</time>
      </trkpt>
      <trkpt lat="44.96323" lon="0.84423">
        <ele>250.4</ele>
        <time>2022-05-15T09:00:45Z</time>
      </trkpt>
      <trkpt lat="44.96324" lon="0.84425">
        <ele>250.4</ele>
        <time>2022-05-15T09:00:46Z</time>
      </trkpt>
      <trkpt lat="44.96325" lon="0.84427">
        <ele>250.4</ele>
        <time>2022-05-15T09:00:47Z</time>
      </trkpt>
      <trkpt lat="44.96327" lon="0.84431">
        <ele>250.3</ele>
        <time>2022-05-15T09:00:49Z</time>
      </trkpt>
      <trkpt lat="44.9633" lon="0.84435">
        <ele>250.3</ele>
        <time>2022-05-15T09:00:51Z</time>
      </trkpt>
      <trkpt lat="44.96331" lon="0.84437">
        <ele>250.3</ele>
        <time>2022-05-15T09:00:52Z</time>
      </trkpt>
      <trkpt lat="44.96332" lon="0.8444">
        <ele>250.3</ele>
        <time>2022-05-15T09:00:53Z</time>
      </trkpt>
      <trkpt lat="44.96334" lon="0.84443">
        <ele>250.2</ele>
        <time>2022-05-15T09:00:55Z</time>
      </trkpt>
      <trkpt lat="44.96336" lon="0.84447">
        <ele>250.2</ele>
        <time>2022-05-15T09:00:57Z</time>
      </trkpt>
      <trkpt lat="44.96339" lon="0.84451">
        <ele>250.1</ele>
        <time>2022-05-15T09:00:59Z</time>
      </trkpt>
      <trkpt lat="44.96341" lon="0.84456">
        <ele>250.1</ele>
        <time>2022-05-15T09:01:01Z</time>
      </trkpt>
      <trkpt lat="44.96343" lon="0.84458">
        <ele>250</ele>
        <time>2022-05-15T09:01:02Z</time>
      </trkpt>
      <trkpt lat="44.96344" lon="0.84461">
        <ele>250</ele>
        <time>2022-05-15T09:01:03Z</time>
      </trkpt>
      <trkpt lat="44.96347" lon="0.84465">
        <ele>250</ele>
        <time>2022-05-15T09:01:05Z</time>
      </trkpt>
      <trkpt lat="44.9635" lon="0.84469">
        <ele>250</ele>
        <time>2022-05-15T09:01:07Z</time>
      </trkpt>
      <trkpt lat="44.96352" lon="0.84471">
        <ele>250</ele>
        <time>2022-05-15T09:01:08Z</time>
      </trkpt>
      <trkpt lat="44.96354" lon="0.84474">
        <ele>250</ele>
        <time>2022-05-15T09:01:09Z</time>
      </trkpt>
      <trkpt lat="44.96356" lon="0.84476">
        <ele>250</ele>
        <time>2022-05-15T09:01:10Z</time>
      </trkpt>
      <trkpt lat="44.96358" lon="0.84478">
        <ele>250</ele>
        <time>2022-05-15T09:01:11Z</time>
      </trkpt>
      <trkpt lat="44.96361" lon="0.84483">
        <ele>250</ele>
        <time>2022-05-15T09:01:13Z</time>
      </trkpt>
      <trkpt lat="44.96365" lon="0.84488">
        <ele>250.1</ele>
        <time>2022-05-15T09:01:15Z</time>
      </trkpt>
      <trkpt lat="44.96366" lon="0.84491">
        <ele>250.1</ele>
        <time>2022-05-15T09:01:16Z</time>
      </trkpt>
      <trkpt lat="44.96368" lon="0.84493">
        <ele>250.1</ele>
        <time>2022-05-15T09:01:17Z</time>
      </trkpt>
      <trkpt lat="44.9637" lon="0.84496">
        <ele>250.1</ele>
        <time>2022-05-15T09:01:18Z</time>
      </trkpt>
      <trkpt lat="44.96372" lon="0.84499">
        <ele>250.1</ele>
        <time>2022-05-15T09:01:19Z</time>
      </trkpt>
      <trkpt lat="44.96375" lon="0.84506">
        <ele>250.1</ele>
        <time>2022-05-15T09:01:21Z</time>
      </trkpt>
      <trkpt lat="44.96379" lon="0.84512">
        <ele>250</ele>
        <time>2022-05-15T09:01:23Z</time>
      </trkpt>
      <trkpt lat="44.96382" lon="0.84518">
        <ele>250</ele>
        <time>2022-05-15T09:01:25Z</time>
      </trkpt>
      <trkpt lat="44.96386" lon="0.84525">
        <ele>249.9</ele>
        <time>2022-05-15T09:01:27Z</time>
      </trkpt>
      <trkpt lat="44.96388" lon="0.8453">
        <ele>249.8</ele>
        <time>2022-05-15T09:01:29Z</time>
      </trkpt>
      <trkpt lat="44.96391" lon="0.84536">
        <ele>249.7</ele>
        <time>2022-05-15T09:01:31Z</time>
      </trkpt>
      <trkpt lat="44.96394" lon="0.84544">
        <ele>249.6</ele>
        <time>2022-05-15T09:01:33Z</time>
      </trkpt>
      <trkpt lat="44.96395" lon="0.84547">
        <ele>249.5</ele>
        <time>2022-05-15T09:01:34Z</time>
      </trkpt>
      <trkpt lat="44.96396" lon="0.8455">
        <ele>249.5</ele>
        <time>2022-05-15T09:01:35Z</time>
      </trkpt>
      <trkpt lat="44.96399" lon="0.84558">
        <ele>249.3</ele>
        <time>2022-05-15T09:01:37Z</time>
      </trkpt>
      <trkpt lat="44.96401" lon="0.84566">
        <ele>249.2</ele>
        <time>2022-05-15T09:01:39Z</time>
      </trkpt>
      <trkpt lat="44.96404" lon="0.84574">
        <ele>249.1</ele>
        <time>2022-05-15T09:01:41Z</time>
      </trkpt>
      <trkpt lat="44.96406" lon="0.84582">
        <ele>249</ele>
        <time>2022-05-15T09:01:43Z</time>
      </trkpt>
      <trkpt lat="44.96409" lon="0.8459">
        <ele>248.8</ele>
        <time>2022-05-15T09:01:45Z</time>
      </trkpt>
      <trkpt lat="44.96411" lon="0.84598">
        <ele>248.7</ele>
        <time>2022-05-15T09:01:47Z</time>
      </trkpt>
      <trkpt lat="44.96413" lon="0.84606">
        <ele>248.5</ele>
        <time>2022-05-15T09:01:49Z</time>
      </trkpt>
      <trkpt lat="44.96414" lon="0.8461">
        <ele>248.4</ele>
        <time>2022-05-15T09:01:50Z</time>
      </trkpt>
      <trkpt lat="44.96414" lon="0.84614">
        <ele>248.4</ele>
        <time>2022-05-15T09:01:51Z</time>
      </trkpt>
      <trkpt lat="44.96415" lon="0.84622">
        <ele>248.2</ele>
        <time>2022-05-15T09:01:53Z</time>
      </trkpt>
      <trkpt lat="44.96416" lon="0.8463">
        <ele>248.1</ele>
        <time>2022-05-15T09:01:55Z</time>
      </trkpt>
      <trkpt lat="44.96416" lon="0.84638">
        <ele>247.9</ele>
        <time>2022-05-15T09:01:57Z</time>
      </trkpt>
      <trkpt lat="44.96419" lon="0.84648">
        <ele>247.7</ele>
        <time>2022-05-15T09:01:59Z</time>
      </trkpt>
      <trkpt lat="44.9642" lon="0.84653">
        <ele>247.6</ele>
        <time>2022-05-15T09:02:00Z</time>
      </trkpt>
      <trkpt lat="44.96422" lon="0.84658">
        <ele>247.5</ele>
        <time>2022-05-15T09:02:01Z</time>
      </trkpt>
      <trkpt lat="44.96424" lon="0.84668">
        <ele>247.4</ele>
        <time>2022-05-15T09:02:03Z</time>
      </trkpt>
      <trkpt lat="44.96425" lon="0.84677">
        <ele>247.2</ele>
        <time>2022-05-15T09:02:05Z</time>
      </trkpt>
      <trkpt lat="44.96425" lon="0.84682">
        <ele>247.1</ele>
        <time>2022-05-15T09:02:06Z</time>
      </trkpt>
      <trkpt lat="44.96425" lon="0.84686">
        <ele>247.1</ele>
        <time>2022-05-15T09:02:07Z</time>
      </trkpt>
      <trkpt lat="44.96425" lon="0.84696">
        <ele>246.9</ele>
        <time>2022-05-15T09:02:09Z</time>
      </trkpt>
      <trkpt lat="44.96427" lon="0.84702">
        <ele>246.7</ele>
        <time>2022-05-15T09:02:10Z</time>
      </trkpt>
      <trkpt lat="44.96429" lon="0.84706">
        <ele>246.6</ele>
        <time>2022-05-15T09:02:11Z</time>
      </trkpt>
      <trkpt lat="44.96433" lon="0.84715">
        <ele>246.3</ele>
        <time>2022-05-15T09:02:13Z</time>
      </trkpt>
      <trkpt lat="44.96437" lon="0.84725">
        <ele>245.8</ele>
        <time>2022-05-15T09:02:15Z</time>
      </trkpt>
      <trkpt lat="44.96441" lon="0.84734">
        <ele>245.3</ele>
        <time>2022-05-15T09:02:17Z</time>
      </trkpt>
      <trkpt lat="44.96445" lon="0.84743">
        <ele>244.7</ele>
        <time>2022-05-15T09:02:19Z</time>
      </trkpt>
      <trkpt lat="44.96448" lon="0.84752">
        <ele>244.1</ele>
        <time>2022-05-15T09:02:21Z</time>
      </trkpt>
      <trkpt lat="44.96451" lon="0.8476">
        <ele>243.6</ele>
        <time>2022-05-15T09:02:23Z</time>
      </trkpt>
      <trkpt lat="44.9645" lon="0.84767">
        <ele>243.2</ele>
        <time>2022-05-15T09:02:24Z</time>
      </trkpt>
      <trkpt lat="44.96448" lon="0.84768">
        <ele>243.1</ele>
        <time>2022-05-15T09:02:25Z</time>
      </trkpt>
      <trkpt lat="44.96446" lon="0.8477">
        <ele>243.1</ele>
        <time>2022-05-15T09:02:27Z</time>
      </trkpt>
      <trkpt lat="44.96442" lon="0.84773">
        <ele>243</ele>
        <time>2022-05-15T09:02:29Z</time>
      </trkpt>
      <trkpt lat="44.96438" lon="0.84778">
        <ele>242.8</ele>
        <time>2022-05-15T09:02:31Z</time>
      </trkpt>
      <trkpt lat="44.96436" lon="0.84781">
        <ele>242.8</ele>
        <time>2022-05-15T09:02:32Z</time>
      </trkpt>
      <trkpt lat="44.96433" lon="0.84784">
        <ele>242.7</ele>
        <time>2022-05-15T09:02:33Z</time>
      </trkpt>
      <trkpt lat="44.96428" lon="0.8479">
        <ele>242.5</ele>
        <time>2022-05-15T09:02:35Z</time>
      </trkpt>
      <trkpt lat="44.96423" lon="0.84796">
        <ele>242.4</ele>
        <time>2022-05-15T09:02:37Z</time>
      </trkpt>
      <trkpt lat="44.96418" lon="0.84802">
        <ele>242.1</ele>
        <time>2022-05-15T09:02:39Z</time>
      </trkpt>
      <trkpt lat="44.96415" lon="0.84813">
        <ele>242</ele>
        <time>2022-05-15T09:02:41Z</time>
      </trkpt>
      <trkpt lat="44.96406" lon="0.84812">
        <ele>241.7</ele>
        <time>2022-05-15T09:02:42Z</time>
      </trkpt>
      <trkpt lat="44.96403" lon="0.84817">
        <ele>241.5</ele>
        <time>2022-05-15T09:02:43Z</time>
      </trkpt>
      <trkpt lat="44.96398" lon="0.84826">
        <ele>241.3</ele>
        <time>2022-05-15T09:02:45Z</time>
      </trkpt>
      <trkpt lat="44.96398" lon="0.84828">
        <ele>241.2</ele>
        <time>2022-05-15T09:02:46Z</time>
      </trkpt>
      <trkpt lat="44.96397" lon="0.84834">
        <ele>241.2</ele>
        <time>2022-05-15T09:02:47Z</time>
      </trkpt>
      <trkpt lat="44.96394" lon="0.84843">
        <ele>241.1</ele>
        <time>2022-05-15T09:02:49Z</time>
      </trkpt>
      <trkpt lat="44.96391" lon="0.84852">
        <ele>241.1</ele>
        <time>2022-05-15T09:02:51Z</time>
      </trkpt>
      <trkpt lat="44.96386" lon="0.84864">
        <ele>241</ele>
        <time>2022-05-15T09:02:53Z</time>
      </trkpt>
      <trkpt lat="44.96381" lon="0.84877">
        <ele>240.8</ele>
        <time>2022-05-15T09:02:55Z</time>
      </trkpt>
      <trkpt lat="44.96378" lon="0.84884">
        <ele>240.8</ele>
        <time>2022-05-15T09:02:56Z</time>
      </trkpt>
      <trkpt lat="44.96375" lon="0.84891">
        <ele>240.7</ele>
        <time>2022-05-15T09:02:57Z</time>
      </trkpt>
      <trkpt lat="44.96372" lon="0.84896">
        <ele>240.7</ele>
        <time>2022-05-15T09:02:58Z</time>
      </trkpt>
      <trkpt lat="44.9637" lon="0.849">
        <ele>240.7</ele>
        <time>2022-05-15T09:02:59Z</time>
      </trkpt>
      <trkpt lat="44.96368" lon="0.84905">
        <ele>240.7</ele>
        <time>2022-05-15T09:03:00Z</time>
      </trkpt>
      <trkpt lat="44.96365" lon="0.8491">
        <ele>240.6</ele>
        <time>2022-05-15T09:03:01Z</time>
      </trkpt>
      <trkpt lat="44.96362" lon="0.84915">
        <ele>240.6</ele>
        <time>2022-05-15T09:03:02Z</time>
      </trkpt>
      <trkpt lat="44.9636" lon="0.84918">
        <ele>240.6</ele>
        <time>2022-05-15T09:03:03Z</time>
      </trkpt>
      <trkpt lat="44.96352" lon="0.84927">
        <ele>240.5</ele>
        <time>2022-05-15T09:03:05Z</time>
      </trkpt>
      <trkpt lat="44.96347" lon="0.84933">
        <ele>240.5</ele>
        <time>2022-05-15T09:03:06Z</time>
      </trkpt>
      <trkpt lat="44.96343" lon="0.84938">
        <ele>240.5</ele>
        <time>2022-05-15T09:03:07Z</time>
      </trkpt>
      <trkpt lat="44.96339" lon="0.84943">
        <ele>240.6</ele>
        <time>2022-05-15T09:03:08Z</time>
      </trkpt>
      <trkpt lat="44.96335" lon="0.84947">
        <ele>240.6</ele>
        <time>2022-05-15T09:03:09Z</time>
      </trkpt>
      <trkpt lat="44.96331" lon="0.84951">
        <ele>240.6</ele>
        <time>2022-05-15T09:03:10Z</time>
      </trkpt>
      <trkpt lat="44.96327" lon="0.84956">
        <ele>240.7</ele>
        <time>2022-05-15T09:03:11Z</time>
      </trkpt>
      <trkpt lat="44.96324" lon="0.8496">
        <ele>240.7</ele>
        <time>2022-05-15T09:03:12Z</time>
      </trkpt>
      <trkpt lat="44.96321" lon="0.84964">
        <ele>240.8</ele>
        <time>2022-05-15T09:03:13Z</time>
      </trkpt>
      <trkpt lat="44.96318" lon="0.84969">
        <ele>240.8</ele>
        <time>2022-05-15T09:03:14Z</time>
      </trkpt>
      <trkpt lat="44.96315" lon="0.84975">
        <ele>240.8</ele>
        <time>2022-05-15T09:03:15Z</time>
      </trkpt>
      <trkpt lat="44.96308" lon="0.84994">
        <ele>240.9</ele>
        <time>2022-05-15T09:03:17Z</time>
      </trkpt>
      <trkpt lat="44.96308" lon="0.85">
        <ele>241</ele>
        <time>2022-05-15T09:03:18Z</time>
      </trkpt>
      <trkpt lat="44.96307" lon="0.85006">
        <ele>241.1</ele>
        <time>2022-05-15T09:03:19Z</time>
      </trkpt>
      <trkpt lat="44.96305" lon="0.8502">
        <ele>241.4</ele>
        <time>2022-05-15T09:03:21Z</time>
      </trkpt>
      <trkpt lat="44.96302" lon="0.85032">
        <ele>241.7</ele>
        <time>2022-05-15T09:03:23Z</time>
      </trkpt>
      <trkpt lat="44.96299" lon="0.85041">
        <ele>242</ele>
        <time>2022-05-15T09:03:24Z</time>
      </trkpt>
      <trkpt lat="44.96296" lon="0.85048">
        <ele>242.2</ele>
        <time>2022-05-15T09:03:25Z</time>
      </trkpt>
      <trkpt lat="44.9629" lon="0.85059">
        <ele>242.6</ele>
        <time>2022-05-15T09:03:27Z</time>
      </trkpt>
      <trkpt lat="44.96287" lon="0.85065">
        <ele>242.8</ele>
        <time>2022-05-15T09:03:28Z</time>
      </trkpt>
      <trkpt lat="44.96284" lon="0.85071">
        <ele>243.1</ele>
        <time>2022-05-15T09:03:29Z</time>
      </trkpt>
      <trkpt lat="44.9628" lon="0.8508">
        <ele>243.4</ele>
        <time>2022-05-15T09:03:31Z</time>
      </trkpt>
      <trkpt lat="44.96276" lon="0.85087">
        <ele>243.7</ele>
        <time>2022-05-15T09:03:33Z</time>
      </trkpt>
      <trkpt lat="44.96273" lon="0.85095">
        <ele>244</ele>
        <time>2022-05-15T09:03:35Z</time>
      </trkpt>
      <trkpt lat="44.96269" lon="0.85103">
        <ele>244.2</ele>
        <time>2022-05-15T09:03:37Z</time>
      </trkpt>
      <trkpt lat="44.96266" lon="0.8511">
        <ele>244.4</ele>
        <time>2022-05-15T09:03:39Z</time>
      </trkpt>
      <trkpt lat="44.96264" lon="0.85119">
        <ele>244.6</ele>
        <time>2022-05-15T09:03:41Z</time>
      </trkpt>
      <trkpt lat="44.96261" lon="0.85129">
        <ele>244.8</ele>
        <time>2022-05-15T09:03:43Z</time>
      </trkpt>
      <trkpt lat="44.96256" lon="0.85142">
        <ele>245</ele>
        <time>2022-05-15T09:03:45Z</time>
      </trkpt>
      <trkpt lat="44.96251" lon="0.8515">
        <ele>245.1</ele>
        <time>2022-05-15T09:03:47Z</time>
      </trkpt>
      <trkpt lat="44.96246" lon="0.85159">
        <ele>245.2</ele>
        <time>2022-05-15T09:03:49Z</time>
      </trkpt>
      <trkpt lat="44.96242" lon="0.85167">
        <ele>245.4</ele>
        <time>2022-05-15T09:03:51Z</time>
      </trkpt>
      <trkpt lat="44.9624" lon="0.8517">
        <ele>245.4</ele>
        <time>2022-05-15T09:03:52Z</time>
      </trkpt>
      <trkpt lat="44.96238" lon="0.85173">
        <ele>245.5</ele>
        <time>2022-05-15T09:03:53Z</time>
      </trkpt>
      <trkpt lat="44.96235" lon="0.85177">
        <ele>245.6</ele>
        <time>2022-05-15T09:03:54Z</time>
      </trkpt>
      <trkpt lat="44.96233" lon="0.85182">
        <ele>245.7</ele>
        <time>2022-05-15T09:03:55Z</time>
      </trkpt>
      <trkpt lat="44.9623" lon="0.85186">
        <ele>245.7</ele>
        <time>2022-05-15T09:03:56Z</time>
      </trkpt>
      <trkpt lat="44.96227" lon="0.85188">
        <ele>245.7</ele>
        <time>2022-05-15T09:03:57Z</time>
      </trkpt>
      <trkpt lat="44.96224" lon="0.85192">
        <ele>245.7</ele>
        <time>2022-05-15T09:03:58Z</time>
      </trkpt>
      <trkpt lat="44.96221" lon="0.85196">
        <ele>245.7</ele>
        <time>2022-05-15T09:03:59Z</time>
      </trkpt>
      <trkpt lat="44.96215" lon="0.85203">
        <ele>245.7</ele>
        <time>2022-05-15T09:04:01Z</time>
      </trkpt>
      <trkpt lat="44.96212" lon="0.85208">
        <ele>245.8</ele>
        <time>2022-05-15T09:04:02Z</time>
      </trkpt>
      <trkpt lat="44.9621" lon="0.85212">
        <ele>245.8</ele>
        <time>2022-05-15T09:04:03Z</time>
      </trkpt>
      <trkpt lat="44.96205" lon="0.85221">
        <ele>246</ele>
        <time>2022-05-15T09:04:05Z</time>
      </trkpt>
      <trkpt lat="44.96201" lon="0.85229">
        <ele>246.1</ele>
        <time>2022-05-15T09:04:07Z</time>
      </trkpt>
      <trkpt lat="44.96196" lon="0.85237">
        <ele>246.2</ele>
        <time>2022-05-15T09:04:09Z</time>
      </trkpt>
      <trkpt lat="44.96192" lon="0.85245">
        <ele>246.3</ele>
        <time>2022-05-15T09:04:11Z</time>
      </trkpt>
      <trkpt lat="44.96188" lon="0.85252">
        <ele>246.5</ele>
        <time>2022-05-15T09:04:13Z</time>
      </trkpt>
      <trkpt lat="44.96186" lon="0.85255">
        <ele>246.5</ele>
        <time>2022-05-15T09:04:14Z</time>
      </trkpt>
      <trkpt lat="44.96185" lon="0.85259">
        <ele>246.6</ele>
        <time>2022-05-15T09:04:15Z</time>
      </trkpt>
      <trkpt lat="44.9618" lon="0.85267">
        <ele>246.9</ele>
        <time>2022-05-15T09:04:17Z</time>
      </trkpt>
      <trkpt lat="44.96176" lon="0.85276">
        <ele>247.1</ele>
        <time>2022-05-15T09:04:19Z</time>
      </trkpt>
      <trkpt lat="44.96172" lon="0.85283">
        <ele>247.4</ele>
        <time>2022-05-15T09:04:21Z</time>
      </trkpt>
      <trkpt lat="44.96168" lon="0.85292">
        <ele>247.7</ele>
        <time>2022-05-15T09:04:23Z</time>
      </trkpt>
      <trkpt lat="44.96167" lon="0.85295">
        <ele>247.8</ele>
        <time>2022-05-15T09:04:24Z</time>
      </trkpt>
      <trkpt lat="44.96165" lon="0.85299">
        <ele>247.9</ele>
        <time>2022-05-15T09:04:25Z</time>
      </trkpt>
      <trkpt lat="44.96161" lon="0.85307">
        <ele>248.3</ele>
        <time>2022-05-15T09:04:27Z</time>
      </trkpt>
      <trkpt lat="44.96158" lon="0.85314">
        <ele>248.6</ele>
        <time>2022-05-15T09:04:29Z</time>
      </trkpt>
      <trkpt lat="44.96155" lon="0.8532">
        <ele>248.9</ele>
        <time>2022-05-15T09:04:31Z</time>
      </trkpt>
      <trkpt lat="44.96152" lon="0.85328">
        <ele>249.4</ele>
        <time>2022-05-15T09:04:33Z</time>
      </trkpt>
      <trkpt lat="44.9615" lon="0.85335">
        <ele>249.8</ele>
        <time>2022-05-15T09:04:35Z</time>
      </trkpt>
      <trkpt lat="44.96148" lon="0.85341">
        <ele>250.1</ele>
        <time>2022-05-15T09:04:37Z</time>
      </trkpt>
      <trkpt lat="44.96147" lon="0.85345">
        <ele>250.4</ele>
        <time>2022-05-15T09:04:39Z</time>
      </trkpt>
      <trkpt lat="44.96146" lon="0.8535">
        <ele>250.7</ele>
        <time>2022-05-15T09:04:41Z</time>
      </trkpt>
      <trkpt lat="44.96145" lon="0.85352">
        <ele>250.8</ele>
        <time>2022-05-15T09:04:42Z</time>
      </trkpt>
      <trkpt lat="44.96145" lon="0.85354">
        <ele>250.9</ele>
        <time>2022-05-15T09:04:43Z</time>
      </trkpt>
      <trkpt lat="44.96143" lon="0.85359">
        <ele>251.2</ele>
        <time>2022-05-15T09:04:45Z</time>
      </trkpt>
      <trkpt lat="44.96142" lon="0.85364">
        <ele>251.4</ele>
        <time>2022-05-15T09:04:47Z</time>
      </trkpt>
      <trkpt lat="44.96141" lon="0.85367">
        <ele>251.5</ele>
        <time>2022-05-15T09:04:48Z</time>
      </trkpt>
      <trkpt lat="44.9614" lon="0.85369">
        <ele>251.6</ele>
        <time>2022-05-15T09:04:49Z</time>
      </trkpt>
      <trkpt lat="44.96139" lon="0.85375">
        <ele>251.8</ele>
        <time>2022-05-15T09:04:51Z</time>
      </trkpt>
      <trkpt lat="44.96137" lon="0.8538">
        <ele>252.1</ele>
        <time>2022-05-15T09:04:53Z</time>
      </trkpt>
      <trkpt lat="44.96136" lon="0.85386">
        <ele>252.2</ele>
        <time>2022-05-15T09:04:55Z</time>
      </trkpt>
      <trkpt lat="44.96134" lon="0.85392">
        <ele>252.4</ele>
        <time>2022-05-15T09:04:57Z</time>
      </trkpt>
      <trkpt lat="44.96132" lon="0.85398">
        <ele>252.6</ele>
        <time>2022-05-15T09:04:59Z</time>
      </trkpt>
      <trkpt lat="44.96131" lon="0.85405">
        <ele>252.8</ele>
        <time>2022-05-15T09:05:01Z</time>
      </trkpt>
      <trkpt lat="44.9613" lon="0.85408">
        <ele>252.8</ele>
        <time>2022-05-15T09:05:02Z</time>
      </trkpt>
      <trkpt lat="44.96129" lon="0.85411">
        <ele>252.9</ele>
        <time>2022-05-15T09:05:03Z</time>
      </trkpt>
      <trkpt lat="44.96127" lon="0.85417">
        <ele>253</ele>
        <time>2022-05-15T09:05:05Z</time>
      </trkpt>
      <trkpt lat="44.96127" lon="0.8542">
        <ele>253.1</ele>
        <time>2022-05-15T09:05:06Z</time>
      </trkpt>
      <trkpt lat="44.96126" lon="0.85423">
        <ele>253.1</ele>
        <time>2022-05-15T09:05:07Z</time>
      </trkpt>
      <trkpt lat="44.96124" lon="0.85429">
        <ele>253.1</ele>
        <time>2022-05-15T09:05:09Z</time>
      </trkpt>
      <trkpt lat="44.96123" lon="0.85436">
        <ele>253</ele>
        <time>2022-05-15T09:05:11Z</time>
      </trkpt>
      <trkpt lat="44.96122" lon="0.85439">
        <ele>252.9</ele>
        <time>2022-05-15T09:05:12Z</time>
      </trkpt>
      <trkpt lat="44.96121" lon="0.85442">
        <ele>252.8</ele>
        <time>2022-05-15T09:05:13Z</time>
      </trkpt>
      <trkpt lat="44.9612" lon="0.85446">
        <ele>252.7</ele>
        <time>2022-05-15T09:05:14Z</time>
      </trkpt>
      <trkpt lat="44.96119" lon="0.8545">
        <ele>252.6</ele>
        <time>2022-05-15T09:05:15Z</time>
      </trkpt>
      <trkpt lat="44.96118" lon="0.85454">
        <ele>252.5</ele>
        <time>2022-05-15T09:05:16Z</time>
      </trkpt>
      <trkpt lat="44.96117" lon="0.85459">
        <ele>252.3</ele>
        <time>2022-05-15T09:05:17Z</time>
      </trkpt>
      <trkpt lat="44.96114" lon="0.8547">
        <ele>251.8</ele>
        <time>2022-05-15T09:05:19Z</time>
      </trkpt>
      <trkpt lat="44.96113" lon="0.85482">
        <ele>251.2</ele>
        <time>2022-05-15T09:05:21Z</time>
      </trkpt>
      <trkpt lat="44.96109" lon="0.85495">
        <ele>250.4</ele>
        <time>2022-05-15T09:05:23Z</time>
      </trkpt>
      <trkpt lat="44.96105" lon="0.85509">
        <ele>249.6</ele>
        <time>2022-05-15T09:05:25Z</time>
      </trkpt>
      <trkpt lat="44.96103" lon="0.85515">
        <ele>249.2</ele>
        <time>2022-05-15T09:05:26Z</time>
      </trkpt>
      <trkpt lat="44.96101" lon="0.85522">
        <ele>248.7</ele>
        <time>2022-05-15T09:05:27Z</time>
      </trkpt>
      <trkpt lat="44.96098" lon="0.8553">
        <ele>248.1</ele>
        <time>2022-05-15T09:05:28Z</time>
      </trkpt>
      <trkpt lat="44.96095" lon="0.8554">
        <ele>247.5</ele>
        <time>2022-05-15T09:05:29Z</time>
      </trkpt>
      <trkpt lat="44.96088" lon="0.85559">
        <ele>246.7</ele>
        <time>2022-05-15T09:05:31Z</time>
      </trkpt>
      <trkpt lat="44.96085" lon="0.85568">
        <ele>246.4</ele>
        <time>2022-05-15T09:05:32Z</time>
      </trkpt>
      <trkpt lat="44.96082" lon="0.85577">
        <ele>246.2</ele>
        <time>2022-05-15T09:05:33Z</time>
      </trkpt>
      <trkpt lat="44.96079" lon="0.85585">
        <ele>246.1</ele>
        <time>2022-05-15T09:05:34Z</time>
      </trkpt>
      <trkpt lat="44.96077" lon="0.85593">
        <ele>246</ele>
        <time>2022-05-15T09:05:35Z</time>
      </trkpt>
      <trkpt lat="44.96072" lon="0.8561">
        <ele>245.8</ele>
        <time>2022-05-15T09:05:37Z</time>
      </trkpt>
      <trkpt lat="44.96071" lon="0.85617">
        <ele>245.8</ele>
        <time>2022-05-15T09:05:38Z</time>
      </trkpt>
      <trkpt lat="44.96069" lon="0.85623">
        <ele>245.8</ele>
        <time>2022-05-15T09:05:39Z</time>
      </trkpt>
      <trkpt lat="44.96066" lon="0.85636">
        <ele>246</ele>
        <time>2022-05-15T09:05:41Z</time>
      </trkpt>
      <trkpt lat="44.96064" lon="0.85651">
        <ele>246.2</ele>
        <time>2022-05-15T09:05:43Z</time>
      </trkpt>
      <trkpt lat="44.96062" lon="0.85664">
        <ele>246.5</ele>
        <time>2022-05-15T09:05:45Z</time>
      </trkpt>
      <trkpt lat="44.96061" lon="0.85668">
        <ele>246.5</ele>
        <time>2022-05-15T09:05:46Z</time>
      </trkpt>
      <trkpt lat="44.96061" lon="0.85673">
        <ele>246.6</ele>
        <time>2022-05-15T09:05:47Z</time>
      </trkpt>
      <trkpt lat="44.96059" lon="0.85682">
        <ele>246.9</ele>
        <time>2022-05-15T09:05:49Z</time>
      </trkpt>
      <trkpt lat="44.96058" lon="0.85686">
        <ele>247</ele>
        <time>2022-05-15T09:05:50Z</time>
      </trkpt>
      <trkpt lat="44.96056" lon="0.85692">
        <ele>247.2</ele>
        <time>2022-05-15T09:05:51Z</time>
      </trkpt>
      <trkpt lat="44.96055" lon="0.85698">
        <ele>247.3</ele>
        <time>2022-05-15T09:05:52Z</time>
      </trkpt>
      <trkpt lat="44.96053" lon="0.85703">
        <ele>247.5</ele>
        <time>2022-05-15T09:05:53Z</time>
      </trkpt>
      <trkpt lat="44.96052" lon="0.85708">
        <ele>247.6</ele>
        <time>2022-05-15T09:05:54Z</time>
      </trkpt>
      <trkpt lat="44.96051" lon="0.85712">
        <ele>247.7</ele>
        <time>2022-05-15T09:05:55Z</time>
      </trkpt>
      <trkpt lat="44.9605" lon="0.85718">
        <ele>247.9</ele>
        <time>2022-05-15T09:05:56Z</time>
      </trkpt>
      <trkpt lat="44.9605" lon="0.85724">
        <ele>248</ele>
        <time>2022-05-15T09:05:57Z</time>
      </trkpt>
      <trkpt lat="44.9605" lon="0.85729">
        <ele>248.1</ele>
        <time>2022-05-15T09:05:58Z</time>
      </trkpt>
      <trkpt lat="44.9605" lon="0.85733">
        <ele>248.1</ele>
        <time>2022-05-15T09:05:59Z</time>
      </trkpt>
      <trkpt lat="44.96051" lon="0.85743">
        <ele>248.3</ele>
        <time>2022-05-15T09:06:01Z</time>
      </trkpt>
      <trkpt lat="44.96052" lon="0.85747">
        <ele>248.4</ele>
        <time>2022-05-15T09:06:02Z</time>
      </trkpt>
      <trkpt lat="44.96052" lon="0.85752">
        <ele>248.5</ele>
        <time>2022-05-15T09:06:03Z</time>
      </trkpt>
      <trkpt lat="44.96054" lon="0.85762">
        <ele>248.7</ele>
        <time>2022-05-15T09:06:05Z</time>
      </trkpt>
      <trkpt lat="44.96055" lon="0.85772">
        <ele>249</ele>
        <time>2022-05-15T09:06:07Z</time>
      </trkpt>
      <trkpt lat="44.96057" lon="0.85782">
        <ele>249.3</ele>
        <time>2022-05-15T09:06:09Z</time>
      </trkpt>
      <trkpt lat="44.96059" lon="0.85792">
        <ele>249.6</ele>
        <time>2022-05-15T09:06:11Z</time>
      </trkpt>
      <trkpt lat="44.9606" lon="0.85802">
        <ele>249.9</ele>
        <time>2022-05-15T09:06:13Z</time>
      </trkpt>
      <trkpt lat="44.96061" lon="0.85807">
        <ele>250.1</ele>
        <time>2022-05-15T09:06:14Z</time>
      </trkpt>
      <trkpt lat="44.96062" lon="0.85811">
        <ele>250.2</ele>
        <time>2022-05-15T09:06:15Z</time>
      </trkpt>
      <trkpt lat="44.96062" lon="0.85816">
        <ele>250.4</ele>
        <time>2022-05-15T09:06:16Z</time>
      </trkpt>
      <trkpt lat="44.96062" lon="0.85822">
        <ele>250.6</ele>
        <time>2022-05-15T09:06:17Z</time>
      </trkpt>
      <trkpt lat="44.96062" lon="0.85829">
        <ele>250.9</ele>
        <time>2022-05-15T09:06:19Z</time>
      </trkpt>
      <trkpt lat="44.96061" lon="0.85837">
        <ele>251.2</ele>
        <time>2022-05-15T09:06:21Z</time>
      </trkpt>
      <trkpt lat="44.96061" lon="0.85841">
        <ele>251.3</ele>
        <time>2022-05-15T09:06:22Z</time>
      </trkpt>
      <trkpt lat="44.96061" lon="0.85844">
        <ele>251.4</ele>
        <time>2022-05-15T09:06:23Z</time>
      </trkpt>
      <trkpt lat="44.96061" lon="0.85846">
        <ele>251.4</ele>
        <time>2022-05-15T09:06:24Z</time>
      </trkpt>
      <trkpt lat="44.96061" lon="0.85846">
        <ele>251.4</ele>
        <time>2022-05-15T09:06:25Z</time>
      </trkpt>
      <trkpt lat="44.96061" lon="0.85846">
        <ele>251.4</ele>
        <time>2022-05-15T09:06:26Z</time>
      </trkpt>
      <trkpt lat="44.9606" lon="0.85852">
        <ele>251.5</ele>
        <time>2022-05-15T09:13:50Z</time>
      </trkpt>
      <trkpt lat="44.9606" lon="0.85852">
        <ele>251.5</ele>
        <time>2022-05-15T09:13:51Z</time>
      </trkpt>
      <trkpt lat="44.96051" lon="0.85873">
        <ele>251.7</ele>
        <time>2022-05-15T09:13:53Z</time>
      </trkpt>
      <trkpt lat="44.96059" lon="0.85858">
        <ele>251.7</ele>
        <time>2022-05-15T09:13:54Z</time>
      </trkpt>
      <trkpt lat="44.96059" lon="0.8586">
        <ele>251.7</ele>
        <time>2022-05-15T09:13:55Z</time>
      </trkpt>
      <trkpt lat="44.96058" lon="0.85862">
        <ele>251.7</ele>
        <time>2022-05-15T09:13:56Z</time>
      </trkpt>
      <trkpt lat="44.96057" lon="0.85865">
        <ele>251.7</ele>
        <time>2022-05-15T09:13:57Z</time>
      </trkpt>
      <trkpt lat="44.96056" lon="0.85867">
        <ele>251.7</ele>
        <time>2022-05-15T09:13:58Z</time>
      </trkpt>
      <trkpt lat="44.96055" lon="0.85868">
        <ele>251.7</ele>
        <time>2022-05-15T09:13:59Z</time>
      </trkpt>
      <trkpt lat="44.9605" lon="0.85871">
        <ele>251.6</ele>
        <time>2022-05-15T09:14:01Z</time>
      </trkpt>
      <trkpt lat="44.96048" lon="0.85869">
        <ele>251.5</ele>
        <time>2022-05-15T09:14:02Z</time>
      </trkpt>
      <trkpt lat="44.96046" lon="0.85867">
        <ele>251.5</ele>
        <time>2022-05-15T09:14:03Z</time>
      </trkpt>
      <trkpt lat="44.9604" lon="0.8586">
        <ele>251.3</ele>
        <time>2022-05-15T09:14:05Z</time>
      </trkpt>
      <trkpt lat="44.96034" lon="0.85854">
        <ele>251.1</ele>
        <time>2022-05-15T09:14:07Z</time>
      </trkpt>
      <trkpt lat="44.96031" lon="0.8585">
        <ele>250.9</ele>
        <time>2022-05-15T09:14:08Z</time>
      </trkpt>
      <trkpt lat="44.96026" lon="0.85849">
        <ele>250.4</ele>
        <time>2022-05-15T09:14:09Z</time>
      </trkpt>
      <trkpt lat="44.96016" lon="0.85848">
        <ele>249.3</ele>
        <time>2022-05-15T09:14:11Z</time>
      </trkpt>
      <trkpt lat="44.96009" lon="0.85848">
        <ele>248.6</ele>
        <time>2022-05-15T09:14:12Z</time>
      </trkpt>
      <trkpt lat="44.96002" lon="0.85847">
        <ele>248</ele>
        <time>2022-05-15T09:14:13Z</time>
      </trkpt>
      <trkpt lat="44.95988" lon="0.85847">
        <ele>247</ele>
        <time>2022-05-15T09:14:15Z</time>
      </trkpt>
      <trkpt lat="44.95975" lon="0.85846">
        <ele>246.1</ele>
        <time>2022-05-15T09:14:17Z</time>
      </trkpt>
      <trkpt lat="44.95969" lon="0.85846">
        <ele>245.7</ele>
        <time>2022-05-15T09:14:18Z</time>
      </trkpt>
      <trkpt lat="44.95964" lon="0.85848">
        <ele>245.4</ele>
        <time>2022-05-15T09:14:19Z</time>
      </trkpt>
      <trkpt lat="44.95961" lon="0.85854">
        <ele>245.1</ele>
        <time>2022-05-15T09:14:20Z</time>
      </trkpt>
      <trkpt lat="44.95961" lon="0.85862">
        <ele>244.8</ele>
        <time>2022-05-15T09:14:21Z</time>
      </trkpt>
      <trkpt lat="44.95959" lon="0.8588">
        <ele>243.9</ele>
        <time>2022-05-15T09:14:23Z</time>
      </trkpt>
      <trkpt lat="44.95958" lon="0.8589">
        <ele>243.5</ele>
        <time>2022-05-15T09:14:24Z</time>
      </trkpt>
      <trkpt lat="44.95957" lon="0.85901">
        <ele>243</ele>
        <time>2022-05-15T09:14:25Z</time>
      </trkpt>
      <trkpt lat="44.95955" lon="0.85922">
        <ele>242.2</ele>
        <time>2022-05-15T09:14:27Z</time>
      </trkpt>
      <trkpt lat="44.95952" lon="0.85944">
        <ele>241.5</ele>
        <time>2022-05-15T09:14:29Z</time>
      </trkpt>
      <trkpt lat="44.95949" lon="0.85964">
        <ele>241.1</ele>
        <time>2022-05-15T09:14:31Z</time>
      </trkpt>
      <trkpt lat="44.95947" lon="0.85984">
        <ele>240.6</ele>
        <time>2022-05-15T09:14:33Z</time>
      </trkpt>
      <trkpt lat="44.95944" lon="0.86004">
        <ele>240.3</ele>
        <time>2022-05-15T09:14:35Z</time>
      </trkpt>
      <trkpt lat="44.9594" lon="0.86023">
        <ele>240</ele>
        <time>2022-05-15T09:14:37Z</time>
      </trkpt>
      <trkpt lat="44.95936" lon="0.86043">
        <ele>239.6</ele>
        <time>2022-05-15T09:14:39Z</time>
      </trkpt>
      <trkpt lat="44.95932" lon="0.86063">
        <ele>239.2</ele>
        <time>2022-05-15T09:14:41Z</time>
      </trkpt>
      <trkpt lat="44.9593" lon="0.86084">
        <ele>238.8</ele>
        <time>2022-05-15T09:14:43Z</time>
      </trkpt>
      <trkpt lat="44.9593" lon="0.86094">
        <ele>238.7</ele>
        <time>2022-05-15T09:14:44Z</time>
      </trkpt>
      <trkpt lat="44.9593" lon="0.86103">
        <ele>238.5</ele>
        <time>2022-05-15T09:14:45Z</time>
      </trkpt>
      <trkpt lat="44.95931" lon="0.86123">
        <ele>238.3</ele>
        <time>2022-05-15T09:14:47Z</time>
      </trkpt>
      <trkpt lat="44.95931" lon="0.86132">
        <ele>238.3</ele>
        <time>2022-05-15T09:14:48Z</time>
      </trkpt>
      <trkpt lat="44.95931" lon="0.86141">
        <ele>238.3</ele>
        <time>2022-05-15T09:14:49Z</time>
      </trkpt>
      <trkpt lat="44.95931" lon="0.86158">
        <ele>238.4</ele>
        <time>2022-05-15T09:14:51Z</time>
      </trkpt>
      <trkpt lat="44.95927" lon="0.86174">
        <ele>238.6</ele>
        <time>2022-05-15T09:14:53Z</time>
      </trkpt>
      <trkpt lat="44.95923" lon="0.86188">
        <ele>238.8</ele>
        <time>2022-05-15T09:14:55Z</time>
      </trkpt>
      <trkpt lat="44.95921" lon="0.86195">
        <ele>238.9</ele>
        <time>2022-05-15T09:14:56Z</time>
      </trkpt>
      <trkpt lat="44.95919" lon="0.86202">
        <ele>238.9</ele>
        <time>2022-05-15T09:14:57Z</time>
      </trkpt>
      <trkpt lat="44.95917" lon="0.8621">
        <ele>238.9</ele>
        <time>2022-05-15T09:14:58Z</time>
      </trkpt>
      <trkpt lat="44.95915" lon="0.86217">
        <ele>238.9</ele>
        <time>2022-05-15T09:14:59Z</time>
      </trkpt>
      <trkpt lat="44.9591" lon="0.86225">
        <ele>238.8</ele>
        <time>2022-05-15T09:15:01Z</time>
      </trkpt>
      <trkpt lat="44.95907" lon="0.8623">
        <ele>238.7</ele>
        <time>2022-05-15T09:15:02Z</time>
      </trkpt>
      <trkpt lat="44.95903" lon="0.86234">
        <ele>238.6</ele>
        <time>2022-05-15T09:15:03Z</time>
      </trkpt>
      <trkpt lat="44.95896" lon="0.8624">
        <ele>238.4</ele>
        <time>2022-05-15T09:15:04Z</time>
      </trkpt>
      <trkpt lat="44.9589" lon="0.86246">
        <ele>238.3</ele>
        <time>2022-05-15T09:15:05Z</time>
      </trkpt>
      <trkpt lat="44.95885" lon="0.86253">
        <ele>238.3</ele>
        <time>2022-05-15T09:15:06Z</time>
      </trkpt>
      <trkpt lat="44.95881" lon="0.86259">
        <ele>238.4</ele>
        <time>2022-05-15T09:15:07Z</time>
      </trkpt>
      <trkpt lat="44.95878" lon="0.86267">
        <ele>238.6</ele>
        <time>2022-05-15T09:15:08Z</time>
      </trkpt>
      <trkpt lat="44.95875" lon="0.86273">
        <ele>238.7</ele>
        <time>2022-05-15T09:15:09Z</time>
      </trkpt>
      <trkpt lat="44.95874" lon="0.86281">
        <ele>238.8</ele>
        <time>2022-05-15T09:15:10Z</time>
      </trkpt>
      <trkpt lat="44.95874" lon="0.86289">
        <ele>239</ele>
        <time>2022-05-15T09:15:11Z</time>
      </trkpt>
      <trkpt lat="44.95876" lon="0.86303">
        <ele>239.3</ele>
        <time>2022-05-15T09:15:13Z</time>
      </trkpt>
      <trkpt lat="44.95877" lon="0.8631">
        <ele>239.3</ele>
        <time>2022-05-15T09:15:14Z</time>
      </trkpt>
      <trkpt lat="44.95877" lon="0.86318">
        <ele>239.3</ele>
        <time>2022-05-15T09:15:15Z</time>
      </trkpt>
      <trkpt lat="44.95873" lon="0.86322">
        <ele>239.3</ele>
        <time>2022-05-15T09:15:16Z</time>
      </trkpt>
      <trkpt lat="44.95869" lon="0.86324">
        <ele>239.2</ele>
        <time>2022-05-15T09:15:17Z</time>
      </trkpt>
      <trkpt lat="44.95864" lon="0.86327">
        <ele>239.1</ele>
        <time>2022-05-15T09:15:18Z</time>
      </trkpt>
      <trkpt lat="44.95859" lon="0.8633">
        <ele>239</ele>
        <time>2022-05-15T09:15:19Z</time>
      </trkpt>
      <trkpt lat="44.95849" lon="0.86337">
        <ele>238.8</ele>
        <time>2022-05-15T09:15:21Z</time>
      </trkpt>
      <trkpt lat="44.95844" lon="0.86341">
        <ele>238.7</ele>
        <time>2022-05-15T09:15:22Z</time>
      </trkpt>
      <trkpt lat="44.95839" lon="0.86344">
        <ele>238.5</ele>
        <time>2022-05-15T09:15:23Z</time>
      </trkpt>
      <trkpt lat="44.95829" lon="0.86352">
        <ele>238.3</ele>
        <time>2022-05-15T09:15:25Z</time>
      </trkpt>
      <trkpt lat="44.95819" lon="0.8636">
        <ele>238.1</ele>
        <time>2022-05-15T09:15:27Z</time>
      </trkpt>
      <trkpt lat="44.95814" lon="0.86364">
        <ele>238</ele>
        <time>2022-05-15T09:15:28Z</time>
      </trkpt>
      <trkpt lat="44.95809" lon="0.86367">
        <ele>238</ele>
        <time>2022-05-15T09:15:29Z</time>
      </trkpt>
      <trkpt lat="44.95799" lon="0.86375">
        <ele>237.8</ele>
        <time>2022-05-15T09:15:31Z</time>
      </trkpt>
      <trkpt lat="44.95789" lon="0.86384">
        <ele>237.5</ele>
        <time>2022-05-15T09:15:33Z</time>
      </trkpt>
      <trkpt lat="44.95783" lon="0.86388">
        <ele>237.4</ele>
        <time>2022-05-15T09:15:34Z</time>
      </trkpt>
      <trkpt lat="44.95778" lon="0.86392">
        <ele>237.3</ele>
        <time>2022-05-15T09:15:35Z</time>
      </trkpt>
      <trkpt lat="44.95773" lon="0.86396">
        <ele>237.1</ele>
        <time>2022-05-15T09:15:36Z</time>
      </trkpt>
      <trkpt lat="44.95769" lon="0.86399">
        <ele>237</ele>
        <time>2022-05-15T09:15:37Z</time>
      </trkpt>
      <trkpt lat="44.95759" lon="0.86408">
        <ele>236.5</ele>
        <time>2022-05-15T09:15:39Z</time>
      </trkpt>
      <trkpt lat="44.95749" lon="0.86417">
        <ele>236</ele>
        <time>2022-05-15T09:15:41Z</time>
      </trkpt>
      <trkpt lat="44.95744" lon="0.86422">
        <ele>235.7</ele>
        <time>2022-05-15T09:15:42Z</time>
      </trkpt>
      <trkpt lat="44.95738" lon="0.86427">
        <ele>235.4</ele>
        <time>2022-05-15T09:15:43Z</time>
      </trkpt>
      <trkpt lat="44.95733" lon="0.86432">
        <ele>235.1</ele>
        <time>2022-05-15T09:15:44Z</time>
      </trkpt>
      <trkpt lat="44.95727" lon="0.86438">
        <ele>234.7</ele>
        <time>2022-05-15T09:15:45Z</time>
      </trkpt>
      <trkpt lat="44.95715" lon="0.86449">
        <ele>234.1</ele>
        <time>2022-05-15T09:15:47Z</time>
      </trkpt>
      <trkpt lat="44.95701" lon="0.86458">
        <ele>233.6</ele>
        <time>2022-05-15T09:15:49Z</time>
      </trkpt>
      <trkpt lat="44.95686" lon="0.86467">
        <ele>232.7</ele>
        <time>2022-05-15T09:15:51Z</time>
      </trkpt>
      <trkpt lat="44.95672" lon="0.86475">
        <ele>231.9</ele>
        <time>2022-05-15T09:15:53Z</time>
      </trkpt>
      <trkpt lat="44.95659" lon="0.86485">
        <ele>231</ele>
        <time>2022-05-15T09:15:55Z</time>
      </trkpt>
      <trkpt lat="44.95646" lon="0.86496">
        <ele>230.1</ele>
        <time>2022-05-15T09:15:57Z</time>
      </trkpt>
      <trkpt lat="44.95633" lon="0.86508">
        <ele>229</ele>
        <time>2022-05-15T09:15:59Z</time>
      </trkpt>
      <trkpt lat="44.9562" lon="0.8652">
        <ele>227.7</ele>
        <time>2022-05-15T09:16:01Z</time>
      </trkpt>
      <trkpt lat="44.95608" lon="0.86532">
        <ele>226.5</ele>
        <time>2022-05-15T09:16:03Z</time>
      </trkpt>
      <trkpt lat="44.95603" lon="0.86537">
        <ele>226</ele>
        <time>2022-05-15T09:16:04Z</time>
      </trkpt>
      <trkpt lat="44.95597" lon="0.86542">
        <ele>225.5</ele>
        <time>2022-05-15T09:16:05Z</time>
      </trkpt>
      <trkpt lat="44.95584" lon="0.86554">
        <ele>224.3</ele>
        <time>2022-05-15T09:16:07Z</time>
      </trkpt>
      <trkpt lat="44.95577" lon="0.86561">
        <ele>223.6</ele>
        <time>2022-05-15T09:16:08Z</time>
      </trkpt>
      <trkpt lat="44.95571" lon="0.86569">
        <ele>222.9</ele>
        <time>2022-05-15T09:16:09Z</time>
      </trkpt>
      <trkpt lat="44.95564" lon="0.86576">
        <ele>222.2</ele>
        <time>2022-05-15T09:16:10Z</time>
      </trkpt>
      <trkpt lat="44.95557" lon="0.86584">
        <ele>221.5</ele>
        <time>2022-05-15T09:16:11Z</time>
      </trkpt>
      <trkpt lat="44.95551" lon="0.86591">
        <ele>220.7</ele>
        <time>2022-05-15T09:16:12Z</time>
      </trkpt>
      <trkpt lat="44.95545" lon="0.86597">
        <ele>220.1</ele>
        <time>2022-05-15T09:16:13Z</time>
      </trkpt>
      <trkpt lat="44.95533" lon="0.8661">
        <ele>215.1</ele>
        <time>2022-05-15T09:16:15Z</time>
      </trkpt>
      <trkpt lat="44.95496" lon="0.86584">
        <ele>216.4</ele>
        <time>2022-05-15T09:16:17Z</time>
      </trkpt>
      <trkpt lat="44.95489" lon="0.86584">
        <ele>216.7</ele>
        <time>2022-05-15T09:16:18Z</time>
      </trkpt>
      <trkpt lat="44.95482" lon="0.86584">
        <ele>216.9</ele>
        <time>2022-05-15T09:16:19Z</time>
      </trkpt>
      <trkpt lat="44.95478" lon="0.86581">
        <ele>217.1</ele>
        <time>2022-05-15T09:16:20Z</time>
      </trkpt>
      <trkpt lat="44.95472" lon="0.86588">
        <ele>217.4</ele>
        <time>2022-05-15T09:16:21Z</time>
      </trkpt>
      <trkpt lat="44.95469" lon="0.86583">
        <ele>217.6</ele>
        <time>2022-05-15T09:16:22Z</time>
      </trkpt>
      <trkpt lat="44.95467" lon="0.86579">
        <ele>217.7</ele>
        <time>2022-05-15T09:16:23Z</time>
      </trkpt>
      <trkpt lat="44.95462" lon="0.8657">
        <ele>218</ele>
        <time>2022-05-15T09:16:25Z</time>
      </trkpt>
      <trkpt lat="44.95459" lon="0.86565">
        <ele>218.2</ele>
        <time>2022-05-15T09:16:26Z</time>
      </trkpt>
      <trkpt lat="44.95457" lon="0.86561">
        <ele>218.3</ele>
        <time>2022-05-15T09:16:27Z</time>
      </trkpt>
      <trkpt lat="44.95455" lon="0.86557">
        <ele>218.5</ele>
        <time>2022-05-15T09:16:28Z</time>
      </trkpt>
      <trkpt lat="44.95452" lon="0.86553">
        <ele>218.6</ele>
        <time>2022-05-15T09:16:29Z</time>
      </trkpt>
      <trkpt lat="44.95449" lon="0.86549">
        <ele>218.8</ele>
        <time>2022-05-15T09:16:30Z</time>
      </trkpt>
      <trkpt lat="44.95447" lon="0.86545">
        <ele>218.9</ele>
        <time>2022-05-15T09:16:31Z</time>
      </trkpt>
      <trkpt lat="44.95443" lon="0.86538">
        <ele>219.1</ele>
        <time>2022-05-15T09:16:33Z</time>
      </trkpt>
      <trkpt lat="44.95437" lon="0.86531">
        <ele>219.4</ele>
        <time>2022-05-15T09:16:35Z</time>
      </trkpt>
      <trkpt lat="44.95429" lon="0.86523">
        <ele>219.7</ele>
        <time>2022-05-15T09:16:37Z</time>
      </trkpt>
      <trkpt lat="44.95421" lon="0.86513">
        <ele>220</ele>
        <time>2022-05-15T09:16:39Z</time>
      </trkpt>
      <trkpt lat="44.95417" lon="0.86507">
        <ele>220.1</ele>
        <time>2022-05-15T09:16:40Z</time>
      </trkpt>
      <trkpt lat="44.95413" lon="0.86503">
        <ele>220.1</ele>
        <time>2022-05-15T09:16:41Z</time>
      </trkpt>
      <trkpt lat="44.9541" lon="0.86496">
        <ele>220</ele>
        <time>2022-05-15T09:16:42Z</time>
      </trkpt>
      <trkpt lat="44.95408" lon="0.86489">
        <ele>219.9</ele>
        <time>2022-05-15T09:16:43Z</time>
      </trkpt>
      <trkpt lat="44.95404" lon="0.86475">
        <ele>219.4</ele>
        <time>2022-05-15T09:16:45Z</time>
      </trkpt>
      <trkpt lat="44.95403" lon="0.86467">
        <ele>219.1</ele>
        <time>2022-05-15T09:16:46Z</time>
      </trkpt>
      <trkpt lat="44.95402" lon="0.86459">
        <ele>218.8</ele>
        <time>2022-05-15T09:16:47Z</time>
      </trkpt>
      <trkpt lat="44.95399" lon="0.86441">
        <ele>217.8</ele>
        <time>2022-05-15T09:16:49Z</time>
      </trkpt>
      <trkpt lat="44.95398" lon="0.8643">
        <ele>217.2</ele>
        <time>2022-05-15T09:16:50Z</time>
      </trkpt>
      <trkpt lat="44.95393" lon="0.86419">
        <ele>216.3</ele>
        <time>2022-05-15T09:16:51Z</time>
      </trkpt>
      <trkpt lat="44.95378" lon="0.86404">
        <ele>214.7</ele>
        <time>2022-05-15T09:16:53Z</time>
      </trkpt>
      <trkpt lat="44.95362" lon="0.86393">
        <ele>213</ele>
        <time>2022-05-15T09:16:55Z</time>
      </trkpt>
      <trkpt lat="44.95352" lon="0.86389">
        <ele>212.1</ele>
        <time>2022-05-15T09:16:56Z</time>
      </trkpt>
      <trkpt lat="44.95343" lon="0.86386">
        <ele>211.3</ele>
        <time>2022-05-15T09:16:57Z</time>
      </trkpt>
      <trkpt lat="44.95325" lon="0.86381">
        <ele>209.8</ele>
        <time>2022-05-15T09:16:59Z</time>
      </trkpt>
      <trkpt lat="44.95307" lon="0.86374">
        <ele>208.4</ele>
        <time>2022-05-15T09:17:01Z</time>
      </trkpt>
      <trkpt lat="44.95287" lon="0.8637">
        <ele>207.3</ele>
        <time>2022-05-15T09:17:03Z</time>
      </trkpt>
      <trkpt lat="44.95278" lon="0.86371">
        <ele>207</ele>
        <time>2022-05-15T09:17:04Z</time>
      </trkpt>
      <trkpt lat="44.9527" lon="0.86373">
        <ele>206.7</ele>
        <time>2022-05-15T09:17:05Z</time>
      </trkpt>
      <trkpt lat="44.95262" lon="0.86376">
        <ele>206.5</ele>
        <time>2022-05-15T09:17:06Z</time>
      </trkpt>
      <trkpt lat="44.95254" lon="0.86378">
        <ele>206.3</ele>
        <time>2022-05-15T09:17:07Z</time>
      </trkpt>
      <trkpt lat="44.95246" lon="0.86381">
        <ele>206.1</ele>
        <time>2022-05-15T09:17:08Z</time>
      </trkpt>
      <trkpt lat="44.95239" lon="0.86384">
        <ele>205.8</ele>
        <time>2022-05-15T09:17:09Z</time>
      </trkpt>
      <trkpt lat="44.95224" lon="0.86388">
        <ele>205</ele>
        <time>2022-05-15T09:17:11Z</time>
      </trkpt>
      <trkpt lat="44.95216" lon="0.86391">
        <ele>204.4</ele>
        <time>2022-05-15T09:17:12Z</time>
      </trkpt>
      <trkpt lat="44.95206" lon="0.8639">
        <ele>203.7</ele>
        <time>2022-05-15T09:17:13Z</time>
      </trkpt>
      <trkpt lat="44.95187" lon="0.86389">
        <ele>202.7</ele>
        <time>2022-05-15T09:17:15Z</time>
      </trkpt>
      <trkpt lat="44.95171" lon="0.86387">
        <ele>202.2</ele>
        <time>2022-05-15T09:17:17Z</time>
      </trkpt>
      <trkpt lat="44.95162" lon="0.86387">
        <ele>201.9</ele>
        <time>2022-05-15T09:17:18Z</time>
      </trkpt>
      <trkpt lat="44.95154" lon="0.8639">
        <ele>201.8</ele>
        <time>2022-05-15T09:17:19Z</time>
      </trkpt>
      <trkpt lat="44.95147" lon="0.86393">
        <ele>201.8</ele>
        <time>2022-05-15T09:17:20Z</time>
      </trkpt>
      <trkpt lat="44.9514" lon="0.86396">
        <ele>201.8</ele>
        <time>2022-05-15T09:17:21Z</time>
      </trkpt>
      <trkpt lat="44.95133" lon="0.86399">
        <ele>201.8</ele>
        <time>2022-05-15T09:17:22Z</time>
      </trkpt>
      <trkpt lat="44.95127" lon="0.86401">
        <ele>201.8</ele>
        <time>2022-05-15T09:17:23Z</time>
      </trkpt>
      <trkpt lat="44.95122" lon="0.86404">
        <ele>201.9</ele>
        <time>2022-05-15T09:17:24Z</time>
      </trkpt>
      <trkpt lat="44.95116" lon="0.86406">
        <ele>202</ele>
        <time>2022-05-15T09:17:25Z</time>
      </trkpt>
      <trkpt lat="44.95105" lon="0.86409">
        <ele>202.2</ele>
        <time>2022-05-15T09:17:27Z</time>
      </trkpt>
      <trkpt lat="44.95099" lon="0.8641">
        <ele>202.4</ele>
        <time>2022-05-15T09:17:28Z</time>
      </trkpt>
      <trkpt lat="44.95094" lon="0.86412">
        <ele>202.5</ele>
        <time>2022-05-15T09:17:29Z</time>
      </trkpt>
      <trkpt lat="44.95087" lon="0.86414">
        <ele>202.5</ele>
        <time>2022-05-15T09:17:30Z</time>
      </trkpt>
      <trkpt lat="44.9508" lon="0.86416">
        <ele>202.5</ele>
        <time>2022-05-15T09:17:31Z</time>
      </trkpt>
      <trkpt lat="44.95074" lon="0.86418">
        <ele>202.3</ele>
        <time>2022-05-15T09:17:32Z</time>
      </trkpt>
      <trkpt lat="44.95067" lon="0.86419">
        <ele>202.1</ele>
        <time>2022-05-15T09:17:33Z</time>
      </trkpt>
      <trkpt lat="44.95053" lon="0.86423">
        <ele>201.3</ele>
        <time>2022-05-15T09:17:35Z</time>
      </trkpt>
      <trkpt lat="44.95038" lon="0.86425">
        <ele>200.5</ele>
        <time>2022-05-15T09:17:37Z</time>
      </trkpt>
      <trkpt lat="44.95022" lon="0.86426">
        <ele>200.1</ele>
        <time>2022-05-15T09:17:39Z</time>
      </trkpt>
      <trkpt lat="44.95009" lon="0.86428">
        <ele>200.1</ele>
        <time>2022-05-15T09:17:41Z</time>
      </trkpt>
      <trkpt lat="44.94996" lon="0.86429">
        <ele>200.1</ele>
        <time>2022-05-15T09:17:43Z</time>
      </trkpt>
      <trkpt lat="44.94986" lon="0.86431">
        <ele>200.2</ele>
        <time>2022-05-15T09:17:45Z</time>
      </trkpt>
      <trkpt lat="44.94975" lon="0.86433">
        <ele>200.3</ele>
        <time>2022-05-15T09:17:47Z</time>
      </trkpt>
      <trkpt lat="44.94966" lon="0.86435">
        <ele>200.6</ele>
        <time>2022-05-15T09:17:49Z</time>
      </trkpt>
      <trkpt lat="44.94956" lon="0.86437">
        <ele>201.1</ele>
        <time>2022-05-15T09:17:51Z</time>
      </trkpt>
      <trkpt lat="44.94951" lon="0.86438">
        <ele>201.4</ele>
        <time>2022-05-15T09:17:52Z</time>
      </trkpt>
      <trkpt lat="44.94948" lon="0.86438">
        <ele>201.6</ele>
        <time>2022-05-15T09:17:53Z</time>
      </trkpt>
      <trkpt lat="44.94942" lon="0.86439">
        <ele>202</ele>
        <time>2022-05-15T09:17:55Z</time>
      </trkpt>
      <trkpt lat="44.94935" lon="0.8644">
        <ele>202.5</ele>
        <time>2022-05-15T09:17:57Z</time>
      </trkpt>
      <trkpt lat="44.94933" lon="0.86441">
        <ele>202.6</ele>
        <time>2022-05-15T09:17:58Z</time>
      </trkpt>
      <trkpt lat="44.9493" lon="0.86441">
        <ele>202.8</ele>
        <time>2022-05-15T09:17:59Z</time>
      </trkpt>
      <trkpt lat="44.94935" lon="0.8645">
        <ele>203.2</ele>
        <time>2022-05-15T09:18:00Z</time>
      </trkpt>
      <trkpt lat="44.94936" lon="0.86452">
        <ele>203.2</ele>
        <time>2022-05-15T09:18:01Z</time>
      </trkpt>
      <trkpt lat="44.94943" lon="0.86456">
        <ele>202.7</ele>
        <time>2022-05-15T09:18:03Z</time>
      </trkpt>
      <trkpt lat="44.94949" lon="0.86458">
        <ele>202.3</ele>
        <time>2022-05-15T09:18:04Z</time>
      </trkpt>
      <trkpt lat="44.94957" lon="0.86459">
        <ele>201.8</ele>
        <time>2022-05-15T09:18:05Z</time>
      </trkpt>
      <trkpt lat="44.94971" lon="0.86458">
        <ele>200.9</ele>
        <time>2022-05-15T09:18:07Z</time>
      </trkpt>
      <trkpt lat="44.94974" lon="0.86433">
        <ele>201.7</ele>
        <time>2022-05-15T09:18:09Z</time>
      </trkpt>
      <trkpt lat="44.94979" lon="0.86433">
        <ele>201.7</ele>
        <time>2022-05-15T09:18:10Z</time>
      </trkpt>
      <trkpt lat="44.94982" lon="0.86451">
        <ele>200.8</ele>
        <time>2022-05-15T09:18:11Z</time>
      </trkpt>
      <trkpt lat="44.94985" lon="0.8647">
        <ele>200.1</ele>
        <time>2022-05-15T09:18:12Z</time>
      </trkpt>
      <trkpt lat="44.94983" lon="0.86475">
        <ele>200.1</ele>
        <time>2022-05-15T09:18:13Z</time>
      </trkpt>
      <trkpt lat="44.94979" lon="0.86482">
        <ele>200.1</ele>
        <time>2022-05-15T09:18:15Z</time>
      </trkpt>
      <trkpt lat="44.94973" lon="0.86493">
        <ele>199.8</ele>
        <time>2022-05-15T09:18:17Z</time>
      </trkpt>
      <trkpt lat="44.94971" lon="0.86502">
        <ele>199.1</ele>
        <time>2022-05-15T09:18:18Z</time>
      </trkpt>
      <trkpt lat="44.94968" lon="0.86512">
        <ele>199.1</ele>
        <time>2022-05-15T09:18:19Z</time>
      </trkpt>
      <trkpt lat="44.94962" lon="0.86531">
        <ele>198.5</ele>
        <time>2022-05-15T09:18:21Z</time>
      </trkpt>
      <trkpt lat="44.94957" lon="0.8654">
        <ele>198.5</ele>
        <time>2022-05-15T09:18:22Z</time>
      </trkpt>
      <trkpt lat="44.94952" lon="0.86547">
        <ele>198.5</ele>
        <time>2022-05-15T09:18:23Z</time>
      </trkpt>
      <trkpt lat="44.94944" lon="0.86565">
        <ele>198.1</ele>
        <time>2022-05-15T09:18:25Z</time>
      </trkpt>
      <trkpt lat="44.94937" lon="0.86584">
        <ele>197.8</ele>
        <time>2022-05-15T09:18:27Z</time>
      </trkpt>
      <trkpt lat="44.94933" lon="0.8659">
        <ele>197.4</ele>
        <time>2022-05-15T09:18:28Z</time>
      </trkpt>
      <trkpt lat="44.94929" lon="0.86599">
        <ele>197.4</ele>
        <time>2022-05-15T09:18:29Z</time>
      </trkpt>
      <trkpt lat="44.9492" lon="0.86617">
        <ele>197</ele>
        <time>2022-05-15T09:18:31Z</time>
      </trkpt>
      <trkpt lat="44.94914" lon="0.86625">
        <ele>197.5</ele>
        <time>2022-05-15T09:18:32Z</time>
      </trkpt>
      <trkpt lat="44.94908" lon="0.86631">
        <ele>197</ele>
        <time>2022-05-15T09:18:33Z</time>
      </trkpt>
      <trkpt lat="44.94896" lon="0.86649">
        <ele>196.9</ele>
        <time>2022-05-15T09:18:35Z</time>
      </trkpt>
      <trkpt lat="44.94883" lon="0.86669">
        <ele>196.7</ele>
        <time>2022-05-15T09:18:37Z</time>
      </trkpt>
      <trkpt lat="44.94873" lon="0.86688">
        <ele>196.1</ele>
        <time>2022-05-15T09:18:39Z</time>
      </trkpt>
      <trkpt lat="44.9487" lon="0.86708">
        <ele>197.1</ele>
        <time>2022-05-15T09:18:41Z</time>
      </trkpt>
      <trkpt lat="44.94869" lon="0.86718">
        <ele>197.1</ele>
        <time>2022-05-15T09:18:42Z</time>
      </trkpt>
      <trkpt lat="44.94866" lon="0.86728">
        <ele>197.3</ele>
        <time>2022-05-15T09:18:43Z</time>
      </trkpt>
      <trkpt lat="44.94865" lon="0.86742">
        <ele>197.7</ele>
        <time>2022-05-15T09:18:45Z</time>
      </trkpt>
      <trkpt lat="44.94861" lon="0.86758">
        <ele>196.5</ele>
        <time>2022-05-15T09:18:47Z</time>
      </trkpt>
      <trkpt lat="44.94854" lon="0.86777">
        <ele>196.8</ele>
        <time>2022-05-15T09:18:49Z</time>
      </trkpt>
      <trkpt lat="44.94852" lon="0.86787">
        <ele>195.2</ele>
        <time>2022-05-15T09:18:50Z</time>
      </trkpt>
      <trkpt lat="44.94851" lon="0.86799">
        <ele>195.4</ele>
        <time>2022-05-15T09:18:51Z</time>
      </trkpt>
      <trkpt lat="44.94851" lon="0.86809">
        <ele>195.6</ele>
        <time>2022-05-15T09:18:52Z</time>
      </trkpt>
      <trkpt lat="44.94851" lon="0.86817">
        <ele>195.6</ele>
        <time>2022-05-15T09:18:53Z</time>
      </trkpt>
      <trkpt lat="44.94849" lon="0.86836">
        <ele>195.8</ele>
        <time>2022-05-15T09:18:55Z</time>
      </trkpt>
      <trkpt lat="44.94846" lon="0.86856">
        <ele>196.2</ele>
        <time>2022-05-15T09:18:57Z</time>
      </trkpt>
      <trkpt lat="44.94841" lon="0.86869">
        <ele>196.9</ele>
        <time>2022-05-15T09:18:59Z</time>
      </trkpt>
      <trkpt lat="44.94829" lon="0.8688">
        <ele>195</ele>
        <time>2022-05-15T09:19:01Z</time>
      </trkpt>
      <trkpt lat="44.94825" lon="0.86883">
        <ele>192.9</ele>
        <time>2022-05-15T09:19:02Z</time>
      </trkpt>
      <trkpt lat="44.94819" lon="0.86888">
        <ele>192.9</ele>
        <time>2022-05-15T09:19:03Z</time>
      </trkpt>
      <trkpt lat="44.94813" lon="0.86895">
        <ele>191</ele>
        <time>2022-05-15T09:19:04Z</time>
      </trkpt>
      <trkpt lat="44.94806" lon="0.86902">
        <ele>191</ele>
        <time>2022-05-15T09:19:05Z</time>
      </trkpt>
      <trkpt lat="44.94799" lon="0.86913">
        <ele>188.6</ele>
        <time>2022-05-15T09:19:06Z</time>
      </trkpt>
      <trkpt lat="44.94793" lon="0.8692">
        <ele>188.6</ele>
        <time>2022-05-15T09:19:07Z</time>
      </trkpt>
      <trkpt lat="44.94789" lon="0.86926">
        <ele>186.8</ele>
        <time>2022-05-15T09:19:08Z</time>
      </trkpt>
      <trkpt lat="44.94784" lon="0.86938">
        <ele>186.8</ele>
        <time>2022-05-15T09:19:09Z</time>
      </trkpt>
      <trkpt lat="44.94779" lon="0.86947">
        <ele>184.1</ele>
        <time>2022-05-15T09:19:10Z</time>
      </trkpt>
      <trkpt lat="44.94774" lon="0.86952">
        <ele>184.1</ele>
        <time>2022-05-15T09:19:11Z</time>
      </trkpt>
      <trkpt lat="44.94764" lon="0.86965">
        <ele>182.2</ele>
        <time>2022-05-15T09:19:13Z</time>
      </trkpt>
      <trkpt lat="44.94751" lon="0.86975">
        <ele>180.9</ele>
        <time>2022-05-15T09:19:15Z</time>
      </trkpt>
      <trkpt lat="44.94742" lon="0.86989">
        <ele>179.3</ele>
        <time>2022-05-15T09:19:17Z</time>
      </trkpt>
      <trkpt lat="44.9473" lon="0.8701">
        <ele>177.8</ele>
        <time>2022-05-15T09:19:19Z</time>
      </trkpt>
      <trkpt lat="44.94722" lon="0.87021">
        <ele>176.8</ele>
        <time>2022-05-15T09:19:20Z</time>
      </trkpt>
      <trkpt lat="44.94716" lon="0.87034">
        <ele>175</ele>
        <time>2022-05-15T09:19:21Z</time>
      </trkpt>
      <trkpt lat="44.94703" lon="0.87061">
        <ele>173.9</ele>
        <time>2022-05-15T09:19:23Z</time>
      </trkpt>
      <trkpt lat="44.94697" lon="0.87073">
        <ele>172.6</ele>
        <time>2022-05-15T09:19:24Z</time>
      </trkpt>
      <trkpt lat="44.94693" lon="0.87085">
        <ele>172</ele>
        <time>2022-05-15T09:19:25Z</time>
      </trkpt>
      <trkpt lat="44.94684" lon="0.87112">
        <ele>170.7</ele>
        <time>2022-05-15T09:19:27Z</time>
      </trkpt>
      <trkpt lat="44.9468" lon="0.87122">
        <ele>170.2</ele>
        <time>2022-05-15T09:19:28Z</time>
      </trkpt>
      <trkpt lat="44.94677" lon="0.87135">
        <ele>170.3</ele>
        <time>2022-05-15T09:19:29Z</time>
      </trkpt>
      <trkpt lat="44.94675" lon="0.8715">
        <ele>168.7</ele>
        <time>2022-05-15T09:19:30Z</time>
      </trkpt>
      <trkpt lat="44.94675" lon="0.87161">
        <ele>167.4</ele>
        <time>2022-05-15T09:19:31Z</time>
      </trkpt>
      <trkpt lat="44.94672" lon="0.87188">
        <ele>165.4</ele>
        <time>2022-05-15T09:19:33Z</time>
      </trkpt>
      <trkpt lat="44.94665" lon="0.87213">
        <ele>163.9</ele>
        <time>2022-05-15T09:19:35Z</time>
      </trkpt>
      <trkpt lat="44.94659" lon="0.87234">
        <ele>163.3</ele>
        <time>2022-05-15T09:19:37Z</time>
      </trkpt>
      <trkpt lat="44.94652" lon="0.87246">
        <ele>162.2</ele>
        <time>2022-05-15T09:19:38Z</time>
      </trkpt>
      <trkpt lat="44.94645" lon="0.87259">
        <ele>160.7</ele>
        <time>2022-05-15T09:19:39Z</time>
      </trkpt>
      <trkpt lat="44.94639" lon="0.87267">
        <ele>160.7</ele>
        <time>2022-05-15T09:19:40Z</time>
      </trkpt>
      <trkpt lat="44.94631" lon="0.87275">
        <ele>160.1</ele>
        <time>2022-05-15T09:19:41Z</time>
      </trkpt>
      <trkpt lat="44.94625" lon="0.8728">
        <ele>160.1</ele>
        <time>2022-05-15T09:19:42Z</time>
      </trkpt>
      <trkpt lat="44.94619" lon="0.87287">
        <ele>159.9</ele>
        <time>2022-05-15T09:19:43Z</time>
      </trkpt>
      <trkpt lat="44.94607" lon="0.87298">
        <ele>159.3</ele>
        <time>2022-05-15T09:19:45Z</time>
      </trkpt>
      <trkpt lat="44.94603" lon="0.87304">
        <ele>159.3</ele>
        <time>2022-05-15T09:19:46Z</time>
      </trkpt>
      <trkpt lat="44.946" lon="0.87307">
        <ele>159.3</ele>
        <time>2022-05-15T09:19:47Z</time>
      </trkpt>
      <trkpt lat="44.94598" lon="0.87307">
        <ele>159</ele>
        <time>2022-05-15T09:19:48Z</time>
      </trkpt>
      <trkpt lat="44.94597" lon="0.8731">
        <ele>158.8</ele>
        <time>2022-05-15T09:19:49Z</time>
      </trkpt>
      <trkpt lat="44.94593" lon="0.87314">
        <ele>158.8</ele>
        <time>2022-05-15T09:19:51Z</time>
      </trkpt>
      <trkpt lat="44.94591" lon="0.87317">
        <ele>158.8</ele>
        <time>2022-05-15T09:19:53Z</time>
      </trkpt>
      <trkpt lat="44.9459" lon="0.87319">
        <ele>158.8</ele>
        <time>2022-05-15T09:19:54Z</time>
      </trkpt>
      <trkpt lat="44.94579" lon="0.87337">
        <ele>158.5</ele>
        <time>2022-05-15T09:38:54Z</time>
      </trkpt>
      <trkpt lat="44.94577" lon="0.8734">
        <ele>158.5</ele>
        <time>2022-05-15T09:38:55Z</time>
      </trkpt>
      <trkpt lat="44.94572" lon="0.87342">
        <ele>157.9</ele>
        <time>2022-05-15T09:38:57Z</time>
      </trkpt>
      <trkpt lat="44.94571" lon="0.87344">
        <ele>157.9</ele>
        <time>2022-05-15T09:38:58Z</time>
      </trkpt>
      <trkpt lat="44.9457" lon="0.87346">
        <ele>157.9</ele>
        <time>2022-05-15T09:38:59Z</time>
      </trkpt>
      <trkpt lat="44.94567" lon="0.87348">
        <ele>157.9</ele>
        <time>2022-05-15T09:39:00Z</time>
      </trkpt>
      <trkpt lat="44.94565" lon="0.87349">
        <ele>157.9</ele>
        <time>2022-05-15T09:39:01Z</time>
      </trkpt>
      <trkpt lat="44.94564" lon="0.87352">
        <ele>157.9</ele>
        <time>2022-05-15T09:39:02Z</time>
      </trkpt>
      <trkpt lat="44.94564" lon="0.87353">
        <ele>157.9</ele>
        <time>2022-05-15T09:39:03Z</time>
      </trkpt>
      <trkpt lat="44.94559" lon="0.87357">
        <ele>157.6</ele>
        <time>2022-05-15T09:39:05Z</time>
      </trkpt>
      <trkpt lat="44.94556" lon="0.87362">
        <ele>156.7</ele>
        <time>2022-05-15T09:39:07Z</time>
      </trkpt>
      <trkpt lat="44.94551" lon="0.87367">
        <ele>156.7</ele>
        <time>2022-05-15T09:39:09Z</time>
      </trkpt>
      <trkpt lat="44.94545" lon="0.87368">
        <ele>156.2</ele>
        <time>2022-05-15T09:39:10Z</time>
      </trkpt>
      <trkpt lat="44.94542" lon="0.8737">
        <ele>156.2</ele>
        <time>2022-05-15T09:39:11Z</time>
      </trkpt>
      <trkpt lat="44.94538" lon="0.87372">
        <ele>156.2</ele>
        <time>2022-05-15T09:39:12Z</time>
      </trkpt>
      <trkpt lat="44.94532" lon="0.87373">
        <ele>156.2</ele>
        <time>2022-05-15T09:39:13Z</time>
      </trkpt>
      <trkpt lat="44.94522" lon="0.87374">
        <ele>156.4</ele>
        <time>2022-05-15T09:39:15Z</time>
      </trkpt>
      <trkpt lat="44.94513" lon="0.87377">
        <ele>155</ele>
        <time>2022-05-15T09:39:17Z</time>
      </trkpt>
      <trkpt lat="44.94505" lon="0.87383">
        <ele>154.7</ele>
        <time>2022-05-15T09:39:19Z</time>
      </trkpt>
      <trkpt lat="44.94497" lon="0.87389">
        <ele>154.7</ele>
        <time>2022-05-15T09:39:21Z</time>
      </trkpt>
      <trkpt lat="44.9449" lon="0.87395">
        <ele>153.1</ele>
        <time>2022-05-15T09:39:23Z</time>
      </trkpt>
      <trkpt lat="44.94486" lon="0.87398">
        <ele>153.5</ele>
        <time>2022-05-15T09:39:24Z</time>
      </trkpt>
      <trkpt lat="44.94483" lon="0.874">
        <ele>153.5</ele>
        <time>2022-05-15T09:39:25Z</time>
      </trkpt>
      <trkpt lat="44.94476" lon="0.87401">
        <ele>153.5</ele>
        <time>2022-05-15T09:39:27Z</time>
      </trkpt>
      <trkpt lat="44.94473" lon="0.874">
        <ele>154.6</ele>
        <time>2022-05-15T09:39:28Z</time>
      </trkpt>
      <trkpt lat="44.94469" lon="0.87401">
        <ele>154.6</ele>
        <time>2022-05-15T09:39:29Z</time>
      </trkpt>
      <trkpt lat="44.94463" lon="0.87396">
        <ele>156</ele>
        <time>2022-05-15T09:39:31Z</time>
      </trkpt>
      <trkpt lat="44.94457" lon="0.87391">
        <ele>156.8</ele>
        <time>2022-05-15T09:39:33Z</time>
      </trkpt>
      <trkpt lat="44.94453" lon="0.87382">
        <ele>156.8</ele>
        <time>2022-05-15T09:39:35Z</time>
      </trkpt>
      <trkpt lat="44.94448" lon="0.87373">
        <ele>158.9</ele>
        <time>2022-05-15T09:39:37Z</time>
      </trkpt>
      <trkpt lat="44.94447" lon="0.87369">
        <ele>158.9</ele>
        <time>2022-05-15T09:39:38Z</time>
      </trkpt>
      <trkpt lat="44.94445" lon="0.87366">
        <ele>159</ele>
        <time>2022-05-15T09:39:39Z</time>
      </trkpt>
      <trkpt lat="44.94444" lon="0.8736">
        <ele>159.1</ele>
        <time>2022-05-15T09:39:41Z</time>
      </trkpt>
      <trkpt lat="44.94444" lon="0.87354">
        <ele>159.2</ele>
        <time>2022-05-15T09:39:43Z</time>
      </trkpt>
      <trkpt lat="44.94443" lon="0.8735">
        <ele>159.2</ele>
        <time>2022-05-15T09:39:45Z</time>
      </trkpt>
      <trkpt lat="44.94441" lon="0.87344">
        <ele>159.3</ele>
        <time>2022-05-15T09:39:47Z</time>
      </trkpt>
      <trkpt lat="44.9444" lon="0.87342">
        <ele>159.4</ele>
        <time>2022-05-15T09:39:48Z</time>
      </trkpt>
      <trkpt lat="44.94439" lon="0.87337">
        <ele>159.5</ele>
        <time>2022-05-15T09:39:49Z</time>
      </trkpt>
      <trkpt lat="44.94437" lon="0.87329">
        <ele>159.6</ele>
        <time>2022-05-15T09:39:51Z</time>
      </trkpt>
      <trkpt lat="44.94436" lon="0.87325">
        <ele>159.7</ele>
        <time>2022-05-15T09:39:52Z</time>
      </trkpt>
      <trkpt lat="44.94434" lon="0.87322">
        <ele>159.8</ele>
        <time>2022-05-15T09:39:53Z</time>
      </trkpt>
      <trkpt lat="44.94433" lon="0.87315">
        <ele>159.9</ele>
        <time>2022-05-15T09:39:55Z</time>
      </trkpt>
      <trkpt lat="44.94434" lon="0.87312">
        <ele>160</ele>
        <time>2022-05-15T09:39:56Z</time>
      </trkpt>
      <trkpt lat="44.94434" lon="0.87309">
        <ele>160</ele>
        <time>2022-05-15T09:39:57Z</time>
      </trkpt>
      <trkpt lat="44.94434" lon="0.87303">
        <ele>160.1</ele>
        <time>2022-05-15T09:39:59Z</time>
      </trkpt>
      <trkpt lat="44.94433" lon="0.87297">
        <ele>160.3</ele>
        <time>2022-05-15T09:40:01Z</time>
      </trkpt>
      <trkpt lat="44.94434" lon="0.87292">
        <ele>160.3</ele>
        <time>2022-05-15T09:40:02Z</time>
      </trkpt>
      <trkpt lat="44.94434" lon="0.87289">
        <ele>160.4</ele>
        <time>2022-05-15T09:40:03Z</time>
      </trkpt>
      <trkpt lat="44.94432" lon="0.87286">
        <ele>160.5</ele>
        <time>2022-05-15T09:40:04Z</time>
      </trkpt>
      <trkpt lat="44.94432" lon="0.87284">
        <ele>160.6</ele>
        <time>2022-05-15T09:40:05Z</time>
      </trkpt>
      <trkpt lat="44.94431" lon="0.87281">
        <ele>160.6</ele>
        <time>2022-05-15T09:40:06Z</time>
      </trkpt>
      <trkpt lat="44.94431" lon="0.87278">
        <ele>160.7</ele>
        <time>2022-05-15T09:40:07Z</time>
      </trkpt>
      <trkpt lat="44.94431" lon="0.87271">
        <ele>160.9</ele>
        <time>2022-05-15T09:40:09Z</time>
      </trkpt>
      <trkpt lat="44.94432" lon="0.87266">
        <ele>161</ele>
        <time>2022-05-15T09:40:11Z</time>
      </trkpt>
      <trkpt lat="44.94432" lon="0.87263">
        <ele>161.1</ele>
        <time>2022-05-15T09:40:12Z</time>
      </trkpt>
      <trkpt lat="44.94432" lon="0.87261">
        <ele>161.2</ele>
        <time>2022-05-15T09:40:13Z</time>
      </trkpt>
      <trkpt lat="44.94433" lon="0.87257">
        <ele>161.3</ele>
        <time>2022-05-15T09:40:15Z</time>
      </trkpt>
      <trkpt lat="44.94432" lon="0.87254">
        <ele>161.4</ele>
        <time>2022-05-15T09:40:16Z</time>
      </trkpt>
      <trkpt lat="44.94431" lon="0.87253">
        <ele>161.5</ele>
        <time>2022-05-15T09:40:17Z</time>
      </trkpt>
      <trkpt lat="44.94432" lon="0.87251">
        <ele>161.6</ele>
        <time>2022-05-15T09:40:18Z</time>
      </trkpt>
      <trkpt lat="44.94432" lon="0.87249">
        <ele>161.6</ele>
        <time>2022-05-15T09:40:19Z</time>
      </trkpt>
      <trkpt lat="44.9443" lon="0.87247">
        <ele>161.7</ele>
        <time>2022-05-15T09:40:20Z</time>
      </trkpt>
      <trkpt lat="44.94429" lon="0.87247">
        <ele>161.8</ele>
        <time>2022-05-15T09:40:21Z</time>
      </trkpt>
      <trkpt lat="44.94429" lon="0.87243">
        <ele>161.9</ele>
        <time>2022-05-15T09:40:23Z</time>
      </trkpt>
      <trkpt lat="44.94427" lon="0.87241">
        <ele>162.1</ele>
        <time>2022-05-15T09:40:24Z</time>
      </trkpt>
      <trkpt lat="44.94427" lon="0.87239">
        <ele>162.2</ele>
        <time>2022-05-15T09:40:25Z</time>
      </trkpt>
      <trkpt lat="44.94424" lon="0.87235">
        <ele>162.4</ele>
        <time>2022-05-15T09:40:27Z</time>
      </trkpt>
      <trkpt lat="44.94421" lon="0.87231">
        <ele>162.6</ele>
        <time>2022-05-15T09:40:29Z</time>
      </trkpt>
      <trkpt lat="44.94419" lon="0.87228">
        <ele>162.8</ele>
        <time>2022-05-15T09:40:31Z</time>
      </trkpt>
      <trkpt lat="44.94418" lon="0.87224">
        <ele>163</ele>
        <time>2022-05-15T09:40:33Z</time>
      </trkpt>
      <trkpt lat="44.94417" lon="0.87222">
        <ele>163</ele>
        <time>2022-05-15T09:40:34Z</time>
      </trkpt>
      <trkpt lat="44.94416" lon="0.87222">
        <ele>163.1</ele>
        <time>2022-05-15T09:40:35Z</time>
      </trkpt>
      <trkpt lat="44.94415" lon="0.87222">
        <ele>163.2</ele>
        <time>2022-05-15T09:40:36Z</time>
      </trkpt>
      <trkpt lat="44.94415" lon="0.87221">
        <ele>163.2</ele>
        <time>2022-05-15T09:40:37Z</time>
      </trkpt>
      <trkpt lat="44.94415" lon="0.87222">
        <ele>163.3</ele>
        <time>2022-05-15T09:40:38Z</time>
      </trkpt>
      <trkpt lat="44.94414" lon="0.87223">
        <ele>163.3</ele>
        <time>2022-05-15T09:40:39Z</time>
      </trkpt>
      <trkpt lat="44.94414" lon="0.87226">
        <ele>163.4</ele>
        <time>2022-05-15T09:40:40Z</time>
      </trkpt>
      <trkpt lat="44.94415" lon="0.87228">
        <ele>163.5</ele>
        <time>2022-05-15T09:40:41Z</time>
      </trkpt>
      <trkpt lat="44.94416" lon="0.87231">
        <ele>163.7</ele>
        <time>2022-05-15T09:40:43Z</time>
      </trkpt>
      <trkpt lat="44.94417" lon="0.87233">
        <ele>163.8</ele>
        <time>2022-05-15T09:40:45Z</time>
      </trkpt>
      <trkpt lat="44.94398" lon="0.87241">
        <ele>165.1</ele>
        <time>2022-05-15T09:40:47Z</time>
      </trkpt>
      <trkpt lat="44.94399" lon="0.87245">
        <ele>165.3</ele>
        <time>2022-05-15T09:40:49Z</time>
      </trkpt>
      <trkpt lat="44.944" lon="0.87247">
        <ele>165.4</ele>
        <time>2022-05-15T09:40:51Z</time>
      </trkpt>
      <trkpt lat="44.944" lon="0.87247">
        <ele>165.4</ele>
        <time>2022-05-15T09:40:53Z</time>
      </trkpt>
      <trkpt lat="44.944" lon="0.87247">
        <ele>165.4</ele>
        <time>2022-05-15T09:40:54Z</time>
      </trkpt>
      <trkpt lat="44.94409" lon="0.87244">
        <ele>166</ele>
        <time>2022-05-15T09:42:08Z</time>
      </trkpt>
      <trkpt lat="44.94408" lon="0.87242">
        <ele>166.1</ele>
        <time>2022-05-15T09:42:09Z</time>
      </trkpt>
      <trkpt lat="44.94408" lon="0.87237">
        <ele>166.3</ele>
        <time>2022-05-15T09:42:11Z</time>
      </trkpt>
      <trkpt lat="44.94406" lon="0.87233">
        <ele>166.6</ele>
        <time>2022-05-15T09:42:13Z</time>
      </trkpt>
      <trkpt lat="44.94397" lon="0.87234">
        <ele>167.2</ele>
        <time>2022-05-15T09:42:15Z</time>
      </trkpt>
      <trkpt lat="44.94397" lon="0.87232">
        <ele>167.3</ele>
        <time>2022-05-15T09:42:16Z</time>
      </trkpt>
      <trkpt lat="44.94396" lon="0.87229">
        <ele>167.4</ele>
        <time>2022-05-15T09:42:17Z</time>
      </trkpt>
      <trkpt lat="44.94395" lon="0.87223">
        <ele>167.7</ele>
        <time>2022-05-15T09:42:19Z</time>
      </trkpt>
      <trkpt lat="44.94393" lon="0.87217">
        <ele>168</ele>
        <time>2022-05-15T09:42:21Z</time>
      </trkpt>
      <trkpt lat="44.94393" lon="0.87214">
        <ele>168.1</ele>
        <time>2022-05-15T09:42:22Z</time>
      </trkpt>
      <trkpt lat="44.94392" lon="0.87211">
        <ele>168.2</ele>
        <time>2022-05-15T09:42:23Z</time>
      </trkpt>
      <trkpt lat="44.9439" lon="0.87205">
        <ele>168.5</ele>
        <time>2022-05-15T09:42:25Z</time>
      </trkpt>
      <trkpt lat="44.94388" lon="0.872">
        <ele>168.8</ele>
        <time>2022-05-15T09:42:27Z</time>
      </trkpt>
      <trkpt lat="44.94386" lon="0.87197">
        <ele>168.9</ele>
        <time>2022-05-15T09:42:28Z</time>
      </trkpt>
      <trkpt lat="44.94385" lon="0.87194">
        <ele>169</ele>
        <time>2022-05-15T09:42:29Z</time>
      </trkpt>
      <trkpt lat="44.94381" lon="0.87188">
        <ele>169.3</ele>
        <time>2022-05-15T09:42:31Z</time>
      </trkpt>
      <trkpt lat="44.9438" lon="0.87185">
        <ele>169.5</ele>
        <time>2022-05-15T09:42:32Z</time>
      </trkpt>
      <trkpt lat="44.94379" lon="0.87183">
        <ele>169.6</ele>
        <time>2022-05-15T09:42:33Z</time>
      </trkpt>
      <trkpt lat="44.94376" lon="0.87177">
        <ele>169.9</ele>
        <time>2022-05-15T09:42:35Z</time>
      </trkpt>
      <trkpt lat="44.94373" lon="0.87173">
        <ele>170.1</ele>
        <time>2022-05-15T09:42:37Z</time>
      </trkpt>
      <trkpt lat="44.94372" lon="0.8717">
        <ele>170.2</ele>
        <time>2022-05-15T09:42:38Z</time>
      </trkpt>
      <trkpt lat="44.9437" lon="0.87167">
        <ele>170.4</ele>
        <time>2022-05-15T09:42:39Z</time>
      </trkpt>
      <trkpt lat="44.94368" lon="0.87162">
        <ele>170.6</ele>
        <time>2022-05-15T09:42:41Z</time>
      </trkpt>
      <trkpt lat="44.94365" lon="0.87157">
        <ele>170.9</ele>
        <time>2022-05-15T09:42:43Z</time>
      </trkpt>
      <trkpt lat="44.94362" lon="0.87152">
        <ele>171.1</ele>
        <time>2022-05-15T09:42:45Z</time>
      </trkpt>
      <trkpt lat="44.94359" lon="0.87146">
        <ele>171.4</ele>
        <time>2022-05-15T09:42:47Z</time>
      </trkpt>
      <trkpt lat="44.94356" lon="0.87141">
        <ele>171.6</ele>
        <time>2022-05-15T09:42:49Z</time>
      </trkpt>
      <trkpt lat="44.94353" lon="0.87135">
        <ele>171.9</ele>
        <time>2022-05-15T09:42:51Z</time>
      </trkpt>
      <trkpt lat="44.94352" lon="0.87133">
        <ele>172.1</ele>
        <time>2022-05-15T09:42:52Z</time>
      </trkpt>
      <trkpt lat="44.9435" lon="0.8713">
        <ele>172.2</ele>
        <time>2022-05-15T09:42:53Z</time>
      </trkpt>
      <trkpt lat="44.94347" lon="0.87124">
        <ele>172.5</ele>
        <time>2022-05-15T09:42:55Z</time>
      </trkpt>
      <trkpt lat="44.94345" lon="0.87119">
        <ele>172.8</ele>
        <time>2022-05-15T09:42:57Z</time>
      </trkpt>
      <trkpt lat="44.94343" lon="0.87117">
        <ele>172.9</ele>
        <time>2022-05-15T09:42:58Z</time>
      </trkpt>
      <trkpt lat="44.94342" lon="0.87114">
        <ele>173.1</ele>
        <time>2022-05-15T09:42:59Z</time>
      </trkpt>
      <trkpt lat="44.94339" lon="0.87109">
        <ele>173.3</ele>
        <time>2022-05-15T09:43:01Z</time>
      </trkpt>
      <trkpt lat="44.94335" lon="0.87105">
        <ele>173.6</ele>
        <time>2022-05-15T09:43:03Z</time>
      </trkpt>
      <trkpt lat="44.94334" lon="0.87104">
        <ele>173.7</ele>
        <time>2022-05-15T09:43:04Z</time>
      </trkpt>
      <trkpt lat="44.94332" lon="0.87102">
        <ele>173.9</ele>
        <time>2022-05-15T09:43:05Z</time>
      </trkpt>
      <trkpt lat="44.94328" lon="0.87099">
        <ele>174.1</ele>
        <time>2022-05-15T09:43:07Z</time>
      </trkpt>
      <trkpt lat="44.94325" lon="0.87095">
        <ele>174.3</ele>
        <time>2022-05-15T09:43:09Z</time>
      </trkpt>
      <trkpt lat="44.94321" lon="0.87093">
        <ele>174.6</ele>
        <time>2022-05-15T09:43:11Z</time>
      </trkpt>
      <trkpt lat="44.94317" lon="0.87091">
        <ele>174.9</ele>
        <time>2022-05-15T09:43:13Z</time>
      </trkpt>
      <trkpt lat="44.94314" lon="0.87089">
        <ele>175.1</ele>
        <time>2022-05-15T09:43:15Z</time>
      </trkpt>
      <trkpt lat="44.94312" lon="0.87088">
        <ele>175.2</ele>
        <time>2022-05-15T09:43:16Z</time>
      </trkpt>
      <trkpt lat="44.9431" lon="0.87087">
        <ele>175.3</ele>
        <time>2022-05-15T09:43:17Z</time>
      </trkpt>
      <trkpt lat="44.94306" lon="0.87085">
        <ele>175.5</ele>
        <time>2022-05-15T09:43:19Z</time>
      </trkpt>
      <trkpt lat="44.94302" lon="0.87082">
        <ele>175.8</ele>
        <time>2022-05-15T09:43:21Z</time>
      </trkpt>
      <trkpt lat="44.94299" lon="0.87079">
        <ele>176.1</ele>
        <time>2022-05-15T09:43:23Z</time>
      </trkpt>
      <trkpt lat="44.94295" lon="0.87075">
        <ele>176.3</ele>
        <time>2022-05-15T09:43:25Z</time>
      </trkpt>
      <trkpt lat="44.94292" lon="0.87071">
        <ele>176.5</ele>
        <time>2022-05-15T09:43:27Z</time>
      </trkpt>
      <trkpt lat="44.9429" lon="0.87069">
        <ele>176.7</ele>
        <time>2022-05-15T09:43:28Z</time>
      </trkpt>
      <trkpt lat="44.9429" lon="0.87066">
        <ele>176.8</ele>
        <time>2022-05-15T09:43:29Z</time>
      </trkpt>
      <trkpt lat="44.94288" lon="0.8706">
        <ele>177</ele>
        <time>2022-05-15T09:43:31Z</time>
      </trkpt>
      <trkpt lat="44.94287" lon="0.87054">
        <ele>177.2</ele>
        <time>2022-05-15T09:43:33Z</time>
      </trkpt>
      <trkpt lat="44.94286" lon="0.87049">
        <ele>177.4</ele>
        <time>2022-05-15T09:43:35Z</time>
      </trkpt>
      <trkpt lat="44.94287" lon="0.87046">
        <ele>177.5</ele>
        <time>2022-05-15T09:43:36Z</time>
      </trkpt>
      <trkpt lat="44.94287" lon="0.87043">
        <ele>177.6</ele>
        <time>2022-05-15T09:43:37Z</time>
      </trkpt>
      <trkpt lat="44.94288" lon="0.87037">
        <ele>177.8</ele>
        <time>2022-05-15T09:43:39Z</time>
      </trkpt>
      <trkpt lat="44.94291" lon="0.87033">
        <ele>178</ele>
        <time>2022-05-15T09:43:41Z</time>
      </trkpt>
      <trkpt lat="44.94295" lon="0.87027">
        <ele>178.3</ele>
        <time>2022-05-15T09:43:43Z</time>
      </trkpt>
      <trkpt lat="44.94299" lon="0.87022">
        <ele>178.6</ele>
        <time>2022-05-15T09:43:45Z</time>
      </trkpt>
      <trkpt lat="44.94303" lon="0.87017">
        <ele>178.9</ele>
        <time>2022-05-15T09:43:47Z</time>
      </trkpt>
      <trkpt lat="44.94307" lon="0.87012">
        <ele>179.1</ele>
        <time>2022-05-15T09:43:49Z</time>
      </trkpt>
      <trkpt lat="44.9431" lon="0.87007">
        <ele>179.4</ele>
        <time>2022-05-15T09:43:51Z</time>
      </trkpt>
      <trkpt lat="44.94311" lon="0.87005">
        <ele>179.5</ele>
        <time>2022-05-15T09:43:52Z</time>
      </trkpt>
      <trkpt lat="44.94313" lon="0.87003">
        <ele>179.6</ele>
        <time>2022-05-15T09:43:53Z</time>
      </trkpt>
      <trkpt lat="44.94316" lon="0.86997">
        <ele>179.9</ele>
        <time>2022-05-15T09:43:55Z</time>
      </trkpt>
      <trkpt lat="44.94318" lon="0.86991">
        <ele>180.2</ele>
        <time>2022-05-15T09:43:57Z</time>
      </trkpt>
      <trkpt lat="44.9432" lon="0.86985">
        <ele>180.5</ele>
        <time>2022-05-15T09:43:59Z</time>
      </trkpt>
      <trkpt lat="44.94322" lon="0.8698">
        <ele>180.8</ele>
        <time>2022-05-15T09:44:01Z</time>
      </trkpt>
      <trkpt lat="44.94323" lon="0.86973">
        <ele>181</ele>
        <time>2022-05-15T09:44:03Z</time>
      </trkpt>
      <trkpt lat="44.94323" lon="0.86966">
        <ele>181.3</ele>
        <time>2022-05-15T09:44:05Z</time>
      </trkpt>
      <trkpt lat="44.94324" lon="0.8696">
        <ele>181.6</ele>
        <time>2022-05-15T09:44:07Z</time>
      </trkpt>
      <trkpt lat="44.94324" lon="0.86953">
        <ele>181.9</ele>
        <time>2022-05-15T09:44:09Z</time>
      </trkpt>
      <trkpt lat="44.94324" lon="0.86947">
        <ele>182.1</ele>
        <time>2022-05-15T09:44:11Z</time>
      </trkpt>
      <trkpt lat="44.94324" lon="0.86941">
        <ele>182.4</ele>
        <time>2022-05-15T09:44:13Z</time>
      </trkpt>
      <trkpt lat="44.94323" lon="0.86934">
        <ele>182.7</ele>
        <time>2022-05-15T09:44:15Z</time>
      </trkpt>
      <trkpt lat="44.94322" lon="0.86928">
        <ele>182.9</ele>
        <time>2022-05-15T09:44:17Z</time>
      </trkpt>
      <trkpt lat="44.94321" lon="0.86923">
        <ele>183.2</ele>
        <time>2022-05-15T09:44:19Z</time>
      </trkpt>
      <trkpt lat="44.94318" lon="0.86917">
        <ele>183.4</ele>
        <time>2022-05-15T09:44:21Z</time>
      </trkpt>
      <trkpt lat="44.94317" lon="0.86914">
        <ele>183.6</ele>
        <time>2022-05-15T09:44:22Z</time>
      </trkpt>
      <trkpt lat="44.94316" lon="0.86912">
        <ele>183.7</ele>
        <time>2022-05-15T09:44:23Z</time>
      </trkpt>
      <trkpt lat="44.94314" lon="0.86906">
        <ele>184</ele>
        <time>2022-05-15T09:44:25Z</time>
      </trkpt>
      <trkpt lat="44.94311" lon="0.86901">
        <ele>184.4</ele>
        <time>2022-05-15T09:44:27Z</time>
      </trkpt>
      <trkpt lat="44.94307" lon="0.86897">
        <ele>184.7</ele>
        <time>2022-05-15T09:44:29Z</time>
      </trkpt>
      <trkpt lat="44.94305" lon="0.86893">
        <ele>184.9</ele>
        <time>2022-05-15T09:44:31Z</time>
      </trkpt>
      <trkpt lat="44.94302" lon="0.8689">
        <ele>185.2</ele>
        <time>2022-05-15T09:44:33Z</time>
      </trkpt>
      <trkpt lat="44.94298" lon="0.86888">
        <ele>185.5</ele>
        <time>2022-05-15T09:44:35Z</time>
      </trkpt>
      <trkpt lat="44.94294" lon="0.86886">
        <ele>185.8</ele>
        <time>2022-05-15T09:44:37Z</time>
      </trkpt>
      <trkpt lat="44.9429" lon="0.86884">
        <ele>186.1</ele>
        <time>2022-05-15T09:44:39Z</time>
      </trkpt>
      <trkpt lat="44.94286" lon="0.86883">
        <ele>186.5</ele>
        <time>2022-05-15T09:44:41Z</time>
      </trkpt>
      <trkpt lat="44.94281" lon="0.86881">
        <ele>186.8</ele>
        <time>2022-05-15T09:44:43Z</time>
      </trkpt>
      <trkpt lat="44.94277" lon="0.86879">
        <ele>187.2</ele>
        <time>2022-05-15T09:44:45Z</time>
      </trkpt>
      <trkpt lat="44.94273" lon="0.86877">
        <ele>187.5</ele>
        <time>2022-05-15T09:44:47Z</time>
      </trkpt>
      <trkpt lat="44.94269" lon="0.86875">
        <ele>187.8</ele>
        <time>2022-05-15T09:44:49Z</time>
      </trkpt>
      <trkpt lat="44.94265" lon="0.8687">
        <ele>188.2</ele>
        <time>2022-05-15T09:44:51Z</time>
      </trkpt>
      <trkpt lat="44.94263" lon="0.86867">
        <ele>188.2</ele>
        <time>2022-05-15T09:44:52Z</time>
      </trkpt>
      <trkpt lat="44.9426" lon="0.86863">
        <ele>188.2</ele>
        <time>2022-05-15T09:44:53Z</time>
      </trkpt>
      <trkpt lat="44.94256" lon="0.86865">
        <ele>188</ele>
        <time>2022-05-15T09:44:55Z</time>
      </trkpt>
      <trkpt lat="44.9425" lon="0.86864">
        <ele>187.8</ele>
        <time>2022-05-15T09:44:57Z</time>
      </trkpt>
      <trkpt lat="44.94243" lon="0.86861">
        <ele>187.5</ele>
        <time>2022-05-15T09:44:59Z</time>
      </trkpt>
      <trkpt lat="44.94236" lon="0.86859">
        <ele>187.2</ele>
        <time>2022-05-15T09:45:01Z</time>
      </trkpt>
      <trkpt lat="44.94232" lon="0.86858">
        <ele>186.9</ele>
        <time>2022-05-15T09:45:02Z</time>
      </trkpt>
      <trkpt lat="44.94228" lon="0.86856">
        <ele>186.7</ele>
        <time>2022-05-15T09:45:03Z</time>
      </trkpt>
      <trkpt lat="44.9422" lon="0.86853">
        <ele>186.3</ele>
        <time>2022-05-15T09:45:05Z</time>
      </trkpt>
      <trkpt lat="44.94211" lon="0.8685">
        <ele>186</ele>
        <time>2022-05-15T09:45:07Z</time>
      </trkpt>
      <trkpt lat="44.94203" lon="0.86848">
        <ele>185.8</ele>
        <time>2022-05-15T09:45:09Z</time>
      </trkpt>
      <trkpt lat="44.94195" lon="0.86845">
        <ele>185.7</ele>
        <time>2022-05-15T09:45:11Z</time>
      </trkpt>
      <trkpt lat="44.94187" lon="0.86842">
        <ele>185.6</ele>
        <time>2022-05-15T09:45:13Z</time>
      </trkpt>
      <trkpt lat="44.94179" lon="0.86839">
        <ele>185.6</ele>
        <time>2022-05-15T09:45:15Z</time>
      </trkpt>
      <trkpt lat="44.94171" lon="0.86837">
        <ele>185.7</ele>
        <time>2022-05-15T09:45:17Z</time>
      </trkpt>
      <trkpt lat="44.94163" lon="0.86834">
        <ele>185.8</ele>
        <time>2022-05-15T09:45:19Z</time>
      </trkpt>
      <trkpt lat="44.94159" lon="0.86833">
        <ele>186</ele>
        <time>2022-05-15T09:45:20Z</time>
      </trkpt>
      <trkpt lat="44.94155" lon="0.86834">
        <ele>186.1</ele>
        <time>2022-05-15T09:45:21Z</time>
      </trkpt>
      <trkpt lat="44.94147" lon="0.86835">
        <ele>186.6</ele>
        <time>2022-05-15T09:45:23Z</time>
      </trkpt>
      <trkpt lat="44.94142" lon="0.8684">
        <ele>187.1</ele>
        <time>2022-05-15T09:45:25Z</time>
      </trkpt>
      <trkpt lat="44.9414" lon="0.86842">
        <ele>187.4</ele>
        <time>2022-05-15T09:45:26Z</time>
      </trkpt>
      <trkpt lat="44.94139" lon="0.86844">
        <ele>187.6</ele>
        <time>2022-05-15T09:45:27Z</time>
      </trkpt>
      <trkpt lat="44.94136" lon="0.86848">
        <ele>188.1</ele>
        <time>2022-05-15T09:45:29Z</time>
      </trkpt>
      <trkpt lat="44.94133" lon="0.86851">
        <ele>188.5</ele>
        <time>2022-05-15T09:45:31Z</time>
      </trkpt>
      <trkpt lat="44.94131" lon="0.86854">
        <ele>188.9</ele>
        <time>2022-05-15T09:45:33Z</time>
      </trkpt>
      <trkpt lat="44.94129" lon="0.86856">
        <ele>189.2</ele>
        <time>2022-05-15T09:45:34Z</time>
      </trkpt>
      <trkpt lat="44.94127" lon="0.86858">
        <ele>189.5</ele>
        <time>2022-05-15T09:45:35Z</time>
      </trkpt>
      <trkpt lat="44.94121" lon="0.86864">
        <ele>190.5</ele>
        <time>2022-05-15T09:45:37Z</time>
      </trkpt>
      <trkpt lat="44.94119" lon="0.8687">
        <ele>190.9</ele>
        <time>2022-05-15T09:45:39Z</time>
      </trkpt>
      <trkpt lat="44.94118" lon="0.86878">
        <ele>191.2</ele>
        <time>2022-05-15T09:45:41Z</time>
      </trkpt>
      <trkpt lat="44.94117" lon="0.86885">
        <ele>191.3</ele>
        <time>2022-05-15T09:45:43Z</time>
      </trkpt>
      <trkpt lat="44.94112" lon="0.86893">
        <ele>191.4</ele>
        <time>2022-05-15T09:45:45Z</time>
      </trkpt>
      <trkpt lat="44.94109" lon="0.86897">
        <ele>191.3</ele>
        <time>2022-05-15T09:45:46Z</time>
      </trkpt>
      <trkpt lat="44.94107" lon="0.86902">
        <ele>191.2</ele>
        <time>2022-05-15T09:45:47Z</time>
      </trkpt>
      <trkpt lat="44.94104" lon="0.86905">
        <ele>191.2</ele>
        <time>2022-05-15T09:45:48Z</time>
      </trkpt>
      <trkpt lat="44.94102" lon="0.86909">
        <ele>191.1</ele>
        <time>2022-05-15T09:45:49Z</time>
      </trkpt>
      <trkpt lat="44.94096" lon="0.86917">
        <ele>190.9</ele>
        <time>2022-05-15T09:45:51Z</time>
      </trkpt>
      <trkpt lat="44.94091" lon="0.86926">
        <ele>190.8</ele>
        <time>2022-05-15T09:45:53Z</time>
      </trkpt>
      <trkpt lat="44.94085" lon="0.86935">
        <ele>190.7</ele>
        <time>2022-05-15T09:45:55Z</time>
      </trkpt>
      <trkpt lat="44.94079" lon="0.86944">
        <ele>190.6</ele>
        <time>2022-05-15T09:45:57Z</time>
      </trkpt>
      <trkpt lat="44.94072" lon="0.86954">
        <ele>190.6</ele>
        <time>2022-05-15T09:45:59Z</time>
      </trkpt>
      <trkpt lat="44.94066" lon="0.86963">
        <ele>190.6</ele>
        <time>2022-05-15T09:46:01Z</time>
      </trkpt>
      <trkpt lat="44.94061" lon="0.86971">
        <ele>190.6</ele>
        <time>2022-05-15T09:46:03Z</time>
      </trkpt>
      <trkpt lat="44.94054" lon="0.86981">
        <ele>190.7</ele>
        <time>2022-05-15T09:46:05Z</time>
      </trkpt>
      <trkpt lat="44.94047" lon="0.86992">
        <ele>191</ele>
        <time>2022-05-15T09:46:07Z</time>
      </trkpt>
      <trkpt lat="44.94043" lon="0.86996">
        <ele>191.2</ele>
        <time>2022-05-15T09:46:08Z</time>
      </trkpt>
      <trkpt lat="44.9404" lon="0.86999">
        <ele>191.4</ele>
        <time>2022-05-15T09:46:09Z</time>
      </trkpt>
      <trkpt lat="44.94033" lon="0.87003">
        <ele>191.7</ele>
        <time>2022-05-15T09:46:11Z</time>
      </trkpt>
      <trkpt lat="44.94026" lon="0.87005">
        <ele>192.2</ele>
        <time>2022-05-15T09:46:13Z</time>
      </trkpt>
      <trkpt lat="44.94018" lon="0.87007">
        <ele>192.6</ele>
        <time>2022-05-15T09:46:15Z</time>
      </trkpt>
      <trkpt lat="44.94011" lon="0.87009">
        <ele>193</ele>
        <time>2022-05-15T09:46:17Z</time>
      </trkpt>
      <trkpt lat="44.94006" lon="0.87009">
        <ele>193.4</ele>
        <time>2022-05-15T09:46:19Z</time>
      </trkpt>
      <trkpt lat="44.94001" lon="0.8701">
        <ele>193.7</ele>
        <time>2022-05-15T09:46:21Z</time>
      </trkpt>
      <trkpt lat="44.93998" lon="0.8701">
        <ele>193.8</ele>
        <time>2022-05-15T09:46:22Z</time>
      </trkpt>
      <trkpt lat="44.93996" lon="0.8701">
        <ele>194</ele>
        <time>2022-05-15T09:46:23Z</time>
      </trkpt>
      <trkpt lat="44.9399" lon="0.8701">
        <ele>194.4</ele>
        <time>2022-05-15T09:46:25Z</time>
      </trkpt>
      <trkpt lat="44.93985" lon="0.87011">
        <ele>194.7</ele>
        <time>2022-05-15T09:46:27Z</time>
      </trkpt>
      <trkpt lat="44.9398" lon="0.87011">
        <ele>195.1</ele>
        <time>2022-05-15T09:46:29Z</time>
      </trkpt>
      <trkpt lat="44.93974" lon="0.87011">
        <ele>195.5</ele>
        <time>2022-05-15T09:46:31Z</time>
      </trkpt>
      <trkpt lat="44.93969" lon="0.87011">
        <ele>195.8</ele>
        <time>2022-05-15T09:46:33Z</time>
      </trkpt>
      <trkpt lat="44.93965" lon="0.87011">
        <ele>196.1</ele>
        <time>2022-05-15T09:46:35Z</time>
      </trkpt>
      <trkpt lat="44.93963" lon="0.87011">
        <ele>196.3</ele>
        <time>2022-05-15T09:46:36Z</time>
      </trkpt>
      <trkpt lat="44.93961" lon="0.87011">
        <ele>196.4</ele>
        <time>2022-05-15T09:46:37Z</time>
      </trkpt>
      <trkpt lat="44.93957" lon="0.87011">
        <ele>196.7</ele>
        <time>2022-05-15T09:46:39Z</time>
      </trkpt>
      <trkpt lat="44.93953" lon="0.87011">
        <ele>197</ele>
        <time>2022-05-15T09:46:41Z</time>
      </trkpt>
      <trkpt lat="44.93949" lon="0.87011">
        <ele>197.2</ele>
        <time>2022-05-15T09:46:43Z</time>
      </trkpt>
      <trkpt lat="44.93947" lon="0.87011">
        <ele>197.4</ele>
        <time>2022-05-15T09:46:45Z</time>
      </trkpt>
      <trkpt lat="44.93943" lon="0.87011">
        <ele>197.8</ele>
        <time>2022-05-15T09:46:47Z</time>
      </trkpt>
      <trkpt lat="44.93938" lon="0.87011">
        <ele>198.2</ele>
        <time>2022-05-15T09:46:49Z</time>
      </trkpt>
      <trkpt lat="44.93935" lon="0.87011">
        <ele>198.5</ele>
        <time>2022-05-15T09:46:51Z</time>
      </trkpt>
      <trkpt lat="44.93931" lon="0.87011">
        <ele>198.9</ele>
        <time>2022-05-15T09:46:53Z</time>
      </trkpt>
      <trkpt lat="44.93927" lon="0.87012">
        <ele>199.3</ele>
        <time>2022-05-15T09:46:55Z</time>
      </trkpt>
      <trkpt lat="44.93922" lon="0.87013">
        <ele>199.7</ele>
        <time>2022-05-15T09:46:57Z</time>
      </trkpt>
      <trkpt lat="44.9392" lon="0.87013">
        <ele>199.9</ele>
        <time>2022-05-15T09:46:58Z</time>
      </trkpt>
      <trkpt lat="44.93918" lon="0.87014">
        <ele>200</ele>
        <time>2022-05-15T09:46:59Z</time>
      </trkpt>
      <trkpt lat="44.93914" lon="0.87015">
        <ele>200.3</ele>
        <time>2022-05-15T09:47:01Z</time>
      </trkpt>
      <trkpt lat="44.9391" lon="0.87016">
        <ele>200.6</ele>
        <time>2022-05-15T09:47:03Z</time>
      </trkpt>
      <trkpt lat="44.93906" lon="0.87017">
        <ele>200.9</ele>
        <time>2022-05-15T09:47:05Z</time>
      </trkpt>
      <trkpt lat="44.93904" lon="0.87019">
        <ele>201</ele>
        <time>2022-05-15T09:47:06Z</time>
      </trkpt>
      <trkpt lat="44.93902" lon="0.8702">
        <ele>201.2</ele>
        <time>2022-05-15T09:47:07Z</time>
      </trkpt>
      <trkpt lat="44.93897" lon="0.87022">
        <ele>201.5</ele>
        <time>2022-05-15T09:47:09Z</time>
      </trkpt>
      <trkpt lat="44.93891" lon="0.87025">
        <ele>201.9</ele>
        <time>2022-05-15T09:47:11Z</time>
      </trkpt>
      <trkpt lat="44.93885" lon="0.87028">
        <ele>202.4</ele>
        <time>2022-05-15T09:47:13Z</time>
      </trkpt>
      <trkpt lat="44.93878" lon="0.87031">
        <ele>202.7</ele>
        <time>2022-05-15T09:47:15Z</time>
      </trkpt>
      <trkpt lat="44.93871" lon="0.87035">
        <ele>202.9</ele>
        <time>2022-05-15T09:47:17Z</time>
      </trkpt>
      <trkpt lat="44.93864" lon="0.87038">
        <ele>202.9</ele>
        <time>2022-05-15T09:47:19Z</time>
      </trkpt>
      <trkpt lat="44.93856" lon="0.87042">
        <ele>202.8</ele>
        <time>2022-05-15T09:47:21Z</time>
      </trkpt>
      <trkpt lat="44.93851" lon="0.87045">
        <ele>202.6</ele>
        <time>2022-05-15T09:47:22Z</time>
      </trkpt>
      <trkpt lat="44.93846" lon="0.87048">
        <ele>202.4</ele>
        <time>2022-05-15T09:47:23Z</time>
      </trkpt>
      <trkpt lat="44.9384" lon="0.87051">
        <ele>202.1</ele>
        <time>2022-05-15T09:47:24Z</time>
      </trkpt>
      <trkpt lat="44.93833" lon="0.87054">
        <ele>201.6</ele>
        <time>2022-05-15T09:47:25Z</time>
      </trkpt>
      <trkpt lat="44.93828" lon="0.87061">
        <ele>201.1</ele>
        <time>2022-05-15T09:47:26Z</time>
      </trkpt>
      <trkpt lat="44.93823" lon="0.87067">
        <ele>200.4</ele>
        <time>2022-05-15T09:47:27Z</time>
      </trkpt>
      <trkpt lat="44.93808" lon="0.87077">
        <ele>198.7</ele>
        <time>2022-05-15T09:47:29Z</time>
      </trkpt>
      <trkpt lat="44.938" lon="0.8708">
        <ele>197.6</ele>
        <time>2022-05-15T09:47:30Z</time>
      </trkpt>
      <trkpt lat="44.93792" lon="0.87083">
        <ele>196.3</ele>
        <time>2022-05-15T09:47:31Z</time>
      </trkpt>
      <trkpt lat="44.93778" lon="0.87089">
        <ele>193.9</ele>
        <time>2022-05-15T09:47:33Z</time>
      </trkpt>
      <trkpt lat="44.9377" lon="0.87092">
        <ele>192.8</ele>
        <time>2022-05-15T09:47:34Z</time>
      </trkpt>
      <trkpt lat="44.93763" lon="0.87099">
        <ele>191.7</ele>
        <time>2022-05-15T09:47:35Z</time>
      </trkpt>
      <trkpt lat="44.93757" lon="0.87105">
        <ele>190.6</ele>
        <time>2022-05-15T09:47:36Z</time>
      </trkpt>
      <trkpt lat="44.9375" lon="0.87112">
        <ele>189.5</ele>
        <time>2022-05-15T09:47:37Z</time>
      </trkpt>
      <trkpt lat="44.93744" lon="0.87119">
        <ele>188.3</ele>
        <time>2022-05-15T09:47:38Z</time>
      </trkpt>
      <trkpt lat="44.93736" lon="0.87128">
        <ele>187</ele>
        <time>2022-05-15T09:47:39Z</time>
      </trkpt>
      <trkpt lat="44.93728" lon="0.87149">
        <ele>185.2</ele>
        <time>2022-05-15T09:47:41Z</time>
      </trkpt>
      <trkpt lat="44.93724" lon="0.8716">
        <ele>184.5</ele>
        <time>2022-05-15T09:47:42Z</time>
      </trkpt>
      <trkpt lat="44.9372" lon="0.8717">
        <ele>184.1</ele>
        <time>2022-05-15T09:47:43Z</time>
      </trkpt>
      <trkpt lat="44.93714" lon="0.87186">
        <ele>183.9</ele>
        <time>2022-05-15T09:47:45Z</time>
      </trkpt>
      <trkpt lat="44.93711" lon="0.87193">
        <ele>183.9</ele>
        <time>2022-05-15T09:47:46Z</time>
      </trkpt>
      <trkpt lat="44.93708" lon="0.872">
        <ele>183.8</ele>
        <time>2022-05-15T09:47:47Z</time>
      </trkpt>
      <trkpt lat="44.93704" lon="0.87212">
        <ele>183.8</ele>
        <time>2022-05-15T09:47:49Z</time>
      </trkpt>
      <trkpt lat="44.93701" lon="0.87218">
        <ele>183.6</ele>
        <time>2022-05-15T09:47:50Z</time>
      </trkpt>
      <trkpt lat="44.93699" lon="0.87225">
        <ele>183.5</ele>
        <time>2022-05-15T09:47:51Z</time>
      </trkpt>
      <trkpt lat="44.93696" lon="0.87231">
        <ele>183.4</ele>
        <time>2022-05-15T09:47:52Z</time>
      </trkpt>
      <trkpt lat="44.93693" lon="0.87239">
        <ele>183.2</ele>
        <time>2022-05-15T09:47:53Z</time>
      </trkpt>
      <trkpt lat="44.93688" lon="0.87251">
        <ele>183.1</ele>
        <time>2022-05-15T09:47:55Z</time>
      </trkpt>
      <trkpt lat="44.93684" lon="0.87262">
        <ele>183.1</ele>
        <time>2022-05-15T09:47:57Z</time>
      </trkpt>
      <trkpt lat="44.9368" lon="0.87272">
        <ele>183.4</ele>
        <time>2022-05-15T09:47:59Z</time>
      </trkpt>
      <trkpt lat="44.93678" lon="0.87277">
        <ele>183.6</ele>
        <time>2022-05-15T09:48:00Z</time>
      </trkpt>
      <trkpt lat="44.93675" lon="0.87281">
        <ele>183.8</ele>
        <time>2022-05-15T09:48:01Z</time>
      </trkpt>
      <trkpt lat="44.93671" lon="0.8729">
        <ele>184.3</ele>
        <time>2022-05-15T09:48:03Z</time>
      </trkpt>
      <trkpt lat="44.93666" lon="0.87299">
        <ele>184.7</ele>
        <time>2022-05-15T09:48:05Z</time>
      </trkpt>
      <trkpt lat="44.93664" lon="0.87304">
        <ele>184.9</ele>
        <time>2022-05-15T09:48:06Z</time>
      </trkpt>
      <trkpt lat="44.93661" lon="0.87309">
        <ele>185</ele>
        <time>2022-05-15T09:48:07Z</time>
      </trkpt>
      <trkpt lat="44.93656" lon="0.87319">
        <ele>185.1</ele>
        <time>2022-05-15T09:48:09Z</time>
      </trkpt>
      <trkpt lat="44.93653" lon="0.87325">
        <ele>185.1</ele>
        <time>2022-05-15T09:48:10Z</time>
      </trkpt>
      <trkpt lat="44.9365" lon="0.87331">
        <ele>185</ele>
        <time>2022-05-15T09:48:11Z</time>
      </trkpt>
      <trkpt lat="44.93643" lon="0.87344">
        <ele>184.6</ele>
        <time>2022-05-15T09:48:13Z</time>
      </trkpt>
      <trkpt lat="44.93636" lon="0.87358">
        <ele>184</ele>
        <time>2022-05-15T09:48:15Z</time>
      </trkpt>
      <trkpt lat="44.93632" lon="0.87366">
        <ele>183.6</ele>
        <time>2022-05-15T09:48:16Z</time>
      </trkpt>
      <trkpt lat="44.93629" lon="0.87375">
        <ele>183.2</ele>
        <time>2022-05-15T09:48:17Z</time>
      </trkpt>
      <trkpt lat="44.93626" lon="0.87383">
        <ele>182.9</ele>
        <time>2022-05-15T09:48:18Z</time>
      </trkpt>
      <trkpt lat="44.93623" lon="0.87392">
        <ele>182.7</ele>
        <time>2022-05-15T09:48:19Z</time>
      </trkpt>
      <trkpt lat="44.9362" lon="0.874">
        <ele>182.6</ele>
        <time>2022-05-15T09:48:20Z</time>
      </trkpt>
      <trkpt lat="44.93617" lon="0.87407">
        <ele>182.5</ele>
        <time>2022-05-15T09:48:21Z</time>
      </trkpt>
      <trkpt lat="44.93612" lon="0.87421">
        <ele>182.5</ele>
        <time>2022-05-15T09:48:23Z</time>
      </trkpt>
      <trkpt lat="44.93608" lon="0.8743">
        <ele>182.8</ele>
        <time>2022-05-15T09:48:25Z</time>
      </trkpt>
      <trkpt lat="44.93605" lon="0.87437">
        <ele>183</ele>
        <time>2022-05-15T09:48:27Z</time>
      </trkpt>
      <trkpt lat="44.93604" lon="0.87442">
        <ele>183.1</ele>
        <time>2022-05-15T09:48:29Z</time>
      </trkpt>
      <trkpt lat="44.93602" lon="0.87444">
        <ele>183.1</ele>
        <time>2022-05-15T09:48:31Z</time>
      </trkpt>
      <trkpt lat="44.93601" lon="0.87445">
        <ele>183.2</ele>
        <time>2022-05-15T09:48:33Z</time>
      </trkpt>
      <trkpt lat="44.936" lon="0.87446">
        <ele>183.6</ele>
        <time>2022-05-15T09:48:35Z</time>
      </trkpt>
      <trkpt lat="44.93599" lon="0.87448">
        <ele>183.6</ele>
        <time>2022-05-15T09:48:37Z</time>
      </trkpt>
      <trkpt lat="44.93598" lon="0.87449">
        <ele>183.7</ele>
        <time>2022-05-15T09:48:38Z</time>
      </trkpt>
      <trkpt lat="44.93596" lon="0.8745">
        <ele>183.7</ele>
        <time>2022-05-15T09:48:39Z</time>
      </trkpt>
      <trkpt lat="44.93595" lon="0.87452">
        <ele>183.7</ele>
        <time>2022-05-15T09:48:41Z</time>
      </trkpt>
      <trkpt lat="44.93594" lon="0.87453">
        <ele>183.7</ele>
        <time>2022-05-15T09:48:43Z</time>
      </trkpt>
      <trkpt lat="44.93593" lon="0.87455">
        <ele>183.8</ele>
        <time>2022-05-15T09:48:44Z</time>
      </trkpt>
      <trkpt lat="44.93592" lon="0.87456">
        <ele>183.8</ele>
        <time>2022-05-15T09:48:45Z</time>
      </trkpt>
      <trkpt lat="44.93568" lon="0.87484">
        <ele>184.2</ele>
        <time>2022-05-15T09:48:47Z</time>
      </trkpt>
      <trkpt lat="44.93564" lon="0.87486">
        <ele>184.5</ele>
        <time>2022-05-15T09:48:49Z</time>
      </trkpt>
      <trkpt lat="44.93562" lon="0.87488">
        <ele>184.6</ele>
        <time>2022-05-15T09:48:50Z</time>
      </trkpt>
      <trkpt lat="44.93559" lon="0.87489">
        <ele>184.6</ele>
        <time>2022-05-15T09:48:51Z</time>
      </trkpt>
      <trkpt lat="44.93557" lon="0.87492">
        <ele>184.6</ele>
        <time>2022-05-15T09:48:53Z</time>
      </trkpt>
      <trkpt lat="44.93552" lon="0.87493">
        <ele>185.1</ele>
        <time>2022-05-15T09:48:55Z</time>
      </trkpt>
      <trkpt lat="44.9355" lon="0.87495">
        <ele>185.2</ele>
        <time>2022-05-15T09:48:56Z</time>
      </trkpt>
      <trkpt lat="44.93548" lon="0.87496">
        <ele>184.9</ele>
        <time>2022-05-15T09:48:57Z</time>
      </trkpt>
      <trkpt lat="44.93544" lon="0.87497">
        <ele>184.9</ele>
        <time>2022-05-15T09:48:59Z</time>
      </trkpt>
      <trkpt lat="44.9354" lon="0.87501">
        <ele>185.5</ele>
        <time>2022-05-15T09:49:01Z</time>
      </trkpt>
      <trkpt lat="44.93538" lon="0.87503">
        <ele>185.6</ele>
        <time>2022-05-15T09:49:02Z</time>
      </trkpt>
      <trkpt lat="44.93535" lon="0.87504">
        <ele>185.6</ele>
        <time>2022-05-15T09:49:03Z</time>
      </trkpt>
      <trkpt lat="44.93532" lon="0.87508">
        <ele>185.6</ele>
        <time>2022-05-15T09:49:05Z</time>
      </trkpt>
      <trkpt lat="44.9353" lon="0.87511">
        <ele>185.7</ele>
        <time>2022-05-15T09:49:07Z</time>
      </trkpt>
      <trkpt lat="44.93527" lon="0.87514">
        <ele>186.5</ele>
        <time>2022-05-15T09:49:09Z</time>
      </trkpt>
      <trkpt lat="44.93525" lon="0.87517">
        <ele>186.5</ele>
        <time>2022-05-15T09:49:11Z</time>
      </trkpt>
      <trkpt lat="44.93522" lon="0.87519">
        <ele>186.5</ele>
        <time>2022-05-15T09:49:13Z</time>
      </trkpt>
      <trkpt lat="44.9352" lon="0.87522">
        <ele>186.6</ele>
        <time>2022-05-15T09:49:14Z</time>
      </trkpt>
      <trkpt lat="44.93518" lon="0.87523">
        <ele>186.6</ele>
        <time>2022-05-15T09:49:15Z</time>
      </trkpt>
      <trkpt lat="44.93516" lon="0.87526">
        <ele>186.6</ele>
        <time>2022-05-15T09:49:17Z</time>
      </trkpt>
      <trkpt lat="44.93515" lon="0.87529">
        <ele>187.6</ele>
        <time>2022-05-15T09:49:19Z</time>
      </trkpt>
      <trkpt lat="44.93512" lon="0.87532">
        <ele>187.2</ele>
        <time>2022-05-15T09:49:21Z</time>
      </trkpt>
      <trkpt lat="44.9351" lon="0.87535">
        <ele>187.3</ele>
        <time>2022-05-15T09:49:23Z</time>
      </trkpt>
      <trkpt lat="44.93507" lon="0.87538">
        <ele>187.3</ele>
        <time>2022-05-15T09:49:25Z</time>
      </trkpt>
      <trkpt lat="44.93505" lon="0.87539">
        <ele>187.3</ele>
        <time>2022-05-15T09:49:27Z</time>
      </trkpt>
      <trkpt lat="44.93502" lon="0.87541">
        <ele>188.3</ele>
        <time>2022-05-15T09:49:29Z</time>
      </trkpt>
      <trkpt lat="44.93499" lon="0.87545">
        <ele>188.3</ele>
        <time>2022-05-15T09:49:31Z</time>
      </trkpt>
      <trkpt lat="44.93496" lon="0.87549">
        <ele>187.8</ele>
        <time>2022-05-15T09:49:33Z</time>
      </trkpt>
      <trkpt lat="44.93494" lon="0.87552">
        <ele>187.8</ele>
        <time>2022-05-15T09:49:35Z</time>
      </trkpt>
      <trkpt lat="44.93491" lon="0.87556">
        <ele>187.8</ele>
        <time>2022-05-15T09:49:37Z</time>
      </trkpt>
      <trkpt lat="44.93489" lon="0.87559">
        <ele>188.9</ele>
        <time>2022-05-15T09:49:39Z</time>
      </trkpt>
      <trkpt lat="44.93487" lon="0.87561">
        <ele>188.9</ele>
        <time>2022-05-15T09:49:41Z</time>
      </trkpt>
      <trkpt lat="44.93485" lon="0.87563">
        <ele>188.9</ele>
        <time>2022-05-15T09:49:42Z</time>
      </trkpt>
      <trkpt lat="44.93484" lon="0.87565">
        <ele>188.5</ele>
        <time>2022-05-15T09:49:43Z</time>
      </trkpt>
      <trkpt lat="44.93482" lon="0.87568">
        <ele>188.5</ele>
        <time>2022-05-15T09:49:45Z</time>
      </trkpt>
      <trkpt lat="44.93479" lon="0.8757">
        <ele>190.1</ele>
        <time>2022-05-15T09:49:47Z</time>
      </trkpt>
      <trkpt lat="44.93478" lon="0.87572">
        <ele>190.2</ele>
        <time>2022-05-15T09:49:48Z</time>
      </trkpt>
      <trkpt lat="44.93477" lon="0.87573">
        <ele>190.2</ele>
        <time>2022-05-15T09:49:49Z</time>
      </trkpt>
      <trkpt lat="44.93475" lon="0.87576">
        <ele>190.2</ele>
        <time>2022-05-15T09:49:51Z</time>
      </trkpt>
      <trkpt lat="44.93473" lon="0.87578">
        <ele>190.3</ele>
        <time>2022-05-15T09:49:53Z</time>
      </trkpt>
      <trkpt lat="44.9347" lon="0.87581">
        <ele>190.3</ele>
        <time>2022-05-15T09:49:55Z</time>
      </trkpt>
      <trkpt lat="44.93468" lon="0.87584">
        <ele>190.6</ele>
        <time>2022-05-15T09:49:57Z</time>
      </trkpt>
      <trkpt lat="44.93466" lon="0.87586">
        <ele>192.5</ele>
        <time>2022-05-15T09:49:59Z</time>
      </trkpt>
      <trkpt lat="44.93464" lon="0.87589">
        <ele>192.5</ele>
        <time>2022-05-15T09:50:01Z</time>
      </trkpt>
      <trkpt lat="44.93462" lon="0.87592">
        <ele>192.6</ele>
        <time>2022-05-15T09:50:03Z</time>
      </trkpt>
      <trkpt lat="44.93459" lon="0.87595">
        <ele>192.6</ele>
        <time>2022-05-15T09:50:05Z</time>
      </trkpt>
      <trkpt lat="44.93457" lon="0.87598">
        <ele>192.6</ele>
        <time>2022-05-15T09:50:07Z</time>
      </trkpt>
      <trkpt lat="44.93455" lon="0.876">
        <ele>192.9</ele>
        <time>2022-05-15T09:50:09Z</time>
      </trkpt>
      <trkpt lat="44.93453" lon="0.87603">
        <ele>194.7</ele>
        <time>2022-05-15T09:50:11Z</time>
      </trkpt>
      <trkpt lat="44.93451" lon="0.87606">
        <ele>194.7</ele>
        <time>2022-05-15T09:50:13Z</time>
      </trkpt>
      <trkpt lat="44.93449" lon="0.87609">
        <ele>194.7</ele>
        <time>2022-05-15T09:50:15Z</time>
      </trkpt>
      <trkpt lat="44.93446" lon="0.87611">
        <ele>194.8</ele>
        <time>2022-05-15T09:50:17Z</time>
      </trkpt>
      <trkpt lat="44.93445" lon="0.87614">
        <ele>194.8</ele>
        <time>2022-05-15T09:50:19Z</time>
      </trkpt>
      <trkpt lat="44.93442" lon="0.87617">
        <ele>197.2</ele>
        <time>2022-05-15T09:50:21Z</time>
      </trkpt>
      <trkpt lat="44.9344" lon="0.87619">
        <ele>197.2</ele>
        <time>2022-05-15T09:50:23Z</time>
      </trkpt>
      <trkpt lat="44.93438" lon="0.87622">
        <ele>197.2</ele>
        <time>2022-05-15T09:50:25Z</time>
      </trkpt>
      <trkpt lat="44.93436" lon="0.87624">
        <ele>197.3</ele>
        <time>2022-05-15T09:50:27Z</time>
      </trkpt>
      <trkpt lat="44.93435" lon="0.87627">
        <ele>197.3</ele>
        <time>2022-05-15T09:50:29Z</time>
      </trkpt>
      <trkpt lat="44.93433" lon="0.8763">
        <ele>197.3</ele>
        <time>2022-05-15T09:50:31Z</time>
      </trkpt>
      <trkpt lat="44.9343" lon="0.87633">
        <ele>199.1</ele>
        <time>2022-05-15T09:50:33Z</time>
      </trkpt>
      <trkpt lat="44.93426" lon="0.87638">
        <ele>199.7</ele>
        <time>2022-05-15T09:50:35Z</time>
      </trkpt>
      <trkpt lat="44.93423" lon="0.87641">
        <ele>199.7</ele>
        <time>2022-05-15T09:50:37Z</time>
      </trkpt>
      <trkpt lat="44.93421" lon="0.87644">
        <ele>199.7</ele>
        <time>2022-05-15T09:50:38Z</time>
      </trkpt>
      <trkpt lat="44.93419" lon="0.87647">
        <ele>199.7</ele>
        <time>2022-05-15T09:50:39Z</time>
      </trkpt>
      <trkpt lat="44.93417" lon="0.8765">
        <ele>201.8</ele>
        <time>2022-05-15T09:50:41Z</time>
      </trkpt>
      <trkpt lat="44.93415" lon="0.87653">
        <ele>202.8</ele>
        <time>2022-05-15T09:50:43Z</time>
      </trkpt>
      <trkpt lat="44.93413" lon="0.87655">
        <ele>202.8</ele>
        <time>2022-05-15T09:50:45Z</time>
      </trkpt>
      <trkpt lat="44.9341" lon="0.87658">
        <ele>202.8</ele>
        <time>2022-05-15T09:50:47Z</time>
      </trkpt>
      <trkpt lat="44.93408" lon="0.87661">
        <ele>202.8</ele>
        <time>2022-05-15T09:50:48Z</time>
      </trkpt>
      <trkpt lat="44.93408" lon="0.87661">
        <ele>202.8</ele>
        <time>2022-05-15T09:50:49Z</time>
      </trkpt>
      <trkpt lat="44.93408" lon="0.87661">
        <ele>202.8</ele>
        <time>2022-05-15T09:50:51Z</time>
      </trkpt>
      <trkpt lat="44.93408" lon="0.87662">
        <ele>203.1</ele>
        <time>2022-05-15T09:50:53Z</time>
      </trkpt>
      <trkpt lat="44.93406" lon="0.87665">
        <ele>203.7</ele>
        <time>2022-05-15T09:50:55Z</time>
      </trkpt>
      <trkpt lat="44.93405" lon="0.87667">
        <ele>204</ele>
        <time>2022-05-15T09:50:56Z</time>
      </trkpt>
      <trkpt lat="44.93404" lon="0.87669">
        <ele>204.3</ele>
        <time>2022-05-15T09:50:57Z</time>
      </trkpt>
      <trkpt lat="44.93402" lon="0.87672">
        <ele>204.9</ele>
        <time>2022-05-15T09:50:59Z</time>
      </trkpt>
      <trkpt lat="44.934" lon="0.87675">
        <ele>205.6</ele>
        <time>2022-05-15T09:51:01Z</time>
      </trkpt>
      <trkpt lat="44.93399" lon="0.87677">
        <ele>206</ele>
        <time>2022-05-15T09:51:02Z</time>
      </trkpt>
      <trkpt lat="44.93398" lon="0.87679">
        <ele>206.3</ele>
        <time>2022-05-15T09:51:03Z</time>
      </trkpt>
      <trkpt lat="44.93397" lon="0.87682">
        <ele>206.9</ele>
        <time>2022-05-15T09:51:05Z</time>
      </trkpt>
      <trkpt lat="44.93395" lon="0.87686">
        <ele>207.5</ele>
        <time>2022-05-15T09:51:07Z</time>
      </trkpt>
      <trkpt lat="44.93393" lon="0.87689">
        <ele>208</ele>
        <time>2022-05-15T09:51:09Z</time>
      </trkpt>
      <trkpt lat="44.93392" lon="0.87692">
        <ele>208.7</ele>
        <time>2022-05-15T09:51:11Z</time>
      </trkpt>
      <trkpt lat="44.9339" lon="0.87696">
        <ele>209.2</ele>
        <time>2022-05-15T09:51:13Z</time>
      </trkpt>
      <trkpt lat="44.93389" lon="0.87699">
        <ele>209.7</ele>
        <time>2022-05-15T09:51:15Z</time>
      </trkpt>
      <trkpt lat="44.93387" lon="0.87702">
        <ele>210.2</ele>
        <time>2022-05-15T09:51:17Z</time>
      </trkpt>
      <trkpt lat="44.93386" lon="0.87705">
        <ele>210.7</ele>
        <time>2022-05-15T09:51:19Z</time>
      </trkpt>
      <trkpt lat="44.93384" lon="0.87709">
        <ele>211.3</ele>
        <time>2022-05-15T09:51:21Z</time>
      </trkpt>
      <trkpt lat="44.93382" lon="0.87713">
        <ele>211.9</ele>
        <time>2022-05-15T09:51:23Z</time>
      </trkpt>
      <trkpt lat="44.9338" lon="0.87717">
        <ele>212.4</ele>
        <time>2022-05-15T09:51:25Z</time>
      </trkpt>
      <trkpt lat="44.93378" lon="0.87721">
        <ele>213</ele>
        <time>2022-05-15T09:51:27Z</time>
      </trkpt>
      <trkpt lat="44.93376" lon="0.87725">
        <ele>213.6</ele>
        <time>2022-05-15T09:51:29Z</time>
      </trkpt>
      <trkpt lat="44.93373" lon="0.8773">
        <ele>214.2</ele>
        <time>2022-05-15T09:51:31Z</time>
      </trkpt>
      <trkpt lat="44.93371" lon="0.87735">
        <ele>214.8</ele>
        <time>2022-05-15T09:51:33Z</time>
      </trkpt>
      <trkpt lat="44.9337" lon="0.87737">
        <ele>215.1</ele>
        <time>2022-05-15T09:51:34Z</time>
      </trkpt>
      <trkpt lat="44.93369" lon="0.8774">
        <ele>215.3</ele>
        <time>2022-05-15T09:51:35Z</time>
      </trkpt>
      <trkpt lat="44.93367" lon="0.87744">
        <ele>215.8</ele>
        <time>2022-05-15T09:51:37Z</time>
      </trkpt>
      <trkpt lat="44.93365" lon="0.87748">
        <ele>216.3</ele>
        <time>2022-05-15T09:51:39Z</time>
      </trkpt>
      <trkpt lat="44.93362" lon="0.87753">
        <ele>216.8</ele>
        <time>2022-05-15T09:51:41Z</time>
      </trkpt>
      <trkpt lat="44.93361" lon="0.87755">
        <ele>217</ele>
        <time>2022-05-15T09:51:42Z</time>
      </trkpt>
      <trkpt lat="44.93359" lon="0.87757">
        <ele>217.3</ele>
        <time>2022-05-15T09:51:43Z</time>
      </trkpt>
      <trkpt lat="44.93357" lon="0.87758">
        <ele>217.5</ele>
        <time>2022-05-15T09:51:44Z</time>
      </trkpt>
      <trkpt lat="44.93355" lon="0.8776">
        <ele>217.9</ele>
        <time>2022-05-15T09:51:45Z</time>
      </trkpt>
      <trkpt lat="44.93351" lon="0.87759">
        <ele>218.1</ele>
        <time>2022-05-15T09:51:47Z</time>
      </trkpt>
      <trkpt lat="44.93348" lon="0.87757">
        <ele>218.3</ele>
        <time>2022-05-15T09:51:49Z</time>
      </trkpt>
      <trkpt lat="44.93345" lon="0.87755">
        <ele>218.6</ele>
        <time>2022-05-15T09:51:51Z</time>
      </trkpt>
      <trkpt lat="44.93341" lon="0.87752">
        <ele>218.9</ele>
        <time>2022-05-15T09:51:53Z</time>
      </trkpt>
      <trkpt lat="44.93339" lon="0.8775">
        <ele>219</ele>
        <time>2022-05-15T09:51:54Z</time>
      </trkpt>
      <trkpt lat="44.93337" lon="0.87749">
        <ele>219.1</ele>
        <time>2022-05-15T09:51:55Z</time>
      </trkpt>
      <trkpt lat="44.93335" lon="0.87745">
        <ele>219.4</ele>
        <time>2022-05-15T09:51:57Z</time>
      </trkpt>
      <trkpt lat="44.93331" lon="0.87741">
        <ele>219.6</ele>
        <time>2022-05-15T09:51:59Z</time>
      </trkpt>
      <trkpt lat="44.93328" lon="0.87737">
        <ele>219.8</ele>
        <time>2022-05-15T09:52:01Z</time>
      </trkpt>
      <trkpt lat="44.93327" lon="0.87734">
        <ele>219.9</ele>
        <time>2022-05-15T09:52:02Z</time>
      </trkpt>
      <trkpt lat="44.93326" lon="0.87732">
        <ele>220</ele>
        <time>2022-05-15T09:52:03Z</time>
      </trkpt>
      <trkpt lat="44.93323" lon="0.87726">
        <ele>220.2</ele>
        <time>2022-05-15T09:52:05Z</time>
      </trkpt>
      <trkpt lat="44.9332" lon="0.8772">
        <ele>220.4</ele>
        <time>2022-05-15T09:52:07Z</time>
      </trkpt>
      <trkpt lat="44.93318" lon="0.87717">
        <ele>220.5</ele>
        <time>2022-05-15T09:52:08Z</time>
      </trkpt>
      <trkpt lat="44.93317" lon="0.87715">
        <ele>220.5</ele>
        <time>2022-05-15T09:52:09Z</time>
      </trkpt>
      <trkpt lat="44.93315" lon="0.87709">
        <ele>220.6</ele>
        <time>2022-05-15T09:52:11Z</time>
      </trkpt>
      <trkpt lat="44.93312" lon="0.87703">
        <ele>220.6</ele>
        <time>2022-05-15T09:52:13Z</time>
      </trkpt>
      <trkpt lat="44.93311" lon="0.87699">
        <ele>220.6</ele>
        <time>2022-05-15T09:52:14Z</time>
      </trkpt>
      <trkpt lat="44.9331" lon="0.87696">
        <ele>220.6</ele>
        <time>2022-05-15T09:52:15Z</time>
      </trkpt>
      <trkpt lat="44.93307" lon="0.8769">
        <ele>220.6</ele>
        <time>2022-05-15T09:52:17Z</time>
      </trkpt>
      <trkpt lat="44.93305" lon="0.87683">
        <ele>220.6</ele>
        <time>2022-05-15T09:52:19Z</time>
      </trkpt>
      <trkpt lat="44.93301" lon="0.87678">
        <ele>220.5</ele>
        <time>2022-05-15T09:52:21Z</time>
      </trkpt>
      <trkpt lat="44.93299" lon="0.87675">
        <ele>220.5</ele>
        <time>2022-05-15T09:52:22Z</time>
      </trkpt>
      <trkpt lat="44.93298" lon="0.87671">
        <ele>220.5</ele>
        <time>2022-05-15T09:52:23Z</time>
      </trkpt>
      <trkpt lat="44.93294" lon="0.87665">
        <ele>220.4</ele>
        <time>2022-05-15T09:52:25Z</time>
      </trkpt>
      <trkpt lat="44.9329" lon="0.87658">
        <ele>220.4</ele>
        <time>2022-05-15T09:52:27Z</time>
      </trkpt>
      <trkpt lat="44.93288" lon="0.87655">
        <ele>220.4</ele>
        <time>2022-05-15T09:52:28Z</time>
      </trkpt>
      <trkpt lat="44.93286" lon="0.87651">
        <ele>220.4</ele>
        <time>2022-05-15T09:52:29Z</time>
      </trkpt>
      <trkpt lat="44.93282" lon="0.87644">
        <ele>220.5</ele>
        <time>2022-05-15T09:52:31Z</time>
      </trkpt>
      <trkpt lat="44.93278" lon="0.87637">
        <ele>220.7</ele>
        <time>2022-05-15T09:52:33Z</time>
      </trkpt>
      <trkpt lat="44.93275" lon="0.87631">
        <ele>221</ele>
        <time>2022-05-15T09:52:35Z</time>
      </trkpt>
      <trkpt lat="44.93273" lon="0.87628">
        <ele>221.2</ele>
        <time>2022-05-15T09:52:36Z</time>
      </trkpt>
      <trkpt lat="44.93271" lon="0.87626">
        <ele>221.4</ele>
        <time>2022-05-15T09:52:37Z</time>
      </trkpt>
      <trkpt lat="44.93268" lon="0.87622">
        <ele>221.7</ele>
        <time>2022-05-15T09:52:39Z</time>
      </trkpt>
      <trkpt lat="44.93265" lon="0.87619">
        <ele>222</ele>
        <time>2022-05-15T09:52:41Z</time>
      </trkpt>
      <trkpt lat="44.93262" lon="0.87616">
        <ele>222.3</ele>
        <time>2022-05-15T09:52:43Z</time>
      </trkpt>
      <trkpt lat="44.9326" lon="0.87614">
        <ele>222.4</ele>
        <time>2022-05-15T09:52:45Z</time>
      </trkpt>
      <trkpt lat="44.9326" lon="0.87614">
        <ele>222.4</ele>
        <time>2022-05-15T09:52:46Z</time>
      </trkpt>
      <trkpt lat="44.9326" lon="0.87614">
        <ele>222.4</ele>
        <time>2022-05-15T09:52:47Z</time>
      </trkpt>
      <trkpt lat="44.9326" lon="0.87614">
        <ele>222.4</ele>
        <time>2022-05-15T09:52:49Z</time>
      </trkpt>
      <trkpt lat="44.93263" lon="0.87587">
        <ele>223</ele>
        <time>2022-05-15T09:52:51Z</time>
      </trkpt>
      <trkpt lat="44.9326" lon="0.87584">
        <ele>223.5</ele>
        <time>2022-05-15T09:52:52Z</time>
      </trkpt>
      <trkpt lat="44.93259" lon="0.87581">
        <ele>223.8</ele>
        <time>2022-05-15T09:52:53Z</time>
      </trkpt>
      <trkpt lat="44.93257" lon="0.87578">
        <ele>224.1</ele>
        <time>2022-05-15T09:52:55Z</time>
      </trkpt>
      <trkpt lat="44.93256" lon="0.87575">
        <ele>224.4</ele>
        <time>2022-05-15T09:52:57Z</time>
      </trkpt>
      <trkpt lat="44.93254" lon="0.87572">
        <ele>224.6</ele>
        <time>2022-05-15T09:52:59Z</time>
      </trkpt>
      <trkpt lat="44.93252" lon="0.87569">
        <ele>224.9</ele>
        <time>2022-05-15T09:53:01Z</time>
      </trkpt>
      <trkpt lat="44.93251" lon="0.87566">
        <ele>225</ele>
        <time>2022-05-15T09:53:03Z</time>
      </trkpt>
      <trkpt lat="44.93249" lon="0.87564">
        <ele>225.2</ele>
        <time>2022-05-15T09:53:04Z</time>
      </trkpt>
      <trkpt lat="44.93248" lon="0.87561">
        <ele>225.3</ele>
        <time>2022-05-15T09:53:05Z</time>
      </trkpt>
      <trkpt lat="44.93246" lon="0.87558">
        <ele>225.3</ele>
        <time>2022-05-15T09:53:07Z</time>
      </trkpt>
      <trkpt lat="44.93245" lon="0.87555">
        <ele>225.3</ele>
        <time>2022-05-15T09:53:08Z</time>
      </trkpt>
      <trkpt lat="44.93244" lon="0.87544">
        <ele>225.1</ele>
        <time>2022-05-15T09:53:09Z</time>
      </trkpt>
      <trkpt lat="44.93245" lon="0.87539">
        <ele>224.9</ele>
        <time>2022-05-15T09:53:10Z</time>
      </trkpt>
      <trkpt lat="44.93247" lon="0.87533">
        <ele>224.5</ele>
        <time>2022-05-15T09:53:11Z</time>
      </trkpt>
      <trkpt lat="44.9325" lon="0.87518">
        <ele>223.5</ele>
        <time>2022-05-15T09:53:13Z</time>
      </trkpt>
      <trkpt lat="44.93251" lon="0.87501">
        <ele>222</ele>
        <time>2022-05-15T09:53:15Z</time>
      </trkpt>
      <trkpt lat="44.93251" lon="0.87481">
        <ele>220.5</ele>
        <time>2022-05-15T09:53:17Z</time>
      </trkpt>
      <trkpt lat="44.93252" lon="0.8747">
        <ele>219.7</ele>
        <time>2022-05-15T09:53:18Z</time>
      </trkpt>
      <trkpt lat="44.93252" lon="0.87457">
        <ele>218.9</ele>
        <time>2022-05-15T09:53:19Z</time>
      </trkpt>
      <trkpt lat="44.93253" lon="0.87445">
        <ele>218.2</ele>
        <time>2022-05-15T09:53:20Z</time>
      </trkpt>
      <trkpt lat="44.93253" lon="0.87432">
        <ele>217.7</ele>
        <time>2022-05-15T09:53:21Z</time>
      </trkpt>
      <trkpt lat="44.93254" lon="0.87407">
        <ele>217.2</ele>
        <time>2022-05-15T09:53:23Z</time>
      </trkpt>
      <trkpt lat="44.93255" lon="0.87397">
        <ele>217</ele>
        <time>2022-05-15T09:53:24Z</time>
      </trkpt>
      <trkpt lat="44.93255" lon="0.87389">
        <ele>216.8</ele>
        <time>2022-05-15T09:53:25Z</time>
      </trkpt>
      <trkpt lat="44.93256" lon="0.87374">
        <ele>216.4</ele>
        <time>2022-05-15T09:53:27Z</time>
      </trkpt>
      <trkpt lat="44.93256" lon="0.87371">
        <ele>216.2</ele>
        <time>2022-05-15T09:53:28Z</time>
      </trkpt>
      <trkpt lat="44.93258" lon="0.87367">
        <ele>216.1</ele>
        <time>2022-05-15T09:53:29Z</time>
      </trkpt>
      <trkpt lat="44.9326" lon="0.87362">
        <ele>215.9</ele>
        <time>2022-05-15T09:53:31Z</time>
      </trkpt>
      <trkpt lat="44.93262" lon="0.87357">
        <ele>214.9</ele>
        <time>2022-05-15T09:53:32Z</time>
      </trkpt>
      <trkpt lat="44.93264" lon="0.87352">
        <ele>214.8</ele>
        <time>2022-05-15T09:53:33Z</time>
      </trkpt>
      <trkpt lat="44.93267" lon="0.87347">
        <ele>214.6</ele>
        <time>2022-05-15T09:53:35Z</time>
      </trkpt>
      <trkpt lat="44.93269" lon="0.87343">
        <ele>214.6</ele>
        <time>2022-05-15T09:53:36Z</time>
      </trkpt>
      <trkpt lat="44.93282" lon="0.87311">
        <ele>214.6</ele>
        <time>2022-05-15T09:53:37Z</time>
      </trkpt>
      <trkpt lat="44.93283" lon="0.87307">
        <ele>214.7</ele>
        <time>2022-05-15T09:53:38Z</time>
      </trkpt>
      <trkpt lat="44.93285" lon="0.87301">
        <ele>214.7</ele>
        <time>2022-05-15T09:53:39Z</time>
      </trkpt>
      <trkpt lat="44.93288" lon="0.87288">
        <ele>214.9</ele>
        <time>2022-05-15T09:53:41Z</time>
      </trkpt>
      <trkpt lat="44.93292" lon="0.87275">
        <ele>215.1</ele>
        <time>2022-05-15T09:53:43Z</time>
      </trkpt>
      <trkpt lat="44.93296" lon="0.87261">
        <ele>215.4</ele>
        <time>2022-05-15T09:53:45Z</time>
      </trkpt>
      <trkpt lat="44.93298" lon="0.87254">
        <ele>215.5</ele>
        <time>2022-05-15T09:53:46Z</time>
      </trkpt>
      <trkpt lat="44.933" lon="0.87248">
        <ele>215.6</ele>
        <time>2022-05-15T09:53:47Z</time>
      </trkpt>
      <trkpt lat="44.93303" lon="0.87237">
        <ele>215.8</ele>
        <time>2022-05-15T09:53:49Z</time>
      </trkpt>
      <trkpt lat="44.93306" lon="0.87226">
        <ele>216.1</ele>
        <time>2022-05-15T09:53:51Z</time>
      </trkpt>
      <trkpt lat="44.93309" lon="0.87214">
        <ele>216.3</ele>
        <time>2022-05-15T09:53:53Z</time>
      </trkpt>
      <trkpt lat="44.93312" lon="0.87203">
        <ele>216.6</ele>
        <time>2022-05-15T09:53:55Z</time>
      </trkpt>
      <trkpt lat="44.93315" lon="0.87192">
        <ele>216.8</ele>
        <time>2022-05-15T09:53:57Z</time>
      </trkpt>
      <trkpt lat="44.93318" lon="0.87182">
        <ele>217.1</ele>
        <time>2022-05-15T09:53:59Z</time>
      </trkpt>
      <trkpt lat="44.93321" lon="0.87172">
        <ele>217.4</ele>
        <time>2022-05-15T09:54:01Z</time>
      </trkpt>
      <trkpt lat="44.93323" lon="0.87161">
        <ele>217.6</ele>
        <time>2022-05-15T09:54:03Z</time>
      </trkpt>
      <trkpt lat="44.93325" lon="0.87156">
        <ele>217.8</ele>
        <time>2022-05-15T09:54:04Z</time>
      </trkpt>
      <trkpt lat="44.93326" lon="0.8715">
        <ele>217.9</ele>
        <time>2022-05-15T09:54:05Z</time>
      </trkpt>
      <trkpt lat="44.93329" lon="0.8714">
        <ele>218.2</ele>
        <time>2022-05-15T09:54:07Z</time>
      </trkpt>
      <trkpt lat="44.93331" lon="0.87129">
        <ele>218.4</ele>
        <time>2022-05-15T09:54:09Z</time>
      </trkpt>
      <trkpt lat="44.93334" lon="0.87119">
        <ele>218.7</ele>
        <time>2022-05-15T09:54:11Z</time>
      </trkpt>
      <trkpt lat="44.93336" lon="0.87109">
        <ele>219</ele>
        <time>2022-05-15T09:54:13Z</time>
      </trkpt>
      <trkpt lat="44.93338" lon="0.87099">
        <ele>219.2</ele>
        <time>2022-05-15T09:54:15Z</time>
      </trkpt>
      <trkpt lat="44.93341" lon="0.87089">
        <ele>219.5</ele>
        <time>2022-05-15T09:54:17Z</time>
      </trkpt>
      <trkpt lat="44.93343" lon="0.87078">
        <ele>219.7</ele>
        <time>2022-05-15T09:54:19Z</time>
      </trkpt>
      <trkpt lat="44.93346" lon="0.87067">
        <ele>219.9</ele>
        <time>2022-05-15T09:54:21Z</time>
      </trkpt>
      <trkpt lat="44.93348" lon="0.87057">
        <ele>220.1</ele>
        <time>2022-05-15T09:54:23Z</time>
      </trkpt>
      <trkpt lat="44.9335" lon="0.87046">
        <ele>220.3</ele>
        <time>2022-05-15T09:54:25Z</time>
      </trkpt>
      <trkpt lat="44.93352" lon="0.87035">
        <ele>220.5</ele>
        <time>2022-05-15T09:54:27Z</time>
      </trkpt>
      <trkpt lat="44.93354" lon="0.87024">
        <ele>220.8</ele>
        <time>2022-05-15T09:54:29Z</time>
      </trkpt>
      <trkpt lat="44.93355" lon="0.87013">
        <ele>221</ele>
        <time>2022-05-15T09:54:31Z</time>
      </trkpt>
      <trkpt lat="44.93356" lon="0.87001">
        <ele>221.2</ele>
        <time>2022-05-15T09:54:33Z</time>
      </trkpt>
      <trkpt lat="44.93357" lon="0.8699">
        <ele>221.4</ele>
        <time>2022-05-15T09:54:35Z</time>
      </trkpt>
      <trkpt lat="44.93358" lon="0.86978">
        <ele>221.5</ele>
        <time>2022-05-15T09:54:37Z</time>
      </trkpt>
      <trkpt lat="44.93359" lon="0.86967">
        <ele>221.7</ele>
        <time>2022-05-15T09:54:39Z</time>
      </trkpt>
      <trkpt lat="44.9336" lon="0.86955">
        <ele>221.8</ele>
        <time>2022-05-15T09:54:41Z</time>
      </trkpt>
      <trkpt lat="44.93361" lon="0.86944">
        <ele>221.8</ele>
        <time>2022-05-15T09:54:43Z</time>
      </trkpt>
      <trkpt lat="44.93362" lon="0.86932">
        <ele>221.8</ele>
        <time>2022-05-15T09:54:45Z</time>
      </trkpt>
      <trkpt lat="44.93363" lon="0.86927">
        <ele>221.8</ele>
        <time>2022-05-15T09:54:46Z</time>
      </trkpt>
      <trkpt lat="44.93363" lon="0.8692">
        <ele>221.9</ele>
        <time>2022-05-15T09:54:47Z</time>
      </trkpt>
      <trkpt lat="44.93364" lon="0.86908">
        <ele>221.9</ele>
        <time>2022-05-15T09:54:49Z</time>
      </trkpt>
      <trkpt lat="44.93365" lon="0.86896">
        <ele>221.8</ele>
        <time>2022-05-15T09:54:51Z</time>
      </trkpt>
      <trkpt lat="44.93366" lon="0.86883">
        <ele>221.8</ele>
        <time>2022-05-15T09:54:53Z</time>
      </trkpt>
      <trkpt lat="44.93367" lon="0.86871">
        <ele>221.9</ele>
        <time>2022-05-15T09:54:55Z</time>
      </trkpt>
      <trkpt lat="44.93367" lon="0.86865">
        <ele>221.9</ele>
        <time>2022-05-15T09:54:56Z</time>
      </trkpt>
      <trkpt lat="44.93368" lon="0.86858">
        <ele>221.9</ele>
        <time>2022-05-15T09:54:57Z</time>
      </trkpt>
      <trkpt lat="44.93369" lon="0.86846">
        <ele>221.9</ele>
        <time>2022-05-15T09:54:59Z</time>
      </trkpt>
      <trkpt lat="44.93369" lon="0.86833">
        <ele>221.9</ele>
        <time>2022-05-15T09:55:01Z</time>
      </trkpt>
      <trkpt lat="44.9337" lon="0.86821">
        <ele>221.8</ele>
        <time>2022-05-15T09:55:03Z</time>
      </trkpt>
      <trkpt lat="44.93371" lon="0.86815">
        <ele>221.8</ele>
        <time>2022-05-15T09:55:04Z</time>
      </trkpt>
      <trkpt lat="44.93371" lon="0.86809">
        <ele>221.8</ele>
        <time>2022-05-15T09:55:05Z</time>
      </trkpt>
      <trkpt lat="44.93372" lon="0.86798">
        <ele>221.8</ele>
        <time>2022-05-15T09:55:07Z</time>
      </trkpt>
      <trkpt lat="44.93367" lon="0.86795">
        <ele>221.6</ele>
        <time>2022-05-15T09:55:08Z</time>
      </trkpt>
      <trkpt lat="44.93363" lon="0.86793">
        <ele>221.4</ele>
        <time>2022-05-15T09:55:09Z</time>
      </trkpt>
      <trkpt lat="44.93355" lon="0.86789">
        <ele>220.8</ele>
        <time>2022-05-15T09:55:11Z</time>
      </trkpt>
      <trkpt lat="44.9335" lon="0.86787">
        <ele>220.5</ele>
        <time>2022-05-15T09:55:12Z</time>
      </trkpt>
      <trkpt lat="44.93345" lon="0.86783">
        <ele>220.2</ele>
        <time>2022-05-15T09:55:13Z</time>
      </trkpt>
      <trkpt lat="44.93335" lon="0.86774">
        <ele>219.5</ele>
        <time>2022-05-15T09:55:15Z</time>
      </trkpt>
      <trkpt lat="44.9333" lon="0.86768">
        <ele>219.2</ele>
        <time>2022-05-15T09:55:16Z</time>
      </trkpt>
      <trkpt lat="44.93326" lon="0.8676">
        <ele>218.8</ele>
        <time>2022-05-15T09:55:17Z</time>
      </trkpt>
      <trkpt lat="44.93316" lon="0.86746">
        <ele>218.2</ele>
        <time>2022-05-15T09:55:19Z</time>
      </trkpt>
      <trkpt lat="44.93311" lon="0.8674">
        <ele>218</ele>
        <time>2022-05-15T09:55:20Z</time>
      </trkpt>
      <trkpt lat="44.93307" lon="0.86734">
        <ele>217.8</ele>
        <time>2022-05-15T09:55:21Z</time>
      </trkpt>
      <trkpt lat="44.93297" lon="0.86722">
        <ele>217.5</ele>
        <time>2022-05-15T09:55:23Z</time>
      </trkpt>
      <trkpt lat="44.93287" lon="0.8671">
        <ele>217.4</ele>
        <time>2022-05-15T09:55:25Z</time>
      </trkpt>
      <trkpt lat="44.93282" lon="0.86705">
        <ele>217.4</ele>
        <time>2022-05-15T09:55:26Z</time>
      </trkpt>
      <trkpt lat="44.93277" lon="0.867">
        <ele>217.4</ele>
        <time>2022-05-15T09:55:27Z</time>
      </trkpt>
      <trkpt lat="44.93267" lon="0.86693">
        <ele>217.6</ele>
        <time>2022-05-15T09:55:29Z</time>
      </trkpt>
      <trkpt lat="44.93262" lon="0.86693">
        <ele>217.8</ele>
        <time>2022-05-15T09:55:30Z</time>
      </trkpt>
      <trkpt lat="44.93256" lon="0.86692">
        <ele>218</ele>
        <time>2022-05-15T09:55:31Z</time>
      </trkpt>
      <trkpt lat="44.93246" lon="0.86692">
        <ele>218.4</ele>
        <time>2022-05-15T09:55:33Z</time>
      </trkpt>
      <trkpt lat="44.93241" lon="0.86693">
        <ele>218.7</ele>
        <time>2022-05-15T09:55:34Z</time>
      </trkpt>
      <trkpt lat="44.93236" lon="0.86694">
        <ele>219</ele>
        <time>2022-05-15T09:55:35Z</time>
      </trkpt>
      <trkpt lat="44.93232" lon="0.86695">
        <ele>219.3</ele>
        <time>2022-05-15T09:55:36Z</time>
      </trkpt>
      <trkpt lat="44.93226" lon="0.86695">
        <ele>219.7</ele>
        <time>2022-05-15T09:55:37Z</time>
      </trkpt>
      <trkpt lat="44.93219" lon="0.86694">
        <ele>220.2</ele>
        <time>2022-05-15T09:55:39Z</time>
      </trkpt>
      <trkpt lat="44.93214" lon="0.86692">
        <ele>220.6</ele>
        <time>2022-05-15T09:55:41Z</time>
      </trkpt>
      <trkpt lat="44.93209" lon="0.86691">
        <ele>221.1</ele>
        <time>2022-05-15T09:55:43Z</time>
      </trkpt>
      <trkpt lat="44.93202" lon="0.8669">
        <ele>221.6</ele>
        <time>2022-05-15T09:55:45Z</time>
      </trkpt>
      <trkpt lat="44.93196" lon="0.86687">
        <ele>222.2</ele>
        <time>2022-05-15T09:55:47Z</time>
      </trkpt>
      <trkpt lat="44.93191" lon="0.86682">
        <ele>222.7</ele>
        <time>2022-05-15T09:55:49Z</time>
      </trkpt>
      <trkpt lat="44.93186" lon="0.86677">
        <ele>223.2</ele>
        <time>2022-05-15T09:55:51Z</time>
      </trkpt>
      <trkpt lat="44.93182" lon="0.86673">
        <ele>223.6</ele>
        <time>2022-05-15T09:55:53Z</time>
      </trkpt>
      <trkpt lat="44.9318" lon="0.8667">
        <ele>223.9</ele>
        <time>2022-05-15T09:55:54Z</time>
      </trkpt>
      <trkpt lat="44.93179" lon="0.86668">
        <ele>224.1</ele>
        <time>2022-05-15T09:55:55Z</time>
      </trkpt>
      <trkpt lat="44.93176" lon="0.86664">
        <ele>224.5</ele>
        <time>2022-05-15T09:55:57Z</time>
      </trkpt>
      <trkpt lat="44.93174" lon="0.86659">
        <ele>224.9</ele>
        <time>2022-05-15T09:55:59Z</time>
      </trkpt>
      <trkpt lat="44.93172" lon="0.86655">
        <ele>225.2</ele>
        <time>2022-05-15T09:56:01Z</time>
      </trkpt>
      <trkpt lat="44.93169" lon="0.86651">
        <ele>225.6</ele>
        <time>2022-05-15T09:56:03Z</time>
      </trkpt>
      <trkpt lat="44.93168" lon="0.86648">
        <ele>225.8</ele>
        <time>2022-05-15T09:56:04Z</time>
      </trkpt>
      <trkpt lat="44.93166" lon="0.86645">
        <ele>226</ele>
        <time>2022-05-15T09:56:05Z</time>
      </trkpt>
      <trkpt lat="44.93162" lon="0.86638">
        <ele>226.4</ele>
        <time>2022-05-15T09:56:07Z</time>
      </trkpt>
      <trkpt lat="44.93159" lon="0.86631">
        <ele>226.5</ele>
        <time>2022-05-15T09:56:09Z</time>
      </trkpt>
      <trkpt lat="44.93155" lon="0.86622">
        <ele>226.5</ele>
        <time>2022-05-15T09:56:11Z</time>
      </trkpt>
      <trkpt lat="44.93151" lon="0.8661">
        <ele>226.2</ele>
        <time>2022-05-15T09:56:13Z</time>
      </trkpt>
      <trkpt lat="44.93146" lon="0.86595">
        <ele>225.6</ele>
        <time>2022-05-15T09:56:15Z</time>
      </trkpt>
      <trkpt lat="44.93141" lon="0.86578">
        <ele>224.7</ele>
        <time>2022-05-15T09:56:17Z</time>
      </trkpt>
      <trkpt lat="44.93137" lon="0.86568">
        <ele>224.2</ele>
        <time>2022-05-15T09:56:18Z</time>
      </trkpt>
      <trkpt lat="44.93132" lon="0.86559">
        <ele>223.6</ele>
        <time>2022-05-15T09:56:19Z</time>
      </trkpt>
      <trkpt lat="44.93128" lon="0.86549">
        <ele>223.1</ele>
        <time>2022-05-15T09:56:20Z</time>
      </trkpt>
      <trkpt lat="44.93123" lon="0.86539">
        <ele>222.5</ele>
        <time>2022-05-15T09:56:21Z</time>
      </trkpt>
      <trkpt lat="44.93115" lon="0.86521">
        <ele>221.6</ele>
        <time>2022-05-15T09:56:23Z</time>
      </trkpt>
      <trkpt lat="44.93111" lon="0.86514">
        <ele>221.2</ele>
        <time>2022-05-15T09:56:24Z</time>
      </trkpt>
      <trkpt lat="44.93108" lon="0.86507">
        <ele>220.9</ele>
        <time>2022-05-15T09:56:25Z</time>
      </trkpt>
      <trkpt lat="44.93106" lon="0.86502">
        <ele>220.6</ele>
        <time>2022-05-15T09:56:26Z</time>
      </trkpt>
      <trkpt lat="44.93104" lon="0.86499">
        <ele>220.5</ele>
        <time>2022-05-15T09:56:27Z</time>
      </trkpt>
      <trkpt lat="44.93107" lon="0.8648">
        <ele>221.1</ele>
        <time>2022-05-15T09:56:29Z</time>
      </trkpt>
      <trkpt lat="44.9311" lon="0.8648">
        <ele>221.4</ele>
        <time>2022-05-15T09:56:31Z</time>
      </trkpt>
      <trkpt lat="44.93111" lon="0.8648">
        <ele>221.6</ele>
        <time>2022-05-15T09:56:32Z</time>
      </trkpt>
      <trkpt lat="44.93112" lon="0.86479">
        <ele>221.7</ele>
        <time>2022-05-15T09:56:33Z</time>
      </trkpt>
      <trkpt lat="44.93115" lon="0.86479">
        <ele>222.1</ele>
        <time>2022-05-15T09:56:35Z</time>
      </trkpt>
      <trkpt lat="44.93118" lon="0.86479">
        <ele>222.5</ele>
        <time>2022-05-15T09:56:37Z</time>
      </trkpt>
      <trkpt lat="44.93119" lon="0.86478">
        <ele>222.7</ele>
        <time>2022-05-15T09:56:38Z</time>
      </trkpt>
      <trkpt lat="44.93121" lon="0.86478">
        <ele>223</ele>
        <time>2022-05-15T09:56:39Z</time>
      </trkpt>
      <trkpt lat="44.93124" lon="0.86477">
        <ele>223.5</ele>
        <time>2022-05-15T09:56:41Z</time>
      </trkpt>
      <trkpt lat="44.93127" lon="0.86477">
        <ele>224</ele>
        <time>2022-05-15T09:56:43Z</time>
      </trkpt>
      <trkpt lat="44.9313" lon="0.86477">
        <ele>224.4</ele>
        <time>2022-05-15T09:56:45Z</time>
      </trkpt>
      <trkpt lat="44.93132" lon="0.86478">
        <ele>224.7</ele>
        <time>2022-05-15T09:56:47Z</time>
      </trkpt>
      <trkpt lat="44.93133" lon="0.86479">
        <ele>224.9</ele>
        <time>2022-05-15T09:56:49Z</time>
      </trkpt>
      <trkpt lat="44.93136" lon="0.86481">
        <ele>225.2</ele>
        <time>2022-05-15T09:56:51Z</time>
      </trkpt>
      <trkpt lat="44.93137" lon="0.86481">
        <ele>225.4</ele>
        <time>2022-05-15T09:56:52Z</time>
      </trkpt>
      <trkpt lat="44.93139" lon="0.86482">
        <ele>225.6</ele>
        <time>2022-05-15T09:56:53Z</time>
      </trkpt>
      <trkpt lat="44.93142" lon="0.86486">
        <ele>226</ele>
        <time>2022-05-15T09:56:55Z</time>
      </trkpt>
      <trkpt lat="44.93144" lon="0.8649">
        <ele>226.3</ele>
        <time>2022-05-15T09:56:57Z</time>
      </trkpt>
      <trkpt lat="44.93145" lon="0.86492">
        <ele>226.5</ele>
        <time>2022-05-15T09:56:58Z</time>
      </trkpt>
      <trkpt lat="44.93146" lon="0.86494">
        <ele>226.7</ele>
        <time>2022-05-15T09:56:59Z</time>
      </trkpt>
      <trkpt lat="44.93149" lon="0.86499">
        <ele>226.9</ele>
        <time>2022-05-15T09:57:01Z</time>
      </trkpt>
      <trkpt lat="44.93151" lon="0.86503">
        <ele>227.2</ele>
        <time>2022-05-15T09:57:03Z</time>
      </trkpt>
      <trkpt lat="44.93154" lon="0.86509">
        <ele>227.4</ele>
        <time>2022-05-15T09:57:05Z</time>
      </trkpt>
      <trkpt lat="44.93155" lon="0.86512">
        <ele>227.5</ele>
        <time>2022-05-15T09:57:06Z</time>
      </trkpt>
      <trkpt lat="44.93156" lon="0.86514">
        <ele>227.5</ele>
        <time>2022-05-15T09:57:07Z</time>
      </trkpt>
      <trkpt lat="44.93157" lon="0.86517">
        <ele>227.6</ele>
        <time>2022-05-15T09:57:08Z</time>
      </trkpt>
      <trkpt lat="44.93158" lon="0.8652">
        <ele>227.7</ele>
        <time>2022-05-15T09:57:09Z</time>
      </trkpt>
      <trkpt lat="44.93161" lon="0.86526">
        <ele>227.8</ele>
        <time>2022-05-15T09:57:11Z</time>
      </trkpt>
      <trkpt lat="44.93164" lon="0.86533">
        <ele>228</ele>
        <time>2022-05-15T09:57:13Z</time>
      </trkpt>
      <trkpt lat="44.93166" lon="0.86536">
        <ele>228.1</ele>
        <time>2022-05-15T09:57:14Z</time>
      </trkpt>
      <trkpt lat="44.93168" lon="0.86538">
        <ele>228.3</ele>
        <time>2022-05-15T09:57:15Z</time>
      </trkpt>
      <trkpt lat="44.93171" lon="0.86544">
        <ele>228.5</ele>
        <time>2022-05-15T09:57:17Z</time>
      </trkpt>
      <trkpt lat="44.93174" lon="0.8655">
        <ele>228.8</ele>
        <time>2022-05-15T09:57:19Z</time>
      </trkpt>
      <trkpt lat="44.93175" lon="0.86551">
        <ele>228.9</ele>
        <time>2022-05-15T09:57:20Z</time>
      </trkpt>
      <trkpt lat="44.93176" lon="0.86553">
        <ele>229</ele>
        <time>2022-05-15T09:57:21Z</time>
      </trkpt>
      <trkpt lat="44.93179" lon="0.86556">
        <ele>229.2</ele>
        <time>2022-05-15T09:57:23Z</time>
      </trkpt>
      <trkpt lat="44.93181" lon="0.86557">
        <ele>229.3</ele>
        <time>2022-05-15T09:57:24Z</time>
      </trkpt>
      <trkpt lat="44.93183" lon="0.86559">
        <ele>229.4</ele>
        <time>2022-05-15T09:57:25Z</time>
      </trkpt>
      <trkpt lat="44.93186" lon="0.86562">
        <ele>229.6</ele>
        <time>2022-05-15T09:57:27Z</time>
      </trkpt>
      <trkpt lat="44.9319" lon="0.86565">
        <ele>229.8</ele>
        <time>2022-05-15T09:57:29Z</time>
      </trkpt>
      <trkpt lat="44.93193" lon="0.86565">
        <ele>229.9</ele>
        <time>2022-05-15T09:57:31Z</time>
      </trkpt>
      <trkpt lat="44.93198" lon="0.86566">
        <ele>230</ele>
        <time>2022-05-15T09:57:33Z</time>
      </trkpt>
      <trkpt lat="44.93201" lon="0.86567">
        <ele>230</ele>
        <time>2022-05-15T09:57:34Z</time>
      </trkpt>
      <trkpt lat="44.93206" lon="0.86568">
        <ele>230</ele>
        <time>2022-05-15T09:57:35Z</time>
      </trkpt>
      <trkpt lat="44.93213" lon="0.86569">
        <ele>230</ele>
        <time>2022-05-15T09:57:37Z</time>
      </trkpt>
      <trkpt lat="44.93219" lon="0.86568">
        <ele>229.8</ele>
        <time>2022-05-15T09:57:38Z</time>
      </trkpt>
      <trkpt lat="44.93221" lon="0.86568">
        <ele>229.8</ele>
        <time>2022-05-15T09:57:39Z</time>
      </trkpt>
      <trkpt lat="44.93223" lon="0.86567">
        <ele>229.7</ele>
        <time>2022-05-15T09:57:40Z</time>
      </trkpt>
      <trkpt lat="44.93227" lon="0.86567">
        <ele>229.6</ele>
        <time>2022-05-15T09:57:41Z</time>
      </trkpt>
      <trkpt lat="44.93232" lon="0.86566">
        <ele>229.4</ele>
        <time>2022-05-15T09:57:42Z</time>
      </trkpt>
      <trkpt lat="44.93237" lon="0.86565">
        <ele>229.2</ele>
        <time>2022-05-15T09:57:43Z</time>
      </trkpt>
      <trkpt lat="44.9324" lon="0.86565">
        <ele>229.1</ele>
        <time>2022-05-15T09:57:44Z</time>
      </trkpt>
      <trkpt lat="44.93244" lon="0.86564">
        <ele>229</ele>
        <time>2022-05-15T09:57:45Z</time>
      </trkpt>
      <trkpt lat="44.93253" lon="0.8656">
        <ele>228.8</ele>
        <time>2022-05-15T09:57:47Z</time>
      </trkpt>
      <trkpt lat="44.93262" lon="0.86556">
        <ele>228.5</ele>
        <time>2022-05-15T09:57:49Z</time>
      </trkpt>
      <trkpt lat="44.93272" lon="0.8655">
        <ele>228.3</ele>
        <time>2022-05-15T09:57:51Z</time>
      </trkpt>
      <trkpt lat="44.93283" lon="0.86544">
        <ele>228</ele>
        <time>2022-05-15T09:57:53Z</time>
      </trkpt>
      <trkpt lat="44.93293" lon="0.86539">
        <ele>227.6</ele>
        <time>2022-05-15T09:57:55Z</time>
      </trkpt>
      <trkpt lat="44.93298" lon="0.86536">
        <ele>227.3</ele>
        <time>2022-05-15T09:57:56Z</time>
      </trkpt>
      <trkpt lat="44.93303" lon="0.86533">
        <ele>227.1</ele>
        <time>2022-05-15T09:57:57Z</time>
      </trkpt>
      <trkpt lat="44.93308" lon="0.8653">
        <ele>226.9</ele>
        <time>2022-05-15T09:57:58Z</time>
      </trkpt>
      <trkpt lat="44.93313" lon="0.86528">
        <ele>226.7</ele>
        <time>2022-05-15T09:57:59Z</time>
      </trkpt>
      <trkpt lat="44.93321" lon="0.86523">
        <ele>226.5</ele>
        <time>2022-05-15T09:58:01Z</time>
      </trkpt>
      <trkpt lat="44.93328" lon="0.86519">
        <ele>226.3</ele>
        <time>2022-05-15T09:58:03Z</time>
      </trkpt>
      <trkpt lat="44.93332" lon="0.86517">
        <ele>226.2</ele>
        <time>2022-05-15T09:58:04Z</time>
      </trkpt>
      <trkpt lat="44.93337" lon="0.86513">
        <ele>226.1</ele>
        <time>2022-05-15T09:58:05Z</time>
      </trkpt>
      <trkpt lat="44.93342" lon="0.8651">
        <ele>226</ele>
        <time>2022-05-15T09:58:06Z</time>
      </trkpt>
      <trkpt lat="44.93348" lon="0.86504">
        <ele>225.9</ele>
        <time>2022-05-15T09:58:07Z</time>
      </trkpt>
      <trkpt lat="44.93358" lon="0.86493">
        <ele>225.8</ele>
        <time>2022-05-15T09:58:09Z</time>
      </trkpt>
      <trkpt lat="44.93371" lon="0.86482">
        <ele>225.8</ele>
        <time>2022-05-15T09:58:11Z</time>
      </trkpt>
      <trkpt lat="44.93376" lon="0.86478">
        <ele>225.9</ele>
        <time>2022-05-15T09:58:12Z</time>
      </trkpt>
      <trkpt lat="44.93382" lon="0.86473">
        <ele>225.9</ele>
        <time>2022-05-15T09:58:13Z</time>
      </trkpt>
      <trkpt lat="44.93392" lon="0.86465">
        <ele>226.1</ele>
        <time>2022-05-15T09:58:15Z</time>
      </trkpt>
      <trkpt lat="44.93404" lon="0.86458">
        <ele>226.5</ele>
        <time>2022-05-15T09:58:17Z</time>
      </trkpt>
      <trkpt lat="44.93414" lon="0.86451">
        <ele>227</ele>
        <time>2022-05-15T09:58:19Z</time>
      </trkpt>
      <trkpt lat="44.9342" lon="0.86449">
        <ele>227.2</ele>
        <time>2022-05-15T09:58:20Z</time>
      </trkpt>
      <trkpt lat="44.93425" lon="0.86447">
        <ele>227.5</ele>
        <time>2022-05-15T09:58:21Z</time>
      </trkpt>
      <trkpt lat="44.93435" lon="0.86443">
        <ele>228.2</ele>
        <time>2022-05-15T09:58:23Z</time>
      </trkpt>
      <trkpt lat="44.93444" lon="0.86439">
        <ele>228.7</ele>
        <time>2022-05-15T09:58:25Z</time>
      </trkpt>
      <trkpt lat="44.93453" lon="0.86436">
        <ele>229</ele>
        <time>2022-05-15T09:58:27Z</time>
      </trkpt>
      <trkpt lat="44.93465" lon="0.86431">
        <ele>228.9</ele>
        <time>2022-05-15T09:58:29Z</time>
      </trkpt>
      <trkpt lat="44.93476" lon="0.86427">
        <ele>228.5</ele>
        <time>2022-05-15T09:58:31Z</time>
      </trkpt>
      <trkpt lat="44.93482" lon="0.86425">
        <ele>228.3</ele>
        <time>2022-05-15T09:58:32Z</time>
      </trkpt>
      <trkpt lat="44.93487" lon="0.86423">
        <ele>228.2</ele>
        <time>2022-05-15T09:58:33Z</time>
      </trkpt>
      <trkpt lat="44.93499" lon="0.86411">
        <ele>227.8</ele>
        <time>2022-05-15T09:58:35Z</time>
      </trkpt>
      <trkpt lat="44.93509" lon="0.86398">
        <ele>227.3</ele>
        <time>2022-05-15T09:58:37Z</time>
      </trkpt>
      <trkpt lat="44.93518" lon="0.86385">
        <ele>226.9</ele>
        <time>2022-05-15T09:58:38Z</time>
      </trkpt>
      <trkpt lat="44.93518" lon="0.86385">
        <ele>226.9</ele>
        <time>2022-05-15T09:58:39Z</time>
      </trkpt>
      <trkpt lat="44.93525" lon="0.86373">
        <ele>226.8</ele>
        <time>2022-05-15T09:58:41Z</time>
      </trkpt>
      <trkpt lat="44.93528" lon="0.86367">
        <ele>226.8</ele>
        <time>2022-05-15T09:58:42Z</time>
      </trkpt>
      <trkpt lat="44.93532" lon="0.86362">
        <ele>226.8</ele>
        <time>2022-05-15T09:58:43Z</time>
      </trkpt>
      <trkpt lat="44.93536" lon="0.86355">
        <ele>226.7</ele>
        <time>2022-05-15T09:58:44Z</time>
      </trkpt>
      <trkpt lat="44.9354" lon="0.86346">
        <ele>226.5</ele>
        <time>2022-05-15T09:58:45Z</time>
      </trkpt>
      <trkpt lat="44.93542" lon="0.86337">
        <ele>226.1</ele>
        <time>2022-05-15T09:58:46Z</time>
      </trkpt>
      <trkpt lat="44.93544" lon="0.86328">
        <ele>225.6</ele>
        <time>2022-05-15T09:58:47Z</time>
      </trkpt>
      <trkpt lat="44.93552" lon="0.86309">
        <ele>224.2</ele>
        <time>2022-05-15T09:58:49Z</time>
      </trkpt>
      <trkpt lat="44.93561" lon="0.86289">
        <ele>222.6</ele>
        <time>2022-05-15T09:58:51Z</time>
      </trkpt>
      <trkpt lat="44.93565" lon="0.86278">
        <ele>221.7</ele>
        <time>2022-05-15T09:58:52Z</time>
      </trkpt>
      <trkpt lat="44.9357" lon="0.86266">
        <ele>220.9</ele>
        <time>2022-05-15T09:58:53Z</time>
      </trkpt>
      <trkpt lat="44.93574" lon="0.86253">
        <ele>220.2</ele>
        <time>2022-05-15T09:58:54Z</time>
      </trkpt>
      <trkpt lat="44.93577" lon="0.86241">
        <ele>219.7</ele>
        <time>2022-05-15T09:58:55Z</time>
      </trkpt>
      <trkpt lat="44.93578" lon="0.86212">
        <ele>218.4</ele>
        <time>2022-05-15T09:58:57Z</time>
      </trkpt>
      <trkpt lat="44.93577" lon="0.86198">
        <ele>217.7</ele>
        <time>2022-05-15T09:58:58Z</time>
      </trkpt>
      <trkpt lat="44.93575" lon="0.86185">
        <ele>217.1</ele>
        <time>2022-05-15T09:58:59Z</time>
      </trkpt>
      <trkpt lat="44.93572" lon="0.86158">
        <ele>215.7</ele>
        <time>2022-05-15T09:59:01Z</time>
      </trkpt>
      <trkpt lat="44.93569" lon="0.8613">
        <ele>214.2</ele>
        <time>2022-05-15T09:59:03Z</time>
      </trkpt>
      <trkpt lat="44.93567" lon="0.86116">
        <ele>213.6</ele>
        <time>2022-05-15T09:59:04Z</time>
      </trkpt>
      <trkpt lat="44.93565" lon="0.86102">
        <ele>213</ele>
        <time>2022-05-15T09:59:05Z</time>
      </trkpt>
      <trkpt lat="44.93562" lon="0.86074">
        <ele>211.7</ele>
        <time>2022-05-15T09:59:07Z</time>
      </trkpt>
      <trkpt lat="44.93558" lon="0.86046">
        <ele>210.3</ele>
        <time>2022-05-15T09:59:09Z</time>
      </trkpt>
      <trkpt lat="44.93557" lon="0.86032">
        <ele>209.7</ele>
        <time>2022-05-15T09:59:10Z</time>
      </trkpt>
      <trkpt lat="44.93555" lon="0.86018">
        <ele>209.2</ele>
        <time>2022-05-15T09:59:11Z</time>
      </trkpt>
      <trkpt lat="44.93552" lon="0.8599">
        <ele>208.4</ele>
        <time>2022-05-15T09:59:13Z</time>
      </trkpt>
      <trkpt lat="44.9355" lon="0.85977">
        <ele>208.1</ele>
        <time>2022-05-15T09:59:14Z</time>
      </trkpt>
      <trkpt lat="44.93547" lon="0.85964">
        <ele>207.9</ele>
        <time>2022-05-15T09:59:15Z</time>
      </trkpt>
      <trkpt lat="44.93541" lon="0.85941">
        <ele>207.6</ele>
        <time>2022-05-15T09:59:17Z</time>
      </trkpt>
      <trkpt lat="44.93535" lon="0.8592">
        <ele>207.3</ele>
        <time>2022-05-15T09:59:19Z</time>
      </trkpt>
      <trkpt lat="44.93533" lon="0.8591">
        <ele>207.2</ele>
        <time>2022-05-15T09:59:20Z</time>
      </trkpt>
      <trkpt lat="44.9353" lon="0.859">
        <ele>207.2</ele>
        <time>2022-05-15T09:59:21Z</time>
      </trkpt>
      <trkpt lat="44.93525" lon="0.8588">
        <ele>207</ele>
        <time>2022-05-15T09:59:23Z</time>
      </trkpt>
      <trkpt lat="44.9352" lon="0.85861">
        <ele>206.9</ele>
        <time>2022-05-15T09:59:25Z</time>
      </trkpt>
      <trkpt lat="44.93515" lon="0.85842">
        <ele>206.8</ele>
        <time>2022-05-15T09:59:27Z</time>
      </trkpt>
      <trkpt lat="44.9351" lon="0.85825">
        <ele>206.8</ele>
        <time>2022-05-15T09:59:29Z</time>
      </trkpt>
      <trkpt lat="44.93506" lon="0.85809">
        <ele>207</ele>
        <time>2022-05-15T09:59:31Z</time>
      </trkpt>
      <trkpt lat="44.93501" lon="0.85791">
        <ele>207.3</ele>
        <time>2022-05-15T09:59:33Z</time>
      </trkpt>
      <trkpt lat="44.93499" lon="0.85783">
        <ele>207.5</ele>
        <time>2022-05-15T09:59:34Z</time>
      </trkpt>
      <trkpt lat="44.93497" lon="0.85774">
        <ele>207.6</ele>
        <time>2022-05-15T09:59:35Z</time>
      </trkpt>
      <trkpt lat="44.93492" lon="0.85758">
        <ele>207.7</ele>
        <time>2022-05-15T09:59:37Z</time>
      </trkpt>
      <trkpt lat="44.93488" lon="0.85742">
        <ele>207.8</ele>
        <time>2022-05-15T09:59:39Z</time>
      </trkpt>
      <trkpt lat="44.93486" lon="0.85733">
        <ele>207.7</ele>
        <time>2022-05-15T09:59:40Z</time>
      </trkpt>
      <trkpt lat="44.93485" lon="0.85724">
        <ele>207.6</ele>
        <time>2022-05-15T09:59:41Z</time>
      </trkpt>
      <trkpt lat="44.93485" lon="0.85704">
        <ele>207.2</ele>
        <time>2022-05-15T09:59:43Z</time>
      </trkpt>
      <trkpt lat="44.93484" lon="0.85695">
        <ele>207</ele>
        <time>2022-05-15T09:59:44Z</time>
      </trkpt>
      <trkpt lat="44.93484" lon="0.85685">
        <ele>206.8</ele>
        <time>2022-05-15T09:59:45Z</time>
      </trkpt>
      <trkpt lat="44.93482" lon="0.85663">
        <ele>206</ele>
        <time>2022-05-15T09:59:47Z</time>
      </trkpt>
      <trkpt lat="44.9348" lon="0.85653">
        <ele>205.5</ele>
        <time>2022-05-15T09:59:48Z</time>
      </trkpt>
      <trkpt lat="44.93477" lon="0.85643">
        <ele>205</ele>
        <time>2022-05-15T09:59:49Z</time>
      </trkpt>
      <trkpt lat="44.93474" lon="0.85631">
        <ele>204.3</ele>
        <time>2022-05-15T09:59:50Z</time>
      </trkpt>
      <trkpt lat="44.93471" lon="0.85619">
        <ele>203.7</ele>
        <time>2022-05-15T09:59:51Z</time>
      </trkpt>
      <trkpt lat="44.93467" lon="0.85607">
        <ele>203</ele>
        <time>2022-05-15T09:59:52Z</time>
      </trkpt>
      <trkpt lat="44.93464" lon="0.85594">
        <ele>202.4</ele>
        <time>2022-05-15T09:59:53Z</time>
      </trkpt>
      <trkpt lat="44.9346" lon="0.85581">
        <ele>201.7</ele>
        <time>2022-05-15T09:59:54Z</time>
      </trkpt>
      <trkpt lat="44.93456" lon="0.85569">
        <ele>201.2</ele>
        <time>2022-05-15T09:59:55Z</time>
      </trkpt>
      <trkpt lat="44.93448" lon="0.85544">
        <ele>199.9</ele>
        <time>2022-05-15T09:59:57Z</time>
      </trkpt>
      <trkpt lat="44.93444" lon="0.85531">
        <ele>199.1</ele>
        <time>2022-05-15T09:59:58Z</time>
      </trkpt>
      <trkpt lat="44.9344" lon="0.85518">
        <ele>198.3</ele>
        <time>2022-05-15T09:59:59Z</time>
      </trkpt>
      <trkpt lat="44.93431" lon="0.8549">
        <ele>196.3</ele>
        <time>2022-05-15T10:00:01Z</time>
      </trkpt>
      <trkpt lat="44.93422" lon="0.85463">
        <ele>194.5</ele>
        <time>2022-05-15T10:00:03Z</time>
      </trkpt>
      <trkpt lat="44.93415" lon="0.85434">
        <ele>192.9</ele>
        <time>2022-05-15T10:00:05Z</time>
      </trkpt>
      <trkpt lat="44.93408" lon="0.85404">
        <ele>191.5</ele>
        <time>2022-05-15T10:00:07Z</time>
      </trkpt>
      <trkpt lat="44.93401" lon="0.85375">
        <ele>190.3</ele>
        <time>2022-05-15T10:00:09Z</time>
      </trkpt>
      <trkpt lat="44.93398" lon="0.85361">
        <ele>189.8</ele>
        <time>2022-05-15T10:00:10Z</time>
      </trkpt>
      <trkpt lat="44.93396" lon="0.85349">
        <ele>189.4</ele>
        <time>2022-05-15T10:00:11Z</time>
      </trkpt>
      <trkpt lat="44.93394" lon="0.8534">
        <ele>189.2</ele>
        <time>2022-05-15T10:00:12Z</time>
      </trkpt>
      <trkpt lat="44.93392" lon="0.85333">
        <ele>189</ele>
        <time>2022-05-15T10:00:13Z</time>
      </trkpt>
      <trkpt lat="44.9339" lon="0.85326">
        <ele>188.8</ele>
        <time>2022-05-15T10:00:14Z</time>
      </trkpt>
      <trkpt lat="44.93389" lon="0.85319">
        <ele>188.7</ele>
        <time>2022-05-15T10:00:15Z</time>
      </trkpt>
      <trkpt lat="44.93387" lon="0.85313">
        <ele>188.5</ele>
        <time>2022-05-15T10:00:16Z</time>
      </trkpt>
      <trkpt lat="44.93383" lon="0.853">
        <ele>188.2</ele>
        <time>2022-05-15T10:00:17Z</time>
      </trkpt>
      <trkpt lat="44.93383" lon="0.85296">
        <ele>188.1</ele>
        <time>2022-05-15T10:00:18Z</time>
      </trkpt>
      <trkpt lat="44.93382" lon="0.85293">
        <ele>188</ele>
        <time>2022-05-15T10:00:19Z</time>
      </trkpt>
      <trkpt lat="44.93376" lon="0.85277">
        <ele>187.5</ele>
        <time>2022-05-15T10:00:21Z</time>
      </trkpt>
      <trkpt lat="44.93375" lon="0.85274">
        <ele>187.5</ele>
        <time>2022-05-15T10:00:23Z</time>
      </trkpt>
      <trkpt lat="44.93371" lon="0.85264">
        <ele>187.2</ele>
        <time>2022-05-15T10:00:25Z</time>
      </trkpt>
      <trkpt lat="44.93368" lon="0.85257">
        <ele>187.1</ele>
        <time>2022-05-15T10:00:27Z</time>
      </trkpt>
      <trkpt lat="44.93365" lon="0.8525">
        <ele>187</ele>
        <time>2022-05-15T10:00:29Z</time>
      </trkpt>
      <trkpt lat="44.93363" lon="0.85243">
        <ele>186.9</ele>
        <time>2022-05-15T10:00:31Z</time>
      </trkpt>
      <trkpt lat="44.93361" lon="0.85239">
        <ele>186.8</ele>
        <time>2022-05-15T10:00:33Z</time>
      </trkpt>
      <trkpt lat="44.93357" lon="0.85228">
        <ele>186.7</ele>
        <time>2022-05-15T10:00:35Z</time>
      </trkpt>
      <trkpt lat="44.93355" lon="0.85219">
        <ele>186.6</ele>
        <time>2022-05-15T10:00:37Z</time>
      </trkpt>
      <trkpt lat="44.93353" lon="0.85216">
        <ele>186.6</ele>
        <time>2022-05-15T10:00:38Z</time>
      </trkpt>
      <trkpt lat="44.93353" lon="0.85216">
        <ele>186.6</ele>
        <time>2022-05-15T10:00:39Z</time>
      </trkpt>
      <trkpt lat="44.93351" lon="0.85207">
        <ele>186.5</ele>
        <time>2022-05-15T10:00:41Z</time>
      </trkpt>
      <trkpt lat="44.93349" lon="0.85202">
        <ele>186.4</ele>
        <time>2022-05-15T10:00:42Z</time>
      </trkpt>
      <trkpt lat="44.93347" lon="0.85196">
        <ele>186.4</ele>
        <time>2022-05-15T10:00:43Z</time>
      </trkpt>
      <trkpt lat="44.93342" lon="0.85183">
        <ele>186.3</ele>
        <time>2022-05-15T10:00:45Z</time>
      </trkpt>
      <trkpt lat="44.93339" lon="0.85178">
        <ele>186.3</ele>
        <time>2022-05-15T10:00:46Z</time>
      </trkpt>
      <trkpt lat="44.93336" lon="0.85172">
        <ele>186.3</ele>
        <time>2022-05-15T10:00:47Z</time>
      </trkpt>
      <trkpt lat="44.93331" lon="0.85161">
        <ele>186.3</ele>
        <time>2022-05-15T10:00:49Z</time>
      </trkpt>
      <trkpt lat="44.93325" lon="0.85149">
        <ele>186.3</ele>
        <time>2022-05-15T10:00:51Z</time>
      </trkpt>
      <trkpt lat="44.93315" lon="0.85131">
        <ele>186.3</ele>
        <time>2022-05-15T10:00:53Z</time>
      </trkpt>
      <trkpt lat="44.93307" lon="0.85119">
        <ele>186.3</ele>
        <time>2022-05-15T10:00:55Z</time>
      </trkpt>
      <trkpt lat="44.93303" lon="0.85113">
        <ele>186.3</ele>
        <time>2022-05-15T10:00:56Z</time>
      </trkpt>
      <trkpt lat="44.93297" lon="0.85104">
        <ele>186.3</ele>
        <time>2022-05-15T10:00:57Z</time>
      </trkpt>
      <trkpt lat="44.93292" lon="0.85096">
        <ele>186.4</ele>
        <time>2022-05-15T10:00:59Z</time>
      </trkpt>
      <trkpt lat="44.93288" lon="0.8509">
        <ele>186.4</ele>
        <time>2022-05-15T10:01:00Z</time>
      </trkpt>
      <trkpt lat="44.93285" lon="0.85085">
        <ele>186.4</ele>
        <time>2022-05-15T10:01:01Z</time>
      </trkpt>
      <trkpt lat="44.93281" lon="0.85079">
        <ele>186.4</ele>
        <time>2022-05-15T10:01:02Z</time>
      </trkpt>
      <trkpt lat="44.93277" lon="0.85073">
        <ele>186.4</ele>
        <time>2022-05-15T10:01:03Z</time>
      </trkpt>
      <trkpt lat="44.9327" lon="0.85061">
        <ele>186.3</ele>
        <time>2022-05-15T10:01:05Z</time>
      </trkpt>
      <trkpt lat="44.93263" lon="0.85049">
        <ele>186.1</ele>
        <time>2022-05-15T10:01:07Z</time>
      </trkpt>
      <trkpt lat="44.93259" lon="0.85042">
        <ele>185.9</ele>
        <time>2022-05-15T10:01:09Z</time>
      </trkpt>
      <trkpt lat="44.93247" lon="0.85022">
        <ele>185</ele>
        <time>2022-05-15T10:01:11Z</time>
      </trkpt>
      <trkpt lat="44.93243" lon="0.85015">
        <ele>184.5</ele>
        <time>2022-05-15T10:01:12Z</time>
      </trkpt>
      <trkpt lat="44.93239" lon="0.85007">
        <ele>184.1</ele>
        <time>2022-05-15T10:01:13Z</time>
      </trkpt>
      <trkpt lat="44.93231" lon="0.84993">
        <ele>183.2</ele>
        <time>2022-05-15T10:01:15Z</time>
      </trkpt>
      <trkpt lat="44.93226" lon="0.84986">
        <ele>182.8</ele>
        <time>2022-05-15T10:01:16Z</time>
      </trkpt>
      <trkpt lat="44.93222" lon="0.84978">
        <ele>182.3</ele>
        <time>2022-05-15T10:01:17Z</time>
      </trkpt>
      <trkpt lat="44.93214" lon="0.84963">
        <ele>181.5</ele>
        <time>2022-05-15T10:01:19Z</time>
      </trkpt>
      <trkpt lat="44.93211" lon="0.84958">
        <ele>181.2</ele>
        <time>2022-05-15T10:01:20Z</time>
      </trkpt>
      <trkpt lat="44.93207" lon="0.84953">
        <ele>180.9</ele>
        <time>2022-05-15T10:01:21Z</time>
      </trkpt>
      <trkpt lat="44.93195" lon="0.84932">
        <ele>179.5</ele>
        <time>2022-05-15T10:01:23Z</time>
      </trkpt>
      <trkpt lat="44.93191" lon="0.84923">
        <ele>179</ele>
        <time>2022-05-15T10:01:24Z</time>
      </trkpt>
      <trkpt lat="44.93186" lon="0.84915">
        <ele>178.4</ele>
        <time>2022-05-15T10:01:25Z</time>
      </trkpt>
      <trkpt lat="44.93174" lon="0.84899">
        <ele>177.3</ele>
        <time>2022-05-15T10:01:27Z</time>
      </trkpt>
      <trkpt lat="44.93168" lon="0.84891">
        <ele>176.6</ele>
        <time>2022-05-15T10:01:28Z</time>
      </trkpt>
      <trkpt lat="44.93161" lon="0.84883">
        <ele>175.9</ele>
        <time>2022-05-15T10:01:29Z</time>
      </trkpt>
      <trkpt lat="44.93149" lon="0.84868">
        <ele>174.5</ele>
        <time>2022-05-15T10:01:31Z</time>
      </trkpt>
      <trkpt lat="44.93137" lon="0.84853">
        <ele>172.9</ele>
        <time>2022-05-15T10:01:33Z</time>
      </trkpt>
      <trkpt lat="44.93124" lon="0.84837">
        <ele>171.1</ele>
        <time>2022-05-15T10:01:35Z</time>
      </trkpt>
      <trkpt lat="44.93111" lon="0.84822">
        <ele>169.3</ele>
        <time>2022-05-15T10:01:37Z</time>
      </trkpt>
      <trkpt lat="44.93098" lon="0.84807">
        <ele>167.7</ele>
        <time>2022-05-15T10:01:39Z</time>
      </trkpt>
      <trkpt lat="44.93087" lon="0.84794">
        <ele>166.5</ele>
        <time>2022-05-15T10:01:41Z</time>
      </trkpt>
      <trkpt lat="44.93084" lon="0.8479">
        <ele>166.2</ele>
        <time>2022-05-15T10:01:42Z</time>
      </trkpt>
      <trkpt lat="44.93084" lon="0.8479">
        <ele>166.2</ele>
        <time>2022-05-15T10:01:43Z</time>
      </trkpt>
      <trkpt lat="44.93073" lon="0.84787">
        <ele>165.3</ele>
        <time>2022-05-15T10:01:45Z</time>
      </trkpt>
      <trkpt lat="44.93067" lon="0.84798">
        <ele>164.9</ele>
        <time>2022-05-15T10:01:47Z</time>
      </trkpt>
      <trkpt lat="44.93062" lon="0.84808">
        <ele>164.3</ele>
        <time>2022-05-15T10:01:49Z</time>
      </trkpt>
      <trkpt lat="44.93056" lon="0.8482">
        <ele>163.4</ele>
        <time>2022-05-15T10:01:51Z</time>
      </trkpt>
      <trkpt lat="44.93047" lon="0.84833">
        <ele>162.1</ele>
        <time>2022-05-15T10:01:53Z</time>
      </trkpt>
      <trkpt lat="44.93036" lon="0.84847">
        <ele>160.4</ele>
        <time>2022-05-15T10:01:55Z</time>
      </trkpt>
      <trkpt lat="44.93028" lon="0.84853">
        <ele>159.4</ele>
        <time>2022-05-15T10:01:56Z</time>
      </trkpt>
      <trkpt lat="44.9302" lon="0.8486">
        <ele>158.4</ele>
        <time>2022-05-15T10:01:57Z</time>
      </trkpt>
      <trkpt lat="44.93004" lon="0.84873">
        <ele>156.6</ele>
        <time>2022-05-15T10:01:59Z</time>
      </trkpt>
      <trkpt lat="44.92996" lon="0.84877">
        <ele>155.7</ele>
        <time>2022-05-15T10:02:00Z</time>
      </trkpt>
      <trkpt lat="44.92988" lon="0.84882">
        <ele>154.8</ele>
        <time>2022-05-15T10:02:01Z</time>
      </trkpt>
      <trkpt lat="44.92969" lon="0.84882">
        <ele>152.9</ele>
        <time>2022-05-15T10:02:03Z</time>
      </trkpt>
      <trkpt lat="44.9295" lon="0.84876">
        <ele>151.2</ele>
        <time>2022-05-15T10:02:05Z</time>
      </trkpt>
      <trkpt lat="44.92935" lon="0.84869">
        <ele>149.6</ele>
        <time>2022-05-15T10:02:07Z</time>
      </trkpt>
      <trkpt lat="44.92919" lon="0.84869">
        <ele>148.2</ele>
        <time>2022-05-15T10:02:09Z</time>
      </trkpt>
      <trkpt lat="44.92911" lon="0.84871">
        <ele>147.4</ele>
        <time>2022-05-15T10:02:10Z</time>
      </trkpt>
      <trkpt lat="44.92902" lon="0.84877">
        <ele>146.6</ele>
        <time>2022-05-15T10:02:11Z</time>
      </trkpt>
      <trkpt lat="44.92886" lon="0.84888">
        <ele>144.8</ele>
        <time>2022-05-15T10:02:13Z</time>
      </trkpt>
      <trkpt lat="44.92879" lon="0.84895">
        <ele>144.1</ele>
        <time>2022-05-15T10:02:14Z</time>
      </trkpt>
      <trkpt lat="44.92871" lon="0.84901">
        <ele>143.7</ele>
        <time>2022-05-15T10:02:15Z</time>
      </trkpt>
      <trkpt lat="44.92856" lon="0.84913">
        <ele>143.6</ele>
        <time>2022-05-15T10:02:17Z</time>
      </trkpt>
      <trkpt lat="44.9285" lon="0.84918">
        <ele>143.8</ele>
        <time>2022-05-15T10:02:18Z</time>
      </trkpt>
      <trkpt lat="44.92844" lon="0.84923">
        <ele>144.1</ele>
        <time>2022-05-15T10:02:19Z</time>
      </trkpt>
      <trkpt lat="44.92838" lon="0.84928">
        <ele>144.5</ele>
        <time>2022-05-15T10:02:20Z</time>
      </trkpt>
      <trkpt lat="44.92834" lon="0.84931">
        <ele>144.9</ele>
        <time>2022-05-15T10:02:21Z</time>
      </trkpt>
      <trkpt lat="44.92828" lon="0.84934">
        <ele>145.4</ele>
        <time>2022-05-15T10:02:22Z</time>
      </trkpt>
      <trkpt lat="44.92823" lon="0.84936">
        <ele>145.9</ele>
        <time>2022-05-15T10:02:23Z</time>
      </trkpt>
      <trkpt lat="44.92814" lon="0.84939">
        <ele>146.8</ele>
        <time>2022-05-15T10:02:25Z</time>
      </trkpt>
      <trkpt lat="44.9281" lon="0.84941">
        <ele>147.3</ele>
        <time>2022-05-15T10:02:26Z</time>
      </trkpt>
      <trkpt lat="44.92804" lon="0.84943">
        <ele>147.7</ele>
        <time>2022-05-15T10:02:27Z</time>
      </trkpt>
      <trkpt lat="44.92796" lon="0.84949">
        <ele>148.3</ele>
        <time>2022-05-15T10:02:29Z</time>
      </trkpt>
      <trkpt lat="44.92792" lon="0.84952">
        <ele>148.6</ele>
        <time>2022-05-15T10:02:30Z</time>
      </trkpt>
      <trkpt lat="44.92788" lon="0.84956">
        <ele>148.9</ele>
        <time>2022-05-15T10:02:31Z</time>
      </trkpt>
      <trkpt lat="44.92785" lon="0.84961">
        <ele>149.2</ele>
        <time>2022-05-15T10:02:32Z</time>
      </trkpt>
      <trkpt lat="44.92782" lon="0.84965">
        <ele>149.5</ele>
        <time>2022-05-15T10:02:33Z</time>
      </trkpt>
      <trkpt lat="44.92778" lon="0.84974">
        <ele>150</ele>
        <time>2022-05-15T10:02:35Z</time>
      </trkpt>
      <trkpt lat="44.92774" lon="0.84982">
        <ele>150.5</ele>
        <time>2022-05-15T10:02:37Z</time>
      </trkpt>
      <trkpt lat="44.9277" lon="0.84989">
        <ele>150.9</ele>
        <time>2022-05-15T10:02:39Z</time>
      </trkpt>
      <trkpt lat="44.92764" lon="0.84996">
        <ele>151.3</ele>
        <time>2022-05-15T10:02:41Z</time>
      </trkpt>
      <trkpt lat="44.92757" lon="0.85002">
        <ele>151.5</ele>
        <time>2022-05-15T10:02:43Z</time>
      </trkpt>
      <trkpt lat="44.92748" lon="0.85002">
        <ele>151.5</ele>
        <time>2022-05-15T10:02:45Z</time>
      </trkpt>
      <trkpt lat="44.92739" lon="0.85">
        <ele>151.2</ele>
        <time>2022-05-15T10:02:47Z</time>
      </trkpt>
      <trkpt lat="44.92733" lon="0.84995">
        <ele>150.8</ele>
        <time>2022-05-15T10:02:48Z</time>
      </trkpt>
      <trkpt lat="44.9273" lon="0.84988">
        <ele>150.4</ele>
        <time>2022-05-15T10:02:49Z</time>
      </trkpt>
      <trkpt lat="44.92726" lon="0.84972">
        <ele>149.5</ele>
        <time>2022-05-15T10:02:51Z</time>
      </trkpt>
      <trkpt lat="44.92722" lon="0.84953">
        <ele>148.6</ele>
        <time>2022-05-15T10:02:53Z</time>
      </trkpt>
      <trkpt lat="44.92717" lon="0.84934">
        <ele>147.9</ele>
        <time>2022-05-15T10:02:55Z</time>
      </trkpt>
      <trkpt lat="44.92713" lon="0.84915">
        <ele>147.3</ele>
        <time>2022-05-15T10:02:57Z</time>
      </trkpt>
      <trkpt lat="44.92708" lon="0.84897">
        <ele>147.1</ele>
        <time>2022-05-15T10:02:59Z</time>
      </trkpt>
      <trkpt lat="44.92704" lon="0.8488">
        <ele>147.2</ele>
        <time>2022-05-15T10:03:01Z</time>
      </trkpt>
      <trkpt lat="44.92702" lon="0.84873">
        <ele>147.4</ele>
        <time>2022-05-15T10:03:02Z</time>
      </trkpt>
      <trkpt lat="44.92699" lon="0.84866">
        <ele>147.6</ele>
        <time>2022-05-15T10:03:03Z</time>
      </trkpt>
      <trkpt lat="44.92695" lon="0.84854">
        <ele>148.1</ele>
        <time>2022-05-15T10:03:05Z</time>
      </trkpt>
      <trkpt lat="44.92693" lon="0.84849">
        <ele>148.4</ele>
        <time>2022-05-15T10:03:06Z</time>
      </trkpt>
      <trkpt lat="44.92691" lon="0.84844">
        <ele>148.6</ele>
        <time>2022-05-15T10:03:07Z</time>
      </trkpt>
      <trkpt lat="44.92684" lon="0.84843">
        <ele>149.3</ele>
        <time>2022-05-15T10:03:09Z</time>
      </trkpt>
      <trkpt lat="44.92677" lon="0.84847">
        <ele>149.6</ele>
        <time>2022-05-15T10:03:11Z</time>
      </trkpt>
      <trkpt lat="44.92671" lon="0.84851">
        <ele>149.8</ele>
        <time>2022-05-15T10:03:13Z</time>
      </trkpt>
      <trkpt lat="44.92666" lon="0.84855">
        <ele>150</ele>
        <time>2022-05-15T10:03:15Z</time>
      </trkpt>
      <trkpt lat="44.9266" lon="0.84859">
        <ele>150.3</ele>
        <time>2022-05-15T10:03:17Z</time>
      </trkpt>
      <trkpt lat="44.92654" lon="0.84862">
        <ele>150.6</ele>
        <time>2022-05-15T10:03:19Z</time>
      </trkpt>
      <trkpt lat="44.92648" lon="0.84866">
        <ele>151</ele>
        <time>2022-05-15T10:03:21Z</time>
      </trkpt>
      <trkpt lat="44.92642" lon="0.8487">
        <ele>151.5</ele>
        <time>2022-05-15T10:03:23Z</time>
      </trkpt>
      <trkpt lat="44.9264" lon="0.84872">
        <ele>151.7</ele>
        <time>2022-05-15T10:03:25Z</time>
      </trkpt>
      <trkpt lat="44.92633" lon="0.84875">
        <ele>152.2</ele>
        <time>2022-05-15T10:03:27Z</time>
      </trkpt>
      <trkpt lat="44.92631" lon="0.84876">
        <ele>152.3</ele>
        <time>2022-05-15T10:03:28Z</time>
      </trkpt>
      <trkpt lat="44.92631" lon="0.84876">
        <ele>152.3</ele>
        <time>2022-05-15T10:03:29Z</time>
      </trkpt>
      <trkpt lat="44.92625" lon="0.84884">
        <ele>153</ele>
        <time>2022-05-15T10:03:31Z</time>
      </trkpt>
      <trkpt lat="44.92624" lon="0.8489">
        <ele>153.2</ele>
        <time>2022-05-15T10:03:33Z</time>
      </trkpt>
      <trkpt lat="44.92621" lon="0.84897">
        <ele>153.5</ele>
        <time>2022-05-15T10:03:35Z</time>
      </trkpt>
      <trkpt lat="44.92617" lon="0.84907">
        <ele>153.9</ele>
        <time>2022-05-15T10:03:37Z</time>
      </trkpt>
      <trkpt lat="44.92613" lon="0.84914">
        <ele>154.2</ele>
        <time>2022-05-15T10:03:39Z</time>
      </trkpt>
      <trkpt lat="44.92609" lon="0.84919">
        <ele>154.5</ele>
        <time>2022-05-15T10:03:41Z</time>
      </trkpt>
      <trkpt lat="44.92605" lon="0.84924">
        <ele>154.8</ele>
        <time>2022-05-15T10:03:43Z</time>
      </trkpt>
      <trkpt lat="44.92603" lon="0.84927">
        <ele>155</ele>
        <time>2022-05-15T10:03:45Z</time>
      </trkpt>
      <trkpt lat="44.92601" lon="0.8493">
        <ele>155.1</ele>
        <time>2022-05-15T10:03:46Z</time>
      </trkpt>
      <trkpt lat="44.92597" lon="0.8493">
        <ele>155.4</ele>
        <time>2022-05-15T10:03:47Z</time>
      </trkpt>
      <trkpt lat="44.92595" lon="0.8493">
        <ele>155.5</ele>
        <time>2022-05-15T10:03:48Z</time>
      </trkpt>
      <trkpt lat="44.92592" lon="0.8493">
        <ele>155.7</ele>
        <time>2022-05-15T10:03:49Z</time>
      </trkpt>
      <trkpt lat="44.92586" lon="0.8493">
        <ele>155.9</ele>
        <time>2022-05-15T10:03:51Z</time>
      </trkpt>
      <trkpt lat="44.92581" lon="0.8493">
        <ele>156.1</ele>
        <time>2022-05-15T10:03:53Z</time>
      </trkpt>
      <trkpt lat="44.92577" lon="0.8493">
        <ele>156.2</ele>
        <time>2022-05-15T10:03:55Z</time>
      </trkpt>
      <trkpt lat="44.92573" lon="0.8493">
        <ele>156.3</ele>
        <time>2022-05-15T10:03:57Z</time>
      </trkpt>
      <trkpt lat="44.9257" lon="0.8493">
        <ele>156.4</ele>
        <time>2022-05-15T10:03:59Z</time>
      </trkpt>
      <trkpt lat="44.92566" lon="0.84931">
        <ele>156.6</ele>
        <time>2022-05-15T10:04:01Z</time>
      </trkpt>
      <trkpt lat="44.92564" lon="0.84931">
        <ele>156.6</ele>
        <time>2022-05-15T10:04:02Z</time>
      </trkpt>
      <trkpt lat="44.92562" lon="0.84931">
        <ele>156.7</ele>
        <time>2022-05-15T10:04:03Z</time>
      </trkpt>
      <trkpt lat="44.92558" lon="0.84931">
        <ele>156.8</ele>
        <time>2022-05-15T10:04:05Z</time>
      </trkpt>
      <trkpt lat="44.92554" lon="0.84931">
        <ele>157</ele>
        <time>2022-05-15T10:04:07Z</time>
      </trkpt>
      <trkpt lat="44.9255" lon="0.84931">
        <ele>157.1</ele>
        <time>2022-05-15T10:04:09Z</time>
      </trkpt>
      <trkpt lat="44.92548" lon="0.84931">
        <ele>157.2</ele>
        <time>2022-05-15T10:04:10Z</time>
      </trkpt>
      <trkpt lat="44.92545" lon="0.84932">
        <ele>157.2</ele>
        <time>2022-05-15T10:04:11Z</time>
      </trkpt>
      <trkpt lat="44.92541" lon="0.84933">
        <ele>157.3</ele>
        <time>2022-05-15T10:04:13Z</time>
      </trkpt>
      <trkpt lat="44.92537" lon="0.84934">
        <ele>157.5</ele>
        <time>2022-05-15T10:04:15Z</time>
      </trkpt>
      <trkpt lat="44.92533" lon="0.84935">
        <ele>157.6</ele>
        <time>2022-05-15T10:04:17Z</time>
      </trkpt>
      <trkpt lat="44.92531" lon="0.84936">
        <ele>157.6</ele>
        <time>2022-05-15T10:04:18Z</time>
      </trkpt>
      <trkpt lat="44.92529" lon="0.84937">
        <ele>157.7</ele>
        <time>2022-05-15T10:04:19Z</time>
      </trkpt>
      <trkpt lat="44.92525" lon="0.84938">
        <ele>157.8</ele>
        <time>2022-05-15T10:04:21Z</time>
      </trkpt>
      <trkpt lat="44.92521" lon="0.84939">
        <ele>157.9</ele>
        <time>2022-05-15T10:04:23Z</time>
      </trkpt>
      <trkpt lat="44.92518" lon="0.84941">
        <ele>158.1</ele>
        <time>2022-05-15T10:04:25Z</time>
      </trkpt>
      <trkpt lat="44.92514" lon="0.84942">
        <ele>158.2</ele>
        <time>2022-05-15T10:04:27Z</time>
      </trkpt>
      <trkpt lat="44.9251" lon="0.84943">
        <ele>158.4</ele>
        <time>2022-05-15T10:04:29Z</time>
      </trkpt>
      <trkpt lat="44.92507" lon="0.84945">
        <ele>158.6</ele>
        <time>2022-05-15T10:04:31Z</time>
      </trkpt>
      <trkpt lat="44.92503" lon="0.84946">
        <ele>158.8</ele>
        <time>2022-05-15T10:04:33Z</time>
      </trkpt>
      <trkpt lat="44.92499" lon="0.84947">
        <ele>159.1</ele>
        <time>2022-05-15T10:04:35Z</time>
      </trkpt>
      <trkpt lat="44.92497" lon="0.84948">
        <ele>159.3</ele>
        <time>2022-05-15T10:04:36Z</time>
      </trkpt>
      <trkpt lat="44.92495" lon="0.84949">
        <ele>159.4</ele>
        <time>2022-05-15T10:04:37Z</time>
      </trkpt>
      <trkpt lat="44.92492" lon="0.8495">
        <ele>159.7</ele>
        <time>2022-05-15T10:04:39Z</time>
      </trkpt>
      <trkpt lat="44.92489" lon="0.84951">
        <ele>160</ele>
        <time>2022-05-15T10:04:41Z</time>
      </trkpt>
      <trkpt lat="44.92486" lon="0.84952">
        <ele>160.3</ele>
        <time>2022-05-15T10:04:43Z</time>
      </trkpt>
      <trkpt lat="44.92484" lon="0.84952">
        <ele>160.4</ele>
        <time>2022-05-15T10:04:44Z</time>
      </trkpt>
      <trkpt lat="44.92483" lon="0.84953">
        <ele>160.6</ele>
        <time>2022-05-15T10:04:45Z</time>
      </trkpt>
      <trkpt lat="44.9248" lon="0.84954">
        <ele>160.8</ele>
        <time>2022-05-15T10:04:47Z</time>
      </trkpt>
      <trkpt lat="44.92477" lon="0.84955">
        <ele>161.1</ele>
        <time>2022-05-15T10:04:49Z</time>
      </trkpt>
      <trkpt lat="44.92474" lon="0.84956">
        <ele>161.4</ele>
        <time>2022-05-15T10:04:51Z</time>
      </trkpt>
      <trkpt lat="44.92471" lon="0.84957">
        <ele>161.6</ele>
        <time>2022-05-15T10:04:53Z</time>
      </trkpt>
      <trkpt lat="44.92468" lon="0.84958">
        <ele>162</ele>
        <time>2022-05-15T10:04:55Z</time>
      </trkpt>
      <trkpt lat="44.92465" lon="0.84959">
        <ele>162.3</ele>
        <time>2022-05-15T10:04:57Z</time>
      </trkpt>
      <trkpt lat="44.92461" lon="0.8496">
        <ele>162.7</ele>
        <time>2022-05-15T10:04:59Z</time>
      </trkpt>
      <trkpt lat="44.92457" lon="0.84961">
        <ele>163.2</ele>
        <time>2022-05-15T10:05:01Z</time>
      </trkpt>
      <trkpt lat="44.92454" lon="0.84961">
        <ele>163.7</ele>
        <time>2022-05-15T10:05:03Z</time>
      </trkpt>
      <trkpt lat="44.92452" lon="0.84962">
        <ele>163.9</ele>
        <time>2022-05-15T10:05:04Z</time>
      </trkpt>
      <trkpt lat="44.9245" lon="0.84962">
        <ele>164.1</ele>
        <time>2022-05-15T10:05:05Z</time>
      </trkpt>
      <trkpt lat="44.92446" lon="0.84961">
        <ele>164.5</ele>
        <time>2022-05-15T10:05:07Z</time>
      </trkpt>
      <trkpt lat="44.92443" lon="0.84961">
        <ele>164.8</ele>
        <time>2022-05-15T10:05:09Z</time>
      </trkpt>
      <trkpt lat="44.92439" lon="0.8496">
        <ele>165.1</ele>
        <time>2022-05-15T10:05:11Z</time>
      </trkpt>
      <trkpt lat="44.92438" lon="0.8496">
        <ele>165.2</ele>
        <time>2022-05-15T10:05:12Z</time>
      </trkpt>
      <trkpt lat="44.92436" lon="0.8496">
        <ele>165.4</ele>
        <time>2022-05-15T10:05:13Z</time>
      </trkpt>
      <trkpt lat="44.92433" lon="0.84959">
        <ele>165.7</ele>
        <time>2022-05-15T10:05:15Z</time>
      </trkpt>
      <trkpt lat="44.9243" lon="0.84958">
        <ele>166</ele>
        <time>2022-05-15T10:05:17Z</time>
      </trkpt>
      <trkpt lat="44.92426" lon="0.84957">
        <ele>166.3</ele>
        <time>2022-05-15T10:05:19Z</time>
      </trkpt>
      <trkpt lat="44.92423" lon="0.84956">
        <ele>166.6</ele>
        <time>2022-05-15T10:05:21Z</time>
      </trkpt>
      <trkpt lat="44.92421" lon="0.84956">
        <ele>166.8</ele>
        <time>2022-05-15T10:05:22Z</time>
      </trkpt>
      <trkpt lat="44.92421" lon="0.84956">
        <ele>166.8</ele>
        <time>2022-05-15T10:05:23Z</time>
      </trkpt>
      <trkpt lat="44.92418" lon="0.84954">
        <ele>167.1</ele>
        <time>2022-05-15T10:05:25Z</time>
      </trkpt>
      <trkpt lat="44.92413" lon="0.84953">
        <ele>167.4</ele>
        <time>2022-05-15T10:05:27Z</time>
      </trkpt>
      <trkpt lat="44.92409" lon="0.84952">
        <ele>167.6</ele>
        <time>2022-05-15T10:05:29Z</time>
      </trkpt>
      <trkpt lat="44.92407" lon="0.84951">
        <ele>167.7</ele>
        <time>2022-05-15T10:05:30Z</time>
      </trkpt>
      <trkpt lat="44.92407" lon="0.84951">
        <ele>167.7</ele>
        <time>2022-05-15T10:05:31Z</time>
      </trkpt>
      <trkpt lat="44.92402" lon="0.84949">
        <ele>168.4</ele>
        <time>2022-05-15T10:05:33Z</time>
      </trkpt>
      <trkpt lat="44.92398" lon="0.84948">
        <ele>168.7</ele>
        <time>2022-05-15T10:05:35Z</time>
      </trkpt>
      <trkpt lat="44.92397" lon="0.84947">
        <ele>169</ele>
        <time>2022-05-15T10:05:36Z</time>
      </trkpt>
      <trkpt lat="44.92395" lon="0.84947">
        <ele>169.1</ele>
        <time>2022-05-15T10:05:37Z</time>
      </trkpt>
      <trkpt lat="44.92392" lon="0.84947">
        <ele>169.5</ele>
        <time>2022-05-15T10:05:39Z</time>
      </trkpt>
      <trkpt lat="44.92389" lon="0.84948">
        <ele>169.8</ele>
        <time>2022-05-15T10:05:41Z</time>
      </trkpt>
      <trkpt lat="44.92387" lon="0.84948">
        <ele>170</ele>
        <time>2022-05-15T10:05:42Z</time>
      </trkpt>
      <trkpt lat="44.92385" lon="0.84948">
        <ele>170.2</ele>
        <time>2022-05-15T10:05:43Z</time>
      </trkpt>
      <trkpt lat="44.92381" lon="0.84949">
        <ele>170.6</ele>
        <time>2022-05-15T10:05:45Z</time>
      </trkpt>
      <trkpt lat="44.92377" lon="0.84949">
        <ele>171</ele>
        <time>2022-05-15T10:05:47Z</time>
      </trkpt>
      <trkpt lat="44.92373" lon="0.84951">
        <ele>171.5</ele>
        <time>2022-05-15T10:05:49Z</time>
      </trkpt>
      <trkpt lat="44.92371" lon="0.84951">
        <ele>171.7</ele>
        <time>2022-05-15T10:05:50Z</time>
      </trkpt>
      <trkpt lat="44.92369" lon="0.84952">
        <ele>171.9</ele>
        <time>2022-05-15T10:05:51Z</time>
      </trkpt>
      <trkpt lat="44.92364" lon="0.84953">
        <ele>172.2</ele>
        <time>2022-05-15T10:05:53Z</time>
      </trkpt>
      <trkpt lat="44.9236" lon="0.84955">
        <ele>172.5</ele>
        <time>2022-05-15T10:05:55Z</time>
      </trkpt>
      <trkpt lat="44.92354" lon="0.84957">
        <ele>172.8</ele>
        <time>2022-05-15T10:05:57Z</time>
      </trkpt>
      <trkpt lat="44.92349" lon="0.8496">
        <ele>172.8</ele>
        <time>2022-05-15T10:05:59Z</time>
      </trkpt>
      <trkpt lat="44.92343" lon="0.84963">
        <ele>172.6</ele>
        <time>2022-05-15T10:06:01Z</time>
      </trkpt>
      <trkpt lat="44.92336" lon="0.84967">
        <ele>172.4</ele>
        <time>2022-05-15T10:06:03Z</time>
      </trkpt>
      <trkpt lat="44.92328" lon="0.84972">
        <ele>172.1</ele>
        <time>2022-05-15T10:06:05Z</time>
      </trkpt>
      <trkpt lat="44.92319" lon="0.84977">
        <ele>171.7</ele>
        <time>2022-05-15T10:06:07Z</time>
      </trkpt>
      <trkpt lat="44.9231" lon="0.84983">
        <ele>171.2</ele>
        <time>2022-05-15T10:06:09Z</time>
      </trkpt>
      <trkpt lat="44.92301" lon="0.8499">
        <ele>170.4</ele>
        <time>2022-05-15T10:06:11Z</time>
      </trkpt>
      <trkpt lat="44.92296" lon="0.84994">
        <ele>169.9</ele>
        <time>2022-05-15T10:06:12Z</time>
      </trkpt>
      <trkpt lat="44.9229" lon="0.84997">
        <ele>169.3</ele>
        <time>2022-05-15T10:06:13Z</time>
      </trkpt>
      <trkpt lat="44.92284" lon="0.85">
        <ele>168.7</ele>
        <time>2022-05-15T10:06:14Z</time>
      </trkpt>
      <trkpt lat="44.92276" lon="0.85004">
        <ele>168</ele>
        <time>2022-05-15T10:06:15Z</time>
      </trkpt>
      <trkpt lat="44.92261" lon="0.8501">
        <ele>166.7</ele>
        <time>2022-05-15T10:06:17Z</time>
      </trkpt>
      <trkpt lat="44.92253" lon="0.85013">
        <ele>166</ele>
        <time>2022-05-15T10:06:18Z</time>
      </trkpt>
      <trkpt lat="44.92244" lon="0.85014">
        <ele>165.3</ele>
        <time>2022-05-15T10:06:19Z</time>
      </trkpt>
      <trkpt lat="44.92226" lon="0.85015">
        <ele>163.7</ele>
        <time>2022-05-15T10:06:21Z</time>
      </trkpt>
      <trkpt lat="44.92216" lon="0.85015">
        <ele>163</ele>
        <time>2022-05-15T10:06:22Z</time>
      </trkpt>
      <trkpt lat="44.92207" lon="0.85015">
        <ele>162.4</ele>
        <time>2022-05-15T10:06:23Z</time>
      </trkpt>
      <trkpt lat="44.92188" lon="0.85018">
        <ele>161.6</ele>
        <time>2022-05-15T10:06:25Z</time>
      </trkpt>
      <trkpt lat="44.9217" lon="0.85021">
        <ele>161</ele>
        <time>2022-05-15T10:06:27Z</time>
      </trkpt>
      <trkpt lat="44.92153" lon="0.85024">
        <ele>160.3</ele>
        <time>2022-05-15T10:06:29Z</time>
      </trkpt>
      <trkpt lat="44.92136" lon="0.85025">
        <ele>159.3</ele>
        <time>2022-05-15T10:06:31Z</time>
      </trkpt>
      <trkpt lat="44.92119" lon="0.85026">
        <ele>158.6</ele>
        <time>2022-05-15T10:06:33Z</time>
      </trkpt>
      <trkpt lat="44.92104" lon="0.85024">
        <ele>158.3</ele>
        <time>2022-05-15T10:06:35Z</time>
      </trkpt>
      <trkpt lat="44.92089" lon="0.85022">
        <ele>158.2</ele>
        <time>2022-05-15T10:06:37Z</time>
      </trkpt>
      <trkpt lat="44.92075" lon="0.85019">
        <ele>158.1</ele>
        <time>2022-05-15T10:06:39Z</time>
      </trkpt>
      <trkpt lat="44.92061" lon="0.85017">
        <ele>157.9</ele>
        <time>2022-05-15T10:06:41Z</time>
      </trkpt>
      <trkpt lat="44.92048" lon="0.85012">
        <ele>157.8</ele>
        <time>2022-05-15T10:06:43Z</time>
      </trkpt>
      <trkpt lat="44.92036" lon="0.85008">
        <ele>157.7</ele>
        <time>2022-05-15T10:06:45Z</time>
      </trkpt>
      <trkpt lat="44.92029" lon="0.85006">
        <ele>157.7</ele>
        <time>2022-05-15T10:06:46Z</time>
      </trkpt>
      <trkpt lat="44.92023" lon="0.85004">
        <ele>157.7</ele>
        <time>2022-05-15T10:06:47Z</time>
      </trkpt>
      <trkpt lat="44.92011" lon="0.85001">
        <ele>157.7</ele>
        <time>2022-05-15T10:06:49Z</time>
      </trkpt>
      <trkpt lat="44.91999" lon="0.84997">
        <ele>157.7</ele>
        <time>2022-05-15T10:06:51Z</time>
      </trkpt>
      <trkpt lat="44.91987" lon="0.84994">
        <ele>157.9</ele>
        <time>2022-05-15T10:06:53Z</time>
      </trkpt>
      <trkpt lat="44.91976" lon="0.84991">
        <ele>158.1</ele>
        <time>2022-05-15T10:06:55Z</time>
      </trkpt>
      <trkpt lat="44.91965" lon="0.84988">
        <ele>158.5</ele>
        <time>2022-05-15T10:06:57Z</time>
      </trkpt>
      <trkpt lat="44.9196" lon="0.84987">
        <ele>158.8</ele>
        <time>2022-05-15T10:06:58Z</time>
      </trkpt>
      <trkpt lat="44.91955" lon="0.84986">
        <ele>159.1</ele>
        <time>2022-05-15T10:06:59Z</time>
      </trkpt>
      <trkpt lat="44.91946" lon="0.84982">
        <ele>159.8</ele>
        <time>2022-05-15T10:07:01Z</time>
      </trkpt>
      <trkpt lat="44.91937" lon="0.84979">
        <ele>160.4</ele>
        <time>2022-05-15T10:07:03Z</time>
      </trkpt>
      <trkpt lat="44.9193" lon="0.84972">
        <ele>160.9</ele>
        <time>2022-05-15T10:07:05Z</time>
      </trkpt>
      <trkpt lat="44.91925" lon="0.84961">
        <ele>161.2</ele>
        <time>2022-05-15T10:07:07Z</time>
      </trkpt>
      <trkpt lat="44.91922" lon="0.84955">
        <ele>161.3</ele>
        <time>2022-05-15T10:07:08Z</time>
      </trkpt>
      <trkpt lat="44.91918" lon="0.84952">
        <ele>161.4</ele>
        <time>2022-05-15T10:07:09Z</time>
      </trkpt>
      <trkpt lat="44.91909" lon="0.84951">
        <ele>161.4</ele>
        <time>2022-05-15T10:07:11Z</time>
      </trkpt>
      <trkpt lat="44.91905" lon="0.84952">
        <ele>161.4</ele>
        <time>2022-05-15T10:07:12Z</time>
      </trkpt>
      <trkpt lat="44.919" lon="0.84953">
        <ele>161.3</ele>
        <time>2022-05-15T10:07:13Z</time>
      </trkpt>
      <trkpt lat="44.91896" lon="0.84953">
        <ele>161.2</ele>
        <time>2022-05-15T10:07:14Z</time>
      </trkpt>
      <trkpt lat="44.91892" lon="0.84954">
        <ele>161.1</ele>
        <time>2022-05-15T10:07:15Z</time>
      </trkpt>
      <trkpt lat="44.91884" lon="0.84956">
        <ele>160.9</ele>
        <time>2022-05-15T10:07:17Z</time>
      </trkpt>
      <trkpt lat="44.9188" lon="0.84959">
        <ele>160.9</ele>
        <time>2022-05-15T10:07:18Z</time>
      </trkpt>
      <trkpt lat="44.91876" lon="0.84962">
        <ele>160.9</ele>
        <time>2022-05-15T10:07:19Z</time>
      </trkpt>
      <trkpt lat="44.91868" lon="0.84967">
        <ele>161.1</ele>
        <time>2022-05-15T10:07:21Z</time>
      </trkpt>
      <trkpt lat="44.91861" lon="0.84971">
        <ele>161.4</ele>
        <time>2022-05-15T10:07:23Z</time>
      </trkpt>
      <trkpt lat="44.91858" lon="0.84973">
        <ele>161.5</ele>
        <time>2022-05-15T10:07:24Z</time>
      </trkpt>
      <trkpt lat="44.91854" lon="0.84975">
        <ele>161.6</ele>
        <time>2022-05-15T10:07:25Z</time>
      </trkpt>
      <trkpt lat="44.91847" lon="0.84979">
        <ele>161.7</ele>
        <time>2022-05-15T10:07:27Z</time>
      </trkpt>
      <trkpt lat="44.91839" lon="0.84983">
        <ele>161.9</ele>
        <time>2022-05-15T10:07:29Z</time>
      </trkpt>
      <trkpt lat="44.91832" lon="0.84988">
        <ele>162.1</ele>
        <time>2022-05-15T10:07:31Z</time>
      </trkpt>
      <trkpt lat="44.91828" lon="0.8499">
        <ele>162.1</ele>
        <time>2022-05-15T10:07:32Z</time>
      </trkpt>
      <trkpt lat="44.91824" lon="0.84992">
        <ele>162.2</ele>
        <time>2022-05-15T10:07:33Z</time>
      </trkpt>
      <trkpt lat="44.91816" lon="0.84997">
        <ele>162.4</ele>
        <time>2022-05-15T10:07:35Z</time>
      </trkpt>
      <trkpt lat="44.91808" lon="0.85002">
        <ele>162.6</ele>
        <time>2022-05-15T10:07:37Z</time>
      </trkpt>
      <trkpt lat="44.91801" lon="0.85008">
        <ele>162.8</ele>
        <time>2022-05-15T10:07:39Z</time>
      </trkpt>
      <trkpt lat="44.91797" lon="0.85011">
        <ele>163</ele>
        <time>2022-05-15T10:07:40Z</time>
      </trkpt>
      <trkpt lat="44.91793" lon="0.85013">
        <ele>163.1</ele>
        <time>2022-05-15T10:07:41Z</time>
      </trkpt>
      <trkpt lat="44.91785" lon="0.85018">
        <ele>163.4</ele>
        <time>2022-05-15T10:07:43Z</time>
      </trkpt>
      <trkpt lat="44.91777" lon="0.85023">
        <ele>163.5</ele>
        <time>2022-05-15T10:07:45Z</time>
      </trkpt>
      <trkpt lat="44.91769" lon="0.85028">
        <ele>163.6</ele>
        <time>2022-05-15T10:07:47Z</time>
      </trkpt>
      <trkpt lat="44.91761" lon="0.85032">
        <ele>163.6</ele>
        <time>2022-05-15T10:07:49Z</time>
      </trkpt>
      <trkpt lat="44.91753" lon="0.85037">
        <ele>163.5</ele>
        <time>2022-05-15T10:07:51Z</time>
      </trkpt>
      <trkpt lat="44.91744" lon="0.85042">
        <ele>163.2</ele>
        <time>2022-05-15T10:07:53Z</time>
      </trkpt>
      <trkpt lat="44.91733" lon="0.85048">
        <ele>162.7</ele>
        <time>2022-05-15T10:07:55Z</time>
      </trkpt>
      <trkpt lat="44.91728" lon="0.8505">
        <ele>162.4</ele>
        <time>2022-05-15T10:07:56Z</time>
      </trkpt>
      <trkpt lat="44.91721" lon="0.85052">
        <ele>162.2</ele>
        <time>2022-05-15T10:07:57Z</time>
      </trkpt>
      <trkpt lat="44.9171" lon="0.85054">
        <ele>161.9</ele>
        <time>2022-05-15T10:07:59Z</time>
      </trkpt>
      <trkpt lat="44.91699" lon="0.85054">
        <ele>161.7</ele>
        <time>2022-05-15T10:08:01Z</time>
      </trkpt>
      <trkpt lat="44.91693" lon="0.85054">
        <ele>161.5</ele>
        <time>2022-05-15T10:08:02Z</time>
      </trkpt>
      <trkpt lat="44.91688" lon="0.85054">
        <ele>161.4</ele>
        <time>2022-05-15T10:08:03Z</time>
      </trkpt>
      <trkpt lat="44.9168" lon="0.85056">
        <ele>161.2</ele>
        <time>2022-05-15T10:08:05Z</time>
      </trkpt>
      <trkpt lat="44.9167" lon="0.85059">
        <ele>160.9</ele>
        <time>2022-05-15T10:08:07Z</time>
      </trkpt>
      <trkpt lat="44.91659" lon="0.85064">
        <ele>160.4</ele>
        <time>2022-05-15T10:08:09Z</time>
      </trkpt>
      <trkpt lat="44.91654" lon="0.85066">
        <ele>160.2</ele>
        <time>2022-05-15T10:08:10Z</time>
      </trkpt>
      <trkpt lat="44.91648" lon="0.85069">
        <ele>160</ele>
        <time>2022-05-15T10:08:11Z</time>
      </trkpt>
      <trkpt lat="44.91637" lon="0.85075">
        <ele>159.6</ele>
        <time>2022-05-15T10:08:13Z</time>
      </trkpt>
      <trkpt lat="44.91626" lon="0.8508">
        <ele>159.3</ele>
        <time>2022-05-15T10:08:15Z</time>
      </trkpt>
      <trkpt lat="44.91615" lon="0.85086">
        <ele>159.1</ele>
        <time>2022-05-15T10:08:17Z</time>
      </trkpt>
      <trkpt lat="44.9161" lon="0.85089">
        <ele>159</ele>
        <time>2022-05-15T10:08:18Z</time>
      </trkpt>
      <trkpt lat="44.91605" lon="0.85093">
        <ele>159</ele>
        <time>2022-05-15T10:08:19Z</time>
      </trkpt>
      <trkpt lat="44.91596" lon="0.85099">
        <ele>158.9</ele>
        <time>2022-05-15T10:08:21Z</time>
      </trkpt>
      <trkpt lat="44.91586" lon="0.85106">
        <ele>158.9</ele>
        <time>2022-05-15T10:08:23Z</time>
      </trkpt>
      <trkpt lat="44.91577" lon="0.85114">
        <ele>158.9</ele>
        <time>2022-05-15T10:08:25Z</time>
      </trkpt>
      <trkpt lat="44.91568" lon="0.85122">
        <ele>158.9</ele>
        <time>2022-05-15T10:08:27Z</time>
      </trkpt>
      <trkpt lat="44.91559" lon="0.85129">
        <ele>159</ele>
        <time>2022-05-15T10:08:29Z</time>
      </trkpt>
      <trkpt lat="44.9155" lon="0.85137">
        <ele>159.3</ele>
        <time>2022-05-15T10:08:31Z</time>
      </trkpt>
      <trkpt lat="44.91541" lon="0.85144">
        <ele>159.5</ele>
        <time>2022-05-15T10:08:33Z</time>
      </trkpt>
      <trkpt lat="44.91532" lon="0.85152">
        <ele>159.9</ele>
        <time>2022-05-15T10:08:35Z</time>
      </trkpt>
      <trkpt lat="44.91528" lon="0.85155">
        <ele>160.1</ele>
        <time>2022-05-15T10:08:36Z</time>
      </trkpt>
      <trkpt lat="44.91524" lon="0.85159">
        <ele>160.3</ele>
        <time>2022-05-15T10:08:37Z</time>
      </trkpt>
      <trkpt lat="44.91517" lon="0.85166">
        <ele>160.7</ele>
        <time>2022-05-15T10:08:39Z</time>
      </trkpt>
      <trkpt lat="44.9151" lon="0.8517">
        <ele>161.2</ele>
        <time>2022-05-15T10:08:41Z</time>
      </trkpt>
      <trkpt lat="44.91503" lon="0.85176">
        <ele>161.6</ele>
        <time>2022-05-15T10:08:43Z</time>
      </trkpt>
      <trkpt lat="44.91496" lon="0.85182">
        <ele>162</ele>
        <time>2022-05-15T10:08:45Z</time>
      </trkpt>
      <trkpt lat="44.91489" lon="0.85189">
        <ele>162.4</ele>
        <time>2022-05-15T10:08:47Z</time>
      </trkpt>
      <trkpt lat="44.91485" lon="0.85192">
        <ele>162.6</ele>
        <time>2022-05-15T10:08:48Z</time>
      </trkpt>
      <trkpt lat="44.91482" lon="0.85195">
        <ele>162.7</ele>
        <time>2022-05-15T10:08:49Z</time>
      </trkpt>
      <trkpt lat="44.91474" lon="0.85202">
        <ele>162.9</ele>
        <time>2022-05-15T10:08:51Z</time>
      </trkpt>
      <trkpt lat="44.91466" lon="0.8521">
        <ele>163.1</ele>
        <time>2022-05-15T10:08:53Z</time>
      </trkpt>
      <trkpt lat="44.91457" lon="0.85218">
        <ele>163.3</ele>
        <time>2022-05-15T10:08:55Z</time>
      </trkpt>
      <trkpt lat="44.91448" lon="0.85226">
        <ele>163.5</ele>
        <time>2022-05-15T10:08:57Z</time>
      </trkpt>
      <trkpt lat="44.91439" lon="0.85234">
        <ele>163.8</ele>
        <time>2022-05-15T10:08:59Z</time>
      </trkpt>
      <trkpt lat="44.91436" lon="0.85237">
        <ele>164</ele>
        <time>2022-05-15T10:09:00Z</time>
      </trkpt>
      <trkpt lat="44.91436" lon="0.85237">
        <ele>164</ele>
        <time>2022-05-15T10:09:01Z</time>
      </trkpt>
      <trkpt lat="44.91434" lon="0.85252">
        <ele>163.7</ele>
        <time>2022-05-15T10:09:03Z</time>
      </trkpt>
      <trkpt lat="44.91427" lon="0.85274">
        <ele>163.3</ele>
        <time>2022-05-15T10:09:05Z</time>
      </trkpt>
      <trkpt lat="44.91424" lon="0.85282">
        <ele>163.3</ele>
        <time>2022-05-15T10:09:07Z</time>
      </trkpt>
      <trkpt lat="44.91421" lon="0.8529">
        <ele>163.4</ele>
        <time>2022-05-15T10:09:09Z</time>
      </trkpt>
      <trkpt lat="44.91418" lon="0.85297">
        <ele>163.5</ele>
        <time>2022-05-15T10:09:11Z</time>
      </trkpt>
      <trkpt lat="44.91413" lon="0.85305">
        <ele>163.6</ele>
        <time>2022-05-15T10:09:13Z</time>
      </trkpt>
      <trkpt lat="44.91408" lon="0.85314">
        <ele>163.8</ele>
        <time>2022-05-15T10:09:15Z</time>
      </trkpt>
      <trkpt lat="44.91406" lon="0.85318">
        <ele>163.9</ele>
        <time>2022-05-15T10:09:16Z</time>
      </trkpt>
      <trkpt lat="44.91404" lon="0.85322">
        <ele>164</ele>
        <time>2022-05-15T10:09:17Z</time>
      </trkpt>
      <trkpt lat="44.91399" lon="0.8533">
        <ele>164.2</ele>
        <time>2022-05-15T10:09:19Z</time>
      </trkpt>
      <trkpt lat="44.91397" lon="0.85334">
        <ele>164.3</ele>
        <time>2022-05-15T10:09:20Z</time>
      </trkpt>
      <trkpt lat="44.91395" lon="0.85338">
        <ele>164.4</ele>
        <time>2022-05-15T10:09:21Z</time>
      </trkpt>
      <trkpt lat="44.91393" lon="0.85341">
        <ele>164.4</ele>
        <time>2022-05-15T10:09:22Z</time>
      </trkpt>
      <trkpt lat="44.91391" lon="0.85344">
        <ele>164.4</ele>
        <time>2022-05-15T10:09:23Z</time>
      </trkpt>
      <trkpt lat="44.9138" lon="0.8535">
        <ele>164.2</ele>
        <time>2022-05-15T10:09:24Z</time>
      </trkpt>
      <trkpt lat="44.91376" lon="0.8535">
        <ele>164</ele>
        <time>2022-05-15T10:09:25Z</time>
      </trkpt>
      <trkpt lat="44.91372" lon="0.8535">
        <ele>163.8</ele>
        <time>2022-05-15T10:09:26Z</time>
      </trkpt>
      <trkpt lat="44.91366" lon="0.8535">
        <ele>163.5</ele>
        <time>2022-05-15T10:09:27Z</time>
      </trkpt>
      <trkpt lat="44.91361" lon="0.85349">
        <ele>163</ele>
        <time>2022-05-15T10:09:28Z</time>
      </trkpt>
      <trkpt lat="44.91354" lon="0.85348">
        <ele>162.5</ele>
        <time>2022-05-15T10:09:29Z</time>
      </trkpt>
      <trkpt lat="44.91348" lon="0.85348">
        <ele>162.1</ele>
        <time>2022-05-15T10:09:30Z</time>
      </trkpt>
      <trkpt lat="44.91341" lon="0.85348">
        <ele>161.5</ele>
        <time>2022-05-15T10:09:31Z</time>
      </trkpt>
      <trkpt lat="44.91334" lon="0.85352">
        <ele>161</ele>
        <time>2022-05-15T10:09:32Z</time>
      </trkpt>
      <trkpt lat="44.91327" lon="0.85357">
        <ele>160.3</ele>
        <time>2022-05-15T10:09:33Z</time>
      </trkpt>
      <trkpt lat="44.91311" lon="0.85367">
        <ele>158.8</ele>
        <time>2022-05-15T10:09:35Z</time>
      </trkpt>
      <trkpt lat="44.91303" lon="0.85372">
        <ele>157.9</ele>
        <time>2022-05-15T10:09:36Z</time>
      </trkpt>
      <trkpt lat="44.91295" lon="0.85376">
        <ele>157.2</ele>
        <time>2022-05-15T10:09:37Z</time>
      </trkpt>
      <trkpt lat="44.91283" lon="0.85384">
        <ele>156</ele>
        <time>2022-05-15T10:09:39Z</time>
      </trkpt>
      <trkpt lat="44.91274" lon="0.8539">
        <ele>155.1</ele>
        <time>2022-05-15T10:09:41Z</time>
      </trkpt>
      <trkpt lat="44.91265" lon="0.85395">
        <ele>154.2</ele>
        <time>2022-05-15T10:09:43Z</time>
      </trkpt>
      <trkpt lat="44.91255" lon="0.85403">
        <ele>153.4</ele>
        <time>2022-05-15T10:09:45Z</time>
      </trkpt>
      <trkpt lat="44.91246" lon="0.85413">
        <ele>152.7</ele>
        <time>2022-05-15T10:09:47Z</time>
      </trkpt>
      <trkpt lat="44.91241" lon="0.85419">
        <ele>152.5</ele>
        <time>2022-05-15T10:09:48Z</time>
      </trkpt>
      <trkpt lat="44.91237" lon="0.85425">
        <ele>152.2</ele>
        <time>2022-05-15T10:09:49Z</time>
      </trkpt>
      <trkpt lat="44.91229" lon="0.85438">
        <ele>151.7</ele>
        <time>2022-05-15T10:09:51Z</time>
      </trkpt>
      <trkpt lat="44.91221" lon="0.85451">
        <ele>151.1</ele>
        <time>2022-05-15T10:09:53Z</time>
      </trkpt>
      <trkpt lat="44.91212" lon="0.85465">
        <ele>150.4</ele>
        <time>2022-05-15T10:09:55Z</time>
      </trkpt>
      <trkpt lat="44.91208" lon="0.8547">
        <ele>150.1</ele>
        <time>2022-05-15T10:09:56Z</time>
      </trkpt>
      <trkpt lat="44.91205" lon="0.85476">
        <ele>149.7</ele>
        <time>2022-05-15T10:09:57Z</time>
      </trkpt>
      <trkpt lat="44.91201" lon="0.85481">
        <ele>149.2</ele>
        <time>2022-05-15T10:09:58Z</time>
      </trkpt>
      <trkpt lat="44.91198" lon="0.85485">
        <ele>148.8</ele>
        <time>2022-05-15T10:09:59Z</time>
      </trkpt>
      <trkpt lat="44.91196" lon="0.85489">
        <ele>148.5</ele>
        <time>2022-05-15T10:10:00Z</time>
      </trkpt>
      <trkpt lat="44.91194" lon="0.85493">
        <ele>148.1</ele>
        <time>2022-05-15T10:10:01Z</time>
      </trkpt>
      <trkpt lat="44.91189" lon="0.85499">
        <ele>147.3</ele>
        <time>2022-05-15T10:10:02Z</time>
      </trkpt>
      <trkpt lat="44.91173" lon="0.85504">
        <ele>145</ele>
        <time>2022-05-15T10:10:03Z</time>
      </trkpt>
      <trkpt lat="44.91157" lon="0.85491">
        <ele>142.4</ele>
        <time>2022-05-15T10:10:05Z</time>
      </trkpt>
      <trkpt lat="44.91151" lon="0.85485">
        <ele>141.7</ele>
        <time>2022-05-15T10:10:06Z</time>
      </trkpt>
      <trkpt lat="44.91143" lon="0.85482">
        <ele>141.1</ele>
        <time>2022-05-15T10:10:07Z</time>
      </trkpt>
      <trkpt lat="44.91132" lon="0.85477">
        <ele>140.9</ele>
        <time>2022-05-15T10:10:09Z</time>
      </trkpt>
      <trkpt lat="44.91125" lon="0.85477">
        <ele>140.8</ele>
        <time>2022-05-15T10:10:11Z</time>
      </trkpt>
      <trkpt lat="44.91124" lon="0.85481">
        <ele>140.7</ele>
        <time>2022-05-15T10:10:12Z</time>
      </trkpt>
      <trkpt lat="44.91123" lon="0.85485">
        <ele>140.6</ele>
        <time>2022-05-15T10:10:13Z</time>
      </trkpt>
      <trkpt lat="44.91121" lon="0.85495">
        <ele>140.4</ele>
        <time>2022-05-15T10:10:15Z</time>
      </trkpt>
      <trkpt lat="44.91119" lon="0.85508">
        <ele>140.2</ele>
        <time>2022-05-15T10:10:17Z</time>
      </trkpt>
      <trkpt lat="44.91118" lon="0.85515">
        <ele>140.1</ele>
        <time>2022-05-15T10:10:18Z</time>
      </trkpt>
      <trkpt lat="44.91116" lon="0.85524">
        <ele>140</ele>
        <time>2022-05-15T10:10:19Z</time>
      </trkpt>
      <trkpt lat="44.91113" lon="0.85542">
        <ele>139.8</ele>
        <time>2022-05-15T10:10:21Z</time>
      </trkpt>
      <trkpt lat="44.91112" lon="0.8555">
        <ele>139.7</ele>
        <time>2022-05-15T10:10:22Z</time>
      </trkpt>
      <trkpt lat="44.9111" lon="0.85557">
        <ele>139.6</ele>
        <time>2022-05-15T10:10:23Z</time>
      </trkpt>
      <trkpt lat="44.91109" lon="0.85565">
        <ele>139.6</ele>
        <time>2022-05-15T10:10:24Z</time>
      </trkpt>
      <trkpt lat="44.91108" lon="0.85572">
        <ele>139.5</ele>
        <time>2022-05-15T10:10:25Z</time>
      </trkpt>
      <trkpt lat="44.91107" lon="0.85585">
        <ele>139.5</ele>
        <time>2022-05-15T10:10:27Z</time>
      </trkpt>
      <trkpt lat="44.91106" lon="0.85592">
        <ele>139.6</ele>
        <time>2022-05-15T10:10:28Z</time>
      </trkpt>
      <trkpt lat="44.91106" lon="0.85599">
        <ele>139.6</ele>
        <time>2022-05-15T10:10:29Z</time>
      </trkpt>
      <trkpt lat="44.91104" lon="0.85616">
        <ele>139.4</ele>
        <time>2022-05-15T10:10:31Z</time>
      </trkpt>
      <trkpt lat="44.91103" lon="0.85626">
        <ele>139</ele>
        <time>2022-05-15T10:10:32Z</time>
      </trkpt>
      <trkpt lat="44.911" lon="0.85634">
        <ele>138.7</ele>
        <time>2022-05-15T10:10:33Z</time>
      </trkpt>
      <trkpt lat="44.91094" lon="0.85651">
        <ele>137.5</ele>
        <time>2022-05-15T10:10:35Z</time>
      </trkpt>
      <trkpt lat="44.91089" lon="0.85663">
        <ele>136.7</ele>
        <time>2022-05-15T10:10:36Z</time>
      </trkpt>
      <trkpt lat="44.91084" lon="0.85672">
        <ele>135.9</ele>
        <time>2022-05-15T10:10:37Z</time>
      </trkpt>
      <trkpt lat="44.91071" lon="0.85693">
        <ele>133.9</ele>
        <time>2022-05-15T10:10:39Z</time>
      </trkpt>
      <trkpt lat="44.91053" lon="0.85709">
        <ele>131.5</ele>
        <time>2022-05-15T10:10:41Z</time>
      </trkpt>
      <trkpt lat="44.91035" lon="0.85723">
        <ele>129.8</ele>
        <time>2022-05-15T10:10:43Z</time>
      </trkpt>
      <trkpt lat="44.91018" lon="0.85736">
        <ele>127.9</ele>
        <time>2022-05-15T10:10:45Z</time>
      </trkpt>
      <trkpt lat="44.91009" lon="0.85743">
        <ele>126.9</ele>
        <time>2022-05-15T10:10:46Z</time>
      </trkpt>
      <trkpt lat="44.91" lon="0.85752">
        <ele>126</ele>
        <time>2022-05-15T10:10:47Z</time>
      </trkpt>
      <trkpt lat="44.90986" lon="0.8577">
        <ele>124.2</ele>
        <time>2022-05-15T10:10:49Z</time>
      </trkpt>
      <trkpt lat="44.90973" lon="0.85789">
        <ele>122.8</ele>
        <time>2022-05-15T10:10:51Z</time>
      </trkpt>
      <trkpt lat="44.90962" lon="0.85813">
        <ele>121.3</ele>
        <time>2022-05-15T10:10:53Z</time>
      </trkpt>
      <trkpt lat="44.90959" lon="0.85824">
        <ele>120.7</ele>
        <time>2022-05-15T10:10:54Z</time>
      </trkpt>
      <trkpt lat="44.90955" lon="0.85837">
        <ele>120.2</ele>
        <time>2022-05-15T10:10:55Z</time>
      </trkpt>
      <trkpt lat="44.90952" lon="0.85855">
        <ele>119.4</ele>
        <time>2022-05-15T10:10:57Z</time>
      </trkpt>
      <trkpt lat="44.90951" lon="0.85861">
        <ele>119.1</ele>
        <time>2022-05-15T10:10:59Z</time>
      </trkpt>
      <trkpt lat="44.90948" lon="0.85874">
        <ele>118.5</ele>
        <time>2022-05-15T10:11:00Z</time>
      </trkpt>
      <trkpt lat="44.90937" lon="0.85874">
        <ele>118</ele>
        <time>2022-05-15T10:11:01Z</time>
      </trkpt>
      <trkpt lat="44.90931" lon="0.85876">
        <ele>117.8</ele>
        <time>2022-05-15T10:11:02Z</time>
      </trkpt>
      <trkpt lat="44.90926" lon="0.85878">
        <ele>117.5</ele>
        <time>2022-05-15T10:11:03Z</time>
      </trkpt>
      <trkpt lat="44.9092" lon="0.85883">
        <ele>117.2</ele>
        <time>2022-05-15T10:11:04Z</time>
      </trkpt>
      <trkpt lat="44.90916" lon="0.8589">
        <ele>117</ele>
        <time>2022-05-15T10:11:05Z</time>
      </trkpt>
      <trkpt lat="44.90913" lon="0.85898">
        <ele>116.7</ele>
        <time>2022-05-15T10:11:06Z</time>
      </trkpt>
      <trkpt lat="44.90911" lon="0.85908">
        <ele>116.3</ele>
        <time>2022-05-15T10:11:07Z</time>
      </trkpt>
      <trkpt lat="44.90911" lon="0.85917">
        <ele>116</ele>
        <time>2022-05-15T10:11:08Z</time>
      </trkpt>
      <trkpt lat="44.90911" lon="0.85925">
        <ele>115.7</ele>
        <time>2022-05-15T10:11:09Z</time>
      </trkpt>
      <trkpt lat="44.90911" lon="0.85932">
        <ele>115.4</ele>
        <time>2022-05-15T10:11:10Z</time>
      </trkpt>
      <trkpt lat="44.90912" lon="0.85937">
        <ele>115.2</ele>
        <time>2022-05-15T10:11:11Z</time>
      </trkpt>
      <trkpt lat="44.90908" lon="0.85942">
        <ele>115</ele>
        <time>2022-05-15T10:11:12Z</time>
      </trkpt>
      <trkpt lat="44.90905" lon="0.85947">
        <ele>114.9</ele>
        <time>2022-05-15T10:11:13Z</time>
      </trkpt>
      <trkpt lat="44.90897" lon="0.85947">
        <ele>115</ele>
        <time>2022-05-15T10:11:14Z</time>
      </trkpt>
      <trkpt lat="44.90892" lon="0.85947">
        <ele>114.9</ele>
        <time>2022-05-15T10:11:15Z</time>
      </trkpt>
      <trkpt lat="44.90888" lon="0.85947">
        <ele>114.9</ele>
        <time>2022-05-15T10:11:16Z</time>
      </trkpt>
      <trkpt lat="44.90883" lon="0.85947">
        <ele>114.8</ele>
        <time>2022-05-15T10:11:17Z</time>
      </trkpt>
      <trkpt lat="44.90878" lon="0.85947">
        <ele>114.8</ele>
        <time>2022-05-15T10:11:18Z</time>
      </trkpt>
      <trkpt lat="44.90872" lon="0.85947">
        <ele>114.8</ele>
        <time>2022-05-15T10:11:19Z</time>
      </trkpt>
      <trkpt lat="44.90862" lon="0.85948">
        <ele>114.9</ele>
        <time>2022-05-15T10:11:21Z</time>
      </trkpt>
      <trkpt lat="44.90852" lon="0.85948">
        <ele>115</ele>
        <time>2022-05-15T10:11:23Z</time>
      </trkpt>
      <trkpt lat="44.90842" lon="0.85948">
        <ele>115.2</ele>
        <time>2022-05-15T10:11:25Z</time>
      </trkpt>
      <trkpt lat="44.90832" lon="0.85948">
        <ele>115.4</ele>
        <time>2022-05-15T10:11:27Z</time>
      </trkpt>
      <trkpt lat="44.90823" lon="0.85948">
        <ele>115.5</ele>
        <time>2022-05-15T10:11:29Z</time>
      </trkpt>
      <trkpt lat="44.90818" lon="0.85948">
        <ele>115.5</ele>
        <time>2022-05-15T10:11:30Z</time>
      </trkpt>
      <trkpt lat="44.90813" lon="0.85949">
        <ele>115.6</ele>
        <time>2022-05-15T10:11:31Z</time>
      </trkpt>
      <trkpt lat="44.90802" lon="0.85949">
        <ele>115.6</ele>
        <time>2022-05-15T10:11:33Z</time>
      </trkpt>
      <trkpt lat="44.90792" lon="0.85947">
        <ele>115.7</ele>
        <time>2022-05-15T10:11:35Z</time>
      </trkpt>
      <trkpt lat="44.90786" lon="0.85946">
        <ele>115.7</ele>
        <time>2022-05-15T10:11:36Z</time>
      </trkpt>
      <trkpt lat="44.90781" lon="0.85945">
        <ele>115.7</ele>
        <time>2022-05-15T10:11:37Z</time>
      </trkpt>
      <trkpt lat="44.90771" lon="0.85943">
        <ele>115.9</ele>
        <time>2022-05-15T10:11:39Z</time>
      </trkpt>
      <trkpt lat="44.90765" lon="0.8594">
        <ele>116</ele>
        <time>2022-05-15T10:11:40Z</time>
      </trkpt>
      <trkpt lat="44.9076" lon="0.85937">
        <ele>116</ele>
        <time>2022-05-15T10:11:41Z</time>
      </trkpt>
      <trkpt lat="44.90751" lon="0.85931">
        <ele>116.1</ele>
        <time>2022-05-15T10:11:43Z</time>
      </trkpt>
      <trkpt lat="44.90746" lon="0.85927">
        <ele>116.2</ele>
        <time>2022-05-15T10:11:44Z</time>
      </trkpt>
      <trkpt lat="44.90742" lon="0.85922">
        <ele>116.2</ele>
        <time>2022-05-15T10:11:45Z</time>
      </trkpt>
      <trkpt lat="44.90733" lon="0.85914">
        <ele>116.4</ele>
        <time>2022-05-15T10:11:47Z</time>
      </trkpt>
      <trkpt lat="44.90724" lon="0.85906">
        <ele>116.6</ele>
        <time>2022-05-15T10:11:49Z</time>
      </trkpt>
      <trkpt lat="44.90715" lon="0.85898">
        <ele>116.8</ele>
        <time>2022-05-15T10:11:51Z</time>
      </trkpt>
      <trkpt lat="44.9071" lon="0.85894">
        <ele>116.9</ele>
        <time>2022-05-15T10:11:52Z</time>
      </trkpt>
      <trkpt lat="44.90706" lon="0.8589">
        <ele>117</ele>
        <time>2022-05-15T10:11:53Z</time>
      </trkpt>
      <trkpt lat="44.90698" lon="0.85882">
        <ele>117.2</ele>
        <time>2022-05-15T10:11:55Z</time>
      </trkpt>
      <trkpt lat="44.90689" lon="0.85874">
        <ele>117.4</ele>
        <time>2022-05-15T10:11:57Z</time>
      </trkpt>
      <trkpt lat="44.9068" lon="0.85866">
        <ele>117.6</ele>
        <time>2022-05-15T10:11:59Z</time>
      </trkpt>
      <trkpt lat="44.90676" lon="0.85862">
        <ele>117.6</ele>
        <time>2022-05-15T10:12:00Z</time>
      </trkpt>
      <trkpt lat="44.90671" lon="0.8586">
        <ele>117.7</ele>
        <time>2022-05-15T10:12:01Z</time>
      </trkpt>
      <trkpt lat="44.90666" lon="0.85857">
        <ele>117.7</ele>
        <time>2022-05-15T10:12:02Z</time>
      </trkpt>
      <trkpt lat="44.90661" lon="0.85854">
        <ele>117.8</ele>
        <time>2022-05-15T10:12:03Z</time>
      </trkpt>
      <trkpt lat="44.90656" lon="0.85852">
        <ele>117.8</ele>
        <time>2022-05-15T10:12:04Z</time>
      </trkpt>
      <trkpt lat="44.90651" lon="0.85852">
        <ele>117.5</ele>
        <time>2022-05-15T10:12:05Z</time>
      </trkpt>
      <trkpt lat="44.90639" lon="0.8585">
        <ele>116.9</ele>
        <time>2022-05-15T10:12:07Z</time>
      </trkpt>
      <trkpt lat="44.90626" lon="0.85851">
        <ele>116.4</ele>
        <time>2022-05-15T10:12:09Z</time>
      </trkpt>
      <trkpt lat="44.90615" lon="0.85852">
        <ele>116</ele>
        <time>2022-05-15T10:12:11Z</time>
      </trkpt>
      <trkpt lat="44.90603" lon="0.85855">
        <ele>115.8</ele>
        <time>2022-05-15T10:12:13Z</time>
      </trkpt>
      <trkpt lat="44.90593" lon="0.85857">
        <ele>115.6</ele>
        <time>2022-05-15T10:12:15Z</time>
      </trkpt>
      <trkpt lat="44.90588" lon="0.85858">
        <ele>115.4</ele>
        <time>2022-05-15T10:12:16Z</time>
      </trkpt>
      <trkpt lat="44.90582" lon="0.85859">
        <ele>115.2</ele>
        <time>2022-05-15T10:12:17Z</time>
      </trkpt>
      <trkpt lat="44.90571" lon="0.85861">
        <ele>114.6</ele>
        <time>2022-05-15T10:12:19Z</time>
      </trkpt>
      <trkpt lat="44.90559" lon="0.85864">
        <ele>113.5</ele>
        <time>2022-05-15T10:12:21Z</time>
      </trkpt>
      <trkpt lat="44.90553" lon="0.85866">
        <ele>112.9</ele>
        <time>2022-05-15T10:12:22Z</time>
      </trkpt>
      <trkpt lat="44.90544" lon="0.85862">
        <ele>112.4</ele>
        <time>2022-05-15T10:12:23Z</time>
      </trkpt>
      <trkpt lat="44.90535" lon="0.85858">
        <ele>113.4</ele>
        <time>2022-05-15T10:12:25Z</time>
      </trkpt>
      <trkpt lat="44.90535" lon="0.85851">
        <ele>113.9</ele>
        <time>2022-05-15T10:12:27Z</time>
      </trkpt>
      <trkpt lat="44.90534" lon="0.85847">
        <ele>114.2</ele>
        <time>2022-05-15T10:12:28Z</time>
      </trkpt>
      <trkpt lat="44.90532" lon="0.85846">
        <ele>114.4</ele>
        <time>2022-05-15T10:12:29Z</time>
      </trkpt>
      <trkpt lat="44.90529" lon="0.85844">
        <ele>114.8</ele>
        <time>2022-05-15T10:12:31Z</time>
      </trkpt>
      <trkpt lat="44.90526" lon="0.85842">
        <ele>115.1</ele>
        <time>2022-05-15T10:12:33Z</time>
      </trkpt>
      <trkpt lat="44.90523" lon="0.8584">
        <ele>115.4</ele>
        <time>2022-05-15T10:12:35Z</time>
      </trkpt>
      <trkpt lat="44.9052" lon="0.85838">
        <ele>115.7</ele>
        <time>2022-05-15T10:12:37Z</time>
      </trkpt>
      <trkpt lat="44.90518" lon="0.85836">
        <ele>116</ele>
        <time>2022-05-15T10:12:39Z</time>
      </trkpt>
      <trkpt lat="44.90516" lon="0.85835">
        <ele>116.3</ele>
        <time>2022-05-15T10:12:40Z</time>
      </trkpt>
      <trkpt lat="44.90515" lon="0.85833">
        <ele>116.5</ele>
        <time>2022-05-15T10:12:41Z</time>
      </trkpt>
      <trkpt lat="44.90514" lon="0.85827">
        <ele>117</ele>
        <time>2022-05-15T10:12:43Z</time>
      </trkpt>
      <trkpt lat="44.90514" lon="0.85822">
        <ele>117.4</ele>
        <time>2022-05-15T10:12:45Z</time>
      </trkpt>
      <trkpt lat="44.90514" lon="0.85817">
        <ele>117.8</ele>
        <time>2022-05-15T10:12:47Z</time>
      </trkpt>
      <trkpt lat="44.90514" lon="0.85813">
        <ele>118.1</ele>
        <time>2022-05-15T10:12:49Z</time>
      </trkpt>
      <trkpt lat="44.90512" lon="0.8581">
        <ele>118.4</ele>
        <time>2022-05-15T10:12:51Z</time>
      </trkpt>
      <trkpt lat="44.9051" lon="0.85807">
        <ele>118.8</ele>
        <time>2022-05-15T10:12:53Z</time>
      </trkpt>
      <trkpt lat="44.90506" lon="0.85805">
        <ele>119.2</ele>
        <time>2022-05-15T10:12:55Z</time>
      </trkpt>
      <trkpt lat="44.90503" lon="0.85803">
        <ele>119.6</ele>
        <time>2022-05-15T10:12:57Z</time>
      </trkpt>
      <trkpt lat="44.905" lon="0.858">
        <ele>120</ele>
        <time>2022-05-15T10:12:59Z</time>
      </trkpt>
      <trkpt lat="44.90498" lon="0.85796">
        <ele>120.4</ele>
        <time>2022-05-15T10:13:01Z</time>
      </trkpt>
      <trkpt lat="44.90496" lon="0.85792">
        <ele>120.8</ele>
        <time>2022-05-15T10:13:03Z</time>
      </trkpt>
      <trkpt lat="44.90496" lon="0.85791">
        <ele>120.9</ele>
        <time>2022-05-15T10:13:04Z</time>
      </trkpt>
      <trkpt lat="44.90496" lon="0.85788">
        <ele>121.2</ele>
        <time>2022-05-15T10:13:05Z</time>
      </trkpt>
      <trkpt lat="44.90495" lon="0.85784">
        <ele>121.6</ele>
        <time>2022-05-15T10:13:07Z</time>
      </trkpt>
      <trkpt lat="44.90494" lon="0.8578">
        <ele>122</ele>
        <time>2022-05-15T10:13:09Z</time>
      </trkpt>
      <trkpt lat="44.90495" lon="0.85776">
        <ele>122.4</ele>
        <time>2022-05-15T10:13:11Z</time>
      </trkpt>
      <trkpt lat="44.90494" lon="0.85779">
        <ele>122.8</ele>
        <time>2022-05-15T10:13:13Z</time>
      </trkpt>
      <trkpt lat="44.90491" lon="0.85768">
        <ele>124.5</ele>
        <time>2022-05-15T10:13:15Z</time>
      </trkpt>
      <trkpt lat="44.90488" lon="0.85768">
        <ele>124.8</ele>
        <time>2022-05-15T10:13:17Z</time>
      </trkpt>
      <trkpt lat="44.90484" lon="0.85767">
        <ele>125.1</ele>
        <time>2022-05-15T10:13:19Z</time>
      </trkpt>
      <trkpt lat="44.90481" lon="0.85767">
        <ele>125.4</ele>
        <time>2022-05-15T10:13:21Z</time>
      </trkpt>
      <trkpt lat="44.90478" lon="0.85766">
        <ele>125.7</ele>
        <time>2022-05-15T10:13:23Z</time>
      </trkpt>
      <trkpt lat="44.90475" lon="0.85764">
        <ele>125.9</ele>
        <time>2022-05-15T10:13:25Z</time>
      </trkpt>
      <trkpt lat="44.90472" lon="0.85761">
        <ele>126.2</ele>
        <time>2022-05-15T10:13:27Z</time>
      </trkpt>
      <trkpt lat="44.90469" lon="0.85759">
        <ele>126.5</ele>
        <time>2022-05-15T10:13:29Z</time>
      </trkpt>
      <trkpt lat="44.90467" lon="0.85756">
        <ele>126.7</ele>
        <time>2022-05-15T10:13:31Z</time>
      </trkpt>
      <trkpt lat="44.90464" lon="0.85753">
        <ele>127</ele>
        <time>2022-05-15T10:13:33Z</time>
      </trkpt>
      <trkpt lat="44.90461" lon="0.8575">
        <ele>127.3</ele>
        <time>2022-05-15T10:13:35Z</time>
      </trkpt>
      <trkpt lat="44.90458" lon="0.85748">
        <ele>127.5</ele>
        <time>2022-05-15T10:13:37Z</time>
      </trkpt>
      <trkpt lat="44.90457" lon="0.85746">
        <ele>127.7</ele>
        <time>2022-05-15T10:13:38Z</time>
      </trkpt>
      <trkpt lat="44.90456" lon="0.85745">
        <ele>127.8</ele>
        <time>2022-05-15T10:13:39Z</time>
      </trkpt>
      <trkpt lat="44.90453" lon="0.85742">
        <ele>128.1</ele>
        <time>2022-05-15T10:13:41Z</time>
      </trkpt>
      <trkpt lat="44.9045" lon="0.85739">
        <ele>128.3</ele>
        <time>2022-05-15T10:13:43Z</time>
      </trkpt>
      <trkpt lat="44.90447" lon="0.85736">
        <ele>128.6</ele>
        <time>2022-05-15T10:13:45Z</time>
      </trkpt>
      <trkpt lat="44.90444" lon="0.85733">
        <ele>128.9</ele>
        <time>2022-05-15T10:13:47Z</time>
      </trkpt>
      <trkpt lat="44.90441" lon="0.85729">
        <ele>129.1</ele>
        <time>2022-05-15T10:13:49Z</time>
      </trkpt>
      <trkpt lat="44.90438" lon="0.85726">
        <ele>129.4</ele>
        <time>2022-05-15T10:13:51Z</time>
      </trkpt>
      <trkpt lat="44.90435" lon="0.85722">
        <ele>129.6</ele>
        <time>2022-05-15T10:13:53Z</time>
      </trkpt>
      <trkpt lat="44.90432" lon="0.85719">
        <ele>129.9</ele>
        <time>2022-05-15T10:13:55Z</time>
      </trkpt>
      <trkpt lat="44.90429" lon="0.85716">
        <ele>130.2</ele>
        <time>2022-05-15T10:13:57Z</time>
      </trkpt>
      <trkpt lat="44.90426" lon="0.85713">
        <ele>130.4</ele>
        <time>2022-05-15T10:13:59Z</time>
      </trkpt>
      <trkpt lat="44.90423" lon="0.8571">
        <ele>130.7</ele>
        <time>2022-05-15T10:14:01Z</time>
      </trkpt>
      <trkpt lat="44.90419" lon="0.85707">
        <ele>131.1</ele>
        <time>2022-05-15T10:14:03Z</time>
      </trkpt>
      <trkpt lat="44.90416" lon="0.85705">
        <ele>131.4</ele>
        <time>2022-05-15T10:14:05Z</time>
      </trkpt>
      <trkpt lat="44.90412" lon="0.85703">
        <ele>131.7</ele>
        <time>2022-05-15T10:14:07Z</time>
      </trkpt>
      <trkpt lat="44.90408" lon="0.85701">
        <ele>132.1</ele>
        <time>2022-05-15T10:14:09Z</time>
      </trkpt>
      <trkpt lat="44.90405" lon="0.85698">
        <ele>132.5</ele>
        <time>2022-05-15T10:14:11Z</time>
      </trkpt>
      <trkpt lat="44.90402" lon="0.85695">
        <ele>132.9</ele>
        <time>2022-05-15T10:14:13Z</time>
      </trkpt>
      <trkpt lat="44.90398" lon="0.85692">
        <ele>133.4</ele>
        <time>2022-05-15T10:14:15Z</time>
      </trkpt>
      <trkpt lat="44.90395" lon="0.85688">
        <ele>133.9</ele>
        <time>2022-05-15T10:14:17Z</time>
      </trkpt>
      <trkpt lat="44.90395" lon="0.85686">
        <ele>134.1</ele>
        <time>2022-05-15T10:14:18Z</time>
      </trkpt>
      <trkpt lat="44.90395" lon="0.85684">
        <ele>134.3</ele>
        <time>2022-05-15T10:14:19Z</time>
      </trkpt>
      <trkpt lat="44.90394" lon="0.85679">
        <ele>134.7</ele>
        <time>2022-05-15T10:14:21Z</time>
      </trkpt>
      <trkpt lat="44.90391" lon="0.85675">
        <ele>135</ele>
        <time>2022-05-15T10:14:23Z</time>
      </trkpt>
      <trkpt lat="44.90389" lon="0.85672">
        <ele>135.1</ele>
        <time>2022-05-15T10:14:25Z</time>
      </trkpt>
      <trkpt lat="44.90387" lon="0.85669">
        <ele>135.3</ele>
        <time>2022-05-15T10:14:27Z</time>
      </trkpt>
      <trkpt lat="44.90384" lon="0.85665">
        <ele>135.4</ele>
        <time>2022-05-15T10:14:29Z</time>
      </trkpt>
      <trkpt lat="44.90381" lon="0.85664">
        <ele>135.6</ele>
        <time>2022-05-15T10:14:31Z</time>
      </trkpt>
      <trkpt lat="44.90378" lon="0.85661">
        <ele>135.7</ele>
        <time>2022-05-15T10:14:33Z</time>
      </trkpt>
      <trkpt lat="44.90374" lon="0.85658">
        <ele>135.8</ele>
        <time>2022-05-15T10:14:35Z</time>
      </trkpt>
      <trkpt lat="44.90372" lon="0.85658">
        <ele>135.8</ele>
        <time>2022-05-15T10:14:36Z</time>
      </trkpt>
      <trkpt lat="44.9037" lon="0.85657">
        <ele>135.8</ele>
        <time>2022-05-15T10:14:37Z</time>
      </trkpt>
      <trkpt lat="44.90365" lon="0.85655">
        <ele>135.8</ele>
        <time>2022-05-15T10:14:39Z</time>
      </trkpt>
      <trkpt lat="44.90359" lon="0.85653">
        <ele>135.7</ele>
        <time>2022-05-15T10:14:41Z</time>
      </trkpt>
      <trkpt lat="44.90354" lon="0.85651">
        <ele>135.5</ele>
        <time>2022-05-15T10:14:43Z</time>
      </trkpt>
      <trkpt lat="44.90348" lon="0.85649">
        <ele>135.4</ele>
        <time>2022-05-15T10:14:45Z</time>
      </trkpt>
      <trkpt lat="44.90343" lon="0.85646">
        <ele>135.2</ele>
        <time>2022-05-15T10:14:47Z</time>
      </trkpt>
      <trkpt lat="44.90337" lon="0.85643">
        <ele>135</ele>
        <time>2022-05-15T10:14:49Z</time>
      </trkpt>
      <trkpt lat="44.90331" lon="0.8564">
        <ele>134.8</ele>
        <time>2022-05-15T10:14:51Z</time>
      </trkpt>
      <trkpt lat="44.90324" lon="0.85637">
        <ele>134.4</ele>
        <time>2022-05-15T10:14:53Z</time>
      </trkpt>
      <trkpt lat="44.90317" lon="0.85634">
        <ele>134</ele>
        <time>2022-05-15T10:14:55Z</time>
      </trkpt>
      <trkpt lat="44.90313" lon="0.85632">
        <ele>133.8</ele>
        <time>2022-05-15T10:14:56Z</time>
      </trkpt>
      <trkpt lat="44.90308" lon="0.85631">
        <ele>133.5</ele>
        <time>2022-05-15T10:14:57Z</time>
      </trkpt>
      <trkpt lat="44.90299" lon="0.85629">
        <ele>133</ele>
        <time>2022-05-15T10:14:59Z</time>
      </trkpt>
      <trkpt lat="44.90289" lon="0.85627">
        <ele>132.5</ele>
        <time>2022-05-15T10:15:01Z</time>
      </trkpt>
      <trkpt lat="44.90278" lon="0.85624">
        <ele>132.1</ele>
        <time>2022-05-15T10:15:03Z</time>
      </trkpt>
      <trkpt lat="44.90267" lon="0.85622">
        <ele>131.6</ele>
        <time>2022-05-15T10:15:05Z</time>
      </trkpt>
      <trkpt lat="44.90256" lon="0.85619">
        <ele>131.2</ele>
        <time>2022-05-15T10:15:07Z</time>
      </trkpt>
      <trkpt lat="44.90244" lon="0.85616">
        <ele>131.2</ele>
        <time>2022-05-15T10:15:09Z</time>
      </trkpt>
      <trkpt lat="44.90239" lon="0.85615">
        <ele>131.3</ele>
        <time>2022-05-15T10:15:10Z</time>
      </trkpt>
      <trkpt lat="44.90234" lon="0.85614">
        <ele>131.5</ele>
        <time>2022-05-15T10:15:11Z</time>
      </trkpt>
      <trkpt lat="44.90226" lon="0.85617">
        <ele>131.7</ele>
        <time>2022-05-15T10:15:13Z</time>
      </trkpt>
      <trkpt lat="44.90223" lon="0.85619">
        <ele>131.8</ele>
        <time>2022-05-15T10:15:14Z</time>
      </trkpt>
      <trkpt lat="44.9022" lon="0.8562">
        <ele>131.9</ele>
        <time>2022-05-15T10:15:15Z</time>
      </trkpt>
      <trkpt lat="44.90221" lon="0.85625">
        <ele>132.1</ele>
        <time>2022-05-15T10:15:16Z</time>
      </trkpt>
      <trkpt lat="44.90221" lon="0.8563">
        <ele>132.2</ele>
        <time>2022-05-15T10:15:17Z</time>
      </trkpt>
      <trkpt lat="44.90221" lon="0.85638">
        <ele>132.5</ele>
        <time>2022-05-15T10:15:19Z</time>
      </trkpt>
      <trkpt lat="44.9022" lon="0.85643">
        <ele>132.6</ele>
        <time>2022-05-15T10:15:20Z</time>
      </trkpt>
      <trkpt lat="44.9022" lon="0.85647">
        <ele>132.8</ele>
        <time>2022-05-15T10:15:21Z</time>
      </trkpt>
      <trkpt lat="44.9022" lon="0.85655">
        <ele>133</ele>
        <time>2022-05-15T10:15:23Z</time>
      </trkpt>
      <trkpt lat="44.9022" lon="0.85663">
        <ele>133.2</ele>
        <time>2022-05-15T10:15:25Z</time>
      </trkpt>
      <trkpt lat="44.90222" lon="0.85671">
        <ele>133.3</ele>
        <time>2022-05-15T10:15:27Z</time>
      </trkpt>
      <trkpt lat="44.90224" lon="0.85678">
        <ele>133.4</ele>
        <time>2022-05-15T10:15:29Z</time>
      </trkpt>
      <trkpt lat="44.90224" lon="0.85688">
        <ele>133.5</ele>
        <time>2022-05-15T10:15:31Z</time>
      </trkpt>
      <trkpt lat="44.90223" lon="0.85693">
        <ele>133.5</ele>
        <time>2022-05-15T10:15:32Z</time>
      </trkpt>
      <trkpt lat="44.90217" lon="0.85695">
        <ele>133.5</ele>
        <time>2022-05-15T10:15:33Z</time>
      </trkpt>
      <trkpt lat="44.9021" lon="0.85696">
        <ele>133.5</ele>
        <time>2022-05-15T10:15:35Z</time>
      </trkpt>
      <trkpt lat="44.90207" lon="0.85696">
        <ele>133.6</ele>
        <time>2022-05-15T10:15:36Z</time>
      </trkpt>
      <trkpt lat="44.90203" lon="0.85697">
        <ele>133.6</ele>
        <time>2022-05-15T10:15:37Z</time>
      </trkpt>
      <trkpt lat="44.90197" lon="0.85697">
        <ele>133.6</ele>
        <time>2022-05-15T10:15:39Z</time>
      </trkpt>
      <trkpt lat="44.90191" lon="0.85698">
        <ele>133.7</ele>
        <time>2022-05-15T10:15:41Z</time>
      </trkpt>
      <trkpt lat="44.90184" lon="0.85699">
        <ele>133.8</ele>
        <time>2022-05-15T10:15:43Z</time>
      </trkpt>
      <trkpt lat="44.90178" lon="0.85699">
        <ele>133.9</ele>
        <time>2022-05-15T10:15:45Z</time>
      </trkpt>
      <trkpt lat="44.90171" lon="0.857">
        <ele>134</ele>
        <time>2022-05-15T10:15:47Z</time>
      </trkpt>
      <trkpt lat="44.90165" lon="0.85703">
        <ele>134</ele>
        <time>2022-05-15T10:15:49Z</time>
      </trkpt>
      <trkpt lat="44.90162" lon="0.85704">
        <ele>134.1</ele>
        <time>2022-05-15T10:15:50Z</time>
      </trkpt>
      <trkpt lat="44.90159" lon="0.85705">
        <ele>134.1</ele>
        <time>2022-05-15T10:15:51Z</time>
      </trkpt>
      <trkpt lat="44.90153" lon="0.85708">
        <ele>134.1</ele>
        <time>2022-05-15T10:15:53Z</time>
      </trkpt>
      <trkpt lat="44.90147" lon="0.8571">
        <ele>134.2</ele>
        <time>2022-05-15T10:15:55Z</time>
      </trkpt>
      <trkpt lat="44.90141" lon="0.85713">
        <ele>134.1</ele>
        <time>2022-05-15T10:15:57Z</time>
      </trkpt>
      <trkpt lat="44.90137" lon="0.85713">
        <ele>134.1</ele>
        <time>2022-05-15T10:15:58Z</time>
      </trkpt>
      <trkpt lat="44.90134" lon="0.85714">
        <ele>134.1</ele>
        <time>2022-05-15T10:15:59Z</time>
      </trkpt>
      <trkpt lat="44.90129" lon="0.85715">
        <ele>134.1</ele>
        <time>2022-05-15T10:16:01Z</time>
      </trkpt>
      <trkpt lat="44.90123" lon="0.85717">
        <ele>134</ele>
        <time>2022-05-15T10:16:03Z</time>
      </trkpt>
      <trkpt lat="44.90117" lon="0.85717">
        <ele>134</ele>
        <time>2022-05-15T10:16:05Z</time>
      </trkpt>
      <trkpt lat="44.9011" lon="0.85717">
        <ele>133.9</ele>
        <time>2022-05-15T10:16:07Z</time>
      </trkpt>
      <trkpt lat="44.90102" lon="0.85717">
        <ele>133.8</ele>
        <time>2022-05-15T10:16:09Z</time>
      </trkpt>
      <trkpt lat="44.90096" lon="0.85717">
        <ele>133.7</ele>
        <time>2022-05-15T10:16:11Z</time>
      </trkpt>
      <trkpt lat="44.90091" lon="0.85717">
        <ele>133.6</ele>
        <time>2022-05-15T10:16:13Z</time>
      </trkpt>
      <trkpt lat="44.90085" lon="0.85716">
        <ele>133.5</ele>
        <time>2022-05-15T10:16:15Z</time>
      </trkpt>
      <trkpt lat="44.90083" lon="0.85714">
        <ele>133.4</ele>
        <time>2022-05-15T10:16:16Z</time>
      </trkpt>
      <trkpt lat="44.90082" lon="0.85713">
        <ele>133.4</ele>
        <time>2022-05-15T10:16:17Z</time>
      </trkpt>
      <trkpt lat="44.9008" lon="0.85712">
        <ele>133.4</ele>
        <time>2022-05-15T10:16:19Z</time>
      </trkpt>
      <trkpt lat="44.90079" lon="0.85711">
        <ele>133.3</ele>
        <time>2022-05-15T10:16:21Z</time>
      </trkpt>
      <trkpt lat="44.90077" lon="0.85709">
        <ele>133.3</ele>
        <time>2022-05-15T10:16:22Z</time>
      </trkpt>
      <trkpt lat="44.90076" lon="0.85708">
        <ele>133.3</ele>
        <time>2022-05-15T10:16:23Z</time>
      </trkpt>
      <trkpt lat="44.90074" lon="0.8569">
        <ele>133</ele>
        <time>2022-05-15T10:16:25Z</time>
      </trkpt>
      <trkpt lat="44.90071" lon="0.85687">
        <ele>133</ele>
        <time>2022-05-15T10:16:27Z</time>
      </trkpt>
      <trkpt lat="44.9007" lon="0.85685">
        <ele>132.9</ele>
        <time>2022-05-15T10:16:28Z</time>
      </trkpt>
      <trkpt lat="44.9007" lon="0.85683">
        <ele>132.9</ele>
        <time>2022-05-15T10:16:29Z</time>
      </trkpt>
      <trkpt lat="44.9007" lon="0.8568">
        <ele>132.9</ele>
        <time>2022-05-15T10:16:30Z</time>
      </trkpt>
      <trkpt lat="44.9007" lon="0.85678">
        <ele>132.9</ele>
        <time>2022-05-15T10:16:31Z</time>
      </trkpt>
      <trkpt lat="44.90072" lon="0.85676">
        <ele>132.8</ele>
        <time>2022-05-15T10:16:33Z</time>
      </trkpt>
      <trkpt lat="44.90072" lon="0.85674">
        <ele>132.8</ele>
        <time>2022-05-15T10:16:35Z</time>
      </trkpt>
      <trkpt lat="44.90072" lon="0.85673">
        <ele>132.8</ele>
        <time>2022-05-15T10:16:36Z</time>
      </trkpt>
      <trkpt lat="44.90068" lon="0.85673">
        <ele>132.7</ele>
        <time>2022-05-15T10:16:43Z</time>
      </trkpt>
      <trkpt lat="44.90065" lon="0.85674">
        <ele>132.7</ele>
        <time>2022-05-15T10:16:44Z</time>
      </trkpt>
      <trkpt lat="44.90063" lon="0.85674">
        <ele>132.6</ele>
        <time>2022-05-15T10:16:45Z</time>
      </trkpt>
      <trkpt lat="44.90058" lon="0.85675">
        <ele>132.5</ele>
        <time>2022-05-15T10:16:47Z</time>
      </trkpt>
      <trkpt lat="44.90052" lon="0.85676">
        <ele>132.3</ele>
        <time>2022-05-15T10:16:49Z</time>
      </trkpt>
      <trkpt lat="44.90047" lon="0.85677">
        <ele>132.2</ele>
        <time>2022-05-15T10:16:51Z</time>
      </trkpt>
      <trkpt lat="44.90042" lon="0.85678">
        <ele>132</ele>
        <time>2022-05-15T10:16:53Z</time>
      </trkpt>
      <trkpt lat="44.90039" lon="0.8568">
        <ele>131.9</ele>
        <time>2022-05-15T10:16:55Z</time>
      </trkpt>
      <trkpt lat="44.90038" lon="0.85681">
        <ele>131.9</ele>
        <time>2022-05-15T10:16:56Z</time>
      </trkpt>
      <trkpt lat="44.90038" lon="0.85682">
        <ele>131.9</ele>
        <time>2022-05-15T10:16:57Z</time>
      </trkpt>
      <trkpt lat="44.90037" lon="0.85682">
        <ele>131.9</ele>
        <time>2022-05-15T10:16:59Z</time>
      </trkpt>
    </trkseg>
  </trk>
</gpx>